<?xml version="1.0" encoding="UTF-8" standalone="no" ?>
<gpx xmlns="http://www.topografix.com/GPX/1/1" xmlns:xsi="http://www.w3.org/2001/XMLSchema-instance" xsi:schemaLocation="http://www.topografix.com/GPX/1/1 http://www.topografix.com/GPX/1/1/gpx.xsd" version="1.1" creator="VisuGPX - https://www.visugpx.com">
  <metadata>
    <name>Rando de Lougres 2016</name>
    <desc><![CDATA[Meteo pas trop hostile et beau tracé]]></desc>
  </metadata>
  <wpt lat="47.47848" lon="6.68368">
    <ele>367</ele>
    <name><![CDATA[Point de cheminement 1]]></name>
  </wpt>
  <wpt lat="47.45953" lon="6.67898">
    <ele>330</ele>
    <name><![CDATA[Point de cheminement 2]]></name>
  </wpt>
  <wpt lat="47.44625" lon="6.63098">
    <ele>299</ele>
    <name><![CDATA[Point de cheminement 3]]></name>
  </wpt>
  <wpt lat="47.4276" lon="6.64484">
    <ele>397</ele>
    <name><![CDATA[Point de cheminement 4]]></name>
  </wpt>
  <wpt lat="47.42578" lon="6.66915">
    <ele>340</ele>
    <name><![CDATA[Point de cheminement 5]]></name>
  </wpt>
  <wpt lat="47.41735" lon="6.67989">
    <ele>375</ele>
    <name><![CDATA[Point de cheminement 6]]></name>
  </wpt>
  <wpt lat="47.40756" lon="6.68412">
    <ele>421</ele>
    <name><![CDATA[Point de cheminement 7]]></name>
  </wpt>
  <wpt lat="47.42459" lon="6.69049">
    <ele>353</ele>
    <name><![CDATA[Point de cheminement 8]]></name>
  </wpt>
  <wpt lat="47.43135" lon="6.70569">
    <ele>437</ele>
    <name><![CDATA[Point de cheminement 9]]></name>
  </wpt>
  <wpt lat="47.43491" lon="6.69419">
    <ele>408</ele>
    <name><![CDATA[Point de cheminement 10]]></name>
  </wpt>
  <wpt lat="47.4491" lon="6.68922">
    <ele>325</ele>
    <name><![CDATA[Point de cheminement 11]]></name>
  </wpt>
  <wpt lat="47.47256" lon="6.69488">
    <ele>312</ele>
    <name><![CDATA[Point de cheminement 12]]></name>
  </wpt>
  <trk>
    <name><![CDATA[Rue Antoine Coysevox]]></name>
    <trkseg>
      <trkpt lat="47.47363" lon="6.69186">
        <ele>309</ele>
        <time>2016-04-24T06:30:44.575Z</time>
      </trkpt>
      <trkpt lat="47.47361" lon="6.69181">
        <ele>309</ele>
        <time>2016-04-24T06:31:55Z</time>
      </trkpt>
      <trkpt lat="47.4736" lon="6.69177">
        <ele>309</ele>
        <time>2016-04-24T06:31:56Z</time>
      </trkpt>
      <trkpt lat="47.47359" lon="6.69173">
        <ele>309</ele>
        <time>2016-04-24T06:31:57Z</time>
      </trkpt>
      <trkpt lat="47.47357" lon="6.69169">
        <ele>309</ele>
        <time>2016-04-24T06:31:58Z</time>
      </trkpt>
      <trkpt lat="47.47355" lon="6.69165">
        <ele>310</ele>
        <time>2016-04-24T06:31:59Z</time>
      </trkpt>
      <trkpt lat="47.47354" lon="6.69162">
        <ele>310</ele>
        <time>2016-04-24T06:32:00Z</time>
      </trkpt>
      <trkpt lat="47.47352" lon="6.69158">
        <ele>310</ele>
        <time>2016-04-24T06:32:01Z</time>
      </trkpt>
      <trkpt lat="47.4735" lon="6.69155">
        <ele>310</ele>
        <time>2016-04-24T06:32:02Z</time>
      </trkpt>
      <trkpt lat="47.47347" lon="6.69152">
        <ele>310</ele>
        <time>2016-04-24T06:32:03Z</time>
      </trkpt>
      <trkpt lat="47.47345" lon="6.69148">
        <ele>310</ele>
        <time>2016-04-24T06:32:04Z</time>
      </trkpt>
      <trkpt lat="47.47343" lon="6.69145">
        <ele>310</ele>
        <time>2016-04-24T06:32:05Z</time>
      </trkpt>
      <trkpt lat="47.4734" lon="6.69142">
        <ele>310</ele>
        <time>2016-04-24T06:32:06Z</time>
      </trkpt>
      <trkpt lat="47.47337" lon="6.69138">
        <ele>310</ele>
        <time>2016-04-24T06:32:43Z</time>
      </trkpt>
      <trkpt lat="47.47336" lon="6.69138">
        <ele>310</ele>
        <time>2016-04-24T06:32:44Z</time>
      </trkpt>
      <trkpt lat="47.47334" lon="6.69138">
        <ele>310</ele>
        <time>2016-04-24T06:39:40Z</time>
      </trkpt>
      <trkpt lat="47.47331" lon="6.69137">
        <ele>309</ele>
        <time>2016-04-24T06:39:41Z</time>
      </trkpt>
      <trkpt lat="47.47329" lon="6.69134">
        <ele>309</ele>
        <time>2016-04-24T06:39:42Z</time>
      </trkpt>
      <trkpt lat="47.47326" lon="6.69129">
        <ele>309</ele>
        <time>2016-04-24T06:39:43Z</time>
      </trkpt>
      <trkpt lat="47.47323" lon="6.69123">
        <ele>309</ele>
        <time>2016-04-24T06:39:44Z</time>
      </trkpt>
      <trkpt lat="47.47321" lon="6.69118">
        <ele>309</ele>
        <time>2016-04-24T06:39:45Z</time>
      </trkpt>
      <trkpt lat="47.4732" lon="6.69113">
        <ele>309</ele>
        <time>2016-04-24T06:39:46Z</time>
      </trkpt>
      <trkpt lat="47.47319" lon="6.69107">
        <ele>309</ele>
        <time>2016-04-24T06:39:48Z</time>
      </trkpt>
      <trkpt lat="47.47319" lon="6.69105">
        <ele>309</ele>
        <time>2016-04-24T06:39:49Z</time>
      </trkpt>
      <trkpt lat="47.47318" lon="6.69099">
        <ele>309</ele>
        <time>2016-04-24T06:40:04Z</time>
      </trkpt>
      <trkpt lat="47.47318" lon="6.69097">
        <ele>309</ele>
        <time>2016-04-24T06:40:05Z</time>
      </trkpt>
      <trkpt lat="47.47318" lon="6.69092">
        <ele>309</ele>
        <time>2016-04-24T06:40:07Z</time>
      </trkpt>
      <trkpt lat="47.47318" lon="6.69089">
        <ele>309</ele>
        <time>2016-04-24T06:40:08Z</time>
      </trkpt>
      <trkpt lat="47.47318" lon="6.69086">
        <ele>309</ele>
        <time>2016-04-24T06:40:09Z</time>
      </trkpt>
      <trkpt lat="47.47319" lon="6.69082">
        <ele>309</ele>
        <time>2016-04-24T06:40:10Z</time>
      </trkpt>
      <trkpt lat="47.4732" lon="6.69079">
        <ele>309</ele>
        <time>2016-04-24T06:40:11Z</time>
      </trkpt>
      <trkpt lat="47.47321" lon="6.69075">
        <ele>309</ele>
        <time>2016-04-24T06:40:12Z</time>
      </trkpt>
      <trkpt lat="47.47323" lon="6.6907">
        <ele>309</ele>
        <time>2016-04-24T06:40:13Z</time>
      </trkpt>
      <trkpt lat="47.47324" lon="6.69065">
        <ele>309</ele>
        <time>2016-04-24T06:40:14Z</time>
      </trkpt>
      <trkpt lat="47.47326" lon="6.6906">
        <ele>309</ele>
        <time>2016-04-24T06:40:15Z</time>
      </trkpt>
      <trkpt lat="47.47327" lon="6.69055">
        <ele>309</ele>
        <time>2016-04-24T06:40:16Z</time>
      </trkpt>
      <trkpt lat="47.47328" lon="6.69051">
        <ele>309</ele>
        <time>2016-04-24T06:40:17Z</time>
      </trkpt>
      <trkpt lat="47.47329" lon="6.69047">
        <ele>309</ele>
        <time>2016-04-24T06:40:18Z</time>
      </trkpt>
      <trkpt lat="47.4733" lon="6.69041">
        <ele>309</ele>
        <time>2016-04-24T06:40:27Z</time>
      </trkpt>
      <trkpt lat="47.4733" lon="6.69038">
        <ele>309</ele>
        <time>2016-04-24T06:40:28Z</time>
      </trkpt>
      <trkpt lat="47.4733" lon="6.69035">
        <ele>309</ele>
        <time>2016-04-24T06:40:29Z</time>
      </trkpt>
      <trkpt lat="47.47331" lon="6.69031">
        <ele>309</ele>
        <time>2016-04-24T06:40:30Z</time>
      </trkpt>
      <trkpt lat="47.47331" lon="6.69026">
        <ele>309</ele>
        <time>2016-04-24T06:40:31Z</time>
      </trkpt>
      <trkpt lat="47.47332" lon="6.69022">
        <ele>309</ele>
        <time>2016-04-24T06:40:32Z</time>
      </trkpt>
      <trkpt lat="47.47334" lon="6.69012">
        <ele>309</ele>
        <time>2016-04-24T06:40:33Z</time>
      </trkpt>
      <trkpt lat="47.47337" lon="6.69005">
        <ele>309</ele>
        <time>2016-04-24T06:40:34Z</time>
      </trkpt>
      <trkpt lat="47.47339" lon="6.68997">
        <ele>309</ele>
        <time>2016-04-24T06:40:35Z</time>
      </trkpt>
      <trkpt lat="47.47342" lon="6.6899">
        <ele>310</ele>
        <time>2016-04-24T06:40:36Z</time>
      </trkpt>
      <trkpt lat="47.47345" lon="6.68984">
        <ele>310</ele>
        <time>2016-04-24T06:40:37Z</time>
      </trkpt>
      <trkpt lat="47.47348" lon="6.68981">
        <ele>310</ele>
        <time>2016-04-24T06:40:38Z</time>
      </trkpt>
      <trkpt lat="47.47351" lon="6.68976">
        <ele>310</ele>
        <time>2016-04-24T06:40:39Z</time>
      </trkpt>
      <trkpt lat="47.47354" lon="6.68972">
        <ele>311</ele>
        <time>2016-04-24T06:40:40Z</time>
      </trkpt>
      <trkpt lat="47.47358" lon="6.68967">
        <ele>311</ele>
        <time>2016-04-24T06:40:41Z</time>
      </trkpt>
      <trkpt lat="47.47362" lon="6.68962">
        <ele>311</ele>
        <time>2016-04-24T06:40:42Z</time>
      </trkpt>
      <trkpt lat="47.47364" lon="6.68958">
        <ele>311</ele>
        <time>2016-04-24T06:40:43Z</time>
      </trkpt>
      <trkpt lat="47.47367" lon="6.68953">
        <ele>311</ele>
        <time>2016-04-24T06:40:44Z</time>
      </trkpt>
      <trkpt lat="47.4737" lon="6.68948">
        <ele>311</ele>
        <time>2016-04-24T06:40:45Z</time>
      </trkpt>
      <trkpt lat="47.47373" lon="6.68944">
        <ele>311</ele>
        <time>2016-04-24T06:40:46Z</time>
      </trkpt>
      <trkpt lat="47.47376" lon="6.6894">
        <ele>311</ele>
        <time>2016-04-24T06:40:47Z</time>
      </trkpt>
      <trkpt lat="47.47379" lon="6.68937">
        <ele>311</ele>
        <time>2016-04-24T06:40:48Z</time>
      </trkpt>
      <trkpt lat="47.47382" lon="6.68933">
        <ele>311</ele>
        <time>2016-04-24T06:40:49Z</time>
      </trkpt>
      <trkpt lat="47.47385" lon="6.6893">
        <ele>311</ele>
        <time>2016-04-24T06:40:50Z</time>
      </trkpt>
      <trkpt lat="47.47388" lon="6.68926">
        <ele>312</ele>
        <time>2016-04-24T06:40:51Z</time>
      </trkpt>
      <trkpt lat="47.47391" lon="6.68922">
        <ele>312</ele>
        <time>2016-04-24T06:40:52Z</time>
      </trkpt>
      <trkpt lat="47.47394" lon="6.68918">
        <ele>312</ele>
        <time>2016-04-24T06:40:53Z</time>
      </trkpt>
      <trkpt lat="47.47397" lon="6.68914">
        <ele>313</ele>
        <time>2016-04-24T06:40:54Z</time>
      </trkpt>
      <trkpt lat="47.474" lon="6.6891">
        <ele>313</ele>
        <time>2016-04-24T06:40:55Z</time>
      </trkpt>
      <trkpt lat="47.47403" lon="6.68907">
        <ele>313</ele>
        <time>2016-04-24T06:40:56Z</time>
      </trkpt>
      <trkpt lat="47.47405" lon="6.68903">
        <ele>313</ele>
        <time>2016-04-24T06:40:57Z</time>
      </trkpt>
      <trkpt lat="47.47408" lon="6.68899">
        <ele>313</ele>
        <time>2016-04-24T06:40:58Z</time>
      </trkpt>
      <trkpt lat="47.47411" lon="6.68896">
        <ele>314</ele>
        <time>2016-04-24T06:40:59Z</time>
      </trkpt>
      <trkpt lat="47.47413" lon="6.68892">
        <ele>314</ele>
        <time>2016-04-24T06:41:00Z</time>
      </trkpt>
      <trkpt lat="47.47416" lon="6.68889">
        <ele>314</ele>
        <time>2016-04-24T06:41:01Z</time>
      </trkpt>
      <trkpt lat="47.47418" lon="6.68885">
        <ele>316</ele>
        <time>2016-04-24T06:41:02Z</time>
      </trkpt>
      <trkpt lat="47.4742" lon="6.68882">
        <ele>316</ele>
        <time>2016-04-24T06:41:03Z</time>
      </trkpt>
      <trkpt lat="47.47423" lon="6.68879">
        <ele>316</ele>
        <time>2016-04-24T06:41:04Z</time>
      </trkpt>
      <trkpt lat="47.47425" lon="6.68875">
        <ele>317</ele>
        <time>2016-04-24T06:41:05Z</time>
      </trkpt>
      <trkpt lat="47.47428" lon="6.68872">
        <ele>317</ele>
        <time>2016-04-24T06:41:06Z</time>
      </trkpt>
      <trkpt lat="47.4743" lon="6.68868">
        <ele>317</ele>
        <time>2016-04-24T06:41:07Z</time>
      </trkpt>
      <trkpt lat="47.47432" lon="6.68865">
        <ele>317</ele>
        <time>2016-04-24T06:41:08Z</time>
      </trkpt>
      <trkpt lat="47.47434" lon="6.68862">
        <ele>317</ele>
        <time>2016-04-24T06:41:09Z</time>
      </trkpt>
      <trkpt lat="47.47436" lon="6.68859">
        <ele>317</ele>
        <time>2016-04-24T06:41:10Z</time>
      </trkpt>
      <trkpt lat="47.47439" lon="6.68855">
        <ele>317</ele>
        <time>2016-04-24T06:41:11Z</time>
      </trkpt>
      <trkpt lat="47.47441" lon="6.68852">
        <ele>317</ele>
        <time>2016-04-24T06:41:12Z</time>
      </trkpt>
      <trkpt lat="47.47444" lon="6.68848">
        <ele>318</ele>
        <time>2016-04-24T06:41:13Z</time>
      </trkpt>
      <trkpt lat="47.47447" lon="6.68845">
        <ele>318</ele>
        <time>2016-04-24T06:41:14Z</time>
      </trkpt>
      <trkpt lat="47.47451" lon="6.68843">
        <ele>318</ele>
        <time>2016-04-24T06:41:15Z</time>
      </trkpt>
      <trkpt lat="47.47454" lon="6.68843">
        <ele>318</ele>
        <time>2016-04-24T06:41:16Z</time>
      </trkpt>
      <trkpt lat="47.47458" lon="6.68844">
        <ele>318</ele>
        <time>2016-04-24T06:41:17Z</time>
      </trkpt>
      <trkpt lat="47.47461" lon="6.68845">
        <ele>318</ele>
        <time>2016-04-24T06:41:18Z</time>
      </trkpt>
      <trkpt lat="47.47465" lon="6.68848">
        <ele>318</ele>
        <time>2016-04-24T06:41:19Z</time>
      </trkpt>
      <trkpt lat="47.47469" lon="6.6885">
        <ele>318</ele>
        <time>2016-04-24T06:41:20Z</time>
      </trkpt>
      <trkpt lat="47.47472" lon="6.68853">
        <ele>318</ele>
        <time>2016-04-24T06:41:21Z</time>
      </trkpt>
      <trkpt lat="47.47476" lon="6.68855">
        <ele>318</ele>
        <time>2016-04-24T06:41:22Z</time>
      </trkpt>
      <trkpt lat="47.47479" lon="6.68857">
        <ele>319</ele>
        <time>2016-04-24T06:41:23Z</time>
      </trkpt>
      <trkpt lat="47.47483" lon="6.68859">
        <ele>319</ele>
        <time>2016-04-24T06:41:24Z</time>
      </trkpt>
      <trkpt lat="47.47486" lon="6.6886">
        <ele>319</ele>
        <time>2016-04-24T06:41:25Z</time>
      </trkpt>
      <trkpt lat="47.47489" lon="6.68861">
        <ele>319</ele>
        <time>2016-04-24T06:41:26Z</time>
      </trkpt>
      <trkpt lat="47.47493" lon="6.68861">
        <ele>319</ele>
        <time>2016-04-24T06:41:27Z</time>
      </trkpt>
      <trkpt lat="47.47496" lon="6.68862">
        <ele>319</ele>
        <time>2016-04-24T06:41:28Z</time>
      </trkpt>
      <trkpt lat="47.47499" lon="6.68862">
        <ele>319</ele>
        <time>2016-04-24T06:41:29Z</time>
      </trkpt>
      <trkpt lat="47.47502" lon="6.68861">
        <ele>321</ele>
        <time>2016-04-24T06:41:30Z</time>
      </trkpt>
      <trkpt lat="47.47506" lon="6.68861">
        <ele>321</ele>
        <time>2016-04-24T06:41:31Z</time>
      </trkpt>
      <trkpt lat="47.47509" lon="6.68861">
        <ele>321</ele>
        <time>2016-04-24T06:41:32Z</time>
      </trkpt>
      <trkpt lat="47.47512" lon="6.6886">
        <ele>322</ele>
        <time>2016-04-24T06:41:33Z</time>
      </trkpt>
      <trkpt lat="47.47515" lon="6.6886">
        <ele>322</ele>
        <time>2016-04-24T06:41:34Z</time>
      </trkpt>
      <trkpt lat="47.47518" lon="6.68861">
        <ele>322</ele>
        <time>2016-04-24T06:41:35Z</time>
      </trkpt>
      <trkpt lat="47.4752" lon="6.68861">
        <ele>322</ele>
        <time>2016-04-24T06:41:36Z</time>
      </trkpt>
      <trkpt lat="47.47523" lon="6.6886">
        <ele>322</ele>
        <time>2016-04-24T06:41:37Z</time>
      </trkpt>
      <trkpt lat="47.47526" lon="6.68859">
        <ele>322</ele>
        <time>2016-04-24T06:41:38Z</time>
      </trkpt>
      <trkpt lat="47.47529" lon="6.68858">
        <ele>322</ele>
        <time>2016-04-24T06:41:39Z</time>
      </trkpt>
      <trkpt lat="47.47532" lon="6.68857">
        <ele>322</ele>
        <time>2016-04-24T06:41:40Z</time>
      </trkpt>
      <trkpt lat="47.47535" lon="6.68856">
        <ele>322</ele>
        <time>2016-04-24T06:41:41Z</time>
      </trkpt>
      <trkpt lat="47.47538" lon="6.68855">
        <ele>322</ele>
        <time>2016-04-24T06:41:42Z</time>
      </trkpt>
      <trkpt lat="47.47541" lon="6.68854">
        <ele>322</ele>
        <time>2016-04-24T06:41:43Z</time>
      </trkpt>
      <trkpt lat="47.47544" lon="6.68853">
        <ele>322</ele>
        <time>2016-04-24T06:41:44Z</time>
      </trkpt>
      <trkpt lat="47.47547" lon="6.68852">
        <ele>322</ele>
        <time>2016-04-24T06:41:45Z</time>
      </trkpt>
      <trkpt lat="47.4755" lon="6.68851">
        <ele>323</ele>
        <time>2016-04-24T06:41:46Z</time>
      </trkpt>
      <trkpt lat="47.47553" lon="6.6885">
        <ele>323</ele>
        <time>2016-04-24T06:41:47Z</time>
      </trkpt>
      <trkpt lat="47.47555" lon="6.68849">
        <ele>323</ele>
        <time>2016-04-24T06:41:48Z</time>
      </trkpt>
      <trkpt lat="47.47558" lon="6.68848">
        <ele>323</ele>
        <time>2016-04-24T06:41:49Z</time>
      </trkpt>
      <trkpt lat="47.47561" lon="6.68847">
        <ele>323</ele>
        <time>2016-04-24T06:41:50Z</time>
      </trkpt>
      <trkpt lat="47.47563" lon="6.68847">
        <ele>323</ele>
        <time>2016-04-24T06:41:51Z</time>
      </trkpt>
      <trkpt lat="47.47566" lon="6.68846">
        <ele>323</ele>
        <time>2016-04-24T06:41:52Z</time>
      </trkpt>
      <trkpt lat="47.47569" lon="6.68845">
        <ele>323</ele>
        <time>2016-04-24T06:41:53Z</time>
      </trkpt>
      <trkpt lat="47.47572" lon="6.68844">
        <ele>324</ele>
        <time>2016-04-24T06:41:54Z</time>
      </trkpt>
      <trkpt lat="47.47575" lon="6.68842">
        <ele>324</ele>
        <time>2016-04-24T06:41:55Z</time>
      </trkpt>
      <trkpt lat="47.47578" lon="6.68841">
        <ele>324</ele>
        <time>2016-04-24T06:41:56Z</time>
      </trkpt>
      <trkpt lat="47.47581" lon="6.6884">
        <ele>324</ele>
        <time>2016-04-24T06:41:57Z</time>
      </trkpt>
      <trkpt lat="47.47584" lon="6.68839">
        <ele>325</ele>
        <time>2016-04-24T06:41:58Z</time>
      </trkpt>
      <trkpt lat="47.47587" lon="6.68837">
        <ele>325</ele>
        <time>2016-04-24T06:41:59Z</time>
      </trkpt>
      <trkpt lat="47.4759" lon="6.68836">
        <ele>325</ele>
        <time>2016-04-24T06:42:00Z</time>
      </trkpt>
      <trkpt lat="47.47593" lon="6.68834">
        <ele>325</ele>
        <time>2016-04-24T06:42:01Z</time>
      </trkpt>
      <trkpt lat="47.47596" lon="6.68833">
        <ele>326</ele>
        <time>2016-04-24T06:42:02Z</time>
      </trkpt>
      <trkpt lat="47.47598" lon="6.68831">
        <ele>326</ele>
        <time>2016-04-24T06:42:03Z</time>
      </trkpt>
      <trkpt lat="47.47601" lon="6.68829">
        <ele>326</ele>
        <time>2016-04-24T06:42:04Z</time>
      </trkpt>
      <trkpt lat="47.47604" lon="6.68827">
        <ele>327</ele>
        <time>2016-04-24T06:42:05Z</time>
      </trkpt>
      <trkpt lat="47.47607" lon="6.68825">
        <ele>327</ele>
        <time>2016-04-24T06:42:06Z</time>
      </trkpt>
      <trkpt lat="47.4761" lon="6.68823">
        <ele>327</ele>
        <time>2016-04-24T06:42:07Z</time>
      </trkpt>
      <trkpt lat="47.47613" lon="6.68821">
        <ele>327</ele>
        <time>2016-04-24T06:42:08Z</time>
      </trkpt>
      <trkpt lat="47.47616" lon="6.68819">
        <ele>327</ele>
        <time>2016-04-24T06:42:09Z</time>
      </trkpt>
      <trkpt lat="47.47619" lon="6.68816">
        <ele>327</ele>
        <time>2016-04-24T06:42:10Z</time>
      </trkpt>
      <trkpt lat="47.47622" lon="6.68814">
        <ele>327</ele>
        <time>2016-04-24T06:42:11Z</time>
      </trkpt>
      <trkpt lat="47.47625" lon="6.68811">
        <ele>327</ele>
        <time>2016-04-24T06:42:12Z</time>
      </trkpt>
      <trkpt lat="47.47627" lon="6.68809">
        <ele>328</ele>
        <time>2016-04-24T06:42:13Z</time>
      </trkpt>
      <trkpt lat="47.4763" lon="6.68806">
        <ele>328</ele>
        <time>2016-04-24T06:42:14Z</time>
      </trkpt>
      <trkpt lat="47.47632" lon="6.68804">
        <ele>328</ele>
        <time>2016-04-24T06:42:15Z</time>
      </trkpt>
      <trkpt lat="47.47634" lon="6.688">
        <ele>328</ele>
        <time>2016-04-24T06:42:16Z</time>
      </trkpt>
      <trkpt lat="47.47635" lon="6.68797">
        <ele>328</ele>
        <time>2016-04-24T06:42:17Z</time>
      </trkpt>
      <trkpt lat="47.47636" lon="6.68793">
        <ele>328</ele>
        <time>2016-04-24T06:42:18Z</time>
      </trkpt>
      <trkpt lat="47.47637" lon="6.68788">
        <ele>328</ele>
        <time>2016-04-24T06:42:19Z</time>
      </trkpt>
      <trkpt lat="47.47638" lon="6.68784">
        <ele>328</ele>
        <time>2016-04-24T06:42:20Z</time>
      </trkpt>
      <trkpt lat="47.47638" lon="6.68779">
        <ele>328</ele>
        <time>2016-04-24T06:42:21Z</time>
      </trkpt>
      <trkpt lat="47.47639" lon="6.68775">
        <ele>328</ele>
        <time>2016-04-24T06:42:22Z</time>
      </trkpt>
      <trkpt lat="47.4764" lon="6.6877">
        <ele>328</ele>
        <time>2016-04-24T06:42:23Z</time>
      </trkpt>
      <trkpt lat="47.47641" lon="6.68766">
        <ele>328</ele>
        <time>2016-04-24T06:42:24Z</time>
      </trkpt>
      <trkpt lat="47.47642" lon="6.68762">
        <ele>328</ele>
        <time>2016-04-24T06:42:25Z</time>
      </trkpt>
      <trkpt lat="47.47642" lon="6.68758">
        <ele>328</ele>
        <time>2016-04-24T06:42:26Z</time>
      </trkpt>
      <trkpt lat="47.47643" lon="6.68754">
        <ele>328</ele>
        <time>2016-04-24T06:42:27Z</time>
      </trkpt>
      <trkpt lat="47.47643" lon="6.6875">
        <ele>328</ele>
        <time>2016-04-24T06:42:28Z</time>
      </trkpt>
      <trkpt lat="47.47643" lon="6.68746">
        <ele>329</ele>
        <time>2016-04-24T06:42:29Z</time>
      </trkpt>
      <trkpt lat="47.47643" lon="6.68743">
        <ele>329</ele>
        <time>2016-04-24T06:42:30Z</time>
      </trkpt>
      <trkpt lat="47.47643" lon="6.68739">
        <ele>329</ele>
        <time>2016-04-24T06:42:31Z</time>
      </trkpt>
      <trkpt lat="47.47644" lon="6.68735">
        <ele>329</ele>
        <time>2016-04-24T06:42:32Z</time>
      </trkpt>
      <trkpt lat="47.47644" lon="6.68731">
        <ele>329</ele>
        <time>2016-04-24T06:42:33Z</time>
      </trkpt>
      <trkpt lat="47.47644" lon="6.68727">
        <ele>329</ele>
        <time>2016-04-24T06:42:34Z</time>
      </trkpt>
      <trkpt lat="47.47645" lon="6.68723">
        <ele>329</ele>
        <time>2016-04-24T06:42:35Z</time>
      </trkpt>
      <trkpt lat="47.47645" lon="6.68718">
        <ele>329</ele>
        <time>2016-04-24T06:42:36Z</time>
      </trkpt>
      <trkpt lat="47.47646" lon="6.68714">
        <ele>329</ele>
        <time>2016-04-24T06:42:37Z</time>
      </trkpt>
      <trkpt lat="47.47646" lon="6.6871">
        <ele>330</ele>
        <time>2016-04-24T06:42:38Z</time>
      </trkpt>
      <trkpt lat="47.47648" lon="6.68707">
        <ele>330</ele>
        <time>2016-04-24T06:42:39Z</time>
      </trkpt>
      <trkpt lat="47.47649" lon="6.68703">
        <ele>330</ele>
        <time>2016-04-24T06:42:40Z</time>
      </trkpt>
      <trkpt lat="47.47651" lon="6.68699">
        <ele>330</ele>
        <time>2016-04-24T06:42:41Z</time>
      </trkpt>
      <trkpt lat="47.47653" lon="6.68695">
        <ele>330</ele>
        <time>2016-04-24T06:42:42Z</time>
      </trkpt>
      <trkpt lat="47.47655" lon="6.68691">
        <ele>330</ele>
        <time>2016-04-24T06:42:43Z</time>
      </trkpt>
      <trkpt lat="47.47657" lon="6.68687">
        <ele>330</ele>
        <time>2016-04-24T06:42:44Z</time>
      </trkpt>
      <trkpt lat="47.47659" lon="6.68683">
        <ele>331</ele>
        <time>2016-04-24T06:42:45Z</time>
      </trkpt>
      <trkpt lat="47.47661" lon="6.6868">
        <ele>331</ele>
        <time>2016-04-24T06:42:46Z</time>
      </trkpt>
      <trkpt lat="47.47663" lon="6.68677">
        <ele>331</ele>
        <time>2016-04-24T06:42:47Z</time>
      </trkpt>
      <trkpt lat="47.47665" lon="6.68674">
        <ele>331</ele>
        <time>2016-04-24T06:42:48Z</time>
      </trkpt>
      <trkpt lat="47.47668" lon="6.68672">
        <ele>331</ele>
        <time>2016-04-24T06:42:49Z</time>
      </trkpt>
      <trkpt lat="47.4767" lon="6.68669">
        <ele>331</ele>
        <time>2016-04-24T06:42:50Z</time>
      </trkpt>
      <trkpt lat="47.47673" lon="6.68667">
        <ele>331</ele>
        <time>2016-04-24T06:42:51Z</time>
      </trkpt>
      <trkpt lat="47.47675" lon="6.68665">
        <ele>332</ele>
        <time>2016-04-24T06:42:52Z</time>
      </trkpt>
      <trkpt lat="47.47678" lon="6.68662">
        <ele>332</ele>
        <time>2016-04-24T06:42:53Z</time>
      </trkpt>
      <trkpt lat="47.4768" lon="6.68659">
        <ele>332</ele>
        <time>2016-04-24T06:42:54Z</time>
      </trkpt>
      <trkpt lat="47.47683" lon="6.68656">
        <ele>332</ele>
        <time>2016-04-24T06:42:55Z</time>
      </trkpt>
      <trkpt lat="47.47685" lon="6.68652">
        <ele>332</ele>
        <time>2016-04-24T06:42:56Z</time>
      </trkpt>
      <trkpt lat="47.47687" lon="6.68649">
        <ele>332</ele>
        <time>2016-04-24T06:42:57Z</time>
      </trkpt>
      <trkpt lat="47.4769" lon="6.68646">
        <ele>332</ele>
        <time>2016-04-24T06:42:58Z</time>
      </trkpt>
      <trkpt lat="47.47692" lon="6.68642">
        <ele>333</ele>
        <time>2016-04-24T06:42:59Z</time>
      </trkpt>
      <trkpt lat="47.47695" lon="6.68638">
        <ele>333</ele>
        <time>2016-04-24T06:43:00Z</time>
      </trkpt>
      <trkpt lat="47.47697" lon="6.68634">
        <ele>333</ele>
        <time>2016-04-24T06:43:01Z</time>
      </trkpt>
      <trkpt lat="47.477" lon="6.6863">
        <ele>333</ele>
        <time>2016-04-24T06:43:02Z</time>
      </trkpt>
      <trkpt lat="47.47703" lon="6.68626">
        <ele>333</ele>
        <time>2016-04-24T06:43:03Z</time>
      </trkpt>
      <trkpt lat="47.47705" lon="6.68623">
        <ele>333</ele>
        <time>2016-04-24T06:43:04Z</time>
      </trkpt>
      <trkpt lat="47.47707" lon="6.6862">
        <ele>333</ele>
        <time>2016-04-24T06:43:05Z</time>
      </trkpt>
      <trkpt lat="47.4771" lon="6.68616">
        <ele>333</ele>
        <time>2016-04-24T06:43:06Z</time>
      </trkpt>
      <trkpt lat="47.47712" lon="6.68613">
        <ele>333</ele>
        <time>2016-04-24T06:43:07Z</time>
      </trkpt>
      <trkpt lat="47.47714" lon="6.68609">
        <ele>333</ele>
        <time>2016-04-24T06:43:08Z</time>
      </trkpt>
      <trkpt lat="47.47716" lon="6.68606">
        <ele>333</ele>
        <time>2016-04-24T06:43:09Z</time>
      </trkpt>
      <trkpt lat="47.47718" lon="6.68603">
        <ele>333</ele>
        <time>2016-04-24T06:43:10Z</time>
      </trkpt>
      <trkpt lat="47.4772" lon="6.68601">
        <ele>333</ele>
        <time>2016-04-24T06:43:11Z</time>
      </trkpt>
      <trkpt lat="47.47722" lon="6.68598">
        <ele>333</ele>
        <time>2016-04-24T06:43:12Z</time>
      </trkpt>
      <trkpt lat="47.47724" lon="6.68596">
        <ele>333</ele>
        <time>2016-04-24T06:43:13Z</time>
      </trkpt>
      <trkpt lat="47.47726" lon="6.68593">
        <ele>333</ele>
        <time>2016-04-24T06:43:14Z</time>
      </trkpt>
      <trkpt lat="47.47728" lon="6.68591">
        <ele>333</ele>
        <time>2016-04-24T06:43:15Z</time>
      </trkpt>
      <trkpt lat="47.47731" lon="6.68588">
        <ele>333</ele>
        <time>2016-04-24T06:43:16Z</time>
      </trkpt>
      <trkpt lat="47.47733" lon="6.68586">
        <ele>334</ele>
        <time>2016-04-24T06:43:17Z</time>
      </trkpt>
      <trkpt lat="47.47735" lon="6.68584">
        <ele>334</ele>
        <time>2016-04-24T06:43:18Z</time>
      </trkpt>
      <trkpt lat="47.47738" lon="6.68582">
        <ele>336</ele>
        <time>2016-04-24T06:43:19Z</time>
      </trkpt>
      <trkpt lat="47.4774" lon="6.68581">
        <ele>336</ele>
        <time>2016-04-24T06:43:20Z</time>
      </trkpt>
      <trkpt lat="47.47743" lon="6.68579">
        <ele>336</ele>
        <time>2016-04-24T06:43:21Z</time>
      </trkpt>
      <trkpt lat="47.47747" lon="6.68577">
        <ele>336</ele>
        <time>2016-04-24T06:43:22Z</time>
      </trkpt>
      <trkpt lat="47.4775" lon="6.68576">
        <ele>337</ele>
        <time>2016-04-24T06:43:23Z</time>
      </trkpt>
      <trkpt lat="47.47753" lon="6.68574">
        <ele>337</ele>
        <time>2016-04-24T06:43:24Z</time>
      </trkpt>
      <trkpt lat="47.47757" lon="6.68572">
        <ele>338</ele>
        <time>2016-04-24T06:43:25Z</time>
      </trkpt>
      <trkpt lat="47.47759" lon="6.68572">
        <ele>338</ele>
        <time>2016-04-24T06:43:26Z</time>
      </trkpt>
      <trkpt lat="47.47761" lon="6.68571">
        <ele>339</ele>
        <time>2016-04-24T06:43:27Z</time>
      </trkpt>
      <trkpt lat="47.47764" lon="6.68571">
        <ele>339</ele>
        <time>2016-04-24T06:43:28Z</time>
      </trkpt>
      <trkpt lat="47.47766" lon="6.6857">
        <ele>340</ele>
        <time>2016-04-24T06:43:29Z</time>
      </trkpt>
      <trkpt lat="47.47769" lon="6.68569">
        <ele>340</ele>
        <time>2016-04-24T06:43:30Z</time>
      </trkpt>
      <trkpt lat="47.47771" lon="6.68568">
        <ele>341</ele>
        <time>2016-04-24T06:43:31Z</time>
      </trkpt>
      <trkpt lat="47.47774" lon="6.68567">
        <ele>341</ele>
        <time>2016-04-24T06:43:32Z</time>
      </trkpt>
      <trkpt lat="47.47776" lon="6.68566">
        <ele>341</ele>
        <time>2016-04-24T06:43:33Z</time>
      </trkpt>
      <trkpt lat="47.47779" lon="6.68565">
        <ele>342</ele>
        <time>2016-04-24T06:43:34Z</time>
      </trkpt>
      <trkpt lat="47.47781" lon="6.68564">
        <ele>342</ele>
        <time>2016-04-24T06:43:35Z</time>
      </trkpt>
      <trkpt lat="47.47783" lon="6.68562">
        <ele>342</ele>
        <time>2016-04-24T06:43:36Z</time>
      </trkpt>
      <trkpt lat="47.47786" lon="6.68561">
        <ele>342</ele>
        <time>2016-04-24T06:43:37Z</time>
      </trkpt>
      <trkpt lat="47.47788" lon="6.6856">
        <ele>343</ele>
        <time>2016-04-24T06:43:38Z</time>
      </trkpt>
      <trkpt lat="47.4779" lon="6.68559">
        <ele>343</ele>
        <time>2016-04-24T06:43:39Z</time>
      </trkpt>
      <trkpt lat="47.47794" lon="6.68557">
        <ele>343</ele>
        <time>2016-04-24T06:43:41Z</time>
      </trkpt>
      <trkpt lat="47.47796" lon="6.68557">
        <ele>343</ele>
        <time>2016-04-24T06:43:42Z</time>
      </trkpt>
      <trkpt lat="47.478" lon="6.68555">
        <ele>344</ele>
        <time>2016-04-24T06:43:44Z</time>
      </trkpt>
      <trkpt lat="47.47802" lon="6.68554">
        <ele>344</ele>
        <time>2016-04-24T06:43:45Z</time>
      </trkpt>
      <trkpt lat="47.47804" lon="6.68553">
        <ele>344</ele>
        <time>2016-04-24T06:43:46Z</time>
      </trkpt>
      <trkpt lat="47.47807" lon="6.68552">
        <ele>344</ele>
        <time>2016-04-24T06:43:47Z</time>
      </trkpt>
      <trkpt lat="47.47809" lon="6.68551">
        <ele>344</ele>
        <time>2016-04-24T06:43:48Z</time>
      </trkpt>
      <trkpt lat="47.47811" lon="6.68549">
        <ele>344</ele>
        <time>2016-04-24T06:43:49Z</time>
      </trkpt>
      <trkpt lat="47.47813" lon="6.68548">
        <ele>345</ele>
        <time>2016-04-24T06:43:50Z</time>
      </trkpt>
      <trkpt lat="47.47815" lon="6.68546">
        <ele>345</ele>
        <time>2016-04-24T06:43:51Z</time>
      </trkpt>
      <trkpt lat="47.47818" lon="6.68543">
        <ele>345</ele>
        <time>2016-04-24T06:43:52Z</time>
      </trkpt>
      <trkpt lat="47.4782" lon="6.68542">
        <ele>345</ele>
        <time>2016-04-24T06:43:53Z</time>
      </trkpt>
      <trkpt lat="47.47822" lon="6.68539">
        <ele>346</ele>
        <time>2016-04-24T06:43:54Z</time>
      </trkpt>
      <trkpt lat="47.47824" lon="6.68537">
        <ele>346</ele>
        <time>2016-04-24T06:43:55Z</time>
      </trkpt>
      <trkpt lat="47.47827" lon="6.68535">
        <ele>346</ele>
        <time>2016-04-24T06:43:56Z</time>
      </trkpt>
      <trkpt lat="47.47829" lon="6.68533">
        <ele>347</ele>
        <time>2016-04-24T06:43:57Z</time>
      </trkpt>
      <trkpt lat="47.47831" lon="6.6853">
        <ele>347</ele>
        <time>2016-04-24T06:43:58Z</time>
      </trkpt>
      <trkpt lat="47.47833" lon="6.68528">
        <ele>347</ele>
        <time>2016-04-24T06:43:59Z</time>
      </trkpt>
      <trkpt lat="47.47835" lon="6.68524">
        <ele>352</ele>
        <time>2016-04-24T06:44:00Z</time>
      </trkpt>
      <trkpt lat="47.47837" lon="6.68521">
        <ele>352</ele>
        <time>2016-04-24T06:44:01Z</time>
      </trkpt>
      <trkpt lat="47.47838" lon="6.68518">
        <ele>352</ele>
        <time>2016-04-24T06:44:01.999Z</time>
      </trkpt>
      <trkpt lat="47.4784" lon="6.68514">
        <ele>353</ele>
        <time>2016-04-24T06:44:03Z</time>
      </trkpt>
      <trkpt lat="47.47841" lon="6.68511">
        <ele>353</ele>
        <time>2016-04-24T06:44:03.999Z</time>
      </trkpt>
      <trkpt lat="47.47843" lon="6.68508">
        <ele>353</ele>
        <time>2016-04-24T06:44:05Z</time>
      </trkpt>
      <trkpt lat="47.47845" lon="6.68505">
        <ele>353</ele>
        <time>2016-04-24T06:44:06Z</time>
      </trkpt>
      <trkpt lat="47.47846" lon="6.68503">
        <ele>353</ele>
        <time>2016-04-24T06:44:07Z</time>
      </trkpt>
      <trkpt lat="47.47848" lon="6.685">
        <ele>353</ele>
        <time>2016-04-24T06:44:08Z</time>
      </trkpt>
      <trkpt lat="47.47849" lon="6.68498">
        <ele>357</ele>
        <time>2016-04-24T06:44:08.999Z</time>
      </trkpt>
      <trkpt lat="47.4785" lon="6.68495">
        <ele>357</ele>
        <time>2016-04-24T06:44:10Z</time>
      </trkpt>
      <trkpt lat="47.47852" lon="6.68492">
        <ele>357</ele>
        <time>2016-04-24T06:44:11Z</time>
      </trkpt>
      <trkpt lat="47.47853" lon="6.68489">
        <ele>358</ele>
        <time>2016-04-24T06:44:12Z</time>
      </trkpt>
      <trkpt lat="47.47855" lon="6.68487">
        <ele>358</ele>
        <time>2016-04-24T06:44:13Z</time>
      </trkpt>
      <trkpt lat="47.47858" lon="6.68482">
        <ele>358</ele>
        <time>2016-04-24T06:44:15Z</time>
      </trkpt>
      <trkpt lat="47.47859" lon="6.6848">
        <ele>358</ele>
        <time>2016-04-24T06:44:16Z</time>
      </trkpt>
      <trkpt lat="47.47861" lon="6.68477">
        <ele>359</ele>
        <time>2016-04-24T06:44:17Z</time>
      </trkpt>
      <trkpt lat="47.47862" lon="6.68474">
        <ele>359</ele>
        <time>2016-04-24T06:44:18Z</time>
      </trkpt>
      <trkpt lat="47.47863" lon="6.68471">
        <ele>359</ele>
        <time>2016-04-24T06:44:19Z</time>
      </trkpt>
      <trkpt lat="47.47865" lon="6.68468">
        <ele>359</ele>
        <time>2016-04-24T06:44:20Z</time>
      </trkpt>
      <trkpt lat="47.47866" lon="6.68466">
        <ele>359</ele>
        <time>2016-04-24T06:44:21Z</time>
      </trkpt>
      <trkpt lat="47.47868" lon="6.68463">
        <ele>359</ele>
        <time>2016-04-24T06:44:22Z</time>
      </trkpt>
      <trkpt lat="47.47869" lon="6.6846">
        <ele>360</ele>
        <time>2016-04-24T06:44:23Z</time>
      </trkpt>
      <trkpt lat="47.47871" lon="6.68458">
        <ele>360</ele>
        <time>2016-04-24T06:44:24Z</time>
      </trkpt>
      <trkpt lat="47.47872" lon="6.68451">
        <ele>360</ele>
        <time>2016-04-24T06:44:27Z</time>
      </trkpt>
      <trkpt lat="47.47871" lon="6.6845">
        <ele>360</ele>
        <time>2016-04-24T06:44:28Z</time>
      </trkpt>
      <trkpt lat="47.47871" lon="6.68445">
        <ele>360</ele>
        <time>2016-04-24T06:44:31Z</time>
      </trkpt>
      <trkpt lat="47.47872" lon="6.68443">
        <ele>360</ele>
        <time>2016-04-24T06:44:32Z</time>
      </trkpt>
      <trkpt lat="47.47874" lon="6.68437">
        <ele>361</ele>
        <time>2016-04-24T06:44:34Z</time>
      </trkpt>
      <trkpt lat="47.47874" lon="6.68434">
        <ele>361</ele>
        <time>2016-04-24T06:44:35Z</time>
      </trkpt>
      <trkpt lat="47.47875" lon="6.6843">
        <ele>361</ele>
        <time>2016-04-24T06:44:36Z</time>
      </trkpt>
      <trkpt lat="47.47876" lon="6.68427">
        <ele>361</ele>
        <time>2016-04-24T06:44:37Z</time>
      </trkpt>
      <trkpt lat="47.47878" lon="6.68421">
        <ele>361</ele>
        <time>2016-04-24T06:44:39Z</time>
      </trkpt>
      <trkpt lat="47.47879" lon="6.68419">
        <ele>361</ele>
        <time>2016-04-24T06:44:40Z</time>
      </trkpt>
      <trkpt lat="47.47879" lon="6.68416">
        <ele>365</ele>
        <time>2016-04-24T06:44:41Z</time>
      </trkpt>
      <trkpt lat="47.4788" lon="6.68412">
        <ele>365</ele>
        <time>2016-04-24T06:44:42Z</time>
      </trkpt>
      <trkpt lat="47.4788" lon="6.68408">
        <ele>365</ele>
        <time>2016-04-24T06:44:43Z</time>
      </trkpt>
      <trkpt lat="47.4788" lon="6.68405">
        <ele>365</ele>
        <time>2016-04-24T06:44:44Z</time>
      </trkpt>
      <trkpt lat="47.47879" lon="6.68399">
        <ele>365</ele>
        <time>2016-04-24T06:44:46Z</time>
      </trkpt>
      <trkpt lat="47.47878" lon="6.68397">
        <ele>365</ele>
        <time>2016-04-24T06:44:47Z</time>
      </trkpt>
      <trkpt lat="47.47875" lon="6.68394">
        <ele>365</ele>
        <time>2016-04-24T06:44:49Z</time>
      </trkpt>
      <trkpt lat="47.47874" lon="6.68392">
        <ele>365</ele>
        <time>2016-04-24T06:44:50Z</time>
      </trkpt>
      <trkpt lat="47.47872" lon="6.68389">
        <ele>365</ele>
        <time>2016-04-24T06:44:52Z</time>
      </trkpt>
      <trkpt lat="47.4787" lon="6.68389">
        <ele>365</ele>
        <time>2016-04-24T06:44:53Z</time>
      </trkpt>
      <trkpt lat="47.47866" lon="6.68388">
        <ele>365</ele>
        <time>2016-04-24T06:44:55Z</time>
      </trkpt>
      <trkpt lat="47.47865" lon="6.68387">
        <ele>365</ele>
        <time>2016-04-24T06:44:56Z</time>
      </trkpt>
      <trkpt lat="47.47862" lon="6.68386">
        <ele>366</ele>
        <time>2016-04-24T06:44:58Z</time>
      </trkpt>
      <trkpt lat="47.47861" lon="6.68386">
        <ele>366</ele>
        <time>2016-04-24T06:44:59Z</time>
      </trkpt>
      <trkpt lat="47.47857" lon="6.68385">
        <ele>366</ele>
        <time>2016-04-24T06:45:01Z</time>
      </trkpt>
      <trkpt lat="47.47856" lon="6.68384">
        <ele>366</ele>
        <time>2016-04-24T06:45:02Z</time>
      </trkpt>
      <trkpt lat="47.47853" lon="6.68382">
        <ele>366</ele>
        <time>2016-04-24T06:45:07Z</time>
      </trkpt>
      <trkpt lat="47.47852" lon="6.68381">
        <ele>366</ele>
        <time>2016-04-24T06:45:08Z</time>
      </trkpt>
      <trkpt lat="47.47851" lon="6.68375">
        <ele>366</ele>
        <time>2016-04-24T06:45:16Z</time>
      </trkpt>
      <trkpt lat="47.4785" lon="6.68375">
        <ele>366</ele>
        <time>2016-04-24T06:45:17Z</time>
      </trkpt>
      <trkpt lat="47.47848" lon="6.6837">
        <ele>366</ele>
        <time>2016-04-24T06:45:23Z</time>
      </trkpt>
      <trkpt lat="47.47848" lon="6.68368">
        <ele>367</ele>
        <time>2016-04-24T06:45:24Z</time>
      </trkpt>
      <trkpt lat="47.47849" lon="6.68362">
        <ele>367</ele>
        <time>2016-04-24T06:45:28Z</time>
      </trkpt>
      <trkpt lat="47.47848" lon="6.68361">
        <ele>367</ele>
        <time>2016-04-24T06:45:29Z</time>
      </trkpt>
      <trkpt lat="47.47846" lon="6.68356">
        <ele>367</ele>
        <time>2016-04-24T06:45:32Z</time>
      </trkpt>
      <trkpt lat="47.47845" lon="6.68355">
        <ele>367</ele>
        <time>2016-04-24T06:45:33Z</time>
      </trkpt>
      <trkpt lat="47.47846" lon="6.68349">
        <ele>368</ele>
        <time>2016-04-24T06:45:37Z</time>
      </trkpt>
      <trkpt lat="47.47846" lon="6.68348">
        <ele>368</ele>
        <time>2016-04-24T06:45:38Z</time>
      </trkpt>
      <trkpt lat="47.47846" lon="6.68342">
        <ele>368</ele>
        <time>2016-04-24T06:45:41Z</time>
      </trkpt>
      <trkpt lat="47.47845" lon="6.6834">
        <ele>369</ele>
        <time>2016-04-24T06:45:42Z</time>
      </trkpt>
      <trkpt lat="47.47843" lon="6.68335">
        <ele>369</ele>
        <time>2016-04-24T06:45:45Z</time>
      </trkpt>
      <trkpt lat="47.47842" lon="6.68334">
        <ele>369</ele>
        <time>2016-04-24T06:45:46Z</time>
      </trkpt>
      <trkpt lat="47.47841" lon="6.68327">
        <ele>372</ele>
        <time>2016-04-24T06:45:50Z</time>
      </trkpt>
      <trkpt lat="47.47841" lon="6.68326">
        <ele>372</ele>
        <time>2016-04-24T06:45:51Z</time>
      </trkpt>
      <trkpt lat="47.47839" lon="6.68321">
        <ele>372</ele>
        <time>2016-04-24T06:45:54Z</time>
      </trkpt>
      <trkpt lat="47.47839" lon="6.68319">
        <ele>372</ele>
        <time>2016-04-24T06:45:55Z</time>
      </trkpt>
      <trkpt lat="47.47838" lon="6.68314">
        <ele>373</ele>
        <time>2016-04-24T06:45:59Z</time>
      </trkpt>
      <trkpt lat="47.47838" lon="6.68312">
        <ele>373</ele>
        <time>2016-04-24T06:46:00Z</time>
      </trkpt>
      <trkpt lat="47.47839" lon="6.68307">
        <ele>374</ele>
        <time>2016-04-24T06:46:03Z</time>
      </trkpt>
      <trkpt lat="47.47839" lon="6.68305">
        <ele>374</ele>
        <time>2016-04-24T06:46:04Z</time>
      </trkpt>
      <trkpt lat="47.47839" lon="6.68298">
        <ele>374</ele>
        <time>2016-04-24T06:46:07Z</time>
      </trkpt>
      <trkpt lat="47.47839" lon="6.68297">
        <ele>375</ele>
        <time>2016-04-24T06:46:08Z</time>
      </trkpt>
      <trkpt lat="47.47839" lon="6.68291">
        <ele>375</ele>
        <time>2016-04-24T06:46:11Z</time>
      </trkpt>
      <trkpt lat="47.47838" lon="6.68288">
        <ele>376</ele>
        <time>2016-04-24T06:46:12Z</time>
      </trkpt>
      <trkpt lat="47.47838" lon="6.68282">
        <ele>377</ele>
        <time>2016-04-24T06:46:15Z</time>
      </trkpt>
      <trkpt lat="47.47838" lon="6.6828">
        <ele>377</ele>
        <time>2016-04-24T06:46:16Z</time>
      </trkpt>
      <trkpt lat="47.47838" lon="6.68275">
        <ele>378</ele>
        <time>2016-04-24T06:46:20Z</time>
      </trkpt>
      <trkpt lat="47.47838" lon="6.68273">
        <ele>378</ele>
        <time>2016-04-24T06:46:21Z</time>
      </trkpt>
      <trkpt lat="47.47836" lon="6.68268">
        <ele>379</ele>
        <time>2016-04-24T06:46:24Z</time>
      </trkpt>
      <trkpt lat="47.47835" lon="6.68267">
        <ele>379</ele>
        <time>2016-04-24T06:46:25Z</time>
      </trkpt>
      <trkpt lat="47.47831" lon="6.68265">
        <ele>382</ele>
        <time>2016-04-24T06:46:30Z</time>
      </trkpt>
      <trkpt lat="47.47829" lon="6.68264">
        <ele>382</ele>
        <time>2016-04-24T06:46:31Z</time>
      </trkpt>
      <trkpt lat="47.47826" lon="6.68263">
        <ele>382</ele>
        <time>2016-04-24T06:46:33Z</time>
      </trkpt>
      <trkpt lat="47.47824" lon="6.68262">
        <ele>382</ele>
        <time>2016-04-24T06:46:34Z</time>
      </trkpt>
      <trkpt lat="47.4782" lon="6.6826">
        <ele>382</ele>
        <time>2016-04-24T06:46:36Z</time>
      </trkpt>
      <trkpt lat="47.47819" lon="6.68258">
        <ele>382</ele>
        <time>2016-04-24T06:46:37Z</time>
      </trkpt>
      <trkpt lat="47.47815" lon="6.68254">
        <ele>382</ele>
        <time>2016-04-24T06:46:40Z</time>
      </trkpt>
      <trkpt lat="47.47814" lon="6.68253">
        <ele>382</ele>
        <time>2016-04-24T06:46:41Z</time>
      </trkpt>
      <trkpt lat="47.4781" lon="6.68252">
        <ele>382</ele>
        <time>2016-04-24T06:46:43Z</time>
      </trkpt>
      <trkpt lat="47.47808" lon="6.68251">
        <ele>382</ele>
        <time>2016-04-24T06:46:44Z</time>
      </trkpt>
      <trkpt lat="47.47805" lon="6.68251">
        <ele>382</ele>
        <time>2016-04-24T06:46:45Z</time>
      </trkpt>
      <trkpt lat="47.47803" lon="6.6825">
        <ele>382</ele>
        <time>2016-04-24T06:46:46Z</time>
      </trkpt>
      <trkpt lat="47.47798" lon="6.68249">
        <ele>392</ele>
        <time>2016-04-24T06:46:48Z</time>
      </trkpt>
      <trkpt lat="47.47796" lon="6.68249">
        <ele>392</ele>
        <time>2016-04-24T06:46:49Z</time>
      </trkpt>
      <trkpt lat="47.47794" lon="6.68248">
        <ele>392</ele>
        <time>2016-04-24T06:46:50Z</time>
      </trkpt>
      <trkpt lat="47.47791" lon="6.68247">
        <ele>392</ele>
        <time>2016-04-24T06:46:51Z</time>
      </trkpt>
      <trkpt lat="47.47787" lon="6.68246">
        <ele>392</ele>
        <time>2016-04-24T06:46:53Z</time>
      </trkpt>
      <trkpt lat="47.47786" lon="6.68245">
        <ele>392</ele>
        <time>2016-04-24T06:46:54Z</time>
      </trkpt>
      <trkpt lat="47.47783" lon="6.68243">
        <ele>392</ele>
        <time>2016-04-24T06:46:56Z</time>
      </trkpt>
      <trkpt lat="47.4778" lon="6.68242">
        <ele>392</ele>
        <time>2016-04-24T06:46:57Z</time>
      </trkpt>
      <trkpt lat="47.47778" lon="6.6824">
        <ele>392</ele>
        <time>2016-04-24T06:46:58Z</time>
      </trkpt>
      <trkpt lat="47.47775" lon="6.68239">
        <ele>392</ele>
        <time>2016-04-24T06:46:59Z</time>
      </trkpt>
      <trkpt lat="47.47772" lon="6.68237">
        <ele>392</ele>
        <time>2016-04-24T06:47:00Z</time>
      </trkpt>
      <trkpt lat="47.47769" lon="6.68235">
        <ele>392</ele>
        <time>2016-04-24T06:47:01Z</time>
      </trkpt>
      <trkpt lat="47.47767" lon="6.68234">
        <ele>392</ele>
        <time>2016-04-24T06:47:02Z</time>
      </trkpt>
      <trkpt lat="47.47764" lon="6.68233">
        <ele>392</ele>
        <time>2016-04-24T06:47:03Z</time>
      </trkpt>
      <trkpt lat="47.47761" lon="6.68231">
        <ele>392</ele>
        <time>2016-04-24T06:47:05Z</time>
      </trkpt>
      <trkpt lat="47.47759" lon="6.68231">
        <ele>392</ele>
        <time>2016-04-24T06:47:06Z</time>
      </trkpt>
      <trkpt lat="47.47755" lon="6.68229">
        <ele>393</ele>
        <time>2016-04-24T06:47:09Z</time>
      </trkpt>
      <trkpt lat="47.47753" lon="6.68229">
        <ele>393</ele>
        <time>2016-04-24T06:47:10Z</time>
      </trkpt>
      <trkpt lat="47.4775" lon="6.68229">
        <ele>393</ele>
        <time>2016-04-24T06:47:12Z</time>
      </trkpt>
      <trkpt lat="47.47749" lon="6.68228">
        <ele>394</ele>
        <time>2016-04-24T06:47:13Z</time>
      </trkpt>
      <trkpt lat="47.47746" lon="6.68227">
        <ele>394</ele>
        <time>2016-04-24T06:47:15Z</time>
      </trkpt>
      <trkpt lat="47.47744" lon="6.68226">
        <ele>394</ele>
        <time>2016-04-24T06:47:16Z</time>
      </trkpt>
      <trkpt lat="47.47741" lon="6.68225">
        <ele>395</ele>
        <time>2016-04-24T06:47:17Z</time>
      </trkpt>
      <trkpt lat="47.47738" lon="6.68223">
        <ele>395</ele>
        <time>2016-04-24T06:47:18Z</time>
      </trkpt>
      <trkpt lat="47.47735" lon="6.68222">
        <ele>395</ele>
        <time>2016-04-24T06:47:19Z</time>
      </trkpt>
      <trkpt lat="47.47732" lon="6.68221">
        <ele>396</ele>
        <time>2016-04-24T06:47:20Z</time>
      </trkpt>
      <trkpt lat="47.47728" lon="6.68219">
        <ele>396</ele>
        <time>2016-04-24T06:47:22Z</time>
      </trkpt>
      <trkpt lat="47.47726" lon="6.68219">
        <ele>396</ele>
        <time>2016-04-24T06:47:23Z</time>
      </trkpt>
      <trkpt lat="47.47722" lon="6.68218">
        <ele>396</ele>
        <time>2016-04-24T06:47:25Z</time>
      </trkpt>
      <trkpt lat="47.47719" lon="6.68218">
        <ele>396</ele>
        <time>2016-04-24T06:47:26Z</time>
      </trkpt>
      <trkpt lat="47.47717" lon="6.68217">
        <ele>397</ele>
        <time>2016-04-24T06:47:27Z</time>
      </trkpt>
      <trkpt lat="47.47714" lon="6.68217">
        <ele>397</ele>
        <time>2016-04-24T06:47:28Z</time>
      </trkpt>
      <trkpt lat="47.47711" lon="6.68216">
        <ele>397</ele>
        <time>2016-04-24T06:47:29Z</time>
      </trkpt>
      <trkpt lat="47.47709" lon="6.68216">
        <ele>397</ele>
        <time>2016-04-24T06:47:30Z</time>
      </trkpt>
      <trkpt lat="47.47705" lon="6.68215">
        <ele>397</ele>
        <time>2016-04-24T06:47:31Z</time>
      </trkpt>
      <trkpt lat="47.47701" lon="6.68214">
        <ele>397</ele>
        <time>2016-04-24T06:47:32Z</time>
      </trkpt>
      <trkpt lat="47.47697" lon="6.68213">
        <ele>397</ele>
        <time>2016-04-24T06:47:33Z</time>
      </trkpt>
      <trkpt lat="47.47693" lon="6.68212">
        <ele>397</ele>
        <time>2016-04-24T06:47:34Z</time>
      </trkpt>
      <trkpt lat="47.4769" lon="6.68212">
        <ele>397</ele>
        <time>2016-04-24T06:47:35Z</time>
      </trkpt>
      <trkpt lat="47.47686" lon="6.68213">
        <ele>397</ele>
        <time>2016-04-24T06:47:36Z</time>
      </trkpt>
      <trkpt lat="47.47683" lon="6.68214">
        <ele>397</ele>
        <time>2016-04-24T06:47:37Z</time>
      </trkpt>
      <trkpt lat="47.47679" lon="6.68215">
        <ele>396</ele>
        <time>2016-04-24T06:47:38Z</time>
      </trkpt>
      <trkpt lat="47.47675" lon="6.68217">
        <ele>396</ele>
        <time>2016-04-24T06:47:39Z</time>
      </trkpt>
      <trkpt lat="47.47671" lon="6.68218">
        <ele>396</ele>
        <time>2016-04-24T06:47:40Z</time>
      </trkpt>
      <trkpt lat="47.47668" lon="6.6822">
        <ele>395</ele>
        <time>2016-04-24T06:47:41Z</time>
      </trkpt>
      <trkpt lat="47.47666" lon="6.68221">
        <ele>397</ele>
        <time>2016-04-24T06:47:42Z</time>
      </trkpt>
      <trkpt lat="47.47661" lon="6.68222">
        <ele>397</ele>
        <time>2016-04-24T06:47:44Z</time>
      </trkpt>
      <trkpt lat="47.47659" lon="6.68223">
        <ele>397</ele>
        <time>2016-04-24T06:47:45Z</time>
      </trkpt>
      <trkpt lat="47.47656" lon="6.68225">
        <ele>397</ele>
        <time>2016-04-24T06:47:47Z</time>
      </trkpt>
      <trkpt lat="47.47654" lon="6.68225">
        <ele>397</ele>
        <time>2016-04-24T06:47:48Z</time>
      </trkpt>
      <trkpt lat="47.47651" lon="6.68225">
        <ele>397</ele>
        <time>2016-04-24T06:47:50Z</time>
      </trkpt>
      <trkpt lat="47.4765" lon="6.68225">
        <ele>397</ele>
        <time>2016-04-24T06:47:51Z</time>
      </trkpt>
      <trkpt lat="47.47648" lon="6.68225">
        <ele>398</ele>
        <time>2016-04-24T06:47:52Z</time>
      </trkpt>
      <trkpt lat="47.47645" lon="6.68225">
        <ele>398</ele>
        <time>2016-04-24T06:47:53Z</time>
      </trkpt>
      <trkpt lat="47.47642" lon="6.68226">
        <ele>398</ele>
        <time>2016-04-24T06:47:54Z</time>
      </trkpt>
      <trkpt lat="47.47639" lon="6.68227">
        <ele>398</ele>
        <time>2016-04-24T06:47:55Z</time>
      </trkpt>
      <trkpt lat="47.47637" lon="6.68228">
        <ele>398</ele>
        <time>2016-04-24T06:47:56Z</time>
      </trkpt>
      <trkpt lat="47.47634" lon="6.6823">
        <ele>398</ele>
        <time>2016-04-24T06:47:57Z</time>
      </trkpt>
      <trkpt lat="47.47632" lon="6.68232">
        <ele>398</ele>
        <time>2016-04-24T06:47:58Z</time>
      </trkpt>
      <trkpt lat="47.47629" lon="6.68233">
        <ele>398</ele>
        <time>2016-04-24T06:47:59Z</time>
      </trkpt>
      <trkpt lat="47.47626" lon="6.68234">
        <ele>398</ele>
        <time>2016-04-24T06:48:00Z</time>
      </trkpt>
      <trkpt lat="47.47623" lon="6.68236">
        <ele>398</ele>
        <time>2016-04-24T06:48:01Z</time>
      </trkpt>
      <trkpt lat="47.47619" lon="6.68237">
        <ele>398</ele>
        <time>2016-04-24T06:48:02Z</time>
      </trkpt>
      <trkpt lat="47.47616" lon="6.68239">
        <ele>398</ele>
        <time>2016-04-24T06:48:03Z</time>
      </trkpt>
      <trkpt lat="47.47612" lon="6.68241">
        <ele>398</ele>
        <time>2016-04-24T06:48:04Z</time>
      </trkpt>
      <trkpt lat="47.47609" lon="6.68243">
        <ele>398</ele>
        <time>2016-04-24T06:48:05Z</time>
      </trkpt>
      <trkpt lat="47.47606" lon="6.68244">
        <ele>398</ele>
        <time>2016-04-24T06:48:06Z</time>
      </trkpt>
      <trkpt lat="47.47603" lon="6.68245">
        <ele>398</ele>
        <time>2016-04-24T06:48:07Z</time>
      </trkpt>
      <trkpt lat="47.47601" lon="6.68246">
        <ele>398</ele>
        <time>2016-04-24T06:48:08Z</time>
      </trkpt>
      <trkpt lat="47.47598" lon="6.68246">
        <ele>397</ele>
        <time>2016-04-24T06:48:09Z</time>
      </trkpt>
      <trkpt lat="47.47596" lon="6.68248">
        <ele>397</ele>
        <time>2016-04-24T06:48:10Z</time>
      </trkpt>
      <trkpt lat="47.47593" lon="6.68248">
        <ele>397</ele>
        <time>2016-04-24T06:48:11Z</time>
      </trkpt>
      <trkpt lat="47.4759" lon="6.68249">
        <ele>396</ele>
        <time>2016-04-24T06:48:12Z</time>
      </trkpt>
      <trkpt lat="47.47587" lon="6.6825">
        <ele>393</ele>
        <time>2016-04-24T06:48:13Z</time>
      </trkpt>
      <trkpt lat="47.47583" lon="6.68253">
        <ele>394</ele>
        <time>2016-04-24T06:48:15Z</time>
      </trkpt>
      <trkpt lat="47.47582" lon="6.68254">
        <ele>394</ele>
        <time>2016-04-24T06:48:16Z</time>
      </trkpt>
      <trkpt lat="47.47578" lon="6.68257">
        <ele>393</ele>
        <time>2016-04-24T06:48:18Z</time>
      </trkpt>
      <trkpt lat="47.47576" lon="6.68257">
        <ele>392</ele>
        <time>2016-04-24T06:48:19Z</time>
      </trkpt>
      <trkpt lat="47.47572" lon="6.68257">
        <ele>392</ele>
        <time>2016-04-24T06:48:21Z</time>
      </trkpt>
      <trkpt lat="47.47569" lon="6.68257">
        <ele>391</ele>
        <time>2016-04-24T06:48:22Z</time>
      </trkpt>
      <trkpt lat="47.47567" lon="6.68258">
        <ele>391</ele>
        <time>2016-04-24T06:48:23Z</time>
      </trkpt>
      <trkpt lat="47.47564" lon="6.6826">
        <ele>390</ele>
        <time>2016-04-24T06:48:24Z</time>
      </trkpt>
      <trkpt lat="47.47561" lon="6.68262">
        <ele>390</ele>
        <time>2016-04-24T06:48:25Z</time>
      </trkpt>
      <trkpt lat="47.47559" lon="6.68264">
        <ele>390</ele>
        <time>2016-04-24T06:48:26Z</time>
      </trkpt>
      <trkpt lat="47.47556" lon="6.68266">
        <ele>389</ele>
        <time>2016-04-24T06:48:27Z</time>
      </trkpt>
      <trkpt lat="47.47554" lon="6.68267">
        <ele>389</ele>
        <time>2016-04-24T06:48:28Z</time>
      </trkpt>
      <trkpt lat="47.4755" lon="6.6827">
        <ele>389</ele>
        <time>2016-04-24T06:48:30Z</time>
      </trkpt>
      <trkpt lat="47.47548" lon="6.6827">
        <ele>389</ele>
        <time>2016-04-24T06:48:31Z</time>
      </trkpt>
      <trkpt lat="47.47545" lon="6.68272">
        <ele>389</ele>
        <time>2016-04-24T06:48:32Z</time>
      </trkpt>
      <trkpt lat="47.47542" lon="6.68273">
        <ele>389</ele>
        <time>2016-04-24T06:48:33Z</time>
      </trkpt>
      <trkpt lat="47.4754" lon="6.68274">
        <ele>389</ele>
        <time>2016-04-24T06:48:34Z</time>
      </trkpt>
      <trkpt lat="47.47537" lon="6.68275">
        <ele>389</ele>
        <time>2016-04-24T06:48:35Z</time>
      </trkpt>
      <trkpt lat="47.47534" lon="6.68275">
        <ele>389</ele>
        <time>2016-04-24T06:48:36Z</time>
      </trkpt>
      <trkpt lat="47.47531" lon="6.68275">
        <ele>389</ele>
        <time>2016-04-24T06:48:37Z</time>
      </trkpt>
      <trkpt lat="47.47528" lon="6.68276">
        <ele>389</ele>
        <time>2016-04-24T06:48:38Z</time>
      </trkpt>
      <trkpt lat="47.47526" lon="6.68277">
        <ele>389</ele>
        <time>2016-04-24T06:48:39Z</time>
      </trkpt>
      <trkpt lat="47.47523" lon="6.6828">
        <ele>388</ele>
        <time>2016-04-24T06:48:40Z</time>
      </trkpt>
      <trkpt lat="47.4752" lon="6.68283">
        <ele>388</ele>
        <time>2016-04-24T06:48:41Z</time>
      </trkpt>
      <trkpt lat="47.47517" lon="6.68287">
        <ele>388</ele>
        <time>2016-04-24T06:48:42Z</time>
      </trkpt>
      <trkpt lat="47.47514" lon="6.68289">
        <ele>388</ele>
        <time>2016-04-24T06:48:43Z</time>
      </trkpt>
      <trkpt lat="47.47509" lon="6.68291">
        <ele>387</ele>
        <time>2016-04-24T06:48:44Z</time>
      </trkpt>
      <trkpt lat="47.47504" lon="6.68293">
        <ele>387</ele>
        <time>2016-04-24T06:48:45Z</time>
      </trkpt>
      <trkpt lat="47.4749" lon="6.68303">
        <ele>383</ele>
        <time>2016-04-24T06:48:46Z</time>
      </trkpt>
      <trkpt lat="47.47483" lon="6.68311">
        <ele>382</ele>
        <time>2016-04-24T06:48:47Z</time>
      </trkpt>
      <trkpt lat="47.47476" lon="6.68319">
        <ele>381</ele>
        <time>2016-04-24T06:48:48Z</time>
      </trkpt>
      <trkpt lat="47.47473" lon="6.68326">
        <ele>381</ele>
        <time>2016-04-24T06:48:49Z</time>
      </trkpt>
      <trkpt lat="47.47466" lon="6.68334">
        <ele>371</ele>
        <time>2016-04-24T06:48:50Z</time>
      </trkpt>
      <trkpt lat="47.47459" lon="6.6834">
        <ele>370</ele>
        <time>2016-04-24T06:48:51Z</time>
      </trkpt>
      <trkpt lat="47.47455" lon="6.68348">
        <ele>369</ele>
        <time>2016-04-24T06:48:52Z</time>
      </trkpt>
      <trkpt lat="47.4745" lon="6.68358">
        <ele>368</ele>
        <time>2016-04-24T06:48:53Z</time>
      </trkpt>
      <trkpt lat="47.47443" lon="6.68367">
        <ele>367</ele>
        <time>2016-04-24T06:48:54Z</time>
      </trkpt>
      <trkpt lat="47.47436" lon="6.68374">
        <ele>366</ele>
        <time>2016-04-24T06:48:55Z</time>
      </trkpt>
      <trkpt lat="47.47433" lon="6.6838">
        <ele>365</ele>
        <time>2016-04-24T06:48:56Z</time>
      </trkpt>
      <trkpt lat="47.4743" lon="6.68388">
        <ele>364</ele>
        <time>2016-04-24T06:48:57Z</time>
      </trkpt>
      <trkpt lat="47.47425" lon="6.68389">
        <ele>363</ele>
        <time>2016-04-24T06:48:58Z</time>
      </trkpt>
      <trkpt lat="47.4742" lon="6.68391">
        <ele>362</ele>
        <time>2016-04-24T06:48:59Z</time>
      </trkpt>
      <trkpt lat="47.47416" lon="6.68394">
        <ele>358</ele>
        <time>2016-04-24T06:49:00Z</time>
      </trkpt>
      <trkpt lat="47.47412" lon="6.68399">
        <ele>357</ele>
        <time>2016-04-24T06:49:01Z</time>
      </trkpt>
      <trkpt lat="47.47408" lon="6.68405">
        <ele>357</ele>
        <time>2016-04-24T06:49:02Z</time>
      </trkpt>
      <trkpt lat="47.47401" lon="6.68412">
        <ele>357</ele>
        <time>2016-04-24T06:49:03Z</time>
      </trkpt>
      <trkpt lat="47.47398" lon="6.68417">
        <ele>350</ele>
        <time>2016-04-24T06:49:04Z</time>
      </trkpt>
      <trkpt lat="47.4739" lon="6.68428">
        <ele>349</ele>
        <time>2016-04-24T06:49:05Z</time>
      </trkpt>
      <trkpt lat="47.47384" lon="6.68439">
        <ele>347</ele>
        <time>2016-04-24T06:49:06Z</time>
      </trkpt>
      <trkpt lat="47.47375" lon="6.6845">
        <ele>346</ele>
        <time>2016-04-24T06:49:07Z</time>
      </trkpt>
      <trkpt lat="47.47364" lon="6.68459">
        <ele>345</ele>
        <time>2016-04-24T06:49:08Z</time>
      </trkpt>
      <trkpt lat="47.47358" lon="6.68471">
        <ele>344</ele>
        <time>2016-04-24T06:49:09Z</time>
      </trkpt>
      <trkpt lat="47.4735" lon="6.68481">
        <ele>342</ele>
        <time>2016-04-24T06:49:10Z</time>
      </trkpt>
      <trkpt lat="47.47343" lon="6.68491">
        <ele>339</ele>
        <time>2016-04-24T06:49:11Z</time>
      </trkpt>
      <trkpt lat="47.47335" lon="6.68501">
        <ele>335</ele>
        <time>2016-04-24T06:49:12Z</time>
      </trkpt>
      <trkpt lat="47.47328" lon="6.68509">
        <ele>333</ele>
        <time>2016-04-24T06:49:13Z</time>
      </trkpt>
      <trkpt lat="47.47322" lon="6.68519">
        <ele>332</ele>
        <time>2016-04-24T06:49:14Z</time>
      </trkpt>
      <trkpt lat="47.47316" lon="6.68528">
        <ele>331</ele>
        <time>2016-04-24T06:49:15Z</time>
      </trkpt>
      <trkpt lat="47.47312" lon="6.68536">
        <ele>331</ele>
        <time>2016-04-24T06:49:16Z</time>
      </trkpt>
      <trkpt lat="47.47308" lon="6.68542">
        <ele>330</ele>
        <time>2016-04-24T06:49:17Z</time>
      </trkpt>
      <trkpt lat="47.47304" lon="6.68547">
        <ele>330</ele>
        <time>2016-04-24T06:49:18Z</time>
      </trkpt>
      <trkpt lat="47.473" lon="6.68552">
        <ele>329</ele>
        <time>2016-04-24T06:49:19Z</time>
      </trkpt>
      <trkpt lat="47.47297" lon="6.68554">
        <ele>329</ele>
        <time>2016-04-24T06:49:20Z</time>
      </trkpt>
      <trkpt lat="47.47292" lon="6.68554">
        <ele>329</ele>
        <time>2016-04-24T06:49:21Z</time>
      </trkpt>
      <trkpt lat="47.47289" lon="6.68552">
        <ele>330</ele>
        <time>2016-04-24T06:49:22Z</time>
      </trkpt>
      <trkpt lat="47.47285" lon="6.68549">
        <ele>330</ele>
        <time>2016-04-24T06:49:23Z</time>
      </trkpt>
      <trkpt lat="47.47282" lon="6.68542">
        <ele>330</ele>
        <time>2016-04-24T06:49:24Z</time>
      </trkpt>
      <trkpt lat="47.47281" lon="6.68536">
        <ele>331</ele>
        <time>2016-04-24T06:49:25Z</time>
      </trkpt>
      <trkpt lat="47.47281" lon="6.68531">
        <ele>331</ele>
        <time>2016-04-24T06:49:26Z</time>
      </trkpt>
      <trkpt lat="47.47279" lon="6.68528">
        <ele>332</ele>
        <time>2016-04-24T06:49:27Z</time>
      </trkpt>
      <trkpt lat="47.47277" lon="6.68526">
        <ele>332</ele>
        <time>2016-04-24T06:49:28Z</time>
      </trkpt>
      <trkpt lat="47.47276" lon="6.68522">
        <ele>332</ele>
        <time>2016-04-24T06:49:29Z</time>
      </trkpt>
      <trkpt lat="47.47274" lon="6.68519">
        <ele>332</ele>
        <time>2016-04-24T06:49:30Z</time>
      </trkpt>
      <trkpt lat="47.47273" lon="6.68517">
        <ele>333</ele>
        <time>2016-04-24T06:49:31Z</time>
      </trkpt>
      <trkpt lat="47.4727" lon="6.68514">
        <ele>333</ele>
        <time>2016-04-24T06:49:33Z</time>
      </trkpt>
      <trkpt lat="47.47268" lon="6.68513">
        <ele>333</ele>
        <time>2016-04-24T06:49:34Z</time>
      </trkpt>
      <trkpt lat="47.47266" lon="6.6851">
        <ele>334</ele>
        <time>2016-04-24T06:49:36Z</time>
      </trkpt>
      <trkpt lat="47.47265" lon="6.68508">
        <ele>334</ele>
        <time>2016-04-24T06:49:37Z</time>
      </trkpt>
      <trkpt lat="47.47264" lon="6.68503">
        <ele>335</ele>
        <time>2016-04-24T06:49:39Z</time>
      </trkpt>
      <trkpt lat="47.47264" lon="6.68501">
        <ele>335</ele>
        <time>2016-04-24T06:49:40Z</time>
      </trkpt>
      <trkpt lat="47.47262" lon="6.68495">
        <ele>340</ele>
        <time>2016-04-24T06:49:44Z</time>
      </trkpt>
      <trkpt lat="47.47263" lon="6.68494">
        <ele>340</ele>
        <time>2016-04-24T06:49:45Z</time>
      </trkpt>
      <trkpt lat="47.47264" lon="6.68487">
        <ele>340</ele>
        <time>2016-04-24T06:49:50Z</time>
      </trkpt>
      <trkpt lat="47.47263" lon="6.68485">
        <ele>340</ele>
        <time>2016-04-24T06:49:51Z</time>
      </trkpt>
      <trkpt lat="47.47263" lon="6.68481">
        <ele>341</ele>
        <time>2016-04-24T06:49:53Z</time>
      </trkpt>
      <trkpt lat="47.47262" lon="6.68479">
        <ele>341</ele>
        <time>2016-04-24T06:49:54Z</time>
      </trkpt>
      <trkpt lat="47.4726" lon="6.68475">
        <ele>341</ele>
        <time>2016-04-24T06:49:56Z</time>
      </trkpt>
      <trkpt lat="47.4726" lon="6.68473">
        <ele>341</ele>
        <time>2016-04-24T06:49:57Z</time>
      </trkpt>
      <trkpt lat="47.47257" lon="6.68469">
        <ele>342</ele>
        <time>2016-04-24T06:50:00Z</time>
      </trkpt>
      <trkpt lat="47.47256" lon="6.68468">
        <ele>342</ele>
        <time>2016-04-24T06:50:01Z</time>
      </trkpt>
      <trkpt lat="47.47254" lon="6.68465">
        <ele>342</ele>
        <time>2016-04-24T06:50:04Z</time>
      </trkpt>
      <trkpt lat="47.47253" lon="6.68463">
        <ele>342</ele>
        <time>2016-04-24T06:50:05Z</time>
      </trkpt>
      <trkpt lat="47.47251" lon="6.68457">
        <ele>343</ele>
        <time>2016-04-24T06:50:08Z</time>
      </trkpt>
      <trkpt lat="47.4725" lon="6.68456">
        <ele>346</ele>
        <time>2016-04-24T06:50:09Z</time>
      </trkpt>
      <trkpt lat="47.47247" lon="6.68452">
        <ele>347</ele>
        <time>2016-04-24T06:50:11Z</time>
      </trkpt>
      <trkpt lat="47.47245" lon="6.68449">
        <ele>347</ele>
        <time>2016-04-24T06:50:12Z</time>
      </trkpt>
      <trkpt lat="47.47243" lon="6.68447">
        <ele>347</ele>
        <time>2016-04-24T06:50:13Z</time>
      </trkpt>
      <trkpt lat="47.47242" lon="6.68445">
        <ele>347</ele>
        <time>2016-04-24T06:50:14Z</time>
      </trkpt>
      <trkpt lat="47.47238" lon="6.68443">
        <ele>347</ele>
        <time>2016-04-24T06:50:16Z</time>
      </trkpt>
      <trkpt lat="47.47236" lon="6.68442">
        <ele>347</ele>
        <time>2016-04-24T06:50:17Z</time>
      </trkpt>
      <trkpt lat="47.47233" lon="6.68443">
        <ele>347</ele>
        <time>2016-04-24T06:50:19Z</time>
      </trkpt>
      <trkpt lat="47.47231" lon="6.68444">
        <ele>347</ele>
        <time>2016-04-24T06:50:20Z</time>
      </trkpt>
      <trkpt lat="47.47228" lon="6.68446">
        <ele>348</ele>
        <time>2016-04-24T06:50:22Z</time>
      </trkpt>
      <trkpt lat="47.47227" lon="6.68447">
        <ele>348</ele>
        <time>2016-04-24T06:50:23Z</time>
      </trkpt>
      <trkpt lat="47.47224" lon="6.68451">
        <ele>348</ele>
        <time>2016-04-24T06:50:26Z</time>
      </trkpt>
      <trkpt lat="47.47222" lon="6.68452">
        <ele>348</ele>
        <time>2016-04-24T06:50:27Z</time>
      </trkpt>
      <trkpt lat="47.4722" lon="6.68454">
        <ele>348</ele>
        <time>2016-04-24T06:50:29Z</time>
      </trkpt>
      <trkpt lat="47.47218" lon="6.68455">
        <ele>348</ele>
        <time>2016-04-24T06:50:30Z</time>
      </trkpt>
      <trkpt lat="47.47215" lon="6.68457">
        <ele>348</ele>
        <time>2016-04-24T06:50:32Z</time>
      </trkpt>
      <trkpt lat="47.47214" lon="6.68458">
        <ele>348</ele>
        <time>2016-04-24T06:50:33Z</time>
      </trkpt>
      <trkpt lat="47.47211" lon="6.68461">
        <ele>348</ele>
        <time>2016-04-24T06:50:35Z</time>
      </trkpt>
      <trkpt lat="47.4721" lon="6.68462">
        <ele>348</ele>
        <time>2016-04-24T06:50:36Z</time>
      </trkpt>
      <trkpt lat="47.47207" lon="6.68463">
        <ele>348</ele>
        <time>2016-04-24T06:50:37Z</time>
      </trkpt>
      <trkpt lat="47.47205" lon="6.68464">
        <ele>348</ele>
        <time>2016-04-24T06:50:38Z</time>
      </trkpt>
      <trkpt lat="47.47203" lon="6.68464">
        <ele>348</ele>
        <time>2016-04-24T06:50:39Z</time>
      </trkpt>
      <trkpt lat="47.472" lon="6.68465">
        <ele>349</ele>
        <time>2016-04-24T06:50:40Z</time>
      </trkpt>
      <trkpt lat="47.47197" lon="6.68466">
        <ele>349</ele>
        <time>2016-04-24T06:50:42Z</time>
      </trkpt>
      <trkpt lat="47.47195" lon="6.68467">
        <ele>349</ele>
        <time>2016-04-24T06:50:43Z</time>
      </trkpt>
      <trkpt lat="47.47191" lon="6.68469">
        <ele>349</ele>
        <time>2016-04-24T06:50:46Z</time>
      </trkpt>
      <trkpt lat="47.4719" lon="6.6847">
        <ele>349</ele>
        <time>2016-04-24T06:50:47Z</time>
      </trkpt>
      <trkpt lat="47.47187" lon="6.68471">
        <ele>349</ele>
        <time>2016-04-24T06:50:49Z</time>
      </trkpt>
      <trkpt lat="47.47185" lon="6.68471">
        <ele>349</ele>
        <time>2016-04-24T06:50:50Z</time>
      </trkpt>
      <trkpt lat="47.47181" lon="6.68474">
        <ele>350</ele>
        <time>2016-04-24T06:50:54Z</time>
      </trkpt>
      <trkpt lat="47.4718" lon="6.68474">
        <ele>350</ele>
        <time>2016-04-24T06:50:55Z</time>
      </trkpt>
      <trkpt lat="47.47176" lon="6.68475">
        <ele>350</ele>
        <time>2016-04-24T06:50:57Z</time>
      </trkpt>
      <trkpt lat="47.47174" lon="6.68475">
        <ele>350</ele>
        <time>2016-04-24T06:50:58Z</time>
      </trkpt>
      <trkpt lat="47.47171" lon="6.68476">
        <ele>350</ele>
        <time>2016-04-24T06:51:00Z</time>
      </trkpt>
      <trkpt lat="47.47169" lon="6.68476">
        <ele>350</ele>
        <time>2016-04-24T06:51:01Z</time>
      </trkpt>
      <trkpt lat="47.47166" lon="6.68477">
        <ele>352</ele>
        <time>2016-04-24T06:51:04Z</time>
      </trkpt>
      <trkpt lat="47.47164" lon="6.68477">
        <ele>352</ele>
        <time>2016-04-24T06:51:05Z</time>
      </trkpt>
      <trkpt lat="47.4716" lon="6.68478">
        <ele>352</ele>
        <time>2016-04-24T06:51:08Z</time>
      </trkpt>
      <trkpt lat="47.47159" lon="6.68477">
        <ele>352</ele>
        <time>2016-04-24T06:51:09Z</time>
      </trkpt>
      <trkpt lat="47.47156" lon="6.68475">
        <ele>352</ele>
        <time>2016-04-24T06:51:12Z</time>
      </trkpt>
      <trkpt lat="47.47155" lon="6.68473">
        <ele>352</ele>
        <time>2016-04-24T06:51:13Z</time>
      </trkpt>
      <trkpt lat="47.47154" lon="6.68468">
        <ele>352</ele>
        <time>2016-04-24T06:51:16Z</time>
      </trkpt>
      <trkpt lat="47.47154" lon="6.68466">
        <ele>352</ele>
        <time>2016-04-24T06:51:17Z</time>
      </trkpt>
      <trkpt lat="47.47153" lon="6.68461">
        <ele>352</ele>
        <time>2016-04-24T06:51:20Z</time>
      </trkpt>
      <trkpt lat="47.47154" lon="6.68459">
        <ele>352</ele>
        <time>2016-04-24T06:51:21Z</time>
      </trkpt>
      <trkpt lat="47.47155" lon="6.68453">
        <ele>352</ele>
        <time>2016-04-24T06:51:24Z</time>
      </trkpt>
      <trkpt lat="47.47155" lon="6.68451">
        <ele>352</ele>
        <time>2016-04-24T06:51:25Z</time>
      </trkpt>
      <trkpt lat="47.47155" lon="6.68445">
        <ele>353</ele>
        <time>2016-04-24T06:51:29Z</time>
      </trkpt>
      <trkpt lat="47.47154" lon="6.68443">
        <ele>353</ele>
        <time>2016-04-24T06:51:30Z</time>
      </trkpt>
      <trkpt lat="47.47152" lon="6.68442">
        <ele>353</ele>
        <time>2016-04-24T06:51:31Z</time>
      </trkpt>
      <trkpt lat="47.47149" lon="6.68441">
        <ele>352</ele>
        <time>2016-04-24T06:51:32Z</time>
      </trkpt>
      <trkpt lat="47.47146" lon="6.68437">
        <ele>352</ele>
        <time>2016-04-24T06:51:34Z</time>
      </trkpt>
      <trkpt lat="47.47145" lon="6.68435">
        <ele>353</ele>
        <time>2016-04-24T06:51:35Z</time>
      </trkpt>
      <trkpt lat="47.47143" lon="6.6843">
        <ele>353</ele>
        <time>2016-04-24T06:51:37Z</time>
      </trkpt>
      <trkpt lat="47.47143" lon="6.68427">
        <ele>353</ele>
        <time>2016-04-24T06:51:38Z</time>
      </trkpt>
      <trkpt lat="47.47144" lon="6.68423">
        <ele>353</ele>
        <time>2016-04-24T06:51:39Z</time>
      </trkpt>
      <trkpt lat="47.47145" lon="6.6842">
        <ele>353</ele>
        <time>2016-04-24T06:51:40Z</time>
      </trkpt>
      <trkpt lat="47.47146" lon="6.68417">
        <ele>354</ele>
        <time>2016-04-24T06:51:41Z</time>
      </trkpt>
      <trkpt lat="47.47146" lon="6.68413">
        <ele>354</ele>
        <time>2016-04-24T06:51:42Z</time>
      </trkpt>
      <trkpt lat="47.47146" lon="6.68409">
        <ele>354</ele>
        <time>2016-04-24T06:51:43Z</time>
      </trkpt>
      <trkpt lat="47.47146" lon="6.68406">
        <ele>354</ele>
        <time>2016-04-24T06:51:44Z</time>
      </trkpt>
      <trkpt lat="47.47145" lon="6.68402">
        <ele>354</ele>
        <time>2016-04-24T06:51:45Z</time>
      </trkpt>
      <trkpt lat="47.47144" lon="6.68398">
        <ele>354</ele>
        <time>2016-04-24T06:51:46Z</time>
      </trkpt>
      <trkpt lat="47.47144" lon="6.68394">
        <ele>353</ele>
        <time>2016-04-24T06:51:47Z</time>
      </trkpt>
      <trkpt lat="47.47143" lon="6.6839">
        <ele>353</ele>
        <time>2016-04-24T06:51:48Z</time>
      </trkpt>
      <trkpt lat="47.47142" lon="6.68387">
        <ele>353</ele>
        <time>2016-04-24T06:51:49Z</time>
      </trkpt>
      <trkpt lat="47.47141" lon="6.68383">
        <ele>353</ele>
        <time>2016-04-24T06:51:50Z</time>
      </trkpt>
      <trkpt lat="47.47138" lon="6.6838">
        <ele>353</ele>
        <time>2016-04-24T06:51:51Z</time>
      </trkpt>
      <trkpt lat="47.47136" lon="6.68377">
        <ele>353</ele>
        <time>2016-04-24T06:51:52Z</time>
      </trkpt>
      <trkpt lat="47.47134" lon="6.68374">
        <ele>353</ele>
        <time>2016-04-24T06:51:53Z</time>
      </trkpt>
      <trkpt lat="47.47133" lon="6.68371">
        <ele>353</ele>
        <time>2016-04-24T06:51:54Z</time>
      </trkpt>
      <trkpt lat="47.47133" lon="6.68364">
        <ele>353</ele>
        <time>2016-04-24T06:51:56Z</time>
      </trkpt>
      <trkpt lat="47.47133" lon="6.68361">
        <ele>353</ele>
        <time>2016-04-24T06:51:57Z</time>
      </trkpt>
      <trkpt lat="47.47133" lon="6.68357">
        <ele>353</ele>
        <time>2016-04-24T06:51:58Z</time>
      </trkpt>
      <trkpt lat="47.47132" lon="6.68354">
        <ele>353</ele>
        <time>2016-04-24T06:51:59Z</time>
      </trkpt>
      <trkpt lat="47.47132" lon="6.68351">
        <ele>353</ele>
        <time>2016-04-24T06:52:00Z</time>
      </trkpt>
      <trkpt lat="47.47132" lon="6.68347">
        <ele>353</ele>
        <time>2016-04-24T06:52:01Z</time>
      </trkpt>
      <trkpt lat="47.47132" lon="6.68344">
        <ele>353</ele>
        <time>2016-04-24T06:52:02Z</time>
      </trkpt>
      <trkpt lat="47.47132" lon="6.6834">
        <ele>353</ele>
        <time>2016-04-24T06:52:03Z</time>
      </trkpt>
      <trkpt lat="47.47133" lon="6.68336">
        <ele>353</ele>
        <time>2016-04-24T06:52:04Z</time>
      </trkpt>
      <trkpt lat="47.47133" lon="6.68332">
        <ele>353</ele>
        <time>2016-04-24T06:52:05Z</time>
      </trkpt>
      <trkpt lat="47.47133" lon="6.68328">
        <ele>353</ele>
        <time>2016-04-24T06:52:06Z</time>
      </trkpt>
      <trkpt lat="47.47132" lon="6.68324">
        <ele>353</ele>
        <time>2016-04-24T06:52:07Z</time>
      </trkpt>
      <trkpt lat="47.47131" lon="6.68321">
        <ele>353</ele>
        <time>2016-04-24T06:52:08Z</time>
      </trkpt>
      <trkpt lat="47.4713" lon="6.68317">
        <ele>353</ele>
        <time>2016-04-24T06:52:09Z</time>
      </trkpt>
      <trkpt lat="47.47129" lon="6.68313">
        <ele>353</ele>
        <time>2016-04-24T06:52:10Z</time>
      </trkpt>
      <trkpt lat="47.47127" lon="6.68309">
        <ele>353</ele>
        <time>2016-04-24T06:52:11Z</time>
      </trkpt>
      <trkpt lat="47.47127" lon="6.68305">
        <ele>353</ele>
        <time>2016-04-24T06:52:12Z</time>
      </trkpt>
      <trkpt lat="47.47125" lon="6.68303">
        <ele>353</ele>
        <time>2016-04-24T06:52:13Z</time>
      </trkpt>
      <trkpt lat="47.47124" lon="6.68297">
        <ele>352</ele>
        <time>2016-04-24T06:52:15Z</time>
      </trkpt>
      <trkpt lat="47.47124" lon="6.68293">
        <ele>352</ele>
        <time>2016-04-24T06:52:16Z</time>
      </trkpt>
      <trkpt lat="47.47124" lon="6.68289">
        <ele>352</ele>
        <time>2016-04-24T06:52:17Z</time>
      </trkpt>
      <trkpt lat="47.47125" lon="6.68284">
        <ele>352</ele>
        <time>2016-04-24T06:52:18Z</time>
      </trkpt>
      <trkpt lat="47.47125" lon="6.68279">
        <ele>352</ele>
        <time>2016-04-24T06:52:19Z</time>
      </trkpt>
      <trkpt lat="47.47125" lon="6.68273">
        <ele>353</ele>
        <time>2016-04-24T06:52:20Z</time>
      </trkpt>
      <trkpt lat="47.47125" lon="6.68268">
        <ele>352</ele>
        <time>2016-04-24T06:52:21Z</time>
      </trkpt>
      <trkpt lat="47.47124" lon="6.68263">
        <ele>352</ele>
        <time>2016-04-24T06:52:22Z</time>
      </trkpt>
      <trkpt lat="47.47123" lon="6.68259">
        <ele>352</ele>
        <time>2016-04-24T06:52:23Z</time>
      </trkpt>
      <trkpt lat="47.47122" lon="6.68255">
        <ele>352</ele>
        <time>2016-04-24T06:52:24Z</time>
      </trkpt>
      <trkpt lat="47.47121" lon="6.68251">
        <ele>352</ele>
        <time>2016-04-24T06:52:25Z</time>
      </trkpt>
      <trkpt lat="47.47121" lon="6.68247">
        <ele>353</ele>
        <time>2016-04-24T06:52:26Z</time>
      </trkpt>
      <trkpt lat="47.47122" lon="6.68242">
        <ele>353</ele>
        <time>2016-04-24T06:52:27Z</time>
      </trkpt>
      <trkpt lat="47.47124" lon="6.68237">
        <ele>353</ele>
        <time>2016-04-24T06:52:28Z</time>
      </trkpt>
      <trkpt lat="47.47126" lon="6.68232">
        <ele>353</ele>
        <time>2016-04-24T06:52:29Z</time>
      </trkpt>
      <trkpt lat="47.47127" lon="6.68227">
        <ele>353</ele>
        <time>2016-04-24T06:52:30Z</time>
      </trkpt>
      <trkpt lat="47.47129" lon="6.68222">
        <ele>354</ele>
        <time>2016-04-24T06:52:31Z</time>
      </trkpt>
      <trkpt lat="47.4713" lon="6.68217">
        <ele>354</ele>
        <time>2016-04-24T06:52:32Z</time>
      </trkpt>
      <trkpt lat="47.47131" lon="6.68212">
        <ele>354</ele>
        <time>2016-04-24T06:52:33Z</time>
      </trkpt>
      <trkpt lat="47.47132" lon="6.68207">
        <ele>354</ele>
        <time>2016-04-24T06:52:34Z</time>
      </trkpt>
      <trkpt lat="47.47133" lon="6.68203">
        <ele>354</ele>
        <time>2016-04-24T06:52:35Z</time>
      </trkpt>
      <trkpt lat="47.47134" lon="6.682">
        <ele>354</ele>
        <time>2016-04-24T06:52:36Z</time>
      </trkpt>
      <trkpt lat="47.47135" lon="6.68194">
        <ele>355</ele>
        <time>2016-04-24T06:52:38Z</time>
      </trkpt>
      <trkpt lat="47.47134" lon="6.68191">
        <ele>355</ele>
        <time>2016-04-24T06:52:39Z</time>
      </trkpt>
      <trkpt lat="47.47135" lon="6.68187">
        <ele>355</ele>
        <time>2016-04-24T06:52:40Z</time>
      </trkpt>
      <trkpt lat="47.47136" lon="6.68183">
        <ele>355</ele>
        <time>2016-04-24T06:52:41Z</time>
      </trkpt>
      <trkpt lat="47.47137" lon="6.68179">
        <ele>355</ele>
        <time>2016-04-24T06:52:42Z</time>
      </trkpt>
      <trkpt lat="47.47137" lon="6.68175">
        <ele>355</ele>
        <time>2016-04-24T06:52:43Z</time>
      </trkpt>
      <trkpt lat="47.47136" lon="6.68171">
        <ele>355</ele>
        <time>2016-04-24T06:52:44Z</time>
      </trkpt>
      <trkpt lat="47.47135" lon="6.68166">
        <ele>357</ele>
        <time>2016-04-24T06:52:45Z</time>
      </trkpt>
      <trkpt lat="47.47133" lon="6.68161">
        <ele>357</ele>
        <time>2016-04-24T06:52:46Z</time>
      </trkpt>
      <trkpt lat="47.47132" lon="6.68156">
        <ele>357</ele>
        <time>2016-04-24T06:52:47Z</time>
      </trkpt>
      <trkpt lat="47.47131" lon="6.68151">
        <ele>357</ele>
        <time>2016-04-24T06:52:48Z</time>
      </trkpt>
      <trkpt lat="47.47131" lon="6.68145">
        <ele>357</ele>
        <time>2016-04-24T06:52:49Z</time>
      </trkpt>
      <trkpt lat="47.4713" lon="6.6814">
        <ele>357</ele>
        <time>2016-04-24T06:52:50Z</time>
      </trkpt>
      <trkpt lat="47.4713" lon="6.68135">
        <ele>357</ele>
        <time>2016-04-24T06:52:51Z</time>
      </trkpt>
      <trkpt lat="47.47129" lon="6.68129">
        <ele>357</ele>
        <time>2016-04-24T06:52:52Z</time>
      </trkpt>
      <trkpt lat="47.47127" lon="6.68124">
        <ele>357</ele>
        <time>2016-04-24T06:52:53Z</time>
      </trkpt>
      <trkpt lat="47.47125" lon="6.68119">
        <ele>357</ele>
        <time>2016-04-24T06:52:54Z</time>
      </trkpt>
      <trkpt lat="47.47122" lon="6.68114">
        <ele>357</ele>
        <time>2016-04-24T06:52:55Z</time>
      </trkpt>
      <trkpt lat="47.4712" lon="6.68108">
        <ele>357</ele>
        <time>2016-04-24T06:52:56Z</time>
      </trkpt>
      <trkpt lat="47.47119" lon="6.68102">
        <ele>357</ele>
        <time>2016-04-24T06:52:57Z</time>
      </trkpt>
      <trkpt lat="47.47118" lon="6.68097">
        <ele>357</ele>
        <time>2016-04-24T06:52:58Z</time>
      </trkpt>
      <trkpt lat="47.47117" lon="6.68092">
        <ele>357</ele>
        <time>2016-04-24T06:52:59Z</time>
      </trkpt>
      <trkpt lat="47.47116" lon="6.68087">
        <ele>357</ele>
        <time>2016-04-24T06:53:00Z</time>
      </trkpt>
      <trkpt lat="47.47116" lon="6.68082">
        <ele>360</ele>
        <time>2016-04-24T06:53:01Z</time>
      </trkpt>
      <trkpt lat="47.47117" lon="6.68076">
        <ele>360</ele>
        <time>2016-04-24T06:53:02Z</time>
      </trkpt>
      <trkpt lat="47.47119" lon="6.6807">
        <ele>361</ele>
        <time>2016-04-24T06:53:03Z</time>
      </trkpt>
      <trkpt lat="47.4712" lon="6.68064">
        <ele>361</ele>
        <time>2016-04-24T06:53:04Z</time>
      </trkpt>
      <trkpt lat="47.4712" lon="6.68058">
        <ele>361</ele>
        <time>2016-04-24T06:53:05Z</time>
      </trkpt>
      <trkpt lat="47.47121" lon="6.68053">
        <ele>362</ele>
        <time>2016-04-24T06:53:06Z</time>
      </trkpt>
      <trkpt lat="47.47121" lon="6.68048">
        <ele>362</ele>
        <time>2016-04-24T06:53:07Z</time>
      </trkpt>
      <trkpt lat="47.47121" lon="6.68044">
        <ele>362</ele>
        <time>2016-04-24T06:53:08Z</time>
      </trkpt>
      <trkpt lat="47.4712" lon="6.68039">
        <ele>362</ele>
        <time>2016-04-24T06:53:09Z</time>
      </trkpt>
      <trkpt lat="47.47119" lon="6.68035">
        <ele>362</ele>
        <time>2016-04-24T06:53:10Z</time>
      </trkpt>
      <trkpt lat="47.47118" lon="6.68031">
        <ele>362</ele>
        <time>2016-04-24T06:53:11Z</time>
      </trkpt>
      <trkpt lat="47.47116" lon="6.68026">
        <ele>362</ele>
        <time>2016-04-24T06:53:12Z</time>
      </trkpt>
      <trkpt lat="47.47116" lon="6.68022">
        <ele>362</ele>
        <time>2016-04-24T06:53:13Z</time>
      </trkpt>
      <trkpt lat="47.47115" lon="6.68018">
        <ele>362</ele>
        <time>2016-04-24T06:53:14Z</time>
      </trkpt>
      <trkpt lat="47.47114" lon="6.68014">
        <ele>362</ele>
        <time>2016-04-24T06:53:15Z</time>
      </trkpt>
      <trkpt lat="47.47113" lon="6.68009">
        <ele>362</ele>
        <time>2016-04-24T06:53:17Z</time>
      </trkpt>
      <trkpt lat="47.47112" lon="6.68006">
        <ele>362</ele>
        <time>2016-04-24T06:53:18Z</time>
      </trkpt>
      <trkpt lat="47.4711" lon="6.68003">
        <ele>362</ele>
        <time>2016-04-24T06:53:19Z</time>
      </trkpt>
      <trkpt lat="47.47109" lon="6.67999">
        <ele>365</ele>
        <time>2016-04-24T06:53:20Z</time>
      </trkpt>
      <trkpt lat="47.4711" lon="6.67995">
        <ele>365</ele>
        <time>2016-04-24T06:53:21Z</time>
      </trkpt>
      <trkpt lat="47.4711" lon="6.6799">
        <ele>365</ele>
        <time>2016-04-24T06:53:22Z</time>
      </trkpt>
      <trkpt lat="47.47111" lon="6.67985">
        <ele>366</ele>
        <time>2016-04-24T06:53:23Z</time>
      </trkpt>
      <trkpt lat="47.47111" lon="6.6798">
        <ele>366</ele>
        <time>2016-04-24T06:53:24Z</time>
      </trkpt>
      <trkpt lat="47.47111" lon="6.67975">
        <ele>366</ele>
        <time>2016-04-24T06:53:25Z</time>
      </trkpt>
      <trkpt lat="47.4711" lon="6.67971">
        <ele>366</ele>
        <time>2016-04-24T06:53:26Z</time>
      </trkpt>
      <trkpt lat="47.4711" lon="6.67967">
        <ele>366</ele>
        <time>2016-04-24T06:53:27Z</time>
      </trkpt>
      <trkpt lat="47.4711" lon="6.67963">
        <ele>366</ele>
        <time>2016-04-24T06:53:28Z</time>
      </trkpt>
      <trkpt lat="47.4711" lon="6.67959">
        <ele>367</ele>
        <time>2016-04-24T06:53:29Z</time>
      </trkpt>
      <trkpt lat="47.47109" lon="6.67954">
        <ele>367</ele>
        <time>2016-04-24T06:53:30Z</time>
      </trkpt>
      <trkpt lat="47.47109" lon="6.67951">
        <ele>367</ele>
        <time>2016-04-24T06:53:31Z</time>
      </trkpt>
      <trkpt lat="47.47108" lon="6.67947">
        <ele>367</ele>
        <time>2016-04-24T06:53:32Z</time>
      </trkpt>
      <trkpt lat="47.47107" lon="6.67943">
        <ele>367</ele>
        <time>2016-04-24T06:53:33Z</time>
      </trkpt>
      <trkpt lat="47.47106" lon="6.67939">
        <ele>367</ele>
        <time>2016-04-24T06:53:34Z</time>
      </trkpt>
      <trkpt lat="47.47105" lon="6.67933">
        <ele>367</ele>
        <time>2016-04-24T06:53:35Z</time>
      </trkpt>
      <trkpt lat="47.47104" lon="6.67928">
        <ele>367</ele>
        <time>2016-04-24T06:53:36Z</time>
      </trkpt>
      <trkpt lat="47.47104" lon="6.67924">
        <ele>366</ele>
        <time>2016-04-24T06:53:37Z</time>
      </trkpt>
      <trkpt lat="47.47105" lon="6.6792">
        <ele>367</ele>
        <time>2016-04-24T06:53:38Z</time>
      </trkpt>
      <trkpt lat="47.47105" lon="6.67916">
        <ele>369</ele>
        <time>2016-04-24T06:53:39Z</time>
      </trkpt>
      <trkpt lat="47.47106" lon="6.67913">
        <ele>370</ele>
        <time>2016-04-24T06:53:40Z</time>
      </trkpt>
      <trkpt lat="47.47106" lon="6.67907">
        <ele>370</ele>
        <time>2016-04-24T06:53:42Z</time>
      </trkpt>
      <trkpt lat="47.47106" lon="6.67904">
        <ele>370</ele>
        <time>2016-04-24T06:53:43Z</time>
      </trkpt>
      <trkpt lat="47.47106" lon="6.679">
        <ele>370</ele>
        <time>2016-04-24T06:53:44Z</time>
      </trkpt>
      <trkpt lat="47.47106" lon="6.67896">
        <ele>371</ele>
        <time>2016-04-24T06:53:45Z</time>
      </trkpt>
      <trkpt lat="47.47107" lon="6.67891">
        <ele>371</ele>
        <time>2016-04-24T06:53:46Z</time>
      </trkpt>
      <trkpt lat="47.47106" lon="6.67886">
        <ele>371</ele>
        <time>2016-04-24T06:53:47Z</time>
      </trkpt>
      <trkpt lat="47.47105" lon="6.67881">
        <ele>371</ele>
        <time>2016-04-24T06:53:48Z</time>
      </trkpt>
      <trkpt lat="47.47104" lon="6.67875">
        <ele>372</ele>
        <time>2016-04-24T06:53:49Z</time>
      </trkpt>
      <trkpt lat="47.47102" lon="6.6787">
        <ele>372</ele>
        <time>2016-04-24T06:53:50Z</time>
      </trkpt>
      <trkpt lat="47.47101" lon="6.67864">
        <ele>372</ele>
        <time>2016-04-24T06:53:51Z</time>
      </trkpt>
      <trkpt lat="47.47097" lon="6.67858">
        <ele>372</ele>
        <time>2016-04-24T06:53:52Z</time>
      </trkpt>
      <trkpt lat="47.47096" lon="6.67852">
        <ele>371</ele>
        <time>2016-04-24T06:53:53Z</time>
      </trkpt>
      <trkpt lat="47.47094" lon="6.67847">
        <ele>371</ele>
        <time>2016-04-24T06:53:54Z</time>
      </trkpt>
      <trkpt lat="47.47093" lon="6.67843">
        <ele>371</ele>
        <time>2016-04-24T06:53:55Z</time>
      </trkpt>
      <trkpt lat="47.47093" lon="6.67839">
        <ele>371</ele>
        <time>2016-04-24T06:53:55.999Z</time>
      </trkpt>
      <trkpt lat="47.47091" lon="6.67833">
        <ele>372</ele>
        <time>2016-04-24T06:53:57Z</time>
      </trkpt>
      <trkpt lat="47.4709" lon="6.67828">
        <ele>372</ele>
        <time>2016-04-24T06:53:58Z</time>
      </trkpt>
      <trkpt lat="47.47088" lon="6.67824">
        <ele>372</ele>
        <time>2016-04-24T06:53:59Z</time>
      </trkpt>
      <trkpt lat="47.47087" lon="6.6782">
        <ele>373</ele>
        <time>2016-04-24T06:54:00Z</time>
      </trkpt>
      <trkpt lat="47.47085" lon="6.67815">
        <ele>374</ele>
        <time>2016-04-24T06:54:01Z</time>
      </trkpt>
      <trkpt lat="47.47084" lon="6.67811">
        <ele>374</ele>
        <time>2016-04-24T06:54:02Z</time>
      </trkpt>
      <trkpt lat="47.47083" lon="6.67805">
        <ele>373</ele>
        <time>2016-04-24T06:54:03Z</time>
      </trkpt>
      <trkpt lat="47.47082" lon="6.678">
        <ele>374</ele>
        <time>2016-04-24T06:54:04Z</time>
      </trkpt>
      <trkpt lat="47.47081" lon="6.67795">
        <ele>374</ele>
        <time>2016-04-24T06:54:05Z</time>
      </trkpt>
      <trkpt lat="47.4708" lon="6.67791">
        <ele>374</ele>
        <time>2016-04-24T06:54:06Z</time>
      </trkpt>
      <trkpt lat="47.47079" lon="6.67787">
        <ele>374</ele>
        <time>2016-04-24T06:54:07Z</time>
      </trkpt>
      <trkpt lat="47.47078" lon="6.67783">
        <ele>374</ele>
        <time>2016-04-24T06:54:08Z</time>
      </trkpt>
      <trkpt lat="47.47077" lon="6.6778">
        <ele>374</ele>
        <time>2016-04-24T06:54:09Z</time>
      </trkpt>
      <trkpt lat="47.47076" lon="6.67776">
        <ele>375</ele>
        <time>2016-04-24T06:54:10Z</time>
      </trkpt>
      <trkpt lat="47.47076" lon="6.67772">
        <ele>374</ele>
        <time>2016-04-24T06:54:11Z</time>
      </trkpt>
      <trkpt lat="47.47075" lon="6.67769">
        <ele>374</ele>
        <time>2016-04-24T06:54:12Z</time>
      </trkpt>
      <trkpt lat="47.47074" lon="6.67763">
        <ele>374</ele>
        <time>2016-04-24T06:54:14Z</time>
      </trkpt>
      <trkpt lat="47.47074" lon="6.6776">
        <ele>374</ele>
        <time>2016-04-24T06:54:15Z</time>
      </trkpt>
      <trkpt lat="47.47074" lon="6.67753">
        <ele>374</ele>
        <time>2016-04-24T06:54:17Z</time>
      </trkpt>
      <trkpt lat="47.47074" lon="6.6775">
        <ele>374</ele>
        <time>2016-04-24T06:54:18Z</time>
      </trkpt>
      <trkpt lat="47.47073" lon="6.67747">
        <ele>374</ele>
        <time>2016-04-24T06:54:19Z</time>
      </trkpt>
      <trkpt lat="47.47073" lon="6.67744">
        <ele>375</ele>
        <time>2016-04-24T06:54:20Z</time>
      </trkpt>
      <trkpt lat="47.47072" lon="6.6774">
        <ele>375</ele>
        <time>2016-04-24T06:54:21Z</time>
      </trkpt>
      <trkpt lat="47.47072" lon="6.67737">
        <ele>375</ele>
        <time>2016-04-24T06:54:22Z</time>
      </trkpt>
      <trkpt lat="47.47072" lon="6.6773">
        <ele>375</ele>
        <time>2016-04-24T06:54:24Z</time>
      </trkpt>
      <trkpt lat="47.47071" lon="6.67728">
        <ele>375</ele>
        <time>2016-04-24T06:54:25Z</time>
      </trkpt>
      <trkpt lat="47.4707" lon="6.67722">
        <ele>376</ele>
        <time>2016-04-24T06:54:27Z</time>
      </trkpt>
      <trkpt lat="47.47069" lon="6.67719">
        <ele>376</ele>
        <time>2016-04-24T06:54:28Z</time>
      </trkpt>
      <trkpt lat="47.47066" lon="6.67715">
        <ele>376</ele>
        <time>2016-04-24T06:54:30Z</time>
      </trkpt>
      <trkpt lat="47.47065" lon="6.67713">
        <ele>376</ele>
        <time>2016-04-24T06:54:31Z</time>
      </trkpt>
      <trkpt lat="47.47063" lon="6.6771">
        <ele>376</ele>
        <time>2016-04-24T06:54:32Z</time>
      </trkpt>
      <trkpt lat="47.47061" lon="6.67708">
        <ele>376</ele>
        <time>2016-04-24T06:54:33Z</time>
      </trkpt>
      <trkpt lat="47.4706" lon="6.67705">
        <ele>376</ele>
        <time>2016-04-24T06:54:34Z</time>
      </trkpt>
      <trkpt lat="47.47058" lon="6.67703">
        <ele>376</ele>
        <time>2016-04-24T06:54:35Z</time>
      </trkpt>
      <trkpt lat="47.47055" lon="6.67699">
        <ele>376</ele>
        <time>2016-04-24T06:54:37Z</time>
      </trkpt>
      <trkpt lat="47.47054" lon="6.67697">
        <ele>376</ele>
        <time>2016-04-24T06:54:38Z</time>
      </trkpt>
      <trkpt lat="47.47052" lon="6.67695">
        <ele>376</ele>
        <time>2016-04-24T06:54:39Z</time>
      </trkpt>
      <trkpt lat="47.47049" lon="6.67693">
        <ele>376</ele>
        <time>2016-04-24T06:54:40Z</time>
      </trkpt>
      <trkpt lat="47.47046" lon="6.67692">
        <ele>376</ele>
        <time>2016-04-24T06:54:41Z</time>
      </trkpt>
      <trkpt lat="47.47043" lon="6.6769">
        <ele>377</ele>
        <time>2016-04-24T06:54:42Z</time>
      </trkpt>
      <trkpt lat="47.47039" lon="6.67689">
        <ele>377</ele>
        <time>2016-04-24T06:54:43Z</time>
      </trkpt>
      <trkpt lat="47.47036" lon="6.67688">
        <ele>377</ele>
        <time>2016-04-24T06:54:44Z</time>
      </trkpt>
      <trkpt lat="47.47033" lon="6.67688">
        <ele>377</ele>
        <time>2016-04-24T06:54:45Z</time>
      </trkpt>
      <trkpt lat="47.4703" lon="6.67688">
        <ele>377</ele>
        <time>2016-04-24T06:54:46Z</time>
      </trkpt>
      <trkpt lat="47.47026" lon="6.67688">
        <ele>377</ele>
        <time>2016-04-24T06:54:47Z</time>
      </trkpt>
      <trkpt lat="47.47023" lon="6.67688">
        <ele>377</ele>
        <time>2016-04-24T06:54:48Z</time>
      </trkpt>
      <trkpt lat="47.4702" lon="6.67689">
        <ele>377</ele>
        <time>2016-04-24T06:54:49Z</time>
      </trkpt>
      <trkpt lat="47.47016" lon="6.67689">
        <ele>377</ele>
        <time>2016-04-24T06:54:50Z</time>
      </trkpt>
      <trkpt lat="47.47013" lon="6.6769">
        <ele>377</ele>
        <time>2016-04-24T06:54:51Z</time>
      </trkpt>
      <trkpt lat="47.4701" lon="6.67691">
        <ele>377</ele>
        <time>2016-04-24T06:54:52Z</time>
      </trkpt>
      <trkpt lat="47.47007" lon="6.67691">
        <ele>377</ele>
        <time>2016-04-24T06:54:53Z</time>
      </trkpt>
      <trkpt lat="47.47004" lon="6.67692">
        <ele>377</ele>
        <time>2016-04-24T06:54:54Z</time>
      </trkpt>
      <trkpt lat="47.47001" lon="6.67693">
        <ele>377</ele>
        <time>2016-04-24T06:54:55Z</time>
      </trkpt>
      <trkpt lat="47.46998" lon="6.67694">
        <ele>381</ele>
        <time>2016-04-24T06:54:56Z</time>
      </trkpt>
      <trkpt lat="47.46996" lon="6.67695">
        <ele>382</ele>
        <time>2016-04-24T06:54:57Z</time>
      </trkpt>
      <trkpt lat="47.46993" lon="6.67697">
        <ele>382</ele>
        <time>2016-04-24T06:54:58Z</time>
      </trkpt>
      <trkpt lat="47.46991" lon="6.67699">
        <ele>382</ele>
        <time>2016-04-24T06:54:59Z</time>
      </trkpt>
      <trkpt lat="47.46989" lon="6.677">
        <ele>382</ele>
        <time>2016-04-24T06:55:00Z</time>
      </trkpt>
      <trkpt lat="47.46987" lon="6.67702">
        <ele>382</ele>
        <time>2016-04-24T06:55:01Z</time>
      </trkpt>
      <trkpt lat="47.46985" lon="6.67703">
        <ele>383</ele>
        <time>2016-04-24T06:55:02Z</time>
      </trkpt>
      <trkpt lat="47.46982" lon="6.67705">
        <ele>383</ele>
        <time>2016-04-24T06:55:04Z</time>
      </trkpt>
      <trkpt lat="47.4698" lon="6.67707">
        <ele>383</ele>
        <time>2016-04-24T06:55:05Z</time>
      </trkpt>
      <trkpt lat="47.46977" lon="6.67709">
        <ele>383</ele>
        <time>2016-04-24T06:55:07Z</time>
      </trkpt>
      <trkpt lat="47.46975" lon="6.67711">
        <ele>383</ele>
        <time>2016-04-24T06:55:08Z</time>
      </trkpt>
      <trkpt lat="47.46973" lon="6.67713">
        <ele>383</ele>
        <time>2016-04-24T06:55:09Z</time>
      </trkpt>
      <trkpt lat="47.46971" lon="6.67716">
        <ele>383</ele>
        <time>2016-04-24T06:55:10Z</time>
      </trkpt>
      <trkpt lat="47.4697" lon="6.6772">
        <ele>384</ele>
        <time>2016-04-24T06:55:11Z</time>
      </trkpt>
      <trkpt lat="47.46968" lon="6.67723">
        <ele>384</ele>
        <time>2016-04-24T06:55:12Z</time>
      </trkpt>
      <trkpt lat="47.46966" lon="6.67727">
        <ele>384</ele>
        <time>2016-04-24T06:55:13Z</time>
      </trkpt>
      <trkpt lat="47.46964" lon="6.67731">
        <ele>384</ele>
        <time>2016-04-24T06:55:14Z</time>
      </trkpt>
      <trkpt lat="47.46962" lon="6.67736">
        <ele>384</ele>
        <time>2016-04-24T06:55:15Z</time>
      </trkpt>
      <trkpt lat="47.4696" lon="6.6774">
        <ele>384</ele>
        <time>2016-04-24T06:55:16Z</time>
      </trkpt>
      <trkpt lat="47.46959" lon="6.67744">
        <ele>385</ele>
        <time>2016-04-24T06:55:17Z</time>
      </trkpt>
      <trkpt lat="47.46958" lon="6.67749">
        <ele>385</ele>
        <time>2016-04-24T06:55:18Z</time>
      </trkpt>
      <trkpt lat="47.46957" lon="6.67754">
        <ele>385</ele>
        <time>2016-04-24T06:55:19Z</time>
      </trkpt>
      <trkpt lat="47.46956" lon="6.6776">
        <ele>385</ele>
        <time>2016-04-24T06:55:20Z</time>
      </trkpt>
      <trkpt lat="47.46955" lon="6.67765">
        <ele>385</ele>
        <time>2016-04-24T06:55:21Z</time>
      </trkpt>
      <trkpt lat="47.46953" lon="6.67768">
        <ele>385</ele>
        <time>2016-04-24T06:55:22Z</time>
      </trkpt>
      <trkpt lat="47.46951" lon="6.67771">
        <ele>385</ele>
        <time>2016-04-24T06:55:23Z</time>
      </trkpt>
      <trkpt lat="47.4695" lon="6.67773">
        <ele>385</ele>
        <time>2016-04-24T06:55:24Z</time>
      </trkpt>
      <trkpt lat="47.46948" lon="6.67776">
        <ele>385</ele>
        <time>2016-04-24T06:55:25Z</time>
      </trkpt>
      <trkpt lat="47.46947" lon="6.67779">
        <ele>385</ele>
        <time>2016-04-24T06:55:26Z</time>
      </trkpt>
      <trkpt lat="47.46945" lon="6.67782">
        <ele>385</ele>
        <time>2016-04-24T06:55:27Z</time>
      </trkpt>
      <trkpt lat="47.46944" lon="6.67785">
        <ele>385</ele>
        <time>2016-04-24T06:55:28Z</time>
      </trkpt>
      <trkpt lat="47.46943" lon="6.67789">
        <ele>385</ele>
        <time>2016-04-24T06:55:29Z</time>
      </trkpt>
      <trkpt lat="47.46942" lon="6.67793">
        <ele>385</ele>
        <time>2016-04-24T06:55:30Z</time>
      </trkpt>
      <trkpt lat="47.46941" lon="6.67797">
        <ele>385</ele>
        <time>2016-04-24T06:55:31Z</time>
      </trkpt>
      <trkpt lat="47.46939" lon="6.67802">
        <ele>386</ele>
        <time>2016-04-24T06:55:32Z</time>
      </trkpt>
      <trkpt lat="47.46937" lon="6.67807">
        <ele>386</ele>
        <time>2016-04-24T06:55:33Z</time>
      </trkpt>
      <trkpt lat="47.46935" lon="6.67812">
        <ele>386</ele>
        <time>2016-04-24T06:55:34Z</time>
      </trkpt>
      <trkpt lat="47.46933" lon="6.67819">
        <ele>386</ele>
        <time>2016-04-24T06:55:35Z</time>
      </trkpt>
      <trkpt lat="47.46931" lon="6.67825">
        <ele>386</ele>
        <time>2016-04-24T06:55:36Z</time>
      </trkpt>
      <trkpt lat="47.46929" lon="6.67831">
        <ele>387</ele>
        <time>2016-04-24T06:55:37Z</time>
      </trkpt>
      <trkpt lat="47.46927" lon="6.67836">
        <ele>386</ele>
        <time>2016-04-24T06:55:38Z</time>
      </trkpt>
      <trkpt lat="47.46924" lon="6.67842">
        <ele>386</ele>
        <time>2016-04-24T06:55:39Z</time>
      </trkpt>
      <trkpt lat="47.46922" lon="6.67848">
        <ele>385</ele>
        <time>2016-04-24T06:55:40Z</time>
      </trkpt>
      <trkpt lat="47.4692" lon="6.67854">
        <ele>385</ele>
        <time>2016-04-24T06:55:41Z</time>
      </trkpt>
      <trkpt lat="47.46917" lon="6.67859">
        <ele>384</ele>
        <time>2016-04-24T06:55:42Z</time>
      </trkpt>
      <trkpt lat="47.46915" lon="6.67864">
        <ele>389</ele>
        <time>2016-04-24T06:55:43Z</time>
      </trkpt>
      <trkpt lat="47.46913" lon="6.67869">
        <ele>389</ele>
        <time>2016-04-24T06:55:44Z</time>
      </trkpt>
      <trkpt lat="47.46911" lon="6.67874">
        <ele>389</ele>
        <time>2016-04-24T06:55:45Z</time>
      </trkpt>
      <trkpt lat="47.46909" lon="6.67879">
        <ele>389</ele>
        <time>2016-04-24T06:55:46Z</time>
      </trkpt>
      <trkpt lat="47.46908" lon="6.67883">
        <ele>389</ele>
        <time>2016-04-24T06:55:47Z</time>
      </trkpt>
      <trkpt lat="47.46906" lon="6.67887">
        <ele>389</ele>
        <time>2016-04-24T06:55:48Z</time>
      </trkpt>
      <trkpt lat="47.46905" lon="6.6789">
        <ele>388</ele>
        <time>2016-04-24T06:55:49Z</time>
      </trkpt>
      <trkpt lat="47.46904" lon="6.67894">
        <ele>388</ele>
        <time>2016-04-24T06:55:50Z</time>
      </trkpt>
      <trkpt lat="47.46902" lon="6.67898">
        <ele>388</ele>
        <time>2016-04-24T06:55:51Z</time>
      </trkpt>
      <trkpt lat="47.46901" lon="6.67903">
        <ele>388</ele>
        <time>2016-04-24T06:55:52Z</time>
      </trkpt>
      <trkpt lat="47.46899" lon="6.67908">
        <ele>388</ele>
        <time>2016-04-24T06:55:53Z</time>
      </trkpt>
      <trkpt lat="47.46898" lon="6.67913">
        <ele>388</ele>
        <time>2016-04-24T06:55:54Z</time>
      </trkpt>
      <trkpt lat="47.46896" lon="6.67919">
        <ele>387</ele>
        <time>2016-04-24T06:55:55Z</time>
      </trkpt>
      <trkpt lat="47.46894" lon="6.67924">
        <ele>387</ele>
        <time>2016-04-24T06:55:56Z</time>
      </trkpt>
      <trkpt lat="47.46892" lon="6.67929">
        <ele>387</ele>
        <time>2016-04-24T06:55:57Z</time>
      </trkpt>
      <trkpt lat="47.4689" lon="6.67934">
        <ele>387</ele>
        <time>2016-04-24T06:55:58Z</time>
      </trkpt>
      <trkpt lat="47.46888" lon="6.67939">
        <ele>387</ele>
        <time>2016-04-24T06:55:59Z</time>
      </trkpt>
      <trkpt lat="47.46885" lon="6.67945">
        <ele>387</ele>
        <time>2016-04-24T06:56:00Z</time>
      </trkpt>
      <trkpt lat="47.46883" lon="6.67952">
        <ele>387</ele>
        <time>2016-04-24T06:56:01Z</time>
      </trkpt>
      <trkpt lat="47.4688" lon="6.6796">
        <ele>387</ele>
        <time>2016-04-24T06:56:02Z</time>
      </trkpt>
      <trkpt lat="47.46878" lon="6.67967">
        <ele>387</ele>
        <time>2016-04-24T06:56:03Z</time>
      </trkpt>
      <trkpt lat="47.46876" lon="6.67973">
        <ele>387</ele>
        <time>2016-04-24T06:56:04Z</time>
      </trkpt>
      <trkpt lat="47.46875" lon="6.67978">
        <ele>387</ele>
        <time>2016-04-24T06:56:05Z</time>
      </trkpt>
      <trkpt lat="47.46873" lon="6.67983">
        <ele>387</ele>
        <time>2016-04-24T06:56:06Z</time>
      </trkpt>
      <trkpt lat="47.4687" lon="6.67987">
        <ele>387</ele>
        <time>2016-04-24T06:56:07Z</time>
      </trkpt>
      <trkpt lat="47.46867" lon="6.67991">
        <ele>387</ele>
        <time>2016-04-24T06:56:08Z</time>
      </trkpt>
      <trkpt lat="47.46865" lon="6.67996">
        <ele>387</ele>
        <time>2016-04-24T06:56:09Z</time>
      </trkpt>
      <trkpt lat="47.46861" lon="6.68001">
        <ele>384</ele>
        <time>2016-04-24T06:56:10Z</time>
      </trkpt>
      <trkpt lat="47.46859" lon="6.68006">
        <ele>384</ele>
        <time>2016-04-24T06:56:11Z</time>
      </trkpt>
      <trkpt lat="47.46856" lon="6.68013">
        <ele>384</ele>
        <time>2016-04-24T06:56:12Z</time>
      </trkpt>
      <trkpt lat="47.46853" lon="6.68018">
        <ele>384</ele>
        <time>2016-04-24T06:56:13Z</time>
      </trkpt>
      <trkpt lat="47.4685" lon="6.68024">
        <ele>384</ele>
        <time>2016-04-24T06:56:14Z</time>
      </trkpt>
      <trkpt lat="47.46847" lon="6.68029">
        <ele>384</ele>
        <time>2016-04-24T06:56:15Z</time>
      </trkpt>
      <trkpt lat="47.46844" lon="6.68034">
        <ele>383</ele>
        <time>2016-04-24T06:56:16Z</time>
      </trkpt>
      <trkpt lat="47.46838" lon="6.68046">
        <ele>382</ele>
        <time>2016-04-24T06:56:17Z</time>
      </trkpt>
      <trkpt lat="47.46835" lon="6.68049">
        <ele>382</ele>
        <time>2016-04-24T06:56:18Z</time>
      </trkpt>
      <trkpt lat="47.46831" lon="6.68049">
        <ele>383</ele>
        <time>2016-04-24T06:56:19Z</time>
      </trkpt>
      <trkpt lat="47.46829" lon="6.68046">
        <ele>383</ele>
        <time>2016-04-24T06:56:20Z</time>
      </trkpt>
      <trkpt lat="47.46827" lon="6.68042">
        <ele>383</ele>
        <time>2016-04-24T06:56:21Z</time>
      </trkpt>
      <trkpt lat="47.46824" lon="6.68038">
        <ele>383</ele>
        <time>2016-04-24T06:56:22Z</time>
      </trkpt>
      <trkpt lat="47.46822" lon="6.68035">
        <ele>384</ele>
        <time>2016-04-24T06:56:23Z</time>
      </trkpt>
      <trkpt lat="47.4682" lon="6.68031">
        <ele>384</ele>
        <time>2016-04-24T06:56:24Z</time>
      </trkpt>
      <trkpt lat="47.46814" lon="6.68025">
        <ele>384</ele>
        <time>2016-04-24T06:56:25Z</time>
      </trkpt>
      <trkpt lat="47.46811" lon="6.68021">
        <ele>384</ele>
        <time>2016-04-24T06:56:26Z</time>
      </trkpt>
      <trkpt lat="47.46808" lon="6.68017">
        <ele>385</ele>
        <time>2016-04-24T06:56:27Z</time>
      </trkpt>
      <trkpt lat="47.46805" lon="6.68013">
        <ele>385</ele>
        <time>2016-04-24T06:56:28Z</time>
      </trkpt>
      <trkpt lat="47.46803" lon="6.6801">
        <ele>385</ele>
        <time>2016-04-24T06:56:29Z</time>
      </trkpt>
      <trkpt lat="47.46802" lon="6.68004">
        <ele>385</ele>
        <time>2016-04-24T06:56:30Z</time>
      </trkpt>
      <trkpt lat="47.468" lon="6.68">
        <ele>389</ele>
        <time>2016-04-24T06:56:31Z</time>
      </trkpt>
      <trkpt lat="47.46798" lon="6.67997">
        <ele>389</ele>
        <time>2016-04-24T06:56:32Z</time>
      </trkpt>
      <trkpt lat="47.46797" lon="6.67994">
        <ele>389</ele>
        <time>2016-04-24T06:56:33Z</time>
      </trkpt>
      <trkpt lat="47.46793" lon="6.67989">
        <ele>389</ele>
        <time>2016-04-24T06:56:34Z</time>
      </trkpt>
      <trkpt lat="47.4679" lon="6.67985">
        <ele>389</ele>
        <time>2016-04-24T06:56:35Z</time>
      </trkpt>
      <trkpt lat="47.46787" lon="6.67982">
        <ele>388</ele>
        <time>2016-04-24T06:56:36Z</time>
      </trkpt>
      <trkpt lat="47.46784" lon="6.67979">
        <ele>388</ele>
        <time>2016-04-24T06:56:37Z</time>
      </trkpt>
      <trkpt lat="47.46782" lon="6.67975">
        <ele>388</ele>
        <time>2016-04-24T06:56:38Z</time>
      </trkpt>
      <trkpt lat="47.4678" lon="6.67971">
        <ele>389</ele>
        <time>2016-04-24T06:56:39Z</time>
      </trkpt>
      <trkpt lat="47.4677" lon="6.67967">
        <ele>388</ele>
        <time>2016-04-24T06:56:40Z</time>
      </trkpt>
      <trkpt lat="47.46768" lon="6.67963">
        <ele>388</ele>
        <time>2016-04-24T06:56:41Z</time>
      </trkpt>
      <trkpt lat="47.46764" lon="6.67958">
        <ele>389</ele>
        <time>2016-04-24T06:56:42Z</time>
      </trkpt>
      <trkpt lat="47.46761" lon="6.67953">
        <ele>389</ele>
        <time>2016-04-24T06:56:43Z</time>
      </trkpt>
      <trkpt lat="47.46758" lon="6.67949">
        <ele>389</ele>
        <time>2016-04-24T06:56:44Z</time>
      </trkpt>
      <trkpt lat="47.46755" lon="6.67945">
        <ele>389</ele>
        <time>2016-04-24T06:56:45Z</time>
      </trkpt>
      <trkpt lat="47.46753" lon="6.67942">
        <ele>389</ele>
        <time>2016-04-24T06:56:46Z</time>
      </trkpt>
      <trkpt lat="47.46751" lon="6.67937">
        <ele>389</ele>
        <time>2016-04-24T06:56:48Z</time>
      </trkpt>
      <trkpt lat="47.4675" lon="6.67934">
        <ele>387</ele>
        <time>2016-04-24T06:56:49Z</time>
      </trkpt>
      <trkpt lat="47.46748" lon="6.67931">
        <ele>388</ele>
        <time>2016-04-24T06:56:50Z</time>
      </trkpt>
      <trkpt lat="47.46746" lon="6.67929">
        <ele>388</ele>
        <time>2016-04-24T06:56:51Z</time>
      </trkpt>
      <trkpt lat="47.46745" lon="6.67923">
        <ele>388</ele>
        <time>2016-04-24T06:56:53Z</time>
      </trkpt>
      <trkpt lat="47.46744" lon="6.6792">
        <ele>388</ele>
        <time>2016-04-24T06:56:54Z</time>
      </trkpt>
      <trkpt lat="47.46743" lon="6.67917">
        <ele>388</ele>
        <time>2016-04-24T06:56:55Z</time>
      </trkpt>
      <trkpt lat="47.46742" lon="6.67914">
        <ele>389</ele>
        <time>2016-04-24T06:56:56Z</time>
      </trkpt>
      <trkpt lat="47.4674" lon="6.67909">
        <ele>389</ele>
        <time>2016-04-24T06:56:57Z</time>
      </trkpt>
      <trkpt lat="47.46737" lon="6.67904">
        <ele>388</ele>
        <time>2016-04-24T06:56:58Z</time>
      </trkpt>
      <trkpt lat="47.46735" lon="6.67899">
        <ele>388</ele>
        <time>2016-04-24T06:56:59Z</time>
      </trkpt>
      <trkpt lat="47.46733" lon="6.67894">
        <ele>388</ele>
        <time>2016-04-24T06:57:00Z</time>
      </trkpt>
      <trkpt lat="47.4673" lon="6.67889">
        <ele>388</ele>
        <time>2016-04-24T06:57:01Z</time>
      </trkpt>
      <trkpt lat="47.46728" lon="6.67885">
        <ele>388</ele>
        <time>2016-04-24T06:57:02Z</time>
      </trkpt>
      <trkpt lat="47.46726" lon="6.67881">
        <ele>388</ele>
        <time>2016-04-24T06:57:03Z</time>
      </trkpt>
      <trkpt lat="47.46724" lon="6.67877">
        <ele>388</ele>
        <time>2016-04-24T06:57:04Z</time>
      </trkpt>
      <trkpt lat="47.46722" lon="6.67873">
        <ele>388</ele>
        <time>2016-04-24T06:57:05Z</time>
      </trkpt>
      <trkpt lat="47.46719" lon="6.67869">
        <ele>388</ele>
        <time>2016-04-24T06:57:06Z</time>
      </trkpt>
      <trkpt lat="47.46716" lon="6.67866">
        <ele>388</ele>
        <time>2016-04-24T06:57:07Z</time>
      </trkpt>
      <trkpt lat="47.46712" lon="6.67862">
        <ele>388</ele>
        <time>2016-04-24T06:57:08Z</time>
      </trkpt>
      <trkpt lat="47.46708" lon="6.67857">
        <ele>388</ele>
        <time>2016-04-24T06:57:09Z</time>
      </trkpt>
      <trkpt lat="47.46704" lon="6.67852">
        <ele>388</ele>
        <time>2016-04-24T06:57:10Z</time>
      </trkpt>
      <trkpt lat="47.46701" lon="6.67846">
        <ele>388</ele>
        <time>2016-04-24T06:57:11Z</time>
      </trkpt>
      <trkpt lat="47.46698" lon="6.67842">
        <ele>387</ele>
        <time>2016-04-24T06:57:12Z</time>
      </trkpt>
      <trkpt lat="47.46696" lon="6.67837">
        <ele>387</ele>
        <time>2016-04-24T06:57:13Z</time>
      </trkpt>
      <trkpt lat="47.46693" lon="6.67833">
        <ele>387</ele>
        <time>2016-04-24T06:57:14Z</time>
      </trkpt>
      <trkpt lat="47.46692" lon="6.6783">
        <ele>388</ele>
        <time>2016-04-24T06:57:15Z</time>
      </trkpt>
      <trkpt lat="47.46691" lon="6.67827">
        <ele>387</ele>
        <time>2016-04-24T06:57:16Z</time>
      </trkpt>
      <trkpt lat="47.46689" lon="6.67823">
        <ele>387</ele>
        <time>2016-04-24T06:57:17Z</time>
      </trkpt>
      <trkpt lat="47.46688" lon="6.6782">
        <ele>387</ele>
        <time>2016-04-24T06:57:18Z</time>
      </trkpt>
      <trkpt lat="47.46686" lon="6.67816">
        <ele>387</ele>
        <time>2016-04-24T06:57:19Z</time>
      </trkpt>
      <trkpt lat="47.46685" lon="6.67811">
        <ele>387</ele>
        <time>2016-04-24T06:57:20Z</time>
      </trkpt>
      <trkpt lat="47.46683" lon="6.67806">
        <ele>388</ele>
        <time>2016-04-24T06:57:21Z</time>
      </trkpt>
      <trkpt lat="47.4668" lon="6.678">
        <ele>388</ele>
        <time>2016-04-24T06:57:22Z</time>
      </trkpt>
      <trkpt lat="47.46677" lon="6.67795">
        <ele>388</ele>
        <time>2016-04-24T06:57:23Z</time>
      </trkpt>
      <trkpt lat="47.46674" lon="6.6779">
        <ele>387</ele>
        <time>2016-04-24T06:57:24Z</time>
      </trkpt>
      <trkpt lat="47.46672" lon="6.67785">
        <ele>387</ele>
        <time>2016-04-24T06:57:25Z</time>
      </trkpt>
      <trkpt lat="47.46668" lon="6.6778">
        <ele>387</ele>
        <time>2016-04-24T06:57:26Z</time>
      </trkpt>
      <trkpt lat="47.46665" lon="6.67774">
        <ele>386</ele>
        <time>2016-04-24T06:57:27Z</time>
      </trkpt>
      <trkpt lat="47.46662" lon="6.67768">
        <ele>386</ele>
        <time>2016-04-24T06:57:28Z</time>
      </trkpt>
      <trkpt lat="47.46659" lon="6.67762">
        <ele>386</ele>
        <time>2016-04-24T06:57:29Z</time>
      </trkpt>
      <trkpt lat="47.46654" lon="6.67755">
        <ele>386</ele>
        <time>2016-04-24T06:57:30Z</time>
      </trkpt>
      <trkpt lat="47.46633" lon="6.67736">
        <ele>385</ele>
        <time>2016-04-24T06:57:31Z</time>
      </trkpt>
      <trkpt lat="47.46629" lon="6.67729">
        <ele>385</ele>
        <time>2016-04-24T06:57:32Z</time>
      </trkpt>
      <trkpt lat="47.46618" lon="6.67715">
        <ele>385</ele>
        <time>2016-04-24T06:57:33Z</time>
      </trkpt>
      <trkpt lat="47.46612" lon="6.6771">
        <ele>385</ele>
        <time>2016-04-24T06:57:34Z</time>
      </trkpt>
      <trkpt lat="47.46607" lon="6.67705">
        <ele>385</ele>
        <time>2016-04-24T06:57:35Z</time>
      </trkpt>
      <trkpt lat="47.46602" lon="6.67701">
        <ele>385</ele>
        <time>2016-04-24T06:57:36Z</time>
      </trkpt>
      <trkpt lat="47.46597" lon="6.67696">
        <ele>385</ele>
        <time>2016-04-24T06:57:37Z</time>
      </trkpt>
      <trkpt lat="47.46595" lon="6.67689">
        <ele>385</ele>
        <time>2016-04-24T06:57:38Z</time>
      </trkpt>
      <trkpt lat="47.46592" lon="6.67682">
        <ele>385</ele>
        <time>2016-04-24T06:57:39Z</time>
      </trkpt>
      <trkpt lat="47.46587" lon="6.67673">
        <ele>384</ele>
        <time>2016-04-24T06:57:40Z</time>
      </trkpt>
      <trkpt lat="47.46585" lon="6.67668">
        <ele>384</ele>
        <time>2016-04-24T06:57:41Z</time>
      </trkpt>
      <trkpt lat="47.46583" lon="6.67663">
        <ele>384</ele>
        <time>2016-04-24T06:57:42Z</time>
      </trkpt>
      <trkpt lat="47.46576" lon="6.67659">
        <ele>384</ele>
        <time>2016-04-24T06:57:43Z</time>
      </trkpt>
      <trkpt lat="47.46573" lon="6.67652">
        <ele>383</ele>
        <time>2016-04-24T06:57:44Z</time>
      </trkpt>
      <trkpt lat="47.46569" lon="6.67647">
        <ele>383</ele>
        <time>2016-04-24T06:57:45Z</time>
      </trkpt>
      <trkpt lat="47.46565" lon="6.67642">
        <ele>383</ele>
        <time>2016-04-24T06:57:46Z</time>
      </trkpt>
      <trkpt lat="47.46562" lon="6.67637">
        <ele>383</ele>
        <time>2016-04-24T06:57:47Z</time>
      </trkpt>
      <trkpt lat="47.4656" lon="6.67633">
        <ele>383</ele>
        <time>2016-04-24T06:57:48Z</time>
      </trkpt>
      <trkpt lat="47.46557" lon="6.67629">
        <ele>383</ele>
        <time>2016-04-24T06:57:49Z</time>
      </trkpt>
      <trkpt lat="47.46554" lon="6.67625">
        <ele>383</ele>
        <time>2016-04-24T06:57:50Z</time>
      </trkpt>
      <trkpt lat="47.46549" lon="6.67619">
        <ele>383</ele>
        <time>2016-04-24T06:57:51Z</time>
      </trkpt>
      <trkpt lat="47.46533" lon="6.67599">
        <ele>382</ele>
        <time>2016-04-24T06:57:52Z</time>
      </trkpt>
      <trkpt lat="47.46527" lon="6.67587">
        <ele>382</ele>
        <time>2016-04-24T06:57:53Z</time>
      </trkpt>
      <trkpt lat="47.4652" lon="6.67578">
        <ele>380</ele>
        <time>2016-04-24T06:57:54Z</time>
      </trkpt>
      <trkpt lat="47.46516" lon="6.6757">
        <ele>380</ele>
        <time>2016-04-24T06:57:55Z</time>
      </trkpt>
      <trkpt lat="47.46511" lon="6.6756">
        <ele>380</ele>
        <time>2016-04-24T06:57:56Z</time>
      </trkpt>
      <trkpt lat="47.46509" lon="6.6755">
        <ele>380</ele>
        <time>2016-04-24T06:57:57Z</time>
      </trkpt>
      <trkpt lat="47.46506" lon="6.67545">
        <ele>380</ele>
        <time>2016-04-24T06:57:58Z</time>
      </trkpt>
      <trkpt lat="47.46505" lon="6.6754">
        <ele>380</ele>
        <time>2016-04-24T06:57:59Z</time>
      </trkpt>
      <trkpt lat="47.46503" lon="6.67535">
        <ele>380</ele>
        <time>2016-04-24T06:58:00Z</time>
      </trkpt>
      <trkpt lat="47.46496" lon="6.67526">
        <ele>378</ele>
        <time>2016-04-24T06:58:01Z</time>
      </trkpt>
      <trkpt lat="47.46474" lon="6.67525">
        <ele>378</ele>
        <time>2016-04-24T06:58:02Z</time>
      </trkpt>
      <trkpt lat="47.46464" lon="6.67517">
        <ele>378</ele>
        <time>2016-04-24T06:58:03Z</time>
      </trkpt>
      <trkpt lat="47.4646" lon="6.67513">
        <ele>378</ele>
        <time>2016-04-24T06:58:04Z</time>
      </trkpt>
      <trkpt lat="47.46456" lon="6.67511">
        <ele>378</ele>
        <time>2016-04-24T06:58:05Z</time>
      </trkpt>
      <trkpt lat="47.46448" lon="6.6751">
        <ele>378</ele>
        <time>2016-04-24T06:58:06Z</time>
      </trkpt>
      <trkpt lat="47.46441" lon="6.6751">
        <ele>378</ele>
        <time>2016-04-24T06:58:07Z</time>
      </trkpt>
      <trkpt lat="47.46434" lon="6.67512">
        <ele>378</ele>
        <time>2016-04-24T06:58:08Z</time>
      </trkpt>
      <trkpt lat="47.4643" lon="6.67514">
        <ele>378</ele>
        <time>2016-04-24T06:58:09Z</time>
      </trkpt>
      <trkpt lat="47.4643" lon="6.67521">
        <ele>378</ele>
        <time>2016-04-24T06:58:10Z</time>
      </trkpt>
      <trkpt lat="47.46425" lon="6.67523">
        <ele>378</ele>
        <time>2016-04-24T06:58:11Z</time>
      </trkpt>
      <trkpt lat="47.4642" lon="6.67527">
        <ele>378</ele>
        <time>2016-04-24T06:58:12Z</time>
      </trkpt>
      <trkpt lat="47.46417" lon="6.67531">
        <ele>378</ele>
        <time>2016-04-24T06:58:13Z</time>
      </trkpt>
      <trkpt lat="47.46414" lon="6.67535">
        <ele>377</ele>
        <time>2016-04-24T06:58:14Z</time>
      </trkpt>
      <trkpt lat="47.46411" lon="6.67539">
        <ele>377</ele>
        <time>2016-04-24T06:58:15Z</time>
      </trkpt>
      <trkpt lat="47.46409" lon="6.67541">
        <ele>377</ele>
        <time>2016-04-24T06:58:16Z</time>
      </trkpt>
      <trkpt lat="47.46407" lon="6.67544">
        <ele>378</ele>
        <time>2016-04-24T06:58:17Z</time>
      </trkpt>
      <trkpt lat="47.46405" lon="6.67548">
        <ele>378</ele>
        <time>2016-04-24T06:58:18Z</time>
      </trkpt>
      <trkpt lat="47.46402" lon="6.6755">
        <ele>378</ele>
        <time>2016-04-24T06:58:19Z</time>
      </trkpt>
      <trkpt lat="47.46401" lon="6.67552">
        <ele>378</ele>
        <time>2016-04-24T06:58:20Z</time>
      </trkpt>
      <trkpt lat="47.46397" lon="6.67556">
        <ele>378</ele>
        <time>2016-04-24T06:58:22Z</time>
      </trkpt>
      <trkpt lat="47.46395" lon="6.6756">
        <ele>378</ele>
        <time>2016-04-24T06:58:23Z</time>
      </trkpt>
      <trkpt lat="47.46392" lon="6.67564">
        <ele>378</ele>
        <time>2016-04-24T06:58:24Z</time>
      </trkpt>
      <trkpt lat="47.46389" lon="6.67569">
        <ele>378</ele>
        <time>2016-04-24T06:58:25Z</time>
      </trkpt>
      <trkpt lat="47.46386" lon="6.67574">
        <ele>378</ele>
        <time>2016-04-24T06:58:26Z</time>
      </trkpt>
      <trkpt lat="47.46383" lon="6.67579">
        <ele>378</ele>
        <time>2016-04-24T06:58:27Z</time>
      </trkpt>
      <trkpt lat="47.4638" lon="6.67583">
        <ele>377</ele>
        <time>2016-04-24T06:58:28Z</time>
      </trkpt>
      <trkpt lat="47.46377" lon="6.67587">
        <ele>379</ele>
        <time>2016-04-24T06:58:29Z</time>
      </trkpt>
      <trkpt lat="47.46373" lon="6.67591">
        <ele>379</ele>
        <time>2016-04-24T06:58:30Z</time>
      </trkpt>
      <trkpt lat="47.4637" lon="6.67594">
        <ele>378</ele>
        <time>2016-04-24T06:58:31Z</time>
      </trkpt>
      <trkpt lat="47.46366" lon="6.67598">
        <ele>378</ele>
        <time>2016-04-24T06:58:32Z</time>
      </trkpt>
      <trkpt lat="47.46363" lon="6.67602">
        <ele>378</ele>
        <time>2016-04-24T06:58:33Z</time>
      </trkpt>
      <trkpt lat="47.46359" lon="6.67606">
        <ele>378</ele>
        <time>2016-04-24T06:58:34Z</time>
      </trkpt>
      <trkpt lat="47.46356" lon="6.67609">
        <ele>378</ele>
        <time>2016-04-24T06:58:35Z</time>
      </trkpt>
      <trkpt lat="47.46353" lon="6.67612">
        <ele>378</ele>
        <time>2016-04-24T06:58:36Z</time>
      </trkpt>
      <trkpt lat="47.4635" lon="6.67615">
        <ele>378</ele>
        <time>2016-04-24T06:58:37Z</time>
      </trkpt>
      <trkpt lat="47.46347" lon="6.67619">
        <ele>378</ele>
        <time>2016-04-24T06:58:38Z</time>
      </trkpt>
      <trkpt lat="47.46343" lon="6.67621">
        <ele>378</ele>
        <time>2016-04-24T06:58:39Z</time>
      </trkpt>
      <trkpt lat="47.4634" lon="6.67623">
        <ele>378</ele>
        <time>2016-04-24T06:58:40Z</time>
      </trkpt>
      <trkpt lat="47.46336" lon="6.67625">
        <ele>378</ele>
        <time>2016-04-24T06:58:41Z</time>
      </trkpt>
      <trkpt lat="47.46332" lon="6.67627">
        <ele>373</ele>
        <time>2016-04-24T06:58:42Z</time>
      </trkpt>
      <trkpt lat="47.46323" lon="6.67635">
        <ele>373</ele>
        <time>2016-04-24T06:58:43Z</time>
      </trkpt>
      <trkpt lat="47.46317" lon="6.6764">
        <ele>373</ele>
        <time>2016-04-24T06:58:44Z</time>
      </trkpt>
      <trkpt lat="47.46311" lon="6.67647">
        <ele>373</ele>
        <time>2016-04-24T06:58:45Z</time>
      </trkpt>
      <trkpt lat="47.46307" lon="6.67652">
        <ele>373</ele>
        <time>2016-04-24T06:58:46Z</time>
      </trkpt>
      <trkpt lat="47.46302" lon="6.67658">
        <ele>372</ele>
        <time>2016-04-24T06:58:47Z</time>
      </trkpt>
      <trkpt lat="47.46295" lon="6.67668">
        <ele>372</ele>
        <time>2016-04-24T06:58:48Z</time>
      </trkpt>
      <trkpt lat="47.46289" lon="6.67677">
        <ele>371</ele>
        <time>2016-04-24T06:58:49Z</time>
      </trkpt>
      <trkpt lat="47.46284" lon="6.67684">
        <ele>371</ele>
        <time>2016-04-24T06:58:50Z</time>
      </trkpt>
      <trkpt lat="47.4628" lon="6.67691">
        <ele>371</ele>
        <time>2016-04-24T06:58:51Z</time>
      </trkpt>
      <trkpt lat="47.46274" lon="6.67699">
        <ele>371</ele>
        <time>2016-04-24T06:58:52Z</time>
      </trkpt>
      <trkpt lat="47.46267" lon="6.67708">
        <ele>370</ele>
        <time>2016-04-24T06:58:53Z</time>
      </trkpt>
      <trkpt lat="47.46263" lon="6.67719">
        <ele>370</ele>
        <time>2016-04-24T06:58:54Z</time>
      </trkpt>
      <trkpt lat="47.46256" lon="6.67728">
        <ele>369</ele>
        <time>2016-04-24T06:58:55Z</time>
      </trkpt>
      <trkpt lat="47.4625" lon="6.67735">
        <ele>364</ele>
        <time>2016-04-24T06:58:56Z</time>
      </trkpt>
      <trkpt lat="47.46246" lon="6.67744">
        <ele>365</ele>
        <time>2016-04-24T06:58:57Z</time>
      </trkpt>
      <trkpt lat="47.46242" lon="6.67757">
        <ele>364</ele>
        <time>2016-04-24T06:58:58Z</time>
      </trkpt>
      <trkpt lat="47.46234" lon="6.67771">
        <ele>363</ele>
        <time>2016-04-24T06:58:59Z</time>
      </trkpt>
      <trkpt lat="47.46228" lon="6.67783">
        <ele>362</ele>
        <time>2016-04-24T06:59:00Z</time>
      </trkpt>
      <trkpt lat="47.46223" lon="6.6779">
        <ele>362</ele>
        <time>2016-04-24T06:59:01Z</time>
      </trkpt>
      <trkpt lat="47.46217" lon="6.67799">
        <ele>361</ele>
        <time>2016-04-24T06:59:02Z</time>
      </trkpt>
      <trkpt lat="47.46212" lon="6.67809">
        <ele>361</ele>
        <time>2016-04-24T06:59:03Z</time>
      </trkpt>
      <trkpt lat="47.46211" lon="6.67822">
        <ele>361</ele>
        <time>2016-04-24T06:59:04Z</time>
      </trkpt>
      <trkpt lat="47.4621" lon="6.67831">
        <ele>361</ele>
        <time>2016-04-24T06:59:05Z</time>
      </trkpt>
      <trkpt lat="47.46207" lon="6.67843">
        <ele>361</ele>
        <time>2016-04-24T06:59:06Z</time>
      </trkpt>
      <trkpt lat="47.46208" lon="6.67864">
        <ele>361</ele>
        <time>2016-04-24T06:59:07Z</time>
      </trkpt>
      <trkpt lat="47.46206" lon="6.67879">
        <ele>361</ele>
        <time>2016-04-24T06:59:08Z</time>
      </trkpt>
      <trkpt lat="47.46204" lon="6.67892">
        <ele>361</ele>
        <time>2016-04-24T06:59:09Z</time>
      </trkpt>
      <trkpt lat="47.46203" lon="6.67903">
        <ele>361</ele>
        <time>2016-04-24T06:59:10Z</time>
      </trkpt>
      <trkpt lat="47.46201" lon="6.67915">
        <ele>361</ele>
        <time>2016-04-24T06:59:11Z</time>
      </trkpt>
      <trkpt lat="47.462" lon="6.67929">
        <ele>359</ele>
        <time>2016-04-24T06:59:12Z</time>
      </trkpt>
      <trkpt lat="47.46202" lon="6.67939">
        <ele>359</ele>
        <time>2016-04-24T06:59:13Z</time>
      </trkpt>
      <trkpt lat="47.46203" lon="6.67952">
        <ele>359</ele>
        <time>2016-04-24T06:59:14Z</time>
      </trkpt>
      <trkpt lat="47.46205" lon="6.6796">
        <ele>359</ele>
        <time>2016-04-24T06:59:15Z</time>
      </trkpt>
      <trkpt lat="47.46207" lon="6.67973">
        <ele>359</ele>
        <time>2016-04-24T06:59:16Z</time>
      </trkpt>
      <trkpt lat="47.46211" lon="6.67988">
        <ele>359</ele>
        <time>2016-04-24T06:59:17Z</time>
      </trkpt>
      <trkpt lat="47.46215" lon="6.67998">
        <ele>359</ele>
        <time>2016-04-24T06:59:18Z</time>
      </trkpt>
      <trkpt lat="47.46222" lon="6.68011">
        <ele>354</ele>
        <time>2016-04-24T06:59:19Z</time>
      </trkpt>
      <trkpt lat="47.46232" lon="6.68028">
        <ele>353</ele>
        <time>2016-04-24T06:59:20Z</time>
      </trkpt>
      <trkpt lat="47.46247" lon="6.68029">
        <ele>354</ele>
        <time>2016-04-24T06:59:21Z</time>
      </trkpt>
      <trkpt lat="47.46254" lon="6.68034">
        <ele>350</ele>
        <time>2016-04-24T06:59:22Z</time>
      </trkpt>
      <trkpt lat="47.46258" lon="6.68036">
        <ele>350</ele>
        <time>2016-04-24T06:59:23Z</time>
      </trkpt>
      <trkpt lat="47.46258" lon="6.68037">
        <ele>350</ele>
        <time>2016-04-24T06:59:24Z</time>
      </trkpt>
      <trkpt lat="47.46258" lon="6.68039">
        <ele>349</ele>
        <time>2016-04-24T06:59:26Z</time>
      </trkpt>
      <trkpt lat="47.46253" lon="6.68042">
        <ele>349</ele>
        <time>2016-04-24T06:59:27Z</time>
      </trkpt>
      <trkpt lat="47.46251" lon="6.68044">
        <ele>349</ele>
        <time>2016-04-24T06:59:28Z</time>
      </trkpt>
      <trkpt lat="47.46248" lon="6.68048">
        <ele>351</ele>
        <time>2016-04-24T06:59:29Z</time>
      </trkpt>
      <trkpt lat="47.46244" lon="6.68051">
        <ele>351</ele>
        <time>2016-04-24T06:59:30Z</time>
      </trkpt>
      <trkpt lat="47.46238" lon="6.68055">
        <ele>351</ele>
        <time>2016-04-24T06:59:31Z</time>
      </trkpt>
      <trkpt lat="47.46233" lon="6.68059">
        <ele>350</ele>
        <time>2016-04-24T06:59:32Z</time>
      </trkpt>
      <trkpt lat="47.46226" lon="6.68063">
        <ele>350</ele>
        <time>2016-04-24T06:59:33Z</time>
      </trkpt>
      <trkpt lat="47.46217" lon="6.68068">
        <ele>350</ele>
        <time>2016-04-24T06:59:34Z</time>
      </trkpt>
      <trkpt lat="47.46209" lon="6.68073">
        <ele>350</ele>
        <time>2016-04-24T06:59:35Z</time>
      </trkpt>
      <trkpt lat="47.46199" lon="6.68076">
        <ele>349</ele>
        <time>2016-04-24T06:59:36Z</time>
      </trkpt>
      <trkpt lat="47.4619" lon="6.68081">
        <ele>349</ele>
        <time>2016-04-24T06:59:37Z</time>
      </trkpt>
      <trkpt lat="47.46186" lon="6.68082">
        <ele>349</ele>
        <time>2016-04-24T06:59:38Z</time>
      </trkpt>
      <trkpt lat="47.46177" lon="6.68083">
        <ele>348</ele>
        <time>2016-04-24T06:59:39Z</time>
      </trkpt>
      <trkpt lat="47.4617" lon="6.68084">
        <ele>345</ele>
        <time>2016-04-24T06:59:40Z</time>
      </trkpt>
      <trkpt lat="47.46165" lon="6.68084">
        <ele>345</ele>
        <time>2016-04-24T06:59:41Z</time>
      </trkpt>
      <trkpt lat="47.46157" lon="6.68082">
        <ele>346</ele>
        <time>2016-04-24T06:59:42Z</time>
      </trkpt>
      <trkpt lat="47.46151" lon="6.68082">
        <ele>346</ele>
        <time>2016-04-24T06:59:43Z</time>
      </trkpt>
      <trkpt lat="47.46145" lon="6.68085">
        <ele>340</ele>
        <time>2016-04-24T06:59:44Z</time>
      </trkpt>
      <trkpt lat="47.46138" lon="6.68085">
        <ele>339</ele>
        <time>2016-04-24T06:59:45Z</time>
      </trkpt>
      <trkpt lat="47.4613" lon="6.68085">
        <ele>339</ele>
        <time>2016-04-24T06:59:46Z</time>
      </trkpt>
      <trkpt lat="47.46122" lon="6.68084">
        <ele>338</ele>
        <time>2016-04-24T06:59:47Z</time>
      </trkpt>
      <trkpt lat="47.46111" lon="6.68083">
        <ele>345</ele>
        <time>2016-04-24T06:59:48Z</time>
      </trkpt>
      <trkpt lat="47.46105" lon="6.68085">
        <ele>339</ele>
        <time>2016-04-24T06:59:49Z</time>
      </trkpt>
      <trkpt lat="47.46097" lon="6.68082">
        <ele>345</ele>
        <time>2016-04-24T06:59:50Z</time>
      </trkpt>
      <trkpt lat="47.46092" lon="6.6808">
        <ele>344</ele>
        <time>2016-04-24T06:59:51Z</time>
      </trkpt>
      <trkpt lat="47.46088" lon="6.68072">
        <ele>344</ele>
        <time>2016-04-24T06:59:52Z</time>
      </trkpt>
      <trkpt lat="47.46083" lon="6.68068">
        <ele>341</ele>
        <time>2016-04-24T06:59:53Z</time>
      </trkpt>
      <trkpt lat="47.46077" lon="6.68067">
        <ele>341</ele>
        <time>2016-04-24T06:59:54Z</time>
      </trkpt>
      <trkpt lat="47.46074" lon="6.68065">
        <ele>341</ele>
        <time>2016-04-24T06:59:55Z</time>
      </trkpt>
      <trkpt lat="47.46071" lon="6.68061">
        <ele>341</ele>
        <time>2016-04-24T06:59:56Z</time>
      </trkpt>
      <trkpt lat="47.4607" lon="6.68055">
        <ele>341</ele>
        <time>2016-04-24T06:59:57Z</time>
      </trkpt>
      <trkpt lat="47.46068" lon="6.68049">
        <ele>340</ele>
        <time>2016-04-24T06:59:58Z</time>
      </trkpt>
      <trkpt lat="47.46064" lon="6.68042">
        <ele>340</ele>
        <time>2016-04-24T06:59:59Z</time>
      </trkpt>
      <trkpt lat="47.46059" lon="6.68034">
        <ele>340</ele>
        <time>2016-04-24T07:00:00Z</time>
      </trkpt>
      <trkpt lat="47.46053" lon="6.68025">
        <ele>340</ele>
        <time>2016-04-24T07:00:01Z</time>
      </trkpt>
      <trkpt lat="47.46047" lon="6.68015">
        <ele>340</ele>
        <time>2016-04-24T07:00:02Z</time>
      </trkpt>
      <trkpt lat="47.46043" lon="6.68005">
        <ele>339</ele>
        <time>2016-04-24T07:00:03Z</time>
      </trkpt>
      <trkpt lat="47.4604" lon="6.67997">
        <ele>338</ele>
        <time>2016-04-24T07:00:04Z</time>
      </trkpt>
      <trkpt lat="47.46036" lon="6.6799">
        <ele>338</ele>
        <time>2016-04-24T07:00:05Z</time>
      </trkpt>
      <trkpt lat="47.46032" lon="6.67983">
        <ele>337</ele>
        <time>2016-04-24T07:00:06Z</time>
      </trkpt>
      <trkpt lat="47.46027" lon="6.67974">
        <ele>337</ele>
        <time>2016-04-24T07:00:07Z</time>
      </trkpt>
      <trkpt lat="47.46022" lon="6.67966">
        <ele>336</ele>
        <time>2016-04-24T07:00:08Z</time>
      </trkpt>
      <trkpt lat="47.46016" lon="6.6796">
        <ele>336</ele>
        <time>2016-04-24T07:00:09Z</time>
      </trkpt>
      <trkpt lat="47.4601" lon="6.67955">
        <ele>336</ele>
        <time>2016-04-24T07:00:10Z</time>
      </trkpt>
      <trkpt lat="47.46005" lon="6.6795">
        <ele>335</ele>
        <time>2016-04-24T07:00:11Z</time>
      </trkpt>
      <trkpt lat="47.46001" lon="6.67946">
        <ele>335</ele>
        <time>2016-04-24T07:00:12Z</time>
      </trkpt>
      <trkpt lat="47.45996" lon="6.67942">
        <ele>330</ele>
        <time>2016-04-24T07:00:13Z</time>
      </trkpt>
      <trkpt lat="47.45992" lon="6.67938">
        <ele>330</ele>
        <time>2016-04-24T07:00:14Z</time>
      </trkpt>
      <trkpt lat="47.45988" lon="6.67935">
        <ele>330</ele>
        <time>2016-04-24T07:00:15Z</time>
      </trkpt>
      <trkpt lat="47.45985" lon="6.67932">
        <ele>330</ele>
        <time>2016-04-24T07:00:16Z</time>
      </trkpt>
      <trkpt lat="47.45982" lon="6.67929">
        <ele>330</ele>
        <time>2016-04-24T07:00:17Z</time>
      </trkpt>
      <trkpt lat="47.45979" lon="6.67926">
        <ele>330</ele>
        <time>2016-04-24T07:00:18Z</time>
      </trkpt>
      <trkpt lat="47.45975" lon="6.67923">
        <ele>330</ele>
        <time>2016-04-24T07:00:19Z</time>
      </trkpt>
      <trkpt lat="47.45973" lon="6.6792">
        <ele>330</ele>
        <time>2016-04-24T07:00:20Z</time>
      </trkpt>
      <trkpt lat="47.45971" lon="6.67918">
        <ele>330</ele>
        <time>2016-04-24T07:00:21Z</time>
      </trkpt>
      <trkpt lat="47.45968" lon="6.67916">
        <ele>330</ele>
        <time>2016-04-24T07:00:22Z</time>
      </trkpt>
      <trkpt lat="47.45965" lon="6.67913">
        <ele>330</ele>
        <time>2016-04-24T07:00:23Z</time>
      </trkpt>
      <trkpt lat="47.45963" lon="6.6791">
        <ele>330</ele>
        <time>2016-04-24T07:00:24Z</time>
      </trkpt>
      <trkpt lat="47.4596" lon="6.67908">
        <ele>330</ele>
        <time>2016-04-24T07:00:25Z</time>
      </trkpt>
      <trkpt lat="47.45958" lon="6.67904">
        <ele>330</ele>
        <time>2016-04-24T07:00:26Z</time>
      </trkpt>
      <trkpt lat="47.45956" lon="6.67901">
        <ele>330</ele>
        <time>2016-04-24T07:00:27Z</time>
      </trkpt>
      <trkpt lat="47.45953" lon="6.67898">
        <ele>330</ele>
        <time>2016-04-24T07:00:28Z</time>
      </trkpt>
      <trkpt lat="47.45951" lon="6.67894">
        <ele>330</ele>
        <time>2016-04-24T07:00:29Z</time>
      </trkpt>
      <trkpt lat="47.45948" lon="6.6789">
        <ele>330</ele>
        <time>2016-04-24T07:00:30Z</time>
      </trkpt>
      <trkpt lat="47.45945" lon="6.67887">
        <ele>330</ele>
        <time>2016-04-24T07:00:31Z</time>
      </trkpt>
      <trkpt lat="47.45942" lon="6.67883">
        <ele>330</ele>
        <time>2016-04-24T07:00:32Z</time>
      </trkpt>
      <trkpt lat="47.45939" lon="6.67879">
        <ele>330</ele>
        <time>2016-04-24T07:00:33Z</time>
      </trkpt>
      <trkpt lat="47.45936" lon="6.67876">
        <ele>330</ele>
        <time>2016-04-24T07:00:34Z</time>
      </trkpt>
      <trkpt lat="47.45933" lon="6.67872">
        <ele>331</ele>
        <time>2016-04-24T07:00:35Z</time>
      </trkpt>
      <trkpt lat="47.4593" lon="6.67868">
        <ele>331</ele>
        <time>2016-04-24T07:00:36Z</time>
      </trkpt>
      <trkpt lat="47.45927" lon="6.67864">
        <ele>331</ele>
        <time>2016-04-24T07:00:37Z</time>
      </trkpt>
      <trkpt lat="47.45925" lon="6.6786">
        <ele>331</ele>
        <time>2016-04-24T07:00:38Z</time>
      </trkpt>
      <trkpt lat="47.45922" lon="6.67857">
        <ele>331</ele>
        <time>2016-04-24T07:00:39Z</time>
      </trkpt>
      <trkpt lat="47.4592" lon="6.67853">
        <ele>331</ele>
        <time>2016-04-24T07:00:40Z</time>
      </trkpt>
      <trkpt lat="47.45918" lon="6.67849">
        <ele>331</ele>
        <time>2016-04-24T07:00:41Z</time>
      </trkpt>
      <trkpt lat="47.45915" lon="6.67846">
        <ele>332</ele>
        <time>2016-04-24T07:00:42Z</time>
      </trkpt>
      <trkpt lat="47.45912" lon="6.67842">
        <ele>332</ele>
        <time>2016-04-24T07:00:43Z</time>
      </trkpt>
      <trkpt lat="47.45908" lon="6.67838">
        <ele>332</ele>
        <time>2016-04-24T07:00:44Z</time>
      </trkpt>
      <trkpt lat="47.45904" lon="6.67834">
        <ele>333</ele>
        <time>2016-04-24T07:00:45Z</time>
      </trkpt>
      <trkpt lat="47.45901" lon="6.6783">
        <ele>336</ele>
        <time>2016-04-24T07:00:46Z</time>
      </trkpt>
      <trkpt lat="47.45896" lon="6.67825">
        <ele>337</ele>
        <time>2016-04-24T07:00:47Z</time>
      </trkpt>
      <trkpt lat="47.45892" lon="6.67819">
        <ele>338</ele>
        <time>2016-04-24T07:00:48Z</time>
      </trkpt>
      <trkpt lat="47.45889" lon="6.67815">
        <ele>339</ele>
        <time>2016-04-24T07:00:49Z</time>
      </trkpt>
      <trkpt lat="47.45887" lon="6.6781">
        <ele>339</ele>
        <time>2016-04-24T07:00:50Z</time>
      </trkpt>
      <trkpt lat="47.45884" lon="6.67805">
        <ele>340</ele>
        <time>2016-04-24T07:00:51Z</time>
      </trkpt>
      <trkpt lat="47.45881" lon="6.67801">
        <ele>340</ele>
        <time>2016-04-24T07:00:52Z</time>
      </trkpt>
      <trkpt lat="47.45879" lon="6.67797">
        <ele>340</ele>
        <time>2016-04-24T07:00:53Z</time>
      </trkpt>
      <trkpt lat="47.45877" lon="6.67793">
        <ele>341</ele>
        <time>2016-04-24T07:00:54Z</time>
      </trkpt>
      <trkpt lat="47.45876" lon="6.67789">
        <ele>341</ele>
        <time>2016-04-24T07:00:55Z</time>
      </trkpt>
      <trkpt lat="47.45873" lon="6.67785">
        <ele>341</ele>
        <time>2016-04-24T07:00:56Z</time>
      </trkpt>
      <trkpt lat="47.45871" lon="6.6778">
        <ele>342</ele>
        <time>2016-04-24T07:00:58Z</time>
      </trkpt>
      <trkpt lat="47.45869" lon="6.67777">
        <ele>342</ele>
        <time>2016-04-24T07:00:59Z</time>
      </trkpt>
      <trkpt lat="47.45868" lon="6.67772">
        <ele>343</ele>
        <time>2016-04-24T07:01:01Z</time>
      </trkpt>
      <trkpt lat="47.45867" lon="6.6777">
        <ele>343</ele>
        <time>2016-04-24T07:01:02Z</time>
      </trkpt>
      <trkpt lat="47.45867" lon="6.67763">
        <ele>343</ele>
        <time>2016-04-24T07:01:06Z</time>
      </trkpt>
      <trkpt lat="47.45867" lon="6.67761">
        <ele>343</ele>
        <time>2016-04-24T07:01:07Z</time>
      </trkpt>
      <trkpt lat="47.45868" lon="6.67755">
        <ele>343</ele>
        <time>2016-04-24T07:01:11Z</time>
      </trkpt>
      <trkpt lat="47.45867" lon="6.67753">
        <ele>343</ele>
        <time>2016-04-24T07:01:12Z</time>
      </trkpt>
      <trkpt lat="47.45864" lon="6.67748">
        <ele>349</ele>
        <time>2016-04-24T07:01:15Z</time>
      </trkpt>
      <trkpt lat="47.45863" lon="6.67747">
        <ele>349</ele>
        <time>2016-04-24T07:01:16Z</time>
      </trkpt>
      <trkpt lat="47.45861" lon="6.67742">
        <ele>349</ele>
        <time>2016-04-24T07:01:19Z</time>
      </trkpt>
      <trkpt lat="47.4586" lon="6.6774">
        <ele>350</ele>
        <time>2016-04-24T07:01:20Z</time>
      </trkpt>
      <trkpt lat="47.45858" lon="6.67735">
        <ele>350</ele>
        <time>2016-04-24T07:01:22Z</time>
      </trkpt>
      <trkpt lat="47.45857" lon="6.67733">
        <ele>350</ele>
        <time>2016-04-24T07:01:23Z</time>
      </trkpt>
      <trkpt lat="47.45854" lon="6.67729">
        <ele>350</ele>
        <time>2016-04-24T07:01:28Z</time>
      </trkpt>
      <trkpt lat="47.45854" lon="6.67728">
        <ele>350</ele>
        <time>2016-04-24T07:01:29Z</time>
      </trkpt>
      <trkpt lat="47.45851" lon="6.67723">
        <ele>350</ele>
        <time>2016-04-24T07:01:32Z</time>
      </trkpt>
      <trkpt lat="47.4585" lon="6.6772">
        <ele>350</ele>
        <time>2016-04-24T07:01:33Z</time>
      </trkpt>
      <trkpt lat="47.45849" lon="6.67714">
        <ele>351</ele>
        <time>2016-04-24T07:01:36Z</time>
      </trkpt>
      <trkpt lat="47.45849" lon="6.67712">
        <ele>351</ele>
        <time>2016-04-24T07:01:37Z</time>
      </trkpt>
      <trkpt lat="47.45847" lon="6.67707">
        <ele>351</ele>
        <time>2016-04-24T07:01:40Z</time>
      </trkpt>
      <trkpt lat="47.45846" lon="6.67705">
        <ele>351</ele>
        <time>2016-04-24T07:01:41Z</time>
      </trkpt>
      <trkpt lat="47.45843" lon="6.67701">
        <ele>352</ele>
        <time>2016-04-24T07:01:43Z</time>
      </trkpt>
      <trkpt lat="47.45841" lon="6.67699">
        <ele>352</ele>
        <time>2016-04-24T07:01:44Z</time>
      </trkpt>
      <trkpt lat="47.45838" lon="6.67695">
        <ele>352</ele>
        <time>2016-04-24T07:01:46Z</time>
      </trkpt>
      <trkpt lat="47.45837" lon="6.67692">
        <ele>353</ele>
        <time>2016-04-24T07:01:47Z</time>
      </trkpt>
      <trkpt lat="47.45836" lon="6.67687">
        <ele>353</ele>
        <time>2016-04-24T07:01:49Z</time>
      </trkpt>
      <trkpt lat="47.45835" lon="6.67684">
        <ele>354</ele>
        <time>2016-04-24T07:01:50Z</time>
      </trkpt>
      <trkpt lat="47.45832" lon="6.6768">
        <ele>356</ele>
        <time>2016-04-24T07:01:52Z</time>
      </trkpt>
      <trkpt lat="47.4583" lon="6.67677">
        <ele>356</ele>
        <time>2016-04-24T07:01:53Z</time>
      </trkpt>
      <trkpt lat="47.45828" lon="6.67675">
        <ele>356</ele>
        <time>2016-04-24T07:01:54Z</time>
      </trkpt>
      <trkpt lat="47.45826" lon="6.67672">
        <ele>356</ele>
        <time>2016-04-24T07:01:55Z</time>
      </trkpt>
      <trkpt lat="47.45824" lon="6.67669">
        <ele>356</ele>
        <time>2016-04-24T07:01:56Z</time>
      </trkpt>
      <trkpt lat="47.45823" lon="6.67666">
        <ele>357</ele>
        <time>2016-04-24T07:01:57Z</time>
      </trkpt>
      <trkpt lat="47.45821" lon="6.67663">
        <ele>357</ele>
        <time>2016-04-24T07:01:58Z</time>
      </trkpt>
      <trkpt lat="47.45819" lon="6.67661">
        <ele>357</ele>
        <time>2016-04-24T07:01:59Z</time>
      </trkpt>
      <trkpt lat="47.45818" lon="6.67658">
        <ele>357</ele>
        <time>2016-04-24T07:02:00Z</time>
      </trkpt>
      <trkpt lat="47.45815" lon="6.67656">
        <ele>357</ele>
        <time>2016-04-24T07:02:01Z</time>
      </trkpt>
      <trkpt lat="47.45812" lon="6.67654">
        <ele>357</ele>
        <time>2016-04-24T07:02:02Z</time>
      </trkpt>
      <trkpt lat="47.45809" lon="6.67652">
        <ele>357</ele>
        <time>2016-04-24T07:02:03Z</time>
      </trkpt>
      <trkpt lat="47.45807" lon="6.67649">
        <ele>357</ele>
        <time>2016-04-24T07:02:04Z</time>
      </trkpt>
      <trkpt lat="47.45805" lon="6.67647">
        <ele>357</ele>
        <time>2016-04-24T07:02:05Z</time>
      </trkpt>
      <trkpt lat="47.45803" lon="6.67646">
        <ele>357</ele>
        <time>2016-04-24T07:02:06Z</time>
      </trkpt>
      <trkpt lat="47.45801" lon="6.67643">
        <ele>357</ele>
        <time>2016-04-24T07:02:07Z</time>
      </trkpt>
      <trkpt lat="47.45798" lon="6.67641">
        <ele>357</ele>
        <time>2016-04-24T07:02:08Z</time>
      </trkpt>
      <trkpt lat="47.45796" lon="6.6764">
        <ele>357</ele>
        <time>2016-04-24T07:02:09Z</time>
      </trkpt>
      <trkpt lat="47.45792" lon="6.67638">
        <ele>357</ele>
        <time>2016-04-24T07:02:11Z</time>
      </trkpt>
      <trkpt lat="47.45791" lon="6.67637">
        <ele>357</ele>
        <time>2016-04-24T07:02:12Z</time>
      </trkpt>
      <trkpt lat="47.45788" lon="6.67634">
        <ele>357</ele>
        <time>2016-04-24T07:02:14Z</time>
      </trkpt>
      <trkpt lat="47.45785" lon="6.67632">
        <ele>357</ele>
        <time>2016-04-24T07:02:15Z</time>
      </trkpt>
      <trkpt lat="47.45783" lon="6.6763">
        <ele>357</ele>
        <time>2016-04-24T07:02:16Z</time>
      </trkpt>
      <trkpt lat="47.45781" lon="6.67629">
        <ele>357</ele>
        <time>2016-04-24T07:02:17Z</time>
      </trkpt>
      <trkpt lat="47.45778" lon="6.67626">
        <ele>357</ele>
        <time>2016-04-24T07:02:19Z</time>
      </trkpt>
      <trkpt lat="47.45776" lon="6.67625">
        <ele>357</ele>
        <time>2016-04-24T07:02:20Z</time>
      </trkpt>
      <trkpt lat="47.45773" lon="6.67623">
        <ele>357</ele>
        <time>2016-04-24T07:02:22Z</time>
      </trkpt>
      <trkpt lat="47.45771" lon="6.67622">
        <ele>357</ele>
        <time>2016-04-24T07:02:23Z</time>
      </trkpt>
      <trkpt lat="47.45768" lon="6.6762">
        <ele>357</ele>
        <time>2016-04-24T07:02:25Z</time>
      </trkpt>
      <trkpt lat="47.45767" lon="6.67619">
        <ele>357</ele>
        <time>2016-04-24T07:02:26Z</time>
      </trkpt>
      <trkpt lat="47.45764" lon="6.67616">
        <ele>357</ele>
        <time>2016-04-24T07:02:28Z</time>
      </trkpt>
      <trkpt lat="47.45762" lon="6.67614">
        <ele>357</ele>
        <time>2016-04-24T07:02:29Z</time>
      </trkpt>
      <trkpt lat="47.45759" lon="6.67611">
        <ele>357</ele>
        <time>2016-04-24T07:02:31Z</time>
      </trkpt>
      <trkpt lat="47.45758" lon="6.67609">
        <ele>357</ele>
        <time>2016-04-24T07:02:32Z</time>
      </trkpt>
      <trkpt lat="47.45756" lon="6.67606">
        <ele>357</ele>
        <time>2016-04-24T07:02:34Z</time>
      </trkpt>
      <trkpt lat="47.45754" lon="6.67604">
        <ele>357</ele>
        <time>2016-04-24T07:02:35Z</time>
      </trkpt>
      <trkpt lat="47.45753" lon="6.676">
        <ele>356</ele>
        <time>2016-04-24T07:02:37Z</time>
      </trkpt>
      <trkpt lat="47.45752" lon="6.67598">
        <ele>356</ele>
        <time>2016-04-24T07:02:38Z</time>
      </trkpt>
      <trkpt lat="47.45753" lon="6.67591">
        <ele>356</ele>
        <time>2016-04-24T07:02:42Z</time>
      </trkpt>
      <trkpt lat="47.45753" lon="6.67588">
        <ele>356</ele>
        <time>2016-04-24T07:02:43Z</time>
      </trkpt>
      <trkpt lat="47.45752" lon="6.67585">
        <ele>356</ele>
        <time>2016-04-24T07:02:44Z</time>
      </trkpt>
      <trkpt lat="47.45752" lon="6.67581">
        <ele>356</ele>
        <time>2016-04-24T07:02:45Z</time>
      </trkpt>
      <trkpt lat="47.45751" lon="6.67577">
        <ele>356</ele>
        <time>2016-04-24T07:02:46Z</time>
      </trkpt>
      <trkpt lat="47.4575" lon="6.67573">
        <ele>357</ele>
        <time>2016-04-24T07:02:47Z</time>
      </trkpt>
      <trkpt lat="47.45749" lon="6.67569">
        <ele>355</ele>
        <time>2016-04-24T07:02:48Z</time>
      </trkpt>
      <trkpt lat="47.45748" lon="6.67564">
        <ele>355</ele>
        <time>2016-04-24T07:02:49Z</time>
      </trkpt>
      <trkpt lat="47.45747" lon="6.6756">
        <ele>355</ele>
        <time>2016-04-24T07:02:50Z</time>
      </trkpt>
      <trkpt lat="47.45746" lon="6.67555">
        <ele>355</ele>
        <time>2016-04-24T07:02:51Z</time>
      </trkpt>
      <trkpt lat="47.45745" lon="6.67551">
        <ele>355</ele>
        <time>2016-04-24T07:02:52Z</time>
      </trkpt>
      <trkpt lat="47.45744" lon="6.67547">
        <ele>355</ele>
        <time>2016-04-24T07:02:53Z</time>
      </trkpt>
      <trkpt lat="47.45743" lon="6.67543">
        <ele>355</ele>
        <time>2016-04-24T07:02:54Z</time>
      </trkpt>
      <trkpt lat="47.45741" lon="6.67539">
        <ele>355</ele>
        <time>2016-04-24T07:02:55Z</time>
      </trkpt>
      <trkpt lat="47.4574" lon="6.67535">
        <ele>355</ele>
        <time>2016-04-24T07:02:56Z</time>
      </trkpt>
      <trkpt lat="47.45739" lon="6.67531">
        <ele>355</ele>
        <time>2016-04-24T07:02:57Z</time>
      </trkpt>
      <trkpt lat="47.45737" lon="6.67527">
        <ele>355</ele>
        <time>2016-04-24T07:02:58Z</time>
      </trkpt>
      <trkpt lat="47.45736" lon="6.67523">
        <ele>355</ele>
        <time>2016-04-24T07:02:59Z</time>
      </trkpt>
      <trkpt lat="47.45735" lon="6.67519">
        <ele>355</ele>
        <time>2016-04-24T07:03:00Z</time>
      </trkpt>
      <trkpt lat="47.45734" lon="6.67515">
        <ele>355</ele>
        <time>2016-04-24T07:03:01Z</time>
      </trkpt>
      <trkpt lat="47.45733" lon="6.67511">
        <ele>355</ele>
        <time>2016-04-24T07:03:02Z</time>
      </trkpt>
      <trkpt lat="47.45731" lon="6.67507">
        <ele>355</ele>
        <time>2016-04-24T07:03:03Z</time>
      </trkpt>
      <trkpt lat="47.4573" lon="6.67503">
        <ele>355</ele>
        <time>2016-04-24T07:03:04Z</time>
      </trkpt>
      <trkpt lat="47.45729" lon="6.67499">
        <ele>355</ele>
        <time>2016-04-24T07:03:05Z</time>
      </trkpt>
      <trkpt lat="47.45728" lon="6.67495">
        <ele>355</ele>
        <time>2016-04-24T07:03:06Z</time>
      </trkpt>
      <trkpt lat="47.45727" lon="6.67491">
        <ele>355</ele>
        <time>2016-04-24T07:03:07Z</time>
      </trkpt>
      <trkpt lat="47.45726" lon="6.67488">
        <ele>355</ele>
        <time>2016-04-24T07:03:08Z</time>
      </trkpt>
      <trkpt lat="47.45724" lon="6.67484">
        <ele>355</ele>
        <time>2016-04-24T07:03:09Z</time>
      </trkpt>
      <trkpt lat="47.45723" lon="6.67479">
        <ele>355</ele>
        <time>2016-04-24T07:03:10Z</time>
      </trkpt>
      <trkpt lat="47.45721" lon="6.67475">
        <ele>355</ele>
        <time>2016-04-24T07:03:11Z</time>
      </trkpt>
      <trkpt lat="47.45719" lon="6.6747">
        <ele>355</ele>
        <time>2016-04-24T07:03:12Z</time>
      </trkpt>
      <trkpt lat="47.45717" lon="6.67465">
        <ele>355</ele>
        <time>2016-04-24T07:03:13Z</time>
      </trkpt>
      <trkpt lat="47.45715" lon="6.67461">
        <ele>355</ele>
        <time>2016-04-24T07:03:14Z</time>
      </trkpt>
      <trkpt lat="47.45713" lon="6.67456">
        <ele>355</ele>
        <time>2016-04-24T07:03:15Z</time>
      </trkpt>
      <trkpt lat="47.45711" lon="6.67451">
        <ele>355</ele>
        <time>2016-04-24T07:03:16Z</time>
      </trkpt>
      <trkpt lat="47.45709" lon="6.67446">
        <ele>355</ele>
        <time>2016-04-24T07:03:17Z</time>
      </trkpt>
      <trkpt lat="47.45707" lon="6.67441">
        <ele>355</ele>
        <time>2016-04-24T07:03:18Z</time>
      </trkpt>
      <trkpt lat="47.45705" lon="6.67435">
        <ele>355</ele>
        <time>2016-04-24T07:03:19Z</time>
      </trkpt>
      <trkpt lat="47.45702" lon="6.67429">
        <ele>355</ele>
        <time>2016-04-24T07:03:20Z</time>
      </trkpt>
      <trkpt lat="47.457" lon="6.67423">
        <ele>355</ele>
        <time>2016-04-24T07:03:21Z</time>
      </trkpt>
      <trkpt lat="47.45698" lon="6.67417">
        <ele>355</ele>
        <time>2016-04-24T07:03:22Z</time>
      </trkpt>
      <trkpt lat="47.45696" lon="6.67411">
        <ele>356</ele>
        <time>2016-04-24T07:03:23Z</time>
      </trkpt>
      <trkpt lat="47.45694" lon="6.67405">
        <ele>356</ele>
        <time>2016-04-24T07:03:24Z</time>
      </trkpt>
      <trkpt lat="47.45693" lon="6.67399">
        <ele>356</ele>
        <time>2016-04-24T07:03:25Z</time>
      </trkpt>
      <trkpt lat="47.45691" lon="6.67393">
        <ele>356</ele>
        <time>2016-04-24T07:03:26Z</time>
      </trkpt>
      <trkpt lat="47.45689" lon="6.67387">
        <ele>356</ele>
        <time>2016-04-24T07:03:27Z</time>
      </trkpt>
      <trkpt lat="47.45687" lon="6.67381">
        <ele>356</ele>
        <time>2016-04-24T07:03:28Z</time>
      </trkpt>
      <trkpt lat="47.45683" lon="6.67373">
        <ele>356</ele>
        <time>2016-04-24T07:03:29Z</time>
      </trkpt>
      <trkpt lat="47.45681" lon="6.67366">
        <ele>356</ele>
        <time>2016-04-24T07:03:30Z</time>
      </trkpt>
      <trkpt lat="47.45679" lon="6.6736">
        <ele>356</ele>
        <time>2016-04-24T07:03:31Z</time>
      </trkpt>
      <trkpt lat="47.45677" lon="6.67353">
        <ele>356</ele>
        <time>2016-04-24T07:03:32Z</time>
      </trkpt>
      <trkpt lat="47.45676" lon="6.67347">
        <ele>356</ele>
        <time>2016-04-24T07:03:33Z</time>
      </trkpt>
      <trkpt lat="47.45674" lon="6.6734">
        <ele>356</ele>
        <time>2016-04-24T07:03:34Z</time>
      </trkpt>
      <trkpt lat="47.45672" lon="6.67334">
        <ele>356</ele>
        <time>2016-04-24T07:03:35Z</time>
      </trkpt>
      <trkpt lat="47.4567" lon="6.67327">
        <ele>356</ele>
        <time>2016-04-24T07:03:36Z</time>
      </trkpt>
      <trkpt lat="47.45668" lon="6.67321">
        <ele>356</ele>
        <time>2016-04-24T07:03:37Z</time>
      </trkpt>
      <trkpt lat="47.45667" lon="6.67315">
        <ele>354</ele>
        <time>2016-04-24T07:03:38Z</time>
      </trkpt>
      <trkpt lat="47.45665" lon="6.67308">
        <ele>354</ele>
        <time>2016-04-24T07:03:39Z</time>
      </trkpt>
      <trkpt lat="47.45663" lon="6.67301">
        <ele>353</ele>
        <time>2016-04-24T07:03:40Z</time>
      </trkpt>
      <trkpt lat="47.45661" lon="6.67294">
        <ele>353</ele>
        <time>2016-04-24T07:03:41Z</time>
      </trkpt>
      <trkpt lat="47.45659" lon="6.67287">
        <ele>353</ele>
        <time>2016-04-24T07:03:42Z</time>
      </trkpt>
      <trkpt lat="47.45656" lon="6.67279">
        <ele>353</ele>
        <time>2016-04-24T07:03:43Z</time>
      </trkpt>
      <trkpt lat="47.45654" lon="6.67271">
        <ele>353</ele>
        <time>2016-04-24T07:03:44Z</time>
      </trkpt>
      <trkpt lat="47.45651" lon="6.67263">
        <ele>353</ele>
        <time>2016-04-24T07:03:45Z</time>
      </trkpt>
      <trkpt lat="47.45649" lon="6.67255">
        <ele>352</ele>
        <time>2016-04-24T07:03:46Z</time>
      </trkpt>
      <trkpt lat="47.45646" lon="6.67247">
        <ele>352</ele>
        <time>2016-04-24T07:03:47Z</time>
      </trkpt>
      <trkpt lat="47.45643" lon="6.67238">
        <ele>352</ele>
        <time>2016-04-24T07:03:48Z</time>
      </trkpt>
      <trkpt lat="47.45641" lon="6.6723">
        <ele>352</ele>
        <time>2016-04-24T07:03:49Z</time>
      </trkpt>
      <trkpt lat="47.45638" lon="6.67221">
        <ele>352</ele>
        <time>2016-04-24T07:03:50Z</time>
      </trkpt>
      <trkpt lat="47.45635" lon="6.67211">
        <ele>352</ele>
        <time>2016-04-24T07:03:51Z</time>
      </trkpt>
      <trkpt lat="47.45633" lon="6.67203">
        <ele>352</ele>
        <time>2016-04-24T07:03:52Z</time>
      </trkpt>
      <trkpt lat="47.4563" lon="6.67193">
        <ele>352</ele>
        <time>2016-04-24T07:03:53Z</time>
      </trkpt>
      <trkpt lat="47.45627" lon="6.67183">
        <ele>351</ele>
        <time>2016-04-24T07:03:54Z</time>
      </trkpt>
      <trkpt lat="47.45624" lon="6.67174">
        <ele>352</ele>
        <time>2016-04-24T07:03:55Z</time>
      </trkpt>
      <trkpt lat="47.45622" lon="6.67164">
        <ele>350</ele>
        <time>2016-04-24T07:03:56Z</time>
      </trkpt>
      <trkpt lat="47.45618" lon="6.67154">
        <ele>350</ele>
        <time>2016-04-24T07:03:57Z</time>
      </trkpt>
      <trkpt lat="47.45616" lon="6.67145">
        <ele>350</ele>
        <time>2016-04-24T07:03:58Z</time>
      </trkpt>
      <trkpt lat="47.45613" lon="6.67134">
        <ele>350</ele>
        <time>2016-04-24T07:03:59Z</time>
      </trkpt>
      <trkpt lat="47.45611" lon="6.67123">
        <ele>350</ele>
        <time>2016-04-24T07:04:00Z</time>
      </trkpt>
      <trkpt lat="47.45608" lon="6.67112">
        <ele>349</ele>
        <time>2016-04-24T07:04:01Z</time>
      </trkpt>
      <trkpt lat="47.45605" lon="6.67101">
        <ele>349</ele>
        <time>2016-04-24T07:04:02Z</time>
      </trkpt>
      <trkpt lat="47.45601" lon="6.6709">
        <ele>348</ele>
        <time>2016-04-24T07:04:03Z</time>
      </trkpt>
      <trkpt lat="47.45597" lon="6.67078">
        <ele>347</ele>
        <time>2016-04-24T07:04:04Z</time>
      </trkpt>
      <trkpt lat="47.45593" lon="6.67067">
        <ele>347</ele>
        <time>2016-04-24T07:04:05Z</time>
      </trkpt>
      <trkpt lat="47.45589" lon="6.67055">
        <ele>347</ele>
        <time>2016-04-24T07:04:06Z</time>
      </trkpt>
      <trkpt lat="47.45587" lon="6.67044">
        <ele>347</ele>
        <time>2016-04-24T07:04:07Z</time>
      </trkpt>
      <trkpt lat="47.45584" lon="6.67033">
        <ele>347</ele>
        <time>2016-04-24T07:04:08Z</time>
      </trkpt>
      <trkpt lat="47.45583" lon="6.67024">
        <ele>345</ele>
        <time>2016-04-24T07:04:09Z</time>
      </trkpt>
      <trkpt lat="47.4558" lon="6.67015">
        <ele>345</ele>
        <time>2016-04-24T07:04:10Z</time>
      </trkpt>
      <trkpt lat="47.45578" lon="6.67005">
        <ele>345</ele>
        <time>2016-04-24T07:04:11Z</time>
      </trkpt>
      <trkpt lat="47.45577" lon="6.66997">
        <ele>345</ele>
        <time>2016-04-24T07:04:12Z</time>
      </trkpt>
      <trkpt lat="47.45575" lon="6.66989">
        <ele>345</ele>
        <time>2016-04-24T07:04:13Z</time>
      </trkpt>
      <trkpt lat="47.45573" lon="6.66981">
        <ele>345</ele>
        <time>2016-04-24T07:04:14Z</time>
      </trkpt>
      <trkpt lat="47.45571" lon="6.66972">
        <ele>344</ele>
        <time>2016-04-24T07:04:15Z</time>
      </trkpt>
      <trkpt lat="47.4557" lon="6.66964">
        <ele>344</ele>
        <time>2016-04-24T07:04:16Z</time>
      </trkpt>
      <trkpt lat="47.45567" lon="6.66955">
        <ele>344</ele>
        <time>2016-04-24T07:04:17Z</time>
      </trkpt>
      <trkpt lat="47.45565" lon="6.66946">
        <ele>344</ele>
        <time>2016-04-24T07:04:18Z</time>
      </trkpt>
      <trkpt lat="47.45562" lon="6.66937">
        <ele>344</ele>
        <time>2016-04-24T07:04:19Z</time>
      </trkpt>
      <trkpt lat="47.4556" lon="6.66929">
        <ele>344</ele>
        <time>2016-04-24T07:04:20Z</time>
      </trkpt>
      <trkpt lat="47.45557" lon="6.66919">
        <ele>344</ele>
        <time>2016-04-24T07:04:21Z</time>
      </trkpt>
      <trkpt lat="47.45556" lon="6.6691">
        <ele>344</ele>
        <time>2016-04-24T07:04:22Z</time>
      </trkpt>
      <trkpt lat="47.45554" lon="6.669">
        <ele>344</ele>
        <time>2016-04-24T07:04:23Z</time>
      </trkpt>
      <trkpt lat="47.45553" lon="6.66891">
        <ele>344</ele>
        <time>2016-04-24T07:04:24Z</time>
      </trkpt>
      <trkpt lat="47.45551" lon="6.66881">
        <ele>343</ele>
        <time>2016-04-24T07:04:25Z</time>
      </trkpt>
      <trkpt lat="47.45551" lon="6.66871">
        <ele>343</ele>
        <time>2016-04-24T07:04:26Z</time>
      </trkpt>
      <trkpt lat="47.4555" lon="6.66861">
        <ele>343</ele>
        <time>2016-04-24T07:04:27Z</time>
      </trkpt>
      <trkpt lat="47.45548" lon="6.66851">
        <ele>343</ele>
        <time>2016-04-24T07:04:28Z</time>
      </trkpt>
      <trkpt lat="47.45547" lon="6.6684">
        <ele>343</ele>
        <time>2016-04-24T07:04:29Z</time>
      </trkpt>
      <trkpt lat="47.45546" lon="6.66829">
        <ele>342</ele>
        <time>2016-04-24T07:04:30Z</time>
      </trkpt>
      <trkpt lat="47.45546" lon="6.66819">
        <ele>342</ele>
        <time>2016-04-24T07:04:31Z</time>
      </trkpt>
      <trkpt lat="47.45545" lon="6.66808">
        <ele>342</ele>
        <time>2016-04-24T07:04:32Z</time>
      </trkpt>
      <trkpt lat="47.45544" lon="6.66797">
        <ele>342</ele>
        <time>2016-04-24T07:04:33Z</time>
      </trkpt>
      <trkpt lat="47.45544" lon="6.66786">
        <ele>342</ele>
        <time>2016-04-24T07:04:34Z</time>
      </trkpt>
      <trkpt lat="47.45544" lon="6.66775">
        <ele>341</ele>
        <time>2016-04-24T07:04:35Z</time>
      </trkpt>
      <trkpt lat="47.45544" lon="6.66764">
        <ele>341</ele>
        <time>2016-04-24T07:04:36Z</time>
      </trkpt>
      <trkpt lat="47.45544" lon="6.66753">
        <ele>341</ele>
        <time>2016-04-24T07:04:37Z</time>
      </trkpt>
      <trkpt lat="47.45545" lon="6.66742">
        <ele>340</ele>
        <time>2016-04-24T07:04:38Z</time>
      </trkpt>
      <trkpt lat="47.45546" lon="6.66731">
        <ele>340</ele>
        <time>2016-04-24T07:04:39Z</time>
      </trkpt>
      <trkpt lat="47.45546" lon="6.6672">
        <ele>340</ele>
        <time>2016-04-24T07:04:40Z</time>
      </trkpt>
      <trkpt lat="47.45547" lon="6.66709">
        <ele>340</ele>
        <time>2016-04-24T07:04:41Z</time>
      </trkpt>
      <trkpt lat="47.45546" lon="6.66698">
        <ele>340</ele>
        <time>2016-04-24T07:04:42Z</time>
      </trkpt>
      <trkpt lat="47.45546" lon="6.66687">
        <ele>340</ele>
        <time>2016-04-24T07:04:43Z</time>
      </trkpt>
      <trkpt lat="47.45546" lon="6.66677">
        <ele>340</ele>
        <time>2016-04-24T07:04:44Z</time>
      </trkpt>
      <trkpt lat="47.45546" lon="6.66666">
        <ele>339</ele>
        <time>2016-04-24T07:04:45Z</time>
      </trkpt>
      <trkpt lat="47.45548" lon="6.66657">
        <ele>339</ele>
        <time>2016-04-24T07:04:46Z</time>
      </trkpt>
      <trkpt lat="47.45548" lon="6.66649">
        <ele>339</ele>
        <time>2016-04-24T07:04:47Z</time>
      </trkpt>
      <trkpt lat="47.45549" lon="6.6664">
        <ele>339</ele>
        <time>2016-04-24T07:04:48Z</time>
      </trkpt>
      <trkpt lat="47.45552" lon="6.66634">
        <ele>339</ele>
        <time>2016-04-24T07:04:49Z</time>
      </trkpt>
      <trkpt lat="47.45553" lon="6.66625">
        <ele>339</ele>
        <time>2016-04-24T07:04:50Z</time>
      </trkpt>
      <trkpt lat="47.45551" lon="6.66616">
        <ele>339</ele>
        <time>2016-04-24T07:04:51Z</time>
      </trkpt>
      <trkpt lat="47.45549" lon="6.66606">
        <ele>339</ele>
        <time>2016-04-24T07:04:52Z</time>
      </trkpt>
      <trkpt lat="47.45546" lon="6.66595">
        <ele>339</ele>
        <time>2016-04-24T07:04:53Z</time>
      </trkpt>
      <trkpt lat="47.45544" lon="6.66585">
        <ele>339</ele>
        <time>2016-04-24T07:04:54Z</time>
      </trkpt>
      <trkpt lat="47.45542" lon="6.66576">
        <ele>337</ele>
        <time>2016-04-24T07:04:55Z</time>
      </trkpt>
      <trkpt lat="47.4554" lon="6.66566">
        <ele>337</ele>
        <time>2016-04-24T07:04:56Z</time>
      </trkpt>
      <trkpt lat="47.45539" lon="6.66557">
        <ele>337</ele>
        <time>2016-04-24T07:04:57Z</time>
      </trkpt>
      <trkpt lat="47.45537" lon="6.66548">
        <ele>336</ele>
        <time>2016-04-24T07:04:58Z</time>
      </trkpt>
      <trkpt lat="47.45535" lon="6.66539">
        <ele>336</ele>
        <time>2016-04-24T07:04:59Z</time>
      </trkpt>
      <trkpt lat="47.45533" lon="6.6653">
        <ele>336</ele>
        <time>2016-04-24T07:05:00Z</time>
      </trkpt>
      <trkpt lat="47.45533" lon="6.6652">
        <ele>336</ele>
        <time>2016-04-24T07:05:01Z</time>
      </trkpt>
      <trkpt lat="47.45533" lon="6.6651">
        <ele>335</ele>
        <time>2016-04-24T07:05:02Z</time>
      </trkpt>
      <trkpt lat="47.45533" lon="6.665">
        <ele>333</ele>
        <time>2016-04-24T07:05:03Z</time>
      </trkpt>
      <trkpt lat="47.45532" lon="6.66488">
        <ele>333</ele>
        <time>2016-04-24T07:05:04Z</time>
      </trkpt>
      <trkpt lat="47.45531" lon="6.66477">
        <ele>333</ele>
        <time>2016-04-24T07:05:05Z</time>
      </trkpt>
      <trkpt lat="47.45531" lon="6.66468">
        <ele>333</ele>
        <time>2016-04-24T07:05:06Z</time>
      </trkpt>
      <trkpt lat="47.4553" lon="6.66458">
        <ele>333</ele>
        <time>2016-04-24T07:05:07Z</time>
      </trkpt>
      <trkpt lat="47.45526" lon="6.66448">
        <ele>332</ele>
        <time>2016-04-24T07:05:08Z</time>
      </trkpt>
      <trkpt lat="47.45523" lon="6.66438">
        <ele>332</ele>
        <time>2016-04-24T07:05:09Z</time>
      </trkpt>
      <trkpt lat="47.45521" lon="6.66428">
        <ele>331</ele>
        <time>2016-04-24T07:05:10Z</time>
      </trkpt>
      <trkpt lat="47.45518" lon="6.66418">
        <ele>331</ele>
        <time>2016-04-24T07:05:11Z</time>
      </trkpt>
      <trkpt lat="47.45516" lon="6.66407">
        <ele>330</ele>
        <time>2016-04-24T07:05:12Z</time>
      </trkpt>
      <trkpt lat="47.45515" lon="6.66397">
        <ele>330</ele>
        <time>2016-04-24T07:05:13Z</time>
      </trkpt>
      <trkpt lat="47.45514" lon="6.66386">
        <ele>330</ele>
        <time>2016-04-24T07:05:14Z</time>
      </trkpt>
      <trkpt lat="47.45513" lon="6.66375">
        <ele>330</ele>
        <time>2016-04-24T07:05:15Z</time>
      </trkpt>
      <trkpt lat="47.45513" lon="6.66365">
        <ele>330</ele>
        <time>2016-04-24T07:05:16Z</time>
      </trkpt>
      <trkpt lat="47.45513" lon="6.66354">
        <ele>330</ele>
        <time>2016-04-24T07:05:17Z</time>
      </trkpt>
      <trkpt lat="47.45513" lon="6.66344">
        <ele>329</ele>
        <time>2016-04-24T07:05:18Z</time>
      </trkpt>
      <trkpt lat="47.45512" lon="6.66334">
        <ele>329</ele>
        <time>2016-04-24T07:05:19Z</time>
      </trkpt>
      <trkpt lat="47.45511" lon="6.66324">
        <ele>329</ele>
        <time>2016-04-24T07:05:20Z</time>
      </trkpt>
      <trkpt lat="47.4551" lon="6.66313">
        <ele>330</ele>
        <time>2016-04-24T07:05:21Z</time>
      </trkpt>
      <trkpt lat="47.4551" lon="6.66303">
        <ele>330</ele>
        <time>2016-04-24T07:05:22Z</time>
      </trkpt>
      <trkpt lat="47.45509" lon="6.66291">
        <ele>330</ele>
        <time>2016-04-24T07:05:23Z</time>
      </trkpt>
      <trkpt lat="47.4551" lon="6.6628">
        <ele>330</ele>
        <time>2016-04-24T07:05:24Z</time>
      </trkpt>
      <trkpt lat="47.45509" lon="6.66269">
        <ele>330</ele>
        <time>2016-04-24T07:05:25Z</time>
      </trkpt>
      <trkpt lat="47.4551" lon="6.66255">
        <ele>330</ele>
        <time>2016-04-24T07:05:26Z</time>
      </trkpt>
      <trkpt lat="47.45509" lon="6.66243">
        <ele>330</ele>
        <time>2016-04-24T07:05:27Z</time>
      </trkpt>
      <trkpt lat="47.45509" lon="6.66232">
        <ele>330</ele>
        <time>2016-04-24T07:05:28Z</time>
      </trkpt>
      <trkpt lat="47.45509" lon="6.66221">
        <ele>330</ele>
        <time>2016-04-24T07:05:29Z</time>
      </trkpt>
      <trkpt lat="47.4551" lon="6.66218">
        <ele>329</ele>
        <time>2016-04-24T07:05:30Z</time>
      </trkpt>
      <trkpt lat="47.4551" lon="6.66212">
        <ele>329</ele>
        <time>2016-04-24T07:05:30.999Z</time>
      </trkpt>
      <trkpt lat="47.45509" lon="6.66199">
        <ele>329</ele>
        <time>2016-04-24T07:05:32Z</time>
      </trkpt>
      <trkpt lat="47.45511" lon="6.66188">
        <ele>328</ele>
        <time>2016-04-24T07:05:33Z</time>
      </trkpt>
      <trkpt lat="47.45509" lon="6.66175">
        <ele>327</ele>
        <time>2016-04-24T07:05:34Z</time>
      </trkpt>
      <trkpt lat="47.45508" lon="6.6616">
        <ele>326</ele>
        <time>2016-04-24T07:05:35Z</time>
      </trkpt>
      <trkpt lat="47.45511" lon="6.66149">
        <ele>326</ele>
        <time>2016-04-24T07:05:36Z</time>
      </trkpt>
      <trkpt lat="47.45517" lon="6.66139">
        <ele>326</ele>
        <time>2016-04-24T07:05:37Z</time>
      </trkpt>
      <trkpt lat="47.45521" lon="6.66132">
        <ele>326</ele>
        <time>2016-04-24T07:05:38Z</time>
      </trkpt>
      <trkpt lat="47.45529" lon="6.66128">
        <ele>326</ele>
        <time>2016-04-24T07:05:39Z</time>
      </trkpt>
      <trkpt lat="47.45541" lon="6.6612">
        <ele>326</ele>
        <time>2016-04-24T07:05:40Z</time>
      </trkpt>
      <trkpt lat="47.4555" lon="6.66112">
        <ele>326</ele>
        <time>2016-04-24T07:05:41Z</time>
      </trkpt>
      <trkpt lat="47.45555" lon="6.66105">
        <ele>326</ele>
        <time>2016-04-24T07:05:42Z</time>
      </trkpt>
      <trkpt lat="47.45561" lon="6.66098">
        <ele>326</ele>
        <time>2016-04-24T07:05:43Z</time>
      </trkpt>
      <trkpt lat="47.45567" lon="6.66091">
        <ele>326</ele>
        <time>2016-04-24T07:05:44Z</time>
      </trkpt>
      <trkpt lat="47.45572" lon="6.66088">
        <ele>327</ele>
        <time>2016-04-24T07:05:45Z</time>
      </trkpt>
      <trkpt lat="47.45573" lon="6.66079">
        <ele>327</ele>
        <time>2016-04-24T07:05:46Z</time>
      </trkpt>
      <trkpt lat="47.45575" lon="6.66073">
        <ele>328</ele>
        <time>2016-04-24T07:05:47Z</time>
      </trkpt>
      <trkpt lat="47.45576" lon="6.66068">
        <ele>328</ele>
        <time>2016-04-24T07:05:48Z</time>
      </trkpt>
      <trkpt lat="47.45574" lon="6.66065">
        <ele>328</ele>
        <time>2016-04-24T07:05:49Z</time>
      </trkpt>
      <trkpt lat="47.45573" lon="6.66064">
        <ele>328</ele>
        <time>2016-04-24T07:05:50Z</time>
      </trkpt>
      <trkpt lat="47.45569" lon="6.66063">
        <ele>328</ele>
        <time>2016-04-24T07:05:51Z</time>
      </trkpt>
      <trkpt lat="47.45566" lon="6.66064">
        <ele>328</ele>
        <time>2016-04-24T07:05:52Z</time>
      </trkpt>
      <trkpt lat="47.45558" lon="6.66061">
        <ele>328</ele>
        <time>2016-04-24T07:05:53Z</time>
      </trkpt>
      <trkpt lat="47.45552" lon="6.66059">
        <ele>328</ele>
        <time>2016-04-24T07:05:54Z</time>
      </trkpt>
      <trkpt lat="47.45546" lon="6.66056">
        <ele>328</ele>
        <time>2016-04-24T07:05:55Z</time>
      </trkpt>
      <trkpt lat="47.4554" lon="6.66056">
        <ele>327</ele>
        <time>2016-04-24T07:05:56Z</time>
      </trkpt>
      <trkpt lat="47.45536" lon="6.66054">
        <ele>327</ele>
        <time>2016-04-24T07:05:57Z</time>
      </trkpt>
      <trkpt lat="47.45532" lon="6.66054">
        <ele>327</ele>
        <time>2016-04-24T07:05:58Z</time>
      </trkpt>
      <trkpt lat="47.45528" lon="6.66053">
        <ele>327</ele>
        <time>2016-04-24T07:05:59Z</time>
      </trkpt>
      <trkpt lat="47.45525" lon="6.66052">
        <ele>327</ele>
        <time>2016-04-24T07:06:00Z</time>
      </trkpt>
      <trkpt lat="47.4552" lon="6.66049">
        <ele>327</ele>
        <time>2016-04-24T07:06:01Z</time>
      </trkpt>
      <trkpt lat="47.45512" lon="6.66048">
        <ele>327</ele>
        <time>2016-04-24T07:06:02Z</time>
      </trkpt>
      <trkpt lat="47.45507" lon="6.66046">
        <ele>327</ele>
        <time>2016-04-24T07:06:03Z</time>
      </trkpt>
      <trkpt lat="47.45504" lon="6.66044">
        <ele>327</ele>
        <time>2016-04-24T07:06:04Z</time>
      </trkpt>
      <trkpt lat="47.45501" lon="6.66042">
        <ele>327</ele>
        <time>2016-04-24T07:06:05Z</time>
      </trkpt>
      <trkpt lat="47.45496" lon="6.6604">
        <ele>322</ele>
        <time>2016-04-24T07:06:07Z</time>
      </trkpt>
      <trkpt lat="47.45493" lon="6.66038">
        <ele>322</ele>
        <time>2016-04-24T07:06:08Z</time>
      </trkpt>
      <trkpt lat="47.4549" lon="6.66035">
        <ele>322</ele>
        <time>2016-04-24T07:06:09Z</time>
      </trkpt>
      <trkpt lat="47.45487" lon="6.66029">
        <ele>323</ele>
        <time>2016-04-24T07:06:10Z</time>
      </trkpt>
      <trkpt lat="47.45483" lon="6.66025">
        <ele>323</ele>
        <time>2016-04-24T07:06:11Z</time>
      </trkpt>
      <trkpt lat="47.4548" lon="6.66022">
        <ele>323</ele>
        <time>2016-04-24T07:06:12Z</time>
      </trkpt>
      <trkpt lat="47.45476" lon="6.66019">
        <ele>323</ele>
        <time>2016-04-24T07:06:13Z</time>
      </trkpt>
      <trkpt lat="47.45473" lon="6.66016">
        <ele>323</ele>
        <time>2016-04-24T07:06:14Z</time>
      </trkpt>
      <trkpt lat="47.45469" lon="6.66014">
        <ele>323</ele>
        <time>2016-04-24T07:06:15Z</time>
      </trkpt>
      <trkpt lat="47.45465" lon="6.66011">
        <ele>322</ele>
        <time>2016-04-24T07:06:16Z</time>
      </trkpt>
      <trkpt lat="47.45461" lon="6.66009">
        <ele>322</ele>
        <time>2016-04-24T07:06:17Z</time>
      </trkpt>
      <trkpt lat="47.45457" lon="6.66007">
        <ele>322</ele>
        <time>2016-04-24T07:06:18Z</time>
      </trkpt>
      <trkpt lat="47.45453" lon="6.66005">
        <ele>322</ele>
        <time>2016-04-24T07:06:19Z</time>
      </trkpt>
      <trkpt lat="47.45449" lon="6.66003">
        <ele>322</ele>
        <time>2016-04-24T07:06:20Z</time>
      </trkpt>
      <trkpt lat="47.45445" lon="6.66">
        <ele>321</ele>
        <time>2016-04-24T07:06:21Z</time>
      </trkpt>
      <trkpt lat="47.45441" lon="6.65998">
        <ele>325</ele>
        <time>2016-04-24T07:06:22Z</time>
      </trkpt>
      <trkpt lat="47.45437" lon="6.65995">
        <ele>324</ele>
        <time>2016-04-24T07:06:23Z</time>
      </trkpt>
      <trkpt lat="47.45434" lon="6.65993">
        <ele>324</ele>
        <time>2016-04-24T07:06:24Z</time>
      </trkpt>
      <trkpt lat="47.4543" lon="6.65991">
        <ele>324</ele>
        <time>2016-04-24T07:06:25Z</time>
      </trkpt>
      <trkpt lat="47.45427" lon="6.65988">
        <ele>324</ele>
        <time>2016-04-24T07:06:26Z</time>
      </trkpt>
      <trkpt lat="47.45424" lon="6.65986">
        <ele>324</ele>
        <time>2016-04-24T07:06:26.999Z</time>
      </trkpt>
      <trkpt lat="47.45421" lon="6.65983">
        <ele>324</ele>
        <time>2016-04-24T07:06:28Z</time>
      </trkpt>
      <trkpt lat="47.45418" lon="6.6598">
        <ele>324</ele>
        <time>2016-04-24T07:06:29Z</time>
      </trkpt>
      <trkpt lat="47.45416" lon="6.65977">
        <ele>318</ele>
        <time>2016-04-24T07:06:30Z</time>
      </trkpt>
      <trkpt lat="47.45414" lon="6.65973">
        <ele>318</ele>
        <time>2016-04-24T07:06:31Z</time>
      </trkpt>
      <trkpt lat="47.45411" lon="6.65969">
        <ele>318</ele>
        <time>2016-04-24T07:06:32Z</time>
      </trkpt>
      <trkpt lat="47.4541" lon="6.65965">
        <ele>318</ele>
        <time>2016-04-24T07:06:33Z</time>
      </trkpt>
      <trkpt lat="47.45408" lon="6.6596">
        <ele>318</ele>
        <time>2016-04-24T07:06:34Z</time>
      </trkpt>
      <trkpt lat="47.45406" lon="6.65956">
        <ele>318</ele>
        <time>2016-04-24T07:06:35Z</time>
      </trkpt>
      <trkpt lat="47.45405" lon="6.65951">
        <ele>318</ele>
        <time>2016-04-24T07:06:36Z</time>
      </trkpt>
      <trkpt lat="47.45405" lon="6.65946">
        <ele>318</ele>
        <time>2016-04-24T07:06:37Z</time>
      </trkpt>
      <trkpt lat="47.45405" lon="6.65942">
        <ele>319</ele>
        <time>2016-04-24T07:06:38Z</time>
      </trkpt>
      <trkpt lat="47.45405" lon="6.65937">
        <ele>319</ele>
        <time>2016-04-24T07:06:39Z</time>
      </trkpt>
      <trkpt lat="47.45405" lon="6.65933">
        <ele>320</ele>
        <time>2016-04-24T07:06:40Z</time>
      </trkpt>
      <trkpt lat="47.45405" lon="6.65928">
        <ele>320</ele>
        <time>2016-04-24T07:06:41Z</time>
      </trkpt>
      <trkpt lat="47.45404" lon="6.65924">
        <ele>321</ele>
        <time>2016-04-24T07:06:42Z</time>
      </trkpt>
      <trkpt lat="47.45403" lon="6.65919">
        <ele>321</ele>
        <time>2016-04-24T07:06:43Z</time>
      </trkpt>
      <trkpt lat="47.45402" lon="6.65915">
        <ele>322</ele>
        <time>2016-04-24T07:06:44Z</time>
      </trkpt>
      <trkpt lat="47.45402" lon="6.65911">
        <ele>321</ele>
        <time>2016-04-24T07:06:45Z</time>
      </trkpt>
      <trkpt lat="47.45401" lon="6.65906">
        <ele>321</ele>
        <time>2016-04-24T07:06:46Z</time>
      </trkpt>
      <trkpt lat="47.454" lon="6.65902">
        <ele>321</ele>
        <time>2016-04-24T07:06:47Z</time>
      </trkpt>
      <trkpt lat="47.45399" lon="6.65897">
        <ele>320</ele>
        <time>2016-04-24T07:06:48Z</time>
      </trkpt>
      <trkpt lat="47.45398" lon="6.65893">
        <ele>320</ele>
        <time>2016-04-24T07:06:49Z</time>
      </trkpt>
      <trkpt lat="47.45398" lon="6.65889">
        <ele>320</ele>
        <time>2016-04-24T07:06:50Z</time>
      </trkpt>
      <trkpt lat="47.45397" lon="6.65884">
        <ele>320</ele>
        <time>2016-04-24T07:06:51Z</time>
      </trkpt>
      <trkpt lat="47.45396" lon="6.6588">
        <ele>320</ele>
        <time>2016-04-24T07:06:52Z</time>
      </trkpt>
      <trkpt lat="47.45395" lon="6.65875">
        <ele>320</ele>
        <time>2016-04-24T07:06:53Z</time>
      </trkpt>
      <trkpt lat="47.45394" lon="6.6587">
        <ele>320</ele>
        <time>2016-04-24T07:06:54Z</time>
      </trkpt>
      <trkpt lat="47.45393" lon="6.65866">
        <ele>320</ele>
        <time>2016-04-24T07:06:55Z</time>
      </trkpt>
      <trkpt lat="47.45392" lon="6.65861">
        <ele>320</ele>
        <time>2016-04-24T07:06:56Z</time>
      </trkpt>
      <trkpt lat="47.45391" lon="6.65857">
        <ele>320</ele>
        <time>2016-04-24T07:06:57Z</time>
      </trkpt>
      <trkpt lat="47.45389" lon="6.65852">
        <ele>320</ele>
        <time>2016-04-24T07:06:58Z</time>
      </trkpt>
      <trkpt lat="47.45388" lon="6.65847">
        <ele>320</ele>
        <time>2016-04-24T07:06:59Z</time>
      </trkpt>
      <trkpt lat="47.45387" lon="6.65842">
        <ele>320</ele>
        <time>2016-04-24T07:07:00Z</time>
      </trkpt>
      <trkpt lat="47.45387" lon="6.65837">
        <ele>320</ele>
        <time>2016-04-24T07:07:01Z</time>
      </trkpt>
      <trkpt lat="47.45386" lon="6.65833">
        <ele>322</ele>
        <time>2016-04-24T07:07:02Z</time>
      </trkpt>
      <trkpt lat="47.45385" lon="6.65828">
        <ele>322</ele>
        <time>2016-04-24T07:07:03Z</time>
      </trkpt>
      <trkpt lat="47.45384" lon="6.65823">
        <ele>322</ele>
        <time>2016-04-24T07:07:04Z</time>
      </trkpt>
      <trkpt lat="47.45382" lon="6.65819">
        <ele>321</ele>
        <time>2016-04-24T07:07:05Z</time>
      </trkpt>
      <trkpt lat="47.45381" lon="6.65814">
        <ele>321</ele>
        <time>2016-04-24T07:07:06Z</time>
      </trkpt>
      <trkpt lat="47.4538" lon="6.65809">
        <ele>321</ele>
        <time>2016-04-24T07:07:07Z</time>
      </trkpt>
      <trkpt lat="47.4538" lon="6.65804">
        <ele>321</ele>
        <time>2016-04-24T07:07:08Z</time>
      </trkpt>
      <trkpt lat="47.45379" lon="6.658">
        <ele>321</ele>
        <time>2016-04-24T07:07:09Z</time>
      </trkpt>
      <trkpt lat="47.45378" lon="6.65795">
        <ele>321</ele>
        <time>2016-04-24T07:07:10Z</time>
      </trkpt>
      <trkpt lat="47.45378" lon="6.6579">
        <ele>321</ele>
        <time>2016-04-24T07:07:11Z</time>
      </trkpt>
      <trkpt lat="47.45378" lon="6.65785">
        <ele>322</ele>
        <time>2016-04-24T07:07:12Z</time>
      </trkpt>
      <trkpt lat="47.45378" lon="6.6578">
        <ele>322</ele>
        <time>2016-04-24T07:07:13Z</time>
      </trkpt>
      <trkpt lat="47.45378" lon="6.65775">
        <ele>322</ele>
        <time>2016-04-24T07:07:14Z</time>
      </trkpt>
      <trkpt lat="47.45378" lon="6.6577">
        <ele>322</ele>
        <time>2016-04-24T07:07:15Z</time>
      </trkpt>
      <trkpt lat="47.45377" lon="6.65765">
        <ele>322</ele>
        <time>2016-04-24T07:07:16Z</time>
      </trkpt>
      <trkpt lat="47.45377" lon="6.6576">
        <ele>322</ele>
        <time>2016-04-24T07:07:17Z</time>
      </trkpt>
      <trkpt lat="47.45376" lon="6.65755">
        <ele>322</ele>
        <time>2016-04-24T07:07:18Z</time>
      </trkpt>
      <trkpt lat="47.45375" lon="6.6575">
        <ele>324</ele>
        <time>2016-04-24T07:07:19Z</time>
      </trkpt>
      <trkpt lat="47.45374" lon="6.65744">
        <ele>324</ele>
        <time>2016-04-24T07:07:20Z</time>
      </trkpt>
      <trkpt lat="47.45374" lon="6.65739">
        <ele>324</ele>
        <time>2016-04-24T07:07:21Z</time>
      </trkpt>
      <trkpt lat="47.45373" lon="6.65734">
        <ele>324</ele>
        <time>2016-04-24T07:07:22Z</time>
      </trkpt>
      <trkpt lat="47.45373" lon="6.65729">
        <ele>324</ele>
        <time>2016-04-24T07:07:23Z</time>
      </trkpt>
      <trkpt lat="47.45372" lon="6.65724">
        <ele>324</ele>
        <time>2016-04-24T07:07:24Z</time>
      </trkpt>
      <trkpt lat="47.45372" lon="6.65719">
        <ele>324</ele>
        <time>2016-04-24T07:07:25Z</time>
      </trkpt>
      <trkpt lat="47.45372" lon="6.65715">
        <ele>324</ele>
        <time>2016-04-24T07:07:26Z</time>
      </trkpt>
      <trkpt lat="47.45373" lon="6.6571">
        <ele>324</ele>
        <time>2016-04-24T07:07:27Z</time>
      </trkpt>
      <trkpt lat="47.45375" lon="6.65705">
        <ele>324</ele>
        <time>2016-04-24T07:07:28Z</time>
      </trkpt>
      <trkpt lat="47.45376" lon="6.65701">
        <ele>325</ele>
        <time>2016-04-24T07:07:29Z</time>
      </trkpt>
      <trkpt lat="47.45378" lon="6.65696">
        <ele>325</ele>
        <time>2016-04-24T07:07:30Z</time>
      </trkpt>
      <trkpt lat="47.45379" lon="6.65692">
        <ele>325</ele>
        <time>2016-04-24T07:07:31Z</time>
      </trkpt>
      <trkpt lat="47.45381" lon="6.65688">
        <ele>325</ele>
        <time>2016-04-24T07:07:32Z</time>
      </trkpt>
      <trkpt lat="47.45382" lon="6.65684">
        <ele>326</ele>
        <time>2016-04-24T07:07:33Z</time>
      </trkpt>
      <trkpt lat="47.45383" lon="6.6568">
        <ele>326</ele>
        <time>2016-04-24T07:07:34Z</time>
      </trkpt>
      <trkpt lat="47.45384" lon="6.65677">
        <ele>326</ele>
        <time>2016-04-24T07:07:35Z</time>
      </trkpt>
      <trkpt lat="47.45385" lon="6.65673">
        <ele>326</ele>
        <time>2016-04-24T07:07:36Z</time>
      </trkpt>
      <trkpt lat="47.45386" lon="6.6567">
        <ele>326</ele>
        <time>2016-04-24T07:07:37Z</time>
      </trkpt>
      <trkpt lat="47.45386" lon="6.65667">
        <ele>327</ele>
        <time>2016-04-24T07:07:38Z</time>
      </trkpt>
      <trkpt lat="47.45387" lon="6.65663">
        <ele>327</ele>
        <time>2016-04-24T07:07:39Z</time>
      </trkpt>
      <trkpt lat="47.45386" lon="6.65659">
        <ele>327</ele>
        <time>2016-04-24T07:07:40Z</time>
      </trkpt>
      <trkpt lat="47.45386" lon="6.65654">
        <ele>327</ele>
        <time>2016-04-24T07:07:41Z</time>
      </trkpt>
      <trkpt lat="47.45386" lon="6.65649">
        <ele>327</ele>
        <time>2016-04-24T07:07:42Z</time>
      </trkpt>
      <trkpt lat="47.45385" lon="6.65644">
        <ele>327</ele>
        <time>2016-04-24T07:07:43Z</time>
      </trkpt>
      <trkpt lat="47.45384" lon="6.65638">
        <ele>327</ele>
        <time>2016-04-24T07:07:44Z</time>
      </trkpt>
      <trkpt lat="47.45384" lon="6.65632">
        <ele>327</ele>
        <time>2016-04-24T07:07:45Z</time>
      </trkpt>
      <trkpt lat="47.45383" lon="6.65626">
        <ele>327</ele>
        <time>2016-04-24T07:07:46Z</time>
      </trkpt>
      <trkpt lat="47.45383" lon="6.6562">
        <ele>327</ele>
        <time>2016-04-24T07:07:47Z</time>
      </trkpt>
      <trkpt lat="47.45382" lon="6.65613">
        <ele>327</ele>
        <time>2016-04-24T07:07:48Z</time>
      </trkpt>
      <trkpt lat="47.45382" lon="6.65607">
        <ele>327</ele>
        <time>2016-04-24T07:07:49Z</time>
      </trkpt>
      <trkpt lat="47.45381" lon="6.65601">
        <ele>327</ele>
        <time>2016-04-24T07:07:50Z</time>
      </trkpt>
      <trkpt lat="47.45381" lon="6.65595">
        <ele>327</ele>
        <time>2016-04-24T07:07:51Z</time>
      </trkpt>
      <trkpt lat="47.4538" lon="6.65588">
        <ele>327</ele>
        <time>2016-04-24T07:07:52Z</time>
      </trkpt>
      <trkpt lat="47.45379" lon="6.65582">
        <ele>328</ele>
        <time>2016-04-24T07:07:53Z</time>
      </trkpt>
      <trkpt lat="47.45379" lon="6.65576">
        <ele>328</ele>
        <time>2016-04-24T07:07:54Z</time>
      </trkpt>
      <trkpt lat="47.45378" lon="6.65569">
        <ele>328</ele>
        <time>2016-04-24T07:07:55Z</time>
      </trkpt>
      <trkpt lat="47.45378" lon="6.65563">
        <ele>328</ele>
        <time>2016-04-24T07:07:56Z</time>
      </trkpt>
      <trkpt lat="47.45378" lon="6.65557">
        <ele>328</ele>
        <time>2016-04-24T07:07:57Z</time>
      </trkpt>
      <trkpt lat="47.45378" lon="6.65551">
        <ele>328</ele>
        <time>2016-04-24T07:07:58Z</time>
      </trkpt>
      <trkpt lat="47.45378" lon="6.65545">
        <ele>328</ele>
        <time>2016-04-24T07:07:59Z</time>
      </trkpt>
      <trkpt lat="47.45377" lon="6.65538">
        <ele>328</ele>
        <time>2016-04-24T07:08:00Z</time>
      </trkpt>
      <trkpt lat="47.45377" lon="6.65532">
        <ele>329</ele>
        <time>2016-04-24T07:08:01Z</time>
      </trkpt>
      <trkpt lat="47.45377" lon="6.65526">
        <ele>329</ele>
        <time>2016-04-24T07:08:02Z</time>
      </trkpt>
      <trkpt lat="47.45376" lon="6.65519">
        <ele>329</ele>
        <time>2016-04-24T07:08:03Z</time>
      </trkpt>
      <trkpt lat="47.45376" lon="6.65513">
        <ele>329</ele>
        <time>2016-04-24T07:08:04Z</time>
      </trkpt>
      <trkpt lat="47.45375" lon="6.65507">
        <ele>329</ele>
        <time>2016-04-24T07:08:05Z</time>
      </trkpt>
      <trkpt lat="47.45374" lon="6.655">
        <ele>329</ele>
        <time>2016-04-24T07:08:06Z</time>
      </trkpt>
      <trkpt lat="47.45373" lon="6.65494">
        <ele>330</ele>
        <time>2016-04-24T07:08:07Z</time>
      </trkpt>
      <trkpt lat="47.45373" lon="6.65488">
        <ele>330</ele>
        <time>2016-04-24T07:08:08Z</time>
      </trkpt>
      <trkpt lat="47.45373" lon="6.65482">
        <ele>330</ele>
        <time>2016-04-24T07:08:09Z</time>
      </trkpt>
      <trkpt lat="47.45373" lon="6.65476">
        <ele>330</ele>
        <time>2016-04-24T07:08:10Z</time>
      </trkpt>
      <trkpt lat="47.45372" lon="6.6547">
        <ele>330</ele>
        <time>2016-04-24T07:08:11Z</time>
      </trkpt>
      <trkpt lat="47.4537" lon="6.65463">
        <ele>330</ele>
        <time>2016-04-24T07:08:12Z</time>
      </trkpt>
      <trkpt lat="47.4537" lon="6.65456">
        <ele>330</ele>
        <time>2016-04-24T07:08:13Z</time>
      </trkpt>
      <trkpt lat="47.45369" lon="6.6545">
        <ele>330</ele>
        <time>2016-04-24T07:08:14Z</time>
      </trkpt>
      <trkpt lat="47.45367" lon="6.65443">
        <ele>330</ele>
        <time>2016-04-24T07:08:15Z</time>
      </trkpt>
      <trkpt lat="47.45366" lon="6.65436">
        <ele>330</ele>
        <time>2016-04-24T07:08:16Z</time>
      </trkpt>
      <trkpt lat="47.45364" lon="6.6543">
        <ele>330</ele>
        <time>2016-04-24T07:08:17Z</time>
      </trkpt>
      <trkpt lat="47.45363" lon="6.65423">
        <ele>330</ele>
        <time>2016-04-24T07:08:18Z</time>
      </trkpt>
      <trkpt lat="47.45362" lon="6.65417">
        <ele>330</ele>
        <time>2016-04-24T07:08:19Z</time>
      </trkpt>
      <trkpt lat="47.45361" lon="6.65411">
        <ele>330</ele>
        <time>2016-04-24T07:08:20Z</time>
      </trkpt>
      <trkpt lat="47.45359" lon="6.65404">
        <ele>330</ele>
        <time>2016-04-24T07:08:21Z</time>
      </trkpt>
      <trkpt lat="47.45358" lon="6.65398">
        <ele>330</ele>
        <time>2016-04-24T07:08:22Z</time>
      </trkpt>
      <trkpt lat="47.45356" lon="6.65391">
        <ele>330</ele>
        <time>2016-04-24T07:08:23Z</time>
      </trkpt>
      <trkpt lat="47.45354" lon="6.65384">
        <ele>330</ele>
        <time>2016-04-24T07:08:24Z</time>
      </trkpt>
      <trkpt lat="47.45352" lon="6.65378">
        <ele>330</ele>
        <time>2016-04-24T07:08:25Z</time>
      </trkpt>
      <trkpt lat="47.45351" lon="6.65371">
        <ele>329</ele>
        <time>2016-04-24T07:08:26Z</time>
      </trkpt>
      <trkpt lat="47.45349" lon="6.65365">
        <ele>329</ele>
        <time>2016-04-24T07:08:27Z</time>
      </trkpt>
      <trkpt lat="47.45347" lon="6.65359">
        <ele>329</ele>
        <time>2016-04-24T07:08:28Z</time>
      </trkpt>
      <trkpt lat="47.45345" lon="6.65352">
        <ele>328</ele>
        <time>2016-04-24T07:08:29Z</time>
      </trkpt>
      <trkpt lat="47.45343" lon="6.65345">
        <ele>328</ele>
        <time>2016-04-24T07:08:30Z</time>
      </trkpt>
      <trkpt lat="47.45342" lon="6.65338">
        <ele>327</ele>
        <time>2016-04-24T07:08:31Z</time>
      </trkpt>
      <trkpt lat="47.45341" lon="6.65331">
        <ele>326</ele>
        <time>2016-04-24T07:08:32Z</time>
      </trkpt>
      <trkpt lat="47.45338" lon="6.65324">
        <ele>327</ele>
        <time>2016-04-24T07:08:33Z</time>
      </trkpt>
      <trkpt lat="47.45337" lon="6.65316">
        <ele>327</ele>
        <time>2016-04-24T07:08:34Z</time>
      </trkpt>
      <trkpt lat="47.45335" lon="6.65308">
        <ele>328</ele>
        <time>2016-04-24T07:08:35Z</time>
      </trkpt>
      <trkpt lat="47.45333" lon="6.653">
        <ele>321</ele>
        <time>2016-04-24T07:08:36Z</time>
      </trkpt>
      <trkpt lat="47.4533" lon="6.65291">
        <ele>321</ele>
        <time>2016-04-24T07:08:37Z</time>
      </trkpt>
      <trkpt lat="47.45326" lon="6.6528">
        <ele>321</ele>
        <time>2016-04-24T07:08:38Z</time>
      </trkpt>
      <trkpt lat="47.45324" lon="6.6527">
        <ele>321</ele>
        <time>2016-04-24T07:08:39Z</time>
      </trkpt>
      <trkpt lat="47.45321" lon="6.65259">
        <ele>322</ele>
        <time>2016-04-24T07:08:40Z</time>
      </trkpt>
      <trkpt lat="47.45318" lon="6.65249">
        <ele>322</ele>
        <time>2016-04-24T07:08:41Z</time>
      </trkpt>
      <trkpt lat="47.45316" lon="6.65238">
        <ele>321</ele>
        <time>2016-04-24T07:08:42Z</time>
      </trkpt>
      <trkpt lat="47.45313" lon="6.65228">
        <ele>320</ele>
        <time>2016-04-24T07:08:43Z</time>
      </trkpt>
      <trkpt lat="47.45311" lon="6.65217">
        <ele>319</ele>
        <time>2016-04-24T07:08:44Z</time>
      </trkpt>
      <trkpt lat="47.45311" lon="6.65208">
        <ele>319</ele>
        <time>2016-04-24T07:08:45Z</time>
      </trkpt>
      <trkpt lat="47.4531" lon="6.65199">
        <ele>319</ele>
        <time>2016-04-24T07:08:46Z</time>
      </trkpt>
      <trkpt lat="47.4531" lon="6.65192">
        <ele>319</ele>
        <time>2016-04-24T07:08:47Z</time>
      </trkpt>
      <trkpt lat="47.45309" lon="6.65186">
        <ele>319</ele>
        <time>2016-04-24T07:08:48Z</time>
      </trkpt>
      <trkpt lat="47.45305" lon="6.65178">
        <ele>319</ele>
        <time>2016-04-24T07:08:49Z</time>
      </trkpt>
      <trkpt lat="47.45295" lon="6.65177">
        <ele>318</ele>
        <time>2016-04-24T07:08:50Z</time>
      </trkpt>
      <trkpt lat="47.45289" lon="6.6518">
        <ele>317</ele>
        <time>2016-04-24T07:08:51Z</time>
      </trkpt>
      <trkpt lat="47.45283" lon="6.65186">
        <ele>317</ele>
        <time>2016-04-24T07:08:52Z</time>
      </trkpt>
      <trkpt lat="47.45279" lon="6.65193">
        <ele>317</ele>
        <time>2016-04-24T07:08:53Z</time>
      </trkpt>
      <trkpt lat="47.45275" lon="6.65204">
        <ele>317</ele>
        <time>2016-04-24T07:08:54Z</time>
      </trkpt>
      <trkpt lat="47.45273" lon="6.65216">
        <ele>316</ele>
        <time>2016-04-24T07:08:55Z</time>
      </trkpt>
      <trkpt lat="47.4527" lon="6.65227">
        <ele>316</ele>
        <time>2016-04-24T07:08:56Z</time>
      </trkpt>
      <trkpt lat="47.45268" lon="6.65239">
        <ele>315</ele>
        <time>2016-04-24T07:08:57Z</time>
      </trkpt>
      <trkpt lat="47.45266" lon="6.65252">
        <ele>315</ele>
        <time>2016-04-24T07:08:58Z</time>
      </trkpt>
      <trkpt lat="47.45264" lon="6.65265">
        <ele>315</ele>
        <time>2016-04-24T07:08:59Z</time>
      </trkpt>
      <trkpt lat="47.45263" lon="6.65276">
        <ele>316</ele>
        <time>2016-04-24T07:09:00Z</time>
      </trkpt>
      <trkpt lat="47.45262" lon="6.65288">
        <ele>316</ele>
        <time>2016-04-24T07:09:01Z</time>
      </trkpt>
      <trkpt lat="47.4526" lon="6.65297">
        <ele>316</ele>
        <time>2016-04-24T07:09:02Z</time>
      </trkpt>
      <trkpt lat="47.45258" lon="6.65305">
        <ele>316</ele>
        <time>2016-04-24T07:09:03Z</time>
      </trkpt>
      <trkpt lat="47.45254" lon="6.65311">
        <ele>315</ele>
        <time>2016-04-24T07:09:04Z</time>
      </trkpt>
      <trkpt lat="47.45251" lon="6.65315">
        <ele>314</ele>
        <time>2016-04-24T07:09:05Z</time>
      </trkpt>
      <trkpt lat="47.45246" lon="6.65316">
        <ele>309</ele>
        <time>2016-04-24T07:09:06Z</time>
      </trkpt>
      <trkpt lat="47.45241" lon="6.65315">
        <ele>309</ele>
        <time>2016-04-24T07:09:07Z</time>
      </trkpt>
      <trkpt lat="47.45238" lon="6.6531">
        <ele>309</ele>
        <time>2016-04-24T07:09:08Z</time>
      </trkpt>
      <trkpt lat="47.45237" lon="6.65304">
        <ele>308</ele>
        <time>2016-04-24T07:09:09Z</time>
      </trkpt>
      <trkpt lat="47.45238" lon="6.65297">
        <ele>308</ele>
        <time>2016-04-24T07:09:10Z</time>
      </trkpt>
      <trkpt lat="47.45238" lon="6.6529">
        <ele>308</ele>
        <time>2016-04-24T07:09:11Z</time>
      </trkpt>
      <trkpt lat="47.45239" lon="6.65281">
        <ele>309</ele>
        <time>2016-04-24T07:09:12Z</time>
      </trkpt>
      <trkpt lat="47.45238" lon="6.65273">
        <ele>309</ele>
        <time>2016-04-24T07:09:13Z</time>
      </trkpt>
      <trkpt lat="47.45239" lon="6.65266">
        <ele>309</ele>
        <time>2016-04-24T07:09:14Z</time>
      </trkpt>
      <trkpt lat="47.45239" lon="6.65259">
        <ele>310</ele>
        <time>2016-04-24T07:09:15Z</time>
      </trkpt>
      <trkpt lat="47.45238" lon="6.65253">
        <ele>310</ele>
        <time>2016-04-24T07:09:16Z</time>
      </trkpt>
      <trkpt lat="47.4524" lon="6.65246">
        <ele>310</ele>
        <time>2016-04-24T07:09:17Z</time>
      </trkpt>
      <trkpt lat="47.45238" lon="6.65239">
        <ele>309</ele>
        <time>2016-04-24T07:09:18Z</time>
      </trkpt>
      <trkpt lat="47.45237" lon="6.65231">
        <ele>309</ele>
        <time>2016-04-24T07:09:19Z</time>
      </trkpt>
      <trkpt lat="47.45236" lon="6.65224">
        <ele>308</ele>
        <time>2016-04-24T07:09:20Z</time>
      </trkpt>
      <trkpt lat="47.45235" lon="6.65217">
        <ele>308</ele>
        <time>2016-04-24T07:09:21Z</time>
      </trkpt>
      <trkpt lat="47.45235" lon="6.65209">
        <ele>308</ele>
        <time>2016-04-24T07:09:22Z</time>
      </trkpt>
      <trkpt lat="47.45235" lon="6.65203">
        <ele>308</ele>
        <time>2016-04-24T07:09:23Z</time>
      </trkpt>
      <trkpt lat="47.45234" lon="6.65195">
        <ele>308</ele>
        <time>2016-04-24T07:09:24Z</time>
      </trkpt>
      <trkpt lat="47.45234" lon="6.65186">
        <ele>308</ele>
        <time>2016-04-24T07:09:25Z</time>
      </trkpt>
      <trkpt lat="47.45234" lon="6.65179">
        <ele>309</ele>
        <time>2016-04-24T07:09:26Z</time>
      </trkpt>
      <trkpt lat="47.45236" lon="6.65172">
        <ele>309</ele>
        <time>2016-04-24T07:09:27Z</time>
      </trkpt>
      <trkpt lat="47.45237" lon="6.65165">
        <ele>308</ele>
        <time>2016-04-24T07:09:28Z</time>
      </trkpt>
      <trkpt lat="47.4524" lon="6.65159">
        <ele>309</ele>
        <time>2016-04-24T07:09:29Z</time>
      </trkpt>
      <trkpt lat="47.45243" lon="6.65154">
        <ele>308</ele>
        <time>2016-04-24T07:09:30Z</time>
      </trkpt>
      <trkpt lat="47.45247" lon="6.65149">
        <ele>308</ele>
        <time>2016-04-24T07:09:31Z</time>
      </trkpt>
      <trkpt lat="47.45251" lon="6.65144">
        <ele>312</ele>
        <time>2016-04-24T07:09:32Z</time>
      </trkpt>
      <trkpt lat="47.45254" lon="6.65141">
        <ele>312</ele>
        <time>2016-04-24T07:09:33Z</time>
      </trkpt>
      <trkpt lat="47.45257" lon="6.65137">
        <ele>312</ele>
        <time>2016-04-24T07:09:34Z</time>
      </trkpt>
      <trkpt lat="47.4526" lon="6.65134">
        <ele>312</ele>
        <time>2016-04-24T07:09:35Z</time>
      </trkpt>
      <trkpt lat="47.45263" lon="6.65131">
        <ele>312</ele>
        <time>2016-04-24T07:09:36Z</time>
      </trkpt>
      <trkpt lat="47.45268" lon="6.65129">
        <ele>312</ele>
        <time>2016-04-24T07:09:37Z</time>
      </trkpt>
      <trkpt lat="47.45273" lon="6.65126">
        <ele>313</ele>
        <time>2016-04-24T07:09:38Z</time>
      </trkpt>
      <trkpt lat="47.45278" lon="6.65123">
        <ele>313</ele>
        <time>2016-04-24T07:09:39Z</time>
      </trkpt>
      <trkpt lat="47.45283" lon="6.65119">
        <ele>313</ele>
        <time>2016-04-24T07:09:40Z</time>
      </trkpt>
      <trkpt lat="47.45281" lon="6.65109">
        <ele>312</ele>
        <time>2016-04-24T07:09:41Z</time>
      </trkpt>
      <trkpt lat="47.45281" lon="6.65102">
        <ele>312</ele>
        <time>2016-04-24T07:09:42Z</time>
      </trkpt>
      <trkpt lat="47.45281" lon="6.65092">
        <ele>311</ele>
        <time>2016-04-24T07:09:43Z</time>
      </trkpt>
      <trkpt lat="47.4528" lon="6.65081">
        <ele>309</ele>
        <time>2016-04-24T07:09:44Z</time>
      </trkpt>
      <trkpt lat="47.45279" lon="6.6507">
        <ele>309</ele>
        <time>2016-04-24T07:09:45Z</time>
      </trkpt>
      <trkpt lat="47.45278" lon="6.65059">
        <ele>309</ele>
        <time>2016-04-24T07:09:46Z</time>
      </trkpt>
      <trkpt lat="47.45278" lon="6.65048">
        <ele>309</ele>
        <time>2016-04-24T07:09:47Z</time>
      </trkpt>
      <trkpt lat="47.45277" lon="6.65036">
        <ele>309</ele>
        <time>2016-04-24T07:09:48Z</time>
      </trkpt>
      <trkpt lat="47.45278" lon="6.65024">
        <ele>309</ele>
        <time>2016-04-24T07:09:49Z</time>
      </trkpt>
      <trkpt lat="47.45282" lon="6.65013">
        <ele>309</ele>
        <time>2016-04-24T07:09:50Z</time>
      </trkpt>
      <trkpt lat="47.45284" lon="6.65002">
        <ele>309</ele>
        <time>2016-04-24T07:09:51Z</time>
      </trkpt>
      <trkpt lat="47.45287" lon="6.64991">
        <ele>309</ele>
        <time>2016-04-24T07:09:52Z</time>
      </trkpt>
      <trkpt lat="47.45288" lon="6.64981">
        <ele>309</ele>
        <time>2016-04-24T07:09:53Z</time>
      </trkpt>
      <trkpt lat="47.45289" lon="6.64972">
        <ele>309</ele>
        <time>2016-04-24T07:09:54Z</time>
      </trkpt>
      <trkpt lat="47.4529" lon="6.64965">
        <ele>309</ele>
        <time>2016-04-24T07:09:55Z</time>
      </trkpt>
      <trkpt lat="47.45289" lon="6.64959">
        <ele>309</ele>
        <time>2016-04-24T07:09:56Z</time>
      </trkpt>
      <trkpt lat="47.45281" lon="6.64956">
        <ele>308</ele>
        <time>2016-04-24T07:09:57Z</time>
      </trkpt>
      <trkpt lat="47.45275" lon="6.64956">
        <ele>308</ele>
        <time>2016-04-24T07:09:58Z</time>
      </trkpt>
      <trkpt lat="47.45269" lon="6.64955">
        <ele>308</ele>
        <time>2016-04-24T07:09:59Z</time>
      </trkpt>
      <trkpt lat="47.45263" lon="6.64956">
        <ele>307</ele>
        <time>2016-04-24T07:10:00Z</time>
      </trkpt>
      <trkpt lat="47.45255" lon="6.64954">
        <ele>307</ele>
        <time>2016-04-24T07:10:01Z</time>
      </trkpt>
      <trkpt lat="47.45246" lon="6.64955">
        <ele>302</ele>
        <time>2016-04-24T07:10:02Z</time>
      </trkpt>
      <trkpt lat="47.45237" lon="6.64955">
        <ele>302</ele>
        <time>2016-04-24T07:10:03Z</time>
      </trkpt>
      <trkpt lat="47.45229" lon="6.64955">
        <ele>301</ele>
        <time>2016-04-24T07:10:04Z</time>
      </trkpt>
      <trkpt lat="47.45221" lon="6.64956">
        <ele>301</ele>
        <time>2016-04-24T07:10:05Z</time>
      </trkpt>
      <trkpt lat="47.45212" lon="6.64956">
        <ele>301</ele>
        <time>2016-04-24T07:10:06Z</time>
      </trkpt>
      <trkpt lat="47.45205" lon="6.64958">
        <ele>301</ele>
        <time>2016-04-24T07:10:07Z</time>
      </trkpt>
      <trkpt lat="47.45197" lon="6.6496">
        <ele>300</ele>
        <time>2016-04-24T07:10:08Z</time>
      </trkpt>
      <trkpt lat="47.4519" lon="6.64962">
        <ele>300</ele>
        <time>2016-04-24T07:10:09Z</time>
      </trkpt>
      <trkpt lat="47.45183" lon="6.64964">
        <ele>300</ele>
        <time>2016-04-24T07:10:10Z</time>
      </trkpt>
      <trkpt lat="47.45177" lon="6.64966">
        <ele>300</ele>
        <time>2016-04-24T07:10:11Z</time>
      </trkpt>
      <trkpt lat="47.45172" lon="6.64968">
        <ele>300</ele>
        <time>2016-04-24T07:10:12Z</time>
      </trkpt>
      <trkpt lat="47.45168" lon="6.64969">
        <ele>300</ele>
        <time>2016-04-24T07:10:13Z</time>
      </trkpt>
      <trkpt lat="47.45164" lon="6.6497">
        <ele>297</ele>
        <time>2016-04-24T07:10:14Z</time>
      </trkpt>
      <trkpt lat="47.45161" lon="6.64971">
        <ele>297</ele>
        <time>2016-04-24T07:10:15Z</time>
      </trkpt>
      <trkpt lat="47.45158" lon="6.64971">
        <ele>297</ele>
        <time>2016-04-24T07:10:16Z</time>
      </trkpt>
      <trkpt lat="47.45156" lon="6.6497">
        <ele>297</ele>
        <time>2016-04-24T07:10:17Z</time>
      </trkpt>
      <trkpt lat="47.45153" lon="6.64971">
        <ele>297</ele>
        <time>2016-04-24T07:10:18Z</time>
      </trkpt>
      <trkpt lat="47.45149" lon="6.64971">
        <ele>297</ele>
        <time>2016-04-24T07:10:19Z</time>
      </trkpt>
      <trkpt lat="47.45146" lon="6.64972">
        <ele>297</ele>
        <time>2016-04-24T07:10:20Z</time>
      </trkpt>
      <trkpt lat="47.45142" lon="6.64973">
        <ele>297</ele>
        <time>2016-04-24T07:10:21Z</time>
      </trkpt>
      <trkpt lat="47.45139" lon="6.64973">
        <ele>297</ele>
        <time>2016-04-24T07:10:22Z</time>
      </trkpt>
      <trkpt lat="47.45135" lon="6.64974">
        <ele>297</ele>
        <time>2016-04-24T07:10:23Z</time>
      </trkpt>
      <trkpt lat="47.45131" lon="6.64975">
        <ele>297</ele>
        <time>2016-04-24T07:10:24Z</time>
      </trkpt>
      <trkpt lat="47.45128" lon="6.64975">
        <ele>297</ele>
        <time>2016-04-24T07:10:25Z</time>
      </trkpt>
      <trkpt lat="47.45124" lon="6.64976">
        <ele>297</ele>
        <time>2016-04-24T07:10:26Z</time>
      </trkpt>
      <trkpt lat="47.4512" lon="6.64976">
        <ele>297</ele>
        <time>2016-04-24T07:10:27Z</time>
      </trkpt>
      <trkpt lat="47.45115" lon="6.64977">
        <ele>297</ele>
        <time>2016-04-24T07:10:28Z</time>
      </trkpt>
      <trkpt lat="47.45111" lon="6.64978">
        <ele>297</ele>
        <time>2016-04-24T07:10:29Z</time>
      </trkpt>
      <trkpt lat="47.45107" lon="6.64979">
        <ele>297</ele>
        <time>2016-04-24T07:10:30Z</time>
      </trkpt>
      <trkpt lat="47.45102" lon="6.6498">
        <ele>297</ele>
        <time>2016-04-24T07:10:31Z</time>
      </trkpt>
      <trkpt lat="47.45097" lon="6.64982">
        <ele>297</ele>
        <time>2016-04-24T07:10:32Z</time>
      </trkpt>
      <trkpt lat="47.45093" lon="6.64983">
        <ele>297</ele>
        <time>2016-04-24T07:10:33Z</time>
      </trkpt>
      <trkpt lat="47.45089" lon="6.64983">
        <ele>297</ele>
        <time>2016-04-24T07:10:34Z</time>
      </trkpt>
      <trkpt lat="47.45083" lon="6.64983">
        <ele>297</ele>
        <time>2016-04-24T07:10:35Z</time>
      </trkpt>
      <trkpt lat="47.45077" lon="6.64983">
        <ele>296</ele>
        <time>2016-04-24T07:10:36Z</time>
      </trkpt>
      <trkpt lat="47.45072" lon="6.64985">
        <ele>296</ele>
        <time>2016-04-24T07:10:37Z</time>
      </trkpt>
      <trkpt lat="47.45067" lon="6.64986">
        <ele>296</ele>
        <time>2016-04-24T07:10:38Z</time>
      </trkpt>
      <trkpt lat="47.45061" lon="6.64987">
        <ele>296</ele>
        <time>2016-04-24T07:10:39Z</time>
      </trkpt>
      <trkpt lat="47.45056" lon="6.64988">
        <ele>296</ele>
        <time>2016-04-24T07:10:40Z</time>
      </trkpt>
      <trkpt lat="47.4505" lon="6.64989">
        <ele>296</ele>
        <time>2016-04-24T07:10:41Z</time>
      </trkpt>
      <trkpt lat="47.45045" lon="6.6499">
        <ele>296</ele>
        <time>2016-04-24T07:10:42Z</time>
      </trkpt>
      <trkpt lat="47.45039" lon="6.64991">
        <ele>296</ele>
        <time>2016-04-24T07:10:43Z</time>
      </trkpt>
      <trkpt lat="47.45035" lon="6.64992">
        <ele>296</ele>
        <time>2016-04-24T07:10:44Z</time>
      </trkpt>
      <trkpt lat="47.4503" lon="6.64992">
        <ele>296</ele>
        <time>2016-04-24T07:10:45Z</time>
      </trkpt>
      <trkpt lat="47.45025" lon="6.64993">
        <ele>296</ele>
        <time>2016-04-24T07:10:46Z</time>
      </trkpt>
      <trkpt lat="47.4502" lon="6.64994">
        <ele>296</ele>
        <time>2016-04-24T07:10:47Z</time>
      </trkpt>
      <trkpt lat="47.45014" lon="6.64995">
        <ele>297</ele>
        <time>2016-04-24T07:10:48Z</time>
      </trkpt>
      <trkpt lat="47.45009" lon="6.64996">
        <ele>297</ele>
        <time>2016-04-24T07:10:49Z</time>
      </trkpt>
      <trkpt lat="47.45004" lon="6.64997">
        <ele>297</ele>
        <time>2016-04-24T07:10:50Z</time>
      </trkpt>
      <trkpt lat="47.44999" lon="6.64998">
        <ele>297</ele>
        <time>2016-04-24T07:10:51Z</time>
      </trkpt>
      <trkpt lat="47.44995" lon="6.64998">
        <ele>297</ele>
        <time>2016-04-24T07:10:52Z</time>
      </trkpt>
      <trkpt lat="47.44989" lon="6.65">
        <ele>297</ele>
        <time>2016-04-24T07:10:53Z</time>
      </trkpt>
      <trkpt lat="47.44984" lon="6.65001">
        <ele>298</ele>
        <time>2016-04-24T07:10:54Z</time>
      </trkpt>
      <trkpt lat="47.4498" lon="6.65">
        <ele>298</ele>
        <time>2016-04-24T07:10:55Z</time>
      </trkpt>
      <trkpt lat="47.44976" lon="6.65">
        <ele>297</ele>
        <time>2016-04-24T07:10:56Z</time>
      </trkpt>
      <trkpt lat="47.44971" lon="6.64998">
        <ele>297</ele>
        <time>2016-04-24T07:10:57Z</time>
      </trkpt>
      <trkpt lat="47.44969" lon="6.64995">
        <ele>297</ele>
        <time>2016-04-24T07:10:58Z</time>
      </trkpt>
      <trkpt lat="47.44962" lon="6.64998">
        <ele>297</ele>
        <time>2016-04-24T07:10:59Z</time>
      </trkpt>
      <trkpt lat="47.44956" lon="6.64998">
        <ele>297</ele>
        <time>2016-04-24T07:11:00Z</time>
      </trkpt>
      <trkpt lat="47.44949" lon="6.64998">
        <ele>297</ele>
        <time>2016-04-24T07:11:01Z</time>
      </trkpt>
      <trkpt lat="47.44942" lon="6.64997">
        <ele>297</ele>
        <time>2016-04-24T07:11:02Z</time>
      </trkpt>
      <trkpt lat="47.44935" lon="6.64995">
        <ele>297</ele>
        <time>2016-04-24T07:11:03Z</time>
      </trkpt>
      <trkpt lat="47.44928" lon="6.64992">
        <ele>297</ele>
        <time>2016-04-24T07:11:04Z</time>
      </trkpt>
      <trkpt lat="47.44921" lon="6.6499">
        <ele>298</ele>
        <time>2016-04-24T07:11:05Z</time>
      </trkpt>
      <trkpt lat="47.44915" lon="6.64989">
        <ele>298</ele>
        <time>2016-04-24T07:11:06Z</time>
      </trkpt>
      <trkpt lat="47.44908" lon="6.64988">
        <ele>298</ele>
        <time>2016-04-24T07:11:07Z</time>
      </trkpt>
      <trkpt lat="47.44902" lon="6.64986">
        <ele>298</ele>
        <time>2016-04-24T07:11:08Z</time>
      </trkpt>
      <trkpt lat="47.44896" lon="6.64984">
        <ele>298</ele>
        <time>2016-04-24T07:11:09Z</time>
      </trkpt>
      <trkpt lat="47.4489" lon="6.64982">
        <ele>298</ele>
        <time>2016-04-24T07:11:10Z</time>
      </trkpt>
      <trkpt lat="47.44884" lon="6.6498">
        <ele>298</ele>
        <time>2016-04-24T07:11:11Z</time>
      </trkpt>
      <trkpt lat="47.44878" lon="6.64979">
        <ele>298</ele>
        <time>2016-04-24T07:11:12Z</time>
      </trkpt>
      <trkpt lat="47.44874" lon="6.64976">
        <ele>298</ele>
        <time>2016-04-24T07:11:13Z</time>
      </trkpt>
      <trkpt lat="47.44868" lon="6.64975">
        <ele>298</ele>
        <time>2016-04-24T07:11:14Z</time>
      </trkpt>
      <trkpt lat="47.44862" lon="6.64973">
        <ele>298</ele>
        <time>2016-04-24T07:11:15Z</time>
      </trkpt>
      <trkpt lat="47.44858" lon="6.64971">
        <ele>298</ele>
        <time>2016-04-24T07:11:16Z</time>
      </trkpt>
      <trkpt lat="47.44853" lon="6.6497">
        <ele>298</ele>
        <time>2016-04-24T07:11:17Z</time>
      </trkpt>
      <trkpt lat="47.44847" lon="6.64967">
        <ele>298</ele>
        <time>2016-04-24T07:11:18Z</time>
      </trkpt>
      <trkpt lat="47.44842" lon="6.64967">
        <ele>298</ele>
        <time>2016-04-24T07:11:19Z</time>
      </trkpt>
      <trkpt lat="47.44836" lon="6.64966">
        <ele>298</ele>
        <time>2016-04-24T07:11:20Z</time>
      </trkpt>
      <trkpt lat="47.44832" lon="6.64962">
        <ele>298</ele>
        <time>2016-04-24T07:11:21Z</time>
      </trkpt>
      <trkpt lat="47.44827" lon="6.64961">
        <ele>298</ele>
        <time>2016-04-24T07:11:22Z</time>
      </trkpt>
      <trkpt lat="47.44823" lon="6.6496">
        <ele>298</ele>
        <time>2016-04-24T07:11:23Z</time>
      </trkpt>
      <trkpt lat="47.44817" lon="6.64958">
        <ele>298</ele>
        <time>2016-04-24T07:11:24Z</time>
      </trkpt>
      <trkpt lat="47.44814" lon="6.64956">
        <ele>298</ele>
        <time>2016-04-24T07:11:25Z</time>
      </trkpt>
      <trkpt lat="47.44809" lon="6.64956">
        <ele>298</ele>
        <time>2016-04-24T07:11:26Z</time>
      </trkpt>
      <trkpt lat="47.44804" lon="6.64957">
        <ele>298</ele>
        <time>2016-04-24T07:11:27Z</time>
      </trkpt>
      <trkpt lat="47.44798" lon="6.64958">
        <ele>298</ele>
        <time>2016-04-24T07:11:28Z</time>
      </trkpt>
      <trkpt lat="47.44792" lon="6.64958">
        <ele>298</ele>
        <time>2016-04-24T07:11:29Z</time>
      </trkpt>
      <trkpt lat="47.44787" lon="6.64959">
        <ele>298</ele>
        <time>2016-04-24T07:11:30Z</time>
      </trkpt>
      <trkpt lat="47.44783" lon="6.6496">
        <ele>298</ele>
        <time>2016-04-24T07:11:31Z</time>
      </trkpt>
      <trkpt lat="47.44781" lon="6.6496">
        <ele>298</ele>
        <time>2016-04-24T07:11:32Z</time>
      </trkpt>
      <trkpt lat="47.44784" lon="6.64956">
        <ele>298</ele>
        <time>2016-04-24T07:11:35Z</time>
      </trkpt>
      <trkpt lat="47.44785" lon="6.64953">
        <ele>298</ele>
        <time>2016-04-24T07:11:36Z</time>
      </trkpt>
      <trkpt lat="47.44786" lon="6.64949">
        <ele>298</ele>
        <time>2016-04-24T07:11:37Z</time>
      </trkpt>
      <trkpt lat="47.44785" lon="6.6494">
        <ele>298</ele>
        <time>2016-04-24T07:11:38Z</time>
      </trkpt>
      <trkpt lat="47.44786" lon="6.64931">
        <ele>298</ele>
        <time>2016-04-24T07:11:39Z</time>
      </trkpt>
      <trkpt lat="47.44786" lon="6.64922">
        <ele>298</ele>
        <time>2016-04-24T07:11:40Z</time>
      </trkpt>
      <trkpt lat="47.44785" lon="6.64912">
        <ele>298</ele>
        <time>2016-04-24T07:11:41Z</time>
      </trkpt>
      <trkpt lat="47.44785" lon="6.64903">
        <ele>298</ele>
        <time>2016-04-24T07:11:42Z</time>
      </trkpt>
      <trkpt lat="47.44784" lon="6.64893">
        <ele>298</ele>
        <time>2016-04-24T07:11:43Z</time>
      </trkpt>
      <trkpt lat="47.44783" lon="6.64883">
        <ele>298</ele>
        <time>2016-04-24T07:11:44Z</time>
      </trkpt>
      <trkpt lat="47.44782" lon="6.64873">
        <ele>298</ele>
        <time>2016-04-24T07:11:45Z</time>
      </trkpt>
      <trkpt lat="47.44782" lon="6.64864">
        <ele>298</ele>
        <time>2016-04-24T07:11:46Z</time>
      </trkpt>
      <trkpt lat="47.44781" lon="6.64854">
        <ele>298</ele>
        <time>2016-04-24T07:11:47Z</time>
      </trkpt>
      <trkpt lat="47.4478" lon="6.64844">
        <ele>298</ele>
        <time>2016-04-24T07:11:48Z</time>
      </trkpt>
      <trkpt lat="47.4478" lon="6.64834">
        <ele>298</ele>
        <time>2016-04-24T07:11:49Z</time>
      </trkpt>
      <trkpt lat="47.44779" lon="6.64825">
        <ele>298</ele>
        <time>2016-04-24T07:11:50Z</time>
      </trkpt>
      <trkpt lat="47.44779" lon="6.64816">
        <ele>298</ele>
        <time>2016-04-24T07:11:51Z</time>
      </trkpt>
      <trkpt lat="47.44778" lon="6.64807">
        <ele>298</ele>
        <time>2016-04-24T07:11:52Z</time>
      </trkpt>
      <trkpt lat="47.44778" lon="6.64798">
        <ele>298</ele>
        <time>2016-04-24T07:11:53Z</time>
      </trkpt>
      <trkpt lat="47.44777" lon="6.64789">
        <ele>298</ele>
        <time>2016-04-24T07:11:54Z</time>
      </trkpt>
      <trkpt lat="47.44777" lon="6.6478">
        <ele>298</ele>
        <time>2016-04-24T07:11:55Z</time>
      </trkpt>
      <trkpt lat="47.44776" lon="6.64773">
        <ele>298</ele>
        <time>2016-04-24T07:11:56Z</time>
      </trkpt>
      <trkpt lat="47.44775" lon="6.64764">
        <ele>298</ele>
        <time>2016-04-24T07:11:57Z</time>
      </trkpt>
      <trkpt lat="47.44775" lon="6.64757">
        <ele>298</ele>
        <time>2016-04-24T07:11:58Z</time>
      </trkpt>
      <trkpt lat="47.44775" lon="6.64749">
        <ele>298</ele>
        <time>2016-04-24T07:11:59Z</time>
      </trkpt>
      <trkpt lat="47.44775" lon="6.64742">
        <ele>298</ele>
        <time>2016-04-24T07:12:00Z</time>
      </trkpt>
      <trkpt lat="47.44775" lon="6.64734">
        <ele>298</ele>
        <time>2016-04-24T07:12:01Z</time>
      </trkpt>
      <trkpt lat="47.44774" lon="6.64725">
        <ele>297</ele>
        <time>2016-04-24T07:12:02Z</time>
      </trkpt>
      <trkpt lat="47.44773" lon="6.64716">
        <ele>297</ele>
        <time>2016-04-24T07:12:03Z</time>
      </trkpt>
      <trkpt lat="47.44772" lon="6.64709">
        <ele>297</ele>
        <time>2016-04-24T07:12:04Z</time>
      </trkpt>
      <trkpt lat="47.44771" lon="6.64701">
        <ele>297</ele>
        <time>2016-04-24T07:12:05Z</time>
      </trkpt>
      <trkpt lat="47.44772" lon="6.64694">
        <ele>298</ele>
        <time>2016-04-24T07:12:06Z</time>
      </trkpt>
      <trkpt lat="47.44772" lon="6.64687">
        <ele>298</ele>
        <time>2016-04-24T07:12:07Z</time>
      </trkpt>
      <trkpt lat="47.44771" lon="6.64679">
        <ele>298</ele>
        <time>2016-04-24T07:12:08Z</time>
      </trkpt>
      <trkpt lat="47.44771" lon="6.6467">
        <ele>298</ele>
        <time>2016-04-24T07:12:09Z</time>
      </trkpt>
      <trkpt lat="47.4477" lon="6.64662">
        <ele>298</ele>
        <time>2016-04-24T07:12:10Z</time>
      </trkpt>
      <trkpt lat="47.44769" lon="6.64654">
        <ele>298</ele>
        <time>2016-04-24T07:12:11Z</time>
      </trkpt>
      <trkpt lat="47.44769" lon="6.64646">
        <ele>297</ele>
        <time>2016-04-24T07:12:12Z</time>
      </trkpt>
      <trkpt lat="47.44768" lon="6.64638">
        <ele>297</ele>
        <time>2016-04-24T07:12:13Z</time>
      </trkpt>
      <trkpt lat="47.44767" lon="6.6463">
        <ele>297</ele>
        <time>2016-04-24T07:12:14Z</time>
      </trkpt>
      <trkpt lat="47.44767" lon="6.64622">
        <ele>297</ele>
        <time>2016-04-24T07:12:15Z</time>
      </trkpt>
      <trkpt lat="47.44767" lon="6.64614">
        <ele>297</ele>
        <time>2016-04-24T07:12:16Z</time>
      </trkpt>
      <trkpt lat="47.44766" lon="6.64607">
        <ele>297</ele>
        <time>2016-04-24T07:12:17Z</time>
      </trkpt>
      <trkpt lat="47.44765" lon="6.64599">
        <ele>297</ele>
        <time>2016-04-24T07:12:18Z</time>
      </trkpt>
      <trkpt lat="47.44764" lon="6.64591">
        <ele>297</ele>
        <time>2016-04-24T07:12:19Z</time>
      </trkpt>
      <trkpt lat="47.44764" lon="6.64583">
        <ele>297</ele>
        <time>2016-04-24T07:12:20Z</time>
      </trkpt>
      <trkpt lat="47.44763" lon="6.64575">
        <ele>297</ele>
        <time>2016-04-24T07:12:21Z</time>
      </trkpt>
      <trkpt lat="47.44762" lon="6.64567">
        <ele>297</ele>
        <time>2016-04-24T07:12:22Z</time>
      </trkpt>
      <trkpt lat="47.44761" lon="6.64559">
        <ele>297</ele>
        <time>2016-04-24T07:12:23Z</time>
      </trkpt>
      <trkpt lat="47.44761" lon="6.64552">
        <ele>297</ele>
        <time>2016-04-24T07:12:24Z</time>
      </trkpt>
      <trkpt lat="47.4476" lon="6.64544">
        <ele>297</ele>
        <time>2016-04-24T07:12:25Z</time>
      </trkpt>
      <trkpt lat="47.44759" lon="6.64536">
        <ele>297</ele>
        <time>2016-04-24T07:12:26Z</time>
      </trkpt>
      <trkpt lat="47.44757" lon="6.64528">
        <ele>297</ele>
        <time>2016-04-24T07:12:27Z</time>
      </trkpt>
      <trkpt lat="47.44757" lon="6.6452">
        <ele>297</ele>
        <time>2016-04-24T07:12:28Z</time>
      </trkpt>
      <trkpt lat="47.44757" lon="6.64513">
        <ele>297</ele>
        <time>2016-04-24T07:12:29Z</time>
      </trkpt>
      <trkpt lat="47.44756" lon="6.64505">
        <ele>297</ele>
        <time>2016-04-24T07:12:30Z</time>
      </trkpt>
      <trkpt lat="47.44756" lon="6.64497">
        <ele>297</ele>
        <time>2016-04-24T07:12:31Z</time>
      </trkpt>
      <trkpt lat="47.44755" lon="6.64489">
        <ele>297</ele>
        <time>2016-04-24T07:12:32Z</time>
      </trkpt>
      <trkpt lat="47.44755" lon="6.64481">
        <ele>297</ele>
        <time>2016-04-24T07:12:33Z</time>
      </trkpt>
      <trkpt lat="47.44754" lon="6.64474">
        <ele>297</ele>
        <time>2016-04-24T07:12:34Z</time>
      </trkpt>
      <trkpt lat="47.44754" lon="6.64466">
        <ele>297</ele>
        <time>2016-04-24T07:12:35Z</time>
      </trkpt>
      <trkpt lat="47.44753" lon="6.64458">
        <ele>297</ele>
        <time>2016-04-24T07:12:36Z</time>
      </trkpt>
      <trkpt lat="47.44753" lon="6.64449">
        <ele>297</ele>
        <time>2016-04-24T07:12:37Z</time>
      </trkpt>
      <trkpt lat="47.44752" lon="6.64441">
        <ele>297</ele>
        <time>2016-04-24T07:12:38Z</time>
      </trkpt>
      <trkpt lat="47.44752" lon="6.64433">
        <ele>297</ele>
        <time>2016-04-24T07:12:39Z</time>
      </trkpt>
      <trkpt lat="47.44751" lon="6.64425">
        <ele>297</ele>
        <time>2016-04-24T07:12:40Z</time>
      </trkpt>
      <trkpt lat="47.44751" lon="6.64417">
        <ele>297</ele>
        <time>2016-04-24T07:12:41Z</time>
      </trkpt>
      <trkpt lat="47.4475" lon="6.64409">
        <ele>297</ele>
        <time>2016-04-24T07:12:42Z</time>
      </trkpt>
      <trkpt lat="47.44749" lon="6.64401">
        <ele>297</ele>
        <time>2016-04-24T07:12:43Z</time>
      </trkpt>
      <trkpt lat="47.44749" lon="6.64393">
        <ele>298</ele>
        <time>2016-04-24T07:12:44Z</time>
      </trkpt>
      <trkpt lat="47.44748" lon="6.64385">
        <ele>298</ele>
        <time>2016-04-24T07:12:45Z</time>
      </trkpt>
      <trkpt lat="47.44749" lon="6.64378">
        <ele>298</ele>
        <time>2016-04-24T07:12:46Z</time>
      </trkpt>
      <trkpt lat="47.44748" lon="6.6437">
        <ele>298</ele>
        <time>2016-04-24T07:12:47Z</time>
      </trkpt>
      <trkpt lat="47.44748" lon="6.64362">
        <ele>298</ele>
        <time>2016-04-24T07:12:48Z</time>
      </trkpt>
      <trkpt lat="47.44747" lon="6.64354">
        <ele>298</ele>
        <time>2016-04-24T07:12:49Z</time>
      </trkpt>
      <trkpt lat="47.44747" lon="6.64346">
        <ele>298</ele>
        <time>2016-04-24T07:12:50Z</time>
      </trkpt>
      <trkpt lat="47.44746" lon="6.64339">
        <ele>298</ele>
        <time>2016-04-24T07:12:51Z</time>
      </trkpt>
      <trkpt lat="47.44746" lon="6.64331">
        <ele>298</ele>
        <time>2016-04-24T07:12:52Z</time>
      </trkpt>
      <trkpt lat="47.44745" lon="6.64323">
        <ele>298</ele>
        <time>2016-04-24T07:12:53Z</time>
      </trkpt>
      <trkpt lat="47.44744" lon="6.64315">
        <ele>298</ele>
        <time>2016-04-24T07:12:54Z</time>
      </trkpt>
      <trkpt lat="47.44743" lon="6.64307">
        <ele>298</ele>
        <time>2016-04-24T07:12:55Z</time>
      </trkpt>
      <trkpt lat="47.44743" lon="6.643">
        <ele>298</ele>
        <time>2016-04-24T07:12:56Z</time>
      </trkpt>
      <trkpt lat="47.44742" lon="6.64292">
        <ele>298</ele>
        <time>2016-04-24T07:12:57Z</time>
      </trkpt>
      <trkpt lat="47.44741" lon="6.64283">
        <ele>298</ele>
        <time>2016-04-24T07:12:58Z</time>
      </trkpt>
      <trkpt lat="47.44741" lon="6.64275">
        <ele>298</ele>
        <time>2016-04-24T07:12:59Z</time>
      </trkpt>
      <trkpt lat="47.4474" lon="6.64267">
        <ele>298</ele>
        <time>2016-04-24T07:13:00Z</time>
      </trkpt>
      <trkpt lat="47.4474" lon="6.64259">
        <ele>298</ele>
        <time>2016-04-24T07:13:01Z</time>
      </trkpt>
      <trkpt lat="47.44739" lon="6.64251">
        <ele>298</ele>
        <time>2016-04-24T07:13:02Z</time>
      </trkpt>
      <trkpt lat="47.44739" lon="6.64243">
        <ele>298</ele>
        <time>2016-04-24T07:13:03Z</time>
      </trkpt>
      <trkpt lat="47.44738" lon="6.64235">
        <ele>298</ele>
        <time>2016-04-24T07:13:04Z</time>
      </trkpt>
      <trkpt lat="47.44736" lon="6.64226">
        <ele>297</ele>
        <time>2016-04-24T07:13:05Z</time>
      </trkpt>
      <trkpt lat="47.44736" lon="6.64218">
        <ele>297</ele>
        <time>2016-04-24T07:13:06Z</time>
      </trkpt>
      <trkpt lat="47.44735" lon="6.6421">
        <ele>297</ele>
        <time>2016-04-24T07:13:07Z</time>
      </trkpt>
      <trkpt lat="47.44734" lon="6.64201">
        <ele>297</ele>
        <time>2016-04-24T07:13:08Z</time>
      </trkpt>
      <trkpt lat="47.44733" lon="6.64193">
        <ele>297</ele>
        <time>2016-04-24T07:13:09Z</time>
      </trkpt>
      <trkpt lat="47.44733" lon="6.64186">
        <ele>297</ele>
        <time>2016-04-24T07:13:10Z</time>
      </trkpt>
      <trkpt lat="47.44733" lon="6.64178">
        <ele>297</ele>
        <time>2016-04-24T07:13:11Z</time>
      </trkpt>
      <trkpt lat="47.44732" lon="6.64171">
        <ele>297</ele>
        <time>2016-04-24T07:13:12Z</time>
      </trkpt>
      <trkpt lat="47.44732" lon="6.64163">
        <ele>297</ele>
        <time>2016-04-24T07:13:13Z</time>
      </trkpt>
      <trkpt lat="47.4473" lon="6.64155">
        <ele>297</ele>
        <time>2016-04-24T07:13:14Z</time>
      </trkpt>
      <trkpt lat="47.4473" lon="6.64147">
        <ele>297</ele>
        <time>2016-04-24T07:13:15Z</time>
      </trkpt>
      <trkpt lat="47.44729" lon="6.64139">
        <ele>297</ele>
        <time>2016-04-24T07:13:16Z</time>
      </trkpt>
      <trkpt lat="47.44728" lon="6.64131">
        <ele>297</ele>
        <time>2016-04-24T07:13:17Z</time>
      </trkpt>
      <trkpt lat="47.44727" lon="6.64123">
        <ele>297</ele>
        <time>2016-04-24T07:13:18Z</time>
      </trkpt>
      <trkpt lat="47.44726" lon="6.64115">
        <ele>297</ele>
        <time>2016-04-24T07:13:19Z</time>
      </trkpt>
      <trkpt lat="47.44726" lon="6.64108">
        <ele>297</ele>
        <time>2016-04-24T07:13:20Z</time>
      </trkpt>
      <trkpt lat="47.44725" lon="6.641">
        <ele>297</ele>
        <time>2016-04-24T07:13:21Z</time>
      </trkpt>
      <trkpt lat="47.44725" lon="6.64092">
        <ele>297</ele>
        <time>2016-04-24T07:13:22Z</time>
      </trkpt>
      <trkpt lat="47.44724" lon="6.64084">
        <ele>297</ele>
        <time>2016-04-24T07:13:23Z</time>
      </trkpt>
      <trkpt lat="47.44723" lon="6.64076">
        <ele>297</ele>
        <time>2016-04-24T07:13:24Z</time>
      </trkpt>
      <trkpt lat="47.44723" lon="6.64068">
        <ele>297</ele>
        <time>2016-04-24T07:13:25Z</time>
      </trkpt>
      <trkpt lat="47.44722" lon="6.6406">
        <ele>297</ele>
        <time>2016-04-24T07:13:26Z</time>
      </trkpt>
      <trkpt lat="47.44721" lon="6.64052">
        <ele>297</ele>
        <time>2016-04-24T07:13:27Z</time>
      </trkpt>
      <trkpt lat="47.44721" lon="6.64044">
        <ele>297</ele>
        <time>2016-04-24T07:13:28Z</time>
      </trkpt>
      <trkpt lat="47.4472" lon="6.64036">
        <ele>297</ele>
        <time>2016-04-24T07:13:29Z</time>
      </trkpt>
      <trkpt lat="47.44719" lon="6.64028">
        <ele>297</ele>
        <time>2016-04-24T07:13:30Z</time>
      </trkpt>
      <trkpt lat="47.44719" lon="6.64019">
        <ele>297</ele>
        <time>2016-04-24T07:13:31Z</time>
      </trkpt>
      <trkpt lat="47.44718" lon="6.64012">
        <ele>297</ele>
        <time>2016-04-24T07:13:32Z</time>
      </trkpt>
      <trkpt lat="47.44718" lon="6.64005">
        <ele>297</ele>
        <time>2016-04-24T07:13:33Z</time>
      </trkpt>
      <trkpt lat="47.44717" lon="6.63997">
        <ele>297</ele>
        <time>2016-04-24T07:13:34Z</time>
      </trkpt>
      <trkpt lat="47.44717" lon="6.63989">
        <ele>297</ele>
        <time>2016-04-24T07:13:35Z</time>
      </trkpt>
      <trkpt lat="47.44716" lon="6.63981">
        <ele>297</ele>
        <time>2016-04-24T07:13:36Z</time>
      </trkpt>
      <trkpt lat="47.44716" lon="6.63973">
        <ele>297</ele>
        <time>2016-04-24T07:13:37Z</time>
      </trkpt>
      <trkpt lat="47.44716" lon="6.63965">
        <ele>297</ele>
        <time>2016-04-24T07:13:38Z</time>
      </trkpt>
      <trkpt lat="47.44715" lon="6.63957">
        <ele>297</ele>
        <time>2016-04-24T07:13:39Z</time>
      </trkpt>
      <trkpt lat="47.44714" lon="6.63949">
        <ele>297</ele>
        <time>2016-04-24T07:13:40Z</time>
      </trkpt>
      <trkpt lat="47.44713" lon="6.63941">
        <ele>297</ele>
        <time>2016-04-24T07:13:41Z</time>
      </trkpt>
      <trkpt lat="47.44712" lon="6.63933">
        <ele>297</ele>
        <time>2016-04-24T07:13:42Z</time>
      </trkpt>
      <trkpt lat="47.44711" lon="6.63925">
        <ele>297</ele>
        <time>2016-04-24T07:13:43Z</time>
      </trkpt>
      <trkpt lat="47.4471" lon="6.63917">
        <ele>297</ele>
        <time>2016-04-24T07:13:44Z</time>
      </trkpt>
      <trkpt lat="47.4471" lon="6.6391">
        <ele>297</ele>
        <time>2016-04-24T07:13:45Z</time>
      </trkpt>
      <trkpt lat="47.44709" lon="6.63902">
        <ele>297</ele>
        <time>2016-04-24T07:13:46Z</time>
      </trkpt>
      <trkpt lat="47.44708" lon="6.63894">
        <ele>297</ele>
        <time>2016-04-24T07:13:47Z</time>
      </trkpt>
      <trkpt lat="47.44707" lon="6.63885">
        <ele>297</ele>
        <time>2016-04-24T07:13:48Z</time>
      </trkpt>
      <trkpt lat="47.44707" lon="6.63878">
        <ele>297</ele>
        <time>2016-04-24T07:13:49Z</time>
      </trkpt>
      <trkpt lat="47.44706" lon="6.6387">
        <ele>297</ele>
        <time>2016-04-24T07:13:50Z</time>
      </trkpt>
      <trkpt lat="47.44706" lon="6.63862">
        <ele>297</ele>
        <time>2016-04-24T07:13:51Z</time>
      </trkpt>
      <trkpt lat="47.44705" lon="6.63855">
        <ele>297</ele>
        <time>2016-04-24T07:13:52Z</time>
      </trkpt>
      <trkpt lat="47.44704" lon="6.63847">
        <ele>297</ele>
        <time>2016-04-24T07:13:53Z</time>
      </trkpt>
      <trkpt lat="47.44704" lon="6.63839">
        <ele>297</ele>
        <time>2016-04-24T07:13:54Z</time>
      </trkpt>
      <trkpt lat="47.44703" lon="6.63831">
        <ele>297</ele>
        <time>2016-04-24T07:13:55Z</time>
      </trkpt>
      <trkpt lat="47.44703" lon="6.63823">
        <ele>297</ele>
        <time>2016-04-24T07:13:56Z</time>
      </trkpt>
      <trkpt lat="47.44702" lon="6.63815">
        <ele>297</ele>
        <time>2016-04-24T07:13:57Z</time>
      </trkpt>
      <trkpt lat="47.44701" lon="6.63807">
        <ele>297</ele>
        <time>2016-04-24T07:13:58Z</time>
      </trkpt>
      <trkpt lat="47.44701" lon="6.638">
        <ele>297</ele>
        <time>2016-04-24T07:13:59Z</time>
      </trkpt>
      <trkpt lat="47.447" lon="6.63791">
        <ele>297</ele>
        <time>2016-04-24T07:14:00Z</time>
      </trkpt>
      <trkpt lat="47.44699" lon="6.63783">
        <ele>297</ele>
        <time>2016-04-24T07:14:01Z</time>
      </trkpt>
      <trkpt lat="47.44698" lon="6.63775">
        <ele>297</ele>
        <time>2016-04-24T07:14:02Z</time>
      </trkpt>
      <trkpt lat="47.44698" lon="6.63767">
        <ele>297</ele>
        <time>2016-04-24T07:14:03Z</time>
      </trkpt>
      <trkpt lat="47.44698" lon="6.63759">
        <ele>297</ele>
        <time>2016-04-24T07:14:04Z</time>
      </trkpt>
      <trkpt lat="47.44697" lon="6.6375">
        <ele>297</ele>
        <time>2016-04-24T07:14:05Z</time>
      </trkpt>
      <trkpt lat="47.44696" lon="6.63743">
        <ele>297</ele>
        <time>2016-04-24T07:14:06Z</time>
      </trkpt>
      <trkpt lat="47.44695" lon="6.63734">
        <ele>297</ele>
        <time>2016-04-24T07:14:07Z</time>
      </trkpt>
      <trkpt lat="47.44695" lon="6.63725">
        <ele>297</ele>
        <time>2016-04-24T07:14:08Z</time>
      </trkpt>
      <trkpt lat="47.44694" lon="6.63717">
        <ele>297</ele>
        <time>2016-04-24T07:14:09Z</time>
      </trkpt>
      <trkpt lat="47.44693" lon="6.63708">
        <ele>297</ele>
        <time>2016-04-24T07:14:10Z</time>
      </trkpt>
      <trkpt lat="47.44692" lon="6.637">
        <ele>297</ele>
        <time>2016-04-24T07:14:11Z</time>
      </trkpt>
      <trkpt lat="47.44692" lon="6.63692">
        <ele>297</ele>
        <time>2016-04-24T07:14:12Z</time>
      </trkpt>
      <trkpt lat="47.44691" lon="6.63685">
        <ele>297</ele>
        <time>2016-04-24T07:14:13Z</time>
      </trkpt>
      <trkpt lat="47.4469" lon="6.63676">
        <ele>297</ele>
        <time>2016-04-24T07:14:14Z</time>
      </trkpt>
      <trkpt lat="47.44689" lon="6.63669">
        <ele>297</ele>
        <time>2016-04-24T07:14:15Z</time>
      </trkpt>
      <trkpt lat="47.44689" lon="6.63661">
        <ele>297</ele>
        <time>2016-04-24T07:14:16Z</time>
      </trkpt>
      <trkpt lat="47.44688" lon="6.63653">
        <ele>297</ele>
        <time>2016-04-24T07:14:17Z</time>
      </trkpt>
      <trkpt lat="47.44688" lon="6.63645">
        <ele>297</ele>
        <time>2016-04-24T07:14:18Z</time>
      </trkpt>
      <trkpt lat="47.44688" lon="6.63637">
        <ele>297</ele>
        <time>2016-04-24T07:14:19Z</time>
      </trkpt>
      <trkpt lat="47.44687" lon="6.6363">
        <ele>297</ele>
        <time>2016-04-24T07:14:20Z</time>
      </trkpt>
      <trkpt lat="47.44687" lon="6.63621">
        <ele>297</ele>
        <time>2016-04-24T07:14:21Z</time>
      </trkpt>
      <trkpt lat="47.44686" lon="6.63613">
        <ele>297</ele>
        <time>2016-04-24T07:14:22Z</time>
      </trkpt>
      <trkpt lat="47.44685" lon="6.63606">
        <ele>297</ele>
        <time>2016-04-24T07:14:23Z</time>
      </trkpt>
      <trkpt lat="47.44685" lon="6.63597">
        <ele>297</ele>
        <time>2016-04-24T07:14:24Z</time>
      </trkpt>
      <trkpt lat="47.44684" lon="6.63588">
        <ele>297</ele>
        <time>2016-04-24T07:14:25Z</time>
      </trkpt>
      <trkpt lat="47.44683" lon="6.6358">
        <ele>297</ele>
        <time>2016-04-24T07:14:26Z</time>
      </trkpt>
      <trkpt lat="47.44683" lon="6.63571">
        <ele>297</ele>
        <time>2016-04-24T07:14:27Z</time>
      </trkpt>
      <trkpt lat="47.44682" lon="6.63563">
        <ele>297</ele>
        <time>2016-04-24T07:14:28Z</time>
      </trkpt>
      <trkpt lat="47.44681" lon="6.63555">
        <ele>297</ele>
        <time>2016-04-24T07:14:29Z</time>
      </trkpt>
      <trkpt lat="47.44681" lon="6.63547">
        <ele>297</ele>
        <time>2016-04-24T07:14:30Z</time>
      </trkpt>
      <trkpt lat="47.4468" lon="6.63539">
        <ele>297</ele>
        <time>2016-04-24T07:14:31Z</time>
      </trkpt>
      <trkpt lat="47.4468" lon="6.63531">
        <ele>297</ele>
        <time>2016-04-24T07:14:32Z</time>
      </trkpt>
      <trkpt lat="47.44679" lon="6.63523">
        <ele>297</ele>
        <time>2016-04-24T07:14:33Z</time>
      </trkpt>
      <trkpt lat="47.44679" lon="6.63515">
        <ele>297</ele>
        <time>2016-04-24T07:14:34Z</time>
      </trkpt>
      <trkpt lat="47.44678" lon="6.63507">
        <ele>297</ele>
        <time>2016-04-24T07:14:35Z</time>
      </trkpt>
      <trkpt lat="47.44677" lon="6.63499">
        <ele>297</ele>
        <time>2016-04-24T07:14:36Z</time>
      </trkpt>
      <trkpt lat="47.44677" lon="6.63491">
        <ele>297</ele>
        <time>2016-04-24T07:14:37Z</time>
      </trkpt>
      <trkpt lat="47.44676" lon="6.63483">
        <ele>296</ele>
        <time>2016-04-24T07:14:38Z</time>
      </trkpt>
      <trkpt lat="47.44676" lon="6.63474">
        <ele>296</ele>
        <time>2016-04-24T07:14:39Z</time>
      </trkpt>
      <trkpt lat="47.44675" lon="6.63466">
        <ele>296</ele>
        <time>2016-04-24T07:14:40Z</time>
      </trkpt>
      <trkpt lat="47.44674" lon="6.63457">
        <ele>296</ele>
        <time>2016-04-24T07:14:41Z</time>
      </trkpt>
      <trkpt lat="47.44673" lon="6.63449">
        <ele>296</ele>
        <time>2016-04-24T07:14:42Z</time>
      </trkpt>
      <trkpt lat="47.44673" lon="6.63441">
        <ele>296</ele>
        <time>2016-04-24T07:14:43Z</time>
      </trkpt>
      <trkpt lat="47.44672" lon="6.63433">
        <ele>296</ele>
        <time>2016-04-24T07:14:44Z</time>
      </trkpt>
      <trkpt lat="47.44671" lon="6.63425">
        <ele>296</ele>
        <time>2016-04-24T07:14:45Z</time>
      </trkpt>
      <trkpt lat="47.4467" lon="6.63417">
        <ele>296</ele>
        <time>2016-04-24T07:14:46Z</time>
      </trkpt>
      <trkpt lat="47.44669" lon="6.63409">
        <ele>296</ele>
        <time>2016-04-24T07:14:47Z</time>
      </trkpt>
      <trkpt lat="47.44669" lon="6.63401">
        <ele>296</ele>
        <time>2016-04-24T07:14:48Z</time>
      </trkpt>
      <trkpt lat="47.44668" lon="6.63393">
        <ele>296</ele>
        <time>2016-04-24T07:14:49Z</time>
      </trkpt>
      <trkpt lat="47.44668" lon="6.63385">
        <ele>296</ele>
        <time>2016-04-24T07:14:50Z</time>
      </trkpt>
      <trkpt lat="47.44667" lon="6.63378">
        <ele>296</ele>
        <time>2016-04-24T07:14:51Z</time>
      </trkpt>
      <trkpt lat="47.44667" lon="6.63371">
        <ele>296</ele>
        <time>2016-04-24T07:14:52Z</time>
      </trkpt>
      <trkpt lat="47.44667" lon="6.63363">
        <ele>296</ele>
        <time>2016-04-24T07:14:53Z</time>
      </trkpt>
      <trkpt lat="47.44666" lon="6.63354">
        <ele>298</ele>
        <time>2016-04-24T07:14:54Z</time>
      </trkpt>
      <trkpt lat="47.44665" lon="6.63346">
        <ele>298</ele>
        <time>2016-04-24T07:14:55Z</time>
      </trkpt>
      <trkpt lat="47.44665" lon="6.63338">
        <ele>297</ele>
        <time>2016-04-24T07:14:56Z</time>
      </trkpt>
      <trkpt lat="47.44664" lon="6.63331">
        <ele>297</ele>
        <time>2016-04-24T07:14:57Z</time>
      </trkpt>
      <trkpt lat="47.44663" lon="6.63323">
        <ele>298</ele>
        <time>2016-04-24T07:14:58Z</time>
      </trkpt>
      <trkpt lat="47.44663" lon="6.63315">
        <ele>298</ele>
        <time>2016-04-24T07:14:59Z</time>
      </trkpt>
      <trkpt lat="47.44663" lon="6.63307">
        <ele>298</ele>
        <time>2016-04-24T07:15:00Z</time>
      </trkpt>
      <trkpt lat="47.44663" lon="6.633">
        <ele>298</ele>
        <time>2016-04-24T07:15:01Z</time>
      </trkpt>
      <trkpt lat="47.44662" lon="6.63291">
        <ele>298</ele>
        <time>2016-04-24T07:15:02Z</time>
      </trkpt>
      <trkpt lat="47.44662" lon="6.63284">
        <ele>298</ele>
        <time>2016-04-24T07:15:03Z</time>
      </trkpt>
      <trkpt lat="47.44662" lon="6.63276">
        <ele>298</ele>
        <time>2016-04-24T07:15:04Z</time>
      </trkpt>
      <trkpt lat="47.44661" lon="6.63267">
        <ele>297</ele>
        <time>2016-04-24T07:15:05Z</time>
      </trkpt>
      <trkpt lat="47.44661" lon="6.63259">
        <ele>297</ele>
        <time>2016-04-24T07:15:06Z</time>
      </trkpt>
      <trkpt lat="47.4466" lon="6.6325">
        <ele>297</ele>
        <time>2016-04-24T07:15:07Z</time>
      </trkpt>
      <trkpt lat="47.4466" lon="6.63242">
        <ele>297</ele>
        <time>2016-04-24T07:15:08Z</time>
      </trkpt>
      <trkpt lat="47.44659" lon="6.63234">
        <ele>297</ele>
        <time>2016-04-24T07:15:09Z</time>
      </trkpt>
      <trkpt lat="47.44658" lon="6.63226">
        <ele>298</ele>
        <time>2016-04-24T07:15:10Z</time>
      </trkpt>
      <trkpt lat="47.44657" lon="6.63218">
        <ele>298</ele>
        <time>2016-04-24T07:15:11Z</time>
      </trkpt>
      <trkpt lat="47.44656" lon="6.6321">
        <ele>298</ele>
        <time>2016-04-24T07:15:12Z</time>
      </trkpt>
      <trkpt lat="47.44655" lon="6.63202">
        <ele>298</ele>
        <time>2016-04-24T07:15:13Z</time>
      </trkpt>
      <trkpt lat="47.44655" lon="6.63194">
        <ele>297</ele>
        <time>2016-04-24T07:15:14Z</time>
      </trkpt>
      <trkpt lat="47.44654" lon="6.63186">
        <ele>297</ele>
        <time>2016-04-24T07:15:15Z</time>
      </trkpt>
      <trkpt lat="47.44654" lon="6.63179">
        <ele>297</ele>
        <time>2016-04-24T07:15:16Z</time>
      </trkpt>
      <trkpt lat="47.44653" lon="6.63171">
        <ele>296</ele>
        <time>2016-04-24T07:15:17Z</time>
      </trkpt>
      <trkpt lat="47.44652" lon="6.63164">
        <ele>297</ele>
        <time>2016-04-24T07:15:18Z</time>
      </trkpt>
      <trkpt lat="47.44651" lon="6.63156">
        <ele>297</ele>
        <time>2016-04-24T07:15:19Z</time>
      </trkpt>
      <trkpt lat="47.44647" lon="6.63147">
        <ele>298</ele>
        <time>2016-04-24T07:15:20Z</time>
      </trkpt>
      <trkpt lat="47.44646" lon="6.6314">
        <ele>298</ele>
        <time>2016-04-24T07:15:21Z</time>
      </trkpt>
      <trkpt lat="47.44644" lon="6.63134">
        <ele>298</ele>
        <time>2016-04-24T07:15:22Z</time>
      </trkpt>
      <trkpt lat="47.44641" lon="6.63128">
        <ele>298</ele>
        <time>2016-04-24T07:15:23Z</time>
      </trkpt>
      <trkpt lat="47.44638" lon="6.63121">
        <ele>299</ele>
        <time>2016-04-24T07:15:24Z</time>
      </trkpt>
      <trkpt lat="47.44635" lon="6.63116">
        <ele>299</ele>
        <time>2016-04-24T07:15:25Z</time>
      </trkpt>
      <trkpt lat="47.44632" lon="6.6311">
        <ele>299</ele>
        <time>2016-04-24T07:15:26Z</time>
      </trkpt>
      <trkpt lat="47.44629" lon="6.63104">
        <ele>299</ele>
        <time>2016-04-24T07:15:27Z</time>
      </trkpt>
      <trkpt lat="47.44625" lon="6.63098">
        <ele>299</ele>
        <time>2016-04-24T07:15:28Z</time>
      </trkpt>
      <trkpt lat="47.44621" lon="6.63093">
        <ele>299</ele>
        <time>2016-04-24T07:15:29Z</time>
      </trkpt>
      <trkpt lat="47.44618" lon="6.63089">
        <ele>300</ele>
        <time>2016-04-24T07:15:30Z</time>
      </trkpt>
      <trkpt lat="47.44613" lon="6.63085">
        <ele>300</ele>
        <time>2016-04-24T07:15:31Z</time>
      </trkpt>
      <trkpt lat="47.44609" lon="6.6308">
        <ele>299</ele>
        <time>2016-04-24T07:15:32Z</time>
      </trkpt>
      <trkpt lat="47.44605" lon="6.63076">
        <ele>300</ele>
        <time>2016-04-24T07:15:33Z</time>
      </trkpt>
      <trkpt lat="47.44601" lon="6.63071">
        <ele>300</ele>
        <time>2016-04-24T07:15:34Z</time>
      </trkpt>
      <trkpt lat="47.44598" lon="6.63067">
        <ele>300</ele>
        <time>2016-04-24T07:15:35Z</time>
      </trkpt>
      <trkpt lat="47.44593" lon="6.63063">
        <ele>300</ele>
        <time>2016-04-24T07:15:36Z</time>
      </trkpt>
      <trkpt lat="47.44591" lon="6.6306">
        <ele>300</ele>
        <time>2016-04-24T07:15:37Z</time>
      </trkpt>
      <trkpt lat="47.44586" lon="6.63058">
        <ele>299</ele>
        <time>2016-04-24T07:15:38Z</time>
      </trkpt>
      <trkpt lat="47.44581" lon="6.63055">
        <ele>303</ele>
        <time>2016-04-24T07:15:39Z</time>
      </trkpt>
      <trkpt lat="47.44575" lon="6.63053">
        <ele>303</ele>
        <time>2016-04-24T07:15:40Z</time>
      </trkpt>
      <trkpt lat="47.44568" lon="6.63055">
        <ele>304</ele>
        <time>2016-04-24T07:15:41Z</time>
      </trkpt>
      <trkpt lat="47.44561" lon="6.63053">
        <ele>304</ele>
        <time>2016-04-24T07:15:42Z</time>
      </trkpt>
      <trkpt lat="47.44555" lon="6.63054">
        <ele>304</ele>
        <time>2016-04-24T07:15:43Z</time>
      </trkpt>
      <trkpt lat="47.4455" lon="6.63051">
        <ele>304</ele>
        <time>2016-04-24T07:15:44Z</time>
      </trkpt>
      <trkpt lat="47.44544" lon="6.63049">
        <ele>304</ele>
        <time>2016-04-24T07:15:45Z</time>
      </trkpt>
      <trkpt lat="47.4454" lon="6.63046">
        <ele>304</ele>
        <time>2016-04-24T07:15:46Z</time>
      </trkpt>
      <trkpt lat="47.44535" lon="6.63044">
        <ele>304</ele>
        <time>2016-04-24T07:15:47Z</time>
      </trkpt>
      <trkpt lat="47.44529" lon="6.63042">
        <ele>305</ele>
        <time>2016-04-24T07:15:48Z</time>
      </trkpt>
      <trkpt lat="47.44524" lon="6.63039">
        <ele>304</ele>
        <time>2016-04-24T07:15:49Z</time>
      </trkpt>
      <trkpt lat="47.44518" lon="6.63035">
        <ele>304</ele>
        <time>2016-04-24T07:15:50Z</time>
      </trkpt>
      <trkpt lat="47.44513" lon="6.63033">
        <ele>304</ele>
        <time>2016-04-24T07:15:51Z</time>
      </trkpt>
      <trkpt lat="47.44507" lon="6.6303">
        <ele>304</ele>
        <time>2016-04-24T07:15:52Z</time>
      </trkpt>
      <trkpt lat="47.44502" lon="6.63028">
        <ele>304</ele>
        <time>2016-04-24T07:15:53Z</time>
      </trkpt>
      <trkpt lat="47.44497" lon="6.63026">
        <ele>306</ele>
        <time>2016-04-24T07:15:54Z</time>
      </trkpt>
      <trkpt lat="47.44492" lon="6.63023">
        <ele>306</ele>
        <time>2016-04-24T07:15:55Z</time>
      </trkpt>
      <trkpt lat="47.44486" lon="6.6302">
        <ele>306</ele>
        <time>2016-04-24T07:15:56Z</time>
      </trkpt>
      <trkpt lat="47.44481" lon="6.63018">
        <ele>306</ele>
        <time>2016-04-24T07:15:57Z</time>
      </trkpt>
      <trkpt lat="47.44476" lon="6.63016">
        <ele>306</ele>
        <time>2016-04-24T07:15:58Z</time>
      </trkpt>
      <trkpt lat="47.44471" lon="6.63014">
        <ele>306</ele>
        <time>2016-04-24T07:15:59Z</time>
      </trkpt>
      <trkpt lat="47.44465" lon="6.63012">
        <ele>307</ele>
        <time>2016-04-24T07:16:00Z</time>
      </trkpt>
      <trkpt lat="47.4446" lon="6.6301">
        <ele>307</ele>
        <time>2016-04-24T07:16:01Z</time>
      </trkpt>
      <trkpt lat="47.44454" lon="6.63007">
        <ele>307</ele>
        <time>2016-04-24T07:16:02Z</time>
      </trkpt>
      <trkpt lat="47.44449" lon="6.63005">
        <ele>307</ele>
        <time>2016-04-24T07:16:03Z</time>
      </trkpt>
      <trkpt lat="47.44444" lon="6.63002">
        <ele>307</ele>
        <time>2016-04-24T07:16:04Z</time>
      </trkpt>
      <trkpt lat="47.44439" lon="6.62999">
        <ele>302</ele>
        <time>2016-04-24T07:16:05Z</time>
      </trkpt>
      <trkpt lat="47.44434" lon="6.62997">
        <ele>302</ele>
        <time>2016-04-24T07:16:06Z</time>
      </trkpt>
      <trkpt lat="47.44429" lon="6.62995">
        <ele>303</ele>
        <time>2016-04-24T07:16:07Z</time>
      </trkpt>
      <trkpt lat="47.44424" lon="6.62993">
        <ele>303</ele>
        <time>2016-04-24T07:16:08Z</time>
      </trkpt>
      <trkpt lat="47.44419" lon="6.6299">
        <ele>303</ele>
        <time>2016-04-24T07:16:09Z</time>
      </trkpt>
      <trkpt lat="47.44414" lon="6.62988">
        <ele>304</ele>
        <time>2016-04-24T07:16:10Z</time>
      </trkpt>
      <trkpt lat="47.44409" lon="6.62985">
        <ele>304</ele>
        <time>2016-04-24T07:16:11Z</time>
      </trkpt>
      <trkpt lat="47.44403" lon="6.62983">
        <ele>304</ele>
        <time>2016-04-24T07:16:12Z</time>
      </trkpt>
      <trkpt lat="47.44398" lon="6.6298">
        <ele>304</ele>
        <time>2016-04-24T07:16:13Z</time>
      </trkpt>
      <trkpt lat="47.44393" lon="6.62977">
        <ele>304</ele>
        <time>2016-04-24T07:16:14Z</time>
      </trkpt>
      <trkpt lat="47.44388" lon="6.62975">
        <ele>304</ele>
        <time>2016-04-24T07:16:15Z</time>
      </trkpt>
      <trkpt lat="47.44383" lon="6.62972">
        <ele>304</ele>
        <time>2016-04-24T07:16:16Z</time>
      </trkpt>
      <trkpt lat="47.44378" lon="6.6297">
        <ele>304</ele>
        <time>2016-04-24T07:16:17Z</time>
      </trkpt>
      <trkpt lat="47.44372" lon="6.62968">
        <ele>304</ele>
        <time>2016-04-24T07:16:18Z</time>
      </trkpt>
      <trkpt lat="47.44367" lon="6.62965">
        <ele>304</ele>
        <time>2016-04-24T07:16:19Z</time>
      </trkpt>
      <trkpt lat="47.44362" lon="6.62963">
        <ele>304</ele>
        <time>2016-04-24T07:16:20Z</time>
      </trkpt>
      <trkpt lat="47.44357" lon="6.6296">
        <ele>304</ele>
        <time>2016-04-24T07:16:21Z</time>
      </trkpt>
      <trkpt lat="47.44352" lon="6.62958">
        <ele>304</ele>
        <time>2016-04-24T07:16:22Z</time>
      </trkpt>
      <trkpt lat="47.44347" lon="6.62956">
        <ele>303</ele>
        <time>2016-04-24T07:16:23Z</time>
      </trkpt>
      <trkpt lat="47.44342" lon="6.62954">
        <ele>303</ele>
        <time>2016-04-24T07:16:24Z</time>
      </trkpt>
      <trkpt lat="47.44337" lon="6.62951">
        <ele>303</ele>
        <time>2016-04-24T07:16:25Z</time>
      </trkpt>
      <trkpt lat="47.44332" lon="6.62948">
        <ele>305</ele>
        <time>2016-04-24T07:16:26Z</time>
      </trkpt>
      <trkpt lat="47.44327" lon="6.62946">
        <ele>304</ele>
        <time>2016-04-24T07:16:27Z</time>
      </trkpt>
      <trkpt lat="47.44322" lon="6.62944">
        <ele>304</ele>
        <time>2016-04-24T07:16:28Z</time>
      </trkpt>
      <trkpt lat="47.44317" lon="6.62941">
        <ele>304</ele>
        <time>2016-04-24T07:16:29Z</time>
      </trkpt>
      <trkpt lat="47.44312" lon="6.62938">
        <ele>304</ele>
        <time>2016-04-24T07:16:30Z</time>
      </trkpt>
      <trkpt lat="47.44307" lon="6.62936">
        <ele>304</ele>
        <time>2016-04-24T07:16:31Z</time>
      </trkpt>
      <trkpt lat="47.44302" lon="6.62933">
        <ele>305</ele>
        <time>2016-04-24T07:16:32Z</time>
      </trkpt>
      <trkpt lat="47.44297" lon="6.62931">
        <ele>305</ele>
        <time>2016-04-24T07:16:33Z</time>
      </trkpt>
      <trkpt lat="47.44292" lon="6.62931">
        <ele>305</ele>
        <time>2016-04-24T07:16:34Z</time>
      </trkpt>
      <trkpt lat="47.44286" lon="6.62929">
        <ele>305</ele>
        <time>2016-04-24T07:16:35Z</time>
      </trkpt>
      <trkpt lat="47.44281" lon="6.62927">
        <ele>305</ele>
        <time>2016-04-24T07:16:36Z</time>
      </trkpt>
      <trkpt lat="47.44276" lon="6.62925">
        <ele>305</ele>
        <time>2016-04-24T07:16:37Z</time>
      </trkpt>
      <trkpt lat="47.44271" lon="6.62923">
        <ele>305</ele>
        <time>2016-04-24T07:16:38Z</time>
      </trkpt>
      <trkpt lat="47.44265" lon="6.62922">
        <ele>305</ele>
        <time>2016-04-24T07:16:39Z</time>
      </trkpt>
      <trkpt lat="47.4426" lon="6.6292">
        <ele>305</ele>
        <time>2016-04-24T07:16:40Z</time>
      </trkpt>
      <trkpt lat="47.44255" lon="6.62918">
        <ele>304</ele>
        <time>2016-04-24T07:16:41Z</time>
      </trkpt>
      <trkpt lat="47.44249" lon="6.62916">
        <ele>304</ele>
        <time>2016-04-24T07:16:42Z</time>
      </trkpt>
      <trkpt lat="47.44244" lon="6.62914">
        <ele>303</ele>
        <time>2016-04-24T07:16:43Z</time>
      </trkpt>
      <trkpt lat="47.4424" lon="6.62912">
        <ele>303</ele>
        <time>2016-04-24T07:16:44Z</time>
      </trkpt>
      <trkpt lat="47.44234" lon="6.62911">
        <ele>302</ele>
        <time>2016-04-24T07:16:45Z</time>
      </trkpt>
      <trkpt lat="47.44229" lon="6.62909">
        <ele>302</ele>
        <time>2016-04-24T07:16:46Z</time>
      </trkpt>
      <trkpt lat="47.44224" lon="6.62906">
        <ele>302</ele>
        <time>2016-04-24T07:16:47Z</time>
      </trkpt>
      <trkpt lat="47.44219" lon="6.62904">
        <ele>301</ele>
        <time>2016-04-24T07:16:48Z</time>
      </trkpt>
      <trkpt lat="47.44214" lon="6.62902">
        <ele>301</ele>
        <time>2016-04-24T07:16:49Z</time>
      </trkpt>
      <trkpt lat="47.44208" lon="6.629">
        <ele>301</ele>
        <time>2016-04-24T07:16:50Z</time>
      </trkpt>
      <trkpt lat="47.44203" lon="6.62898">
        <ele>301</ele>
        <time>2016-04-24T07:16:51Z</time>
      </trkpt>
      <trkpt lat="47.44198" lon="6.62897">
        <ele>301</ele>
        <time>2016-04-24T07:16:52Z</time>
      </trkpt>
      <trkpt lat="47.44192" lon="6.62896">
        <ele>301</ele>
        <time>2016-04-24T07:16:53Z</time>
      </trkpt>
      <trkpt lat="47.44187" lon="6.62897">
        <ele>302</ele>
        <time>2016-04-24T07:16:54Z</time>
      </trkpt>
      <trkpt lat="47.44182" lon="6.62897">
        <ele>302</ele>
        <time>2016-04-24T07:16:55Z</time>
      </trkpt>
      <trkpt lat="47.44176" lon="6.62898">
        <ele>302</ele>
        <time>2016-04-24T07:16:56Z</time>
      </trkpt>
      <trkpt lat="47.44171" lon="6.62898">
        <ele>302</ele>
        <time>2016-04-24T07:16:57Z</time>
      </trkpt>
      <trkpt lat="47.44166" lon="6.62897">
        <ele>302</ele>
        <time>2016-04-24T07:16:58Z</time>
      </trkpt>
      <trkpt lat="47.4416" lon="6.62895">
        <ele>302</ele>
        <time>2016-04-24T07:16:59Z</time>
      </trkpt>
      <trkpt lat="47.44155" lon="6.62894">
        <ele>301</ele>
        <time>2016-04-24T07:17:00Z</time>
      </trkpt>
      <trkpt lat="47.4415" lon="6.62892">
        <ele>301</ele>
        <time>2016-04-24T07:17:01Z</time>
      </trkpt>
      <trkpt lat="47.44144" lon="6.62891">
        <ele>301</ele>
        <time>2016-04-24T07:17:02Z</time>
      </trkpt>
      <trkpt lat="47.44139" lon="6.6289">
        <ele>301</ele>
        <time>2016-04-24T07:17:03Z</time>
      </trkpt>
      <trkpt lat="47.44134" lon="6.62888">
        <ele>300</ele>
        <time>2016-04-24T07:17:04Z</time>
      </trkpt>
      <trkpt lat="47.44129" lon="6.62887">
        <ele>300</ele>
        <time>2016-04-24T07:17:05Z</time>
      </trkpt>
      <trkpt lat="47.44124" lon="6.62885">
        <ele>300</ele>
        <time>2016-04-24T07:17:06Z</time>
      </trkpt>
      <trkpt lat="47.44118" lon="6.62884">
        <ele>300</ele>
        <time>2016-04-24T07:17:07Z</time>
      </trkpt>
      <trkpt lat="47.44114" lon="6.6288">
        <ele>300</ele>
        <time>2016-04-24T07:17:08Z</time>
      </trkpt>
      <trkpt lat="47.44109" lon="6.62879">
        <ele>300</ele>
        <time>2016-04-24T07:17:09Z</time>
      </trkpt>
      <trkpt lat="47.44104" lon="6.62877">
        <ele>299</ele>
        <time>2016-04-24T07:17:10Z</time>
      </trkpt>
      <trkpt lat="47.44098" lon="6.62874">
        <ele>299</ele>
        <time>2016-04-24T07:17:11Z</time>
      </trkpt>
      <trkpt lat="47.44093" lon="6.62872">
        <ele>299</ele>
        <time>2016-04-24T07:17:12Z</time>
      </trkpt>
      <trkpt lat="47.44087" lon="6.62868">
        <ele>299</ele>
        <time>2016-04-24T07:17:13Z</time>
      </trkpt>
      <trkpt lat="47.44083" lon="6.62863">
        <ele>297</ele>
        <time>2016-04-24T07:17:14Z</time>
      </trkpt>
      <trkpt lat="47.44078" lon="6.62859">
        <ele>297</ele>
        <time>2016-04-24T07:17:15Z</time>
      </trkpt>
      <trkpt lat="47.44073" lon="6.62856">
        <ele>297</ele>
        <time>2016-04-24T07:17:16Z</time>
      </trkpt>
      <trkpt lat="47.44068" lon="6.62853">
        <ele>297</ele>
        <time>2016-04-24T07:17:17Z</time>
      </trkpt>
      <trkpt lat="47.44063" lon="6.62849">
        <ele>297</ele>
        <time>2016-04-24T07:17:18Z</time>
      </trkpt>
      <trkpt lat="47.44058" lon="6.62847">
        <ele>297</ele>
        <time>2016-04-24T07:17:19Z</time>
      </trkpt>
      <trkpt lat="47.44052" lon="6.62845">
        <ele>297</ele>
        <time>2016-04-24T07:17:20Z</time>
      </trkpt>
      <trkpt lat="47.44047" lon="6.62844">
        <ele>297</ele>
        <time>2016-04-24T07:17:21Z</time>
      </trkpt>
      <trkpt lat="47.44042" lon="6.62842">
        <ele>296</ele>
        <time>2016-04-24T07:17:22Z</time>
      </trkpt>
      <trkpt lat="47.44037" lon="6.6284">
        <ele>296</ele>
        <time>2016-04-24T07:17:23Z</time>
      </trkpt>
      <trkpt lat="47.44032" lon="6.62838">
        <ele>296</ele>
        <time>2016-04-24T07:17:24Z</time>
      </trkpt>
      <trkpt lat="47.44026" lon="6.62836">
        <ele>296</ele>
        <time>2016-04-24T07:17:25Z</time>
      </trkpt>
      <trkpt lat="47.44021" lon="6.62833">
        <ele>294</ele>
        <time>2016-04-24T07:17:26Z</time>
      </trkpt>
      <trkpt lat="47.44016" lon="6.62831">
        <ele>294</ele>
        <time>2016-04-24T07:17:27Z</time>
      </trkpt>
      <trkpt lat="47.44011" lon="6.6283">
        <ele>294</ele>
        <time>2016-04-24T07:17:28Z</time>
      </trkpt>
      <trkpt lat="47.44005" lon="6.62828">
        <ele>294</ele>
        <time>2016-04-24T07:17:29Z</time>
      </trkpt>
      <trkpt lat="47.44" lon="6.62827">
        <ele>294</ele>
        <time>2016-04-24T07:17:30Z</time>
      </trkpt>
      <trkpt lat="47.43995" lon="6.62826">
        <ele>294</ele>
        <time>2016-04-24T07:17:31Z</time>
      </trkpt>
      <trkpt lat="47.43989" lon="6.62824">
        <ele>294</ele>
        <time>2016-04-24T07:17:32Z</time>
      </trkpt>
      <trkpt lat="47.43984" lon="6.62823">
        <ele>294</ele>
        <time>2016-04-24T07:17:33Z</time>
      </trkpt>
      <trkpt lat="47.4398" lon="6.62821">
        <ele>295</ele>
        <time>2016-04-24T07:17:34Z</time>
      </trkpt>
      <trkpt lat="47.43975" lon="6.62819">
        <ele>295</ele>
        <time>2016-04-24T07:17:35Z</time>
      </trkpt>
      <trkpt lat="47.4397" lon="6.62818">
        <ele>295</ele>
        <time>2016-04-24T07:17:36Z</time>
      </trkpt>
      <trkpt lat="47.43965" lon="6.62816">
        <ele>295</ele>
        <time>2016-04-24T07:17:37Z</time>
      </trkpt>
      <trkpt lat="47.4396" lon="6.62815">
        <ele>295</ele>
        <time>2016-04-24T07:17:38Z</time>
      </trkpt>
      <trkpt lat="47.43955" lon="6.62813">
        <ele>295</ele>
        <time>2016-04-24T07:17:39Z</time>
      </trkpt>
      <trkpt lat="47.43949" lon="6.62812">
        <ele>295</ele>
        <time>2016-04-24T07:17:40Z</time>
      </trkpt>
      <trkpt lat="47.43944" lon="6.62812">
        <ele>295</ele>
        <time>2016-04-24T07:17:41Z</time>
      </trkpt>
      <trkpt lat="47.4394" lon="6.62812">
        <ele>295</ele>
        <time>2016-04-24T07:17:42Z</time>
      </trkpt>
      <trkpt lat="47.43935" lon="6.62813">
        <ele>295</ele>
        <time>2016-04-24T07:17:43Z</time>
      </trkpt>
      <trkpt lat="47.4393" lon="6.62814">
        <ele>295</ele>
        <time>2016-04-24T07:17:44Z</time>
      </trkpt>
      <trkpt lat="47.43924" lon="6.62815">
        <ele>295</ele>
        <time>2016-04-24T07:17:45Z</time>
      </trkpt>
      <trkpt lat="47.4392" lon="6.62818">
        <ele>295</ele>
        <time>2016-04-24T07:17:46Z</time>
      </trkpt>
      <trkpt lat="47.43915" lon="6.62819">
        <ele>296</ele>
        <time>2016-04-24T07:17:47Z</time>
      </trkpt>
      <trkpt lat="47.4391" lon="6.62822">
        <ele>296</ele>
        <time>2016-04-24T07:17:48Z</time>
      </trkpt>
      <trkpt lat="47.43906" lon="6.62826">
        <ele>296</ele>
        <time>2016-04-24T07:17:49Z</time>
      </trkpt>
      <trkpt lat="47.43901" lon="6.62829">
        <ele>296</ele>
        <time>2016-04-24T07:17:50Z</time>
      </trkpt>
      <trkpt lat="47.43896" lon="6.62831">
        <ele>296</ele>
        <time>2016-04-24T07:17:51Z</time>
      </trkpt>
      <trkpt lat="47.43891" lon="6.62836">
        <ele>296</ele>
        <time>2016-04-24T07:17:52Z</time>
      </trkpt>
      <trkpt lat="47.43886" lon="6.62839">
        <ele>296</ele>
        <time>2016-04-24T07:17:53Z</time>
      </trkpt>
      <trkpt lat="47.43881" lon="6.62842">
        <ele>296</ele>
        <time>2016-04-24T07:17:54Z</time>
      </trkpt>
      <trkpt lat="47.43877" lon="6.62844">
        <ele>297</ele>
        <time>2016-04-24T07:17:55Z</time>
      </trkpt>
      <trkpt lat="47.43873" lon="6.62846">
        <ele>297</ele>
        <time>2016-04-24T07:17:56Z</time>
      </trkpt>
      <trkpt lat="47.43869" lon="6.62848">
        <ele>297</ele>
        <time>2016-04-24T07:17:57Z</time>
      </trkpt>
      <trkpt lat="47.43865" lon="6.6285">
        <ele>297</ele>
        <time>2016-04-24T07:17:58Z</time>
      </trkpt>
      <trkpt lat="47.43861" lon="6.62851">
        <ele>297</ele>
        <time>2016-04-24T07:17:59Z</time>
      </trkpt>
      <trkpt lat="47.43858" lon="6.62854">
        <ele>297</ele>
        <time>2016-04-24T07:18:00Z</time>
      </trkpt>
      <trkpt lat="47.43858" lon="6.62862">
        <ele>297</ele>
        <time>2016-04-24T07:18:01Z</time>
      </trkpt>
      <trkpt lat="47.43859" lon="6.62869">
        <ele>297</ele>
        <time>2016-04-24T07:18:02Z</time>
      </trkpt>
      <trkpt lat="47.43862" lon="6.62878">
        <ele>297</ele>
        <time>2016-04-24T07:18:03Z</time>
      </trkpt>
      <trkpt lat="47.43865" lon="6.62887">
        <ele>297</ele>
        <time>2016-04-24T07:18:04Z</time>
      </trkpt>
      <trkpt lat="47.43868" lon="6.62894">
        <ele>297</ele>
        <time>2016-04-24T07:18:05Z</time>
      </trkpt>
      <trkpt lat="47.4387" lon="6.629">
        <ele>297</ele>
        <time>2016-04-24T07:18:06Z</time>
      </trkpt>
      <trkpt lat="47.43873" lon="6.62906">
        <ele>297</ele>
        <time>2016-04-24T07:18:07Z</time>
      </trkpt>
      <trkpt lat="47.43875" lon="6.62913">
        <ele>297</ele>
        <time>2016-04-24T07:18:08Z</time>
      </trkpt>
      <trkpt lat="47.43877" lon="6.6292">
        <ele>297</ele>
        <time>2016-04-24T07:18:09Z</time>
      </trkpt>
      <trkpt lat="47.43878" lon="6.62927">
        <ele>297</ele>
        <time>2016-04-24T07:18:10Z</time>
      </trkpt>
      <trkpt lat="47.43879" lon="6.62935">
        <ele>297</ele>
        <time>2016-04-24T07:18:11Z</time>
      </trkpt>
      <trkpt lat="47.43878" lon="6.62942">
        <ele>297</ele>
        <time>2016-04-24T07:18:12Z</time>
      </trkpt>
      <trkpt lat="47.43876" lon="6.62949">
        <ele>297</ele>
        <time>2016-04-24T07:18:13Z</time>
      </trkpt>
      <trkpt lat="47.43876" lon="6.62955">
        <ele>297</ele>
        <time>2016-04-24T07:18:14Z</time>
      </trkpt>
      <trkpt lat="47.43875" lon="6.62961">
        <ele>297</ele>
        <time>2016-04-24T07:18:15Z</time>
      </trkpt>
      <trkpt lat="47.43873" lon="6.62969">
        <ele>297</ele>
        <time>2016-04-24T07:18:16Z</time>
      </trkpt>
      <trkpt lat="47.43872" lon="6.62977">
        <ele>297</ele>
        <time>2016-04-24T07:18:17Z</time>
      </trkpt>
      <trkpt lat="47.43872" lon="6.62984">
        <ele>297</ele>
        <time>2016-04-24T07:18:18Z</time>
      </trkpt>
      <trkpt lat="47.43871" lon="6.6299">
        <ele>297</ele>
        <time>2016-04-24T07:18:19Z</time>
      </trkpt>
      <trkpt lat="47.43871" lon="6.62998">
        <ele>297</ele>
        <time>2016-04-24T07:18:20Z</time>
      </trkpt>
      <trkpt lat="47.4387" lon="6.63005">
        <ele>297</ele>
        <time>2016-04-24T07:18:21Z</time>
      </trkpt>
      <trkpt lat="47.4387" lon="6.63013">
        <ele>297</ele>
        <time>2016-04-24T07:18:22Z</time>
      </trkpt>
      <trkpt lat="47.4387" lon="6.6302">
        <ele>297</ele>
        <time>2016-04-24T07:18:23Z</time>
      </trkpt>
      <trkpt lat="47.4387" lon="6.63028">
        <ele>297</ele>
        <time>2016-04-24T07:18:24Z</time>
      </trkpt>
      <trkpt lat="47.43871" lon="6.63035">
        <ele>297</ele>
        <time>2016-04-24T07:18:25Z</time>
      </trkpt>
      <trkpt lat="47.43871" lon="6.63041">
        <ele>297</ele>
        <time>2016-04-24T07:18:26Z</time>
      </trkpt>
      <trkpt lat="47.43871" lon="6.63048">
        <ele>298</ele>
        <time>2016-04-24T07:18:27Z</time>
      </trkpt>
      <trkpt lat="47.43871" lon="6.63055">
        <ele>298</ele>
        <time>2016-04-24T07:18:28Z</time>
      </trkpt>
      <trkpt lat="47.43872" lon="6.63062">
        <ele>298</ele>
        <time>2016-04-24T07:18:29Z</time>
      </trkpt>
      <trkpt lat="47.43873" lon="6.63069">
        <ele>298</ele>
        <time>2016-04-24T07:18:30Z</time>
      </trkpt>
      <trkpt lat="47.43874" lon="6.63076">
        <ele>298</ele>
        <time>2016-04-24T07:18:31Z</time>
      </trkpt>
      <trkpt lat="47.43874" lon="6.63083">
        <ele>298</ele>
        <time>2016-04-24T07:18:32Z</time>
      </trkpt>
      <trkpt lat="47.43875" lon="6.6309">
        <ele>298</ele>
        <time>2016-04-24T07:18:33Z</time>
      </trkpt>
      <trkpt lat="47.43875" lon="6.63097">
        <ele>298</ele>
        <time>2016-04-24T07:18:34Z</time>
      </trkpt>
      <trkpt lat="47.43877" lon="6.63103">
        <ele>298</ele>
        <time>2016-04-24T07:18:35Z</time>
      </trkpt>
      <trkpt lat="47.43877" lon="6.63109">
        <ele>298</ele>
        <time>2016-04-24T07:18:36Z</time>
      </trkpt>
      <trkpt lat="47.43878" lon="6.63115">
        <ele>298</ele>
        <time>2016-04-24T07:18:37Z</time>
      </trkpt>
      <trkpt lat="47.43879" lon="6.63122">
        <ele>298</ele>
        <time>2016-04-24T07:18:38Z</time>
      </trkpt>
      <trkpt lat="47.4388" lon="6.63127">
        <ele>298</ele>
        <time>2016-04-24T07:18:39Z</time>
      </trkpt>
      <trkpt lat="47.43877" lon="6.63134">
        <ele>298</ele>
        <time>2016-04-24T07:18:40Z</time>
      </trkpt>
      <trkpt lat="47.43874" lon="6.63138">
        <ele>298</ele>
        <time>2016-04-24T07:18:41Z</time>
      </trkpt>
      <trkpt lat="47.4387" lon="6.63142">
        <ele>298</ele>
        <time>2016-04-24T07:18:42Z</time>
      </trkpt>
      <trkpt lat="47.43866" lon="6.63144">
        <ele>298</ele>
        <time>2016-04-24T07:18:43Z</time>
      </trkpt>
      <trkpt lat="47.43862" lon="6.63147">
        <ele>298</ele>
        <time>2016-04-24T07:18:44Z</time>
      </trkpt>
      <trkpt lat="47.43859" lon="6.6315">
        <ele>298</ele>
        <time>2016-04-24T07:18:45Z</time>
      </trkpt>
      <trkpt lat="47.43855" lon="6.63153">
        <ele>298</ele>
        <time>2016-04-24T07:18:46Z</time>
      </trkpt>
      <trkpt lat="47.43851" lon="6.63154">
        <ele>298</ele>
        <time>2016-04-24T07:18:47Z</time>
      </trkpt>
      <trkpt lat="47.43847" lon="6.63155">
        <ele>298</ele>
        <time>2016-04-24T07:18:48Z</time>
      </trkpt>
      <trkpt lat="47.43843" lon="6.63157">
        <ele>298</ele>
        <time>2016-04-24T07:18:49Z</time>
      </trkpt>
      <trkpt lat="47.43839" lon="6.6316">
        <ele>298</ele>
        <time>2016-04-24T07:18:50Z</time>
      </trkpt>
      <trkpt lat="47.43835" lon="6.63162">
        <ele>298</ele>
        <time>2016-04-24T07:18:51Z</time>
      </trkpt>
      <trkpt lat="47.43831" lon="6.63164">
        <ele>298</ele>
        <time>2016-04-24T07:18:52Z</time>
      </trkpt>
      <trkpt lat="47.43827" lon="6.63166">
        <ele>298</ele>
        <time>2016-04-24T07:18:53Z</time>
      </trkpt>
      <trkpt lat="47.43823" lon="6.63168">
        <ele>299</ele>
        <time>2016-04-24T07:18:54Z</time>
      </trkpt>
      <trkpt lat="47.43819" lon="6.63171">
        <ele>299</ele>
        <time>2016-04-24T07:18:55Z</time>
      </trkpt>
      <trkpt lat="47.43814" lon="6.63173">
        <ele>299</ele>
        <time>2016-04-24T07:18:56Z</time>
      </trkpt>
      <trkpt lat="47.43809" lon="6.63175">
        <ele>299</ele>
        <time>2016-04-24T07:18:57Z</time>
      </trkpt>
      <trkpt lat="47.43805" lon="6.63175">
        <ele>299</ele>
        <time>2016-04-24T07:18:58Z</time>
      </trkpt>
      <trkpt lat="47.438" lon="6.63175">
        <ele>299</ele>
        <time>2016-04-24T07:18:59Z</time>
      </trkpt>
      <trkpt lat="47.43796" lon="6.63175">
        <ele>299</ele>
        <time>2016-04-24T07:19:00Z</time>
      </trkpt>
      <trkpt lat="47.43791" lon="6.63175">
        <ele>299</ele>
        <time>2016-04-24T07:19:01Z</time>
      </trkpt>
      <trkpt lat="47.43786" lon="6.63174">
        <ele>299</ele>
        <time>2016-04-24T07:19:02Z</time>
      </trkpt>
      <trkpt lat="47.43781" lon="6.63173">
        <ele>299</ele>
        <time>2016-04-24T07:19:03Z</time>
      </trkpt>
      <trkpt lat="47.43776" lon="6.63172">
        <ele>299</ele>
        <time>2016-04-24T07:19:04Z</time>
      </trkpt>
      <trkpt lat="47.43771" lon="6.63172">
        <ele>299</ele>
        <time>2016-04-24T07:19:05Z</time>
      </trkpt>
      <trkpt lat="47.43766" lon="6.63172">
        <ele>299</ele>
        <time>2016-04-24T07:19:06Z</time>
      </trkpt>
      <trkpt lat="47.43761" lon="6.63172">
        <ele>299</ele>
        <time>2016-04-24T07:19:07Z</time>
      </trkpt>
      <trkpt lat="47.43756" lon="6.63172">
        <ele>299</ele>
        <time>2016-04-24T07:19:08Z</time>
      </trkpt>
      <trkpt lat="47.43752" lon="6.63172">
        <ele>298</ele>
        <time>2016-04-24T07:19:09Z</time>
      </trkpt>
      <trkpt lat="47.43747" lon="6.63173">
        <ele>299</ele>
        <time>2016-04-24T07:19:10Z</time>
      </trkpt>
      <trkpt lat="47.43742" lon="6.63174">
        <ele>299</ele>
        <time>2016-04-24T07:19:11Z</time>
      </trkpt>
      <trkpt lat="47.43738" lon="6.63175">
        <ele>299</ele>
        <time>2016-04-24T07:19:12Z</time>
      </trkpt>
      <trkpt lat="47.43733" lon="6.63176">
        <ele>299</ele>
        <time>2016-04-24T07:19:13Z</time>
      </trkpt>
      <trkpt lat="47.43729" lon="6.63178">
        <ele>300</ele>
        <time>2016-04-24T07:19:14Z</time>
      </trkpt>
      <trkpt lat="47.43724" lon="6.63179">
        <ele>300</ele>
        <time>2016-04-24T07:19:15Z</time>
      </trkpt>
      <trkpt lat="47.4372" lon="6.6318">
        <ele>300</ele>
        <time>2016-04-24T07:19:16Z</time>
      </trkpt>
      <trkpt lat="47.43715" lon="6.63182">
        <ele>300</ele>
        <time>2016-04-24T07:19:17Z</time>
      </trkpt>
      <trkpt lat="47.4371" lon="6.63183">
        <ele>300</ele>
        <time>2016-04-24T07:19:18Z</time>
      </trkpt>
      <trkpt lat="47.43706" lon="6.63184">
        <ele>300</ele>
        <time>2016-04-24T07:19:19Z</time>
      </trkpt>
      <trkpt lat="47.43701" lon="6.63185">
        <ele>300</ele>
        <time>2016-04-24T07:19:20Z</time>
      </trkpt>
      <trkpt lat="47.43697" lon="6.63187">
        <ele>300</ele>
        <time>2016-04-24T07:19:21Z</time>
      </trkpt>
      <trkpt lat="47.43691" lon="6.63189">
        <ele>300</ele>
        <time>2016-04-24T07:19:22Z</time>
      </trkpt>
      <trkpt lat="47.43687" lon="6.63191">
        <ele>300</ele>
        <time>2016-04-24T07:19:23Z</time>
      </trkpt>
      <trkpt lat="47.43682" lon="6.63194">
        <ele>300</ele>
        <time>2016-04-24T07:19:24Z</time>
      </trkpt>
      <trkpt lat="47.43677" lon="6.63195">
        <ele>300</ele>
        <time>2016-04-24T07:19:25Z</time>
      </trkpt>
      <trkpt lat="47.43672" lon="6.63197">
        <ele>300</ele>
        <time>2016-04-24T07:19:26Z</time>
      </trkpt>
      <trkpt lat="47.43667" lon="6.63199">
        <ele>299</ele>
        <time>2016-04-24T07:19:27Z</time>
      </trkpt>
      <trkpt lat="47.43661" lon="6.63202">
        <ele>299</ele>
        <time>2016-04-24T07:19:28Z</time>
      </trkpt>
      <trkpt lat="47.43656" lon="6.63204">
        <ele>300</ele>
        <time>2016-04-24T07:19:29Z</time>
      </trkpt>
      <trkpt lat="47.43651" lon="6.63206">
        <ele>300</ele>
        <time>2016-04-24T07:19:30Z</time>
      </trkpt>
      <trkpt lat="47.43646" lon="6.63209">
        <ele>300</ele>
        <time>2016-04-24T07:19:31Z</time>
      </trkpt>
      <trkpt lat="47.4364" lon="6.63212">
        <ele>300</ele>
        <time>2016-04-24T07:19:32Z</time>
      </trkpt>
      <trkpt lat="47.43635" lon="6.63214">
        <ele>300</ele>
        <time>2016-04-24T07:19:33Z</time>
      </trkpt>
      <trkpt lat="47.43629" lon="6.63217">
        <ele>300</ele>
        <time>2016-04-24T07:19:34Z</time>
      </trkpt>
      <trkpt lat="47.43624" lon="6.63219">
        <ele>300</ele>
        <time>2016-04-24T07:19:35Z</time>
      </trkpt>
      <trkpt lat="47.43619" lon="6.63222">
        <ele>300</ele>
        <time>2016-04-24T07:19:36Z</time>
      </trkpt>
      <trkpt lat="47.43614" lon="6.63225">
        <ele>300</ele>
        <time>2016-04-24T07:19:37Z</time>
      </trkpt>
      <trkpt lat="47.43608" lon="6.63228">
        <ele>300</ele>
        <time>2016-04-24T07:19:38Z</time>
      </trkpt>
      <trkpt lat="47.43603" lon="6.6323">
        <ele>300</ele>
        <time>2016-04-24T07:19:39Z</time>
      </trkpt>
      <trkpt lat="47.43598" lon="6.63233">
        <ele>300</ele>
        <time>2016-04-24T07:19:40Z</time>
      </trkpt>
      <trkpt lat="47.43593" lon="6.63236">
        <ele>300</ele>
        <time>2016-04-24T07:19:41Z</time>
      </trkpt>
      <trkpt lat="47.43588" lon="6.63238">
        <ele>300</ele>
        <time>2016-04-24T07:19:42Z</time>
      </trkpt>
      <trkpt lat="47.43583" lon="6.63241">
        <ele>299</ele>
        <time>2016-04-24T07:19:43Z</time>
      </trkpt>
      <trkpt lat="47.43578" lon="6.63243">
        <ele>299</ele>
        <time>2016-04-24T07:19:44Z</time>
      </trkpt>
      <trkpt lat="47.43573" lon="6.63245">
        <ele>299</ele>
        <time>2016-04-24T07:19:45Z</time>
      </trkpt>
      <trkpt lat="47.43568" lon="6.63248">
        <ele>298</ele>
        <time>2016-04-24T07:19:46Z</time>
      </trkpt>
      <trkpt lat="47.43563" lon="6.6325">
        <ele>298</ele>
        <time>2016-04-24T07:19:47Z</time>
      </trkpt>
      <trkpt lat="47.43558" lon="6.63252">
        <ele>299</ele>
        <time>2016-04-24T07:19:48Z</time>
      </trkpt>
      <trkpt lat="47.43552" lon="6.63256">
        <ele>299</ele>
        <time>2016-04-24T07:19:49Z</time>
      </trkpt>
      <trkpt lat="47.43548" lon="6.63257">
        <ele>299</ele>
        <time>2016-04-24T07:19:50Z</time>
      </trkpt>
      <trkpt lat="47.43543" lon="6.6326">
        <ele>299</ele>
        <time>2016-04-24T07:19:51Z</time>
      </trkpt>
      <trkpt lat="47.43538" lon="6.63263">
        <ele>299</ele>
        <time>2016-04-24T07:19:52Z</time>
      </trkpt>
      <trkpt lat="47.43532" lon="6.63265">
        <ele>299</ele>
        <time>2016-04-24T07:19:53Z</time>
      </trkpt>
      <trkpt lat="47.43528" lon="6.63269">
        <ele>299</ele>
        <time>2016-04-24T07:19:54Z</time>
      </trkpt>
      <trkpt lat="47.43522" lon="6.63271">
        <ele>299</ele>
        <time>2016-04-24T07:19:55Z</time>
      </trkpt>
      <trkpt lat="47.43517" lon="6.63274">
        <ele>298</ele>
        <time>2016-04-24T07:19:56Z</time>
      </trkpt>
      <trkpt lat="47.43512" lon="6.63277">
        <ele>298</ele>
        <time>2016-04-24T07:19:57Z</time>
      </trkpt>
      <trkpt lat="47.43506" lon="6.63279">
        <ele>298</ele>
        <time>2016-04-24T07:19:58Z</time>
      </trkpt>
      <trkpt lat="47.43501" lon="6.63282">
        <ele>298</ele>
        <time>2016-04-24T07:19:59Z</time>
      </trkpt>
      <trkpt lat="47.43496" lon="6.63284">
        <ele>297</ele>
        <time>2016-04-24T07:20:00Z</time>
      </trkpt>
      <trkpt lat="47.43491" lon="6.63286">
        <ele>297</ele>
        <time>2016-04-24T07:20:01Z</time>
      </trkpt>
      <trkpt lat="47.43486" lon="6.63288">
        <ele>297</ele>
        <time>2016-04-24T07:20:02Z</time>
      </trkpt>
      <trkpt lat="47.43481" lon="6.63291">
        <ele>297</ele>
        <time>2016-04-24T07:20:03Z</time>
      </trkpt>
      <trkpt lat="47.43476" lon="6.63293">
        <ele>297</ele>
        <time>2016-04-24T07:20:04Z</time>
      </trkpt>
      <trkpt lat="47.43471" lon="6.63296">
        <ele>297</ele>
        <time>2016-04-24T07:20:05Z</time>
      </trkpt>
      <trkpt lat="47.43466" lon="6.63298">
        <ele>297</ele>
        <time>2016-04-24T07:20:06Z</time>
      </trkpt>
      <trkpt lat="47.43462" lon="6.633">
        <ele>297</ele>
        <time>2016-04-24T07:20:07Z</time>
      </trkpt>
      <trkpt lat="47.43457" lon="6.63303">
        <ele>297</ele>
        <time>2016-04-24T07:20:08Z</time>
      </trkpt>
      <trkpt lat="47.43453" lon="6.63306">
        <ele>297</ele>
        <time>2016-04-24T07:20:09Z</time>
      </trkpt>
      <trkpt lat="47.43449" lon="6.63309">
        <ele>297</ele>
        <time>2016-04-24T07:20:10Z</time>
      </trkpt>
      <trkpt lat="47.43445" lon="6.63312">
        <ele>297</ele>
        <time>2016-04-24T07:20:11Z</time>
      </trkpt>
      <trkpt lat="47.43442" lon="6.63317">
        <ele>297</ele>
        <time>2016-04-24T07:20:12Z</time>
      </trkpt>
      <trkpt lat="47.43439" lon="6.63322">
        <ele>297</ele>
        <time>2016-04-24T07:20:13Z</time>
      </trkpt>
      <trkpt lat="47.43438" lon="6.63328">
        <ele>297</ele>
        <time>2016-04-24T07:20:14Z</time>
      </trkpt>
      <trkpt lat="47.43437" lon="6.63333">
        <ele>298</ele>
        <time>2016-04-24T07:20:15Z</time>
      </trkpt>
      <trkpt lat="47.43435" lon="6.6334">
        <ele>298</ele>
        <time>2016-04-24T07:20:16Z</time>
      </trkpt>
      <trkpt lat="47.43434" lon="6.63347">
        <ele>298</ele>
        <time>2016-04-24T07:20:17Z</time>
      </trkpt>
      <trkpt lat="47.43433" lon="6.63354">
        <ele>299</ele>
        <time>2016-04-24T07:20:18Z</time>
      </trkpt>
      <trkpt lat="47.43433" lon="6.6336">
        <ele>299</ele>
        <time>2016-04-24T07:20:19Z</time>
      </trkpt>
      <trkpt lat="47.43432" lon="6.63366">
        <ele>299</ele>
        <time>2016-04-24T07:20:20Z</time>
      </trkpt>
      <trkpt lat="47.43432" lon="6.63372">
        <ele>299</ele>
        <time>2016-04-24T07:20:21Z</time>
      </trkpt>
      <trkpt lat="47.43432" lon="6.63378">
        <ele>299</ele>
        <time>2016-04-24T07:20:22Z</time>
      </trkpt>
      <trkpt lat="47.43432" lon="6.63385">
        <ele>299</ele>
        <time>2016-04-24T07:20:23Z</time>
      </trkpt>
      <trkpt lat="47.43431" lon="6.63391">
        <ele>299</ele>
        <time>2016-04-24T07:20:24Z</time>
      </trkpt>
      <trkpt lat="47.43431" lon="6.63397">
        <ele>299</ele>
        <time>2016-04-24T07:20:25Z</time>
      </trkpt>
      <trkpt lat="47.43431" lon="6.63403">
        <ele>299</ele>
        <time>2016-04-24T07:20:26Z</time>
      </trkpt>
      <trkpt lat="47.43431" lon="6.63409">
        <ele>299</ele>
        <time>2016-04-24T07:20:27Z</time>
      </trkpt>
      <trkpt lat="47.4343" lon="6.63415">
        <ele>299</ele>
        <time>2016-04-24T07:20:28Z</time>
      </trkpt>
      <trkpt lat="47.4343" lon="6.63421">
        <ele>301</ele>
        <time>2016-04-24T07:20:29Z</time>
      </trkpt>
      <trkpt lat="47.4343" lon="6.63427">
        <ele>301</ele>
        <time>2016-04-24T07:20:30Z</time>
      </trkpt>
      <trkpt lat="47.4343" lon="6.63432">
        <ele>301</ele>
        <time>2016-04-24T07:20:31Z</time>
      </trkpt>
      <trkpt lat="47.43429" lon="6.63438">
        <ele>302</ele>
        <time>2016-04-24T07:20:32Z</time>
      </trkpt>
      <trkpt lat="47.43429" lon="6.63443">
        <ele>302</ele>
        <time>2016-04-24T07:20:33Z</time>
      </trkpt>
      <trkpt lat="47.43429" lon="6.63449">
        <ele>302</ele>
        <time>2016-04-24T07:20:34Z</time>
      </trkpt>
      <trkpt lat="47.43429" lon="6.63454">
        <ele>302</ele>
        <time>2016-04-24T07:20:35Z</time>
      </trkpt>
      <trkpt lat="47.43428" lon="6.63459">
        <ele>302</ele>
        <time>2016-04-24T07:20:36Z</time>
      </trkpt>
      <trkpt lat="47.43428" lon="6.63465">
        <ele>303</ele>
        <time>2016-04-24T07:20:37Z</time>
      </trkpt>
      <trkpt lat="47.43428" lon="6.6347">
        <ele>303</ele>
        <time>2016-04-24T07:20:38Z</time>
      </trkpt>
      <trkpt lat="47.43428" lon="6.63475">
        <ele>303</ele>
        <time>2016-04-24T07:20:39Z</time>
      </trkpt>
      <trkpt lat="47.43428" lon="6.6348">
        <ele>303</ele>
        <time>2016-04-24T07:20:40Z</time>
      </trkpt>
      <trkpt lat="47.43428" lon="6.63486">
        <ele>303</ele>
        <time>2016-04-24T07:20:41Z</time>
      </trkpt>
      <trkpt lat="47.43428" lon="6.63491">
        <ele>303</ele>
        <time>2016-04-24T07:20:42Z</time>
      </trkpt>
      <trkpt lat="47.43428" lon="6.63496">
        <ele>303</ele>
        <time>2016-04-24T07:20:43Z</time>
      </trkpt>
      <trkpt lat="47.43429" lon="6.63501">
        <ele>305</ele>
        <time>2016-04-24T07:20:44Z</time>
      </trkpt>
      <trkpt lat="47.43429" lon="6.63506">
        <ele>305</ele>
        <time>2016-04-24T07:20:45Z</time>
      </trkpt>
      <trkpt lat="47.4343" lon="6.63511">
        <ele>305</ele>
        <time>2016-04-24T07:20:46Z</time>
      </trkpt>
      <trkpt lat="47.43431" lon="6.63516">
        <ele>305</ele>
        <time>2016-04-24T07:20:47Z</time>
      </trkpt>
      <trkpt lat="47.43432" lon="6.63521">
        <ele>306</ele>
        <time>2016-04-24T07:20:48Z</time>
      </trkpt>
      <trkpt lat="47.43433" lon="6.63525">
        <ele>306</ele>
        <time>2016-04-24T07:20:49Z</time>
      </trkpt>
      <trkpt lat="47.43434" lon="6.6353">
        <ele>306</ele>
        <time>2016-04-24T07:20:50Z</time>
      </trkpt>
      <trkpt lat="47.43434" lon="6.63534">
        <ele>306</ele>
        <time>2016-04-24T07:20:51Z</time>
      </trkpt>
      <trkpt lat="47.43435" lon="6.63538">
        <ele>307</ele>
        <time>2016-04-24T07:20:52Z</time>
      </trkpt>
      <trkpt lat="47.43436" lon="6.63542">
        <ele>307</ele>
        <time>2016-04-24T07:20:53Z</time>
      </trkpt>
      <trkpt lat="47.43437" lon="6.63546">
        <ele>307</ele>
        <time>2016-04-24T07:20:54Z</time>
      </trkpt>
      <trkpt lat="47.43437" lon="6.63551">
        <ele>307</ele>
        <time>2016-04-24T07:20:55Z</time>
      </trkpt>
      <trkpt lat="47.43438" lon="6.63555">
        <ele>307</ele>
        <time>2016-04-24T07:20:56Z</time>
      </trkpt>
      <trkpt lat="47.43437" lon="6.63561">
        <ele>307</ele>
        <time>2016-04-24T07:20:57Z</time>
      </trkpt>
      <trkpt lat="47.43435" lon="6.63566">
        <ele>307</ele>
        <time>2016-04-24T07:20:58Z</time>
      </trkpt>
      <trkpt lat="47.43433" lon="6.6357">
        <ele>307</ele>
        <time>2016-04-24T07:20:59Z</time>
      </trkpt>
      <trkpt lat="47.4343" lon="6.63572">
        <ele>307</ele>
        <time>2016-04-24T07:21:00Z</time>
      </trkpt>
      <trkpt lat="47.43426" lon="6.63574">
        <ele>307</ele>
        <time>2016-04-24T07:21:01Z</time>
      </trkpt>
      <trkpt lat="47.43422" lon="6.63574">
        <ele>307</ele>
        <time>2016-04-24T07:21:02Z</time>
      </trkpt>
      <trkpt lat="47.43417" lon="6.63575">
        <ele>307</ele>
        <time>2016-04-24T07:21:03Z</time>
      </trkpt>
      <trkpt lat="47.43413" lon="6.63575">
        <ele>306</ele>
        <time>2016-04-24T07:21:04Z</time>
      </trkpt>
      <trkpt lat="47.43409" lon="6.63575">
        <ele>306</ele>
        <time>2016-04-24T07:21:05Z</time>
      </trkpt>
      <trkpt lat="47.43405" lon="6.63577">
        <ele>306</ele>
        <time>2016-04-24T07:21:06Z</time>
      </trkpt>
      <trkpt lat="47.434" lon="6.63577">
        <ele>305</ele>
        <time>2016-04-24T07:21:07Z</time>
      </trkpt>
      <trkpt lat="47.43394" lon="6.63576">
        <ele>305</ele>
        <time>2016-04-24T07:21:08Z</time>
      </trkpt>
      <trkpt lat="47.4339" lon="6.63578">
        <ele>305</ele>
        <time>2016-04-24T07:21:09Z</time>
      </trkpt>
      <trkpt lat="47.43386" lon="6.63579">
        <ele>305</ele>
        <time>2016-04-24T07:21:10Z</time>
      </trkpt>
      <trkpt lat="47.43382" lon="6.63581">
        <ele>305</ele>
        <time>2016-04-24T07:21:11Z</time>
      </trkpt>
      <trkpt lat="47.43378" lon="6.63583">
        <ele>304</ele>
        <time>2016-04-24T07:21:12.001Z</time>
      </trkpt>
      <trkpt lat="47.43373" lon="6.63586">
        <ele>307</ele>
        <time>2016-04-24T07:21:13Z</time>
      </trkpt>
      <trkpt lat="47.43369" lon="6.63589">
        <ele>307</ele>
        <time>2016-04-24T07:21:14Z</time>
      </trkpt>
      <trkpt lat="47.43366" lon="6.63592">
        <ele>307</ele>
        <time>2016-04-24T07:21:15Z</time>
      </trkpt>
      <trkpt lat="47.43362" lon="6.63594">
        <ele>306</ele>
        <time>2016-04-24T07:21:16Z</time>
      </trkpt>
      <trkpt lat="47.43359" lon="6.63597">
        <ele>306</ele>
        <time>2016-04-24T07:21:17Z</time>
      </trkpt>
      <trkpt lat="47.43356" lon="6.636">
        <ele>306</ele>
        <time>2016-04-24T07:21:18Z</time>
      </trkpt>
      <trkpt lat="47.43353" lon="6.63604">
        <ele>306</ele>
        <time>2016-04-24T07:21:19Z</time>
      </trkpt>
      <trkpt lat="47.4335" lon="6.63608">
        <ele>306</ele>
        <time>2016-04-24T07:21:20Z</time>
      </trkpt>
      <trkpt lat="47.43348" lon="6.63612">
        <ele>307</ele>
        <time>2016-04-24T07:21:21Z</time>
      </trkpt>
      <trkpt lat="47.43345" lon="6.63617">
        <ele>307</ele>
        <time>2016-04-24T07:21:22Z</time>
      </trkpt>
      <trkpt lat="47.43342" lon="6.63621">
        <ele>307</ele>
        <time>2016-04-24T07:21:23Z</time>
      </trkpt>
      <trkpt lat="47.4334" lon="6.63625">
        <ele>307</ele>
        <time>2016-04-24T07:21:24Z</time>
      </trkpt>
      <trkpt lat="47.43337" lon="6.6363">
        <ele>307</ele>
        <time>2016-04-24T07:21:25Z</time>
      </trkpt>
      <trkpt lat="47.43335" lon="6.63634">
        <ele>307</ele>
        <time>2016-04-24T07:21:26Z</time>
      </trkpt>
      <trkpt lat="47.43333" lon="6.63638">
        <ele>306</ele>
        <time>2016-04-24T07:21:27Z</time>
      </trkpt>
      <trkpt lat="47.4333" lon="6.63643">
        <ele>306</ele>
        <time>2016-04-24T07:21:28Z</time>
      </trkpt>
      <trkpt lat="47.43328" lon="6.63647">
        <ele>306</ele>
        <time>2016-04-24T07:21:29Z</time>
      </trkpt>
      <trkpt lat="47.43325" lon="6.63651">
        <ele>306</ele>
        <time>2016-04-24T07:21:30Z</time>
      </trkpt>
      <trkpt lat="47.43323" lon="6.63656">
        <ele>306</ele>
        <time>2016-04-24T07:21:31Z</time>
      </trkpt>
      <trkpt lat="47.4332" lon="6.6366">
        <ele>306</ele>
        <time>2016-04-24T07:21:32Z</time>
      </trkpt>
      <trkpt lat="47.43318" lon="6.63664">
        <ele>306</ele>
        <time>2016-04-24T07:21:33Z</time>
      </trkpt>
      <trkpt lat="47.43315" lon="6.63668">
        <ele>309</ele>
        <time>2016-04-24T07:21:34Z</time>
      </trkpt>
      <trkpt lat="47.43312" lon="6.63671">
        <ele>309</ele>
        <time>2016-04-24T07:21:35Z</time>
      </trkpt>
      <trkpt lat="47.43309" lon="6.63675">
        <ele>309</ele>
        <time>2016-04-24T07:21:36Z</time>
      </trkpt>
      <trkpt lat="47.43306" lon="6.63678">
        <ele>309</ele>
        <time>2016-04-24T07:21:37Z</time>
      </trkpt>
      <trkpt lat="47.43303" lon="6.6368">
        <ele>309</ele>
        <time>2016-04-24T07:21:38Z</time>
      </trkpt>
      <trkpt lat="47.43301" lon="6.63683">
        <ele>309</ele>
        <time>2016-04-24T07:21:39Z</time>
      </trkpt>
      <trkpt lat="47.43298" lon="6.63687">
        <ele>309</ele>
        <time>2016-04-24T07:21:40Z</time>
      </trkpt>
      <trkpt lat="47.43296" lon="6.6369">
        <ele>309</ele>
        <time>2016-04-24T07:21:41Z</time>
      </trkpt>
      <trkpt lat="47.43293" lon="6.63693">
        <ele>309</ele>
        <time>2016-04-24T07:21:42Z</time>
      </trkpt>
      <trkpt lat="47.43291" lon="6.63696">
        <ele>309</ele>
        <time>2016-04-24T07:21:43Z</time>
      </trkpt>
      <trkpt lat="47.43289" lon="6.637">
        <ele>310</ele>
        <time>2016-04-24T07:21:44Z</time>
      </trkpt>
      <trkpt lat="47.43287" lon="6.63704">
        <ele>310</ele>
        <time>2016-04-24T07:21:45Z</time>
      </trkpt>
      <trkpt lat="47.43285" lon="6.63709">
        <ele>310</ele>
        <time>2016-04-24T07:21:46Z</time>
      </trkpt>
      <trkpt lat="47.43283" lon="6.63713">
        <ele>310</ele>
        <time>2016-04-24T07:21:47Z</time>
      </trkpt>
      <trkpt lat="47.43281" lon="6.63717">
        <ele>310</ele>
        <time>2016-04-24T07:21:48Z</time>
      </trkpt>
      <trkpt lat="47.4328" lon="6.63721">
        <ele>310</ele>
        <time>2016-04-24T07:21:49Z</time>
      </trkpt>
      <trkpt lat="47.43278" lon="6.63725">
        <ele>310</ele>
        <time>2016-04-24T07:21:50Z</time>
      </trkpt>
      <trkpt lat="47.43276" lon="6.63729">
        <ele>310</ele>
        <time>2016-04-24T07:21:51Z</time>
      </trkpt>
      <trkpt lat="47.43275" lon="6.63734">
        <ele>311</ele>
        <time>2016-04-24T07:21:52Z</time>
      </trkpt>
      <trkpt lat="47.43273" lon="6.63738">
        <ele>311</ele>
        <time>2016-04-24T07:21:53Z</time>
      </trkpt>
      <trkpt lat="47.43272" lon="6.63742">
        <ele>311</ele>
        <time>2016-04-24T07:21:54Z</time>
      </trkpt>
      <trkpt lat="47.4327" lon="6.63746">
        <ele>311</ele>
        <time>2016-04-24T07:21:55Z</time>
      </trkpt>
      <trkpt lat="47.43268" lon="6.6375">
        <ele>314</ele>
        <time>2016-04-24T07:21:56Z</time>
      </trkpt>
      <trkpt lat="47.43267" lon="6.63754">
        <ele>313</ele>
        <time>2016-04-24T07:21:57Z</time>
      </trkpt>
      <trkpt lat="47.43265" lon="6.63758">
        <ele>313</ele>
        <time>2016-04-24T07:21:58Z</time>
      </trkpt>
      <trkpt lat="47.43263" lon="6.63762">
        <ele>314</ele>
        <time>2016-04-24T07:21:59Z</time>
      </trkpt>
      <trkpt lat="47.43262" lon="6.63766">
        <ele>314</ele>
        <time>2016-04-24T07:22:00Z</time>
      </trkpt>
      <trkpt lat="47.4326" lon="6.6377">
        <ele>314</ele>
        <time>2016-04-24T07:22:01Z</time>
      </trkpt>
      <trkpt lat="47.43259" lon="6.63774">
        <ele>314</ele>
        <time>2016-04-24T07:22:02Z</time>
      </trkpt>
      <trkpt lat="47.43258" lon="6.63778">
        <ele>314</ele>
        <time>2016-04-24T07:22:03Z</time>
      </trkpt>
      <trkpt lat="47.43256" lon="6.63781">
        <ele>315</ele>
        <time>2016-04-24T07:22:04Z</time>
      </trkpt>
      <trkpt lat="47.43255" lon="6.63784">
        <ele>315</ele>
        <time>2016-04-24T07:22:05Z</time>
      </trkpt>
      <trkpt lat="47.43253" lon="6.63788">
        <ele>315</ele>
        <time>2016-04-24T07:22:06Z</time>
      </trkpt>
      <trkpt lat="47.43251" lon="6.63791">
        <ele>315</ele>
        <time>2016-04-24T07:22:07Z</time>
      </trkpt>
      <trkpt lat="47.4325" lon="6.63794">
        <ele>314</ele>
        <time>2016-04-24T07:22:08Z</time>
      </trkpt>
      <trkpt lat="47.43248" lon="6.63797">
        <ele>314</ele>
        <time>2016-04-24T07:22:09Z</time>
      </trkpt>
      <trkpt lat="47.43246" lon="6.638">
        <ele>314</ele>
        <time>2016-04-24T07:22:10Z</time>
      </trkpt>
      <trkpt lat="47.43244" lon="6.63803">
        <ele>314</ele>
        <time>2016-04-24T07:22:11Z</time>
      </trkpt>
      <trkpt lat="47.43243" lon="6.63806">
        <ele>314</ele>
        <time>2016-04-24T07:22:12Z</time>
      </trkpt>
      <trkpt lat="47.43241" lon="6.63809">
        <ele>315</ele>
        <time>2016-04-24T07:22:13Z</time>
      </trkpt>
      <trkpt lat="47.43239" lon="6.63812">
        <ele>315</ele>
        <time>2016-04-24T07:22:14Z</time>
      </trkpt>
      <trkpt lat="47.43237" lon="6.63815">
        <ele>315</ele>
        <time>2016-04-24T07:22:15Z</time>
      </trkpt>
      <trkpt lat="47.43235" lon="6.63818">
        <ele>315</ele>
        <time>2016-04-24T07:22:16Z</time>
      </trkpt>
      <trkpt lat="47.43233" lon="6.63821">
        <ele>315</ele>
        <time>2016-04-24T07:22:17Z</time>
      </trkpt>
      <trkpt lat="47.43232" lon="6.63824">
        <ele>315</ele>
        <time>2016-04-24T07:22:18Z</time>
      </trkpt>
      <trkpt lat="47.4323" lon="6.63827">
        <ele>315</ele>
        <time>2016-04-24T07:22:19Z</time>
      </trkpt>
      <trkpt lat="47.43228" lon="6.63829">
        <ele>315</ele>
        <time>2016-04-24T07:22:20Z</time>
      </trkpt>
      <trkpt lat="47.43226" lon="6.63831">
        <ele>315</ele>
        <time>2016-04-24T07:22:21Z</time>
      </trkpt>
      <trkpt lat="47.43225" lon="6.63834">
        <ele>319</ele>
        <time>2016-04-24T07:22:22Z</time>
      </trkpt>
      <trkpt lat="47.43223" lon="6.63836">
        <ele>319</ele>
        <time>2016-04-24T07:22:23Z</time>
      </trkpt>
      <trkpt lat="47.43221" lon="6.63839">
        <ele>319</ele>
        <time>2016-04-24T07:22:24Z</time>
      </trkpt>
      <trkpt lat="47.4322" lon="6.63841">
        <ele>319</ele>
        <time>2016-04-24T07:22:25Z</time>
      </trkpt>
      <trkpt lat="47.43217" lon="6.63845">
        <ele>319</ele>
        <time>2016-04-24T07:22:27Z</time>
      </trkpt>
      <trkpt lat="47.43215" lon="6.63847">
        <ele>319</ele>
        <time>2016-04-24T07:22:28Z</time>
      </trkpt>
      <trkpt lat="47.43212" lon="6.63851">
        <ele>319</ele>
        <time>2016-04-24T07:22:30Z</time>
      </trkpt>
      <trkpt lat="47.4321" lon="6.63853">
        <ele>319</ele>
        <time>2016-04-24T07:22:31Z</time>
      </trkpt>
      <trkpt lat="47.43208" lon="6.63855">
        <ele>319</ele>
        <time>2016-04-24T07:22:32Z</time>
      </trkpt>
      <trkpt lat="47.43206" lon="6.63857">
        <ele>319</ele>
        <time>2016-04-24T07:22:33Z</time>
      </trkpt>
      <trkpt lat="47.43204" lon="6.63859">
        <ele>319</ele>
        <time>2016-04-24T07:22:34Z</time>
      </trkpt>
      <trkpt lat="47.43202" lon="6.63862">
        <ele>320</ele>
        <time>2016-04-24T07:22:35Z</time>
      </trkpt>
      <trkpt lat="47.432" lon="6.63864">
        <ele>320</ele>
        <time>2016-04-24T07:22:36Z</time>
      </trkpt>
      <trkpt lat="47.43197" lon="6.63867">
        <ele>320</ele>
        <time>2016-04-24T07:22:37Z</time>
      </trkpt>
      <trkpt lat="47.43195" lon="6.6387">
        <ele>320</ele>
        <time>2016-04-24T07:22:38Z</time>
      </trkpt>
      <trkpt lat="47.43193" lon="6.63872">
        <ele>320</ele>
        <time>2016-04-24T07:22:39Z</time>
      </trkpt>
      <trkpt lat="47.4319" lon="6.63875">
        <ele>320</ele>
        <time>2016-04-24T07:22:40Z</time>
      </trkpt>
      <trkpt lat="47.43188" lon="6.63877">
        <ele>320</ele>
        <time>2016-04-24T07:22:41Z</time>
      </trkpt>
      <trkpt lat="47.43185" lon="6.63879">
        <ele>320</ele>
        <time>2016-04-24T07:22:42Z</time>
      </trkpt>
      <trkpt lat="47.43183" lon="6.63881">
        <ele>320</ele>
        <time>2016-04-24T07:22:43Z</time>
      </trkpt>
      <trkpt lat="47.43181" lon="6.63883">
        <ele>321</ele>
        <time>2016-04-24T07:22:44Z</time>
      </trkpt>
      <trkpt lat="47.43179" lon="6.63885">
        <ele>321</ele>
        <time>2016-04-24T07:22:45Z</time>
      </trkpt>
      <trkpt lat="47.43176" lon="6.63887">
        <ele>321</ele>
        <time>2016-04-24T07:22:46Z</time>
      </trkpt>
      <trkpt lat="47.43175" lon="6.63889">
        <ele>321</ele>
        <time>2016-04-24T07:22:47Z</time>
      </trkpt>
      <trkpt lat="47.43173" lon="6.63891">
        <ele>321</ele>
        <time>2016-04-24T07:22:48Z</time>
      </trkpt>
      <trkpt lat="47.43171" lon="6.63894">
        <ele>321</ele>
        <time>2016-04-24T07:22:49Z</time>
      </trkpt>
      <trkpt lat="47.43169" lon="6.63896">
        <ele>322</ele>
        <time>2016-04-24T07:22:50Z</time>
      </trkpt>
      <trkpt lat="47.43166" lon="6.63898">
        <ele>322</ele>
        <time>2016-04-24T07:22:51Z</time>
      </trkpt>
      <trkpt lat="47.43164" lon="6.63901">
        <ele>322</ele>
        <time>2016-04-24T07:22:52Z</time>
      </trkpt>
      <trkpt lat="47.43162" lon="6.63903">
        <ele>322</ele>
        <time>2016-04-24T07:22:53Z</time>
      </trkpt>
      <trkpt lat="47.4316" lon="6.63905">
        <ele>322</ele>
        <time>2016-04-24T07:22:54Z</time>
      </trkpt>
      <trkpt lat="47.43158" lon="6.63907">
        <ele>322</ele>
        <time>2016-04-24T07:22:55Z</time>
      </trkpt>
      <trkpt lat="47.43155" lon="6.63909">
        <ele>322</ele>
        <time>2016-04-24T07:22:56Z</time>
      </trkpt>
      <trkpt lat="47.43154" lon="6.63911">
        <ele>322</ele>
        <time>2016-04-24T07:22:57Z</time>
      </trkpt>
      <trkpt lat="47.43152" lon="6.63912">
        <ele>322</ele>
        <time>2016-04-24T07:22:58Z</time>
      </trkpt>
      <trkpt lat="47.4315" lon="6.63915">
        <ele>322</ele>
        <time>2016-04-24T07:22:59Z</time>
      </trkpt>
      <trkpt lat="47.43148" lon="6.63918">
        <ele>325</ele>
        <time>2016-04-24T07:23:00Z</time>
      </trkpt>
      <trkpt lat="47.43146" lon="6.6392">
        <ele>325</ele>
        <time>2016-04-24T07:23:01Z</time>
      </trkpt>
      <trkpt lat="47.43144" lon="6.63923">
        <ele>325</ele>
        <time>2016-04-24T07:23:02Z</time>
      </trkpt>
      <trkpt lat="47.43142" lon="6.63926">
        <ele>325</ele>
        <time>2016-04-24T07:23:03Z</time>
      </trkpt>
      <trkpt lat="47.4314" lon="6.63928">
        <ele>325</ele>
        <time>2016-04-24T07:23:04Z</time>
      </trkpt>
      <trkpt lat="47.43138" lon="6.6393">
        <ele>325</ele>
        <time>2016-04-24T07:23:05Z</time>
      </trkpt>
      <trkpt lat="47.43136" lon="6.63932">
        <ele>325</ele>
        <time>2016-04-24T07:23:06Z</time>
      </trkpt>
      <trkpt lat="47.43134" lon="6.63934">
        <ele>325</ele>
        <time>2016-04-24T07:23:07Z</time>
      </trkpt>
      <trkpt lat="47.43132" lon="6.63936">
        <ele>325</ele>
        <time>2016-04-24T07:23:08Z</time>
      </trkpt>
      <trkpt lat="47.4313" lon="6.63939">
        <ele>325</ele>
        <time>2016-04-24T07:23:09Z</time>
      </trkpt>
      <trkpt lat="47.43129" lon="6.63941">
        <ele>325</ele>
        <time>2016-04-24T07:23:10Z</time>
      </trkpt>
      <trkpt lat="47.43127" lon="6.63943">
        <ele>325</ele>
        <time>2016-04-24T07:23:11Z</time>
      </trkpt>
      <trkpt lat="47.43125" lon="6.63946">
        <ele>326</ele>
        <time>2016-04-24T07:23:12Z</time>
      </trkpt>
      <trkpt lat="47.43123" lon="6.63948">
        <ele>326</ele>
        <time>2016-04-24T07:23:13Z</time>
      </trkpt>
      <trkpt lat="47.43121" lon="6.6395">
        <ele>326</ele>
        <time>2016-04-24T07:23:14Z</time>
      </trkpt>
      <trkpt lat="47.43119" lon="6.63952">
        <ele>326</ele>
        <time>2016-04-24T07:23:15Z</time>
      </trkpt>
      <trkpt lat="47.43117" lon="6.63954">
        <ele>326</ele>
        <time>2016-04-24T07:23:16Z</time>
      </trkpt>
      <trkpt lat="47.43115" lon="6.63957">
        <ele>326</ele>
        <time>2016-04-24T07:23:17Z</time>
      </trkpt>
      <trkpt lat="47.43113" lon="6.63959">
        <ele>326</ele>
        <time>2016-04-24T07:23:18Z</time>
      </trkpt>
      <trkpt lat="47.43112" lon="6.63961">
        <ele>326</ele>
        <time>2016-04-24T07:23:19Z</time>
      </trkpt>
      <trkpt lat="47.4311" lon="6.63964">
        <ele>326</ele>
        <time>2016-04-24T07:23:20Z</time>
      </trkpt>
      <trkpt lat="47.43108" lon="6.63966">
        <ele>326</ele>
        <time>2016-04-24T07:23:21Z</time>
      </trkpt>
      <trkpt lat="47.43107" lon="6.63969">
        <ele>326</ele>
        <time>2016-04-24T07:23:22Z</time>
      </trkpt>
      <trkpt lat="47.43105" lon="6.63971">
        <ele>326</ele>
        <time>2016-04-24T07:23:23Z</time>
      </trkpt>
      <trkpt lat="47.43103" lon="6.63974">
        <ele>327</ele>
        <time>2016-04-24T07:23:24Z</time>
      </trkpt>
      <trkpt lat="47.43102" lon="6.63976">
        <ele>327</ele>
        <time>2016-04-24T07:23:25Z</time>
      </trkpt>
      <trkpt lat="47.431" lon="6.63979">
        <ele>327</ele>
        <time>2016-04-24T07:23:26Z</time>
      </trkpt>
      <trkpt lat="47.43098" lon="6.63981">
        <ele>327</ele>
        <time>2016-04-24T07:23:27Z</time>
      </trkpt>
      <trkpt lat="47.43096" lon="6.63984">
        <ele>327</ele>
        <time>2016-04-24T07:23:28Z</time>
      </trkpt>
      <trkpt lat="47.43094" lon="6.63987">
        <ele>327</ele>
        <time>2016-04-24T07:23:29Z</time>
      </trkpt>
      <trkpt lat="47.43092" lon="6.6399">
        <ele>328</ele>
        <time>2016-04-24T07:23:30Z</time>
      </trkpt>
      <trkpt lat="47.43089" lon="6.63993">
        <ele>328</ele>
        <time>2016-04-24T07:23:31Z</time>
      </trkpt>
      <trkpt lat="47.43087" lon="6.63996">
        <ele>328</ele>
        <time>2016-04-24T07:23:32Z</time>
      </trkpt>
      <trkpt lat="47.43085" lon="6.63999">
        <ele>329</ele>
        <time>2016-04-24T07:23:33Z</time>
      </trkpt>
      <trkpt lat="47.43082" lon="6.64002">
        <ele>329</ele>
        <time>2016-04-24T07:23:34Z</time>
      </trkpt>
      <trkpt lat="47.4308" lon="6.64004">
        <ele>329</ele>
        <time>2016-04-24T07:23:35Z</time>
      </trkpt>
      <trkpt lat="47.43078" lon="6.64007">
        <ele>330</ele>
        <time>2016-04-24T07:23:36Z</time>
      </trkpt>
      <trkpt lat="47.43076" lon="6.64009">
        <ele>330</ele>
        <time>2016-04-24T07:23:37Z</time>
      </trkpt>
      <trkpt lat="47.43073" lon="6.64011">
        <ele>330</ele>
        <time>2016-04-24T07:23:38Z</time>
      </trkpt>
      <trkpt lat="47.43071" lon="6.64014">
        <ele>330</ele>
        <time>2016-04-24T07:23:39Z</time>
      </trkpt>
      <trkpt lat="47.43069" lon="6.64016">
        <ele>330</ele>
        <time>2016-04-24T07:23:40Z</time>
      </trkpt>
      <trkpt lat="47.43066" lon="6.64019">
        <ele>330</ele>
        <time>2016-04-24T07:23:41Z</time>
      </trkpt>
      <trkpt lat="47.43064" lon="6.64022">
        <ele>330</ele>
        <time>2016-04-24T07:23:42Z</time>
      </trkpt>
      <trkpt lat="47.43061" lon="6.64025">
        <ele>331</ele>
        <time>2016-04-24T07:23:43Z</time>
      </trkpt>
      <trkpt lat="47.43059" lon="6.64027">
        <ele>331</ele>
        <time>2016-04-24T07:23:44Z</time>
      </trkpt>
      <trkpt lat="47.43057" lon="6.64029">
        <ele>331</ele>
        <time>2016-04-24T07:23:45Z</time>
      </trkpt>
      <trkpt lat="47.43055" lon="6.64032">
        <ele>331</ele>
        <time>2016-04-24T07:23:46Z</time>
      </trkpt>
      <trkpt lat="47.43052" lon="6.64034">
        <ele>331</ele>
        <time>2016-04-24T07:23:47Z</time>
      </trkpt>
      <trkpt lat="47.4305" lon="6.64036">
        <ele>331</ele>
        <time>2016-04-24T07:23:48Z</time>
      </trkpt>
      <trkpt lat="47.43048" lon="6.64039">
        <ele>331</ele>
        <time>2016-04-24T07:23:49Z</time>
      </trkpt>
      <trkpt lat="47.43045" lon="6.64041">
        <ele>331</ele>
        <time>2016-04-24T07:23:50Z</time>
      </trkpt>
      <trkpt lat="47.43043" lon="6.64043">
        <ele>331</ele>
        <time>2016-04-24T07:23:51Z</time>
      </trkpt>
      <trkpt lat="47.43041" lon="6.64046">
        <ele>331</ele>
        <time>2016-04-24T07:23:52Z</time>
      </trkpt>
      <trkpt lat="47.43038" lon="6.64048">
        <ele>331</ele>
        <time>2016-04-24T07:23:53Z</time>
      </trkpt>
      <trkpt lat="47.43036" lon="6.6405">
        <ele>331</ele>
        <time>2016-04-24T07:23:54Z</time>
      </trkpt>
      <trkpt lat="47.43033" lon="6.64053">
        <ele>331</ele>
        <time>2016-04-24T07:23:55Z</time>
      </trkpt>
      <trkpt lat="47.43031" lon="6.64055">
        <ele>331</ele>
        <time>2016-04-24T07:23:56Z</time>
      </trkpt>
      <trkpt lat="47.43029" lon="6.64057">
        <ele>331</ele>
        <time>2016-04-24T07:23:57Z</time>
      </trkpt>
      <trkpt lat="47.43026" lon="6.6406">
        <ele>331</ele>
        <time>2016-04-24T07:23:58Z</time>
      </trkpt>
      <trkpt lat="47.43024" lon="6.64062">
        <ele>331</ele>
        <time>2016-04-24T07:23:59Z</time>
      </trkpt>
      <trkpt lat="47.43021" lon="6.64064">
        <ele>331</ele>
        <time>2016-04-24T07:24:00Z</time>
      </trkpt>
      <trkpt lat="47.43019" lon="6.64066">
        <ele>331</ele>
        <time>2016-04-24T07:24:01Z</time>
      </trkpt>
      <trkpt lat="47.43017" lon="6.64068">
        <ele>331</ele>
        <time>2016-04-24T07:24:02Z</time>
      </trkpt>
      <trkpt lat="47.43014" lon="6.64071">
        <ele>332</ele>
        <time>2016-04-24T07:24:03Z</time>
      </trkpt>
      <trkpt lat="47.43012" lon="6.64073">
        <ele>332</ele>
        <time>2016-04-24T07:24:04Z</time>
      </trkpt>
      <trkpt lat="47.4301" lon="6.64075">
        <ele>332</ele>
        <time>2016-04-24T07:24:05Z</time>
      </trkpt>
      <trkpt lat="47.43008" lon="6.64077">
        <ele>332</ele>
        <time>2016-04-24T07:24:06Z</time>
      </trkpt>
      <trkpt lat="47.43006" lon="6.6408">
        <ele>332</ele>
        <time>2016-04-24T07:24:07Z</time>
      </trkpt>
      <trkpt lat="47.43004" lon="6.64082">
        <ele>332</ele>
        <time>2016-04-24T07:24:08Z</time>
      </trkpt>
      <trkpt lat="47.43002" lon="6.64083">
        <ele>332</ele>
        <time>2016-04-24T07:24:09Z</time>
      </trkpt>
      <trkpt lat="47.43" lon="6.64085">
        <ele>333</ele>
        <time>2016-04-24T07:24:10Z</time>
      </trkpt>
      <trkpt lat="47.42998" lon="6.64087">
        <ele>333</ele>
        <time>2016-04-24T07:24:11Z</time>
      </trkpt>
      <trkpt lat="47.42996" lon="6.64089">
        <ele>334</ele>
        <time>2016-04-24T07:24:12Z</time>
      </trkpt>
      <trkpt lat="47.42993" lon="6.64091">
        <ele>335</ele>
        <time>2016-04-24T07:24:13Z</time>
      </trkpt>
      <trkpt lat="47.42991" lon="6.64093">
        <ele>335</ele>
        <time>2016-04-24T07:24:14Z</time>
      </trkpt>
      <trkpt lat="47.42989" lon="6.64096">
        <ele>336</ele>
        <time>2016-04-24T07:24:15Z</time>
      </trkpt>
      <trkpt lat="47.42987" lon="6.64098">
        <ele>336</ele>
        <time>2016-04-24T07:24:16Z</time>
      </trkpt>
      <trkpt lat="47.42985" lon="6.641">
        <ele>337</ele>
        <time>2016-04-24T07:24:17Z</time>
      </trkpt>
      <trkpt lat="47.42983" lon="6.64102">
        <ele>337</ele>
        <time>2016-04-24T07:24:18Z</time>
      </trkpt>
      <trkpt lat="47.42981" lon="6.64104">
        <ele>337</ele>
        <time>2016-04-24T07:24:19Z</time>
      </trkpt>
      <trkpt lat="47.42978" lon="6.64106">
        <ele>338</ele>
        <time>2016-04-24T07:24:20Z</time>
      </trkpt>
      <trkpt lat="47.42976" lon="6.64109">
        <ele>338</ele>
        <time>2016-04-24T07:24:21Z</time>
      </trkpt>
      <trkpt lat="47.42974" lon="6.64113">
        <ele>338</ele>
        <time>2016-04-24T07:24:22Z</time>
      </trkpt>
      <trkpt lat="47.42972" lon="6.64116">
        <ele>339</ele>
        <time>2016-04-24T07:24:23Z</time>
      </trkpt>
      <trkpt lat="47.42969" lon="6.6412">
        <ele>339</ele>
        <time>2016-04-24T07:24:24Z</time>
      </trkpt>
      <trkpt lat="47.42967" lon="6.64122">
        <ele>339</ele>
        <time>2016-04-24T07:24:25Z</time>
      </trkpt>
      <trkpt lat="47.42965" lon="6.64124">
        <ele>339</ele>
        <time>2016-04-24T07:24:26Z</time>
      </trkpt>
      <trkpt lat="47.42963" lon="6.64125">
        <ele>340</ele>
        <time>2016-04-24T07:24:27Z</time>
      </trkpt>
      <trkpt lat="47.42961" lon="6.64127">
        <ele>340</ele>
        <time>2016-04-24T07:24:28Z</time>
      </trkpt>
      <trkpt lat="47.42958" lon="6.6413">
        <ele>340</ele>
        <time>2016-04-24T07:24:29Z</time>
      </trkpt>
      <trkpt lat="47.42956" lon="6.64132">
        <ele>340</ele>
        <time>2016-04-24T07:24:30Z</time>
      </trkpt>
      <trkpt lat="47.42954" lon="6.64134">
        <ele>341</ele>
        <time>2016-04-24T07:24:31Z</time>
      </trkpt>
      <trkpt lat="47.42952" lon="6.64137">
        <ele>341</ele>
        <time>2016-04-24T07:24:32Z</time>
      </trkpt>
      <trkpt lat="47.4295" lon="6.6414">
        <ele>341</ele>
        <time>2016-04-24T07:24:33Z</time>
      </trkpt>
      <trkpt lat="47.42949" lon="6.64143">
        <ele>341</ele>
        <time>2016-04-24T07:24:34Z</time>
      </trkpt>
      <trkpt lat="47.42948" lon="6.64146">
        <ele>342</ele>
        <time>2016-04-24T07:24:35Z</time>
      </trkpt>
      <trkpt lat="47.42947" lon="6.6415">
        <ele>342</ele>
        <time>2016-04-24T07:24:36Z</time>
      </trkpt>
      <trkpt lat="47.42947" lon="6.64153">
        <ele>342</ele>
        <time>2016-04-24T07:24:37Z</time>
      </trkpt>
      <trkpt lat="47.42947" lon="6.64159">
        <ele>342</ele>
        <time>2016-04-24T07:24:39Z</time>
      </trkpt>
      <trkpt lat="47.42948" lon="6.64162">
        <ele>343</ele>
        <time>2016-04-24T07:24:40Z</time>
      </trkpt>
      <trkpt lat="47.42948" lon="6.64168">
        <ele>351</ele>
        <time>2016-04-24T07:24:42Z</time>
      </trkpt>
      <trkpt lat="47.42948" lon="6.64171">
        <ele>351</ele>
        <time>2016-04-24T07:24:43Z</time>
      </trkpt>
      <trkpt lat="47.42948" lon="6.64177">
        <ele>351</ele>
        <time>2016-04-24T07:24:45Z</time>
      </trkpt>
      <trkpt lat="47.42948" lon="6.64179">
        <ele>351</ele>
        <time>2016-04-24T07:24:46Z</time>
      </trkpt>
      <trkpt lat="47.42947" lon="6.64183">
        <ele>351</ele>
        <time>2016-04-24T07:24:49Z</time>
      </trkpt>
      <trkpt lat="47.42947" lon="6.64185">
        <ele>351</ele>
        <time>2016-04-24T07:24:50Z</time>
      </trkpt>
      <trkpt lat="47.42947" lon="6.64191">
        <ele>352</ele>
        <time>2016-04-24T07:24:53Z</time>
      </trkpt>
      <trkpt lat="47.42947" lon="6.64192">
        <ele>352</ele>
        <time>2016-04-24T07:24:54Z</time>
      </trkpt>
      <trkpt lat="47.42944" lon="6.64196">
        <ele>352</ele>
        <time>2016-04-24T07:24:59Z</time>
      </trkpt>
      <trkpt lat="47.42943" lon="6.64197">
        <ele>352</ele>
        <time>2016-04-24T07:25:00Z</time>
      </trkpt>
      <trkpt lat="47.42941" lon="6.64202">
        <ele>353</ele>
        <time>2016-04-24T07:25:08Z</time>
      </trkpt>
      <trkpt lat="47.4294" lon="6.64203">
        <ele>353</ele>
        <time>2016-04-24T07:25:09Z</time>
      </trkpt>
      <trkpt lat="47.42938" lon="6.64208">
        <ele>354</ele>
        <time>2016-04-24T07:25:12Z</time>
      </trkpt>
      <trkpt lat="47.42937" lon="6.64209">
        <ele>354</ele>
        <time>2016-04-24T07:25:13Z</time>
      </trkpt>
      <trkpt lat="47.42935" lon="6.64212">
        <ele>354</ele>
        <time>2016-04-24T07:25:16Z</time>
      </trkpt>
      <trkpt lat="47.42934" lon="6.64214">
        <ele>354</ele>
        <time>2016-04-24T07:25:17Z</time>
      </trkpt>
      <trkpt lat="47.42933" lon="6.6422">
        <ele>355</ele>
        <time>2016-04-24T07:25:20Z</time>
      </trkpt>
      <trkpt lat="47.42932" lon="6.6422">
        <ele>355</ele>
        <time>2016-04-24T07:25:21Z</time>
      </trkpt>
      <trkpt lat="47.42929" lon="6.64224">
        <ele>356</ele>
        <time>2016-04-24T07:25:25Z</time>
      </trkpt>
      <trkpt lat="47.42928" lon="6.64226">
        <ele>356</ele>
        <time>2016-04-24T07:25:26Z</time>
      </trkpt>
      <trkpt lat="47.42925" lon="6.6423">
        <ele>357</ele>
        <time>2016-04-24T07:25:31Z</time>
      </trkpt>
      <trkpt lat="47.42924" lon="6.64231">
        <ele>357</ele>
        <time>2016-04-24T07:25:32Z</time>
      </trkpt>
      <trkpt lat="47.42923" lon="6.64236">
        <ele>358</ele>
        <time>2016-04-24T07:25:37Z</time>
      </trkpt>
      <trkpt lat="47.42923" lon="6.64238">
        <ele>359</ele>
        <time>2016-04-24T07:25:38Z</time>
      </trkpt>
      <trkpt lat="47.42922" lon="6.64243">
        <ele>360</ele>
        <time>2016-04-24T07:25:41Z</time>
      </trkpt>
      <trkpt lat="47.42922" lon="6.64244">
        <ele>360</ele>
        <time>2016-04-24T07:25:42Z</time>
      </trkpt>
      <trkpt lat="47.42922" lon="6.6425">
        <ele>364</ele>
        <time>2016-04-24T07:25:46Z</time>
      </trkpt>
      <trkpt lat="47.42921" lon="6.64252">
        <ele>364</ele>
        <time>2016-04-24T07:25:47Z</time>
      </trkpt>
      <trkpt lat="47.42921" lon="6.64257">
        <ele>364</ele>
        <time>2016-04-24T07:25:49Z</time>
      </trkpt>
      <trkpt lat="47.42921" lon="6.64259">
        <ele>364</ele>
        <time>2016-04-24T07:25:50Z</time>
      </trkpt>
      <trkpt lat="47.42921" lon="6.64265">
        <ele>365</ele>
        <time>2016-04-24T07:25:53Z</time>
      </trkpt>
      <trkpt lat="47.4292" lon="6.64267">
        <ele>365</ele>
        <time>2016-04-24T07:25:54Z</time>
      </trkpt>
      <trkpt lat="47.42919" lon="6.64273">
        <ele>365</ele>
        <time>2016-04-24T07:25:59Z</time>
      </trkpt>
      <trkpt lat="47.42919" lon="6.64274">
        <ele>365</ele>
        <time>2016-04-24T07:26:00Z</time>
      </trkpt>
      <trkpt lat="47.42918" lon="6.64279">
        <ele>366</ele>
        <time>2016-04-24T07:26:03Z</time>
      </trkpt>
      <trkpt lat="47.42918" lon="6.64281">
        <ele>366</ele>
        <time>2016-04-24T07:26:04Z</time>
      </trkpt>
      <trkpt lat="47.42916" lon="6.64285">
        <ele>370</ele>
        <time>2016-04-24T07:26:06Z</time>
      </trkpt>
      <trkpt lat="47.42916" lon="6.64287">
        <ele>370</ele>
        <time>2016-04-24T07:26:07Z</time>
      </trkpt>
      <trkpt lat="47.42914" lon="6.64294">
        <ele>371</ele>
        <time>2016-04-24T07:26:11Z</time>
      </trkpt>
      <trkpt lat="47.42914" lon="6.64295">
        <ele>371</ele>
        <time>2016-04-24T07:26:12Z</time>
      </trkpt>
      <trkpt lat="47.42913" lon="6.64301">
        <ele>371</ele>
        <time>2016-04-24T07:26:16Z</time>
      </trkpt>
      <trkpt lat="47.42913" lon="6.64303">
        <ele>371</ele>
        <time>2016-04-24T07:26:17Z</time>
      </trkpt>
      <trkpt lat="47.4291" lon="6.64307">
        <ele>372</ele>
        <time>2016-04-24T07:26:21Z</time>
      </trkpt>
      <trkpt lat="47.42909" lon="6.64307">
        <ele>372</ele>
        <time>2016-04-24T07:26:22Z</time>
      </trkpt>
      <trkpt lat="47.42909" lon="6.64313">
        <ele>372</ele>
        <time>2016-04-24T07:26:25Z</time>
      </trkpt>
      <trkpt lat="47.42909" lon="6.64316">
        <ele>372</ele>
        <time>2016-04-24T07:26:26Z</time>
      </trkpt>
      <trkpt lat="47.42909" lon="6.64321">
        <ele>372</ele>
        <time>2016-04-24T07:26:28Z</time>
      </trkpt>
      <trkpt lat="47.42908" lon="6.64324">
        <ele>373</ele>
        <time>2016-04-24T07:26:29Z</time>
      </trkpt>
      <trkpt lat="47.42908" lon="6.64329">
        <ele>373</ele>
        <time>2016-04-24T07:26:31Z</time>
      </trkpt>
      <trkpt lat="47.42908" lon="6.64331">
        <ele>373</ele>
        <time>2016-04-24T07:26:32Z</time>
      </trkpt>
      <trkpt lat="47.42907" lon="6.64337">
        <ele>375</ele>
        <time>2016-04-24T07:26:37Z</time>
      </trkpt>
      <trkpt lat="47.42906" lon="6.64338">
        <ele>376</ele>
        <time>2016-04-24T07:26:38Z</time>
      </trkpt>
      <trkpt lat="47.42904" lon="6.64341">
        <ele>376</ele>
        <time>2016-04-24T07:26:41Z</time>
      </trkpt>
      <trkpt lat="47.42902" lon="6.64342">
        <ele>377</ele>
        <time>2016-04-24T07:26:42Z</time>
      </trkpt>
      <trkpt lat="47.42898" lon="6.64345">
        <ele>377</ele>
        <time>2016-04-24T07:26:46Z</time>
      </trkpt>
      <trkpt lat="47.42898" lon="6.64345">
        <ele>377</ele>
        <time>2016-04-24T07:26:47Z</time>
      </trkpt>
      <trkpt lat="47.42896" lon="6.64351">
        <ele>378</ele>
        <time>2016-04-24T07:26:52Z</time>
      </trkpt>
      <trkpt lat="47.42896" lon="6.64352">
        <ele>378</ele>
        <time>2016-04-24T07:26:53Z</time>
      </trkpt>
      <trkpt lat="47.42895" lon="6.64357">
        <ele>378</ele>
        <time>2016-04-24T07:26:58Z</time>
      </trkpt>
      <trkpt lat="47.42894" lon="6.64358">
        <ele>379</ele>
        <time>2016-04-24T07:26:59Z</time>
      </trkpt>
      <trkpt lat="47.42894" lon="6.64364">
        <ele>379</ele>
        <time>2016-04-24T07:27:02Z</time>
      </trkpt>
      <trkpt lat="47.42894" lon="6.64366">
        <ele>379</ele>
        <time>2016-04-24T07:27:03Z</time>
      </trkpt>
      <trkpt lat="47.42892" lon="6.64371">
        <ele>379</ele>
        <time>2016-04-24T07:27:06Z</time>
      </trkpt>
      <trkpt lat="47.42892" lon="6.64373">
        <ele>380</ele>
        <time>2016-04-24T07:27:07Z</time>
      </trkpt>
      <trkpt lat="47.42891" lon="6.64378">
        <ele>380</ele>
        <time>2016-04-24T07:27:09Z</time>
      </trkpt>
      <trkpt lat="47.4289" lon="6.6438">
        <ele>380</ele>
        <time>2016-04-24T07:27:10Z</time>
      </trkpt>
      <trkpt lat="47.42888" lon="6.64385">
        <ele>380</ele>
        <time>2016-04-24T07:27:13Z</time>
      </trkpt>
      <trkpt lat="47.42887" lon="6.64386">
        <ele>380</ele>
        <time>2016-04-24T07:27:14Z</time>
      </trkpt>
      <trkpt lat="47.42886" lon="6.64391">
        <ele>381</ele>
        <time>2016-04-24T07:27:18Z</time>
      </trkpt>
      <trkpt lat="47.42886" lon="6.64393">
        <ele>381</ele>
        <time>2016-04-24T07:27:19Z</time>
      </trkpt>
      <trkpt lat="47.42884" lon="6.64398">
        <ele>381</ele>
        <time>2016-04-24T07:27:22Z</time>
      </trkpt>
      <trkpt lat="47.42884" lon="6.644">
        <ele>381</ele>
        <time>2016-04-24T07:27:23Z</time>
      </trkpt>
      <trkpt lat="47.42884" lon="6.64405">
        <ele>381</ele>
        <time>2016-04-24T07:27:26Z</time>
      </trkpt>
      <trkpt lat="47.42884" lon="6.64407">
        <ele>381</ele>
        <time>2016-04-24T07:27:27Z</time>
      </trkpt>
      <trkpt lat="47.42885" lon="6.64413">
        <ele>381</ele>
        <time>2016-04-24T07:27:30Z</time>
      </trkpt>
      <trkpt lat="47.42885" lon="6.64415">
        <ele>381</ele>
        <time>2016-04-24T07:27:31Z</time>
      </trkpt>
      <trkpt lat="47.42885" lon="6.64421">
        <ele>384</ele>
        <time>2016-04-24T07:27:35Z</time>
      </trkpt>
      <trkpt lat="47.42885" lon="6.64423">
        <ele>384</ele>
        <time>2016-04-24T07:27:36Z</time>
      </trkpt>
      <trkpt lat="47.42885" lon="6.64429">
        <ele>384</ele>
        <time>2016-04-24T07:27:39Z</time>
      </trkpt>
      <trkpt lat="47.42885" lon="6.6443">
        <ele>384</ele>
        <time>2016-04-24T07:27:40Z</time>
      </trkpt>
      <trkpt lat="47.42883" lon="6.64435">
        <ele>384</ele>
        <time>2016-04-24T07:27:44Z</time>
      </trkpt>
      <trkpt lat="47.42883" lon="6.64437">
        <ele>384</ele>
        <time>2016-04-24T07:27:45Z</time>
      </trkpt>
      <trkpt lat="47.42882" lon="6.64442">
        <ele>384</ele>
        <time>2016-04-24T07:27:49Z</time>
      </trkpt>
      <trkpt lat="47.42881" lon="6.64443">
        <ele>384</ele>
        <time>2016-04-24T07:27:50Z</time>
      </trkpt>
      <trkpt lat="47.4288" lon="6.64448">
        <ele>384</ele>
        <time>2016-04-24T07:27:53Z</time>
      </trkpt>
      <trkpt lat="47.42879" lon="6.6445">
        <ele>384</ele>
        <time>2016-04-24T07:27:54Z</time>
      </trkpt>
      <trkpt lat="47.42877" lon="6.64454">
        <ele>384</ele>
        <time>2016-04-24T07:27:57Z</time>
      </trkpt>
      <trkpt lat="47.42876" lon="6.64456">
        <ele>384</ele>
        <time>2016-04-24T07:27:58Z</time>
      </trkpt>
      <trkpt lat="47.42873" lon="6.6446">
        <ele>385</ele>
        <time>2016-04-24T07:28:01Z</time>
      </trkpt>
      <trkpt lat="47.42872" lon="6.64461">
        <ele>385</ele>
        <time>2016-04-24T07:28:02Z</time>
      </trkpt>
      <trkpt lat="47.42868" lon="6.64464">
        <ele>385</ele>
        <time>2016-04-24T07:28:05Z</time>
      </trkpt>
      <trkpt lat="47.42867" lon="6.64464">
        <ele>385</ele>
        <time>2016-04-24T07:28:06Z</time>
      </trkpt>
      <trkpt lat="47.42863" lon="6.64465">
        <ele>385</ele>
        <time>2016-04-24T07:28:11Z</time>
      </trkpt>
      <trkpt lat="47.42863" lon="6.64464">
        <ele>385</ele>
        <time>2016-04-24T07:28:12Z</time>
      </trkpt>
      <trkpt lat="47.42859" lon="6.64468">
        <ele>385</ele>
        <time>2016-04-24T07:28:25Z</time>
      </trkpt>
      <trkpt lat="47.42858" lon="6.64467">
        <ele>385</ele>
        <time>2016-04-24T07:28:26Z</time>
      </trkpt>
      <trkpt lat="47.42855" lon="6.64466">
        <ele>385</ele>
        <time>2016-04-24T07:28:30Z</time>
      </trkpt>
      <trkpt lat="47.42853" lon="6.64466">
        <ele>385</ele>
        <time>2016-04-24T07:28:31Z</time>
      </trkpt>
      <trkpt lat="47.4285" lon="6.64466">
        <ele>385</ele>
        <time>2016-04-24T07:28:33Z</time>
      </trkpt>
      <trkpt lat="47.42848" lon="6.64466">
        <ele>385</ele>
        <time>2016-04-24T07:28:34Z</time>
      </trkpt>
      <trkpt lat="47.42845" lon="6.64468">
        <ele>386</ele>
        <time>2016-04-24T07:28:36Z</time>
      </trkpt>
      <trkpt lat="47.42843" lon="6.64469">
        <ele>386</ele>
        <time>2016-04-24T07:28:37Z</time>
      </trkpt>
      <trkpt lat="47.4284" lon="6.64468">
        <ele>386</ele>
        <time>2016-04-24T07:28:39Z</time>
      </trkpt>
      <trkpt lat="47.42839" lon="6.64467">
        <ele>386</ele>
        <time>2016-04-24T07:28:40Z</time>
      </trkpt>
      <trkpt lat="47.42836" lon="6.64466">
        <ele>386</ele>
        <time>2016-04-24T07:28:42Z</time>
      </trkpt>
      <trkpt lat="47.42834" lon="6.64466">
        <ele>386</ele>
        <time>2016-04-24T07:28:43Z</time>
      </trkpt>
      <trkpt lat="47.4283" lon="6.64467">
        <ele>392</ele>
        <time>2016-04-24T07:28:45Z</time>
      </trkpt>
      <trkpt lat="47.42828" lon="6.64468">
        <ele>392</ele>
        <time>2016-04-24T07:28:46Z</time>
      </trkpt>
      <trkpt lat="47.42825" lon="6.64469">
        <ele>392</ele>
        <time>2016-04-24T07:28:48Z</time>
      </trkpt>
      <trkpt lat="47.42824" lon="6.64469">
        <ele>392</ele>
        <time>2016-04-24T07:28:49Z</time>
      </trkpt>
      <trkpt lat="47.42819" lon="6.64468">
        <ele>392</ele>
        <time>2016-04-24T07:28:55Z</time>
      </trkpt>
      <trkpt lat="47.42818" lon="6.64468">
        <ele>392</ele>
        <time>2016-04-24T07:28:56Z</time>
      </trkpt>
      <trkpt lat="47.42815" lon="6.64468">
        <ele>392</ele>
        <time>2016-04-24T07:28:59Z</time>
      </trkpt>
      <trkpt lat="47.42814" lon="6.64468">
        <ele>392</ele>
        <time>2016-04-24T07:29:00Z</time>
      </trkpt>
      <trkpt lat="47.4281" lon="6.64468">
        <ele>393</ele>
        <time>2016-04-24T07:29:05Z</time>
      </trkpt>
      <trkpt lat="47.42809" lon="6.64467">
        <ele>393</ele>
        <time>2016-04-24T07:29:06Z</time>
      </trkpt>
      <trkpt lat="47.42805" lon="6.64464">
        <ele>393</ele>
        <time>2016-04-24T07:29:12Z</time>
      </trkpt>
      <trkpt lat="47.42805" lon="6.64463">
        <ele>393</ele>
        <time>2016-04-24T07:29:13Z</time>
      </trkpt>
      <trkpt lat="47.42804" lon="6.64469">
        <ele>393</ele>
        <time>2016-04-24T07:29:19Z</time>
      </trkpt>
      <trkpt lat="47.42803" lon="6.6447">
        <ele>393</ele>
        <time>2016-04-24T07:29:20Z</time>
      </trkpt>
      <trkpt lat="47.42799" lon="6.64472">
        <ele>393</ele>
        <time>2016-04-24T07:29:24Z</time>
      </trkpt>
      <trkpt lat="47.42798" lon="6.64473">
        <ele>394</ele>
        <time>2016-04-24T07:29:25Z</time>
      </trkpt>
      <trkpt lat="47.42794" lon="6.64476">
        <ele>394</ele>
        <time>2016-04-24T07:29:30Z</time>
      </trkpt>
      <trkpt lat="47.42793" lon="6.64476">
        <ele>394</ele>
        <time>2016-04-24T07:29:31Z</time>
      </trkpt>
      <trkpt lat="47.42789" lon="6.64477">
        <ele>394</ele>
        <time>2016-04-24T07:29:37Z</time>
      </trkpt>
      <trkpt lat="47.42788" lon="6.64476">
        <ele>394</ele>
        <time>2016-04-24T07:29:38Z</time>
      </trkpt>
      <trkpt lat="47.42784" lon="6.64476">
        <ele>395</ele>
        <time>2016-04-24T07:29:44Z</time>
      </trkpt>
      <trkpt lat="47.42784" lon="6.64476">
        <ele>395</ele>
        <time>2016-04-24T07:29:45Z</time>
      </trkpt>
      <trkpt lat="47.42779" lon="6.64477">
        <ele>395</ele>
        <time>2016-04-24T07:29:52Z</time>
      </trkpt>
      <trkpt lat="47.42779" lon="6.64477">
        <ele>395</ele>
        <time>2016-04-24T07:29:53Z</time>
      </trkpt>
      <trkpt lat="47.42775" lon="6.64478">
        <ele>396</ele>
        <time>2016-04-24T07:29:59Z</time>
      </trkpt>
      <trkpt lat="47.42774" lon="6.64478">
        <ele>396</ele>
        <time>2016-04-24T07:30:00Z</time>
      </trkpt>
      <trkpt lat="47.4277" lon="6.6448">
        <ele>396</ele>
        <time>2016-04-24T07:30:05Z</time>
      </trkpt>
      <trkpt lat="47.42769" lon="6.6448">
        <ele>396</ele>
        <time>2016-04-24T07:30:06Z</time>
      </trkpt>
      <trkpt lat="47.42765" lon="6.64481">
        <ele>397</ele>
        <time>2016-04-24T07:30:15Z</time>
      </trkpt>
      <trkpt lat="47.42764" lon="6.64481">
        <ele>397</ele>
        <time>2016-04-24T07:30:16Z</time>
      </trkpt>
      <trkpt lat="47.42761" lon="6.64483">
        <ele>397</ele>
        <time>2016-04-24T07:30:21Z</time>
      </trkpt>
      <trkpt lat="47.4276" lon="6.64484">
        <ele>397</ele>
        <time>2016-04-24T07:30:22Z</time>
      </trkpt>
      <trkpt lat="47.42756" lon="6.64487">
        <ele>398</ele>
        <time>2016-04-24T07:30:29Z</time>
      </trkpt>
      <trkpt lat="47.42755" lon="6.64488">
        <ele>398</ele>
        <time>2016-04-24T07:30:30Z</time>
      </trkpt>
      <trkpt lat="47.42753" lon="6.64493">
        <ele>399</ele>
        <time>2016-04-24T07:30:34Z</time>
      </trkpt>
      <trkpt lat="47.42753" lon="6.64495">
        <ele>399</ele>
        <time>2016-04-24T07:30:35Z</time>
      </trkpt>
      <trkpt lat="47.42752" lon="6.64501">
        <ele>401</ele>
        <time>2016-04-24T07:30:39Z</time>
      </trkpt>
      <trkpt lat="47.42751" lon="6.64503">
        <ele>400</ele>
        <time>2016-04-24T07:30:40Z</time>
      </trkpt>
      <trkpt lat="47.42749" lon="6.64507">
        <ele>402</ele>
        <time>2016-04-24T07:30:43Z</time>
      </trkpt>
      <trkpt lat="47.42748" lon="6.64508">
        <ele>402</ele>
        <time>2016-04-24T07:30:44Z</time>
      </trkpt>
      <trkpt lat="47.42745" lon="6.64513">
        <ele>403</ele>
        <time>2016-04-24T07:30:47Z</time>
      </trkpt>
      <trkpt lat="47.42745" lon="6.64514">
        <ele>403</ele>
        <time>2016-04-24T07:30:48Z</time>
      </trkpt>
      <trkpt lat="47.42745" lon="6.64521">
        <ele>404</ele>
        <time>2016-04-24T07:30:51Z</time>
      </trkpt>
      <trkpt lat="47.42744" lon="6.64523">
        <ele>404</ele>
        <time>2016-04-24T07:30:52Z</time>
      </trkpt>
      <trkpt lat="47.42741" lon="6.64527">
        <ele>404</ele>
        <time>2016-04-24T07:30:55Z</time>
      </trkpt>
      <trkpt lat="47.42739" lon="6.64528">
        <ele>404</ele>
        <time>2016-04-24T07:30:56Z</time>
      </trkpt>
      <trkpt lat="47.42736" lon="6.64529">
        <ele>404</ele>
        <time>2016-04-24T07:30:58Z</time>
      </trkpt>
      <trkpt lat="47.42735" lon="6.6453">
        <ele>404</ele>
        <time>2016-04-24T07:30:59Z</time>
      </trkpt>
      <trkpt lat="47.42731" lon="6.64534">
        <ele>405</ele>
        <time>2016-04-24T07:31:02Z</time>
      </trkpt>
      <trkpt lat="47.42731" lon="6.64537">
        <ele>405</ele>
        <time>2016-04-24T07:31:03Z</time>
      </trkpt>
      <trkpt lat="47.42732" lon="6.64542">
        <ele>405</ele>
        <time>2016-04-24T07:31:05Z</time>
      </trkpt>
      <trkpt lat="47.42732" lon="6.64544">
        <ele>405</ele>
        <time>2016-04-24T07:31:06Z</time>
      </trkpt>
      <trkpt lat="47.42731" lon="6.6455">
        <ele>405</ele>
        <time>2016-04-24T07:31:08Z</time>
      </trkpt>
      <trkpt lat="47.4273" lon="6.64553">
        <ele>405</ele>
        <time>2016-04-24T07:31:09Z</time>
      </trkpt>
      <trkpt lat="47.42728" lon="6.64556">
        <ele>405</ele>
        <time>2016-04-24T07:31:10Z</time>
      </trkpt>
      <trkpt lat="47.42727" lon="6.6456">
        <ele>405</ele>
        <time>2016-04-24T07:31:11Z</time>
      </trkpt>
      <trkpt lat="47.42725" lon="6.64564">
        <ele>405</ele>
        <time>2016-04-24T07:31:12Z</time>
      </trkpt>
      <trkpt lat="47.42724" lon="6.64568">
        <ele>405</ele>
        <time>2016-04-24T07:31:13Z</time>
      </trkpt>
      <trkpt lat="47.42723" lon="6.64573">
        <ele>405</ele>
        <time>2016-04-24T07:31:14Z</time>
      </trkpt>
      <trkpt lat="47.42722" lon="6.64578">
        <ele>405</ele>
        <time>2016-04-24T07:31:15Z</time>
      </trkpt>
      <trkpt lat="47.42722" lon="6.64583">
        <ele>405</ele>
        <time>2016-04-24T07:31:16Z</time>
      </trkpt>
      <trkpt lat="47.42722" lon="6.64588">
        <ele>402</ele>
        <time>2016-04-24T07:31:17Z</time>
      </trkpt>
      <trkpt lat="47.42721" lon="6.64593">
        <ele>402</ele>
        <time>2016-04-24T07:31:18Z</time>
      </trkpt>
      <trkpt lat="47.4272" lon="6.64599">
        <ele>402</ele>
        <time>2016-04-24T07:31:19Z</time>
      </trkpt>
      <trkpt lat="47.42719" lon="6.64604">
        <ele>402</ele>
        <time>2016-04-24T07:31:20Z</time>
      </trkpt>
      <trkpt lat="47.42718" lon="6.64608">
        <ele>402</ele>
        <time>2016-04-24T07:31:21Z</time>
      </trkpt>
      <trkpt lat="47.42718" lon="6.64612">
        <ele>401</ele>
        <time>2016-04-24T07:31:22Z</time>
      </trkpt>
      <trkpt lat="47.42717" lon="6.64615">
        <ele>401</ele>
        <time>2016-04-24T07:31:23Z</time>
      </trkpt>
      <trkpt lat="47.42715" lon="6.64621">
        <ele>401</ele>
        <time>2016-04-24T07:31:25Z</time>
      </trkpt>
      <trkpt lat="47.42714" lon="6.64623">
        <ele>401</ele>
        <time>2016-04-24T07:31:26Z</time>
      </trkpt>
      <trkpt lat="47.42712" lon="6.64626">
        <ele>401</ele>
        <time>2016-04-24T07:31:27Z</time>
      </trkpt>
      <trkpt lat="47.4271" lon="6.6463">
        <ele>401</ele>
        <time>2016-04-24T07:31:28Z</time>
      </trkpt>
      <trkpt lat="47.42708" lon="6.64633">
        <ele>401</ele>
        <time>2016-04-24T07:31:29Z</time>
      </trkpt>
      <trkpt lat="47.42706" lon="6.64636">
        <ele>401</ele>
        <time>2016-04-24T07:31:30Z</time>
      </trkpt>
      <trkpt lat="47.42704" lon="6.6464">
        <ele>401</ele>
        <time>2016-04-24T07:31:31Z</time>
      </trkpt>
      <trkpt lat="47.42702" lon="6.64644">
        <ele>401</ele>
        <time>2016-04-24T07:31:32Z</time>
      </trkpt>
      <trkpt lat="47.42699" lon="6.64649">
        <ele>400</ele>
        <time>2016-04-24T07:31:33Z</time>
      </trkpt>
      <trkpt lat="47.42697" lon="6.64655">
        <ele>400</ele>
        <time>2016-04-24T07:31:34Z</time>
      </trkpt>
      <trkpt lat="47.42693" lon="6.6466">
        <ele>400</ele>
        <time>2016-04-24T07:31:35Z</time>
      </trkpt>
      <trkpt lat="47.4269" lon="6.64665">
        <ele>400</ele>
        <time>2016-04-24T07:31:36Z</time>
      </trkpt>
      <trkpt lat="47.42686" lon="6.6467">
        <ele>395</ele>
        <time>2016-04-24T07:31:37Z</time>
      </trkpt>
      <trkpt lat="47.42683" lon="6.64674">
        <ele>395</ele>
        <time>2016-04-24T07:31:38Z</time>
      </trkpt>
      <trkpt lat="47.42679" lon="6.64678">
        <ele>395</ele>
        <time>2016-04-24T07:31:39Z</time>
      </trkpt>
      <trkpt lat="47.42658" lon="6.6469">
        <ele>387</ele>
        <time>2016-04-24T07:31:40Z</time>
      </trkpt>
      <trkpt lat="47.42654" lon="6.64694">
        <ele>386</ele>
        <time>2016-04-24T07:31:41Z</time>
      </trkpt>
      <trkpt lat="47.42653" lon="6.647">
        <ele>385</ele>
        <time>2016-04-24T07:31:42Z</time>
      </trkpt>
      <trkpt lat="47.42653" lon="6.64708">
        <ele>383</ele>
        <time>2016-04-24T07:31:43Z</time>
      </trkpt>
      <trkpt lat="47.42653" lon="6.64715">
        <ele>383</ele>
        <time>2016-04-24T07:31:44Z</time>
      </trkpt>
      <trkpt lat="47.42653" lon="6.64723">
        <ele>382</ele>
        <time>2016-04-24T07:31:45Z</time>
      </trkpt>
      <trkpt lat="47.42653" lon="6.64731">
        <ele>382</ele>
        <time>2016-04-24T07:31:46Z</time>
      </trkpt>
      <trkpt lat="47.42654" lon="6.6474">
        <ele>381</ele>
        <time>2016-04-24T07:31:47Z</time>
      </trkpt>
      <trkpt lat="47.42654" lon="6.64748">
        <ele>382</ele>
        <time>2016-04-24T07:31:48Z</time>
      </trkpt>
      <trkpt lat="47.42654" lon="6.64754">
        <ele>377</ele>
        <time>2016-04-24T07:31:49Z</time>
      </trkpt>
      <trkpt lat="47.42655" lon="6.64758">
        <ele>376</ele>
        <time>2016-04-24T07:31:50Z</time>
      </trkpt>
      <trkpt lat="47.42658" lon="6.64761">
        <ele>377</ele>
        <time>2016-04-24T07:31:54Z</time>
      </trkpt>
      <trkpt lat="47.42659" lon="6.64761">
        <ele>377</ele>
        <time>2016-04-24T07:31:55Z</time>
      </trkpt>
      <trkpt lat="47.42662" lon="6.64766">
        <ele>376</ele>
        <time>2016-04-24T07:32:00Z</time>
      </trkpt>
      <trkpt lat="47.42663" lon="6.64767">
        <ele>376</ele>
        <time>2016-04-24T07:32:01Z</time>
      </trkpt>
      <trkpt lat="47.42661" lon="6.64772">
        <ele>374</ele>
        <time>2016-04-24T07:32:07Z</time>
      </trkpt>
      <trkpt lat="47.4266" lon="6.64774">
        <ele>374</ele>
        <time>2016-04-24T07:32:08Z</time>
      </trkpt>
      <trkpt lat="47.42659" lon="6.64779">
        <ele>373</ele>
        <time>2016-04-24T07:32:10Z</time>
      </trkpt>
      <trkpt lat="47.42658" lon="6.64783">
        <ele>372</ele>
        <time>2016-04-24T07:32:11Z</time>
      </trkpt>
      <trkpt lat="47.42658" lon="6.64786">
        <ele>372</ele>
        <time>2016-04-24T07:32:12Z</time>
      </trkpt>
      <trkpt lat="47.42657" lon="6.6479">
        <ele>371</ele>
        <time>2016-04-24T07:32:13Z</time>
      </trkpt>
      <trkpt lat="47.42657" lon="6.64795">
        <ele>371</ele>
        <time>2016-04-24T07:32:15Z</time>
      </trkpt>
      <trkpt lat="47.42657" lon="6.64797">
        <ele>371</ele>
        <time>2016-04-24T07:32:16Z</time>
      </trkpt>
      <trkpt lat="47.42658" lon="6.64802">
        <ele>371</ele>
        <time>2016-04-24T07:32:18Z</time>
      </trkpt>
      <trkpt lat="47.42658" lon="6.64804">
        <ele>371</ele>
        <time>2016-04-24T07:32:19Z</time>
      </trkpt>
      <trkpt lat="47.42659" lon="6.64808">
        <ele>371</ele>
        <time>2016-04-24T07:32:21Z</time>
      </trkpt>
      <trkpt lat="47.4266" lon="6.64811">
        <ele>371</ele>
        <time>2016-04-24T07:32:22Z</time>
      </trkpt>
      <trkpt lat="47.42661" lon="6.64815">
        <ele>372</ele>
        <time>2016-04-24T07:32:24Z</time>
      </trkpt>
      <trkpt lat="47.42662" lon="6.64818">
        <ele>372</ele>
        <time>2016-04-24T07:32:25Z</time>
      </trkpt>
      <trkpt lat="47.42663" lon="6.64822">
        <ele>372</ele>
        <time>2016-04-24T07:32:26Z</time>
      </trkpt>
      <trkpt lat="47.42664" lon="6.64825">
        <ele>373</ele>
        <time>2016-04-24T07:32:27Z</time>
      </trkpt>
      <trkpt lat="47.42665" lon="6.64829">
        <ele>374</ele>
        <time>2016-04-24T07:32:28Z</time>
      </trkpt>
      <trkpt lat="47.42666" lon="6.64832">
        <ele>375</ele>
        <time>2016-04-24T07:32:29Z</time>
      </trkpt>
      <trkpt lat="47.42667" lon="6.64835">
        <ele>374</ele>
        <time>2016-04-24T07:32:30Z</time>
      </trkpt>
      <trkpt lat="47.42667" lon="6.64839">
        <ele>376</ele>
        <time>2016-04-24T07:32:31Z</time>
      </trkpt>
      <trkpt lat="47.42667" lon="6.64842">
        <ele>376</ele>
        <time>2016-04-24T07:32:32Z</time>
      </trkpt>
      <trkpt lat="47.42668" lon="6.64845">
        <ele>376</ele>
        <time>2016-04-24T07:32:33Z</time>
      </trkpt>
      <trkpt lat="47.4267" lon="6.64851">
        <ele>376</ele>
        <time>2016-04-24T07:32:35Z</time>
      </trkpt>
      <trkpt lat="47.42672" lon="6.64853">
        <ele>377</ele>
        <time>2016-04-24T07:32:36Z</time>
      </trkpt>
      <trkpt lat="47.42674" lon="6.64854">
        <ele>377</ele>
        <time>2016-04-24T07:32:37Z</time>
      </trkpt>
      <trkpt lat="47.42676" lon="6.64855">
        <ele>377</ele>
        <time>2016-04-24T07:32:38Z</time>
      </trkpt>
      <trkpt lat="47.4268" lon="6.64859">
        <ele>377</ele>
        <time>2016-04-24T07:32:50Z</time>
      </trkpt>
      <trkpt lat="47.4268" lon="6.64859">
        <ele>377</ele>
        <time>2016-04-24T07:32:51Z</time>
      </trkpt>
      <trkpt lat="47.42682" lon="6.64864">
        <ele>377</ele>
        <time>2016-04-24T07:33:16Z</time>
      </trkpt>
      <trkpt lat="47.42683" lon="6.64865">
        <ele>377</ele>
        <time>2016-04-24T07:33:17Z</time>
      </trkpt>
      <trkpt lat="47.42685" lon="6.64869">
        <ele>377</ele>
        <time>2016-04-24T07:33:58Z</time>
      </trkpt>
      <trkpt lat="47.42685" lon="6.64872">
        <ele>377</ele>
        <time>2016-04-24T07:33:59.001Z</time>
      </trkpt>
      <trkpt lat="47.42686" lon="6.64875">
        <ele>377</ele>
        <time>2016-04-24T07:34:00Z</time>
      </trkpt>
      <trkpt lat="47.42686" lon="6.64879">
        <ele>376</ele>
        <time>2016-04-24T07:34:01Z</time>
      </trkpt>
      <trkpt lat="47.42687" lon="6.64881">
        <ele>376</ele>
        <time>2016-04-24T07:34:01.999Z</time>
      </trkpt>
      <trkpt lat="47.42686" lon="6.64887">
        <ele>375</ele>
        <time>2016-04-24T07:34:03Z</time>
      </trkpt>
      <trkpt lat="47.42686" lon="6.64891">
        <ele>375</ele>
        <time>2016-04-24T07:34:04Z</time>
      </trkpt>
      <trkpt lat="47.42685" lon="6.64895">
        <ele>374</ele>
        <time>2016-04-24T07:34:05Z</time>
      </trkpt>
      <trkpt lat="47.42685" lon="6.64899">
        <ele>373</ele>
        <time>2016-04-24T07:34:06Z</time>
      </trkpt>
      <trkpt lat="47.42686" lon="6.64902">
        <ele>373</ele>
        <time>2016-04-24T07:34:07Z</time>
      </trkpt>
      <trkpt lat="47.42688" lon="6.64905">
        <ele>373</ele>
        <time>2016-04-24T07:34:08Z</time>
      </trkpt>
      <trkpt lat="47.42691" lon="6.64909">
        <ele>374</ele>
        <time>2016-04-24T07:34:09Z</time>
      </trkpt>
      <trkpt lat="47.42694" lon="6.64913">
        <ele>374</ele>
        <time>2016-04-24T07:34:10Z</time>
      </trkpt>
      <trkpt lat="47.42698" lon="6.64918">
        <ele>370</ele>
        <time>2016-04-24T07:34:11Z</time>
      </trkpt>
      <trkpt lat="47.42702" lon="6.64924">
        <ele>371</ele>
        <time>2016-04-24T07:34:12Z</time>
      </trkpt>
      <trkpt lat="47.42705" lon="6.64929">
        <ele>372</ele>
        <time>2016-04-24T07:34:13Z</time>
      </trkpt>
      <trkpt lat="47.42707" lon="6.64934">
        <ele>372</ele>
        <time>2016-04-24T07:34:14Z</time>
      </trkpt>
      <trkpt lat="47.4271" lon="6.64939">
        <ele>372</ele>
        <time>2016-04-24T07:34:15Z</time>
      </trkpt>
      <trkpt lat="47.42712" lon="6.64943">
        <ele>373</ele>
        <time>2016-04-24T07:34:16Z</time>
      </trkpt>
      <trkpt lat="47.42714" lon="6.64946">
        <ele>373</ele>
        <time>2016-04-24T07:34:17Z</time>
      </trkpt>
      <trkpt lat="47.42716" lon="6.64949">
        <ele>373</ele>
        <time>2016-04-24T07:34:18Z</time>
      </trkpt>
      <trkpt lat="47.42718" lon="6.64951">
        <ele>373</ele>
        <time>2016-04-24T07:34:19Z</time>
      </trkpt>
      <trkpt lat="47.42726" lon="6.64958">
        <ele>374</ele>
        <time>2016-04-24T07:34:20Z</time>
      </trkpt>
      <trkpt lat="47.4273" lon="6.64963">
        <ele>374</ele>
        <time>2016-04-24T07:34:21Z</time>
      </trkpt>
      <trkpt lat="47.42732" lon="6.64969">
        <ele>375</ele>
        <time>2016-04-24T07:34:22Z</time>
      </trkpt>
      <trkpt lat="47.42734" lon="6.64974">
        <ele>375</ele>
        <time>2016-04-24T07:34:23Z</time>
      </trkpt>
      <trkpt lat="47.42736" lon="6.64978">
        <ele>376</ele>
        <time>2016-04-24T07:34:24Z</time>
      </trkpt>
      <trkpt lat="47.42737" lon="6.64982">
        <ele>376</ele>
        <time>2016-04-24T07:34:25Z</time>
      </trkpt>
      <trkpt lat="47.42738" lon="6.64985">
        <ele>377</ele>
        <time>2016-04-24T07:34:26Z</time>
      </trkpt>
      <trkpt lat="47.42742" lon="6.64995">
        <ele>379</ele>
        <time>2016-04-24T07:34:27Z</time>
      </trkpt>
      <trkpt lat="47.42743" lon="6.65001">
        <ele>378</ele>
        <time>2016-04-24T07:34:28Z</time>
      </trkpt>
      <trkpt lat="47.42746" lon="6.65007">
        <ele>378</ele>
        <time>2016-04-24T07:34:29Z</time>
      </trkpt>
      <trkpt lat="47.42749" lon="6.65011">
        <ele>376</ele>
        <time>2016-04-24T07:34:30Z</time>
      </trkpt>
      <trkpt lat="47.4275" lon="6.65016">
        <ele>384</ele>
        <time>2016-04-24T07:34:31Z</time>
      </trkpt>
      <trkpt lat="47.42752" lon="6.6502">
        <ele>384</ele>
        <time>2016-04-24T07:34:32Z</time>
      </trkpt>
      <trkpt lat="47.42752" lon="6.65023">
        <ele>384</ele>
        <time>2016-04-24T07:34:33Z</time>
      </trkpt>
      <trkpt lat="47.42752" lon="6.65027">
        <ele>384</ele>
        <time>2016-04-24T07:34:34Z</time>
      </trkpt>
      <trkpt lat="47.42751" lon="6.6503">
        <ele>384</ele>
        <time>2016-04-24T07:34:35Z</time>
      </trkpt>
      <trkpt lat="47.4275" lon="6.65034">
        <ele>384</ele>
        <time>2016-04-24T07:34:36Z</time>
      </trkpt>
      <trkpt lat="47.4275" lon="6.65038">
        <ele>384</ele>
        <time>2016-04-24T07:34:37Z</time>
      </trkpt>
      <trkpt lat="47.42752" lon="6.65043">
        <ele>383</ele>
        <time>2016-04-24T07:34:38Z</time>
      </trkpt>
      <trkpt lat="47.42753" lon="6.65047">
        <ele>383</ele>
        <time>2016-04-24T07:34:39Z</time>
      </trkpt>
      <trkpt lat="47.42755" lon="6.65051">
        <ele>383</ele>
        <time>2016-04-24T07:34:40Z</time>
      </trkpt>
      <trkpt lat="47.42757" lon="6.65055">
        <ele>382</ele>
        <time>2016-04-24T07:34:41Z</time>
      </trkpt>
      <trkpt lat="47.42758" lon="6.65059">
        <ele>382</ele>
        <time>2016-04-24T07:34:42Z</time>
      </trkpt>
      <trkpt lat="47.42759" lon="6.65063">
        <ele>381</ele>
        <time>2016-04-24T07:34:43Z</time>
      </trkpt>
      <trkpt lat="47.4276" lon="6.65068">
        <ele>380</ele>
        <time>2016-04-24T07:34:44Z</time>
      </trkpt>
      <trkpt lat="47.42761" lon="6.65073">
        <ele>380</ele>
        <time>2016-04-24T07:34:45Z</time>
      </trkpt>
      <trkpt lat="47.42762" lon="6.65077">
        <ele>379</ele>
        <time>2016-04-24T07:34:46Z</time>
      </trkpt>
      <trkpt lat="47.42763" lon="6.6508">
        <ele>379</ele>
        <time>2016-04-24T07:34:47Z</time>
      </trkpt>
      <trkpt lat="47.42765" lon="6.65085">
        <ele>377</ele>
        <time>2016-04-24T07:34:48Z</time>
      </trkpt>
      <trkpt lat="47.42767" lon="6.65089">
        <ele>377</ele>
        <time>2016-04-24T07:34:49Z</time>
      </trkpt>
      <trkpt lat="47.42768" lon="6.65093">
        <ele>378</ele>
        <time>2016-04-24T07:34:50Z</time>
      </trkpt>
      <trkpt lat="47.4277" lon="6.65097">
        <ele>378</ele>
        <time>2016-04-24T07:34:51Z</time>
      </trkpt>
      <trkpt lat="47.42771" lon="6.65101">
        <ele>378</ele>
        <time>2016-04-24T07:34:52Z</time>
      </trkpt>
      <trkpt lat="47.42772" lon="6.65104">
        <ele>378</ele>
        <time>2016-04-24T07:34:53Z</time>
      </trkpt>
      <trkpt lat="47.42773" lon="6.65108">
        <ele>379</ele>
        <time>2016-04-24T07:34:54Z</time>
      </trkpt>
      <trkpt lat="47.42773" lon="6.65112">
        <ele>379</ele>
        <time>2016-04-24T07:34:55Z</time>
      </trkpt>
      <trkpt lat="47.42774" lon="6.65115">
        <ele>379</ele>
        <time>2016-04-24T07:34:56Z</time>
      </trkpt>
      <trkpt lat="47.42776" lon="6.65119">
        <ele>379</ele>
        <time>2016-04-24T07:34:57Z</time>
      </trkpt>
      <trkpt lat="47.42777" lon="6.65121">
        <ele>379</ele>
        <time>2016-04-24T07:34:58Z</time>
      </trkpt>
      <trkpt lat="47.4278" lon="6.65126">
        <ele>379</ele>
        <time>2016-04-24T07:34:59Z</time>
      </trkpt>
      <trkpt lat="47.42781" lon="6.6513">
        <ele>379</ele>
        <time>2016-04-24T07:35:00Z</time>
      </trkpt>
      <trkpt lat="47.42782" lon="6.65134">
        <ele>379</ele>
        <time>2016-04-24T07:35:01Z</time>
      </trkpt>
      <trkpt lat="47.42783" lon="6.65138">
        <ele>379</ele>
        <time>2016-04-24T07:35:02Z</time>
      </trkpt>
      <trkpt lat="47.42784" lon="6.65143">
        <ele>379</ele>
        <time>2016-04-24T07:35:03Z</time>
      </trkpt>
      <trkpt lat="47.42785" lon="6.65148">
        <ele>379</ele>
        <time>2016-04-24T07:35:05Z</time>
      </trkpt>
      <trkpt lat="47.42787" lon="6.65151">
        <ele>379</ele>
        <time>2016-04-24T07:35:06Z</time>
      </trkpt>
      <trkpt lat="47.42788" lon="6.65155">
        <ele>379</ele>
        <time>2016-04-24T07:35:07Z</time>
      </trkpt>
      <trkpt lat="47.42789" lon="6.65158">
        <ele>379</ele>
        <time>2016-04-24T07:35:08Z</time>
      </trkpt>
      <trkpt lat="47.4279" lon="6.65163">
        <ele>379</ele>
        <time>2016-04-24T07:35:09Z</time>
      </trkpt>
      <trkpt lat="47.42791" lon="6.65166">
        <ele>379</ele>
        <time>2016-04-24T07:35:10Z</time>
      </trkpt>
      <trkpt lat="47.4279" lon="6.65172">
        <ele>373</ele>
        <time>2016-04-24T07:35:11Z</time>
      </trkpt>
      <trkpt lat="47.4279" lon="6.65176">
        <ele>373</ele>
        <time>2016-04-24T07:35:12Z</time>
      </trkpt>
      <trkpt lat="47.42789" lon="6.6518">
        <ele>373</ele>
        <time>2016-04-24T07:35:13Z</time>
      </trkpt>
      <trkpt lat="47.4279" lon="6.65185">
        <ele>373</ele>
        <time>2016-04-24T07:35:14Z</time>
      </trkpt>
      <trkpt lat="47.42791" lon="6.65191">
        <ele>373</ele>
        <time>2016-04-24T07:35:15Z</time>
      </trkpt>
      <trkpt lat="47.42794" lon="6.65196">
        <ele>373</ele>
        <time>2016-04-24T07:35:16Z</time>
      </trkpt>
      <trkpt lat="47.42796" lon="6.65202">
        <ele>373</ele>
        <time>2016-04-24T07:35:17Z</time>
      </trkpt>
      <trkpt lat="47.42799" lon="6.65207">
        <ele>373</ele>
        <time>2016-04-24T07:35:18Z</time>
      </trkpt>
      <trkpt lat="47.42801" lon="6.65212">
        <ele>373</ele>
        <time>2016-04-24T07:35:19Z</time>
      </trkpt>
      <trkpt lat="47.42804" lon="6.65217">
        <ele>373</ele>
        <time>2016-04-24T07:35:20Z</time>
      </trkpt>
      <trkpt lat="47.42805" lon="6.65223">
        <ele>373</ele>
        <time>2016-04-24T07:35:21Z</time>
      </trkpt>
      <trkpt lat="47.42807" lon="6.65228">
        <ele>374</ele>
        <time>2016-04-24T07:35:22Z</time>
      </trkpt>
      <trkpt lat="47.42809" lon="6.65233">
        <ele>374</ele>
        <time>2016-04-24T07:35:23Z</time>
      </trkpt>
      <trkpt lat="47.4281" lon="6.65236">
        <ele>374</ele>
        <time>2016-04-24T07:35:24Z</time>
      </trkpt>
      <trkpt lat="47.42811" lon="6.65239">
        <ele>374</ele>
        <time>2016-04-24T07:35:25Z</time>
      </trkpt>
      <trkpt lat="47.42812" lon="6.65243">
        <ele>375</ele>
        <time>2016-04-24T07:35:26Z</time>
      </trkpt>
      <trkpt lat="47.42813" lon="6.65247">
        <ele>375</ele>
        <time>2016-04-24T07:35:27Z</time>
      </trkpt>
      <trkpt lat="47.42814" lon="6.6525">
        <ele>375</ele>
        <time>2016-04-24T07:35:27.999Z</time>
      </trkpt>
      <trkpt lat="47.42816" lon="6.65255">
        <ele>371</ele>
        <time>2016-04-24T07:35:29Z</time>
      </trkpt>
      <trkpt lat="47.42816" lon="6.65259">
        <ele>370</ele>
        <time>2016-04-24T07:35:30Z</time>
      </trkpt>
      <trkpt lat="47.42817" lon="6.65262">
        <ele>370</ele>
        <time>2016-04-24T07:35:31Z</time>
      </trkpt>
      <trkpt lat="47.42818" lon="6.65267">
        <ele>369</ele>
        <time>2016-04-24T07:35:32Z</time>
      </trkpt>
      <trkpt lat="47.42821" lon="6.65272">
        <ele>369</ele>
        <time>2016-04-24T07:35:33Z</time>
      </trkpt>
      <trkpt lat="47.42823" lon="6.65276">
        <ele>368</ele>
        <time>2016-04-24T07:35:33.999Z</time>
      </trkpt>
      <trkpt lat="47.42827" lon="6.65281">
        <ele>368</ele>
        <time>2016-04-24T07:35:35Z</time>
      </trkpt>
      <trkpt lat="47.4283" lon="6.65285">
        <ele>367</ele>
        <time>2016-04-24T07:35:36Z</time>
      </trkpt>
      <trkpt lat="47.42832" lon="6.65289">
        <ele>367</ele>
        <time>2016-04-24T07:35:37Z</time>
      </trkpt>
      <trkpt lat="47.42832" lon="6.65292">
        <ele>366</ele>
        <time>2016-04-24T07:35:38Z</time>
      </trkpt>
      <trkpt lat="47.42832" lon="6.65295">
        <ele>366</ele>
        <time>2016-04-24T07:35:39Z</time>
      </trkpt>
      <trkpt lat="47.42833" lon="6.65298">
        <ele>366</ele>
        <time>2016-04-24T07:35:40Z</time>
      </trkpt>
      <trkpt lat="47.42835" lon="6.65302">
        <ele>382</ele>
        <time>2016-04-24T07:35:41Z</time>
      </trkpt>
      <trkpt lat="47.42837" lon="6.65304">
        <ele>381</ele>
        <time>2016-04-24T07:35:41.999Z</time>
      </trkpt>
      <trkpt lat="47.42841" lon="6.65309">
        <ele>381</ele>
        <time>2016-04-24T07:35:43Z</time>
      </trkpt>
      <trkpt lat="47.42846" lon="6.65321">
        <ele>379</ele>
        <time>2016-04-24T07:35:44Z</time>
      </trkpt>
      <trkpt lat="47.42847" lon="6.65328">
        <ele>378</ele>
        <time>2016-04-24T07:35:45Z</time>
      </trkpt>
      <trkpt lat="47.42848" lon="6.65335">
        <ele>374</ele>
        <time>2016-04-24T07:35:46Z</time>
      </trkpt>
      <trkpt lat="47.42849" lon="6.65341">
        <ele>375</ele>
        <time>2016-04-24T07:35:47Z</time>
      </trkpt>
      <trkpt lat="47.42849" lon="6.65347">
        <ele>375</ele>
        <time>2016-04-24T07:35:48Z</time>
      </trkpt>
      <trkpt lat="47.42854" lon="6.65356">
        <ele>377</ele>
        <time>2016-04-24T07:35:49Z</time>
      </trkpt>
      <trkpt lat="47.42852" lon="6.65365">
        <ele>377</ele>
        <time>2016-04-24T07:35:50Z</time>
      </trkpt>
      <trkpt lat="47.42853" lon="6.65374">
        <ele>376</ele>
        <time>2016-04-24T07:35:50.999Z</time>
      </trkpt>
      <trkpt lat="47.42852" lon="6.65383">
        <ele>376</ele>
        <time>2016-04-24T07:35:52Z</time>
      </trkpt>
      <trkpt lat="47.42854" lon="6.65393">
        <ele>375</ele>
        <time>2016-04-24T07:35:53Z</time>
      </trkpt>
      <trkpt lat="47.42855" lon="6.65403">
        <ele>374</ele>
        <time>2016-04-24T07:35:54Z</time>
      </trkpt>
      <trkpt lat="47.42855" lon="6.6541">
        <ele>373</ele>
        <time>2016-04-24T07:35:55Z</time>
      </trkpt>
      <trkpt lat="47.42854" lon="6.65416">
        <ele>372</ele>
        <time>2016-04-24T07:35:56Z</time>
      </trkpt>
      <trkpt lat="47.42856" lon="6.65427">
        <ele>369</ele>
        <time>2016-04-24T07:35:57Z</time>
      </trkpt>
      <trkpt lat="47.42857" lon="6.65432">
        <ele>370</ele>
        <time>2016-04-24T07:35:58Z</time>
      </trkpt>
      <trkpt lat="47.42857" lon="6.65439">
        <ele>370</ele>
        <time>2016-04-24T07:35:59Z</time>
      </trkpt>
      <trkpt lat="47.42855" lon="6.65445">
        <ele>370</ele>
        <time>2016-04-24T07:36:00Z</time>
      </trkpt>
      <trkpt lat="47.42858" lon="6.65454">
        <ele>370</ele>
        <time>2016-04-24T07:36:01Z</time>
      </trkpt>
      <trkpt lat="47.42859" lon="6.6546">
        <ele>370</ele>
        <time>2016-04-24T07:36:02Z</time>
      </trkpt>
      <trkpt lat="47.42861" lon="6.65467">
        <ele>370</ele>
        <time>2016-04-24T07:36:03Z</time>
      </trkpt>
      <trkpt lat="47.42865" lon="6.65473">
        <ele>370</ele>
        <time>2016-04-24T07:36:04Z</time>
      </trkpt>
      <trkpt lat="47.42868" lon="6.65479">
        <ele>370</ele>
        <time>2016-04-24T07:36:05Z</time>
      </trkpt>
      <trkpt lat="47.4287" lon="6.65484">
        <ele>370</ele>
        <time>2016-04-24T07:36:06Z</time>
      </trkpt>
      <trkpt lat="47.42871" lon="6.65489">
        <ele>371</ele>
        <time>2016-04-24T07:36:07Z</time>
      </trkpt>
      <trkpt lat="47.42871" lon="6.65502">
        <ele>364</ele>
        <time>2016-04-24T07:36:08Z</time>
      </trkpt>
      <trkpt lat="47.42869" lon="6.65512">
        <ele>363</ele>
        <time>2016-04-24T07:36:09Z</time>
      </trkpt>
      <trkpt lat="47.4287" lon="6.6552">
        <ele>363</ele>
        <time>2016-04-24T07:36:10Z</time>
      </trkpt>
      <trkpt lat="47.42868" lon="6.6553">
        <ele>362</ele>
        <time>2016-04-24T07:36:11Z</time>
      </trkpt>
      <trkpt lat="47.42869" lon="6.65537">
        <ele>362</ele>
        <time>2016-04-24T07:36:12Z</time>
      </trkpt>
      <trkpt lat="47.42866" lon="6.65546">
        <ele>361</ele>
        <time>2016-04-24T07:36:13Z</time>
      </trkpt>
      <trkpt lat="47.42865" lon="6.65549">
        <ele>360</ele>
        <time>2016-04-24T07:36:14Z</time>
      </trkpt>
      <trkpt lat="47.42864" lon="6.65555">
        <ele>359</ele>
        <time>2016-04-24T07:36:15Z</time>
      </trkpt>
      <trkpt lat="47.42865" lon="6.65561">
        <ele>359</ele>
        <time>2016-04-24T07:36:16Z</time>
      </trkpt>
      <trkpt lat="47.42866" lon="6.65566">
        <ele>359</ele>
        <time>2016-04-24T07:36:17Z</time>
      </trkpt>
      <trkpt lat="47.42869" lon="6.65577">
        <ele>359</ele>
        <time>2016-04-24T07:36:18Z</time>
      </trkpt>
      <trkpt lat="47.42871" lon="6.65584">
        <ele>352</ele>
        <time>2016-04-24T07:36:18.999Z</time>
      </trkpt>
      <trkpt lat="47.42872" lon="6.65591">
        <ele>352</ele>
        <time>2016-04-24T07:36:20.001Z</time>
      </trkpt>
      <trkpt lat="47.42872" lon="6.65598">
        <ele>352</ele>
        <time>2016-04-24T07:36:21Z</time>
      </trkpt>
      <trkpt lat="47.42871" lon="6.65601">
        <ele>352</ele>
        <time>2016-04-24T07:36:22Z</time>
      </trkpt>
      <trkpt lat="47.42871" lon="6.65608">
        <ele>352</ele>
        <time>2016-04-24T07:36:23Z</time>
      </trkpt>
      <trkpt lat="47.42872" lon="6.65616">
        <ele>352</ele>
        <time>2016-04-24T07:36:24Z</time>
      </trkpt>
      <trkpt lat="47.42873" lon="6.65624">
        <ele>352</ele>
        <time>2016-04-24T07:36:25Z</time>
      </trkpt>
      <trkpt lat="47.42874" lon="6.65633">
        <ele>351</ele>
        <time>2016-04-24T07:36:26Z</time>
      </trkpt>
      <trkpt lat="47.42879" lon="6.65644">
        <ele>352</ele>
        <time>2016-04-24T07:36:27Z</time>
      </trkpt>
      <trkpt lat="47.42883" lon="6.65652">
        <ele>352</ele>
        <time>2016-04-24T07:36:28Z</time>
      </trkpt>
      <trkpt lat="47.42885" lon="6.6566">
        <ele>352</ele>
        <time>2016-04-24T07:36:29Z</time>
      </trkpt>
      <trkpt lat="47.42888" lon="6.65667">
        <ele>348</ele>
        <time>2016-04-24T07:36:30Z</time>
      </trkpt>
      <trkpt lat="47.42889" lon="6.65674">
        <ele>348</ele>
        <time>2016-04-24T07:36:31Z</time>
      </trkpt>
      <trkpt lat="47.4289" lon="6.65681">
        <ele>347</ele>
        <time>2016-04-24T07:36:32Z</time>
      </trkpt>
      <trkpt lat="47.42889" lon="6.6569">
        <ele>347</ele>
        <time>2016-04-24T07:36:33Z</time>
      </trkpt>
      <trkpt lat="47.42892" lon="6.65694">
        <ele>346</ele>
        <time>2016-04-24T07:36:34Z</time>
      </trkpt>
      <trkpt lat="47.42892" lon="6.65699">
        <ele>346</ele>
        <time>2016-04-24T07:36:35Z</time>
      </trkpt>
      <trkpt lat="47.42892" lon="6.65703">
        <ele>346</ele>
        <time>2016-04-24T07:36:36Z</time>
      </trkpt>
      <trkpt lat="47.42894" lon="6.65708">
        <ele>345</ele>
        <time>2016-04-24T07:36:37Z</time>
      </trkpt>
      <trkpt lat="47.42895" lon="6.65712">
        <ele>345</ele>
        <time>2016-04-24T07:36:38Z</time>
      </trkpt>
      <trkpt lat="47.42897" lon="6.65715">
        <ele>345</ele>
        <time>2016-04-24T07:36:39Z</time>
      </trkpt>
      <trkpt lat="47.42899" lon="6.65719">
        <ele>345</ele>
        <time>2016-04-24T07:36:40Z</time>
      </trkpt>
      <trkpt lat="47.42902" lon="6.65722">
        <ele>345</ele>
        <time>2016-04-24T07:36:41Z</time>
      </trkpt>
      <trkpt lat="47.42905" lon="6.65726">
        <ele>345</ele>
        <time>2016-04-24T07:36:42Z</time>
      </trkpt>
      <trkpt lat="47.42908" lon="6.6573">
        <ele>345</ele>
        <time>2016-04-24T07:36:43Z</time>
      </trkpt>
      <trkpt lat="47.42911" lon="6.65733">
        <ele>345</ele>
        <time>2016-04-24T07:36:44Z</time>
      </trkpt>
      <trkpt lat="47.42915" lon="6.65736">
        <ele>345</ele>
        <time>2016-04-24T07:36:45Z</time>
      </trkpt>
      <trkpt lat="47.42918" lon="6.65739">
        <ele>351</ele>
        <time>2016-04-24T07:36:46Z</time>
      </trkpt>
      <trkpt lat="47.42921" lon="6.65742">
        <ele>350</ele>
        <time>2016-04-24T07:36:47Z</time>
      </trkpt>
      <trkpt lat="47.42923" lon="6.65745">
        <ele>350</ele>
        <time>2016-04-24T07:36:48Z</time>
      </trkpt>
      <trkpt lat="47.42926" lon="6.65747">
        <ele>351</ele>
        <time>2016-04-24T07:36:49Z</time>
      </trkpt>
      <trkpt lat="47.42929" lon="6.6575">
        <ele>352</ele>
        <time>2016-04-24T07:36:50Z</time>
      </trkpt>
      <trkpt lat="47.4293" lon="6.65753">
        <ele>348</ele>
        <time>2016-04-24T07:36:51Z</time>
      </trkpt>
      <trkpt lat="47.42931" lon="6.65756">
        <ele>348</ele>
        <time>2016-04-24T07:36:52Z</time>
      </trkpt>
      <trkpt lat="47.42932" lon="6.65759">
        <ele>349</ele>
        <time>2016-04-24T07:36:53Z</time>
      </trkpt>
      <trkpt lat="47.42932" lon="6.65763">
        <ele>349</ele>
        <time>2016-04-24T07:36:54Z</time>
      </trkpt>
      <trkpt lat="47.42933" lon="6.65767">
        <ele>349</ele>
        <time>2016-04-24T07:36:55Z</time>
      </trkpt>
      <trkpt lat="47.42933" lon="6.65772">
        <ele>349</ele>
        <time>2016-04-24T07:36:56Z</time>
      </trkpt>
      <trkpt lat="47.42934" lon="6.65776">
        <ele>349</ele>
        <time>2016-04-24T07:36:57Z</time>
      </trkpt>
      <trkpt lat="47.42934" lon="6.65781">
        <ele>349</ele>
        <time>2016-04-24T07:36:58Z</time>
      </trkpt>
      <trkpt lat="47.42934" lon="6.65785">
        <ele>349</ele>
        <time>2016-04-24T07:36:59Z</time>
      </trkpt>
      <trkpt lat="47.42936" lon="6.6579">
        <ele>349</ele>
        <time>2016-04-24T07:37:00Z</time>
      </trkpt>
      <trkpt lat="47.42939" lon="6.65795">
        <ele>349</ele>
        <time>2016-04-24T07:37:01Z</time>
      </trkpt>
      <trkpt lat="47.42943" lon="6.65799">
        <ele>349</ele>
        <time>2016-04-24T07:37:02Z</time>
      </trkpt>
      <trkpt lat="47.42946" lon="6.65803">
        <ele>349</ele>
        <time>2016-04-24T07:37:03Z</time>
      </trkpt>
      <trkpt lat="47.4295" lon="6.65808">
        <ele>349</ele>
        <time>2016-04-24T07:37:04Z</time>
      </trkpt>
      <trkpt lat="47.42952" lon="6.65812">
        <ele>349</ele>
        <time>2016-04-24T07:37:05Z</time>
      </trkpt>
      <trkpt lat="47.42955" lon="6.65817">
        <ele>349</ele>
        <time>2016-04-24T07:37:06Z</time>
      </trkpt>
      <trkpt lat="47.42958" lon="6.65822">
        <ele>350</ele>
        <time>2016-04-24T07:37:07Z</time>
      </trkpt>
      <trkpt lat="47.4296" lon="6.65827">
        <ele>350</ele>
        <time>2016-04-24T07:37:08Z</time>
      </trkpt>
      <trkpt lat="47.42963" lon="6.65832">
        <ele>350</ele>
        <time>2016-04-24T07:37:09Z</time>
      </trkpt>
      <trkpt lat="47.42966" lon="6.65836">
        <ele>345</ele>
        <time>2016-04-24T07:37:10Z</time>
      </trkpt>
      <trkpt lat="47.42968" lon="6.6584">
        <ele>345</ele>
        <time>2016-04-24T07:37:11Z</time>
      </trkpt>
      <trkpt lat="47.42971" lon="6.65845">
        <ele>345</ele>
        <time>2016-04-24T07:37:12Z</time>
      </trkpt>
      <trkpt lat="47.42974" lon="6.65849">
        <ele>346</ele>
        <time>2016-04-24T07:37:13Z</time>
      </trkpt>
      <trkpt lat="47.42976" lon="6.65853">
        <ele>346</ele>
        <time>2016-04-24T07:37:14Z</time>
      </trkpt>
      <trkpt lat="47.42979" lon="6.65857">
        <ele>346</ele>
        <time>2016-04-24T07:37:15Z</time>
      </trkpt>
      <trkpt lat="47.4298" lon="6.6586">
        <ele>345</ele>
        <time>2016-04-24T07:37:16Z</time>
      </trkpt>
      <trkpt lat="47.42982" lon="6.65863">
        <ele>345</ele>
        <time>2016-04-24T07:37:17Z</time>
      </trkpt>
      <trkpt lat="47.42983" lon="6.65866">
        <ele>345</ele>
        <time>2016-04-24T07:37:18Z</time>
      </trkpt>
      <trkpt lat="47.42984" lon="6.65869">
        <ele>345</ele>
        <time>2016-04-24T07:37:19Z</time>
      </trkpt>
      <trkpt lat="47.42985" lon="6.65873">
        <ele>344</ele>
        <time>2016-04-24T07:37:20Z</time>
      </trkpt>
      <trkpt lat="47.42985" lon="6.65877">
        <ele>344</ele>
        <time>2016-04-24T07:37:21Z</time>
      </trkpt>
      <trkpt lat="47.42987" lon="6.65883">
        <ele>344</ele>
        <time>2016-04-24T07:37:22Z</time>
      </trkpt>
      <trkpt lat="47.42989" lon="6.65889">
        <ele>344</ele>
        <time>2016-04-24T07:37:23Z</time>
      </trkpt>
      <trkpt lat="47.4299" lon="6.65895">
        <ele>343</ele>
        <time>2016-04-24T07:37:24Z</time>
      </trkpt>
      <trkpt lat="47.42992" lon="6.65901">
        <ele>343</ele>
        <time>2016-04-24T07:37:25Z</time>
      </trkpt>
      <trkpt lat="47.42994" lon="6.65906">
        <ele>343</ele>
        <time>2016-04-24T07:37:26Z</time>
      </trkpt>
      <trkpt lat="47.42995" lon="6.6591">
        <ele>344</ele>
        <time>2016-04-24T07:37:27Z</time>
      </trkpt>
      <trkpt lat="47.42996" lon="6.65914">
        <ele>344</ele>
        <time>2016-04-24T07:37:28Z</time>
      </trkpt>
      <trkpt lat="47.42997" lon="6.65918">
        <ele>343</ele>
        <time>2016-04-24T07:37:29Z</time>
      </trkpt>
      <trkpt lat="47.42999" lon="6.65921">
        <ele>343</ele>
        <time>2016-04-24T07:37:30Z</time>
      </trkpt>
      <trkpt lat="47.43001" lon="6.65924">
        <ele>346</ele>
        <time>2016-04-24T07:37:31Z</time>
      </trkpt>
      <trkpt lat="47.43003" lon="6.65926">
        <ele>346</ele>
        <time>2016-04-24T07:37:32Z</time>
      </trkpt>
      <trkpt lat="47.43004" lon="6.65929">
        <ele>347</ele>
        <time>2016-04-24T07:37:33Z</time>
      </trkpt>
      <trkpt lat="47.43005" lon="6.65934">
        <ele>347</ele>
        <time>2016-04-24T07:37:36Z</time>
      </trkpt>
      <trkpt lat="47.43006" lon="6.65936">
        <ele>347</ele>
        <time>2016-04-24T07:37:37Z</time>
      </trkpt>
      <trkpt lat="47.43006" lon="6.65939">
        <ele>347</ele>
        <time>2016-04-24T07:37:38Z</time>
      </trkpt>
      <trkpt lat="47.43008" lon="6.65943">
        <ele>348</ele>
        <time>2016-04-24T07:37:39Z</time>
      </trkpt>
      <trkpt lat="47.4301" lon="6.65947">
        <ele>348</ele>
        <time>2016-04-24T07:37:40Z</time>
      </trkpt>
      <trkpt lat="47.43012" lon="6.65951">
        <ele>348</ele>
        <time>2016-04-24T07:37:41Z</time>
      </trkpt>
      <trkpt lat="47.43015" lon="6.65955">
        <ele>348</ele>
        <time>2016-04-24T07:37:42Z</time>
      </trkpt>
      <trkpt lat="47.43018" lon="6.65958">
        <ele>348</ele>
        <time>2016-04-24T07:37:43Z</time>
      </trkpt>
      <trkpt lat="47.4302" lon="6.65962">
        <ele>348</ele>
        <time>2016-04-24T07:37:44Z</time>
      </trkpt>
      <trkpt lat="47.43021" lon="6.65965">
        <ele>348</ele>
        <time>2016-04-24T07:37:45Z</time>
      </trkpt>
      <trkpt lat="47.43023" lon="6.65969">
        <ele>348</ele>
        <time>2016-04-24T07:37:46Z</time>
      </trkpt>
      <trkpt lat="47.43023" lon="6.65974">
        <ele>347</ele>
        <time>2016-04-24T07:37:47Z</time>
      </trkpt>
      <trkpt lat="47.43023" lon="6.65978">
        <ele>347</ele>
        <time>2016-04-24T07:37:48Z</time>
      </trkpt>
      <trkpt lat="47.43023" lon="6.6598">
        <ele>346</ele>
        <time>2016-04-24T07:37:49.001Z</time>
      </trkpt>
      <trkpt lat="47.43019" lon="6.65983">
        <ele>345</ele>
        <time>2016-04-24T07:37:50Z</time>
      </trkpt>
      <trkpt lat="47.43017" lon="6.65984">
        <ele>345</ele>
        <time>2016-04-24T07:37:51Z</time>
      </trkpt>
      <trkpt lat="47.43014" lon="6.65987">
        <ele>343</ele>
        <time>2016-04-24T07:37:53Z</time>
      </trkpt>
      <trkpt lat="47.43014" lon="6.65993">
        <ele>343</ele>
        <time>2016-04-24T07:37:54Z</time>
      </trkpt>
      <trkpt lat="47.43015" lon="6.65998">
        <ele>342</ele>
        <time>2016-04-24T07:37:56.001Z</time>
      </trkpt>
      <trkpt lat="47.43017" lon="6.66">
        <ele>343</ele>
        <time>2016-04-24T07:37:57Z</time>
      </trkpt>
      <trkpt lat="47.43019" lon="6.66002">
        <ele>339</ele>
        <time>2016-04-24T07:37:58.999Z</time>
      </trkpt>
      <trkpt lat="47.43022" lon="6.66003">
        <ele>340</ele>
        <time>2016-04-24T07:38:00Z</time>
      </trkpt>
      <trkpt lat="47.43023" lon="6.66008">
        <ele>340</ele>
        <time>2016-04-24T07:38:08Z</time>
      </trkpt>
      <trkpt lat="47.43022" lon="6.6601">
        <ele>340</ele>
        <time>2016-04-24T07:38:09Z</time>
      </trkpt>
      <trkpt lat="47.43024" lon="6.66015">
        <ele>340</ele>
        <time>2016-04-24T07:38:11Z</time>
      </trkpt>
      <trkpt lat="47.43025" lon="6.66016">
        <ele>340</ele>
        <time>2016-04-24T07:38:12Z</time>
      </trkpt>
      <trkpt lat="47.43029" lon="6.6602">
        <ele>341</ele>
        <time>2016-04-24T07:38:14Z</time>
      </trkpt>
      <trkpt lat="47.4303" lon="6.66022">
        <ele>341</ele>
        <time>2016-04-24T07:38:15Z</time>
      </trkpt>
      <trkpt lat="47.43031" lon="6.66024">
        <ele>341</ele>
        <time>2016-04-24T07:38:16.001Z</time>
      </trkpt>
      <trkpt lat="47.43035" lon="6.66029">
        <ele>341</ele>
        <time>2016-04-24T07:38:17Z</time>
      </trkpt>
      <trkpt lat="47.43038" lon="6.66033">
        <ele>341</ele>
        <time>2016-04-24T07:38:18Z</time>
      </trkpt>
      <trkpt lat="47.43041" lon="6.66038">
        <ele>341</ele>
        <time>2016-04-24T07:38:19Z</time>
      </trkpt>
      <trkpt lat="47.43042" lon="6.66042">
        <ele>341</ele>
        <time>2016-04-24T07:38:20Z</time>
      </trkpt>
      <trkpt lat="47.43043" lon="6.66046">
        <ele>341</ele>
        <time>2016-04-24T07:38:21Z</time>
      </trkpt>
      <trkpt lat="47.43042" lon="6.6605">
        <ele>341</ele>
        <time>2016-04-24T07:38:22Z</time>
      </trkpt>
      <trkpt lat="47.43041" lon="6.66053">
        <ele>340</ele>
        <time>2016-04-24T07:38:23Z</time>
      </trkpt>
      <trkpt lat="47.4304" lon="6.66058">
        <ele>340</ele>
        <time>2016-04-24T07:38:25Z</time>
      </trkpt>
      <trkpt lat="47.43041" lon="6.66062">
        <ele>340</ele>
        <time>2016-04-24T07:38:26Z</time>
      </trkpt>
      <trkpt lat="47.43042" lon="6.66067">
        <ele>340</ele>
        <time>2016-04-24T07:38:27Z</time>
      </trkpt>
      <trkpt lat="47.43043" lon="6.66069">
        <ele>340</ele>
        <time>2016-04-24T07:38:27.999Z</time>
      </trkpt>
      <trkpt lat="47.43046" lon="6.66077">
        <ele>340</ele>
        <time>2016-04-24T07:38:29Z</time>
      </trkpt>
      <trkpt lat="47.43049" lon="6.66082">
        <ele>340</ele>
        <time>2016-04-24T07:38:30Z</time>
      </trkpt>
      <trkpt lat="47.4305" lon="6.66086">
        <ele>335</ele>
        <time>2016-04-24T07:38:30.999Z</time>
      </trkpt>
      <trkpt lat="47.43054" lon="6.66092">
        <ele>336</ele>
        <time>2016-04-24T07:38:32Z</time>
      </trkpt>
      <trkpt lat="47.43056" lon="6.66095">
        <ele>336</ele>
        <time>2016-04-24T07:38:33Z</time>
      </trkpt>
      <trkpt lat="47.43057" lon="6.66098">
        <ele>336</ele>
        <time>2016-04-24T07:38:34Z</time>
      </trkpt>
      <trkpt lat="47.43059" lon="6.66102">
        <ele>336</ele>
        <time>2016-04-24T07:38:35Z</time>
      </trkpt>
      <trkpt lat="47.4306" lon="6.66106">
        <ele>336</ele>
        <time>2016-04-24T07:38:36Z</time>
      </trkpt>
      <trkpt lat="47.43061" lon="6.6611">
        <ele>335</ele>
        <time>2016-04-24T07:38:37Z</time>
      </trkpt>
      <trkpt lat="47.43062" lon="6.66113">
        <ele>335</ele>
        <time>2016-04-24T07:38:37.999Z</time>
      </trkpt>
      <trkpt lat="47.43063" lon="6.66118">
        <ele>335</ele>
        <time>2016-04-24T07:38:39Z</time>
      </trkpt>
      <trkpt lat="47.43064" lon="6.66122">
        <ele>335</ele>
        <time>2016-04-24T07:38:40Z</time>
      </trkpt>
      <trkpt lat="47.43065" lon="6.66126">
        <ele>334</ele>
        <time>2016-04-24T07:38:41Z</time>
      </trkpt>
      <trkpt lat="47.43066" lon="6.6613">
        <ele>334</ele>
        <time>2016-04-24T07:38:42Z</time>
      </trkpt>
      <trkpt lat="47.43067" lon="6.66135">
        <ele>334</ele>
        <time>2016-04-24T07:38:43Z</time>
      </trkpt>
      <trkpt lat="47.43068" lon="6.6614">
        <ele>334</ele>
        <time>2016-04-24T07:38:44Z</time>
      </trkpt>
      <trkpt lat="47.43068" lon="6.66146">
        <ele>333</ele>
        <time>2016-04-24T07:38:46Z</time>
      </trkpt>
      <trkpt lat="47.43067" lon="6.66148">
        <ele>333</ele>
        <time>2016-04-24T07:38:47Z</time>
      </trkpt>
      <trkpt lat="47.43067" lon="6.66154">
        <ele>333</ele>
        <time>2016-04-24T07:38:52Z</time>
      </trkpt>
      <trkpt lat="47.43067" lon="6.66156">
        <ele>333</ele>
        <time>2016-04-24T07:38:52.998Z</time>
      </trkpt>
      <trkpt lat="47.43066" lon="6.66161">
        <ele>333</ele>
        <time>2016-04-24T07:38:56Z</time>
      </trkpt>
      <trkpt lat="47.43065" lon="6.66162">
        <ele>333</ele>
        <time>2016-04-24T07:38:57Z</time>
      </trkpt>
      <trkpt lat="47.43062" lon="6.66164">
        <ele>333</ele>
        <time>2016-04-24T07:39:00Z</time>
      </trkpt>
      <trkpt lat="47.43061" lon="6.66164">
        <ele>333</ele>
        <time>2016-04-24T07:39:01Z</time>
      </trkpt>
      <trkpt lat="47.43057" lon="6.66166">
        <ele>332</ele>
        <time>2016-04-24T07:39:03Z</time>
      </trkpt>
      <trkpt lat="47.43054" lon="6.66166">
        <ele>332</ele>
        <time>2016-04-24T07:39:04Z</time>
      </trkpt>
      <trkpt lat="47.4305" lon="6.66167">
        <ele>328</ele>
        <time>2016-04-24T07:39:06Z</time>
      </trkpt>
      <trkpt lat="47.43048" lon="6.66167">
        <ele>328</ele>
        <time>2016-04-24T07:39:07Z</time>
      </trkpt>
      <trkpt lat="47.43044" lon="6.66167">
        <ele>328</ele>
        <time>2016-04-24T07:39:11Z</time>
      </trkpt>
      <trkpt lat="47.43043" lon="6.66167">
        <ele>328</ele>
        <time>2016-04-24T07:39:12Z</time>
      </trkpt>
      <trkpt lat="47.43039" lon="6.66168">
        <ele>328</ele>
        <time>2016-04-24T07:39:13Z</time>
      </trkpt>
      <trkpt lat="47.43037" lon="6.66169">
        <ele>328</ele>
        <time>2016-04-24T07:39:14Z</time>
      </trkpt>
      <trkpt lat="47.43034" lon="6.6617">
        <ele>327</ele>
        <time>2016-04-24T07:39:15Z</time>
      </trkpt>
      <trkpt lat="47.43031" lon="6.66171">
        <ele>327</ele>
        <time>2016-04-24T07:39:16Z</time>
      </trkpt>
      <trkpt lat="47.43028" lon="6.66173">
        <ele>327</ele>
        <time>2016-04-24T07:39:17Z</time>
      </trkpt>
      <trkpt lat="47.43026" lon="6.66175">
        <ele>327</ele>
        <time>2016-04-24T07:39:18Z</time>
      </trkpt>
      <trkpt lat="47.43023" lon="6.66176">
        <ele>327</ele>
        <time>2016-04-24T07:39:19Z</time>
      </trkpt>
      <trkpt lat="47.4302" lon="6.66179">
        <ele>327</ele>
        <time>2016-04-24T07:39:20Z</time>
      </trkpt>
      <trkpt lat="47.43018" lon="6.66181">
        <ele>327</ele>
        <time>2016-04-24T07:39:21Z</time>
      </trkpt>
      <trkpt lat="47.43015" lon="6.66183">
        <ele>327</ele>
        <time>2016-04-24T07:39:21.999Z</time>
      </trkpt>
      <trkpt lat="47.43013" lon="6.66187">
        <ele>327</ele>
        <time>2016-04-24T07:39:24Z</time>
      </trkpt>
      <trkpt lat="47.43011" lon="6.66187">
        <ele>327</ele>
        <time>2016-04-24T07:39:25Z</time>
      </trkpt>
      <trkpt lat="47.43009" lon="6.66189">
        <ele>327</ele>
        <time>2016-04-24T07:39:29Z</time>
      </trkpt>
      <trkpt lat="47.43007" lon="6.6619">
        <ele>327</ele>
        <time>2016-04-24T07:39:30Z</time>
      </trkpt>
      <trkpt lat="47.43004" lon="6.66191">
        <ele>326</ele>
        <time>2016-04-24T07:39:31Z</time>
      </trkpt>
      <trkpt lat="47.43001" lon="6.66191">
        <ele>326</ele>
        <time>2016-04-24T07:39:32Z</time>
      </trkpt>
      <trkpt lat="47.42997" lon="6.66189">
        <ele>327</ele>
        <time>2016-04-24T07:39:35Z</time>
      </trkpt>
      <trkpt lat="47.42997" lon="6.66188">
        <ele>327</ele>
        <time>2016-04-24T07:39:36Z</time>
      </trkpt>
      <trkpt lat="47.42995" lon="6.66183">
        <ele>327</ele>
        <time>2016-04-24T07:39:38Z</time>
      </trkpt>
      <trkpt lat="47.42993" lon="6.66181">
        <ele>326</ele>
        <time>2016-04-24T07:39:39Z</time>
      </trkpt>
      <trkpt lat="47.4299" lon="6.66177">
        <ele>327</ele>
        <time>2016-04-24T07:39:40.999Z</time>
      </trkpt>
      <trkpt lat="47.42987" lon="6.66177">
        <ele>327</ele>
        <time>2016-04-24T07:39:42Z</time>
      </trkpt>
      <trkpt lat="47.42984" lon="6.66176">
        <ele>327</ele>
        <time>2016-04-24T07:39:43Z</time>
      </trkpt>
      <trkpt lat="47.42981" lon="6.66174">
        <ele>327</ele>
        <time>2016-04-24T07:39:44Z</time>
      </trkpt>
      <trkpt lat="47.42979" lon="6.66172">
        <ele>327</ele>
        <time>2016-04-24T07:39:45Z</time>
      </trkpt>
      <trkpt lat="47.42977" lon="6.66169">
        <ele>327</ele>
        <time>2016-04-24T07:39:46Z</time>
      </trkpt>
      <trkpt lat="47.42975" lon="6.66165">
        <ele>328</ele>
        <time>2016-04-24T07:39:48Z</time>
      </trkpt>
      <trkpt lat="47.42973" lon="6.66162">
        <ele>328</ele>
        <time>2016-04-24T07:39:49Z</time>
      </trkpt>
      <trkpt lat="47.42971" lon="6.6616">
        <ele>329</ele>
        <time>2016-04-24T07:39:50Z</time>
      </trkpt>
      <trkpt lat="47.42969" lon="6.66157">
        <ele>329</ele>
        <time>2016-04-24T07:39:51Z</time>
      </trkpt>
      <trkpt lat="47.42967" lon="6.66151">
        <ele>329</ele>
        <time>2016-04-24T07:39:52.999Z</time>
      </trkpt>
      <trkpt lat="47.42967" lon="6.66147">
        <ele>329</ele>
        <time>2016-04-24T07:39:54Z</time>
      </trkpt>
      <trkpt lat="47.42967" lon="6.66143">
        <ele>329</ele>
        <time>2016-04-24T07:39:55Z</time>
      </trkpt>
      <trkpt lat="47.42966" lon="6.66139">
        <ele>329</ele>
        <time>2016-04-24T07:39:56Z</time>
      </trkpt>
      <trkpt lat="47.42966" lon="6.66135">
        <ele>329</ele>
        <time>2016-04-24T07:39:57Z</time>
      </trkpt>
      <trkpt lat="47.42965" lon="6.66133">
        <ele>329</ele>
        <time>2016-04-24T07:39:58Z</time>
      </trkpt>
      <trkpt lat="47.42963" lon="6.66126">
        <ele>329</ele>
        <time>2016-04-24T07:39:59Z</time>
      </trkpt>
      <trkpt lat="47.42962" lon="6.66122">
        <ele>329</ele>
        <time>2016-04-24T07:40:00Z</time>
      </trkpt>
      <trkpt lat="47.42961" lon="6.66118">
        <ele>329</ele>
        <time>2016-04-24T07:40:01Z</time>
      </trkpt>
      <trkpt lat="47.42961" lon="6.66114">
        <ele>330</ele>
        <time>2016-04-24T07:40:02Z</time>
      </trkpt>
      <trkpt lat="47.4296" lon="6.66111">
        <ele>330</ele>
        <time>2016-04-24T07:40:03Z</time>
      </trkpt>
      <trkpt lat="47.42962" lon="6.66105">
        <ele>330</ele>
        <time>2016-04-24T07:40:05Z</time>
      </trkpt>
      <trkpt lat="47.42963" lon="6.66103">
        <ele>330</ele>
        <time>2016-04-24T07:40:06.001Z</time>
      </trkpt>
      <trkpt lat="47.42965" lon="6.66099">
        <ele>329</ele>
        <time>2016-04-24T07:40:07Z</time>
      </trkpt>
      <trkpt lat="47.42966" lon="6.66096">
        <ele>329</ele>
        <time>2016-04-24T07:40:08Z</time>
      </trkpt>
      <trkpt lat="47.42967" lon="6.6609">
        <ele>329</ele>
        <time>2016-04-24T07:40:10Z</time>
      </trkpt>
      <trkpt lat="47.42967" lon="6.66087">
        <ele>329</ele>
        <time>2016-04-24T07:40:11Z</time>
      </trkpt>
      <trkpt lat="47.42967" lon="6.66083">
        <ele>331</ele>
        <time>2016-04-24T07:40:12Z</time>
      </trkpt>
      <trkpt lat="47.42968" lon="6.66079">
        <ele>331</ele>
        <time>2016-04-24T07:40:13Z</time>
      </trkpt>
      <trkpt lat="47.42969" lon="6.66075">
        <ele>331</ele>
        <time>2016-04-24T07:40:14Z</time>
      </trkpt>
      <trkpt lat="47.42971" lon="6.6607">
        <ele>331</ele>
        <time>2016-04-24T07:40:15Z</time>
      </trkpt>
      <trkpt lat="47.42971" lon="6.66065">
        <ele>331</ele>
        <time>2016-04-24T07:40:16Z</time>
      </trkpt>
      <trkpt lat="47.42971" lon="6.6606">
        <ele>331</ele>
        <time>2016-04-24T07:40:17Z</time>
      </trkpt>
      <trkpt lat="47.4297" lon="6.66055">
        <ele>331</ele>
        <time>2016-04-24T07:40:18Z</time>
      </trkpt>
      <trkpt lat="47.4297" lon="6.66051">
        <ele>332</ele>
        <time>2016-04-24T07:40:19Z</time>
      </trkpt>
      <trkpt lat="47.42969" lon="6.66048">
        <ele>332</ele>
        <time>2016-04-24T07:40:19.999Z</time>
      </trkpt>
      <trkpt lat="47.42968" lon="6.66043">
        <ele>332</ele>
        <time>2016-04-24T07:40:21Z</time>
      </trkpt>
      <trkpt lat="47.42967" lon="6.66039">
        <ele>332</ele>
        <time>2016-04-24T07:40:22Z</time>
      </trkpt>
      <trkpt lat="47.42966" lon="6.66035">
        <ele>332</ele>
        <time>2016-04-24T07:40:23Z</time>
      </trkpt>
      <trkpt lat="47.42964" lon="6.66029">
        <ele>332</ele>
        <time>2016-04-24T07:40:24Z</time>
      </trkpt>
      <trkpt lat="47.42963" lon="6.66026">
        <ele>332</ele>
        <time>2016-04-24T07:40:24.999Z</time>
      </trkpt>
      <trkpt lat="47.42959" lon="6.66019">
        <ele>332</ele>
        <time>2016-04-24T07:40:26Z</time>
      </trkpt>
      <trkpt lat="47.42958" lon="6.66016">
        <ele>332</ele>
        <time>2016-04-24T07:40:27.001Z</time>
      </trkpt>
      <trkpt lat="47.42961" lon="6.66002">
        <ele>333</ele>
        <time>2016-04-24T07:40:28Z</time>
      </trkpt>
      <trkpt lat="47.42962" lon="6.65997">
        <ele>335</ele>
        <time>2016-04-24T07:40:29Z</time>
      </trkpt>
      <trkpt lat="47.42963" lon="6.65993">
        <ele>335</ele>
        <time>2016-04-24T07:40:29.999Z</time>
      </trkpt>
      <trkpt lat="47.4296" lon="6.65987">
        <ele>335</ele>
        <time>2016-04-24T07:40:31Z</time>
      </trkpt>
      <trkpt lat="47.42959" lon="6.65982">
        <ele>335</ele>
        <time>2016-04-24T07:40:33Z</time>
      </trkpt>
      <trkpt lat="47.42956" lon="6.65977">
        <ele>335</ele>
        <time>2016-04-24T07:40:34Z</time>
      </trkpt>
      <trkpt lat="47.42954" lon="6.65973">
        <ele>335</ele>
        <time>2016-04-24T07:40:35Z</time>
      </trkpt>
      <trkpt lat="47.42952" lon="6.65968">
        <ele>335</ele>
        <time>2016-04-24T07:40:36Z</time>
      </trkpt>
      <trkpt lat="47.42951" lon="6.65964">
        <ele>335</ele>
        <time>2016-04-24T07:40:37Z</time>
      </trkpt>
      <trkpt lat="47.4295" lon="6.6596">
        <ele>335</ele>
        <time>2016-04-24T07:40:38Z</time>
      </trkpt>
      <trkpt lat="47.42947" lon="6.65958">
        <ele>335</ele>
        <time>2016-04-24T07:40:39Z</time>
      </trkpt>
      <trkpt lat="47.42945" lon="6.65955">
        <ele>335</ele>
        <time>2016-04-24T07:40:40Z</time>
      </trkpt>
      <trkpt lat="47.42941" lon="6.65954">
        <ele>335</ele>
        <time>2016-04-24T07:40:41Z</time>
      </trkpt>
      <trkpt lat="47.42938" lon="6.65951">
        <ele>335</ele>
        <time>2016-04-24T07:40:42Z</time>
      </trkpt>
      <trkpt lat="47.42935" lon="6.65949">
        <ele>335</ele>
        <time>2016-04-24T07:40:43Z</time>
      </trkpt>
      <trkpt lat="47.42932" lon="6.65946">
        <ele>335</ele>
        <time>2016-04-24T07:40:44Z</time>
      </trkpt>
      <trkpt lat="47.42929" lon="6.65944">
        <ele>335</ele>
        <time>2016-04-24T07:40:44.999Z</time>
      </trkpt>
      <trkpt lat="47.42928" lon="6.65937">
        <ele>334</ele>
        <time>2016-04-24T07:40:46Z</time>
      </trkpt>
      <trkpt lat="47.42926" lon="6.65935">
        <ele>334</ele>
        <time>2016-04-24T07:40:47Z</time>
      </trkpt>
      <trkpt lat="47.42926" lon="6.6593">
        <ele>334</ele>
        <time>2016-04-24T07:40:48Z</time>
      </trkpt>
      <trkpt lat="47.42928" lon="6.65924">
        <ele>334</ele>
        <time>2016-04-24T07:40:49Z</time>
      </trkpt>
      <trkpt lat="47.42929" lon="6.65919">
        <ele>334</ele>
        <time>2016-04-24T07:40:50Z</time>
      </trkpt>
      <trkpt lat="47.4293" lon="6.65914">
        <ele>336</ele>
        <time>2016-04-24T07:40:51Z</time>
      </trkpt>
      <trkpt lat="47.42931" lon="6.65907">
        <ele>337</ele>
        <time>2016-04-24T07:40:52Z</time>
      </trkpt>
      <trkpt lat="47.42931" lon="6.65902">
        <ele>337</ele>
        <time>2016-04-24T07:40:53Z</time>
      </trkpt>
      <trkpt lat="47.4293" lon="6.659">
        <ele>338</ele>
        <time>2016-04-24T07:40:53.999Z</time>
      </trkpt>
      <trkpt lat="47.4293" lon="6.65892">
        <ele>338</ele>
        <time>2016-04-24T07:40:55Z</time>
      </trkpt>
      <trkpt lat="47.42929" lon="6.65889">
        <ele>339</ele>
        <time>2016-04-24T07:40:55.999Z</time>
      </trkpt>
      <trkpt lat="47.42927" lon="6.65885">
        <ele>339</ele>
        <time>2016-04-24T07:40:57Z</time>
      </trkpt>
      <trkpt lat="47.42927" lon="6.65879">
        <ele>339</ele>
        <time>2016-04-24T07:40:58Z</time>
      </trkpt>
      <trkpt lat="47.42926" lon="6.65876">
        <ele>339</ele>
        <time>2016-04-24T07:40:59Z</time>
      </trkpt>
      <trkpt lat="47.42924" lon="6.65871">
        <ele>339</ele>
        <time>2016-04-24T07:41:01Z</time>
      </trkpt>
      <trkpt lat="47.42921" lon="6.65867">
        <ele>339</ele>
        <time>2016-04-24T07:41:02.001Z</time>
      </trkpt>
      <trkpt lat="47.42917" lon="6.65861">
        <ele>339</ele>
        <time>2016-04-24T07:41:03Z</time>
      </trkpt>
      <trkpt lat="47.42915" lon="6.65859">
        <ele>337</ele>
        <time>2016-04-24T07:41:04Z</time>
      </trkpt>
      <trkpt lat="47.42912" lon="6.65856">
        <ele>337</ele>
        <time>2016-04-24T07:41:05Z</time>
      </trkpt>
      <trkpt lat="47.42909" lon="6.65855">
        <ele>337</ele>
        <time>2016-04-24T07:41:06Z</time>
      </trkpt>
      <trkpt lat="47.42906" lon="6.65853">
        <ele>337</ele>
        <time>2016-04-24T07:41:07Z</time>
      </trkpt>
      <trkpt lat="47.42903" lon="6.65853">
        <ele>337</ele>
        <time>2016-04-24T07:41:08.001Z</time>
      </trkpt>
      <trkpt lat="47.42901" lon="6.65851">
        <ele>337</ele>
        <time>2016-04-24T07:41:09Z</time>
      </trkpt>
      <trkpt lat="47.42898" lon="6.65849">
        <ele>337</ele>
        <time>2016-04-24T07:41:11Z</time>
      </trkpt>
      <trkpt lat="47.42897" lon="6.65847">
        <ele>337</ele>
        <time>2016-04-24T07:41:12Z</time>
      </trkpt>
      <trkpt lat="47.42895" lon="6.65844">
        <ele>337</ele>
        <time>2016-04-24T07:41:14Z</time>
      </trkpt>
      <trkpt lat="47.42892" lon="6.65843">
        <ele>337</ele>
        <time>2016-04-24T07:41:15Z</time>
      </trkpt>
      <trkpt lat="47.42888" lon="6.65843">
        <ele>337</ele>
        <time>2016-04-24T07:41:16Z</time>
      </trkpt>
      <trkpt lat="47.42883" lon="6.65843">
        <ele>338</ele>
        <time>2016-04-24T07:41:17Z</time>
      </trkpt>
      <trkpt lat="47.42879" lon="6.65843">
        <ele>338</ele>
        <time>2016-04-24T07:41:18Z</time>
      </trkpt>
      <trkpt lat="47.42875" lon="6.65844">
        <ele>338</ele>
        <time>2016-04-24T07:41:19Z</time>
      </trkpt>
      <trkpt lat="47.42871" lon="6.65847">
        <ele>338</ele>
        <time>2016-04-24T07:41:20Z</time>
      </trkpt>
      <trkpt lat="47.42868" lon="6.6585">
        <ele>338</ele>
        <time>2016-04-24T07:41:21Z</time>
      </trkpt>
      <trkpt lat="47.42866" lon="6.65854">
        <ele>338</ele>
        <time>2016-04-24T07:41:22Z</time>
      </trkpt>
      <trkpt lat="47.42865" lon="6.65857">
        <ele>338</ele>
        <time>2016-04-24T07:41:23Z</time>
      </trkpt>
      <trkpt lat="47.42865" lon="6.65862">
        <ele>338</ele>
        <time>2016-04-24T07:41:25Z</time>
      </trkpt>
      <trkpt lat="47.42865" lon="6.65864">
        <ele>338</ele>
        <time>2016-04-24T07:41:26Z</time>
      </trkpt>
      <trkpt lat="47.42865" lon="6.65867">
        <ele>338</ele>
        <time>2016-04-24T07:41:27Z</time>
      </trkpt>
      <trkpt lat="47.42865" lon="6.65871">
        <ele>338</ele>
        <time>2016-04-24T07:41:28Z</time>
      </trkpt>
      <trkpt lat="47.42865" lon="6.65875">
        <ele>338</ele>
        <time>2016-04-24T07:41:29Z</time>
      </trkpt>
      <trkpt lat="47.42865" lon="6.65878">
        <ele>339</ele>
        <time>2016-04-24T07:41:30Z</time>
      </trkpt>
      <trkpt lat="47.42863" lon="6.65884">
        <ele>339</ele>
        <time>2016-04-24T07:41:32Z</time>
      </trkpt>
      <trkpt lat="47.42861" lon="6.65887">
        <ele>339</ele>
        <time>2016-04-24T07:41:33Z</time>
      </trkpt>
      <trkpt lat="47.42859" lon="6.65891">
        <ele>339</ele>
        <time>2016-04-24T07:41:35Z</time>
      </trkpt>
      <trkpt lat="47.42857" lon="6.65893">
        <ele>339</ele>
        <time>2016-04-24T07:41:36Z</time>
      </trkpt>
      <trkpt lat="47.42856" lon="6.65898">
        <ele>340</ele>
        <time>2016-04-24T07:41:38Z</time>
      </trkpt>
      <trkpt lat="47.42855" lon="6.659">
        <ele>340</ele>
        <time>2016-04-24T07:41:39Z</time>
      </trkpt>
      <trkpt lat="47.42852" lon="6.65903">
        <ele>340</ele>
        <time>2016-04-24T07:41:40.999Z</time>
      </trkpt>
      <trkpt lat="47.42851" lon="6.65906">
        <ele>341</ele>
        <time>2016-04-24T07:41:42Z</time>
      </trkpt>
      <trkpt lat="47.4285" lon="6.65911">
        <ele>341</ele>
        <time>2016-04-24T07:41:44Z</time>
      </trkpt>
      <trkpt lat="47.42849" lon="6.65914">
        <ele>341</ele>
        <time>2016-04-24T07:41:45Z</time>
      </trkpt>
      <trkpt lat="47.42848" lon="6.65917">
        <ele>343</ele>
        <time>2016-04-24T07:41:46Z</time>
      </trkpt>
      <trkpt lat="47.42846" lon="6.6592">
        <ele>343</ele>
        <time>2016-04-24T07:41:47.001Z</time>
      </trkpt>
      <trkpt lat="47.4284" lon="6.65926">
        <ele>343</ele>
        <time>2016-04-24T07:41:48Z</time>
      </trkpt>
      <trkpt lat="47.4284" lon="6.65931">
        <ele>343</ele>
        <time>2016-04-24T07:41:49Z</time>
      </trkpt>
      <trkpt lat="47.4284" lon="6.65934">
        <ele>343</ele>
        <time>2016-04-24T07:41:50Z</time>
      </trkpt>
      <trkpt lat="47.42839" lon="6.6594">
        <ele>343</ele>
        <time>2016-04-24T07:41:52.002Z</time>
      </trkpt>
      <trkpt lat="47.4284" lon="6.65947">
        <ele>343</ele>
        <time>2016-04-24T07:41:53Z</time>
      </trkpt>
      <trkpt lat="47.42839" lon="6.65954">
        <ele>343</ele>
        <time>2016-04-24T07:41:56Z</time>
      </trkpt>
      <trkpt lat="47.42839" lon="6.65955">
        <ele>343</ele>
        <time>2016-04-24T07:41:57Z</time>
      </trkpt>
      <trkpt lat="47.42837" lon="6.6596">
        <ele>343</ele>
        <time>2016-04-24T07:41:59Z</time>
      </trkpt>
      <trkpt lat="47.42836" lon="6.65962">
        <ele>344</ele>
        <time>2016-04-24T07:42:00Z</time>
      </trkpt>
      <trkpt lat="47.42835" lon="6.65968">
        <ele>344</ele>
        <time>2016-04-24T07:42:02Z</time>
      </trkpt>
      <trkpt lat="47.42835" lon="6.65971">
        <ele>344</ele>
        <time>2016-04-24T07:42:03Z</time>
      </trkpt>
      <trkpt lat="47.42836" lon="6.65974">
        <ele>345</ele>
        <time>2016-04-24T07:42:04Z</time>
      </trkpt>
      <trkpt lat="47.42838" lon="6.65978">
        <ele>345</ele>
        <time>2016-04-24T07:42:05Z</time>
      </trkpt>
      <trkpt lat="47.42838" lon="6.65981">
        <ele>346</ele>
        <time>2016-04-24T07:42:06Z</time>
      </trkpt>
      <trkpt lat="47.42839" lon="6.65984">
        <ele>346</ele>
        <time>2016-04-24T07:42:07Z</time>
      </trkpt>
      <trkpt lat="47.4284" lon="6.65991">
        <ele>348</ele>
        <time>2016-04-24T07:42:09Z</time>
      </trkpt>
      <trkpt lat="47.42841" lon="6.65995">
        <ele>348</ele>
        <time>2016-04-24T07:42:10Z</time>
      </trkpt>
      <trkpt lat="47.42842" lon="6.65999">
        <ele>348</ele>
        <time>2016-04-24T07:42:11Z</time>
      </trkpt>
      <trkpt lat="47.42843" lon="6.66003">
        <ele>349</ele>
        <time>2016-04-24T07:42:12Z</time>
      </trkpt>
      <trkpt lat="47.42844" lon="6.66008">
        <ele>348</ele>
        <time>2016-04-24T07:42:13Z</time>
      </trkpt>
      <trkpt lat="47.42845" lon="6.66012">
        <ele>348</ele>
        <time>2016-04-24T07:42:14Z</time>
      </trkpt>
      <trkpt lat="47.42845" lon="6.66016">
        <ele>348</ele>
        <time>2016-04-24T07:42:15Z</time>
      </trkpt>
      <trkpt lat="47.42845" lon="6.66019">
        <ele>347</ele>
        <time>2016-04-24T07:42:16Z</time>
      </trkpt>
      <trkpt lat="47.42845" lon="6.66022">
        <ele>347</ele>
        <time>2016-04-24T07:42:17Z</time>
      </trkpt>
      <trkpt lat="47.42845" lon="6.66026">
        <ele>347</ele>
        <time>2016-04-24T07:42:18Z</time>
      </trkpt>
      <trkpt lat="47.42846" lon="6.66029">
        <ele>347</ele>
        <time>2016-04-24T07:42:19Z</time>
      </trkpt>
      <trkpt lat="47.42848" lon="6.66032">
        <ele>346</ele>
        <time>2016-04-24T07:42:20Z</time>
      </trkpt>
      <trkpt lat="47.42849" lon="6.66036">
        <ele>346</ele>
        <time>2016-04-24T07:42:21Z</time>
      </trkpt>
      <trkpt lat="47.4285" lon="6.6604">
        <ele>346</ele>
        <time>2016-04-24T07:42:22Z</time>
      </trkpt>
      <trkpt lat="47.4285" lon="6.66045">
        <ele>346</ele>
        <time>2016-04-24T07:42:23Z</time>
      </trkpt>
      <trkpt lat="47.4285" lon="6.66049">
        <ele>347</ele>
        <time>2016-04-24T07:42:24Z</time>
      </trkpt>
      <trkpt lat="47.42851" lon="6.66054">
        <ele>347</ele>
        <time>2016-04-24T07:42:25Z</time>
      </trkpt>
      <trkpt lat="47.4285" lon="6.66058">
        <ele>347</ele>
        <time>2016-04-24T07:42:26Z</time>
      </trkpt>
      <trkpt lat="47.4285" lon="6.66063">
        <ele>348</ele>
        <time>2016-04-24T07:42:27Z</time>
      </trkpt>
      <trkpt lat="47.42849" lon="6.66067">
        <ele>349</ele>
        <time>2016-04-24T07:42:28Z</time>
      </trkpt>
      <trkpt lat="47.42848" lon="6.66071">
        <ele>349</ele>
        <time>2016-04-24T07:42:29Z</time>
      </trkpt>
      <trkpt lat="47.42848" lon="6.66076">
        <ele>350</ele>
        <time>2016-04-24T07:42:30Z</time>
      </trkpt>
      <trkpt lat="47.42848" lon="6.6608">
        <ele>350</ele>
        <time>2016-04-24T07:42:31Z</time>
      </trkpt>
      <trkpt lat="47.42848" lon="6.66085">
        <ele>350</ele>
        <time>2016-04-24T07:42:32Z</time>
      </trkpt>
      <trkpt lat="47.42848" lon="6.6609">
        <ele>349</ele>
        <time>2016-04-24T07:42:33Z</time>
      </trkpt>
      <trkpt lat="47.42848" lon="6.66095">
        <ele>349</ele>
        <time>2016-04-24T07:42:34Z</time>
      </trkpt>
      <trkpt lat="47.42848" lon="6.66099">
        <ele>348</ele>
        <time>2016-04-24T07:42:35Z</time>
      </trkpt>
      <trkpt lat="47.42848" lon="6.66105">
        <ele>347</ele>
        <time>2016-04-24T07:42:36Z</time>
      </trkpt>
      <trkpt lat="47.42849" lon="6.6611">
        <ele>346</ele>
        <time>2016-04-24T07:42:37Z</time>
      </trkpt>
      <trkpt lat="47.4285" lon="6.66116">
        <ele>346</ele>
        <time>2016-04-24T07:42:38Z</time>
      </trkpt>
      <trkpt lat="47.42852" lon="6.66123">
        <ele>345</ele>
        <time>2016-04-24T07:42:39Z</time>
      </trkpt>
      <trkpt lat="47.42853" lon="6.66129">
        <ele>345</ele>
        <time>2016-04-24T07:42:40Z</time>
      </trkpt>
      <trkpt lat="47.42854" lon="6.66135">
        <ele>345</ele>
        <time>2016-04-24T07:42:41Z</time>
      </trkpt>
      <trkpt lat="47.42855" lon="6.66141">
        <ele>344</ele>
        <time>2016-04-24T07:42:42Z</time>
      </trkpt>
      <trkpt lat="47.42858" lon="6.66146">
        <ele>344</ele>
        <time>2016-04-24T07:42:43Z</time>
      </trkpt>
      <trkpt lat="47.4286" lon="6.6615">
        <ele>344</ele>
        <time>2016-04-24T07:42:44Z</time>
      </trkpt>
      <trkpt lat="47.42863" lon="6.66155">
        <ele>344</ele>
        <time>2016-04-24T07:42:45Z</time>
      </trkpt>
      <trkpt lat="47.42863" lon="6.6616">
        <ele>343</ele>
        <time>2016-04-24T07:42:46Z</time>
      </trkpt>
      <trkpt lat="47.42862" lon="6.66165">
        <ele>344</ele>
        <time>2016-04-24T07:42:47Z</time>
      </trkpt>
      <trkpt lat="47.4286" lon="6.66171">
        <ele>340</ele>
        <time>2016-04-24T07:42:48Z</time>
      </trkpt>
      <trkpt lat="47.42858" lon="6.66177">
        <ele>340</ele>
        <time>2016-04-24T07:42:49Z</time>
      </trkpt>
      <trkpt lat="47.42856" lon="6.66182">
        <ele>340</ele>
        <time>2016-04-24T07:42:50Z</time>
      </trkpt>
      <trkpt lat="47.42854" lon="6.66189">
        <ele>340</ele>
        <time>2016-04-24T07:42:51Z</time>
      </trkpt>
      <trkpt lat="47.42852" lon="6.66196">
        <ele>339</ele>
        <time>2016-04-24T07:42:52Z</time>
      </trkpt>
      <trkpt lat="47.42851" lon="6.66202">
        <ele>339</ele>
        <time>2016-04-24T07:42:53Z</time>
      </trkpt>
      <trkpt lat="47.42849" lon="6.66208">
        <ele>338</ele>
        <time>2016-04-24T07:42:54Z</time>
      </trkpt>
      <trkpt lat="47.42848" lon="6.66214">
        <ele>338</ele>
        <time>2016-04-24T07:42:55Z</time>
      </trkpt>
      <trkpt lat="47.42846" lon="6.6622">
        <ele>338</ele>
        <time>2016-04-24T07:42:56Z</time>
      </trkpt>
      <trkpt lat="47.42845" lon="6.66227">
        <ele>338</ele>
        <time>2016-04-24T07:42:57Z</time>
      </trkpt>
      <trkpt lat="47.42843" lon="6.66234">
        <ele>338</ele>
        <time>2016-04-24T07:42:58Z</time>
      </trkpt>
      <trkpt lat="47.42841" lon="6.66239">
        <ele>338</ele>
        <time>2016-04-24T07:42:59Z</time>
      </trkpt>
      <trkpt lat="47.42839" lon="6.66244">
        <ele>338</ele>
        <time>2016-04-24T07:43:00Z</time>
      </trkpt>
      <trkpt lat="47.42837" lon="6.66249">
        <ele>339</ele>
        <time>2016-04-24T07:43:01Z</time>
      </trkpt>
      <trkpt lat="47.42835" lon="6.66253">
        <ele>338</ele>
        <time>2016-04-24T07:43:02Z</time>
      </trkpt>
      <trkpt lat="47.42833" lon="6.66258">
        <ele>341</ele>
        <time>2016-04-24T07:43:03Z</time>
      </trkpt>
      <trkpt lat="47.42831" lon="6.66263">
        <ele>341</ele>
        <time>2016-04-24T07:43:04Z</time>
      </trkpt>
      <trkpt lat="47.42828" lon="6.66268">
        <ele>342</ele>
        <time>2016-04-24T07:43:05Z</time>
      </trkpt>
      <trkpt lat="47.42826" lon="6.66274">
        <ele>342</ele>
        <time>2016-04-24T07:43:06Z</time>
      </trkpt>
      <trkpt lat="47.42824" lon="6.6628">
        <ele>342</ele>
        <time>2016-04-24T07:43:07Z</time>
      </trkpt>
      <trkpt lat="47.42821" lon="6.66287">
        <ele>342</ele>
        <time>2016-04-24T07:43:08Z</time>
      </trkpt>
      <trkpt lat="47.42818" lon="6.66293">
        <ele>342</ele>
        <time>2016-04-24T07:43:09Z</time>
      </trkpt>
      <trkpt lat="47.42815" lon="6.66299">
        <ele>342</ele>
        <time>2016-04-24T07:43:10Z</time>
      </trkpt>
      <trkpt lat="47.4281" lon="6.66304">
        <ele>342</ele>
        <time>2016-04-24T07:43:11Z</time>
      </trkpt>
      <trkpt lat="47.42805" lon="6.66308">
        <ele>342</ele>
        <time>2016-04-24T07:43:12Z</time>
      </trkpt>
      <trkpt lat="47.42801" lon="6.66312">
        <ele>342</ele>
        <time>2016-04-24T07:43:13Z</time>
      </trkpt>
      <trkpt lat="47.42796" lon="6.66316">
        <ele>342</ele>
        <time>2016-04-24T07:43:14Z</time>
      </trkpt>
      <trkpt lat="47.42792" lon="6.66319">
        <ele>343</ele>
        <time>2016-04-24T07:43:15Z</time>
      </trkpt>
      <trkpt lat="47.42787" lon="6.66324">
        <ele>343</ele>
        <time>2016-04-24T07:43:16Z</time>
      </trkpt>
      <trkpt lat="47.42782" lon="6.66329">
        <ele>343</ele>
        <time>2016-04-24T07:43:17Z</time>
      </trkpt>
      <trkpt lat="47.42777" lon="6.66334">
        <ele>337</ele>
        <time>2016-04-24T07:43:18Z</time>
      </trkpt>
      <trkpt lat="47.42773" lon="6.6634">
        <ele>338</ele>
        <time>2016-04-24T07:43:19Z</time>
      </trkpt>
      <trkpt lat="47.42768" lon="6.66347">
        <ele>338</ele>
        <time>2016-04-24T07:43:20Z</time>
      </trkpt>
      <trkpt lat="47.42765" lon="6.66353">
        <ele>337</ele>
        <time>2016-04-24T07:43:21Z</time>
      </trkpt>
      <trkpt lat="47.42761" lon="6.6636">
        <ele>337</ele>
        <time>2016-04-24T07:43:22Z</time>
      </trkpt>
      <trkpt lat="47.42757" lon="6.66365">
        <ele>336</ele>
        <time>2016-04-24T07:43:23Z</time>
      </trkpt>
      <trkpt lat="47.42752" lon="6.66369">
        <ele>336</ele>
        <time>2016-04-24T07:43:24Z</time>
      </trkpt>
      <trkpt lat="47.42748" lon="6.66372">
        <ele>346</ele>
        <time>2016-04-24T07:43:25Z</time>
      </trkpt>
      <trkpt lat="47.42744" lon="6.66375">
        <ele>346</ele>
        <time>2016-04-24T07:43:26Z</time>
      </trkpt>
      <trkpt lat="47.4274" lon="6.66379">
        <ele>346</ele>
        <time>2016-04-24T07:43:27Z</time>
      </trkpt>
      <trkpt lat="47.42737" lon="6.66383">
        <ele>346</ele>
        <time>2016-04-24T07:43:28Z</time>
      </trkpt>
      <trkpt lat="47.42734" lon="6.66387">
        <ele>345</ele>
        <time>2016-04-24T07:43:29Z</time>
      </trkpt>
      <trkpt lat="47.42732" lon="6.66391">
        <ele>345</ele>
        <time>2016-04-24T07:43:30Z</time>
      </trkpt>
      <trkpt lat="47.42729" lon="6.66395">
        <ele>345</ele>
        <time>2016-04-24T07:43:31Z</time>
      </trkpt>
      <trkpt lat="47.42727" lon="6.66399">
        <ele>344</ele>
        <time>2016-04-24T07:43:32Z</time>
      </trkpt>
      <trkpt lat="47.42725" lon="6.66403">
        <ele>344</ele>
        <time>2016-04-24T07:43:33Z</time>
      </trkpt>
      <trkpt lat="47.42722" lon="6.66408">
        <ele>345</ele>
        <time>2016-04-24T07:43:34Z</time>
      </trkpt>
      <trkpt lat="47.42719" lon="6.66414">
        <ele>345</ele>
        <time>2016-04-24T07:43:35Z</time>
      </trkpt>
      <trkpt lat="47.42717" lon="6.66419">
        <ele>336</ele>
        <time>2016-04-24T07:43:36Z</time>
      </trkpt>
      <trkpt lat="47.42714" lon="6.66425">
        <ele>336</ele>
        <time>2016-04-24T07:43:37Z</time>
      </trkpt>
      <trkpt lat="47.42712" lon="6.6643">
        <ele>337</ele>
        <time>2016-04-24T07:43:38Z</time>
      </trkpt>
      <trkpt lat="47.42709" lon="6.66435">
        <ele>337</ele>
        <time>2016-04-24T07:43:39Z</time>
      </trkpt>
      <trkpt lat="47.42706" lon="6.6644">
        <ele>337</ele>
        <time>2016-04-24T07:43:40Z</time>
      </trkpt>
      <trkpt lat="47.42703" lon="6.66445">
        <ele>337</ele>
        <time>2016-04-24T07:43:41Z</time>
      </trkpt>
      <trkpt lat="47.427" lon="6.66449">
        <ele>337</ele>
        <time>2016-04-24T07:43:42Z</time>
      </trkpt>
      <trkpt lat="47.42696" lon="6.66452">
        <ele>337</ele>
        <time>2016-04-24T07:43:43Z</time>
      </trkpt>
      <trkpt lat="47.42693" lon="6.66455">
        <ele>337</ele>
        <time>2016-04-24T07:43:44Z</time>
      </trkpt>
      <trkpt lat="47.42689" lon="6.66457">
        <ele>337</ele>
        <time>2016-04-24T07:43:45Z</time>
      </trkpt>
      <trkpt lat="47.42686" lon="6.66459">
        <ele>337</ele>
        <time>2016-04-24T07:43:46Z</time>
      </trkpt>
      <trkpt lat="47.42683" lon="6.66461">
        <ele>337</ele>
        <time>2016-04-24T07:43:47Z</time>
      </trkpt>
      <trkpt lat="47.4268" lon="6.66463">
        <ele>337</ele>
        <time>2016-04-24T07:43:48Z</time>
      </trkpt>
      <trkpt lat="47.42678" lon="6.66465">
        <ele>337</ele>
        <time>2016-04-24T07:43:49Z</time>
      </trkpt>
      <trkpt lat="47.42676" lon="6.6647">
        <ele>336</ele>
        <time>2016-04-24T07:43:51Z</time>
      </trkpt>
      <trkpt lat="47.42675" lon="6.66473">
        <ele>336</ele>
        <time>2016-04-24T07:43:52Z</time>
      </trkpt>
      <trkpt lat="47.42673" lon="6.66475">
        <ele>336</ele>
        <time>2016-04-24T07:43:53Z</time>
      </trkpt>
      <trkpt lat="47.42671" lon="6.66478">
        <ele>336</ele>
        <time>2016-04-24T07:43:54Z</time>
      </trkpt>
      <trkpt lat="47.42668" lon="6.66481">
        <ele>335</ele>
        <time>2016-04-24T07:43:55Z</time>
      </trkpt>
      <trkpt lat="47.42665" lon="6.66484">
        <ele>345</ele>
        <time>2016-04-24T07:43:56Z</time>
      </trkpt>
      <trkpt lat="47.42663" lon="6.66487">
        <ele>343</ele>
        <time>2016-04-24T07:43:57Z</time>
      </trkpt>
      <trkpt lat="47.4266" lon="6.66491">
        <ele>342</ele>
        <time>2016-04-24T07:43:58Z</time>
      </trkpt>
      <trkpt lat="47.42658" lon="6.66495">
        <ele>342</ele>
        <time>2016-04-24T07:43:59Z</time>
      </trkpt>
      <trkpt lat="47.42655" lon="6.665">
        <ele>342</ele>
        <time>2016-04-24T07:44:00Z</time>
      </trkpt>
      <trkpt lat="47.42653" lon="6.66504">
        <ele>338</ele>
        <time>2016-04-24T07:44:01Z</time>
      </trkpt>
      <trkpt lat="47.42651" lon="6.66509">
        <ele>338</ele>
        <time>2016-04-24T07:44:02Z</time>
      </trkpt>
      <trkpt lat="47.42648" lon="6.66513">
        <ele>339</ele>
        <time>2016-04-24T07:44:03Z</time>
      </trkpt>
      <trkpt lat="47.42646" lon="6.66516">
        <ele>339</ele>
        <time>2016-04-24T07:44:04Z</time>
      </trkpt>
      <trkpt lat="47.42644" lon="6.66519">
        <ele>340</ele>
        <time>2016-04-24T07:44:05Z</time>
      </trkpt>
      <trkpt lat="47.42641" lon="6.66522">
        <ele>340</ele>
        <time>2016-04-24T07:44:06Z</time>
      </trkpt>
      <trkpt lat="47.42638" lon="6.66525">
        <ele>341</ele>
        <time>2016-04-24T07:44:07Z</time>
      </trkpt>
      <trkpt lat="47.42635" lon="6.66527">
        <ele>341</ele>
        <time>2016-04-24T07:44:08Z</time>
      </trkpt>
      <trkpt lat="47.42632" lon="6.66529">
        <ele>341</ele>
        <time>2016-04-24T07:44:09Z</time>
      </trkpt>
      <trkpt lat="47.42629" lon="6.66531">
        <ele>342</ele>
        <time>2016-04-24T07:44:10Z</time>
      </trkpt>
      <trkpt lat="47.42627" lon="6.66533">
        <ele>342</ele>
        <time>2016-04-24T07:44:11Z</time>
      </trkpt>
      <trkpt lat="47.42624" lon="6.66535">
        <ele>342</ele>
        <time>2016-04-24T07:44:12Z</time>
      </trkpt>
      <trkpt lat="47.42622" lon="6.66538">
        <ele>342</ele>
        <time>2016-04-24T07:44:13Z</time>
      </trkpt>
      <trkpt lat="47.4262" lon="6.6654">
        <ele>343</ele>
        <time>2016-04-24T07:44:14Z</time>
      </trkpt>
      <trkpt lat="47.42617" lon="6.66542">
        <ele>343</ele>
        <time>2016-04-24T07:44:15Z</time>
      </trkpt>
      <trkpt lat="47.42615" lon="6.66545">
        <ele>343</ele>
        <time>2016-04-24T07:44:16Z</time>
      </trkpt>
      <trkpt lat="47.42613" lon="6.66547">
        <ele>343</ele>
        <time>2016-04-24T07:44:17Z</time>
      </trkpt>
      <trkpt lat="47.42611" lon="6.66551">
        <ele>343</ele>
        <time>2016-04-24T07:44:18Z</time>
      </trkpt>
      <trkpt lat="47.4261" lon="6.66554">
        <ele>343</ele>
        <time>2016-04-24T07:44:19Z</time>
      </trkpt>
      <trkpt lat="47.42608" lon="6.66557">
        <ele>343</ele>
        <time>2016-04-24T07:44:20Z</time>
      </trkpt>
      <trkpt lat="47.42607" lon="6.6656">
        <ele>343</ele>
        <time>2016-04-24T07:44:21Z</time>
      </trkpt>
      <trkpt lat="47.42606" lon="6.66563">
        <ele>343</ele>
        <time>2016-04-24T07:44:22Z</time>
      </trkpt>
      <trkpt lat="47.42605" lon="6.66567">
        <ele>343</ele>
        <time>2016-04-24T07:44:23Z</time>
      </trkpt>
      <trkpt lat="47.42604" lon="6.6657">
        <ele>343</ele>
        <time>2016-04-24T07:44:24Z</time>
      </trkpt>
      <trkpt lat="47.42603" lon="6.66574">
        <ele>343</ele>
        <time>2016-04-24T07:44:25Z</time>
      </trkpt>
      <trkpt lat="47.42601" lon="6.66578">
        <ele>344</ele>
        <time>2016-04-24T07:44:26Z</time>
      </trkpt>
      <trkpt lat="47.42599" lon="6.66582">
        <ele>344</ele>
        <time>2016-04-24T07:44:27Z</time>
      </trkpt>
      <trkpt lat="47.42598" lon="6.66587">
        <ele>341</ele>
        <time>2016-04-24T07:44:28Z</time>
      </trkpt>
      <trkpt lat="47.42597" lon="6.66592">
        <ele>341</ele>
        <time>2016-04-24T07:44:29Z</time>
      </trkpt>
      <trkpt lat="47.42595" lon="6.66597">
        <ele>340</ele>
        <time>2016-04-24T07:44:30Z</time>
      </trkpt>
      <trkpt lat="47.42594" lon="6.66602">
        <ele>339</ele>
        <time>2016-04-24T07:44:31Z</time>
      </trkpt>
      <trkpt lat="47.42592" lon="6.66607">
        <ele>339</ele>
        <time>2016-04-24T07:44:32Z</time>
      </trkpt>
      <trkpt lat="47.42589" lon="6.66612">
        <ele>338</ele>
        <time>2016-04-24T07:44:33Z</time>
      </trkpt>
      <trkpt lat="47.42586" lon="6.66618">
        <ele>338</ele>
        <time>2016-04-24T07:44:34Z</time>
      </trkpt>
      <trkpt lat="47.42583" lon="6.66623">
        <ele>351</ele>
        <time>2016-04-24T07:44:35Z</time>
      </trkpt>
      <trkpt lat="47.4258" lon="6.66629">
        <ele>350</ele>
        <time>2016-04-24T07:44:36Z</time>
      </trkpt>
      <trkpt lat="47.42578" lon="6.66635">
        <ele>350</ele>
        <time>2016-04-24T07:44:37Z</time>
      </trkpt>
      <trkpt lat="47.42575" lon="6.66641">
        <ele>349</ele>
        <time>2016-04-24T07:44:38Z</time>
      </trkpt>
      <trkpt lat="47.42571" lon="6.66647">
        <ele>349</ele>
        <time>2016-04-24T07:44:39Z</time>
      </trkpt>
      <trkpt lat="47.42567" lon="6.66653">
        <ele>348</ele>
        <time>2016-04-24T07:44:40Z</time>
      </trkpt>
      <trkpt lat="47.42564" lon="6.66658">
        <ele>348</ele>
        <time>2016-04-24T07:44:41Z</time>
      </trkpt>
      <trkpt lat="47.42562" lon="6.66663">
        <ele>348</ele>
        <time>2016-04-24T07:44:42Z</time>
      </trkpt>
      <trkpt lat="47.42562" lon="6.66667">
        <ele>344</ele>
        <time>2016-04-24T07:44:43Z</time>
      </trkpt>
      <trkpt lat="47.42563" lon="6.66671">
        <ele>344</ele>
        <time>2016-04-24T07:44:44Z</time>
      </trkpt>
      <trkpt lat="47.42565" lon="6.66674">
        <ele>343</ele>
        <time>2016-04-24T07:44:45Z</time>
      </trkpt>
      <trkpt lat="47.42569" lon="6.66678">
        <ele>343</ele>
        <time>2016-04-24T07:44:46Z</time>
      </trkpt>
      <trkpt lat="47.42572" lon="6.66681">
        <ele>343</ele>
        <time>2016-04-24T07:44:47Z</time>
      </trkpt>
      <trkpt lat="47.42576" lon="6.66684">
        <ele>343</ele>
        <time>2016-04-24T07:44:48Z</time>
      </trkpt>
      <trkpt lat="47.42579" lon="6.66686">
        <ele>343</ele>
        <time>2016-04-24T07:44:49Z</time>
      </trkpt>
      <trkpt lat="47.42591" lon="6.66685">
        <ele>336</ele>
        <time>2016-04-24T07:44:50Z</time>
      </trkpt>
      <trkpt lat="47.426" lon="6.66686">
        <ele>335</ele>
        <time>2016-04-24T07:44:51Z</time>
      </trkpt>
      <trkpt lat="47.42607" lon="6.66685">
        <ele>334</ele>
        <time>2016-04-24T07:44:52Z</time>
      </trkpt>
      <trkpt lat="47.42617" lon="6.66686">
        <ele>334</ele>
        <time>2016-04-24T07:44:53Z</time>
      </trkpt>
      <trkpt lat="47.42623" lon="6.66687">
        <ele>333</ele>
        <time>2016-04-24T07:44:54Z</time>
      </trkpt>
      <trkpt lat="47.4263" lon="6.66689">
        <ele>333</ele>
        <time>2016-04-24T07:44:55Z</time>
      </trkpt>
      <trkpt lat="47.42635" lon="6.66693">
        <ele>332</ele>
        <time>2016-04-24T07:44:56Z</time>
      </trkpt>
      <trkpt lat="47.42641" lon="6.66696">
        <ele>332</ele>
        <time>2016-04-24T07:44:57Z</time>
      </trkpt>
      <trkpt lat="47.42642" lon="6.66705">
        <ele>332</ele>
        <time>2016-04-24T07:44:58Z</time>
      </trkpt>
      <trkpt lat="47.42645" lon="6.66712">
        <ele>332</ele>
        <time>2016-04-24T07:44:59Z</time>
      </trkpt>
      <trkpt lat="47.42646" lon="6.66721">
        <ele>332</ele>
        <time>2016-04-24T07:45:00Z</time>
      </trkpt>
      <trkpt lat="47.42647" lon="6.6673">
        <ele>332</ele>
        <time>2016-04-24T07:45:01Z</time>
      </trkpt>
      <trkpt lat="47.42647" lon="6.66741">
        <ele>332</ele>
        <time>2016-04-24T07:45:02Z</time>
      </trkpt>
      <trkpt lat="47.42648" lon="6.66751">
        <ele>332</ele>
        <time>2016-04-24T07:45:03Z</time>
      </trkpt>
      <trkpt lat="47.42647" lon="6.66761">
        <ele>333</ele>
        <time>2016-04-24T07:45:04Z</time>
      </trkpt>
      <trkpt lat="47.42646" lon="6.66771">
        <ele>333</ele>
        <time>2016-04-24T07:45:05Z</time>
      </trkpt>
      <trkpt lat="47.42644" lon="6.66779">
        <ele>334</ele>
        <time>2016-04-24T07:45:06Z</time>
      </trkpt>
      <trkpt lat="47.42641" lon="6.66787">
        <ele>334</ele>
        <time>2016-04-24T07:45:07Z</time>
      </trkpt>
      <trkpt lat="47.42637" lon="6.66793">
        <ele>334</ele>
        <time>2016-04-24T07:45:08Z</time>
      </trkpt>
      <trkpt lat="47.42634" lon="6.66799">
        <ele>335</ele>
        <time>2016-04-24T07:45:09Z</time>
      </trkpt>
      <trkpt lat="47.42632" lon="6.66805">
        <ele>335</ele>
        <time>2016-04-24T07:45:10Z</time>
      </trkpt>
      <trkpt lat="47.4263" lon="6.6681">
        <ele>335</ele>
        <time>2016-04-24T07:45:11Z</time>
      </trkpt>
      <trkpt lat="47.42626" lon="6.66817">
        <ele>335</ele>
        <time>2016-04-24T07:45:12Z</time>
      </trkpt>
      <trkpt lat="47.42624" lon="6.66823">
        <ele>336</ele>
        <time>2016-04-24T07:45:13Z</time>
      </trkpt>
      <trkpt lat="47.42621" lon="6.66828">
        <ele>336</ele>
        <time>2016-04-24T07:45:14Z</time>
      </trkpt>
      <trkpt lat="47.42617" lon="6.66835">
        <ele>336</ele>
        <time>2016-04-24T07:45:15Z</time>
      </trkpt>
      <trkpt lat="47.42614" lon="6.66841">
        <ele>337</ele>
        <time>2016-04-24T07:45:16Z</time>
      </trkpt>
      <trkpt lat="47.42612" lon="6.66846">
        <ele>337</ele>
        <time>2016-04-24T07:45:17Z</time>
      </trkpt>
      <trkpt lat="47.42609" lon="6.66852">
        <ele>337</ele>
        <time>2016-04-24T07:45:18Z</time>
      </trkpt>
      <trkpt lat="47.42605" lon="6.66858">
        <ele>337</ele>
        <time>2016-04-24T07:45:19Z</time>
      </trkpt>
      <trkpt lat="47.42602" lon="6.66864">
        <ele>337</ele>
        <time>2016-04-24T07:45:20Z</time>
      </trkpt>
      <trkpt lat="47.42598" lon="6.6687">
        <ele>337</ele>
        <time>2016-04-24T07:45:21Z</time>
      </trkpt>
      <trkpt lat="47.42594" lon="6.66876">
        <ele>336</ele>
        <time>2016-04-24T07:45:22Z</time>
      </trkpt>
      <trkpt lat="47.42591" lon="6.66882">
        <ele>336</ele>
        <time>2016-04-24T07:45:23Z</time>
      </trkpt>
      <trkpt lat="47.42588" lon="6.66889">
        <ele>336</ele>
        <time>2016-04-24T07:45:24Z</time>
      </trkpt>
      <trkpt lat="47.42586" lon="6.66896">
        <ele>336</ele>
        <time>2016-04-24T07:45:25Z</time>
      </trkpt>
      <trkpt lat="47.42583" lon="6.66902">
        <ele>342</ele>
        <time>2016-04-24T07:45:26Z</time>
      </trkpt>
      <trkpt lat="47.4258" lon="6.66909">
        <ele>341</ele>
        <time>2016-04-24T07:45:27Z</time>
      </trkpt>
      <trkpt lat="47.42578" lon="6.66915">
        <ele>340</ele>
        <time>2016-04-24T07:45:28Z</time>
      </trkpt>
      <trkpt lat="47.42575" lon="6.66922">
        <ele>339</ele>
        <time>2016-04-24T07:45:29Z</time>
      </trkpt>
      <trkpt lat="47.42574" lon="6.66929">
        <ele>340</ele>
        <time>2016-04-24T07:45:30Z</time>
      </trkpt>
      <trkpt lat="47.42573" lon="6.66936">
        <ele>341</ele>
        <time>2016-04-24T07:45:31Z</time>
      </trkpt>
      <trkpt lat="47.4257" lon="6.66942">
        <ele>341</ele>
        <time>2016-04-24T07:45:32Z</time>
      </trkpt>
      <trkpt lat="47.42567" lon="6.66949">
        <ele>342</ele>
        <time>2016-04-24T07:45:33Z</time>
      </trkpt>
      <trkpt lat="47.42564" lon="6.66954">
        <ele>342</ele>
        <time>2016-04-24T07:45:34Z</time>
      </trkpt>
      <trkpt lat="47.42561" lon="6.66959">
        <ele>342</ele>
        <time>2016-04-24T07:45:35Z</time>
      </trkpt>
      <trkpt lat="47.42557" lon="6.66964">
        <ele>342</ele>
        <time>2016-04-24T07:45:36Z</time>
      </trkpt>
      <trkpt lat="47.42553" lon="6.66969">
        <ele>342</ele>
        <time>2016-04-24T07:45:37Z</time>
      </trkpt>
      <trkpt lat="47.4255" lon="6.66973">
        <ele>342</ele>
        <time>2016-04-24T07:45:38Z</time>
      </trkpt>
      <trkpt lat="47.42546" lon="6.66977">
        <ele>343</ele>
        <time>2016-04-24T07:45:39Z</time>
      </trkpt>
      <trkpt lat="47.42541" lon="6.66982">
        <ele>343</ele>
        <time>2016-04-24T07:45:40Z</time>
      </trkpt>
      <trkpt lat="47.42537" lon="6.66987">
        <ele>344</ele>
        <time>2016-04-24T07:45:41Z</time>
      </trkpt>
      <trkpt lat="47.42535" lon="6.66991">
        <ele>344</ele>
        <time>2016-04-24T07:45:42Z</time>
      </trkpt>
      <trkpt lat="47.42531" lon="6.66996">
        <ele>344</ele>
        <time>2016-04-24T07:45:43Z</time>
      </trkpt>
      <trkpt lat="47.42527" lon="6.67001">
        <ele>340</ele>
        <time>2016-04-24T07:45:44Z</time>
      </trkpt>
      <trkpt lat="47.42523" lon="6.67007">
        <ele>341</ele>
        <time>2016-04-24T07:45:45Z</time>
      </trkpt>
      <trkpt lat="47.42521" lon="6.67011">
        <ele>341</ele>
        <time>2016-04-24T07:45:46Z</time>
      </trkpt>
      <trkpt lat="47.42517" lon="6.67016">
        <ele>341</ele>
        <time>2016-04-24T07:45:47Z</time>
      </trkpt>
      <trkpt lat="47.42515" lon="6.67022">
        <ele>341</ele>
        <time>2016-04-24T07:45:48Z</time>
      </trkpt>
      <trkpt lat="47.42513" lon="6.67026">
        <ele>340</ele>
        <time>2016-04-24T07:45:49Z</time>
      </trkpt>
      <trkpt lat="47.42514" lon="6.67032">
        <ele>339</ele>
        <time>2016-04-24T07:45:50Z</time>
      </trkpt>
      <trkpt lat="47.42513" lon="6.67037">
        <ele>339</ele>
        <time>2016-04-24T07:45:51Z</time>
      </trkpt>
      <trkpt lat="47.42511" lon="6.6704">
        <ele>339</ele>
        <time>2016-04-24T07:45:52Z</time>
      </trkpt>
      <trkpt lat="47.42507" lon="6.67045">
        <ele>338</ele>
        <time>2016-04-24T07:45:53Z</time>
      </trkpt>
      <trkpt lat="47.42503" lon="6.6705">
        <ele>338</ele>
        <time>2016-04-24T07:45:54Z</time>
      </trkpt>
      <trkpt lat="47.42501" lon="6.67055">
        <ele>338</ele>
        <time>2016-04-24T07:45:55Z</time>
      </trkpt>
      <trkpt lat="47.42498" lon="6.67059">
        <ele>350</ele>
        <time>2016-04-24T07:45:56Z</time>
      </trkpt>
      <trkpt lat="47.42496" lon="6.67064">
        <ele>349</ele>
        <time>2016-04-24T07:45:57Z</time>
      </trkpt>
      <trkpt lat="47.42494" lon="6.67069">
        <ele>347</ele>
        <time>2016-04-24T07:45:58Z</time>
      </trkpt>
      <trkpt lat="47.42491" lon="6.67074">
        <ele>346</ele>
        <time>2016-04-24T07:45:59Z</time>
      </trkpt>
      <trkpt lat="47.42489" lon="6.67079">
        <ele>345</ele>
        <time>2016-04-24T07:46:00Z</time>
      </trkpt>
      <trkpt lat="47.42485" lon="6.67086">
        <ele>343</ele>
        <time>2016-04-24T07:46:01Z</time>
      </trkpt>
      <trkpt lat="47.42482" lon="6.67091">
        <ele>344</ele>
        <time>2016-04-24T07:46:02Z</time>
      </trkpt>
      <trkpt lat="47.42479" lon="6.67097">
        <ele>345</ele>
        <time>2016-04-24T07:46:03Z</time>
      </trkpt>
      <trkpt lat="47.42476" lon="6.67102">
        <ele>346</ele>
        <time>2016-04-24T07:46:04Z</time>
      </trkpt>
      <trkpt lat="47.42473" lon="6.67108">
        <ele>346</ele>
        <time>2016-04-24T07:46:05Z</time>
      </trkpt>
      <trkpt lat="47.42469" lon="6.67112">
        <ele>347</ele>
        <time>2016-04-24T07:46:06Z</time>
      </trkpt>
      <trkpt lat="47.42467" lon="6.6712">
        <ele>347</ele>
        <time>2016-04-24T07:46:07Z</time>
      </trkpt>
      <trkpt lat="47.42467" lon="6.67125">
        <ele>347</ele>
        <time>2016-04-24T07:46:08Z</time>
      </trkpt>
      <trkpt lat="47.42469" lon="6.67131">
        <ele>346</ele>
        <time>2016-04-24T07:46:09Z</time>
      </trkpt>
      <trkpt lat="47.42466" lon="6.67137">
        <ele>346</ele>
        <time>2016-04-24T07:46:10Z</time>
      </trkpt>
      <trkpt lat="47.42464" lon="6.67143">
        <ele>346</ele>
        <time>2016-04-24T07:46:11Z</time>
      </trkpt>
      <trkpt lat="47.42463" lon="6.67149">
        <ele>346</ele>
        <time>2016-04-24T07:46:12Z</time>
      </trkpt>
      <trkpt lat="47.42461" lon="6.67153">
        <ele>346</ele>
        <time>2016-04-24T07:46:13Z</time>
      </trkpt>
      <trkpt lat="47.42459" lon="6.67158">
        <ele>346</ele>
        <time>2016-04-24T07:46:14Z</time>
      </trkpt>
      <trkpt lat="47.42455" lon="6.67165">
        <ele>347</ele>
        <time>2016-04-24T07:46:15Z</time>
      </trkpt>
      <trkpt lat="47.42453" lon="6.67171">
        <ele>341</ele>
        <time>2016-04-24T07:46:16Z</time>
      </trkpt>
      <trkpt lat="47.42451" lon="6.67176">
        <ele>342</ele>
        <time>2016-04-24T07:46:17Z</time>
      </trkpt>
      <trkpt lat="47.42449" lon="6.67181">
        <ele>342</ele>
        <time>2016-04-24T07:46:18Z</time>
      </trkpt>
      <trkpt lat="47.42448" lon="6.67185">
        <ele>342</ele>
        <time>2016-04-24T07:46:19Z</time>
      </trkpt>
      <trkpt lat="47.42446" lon="6.67189">
        <ele>342</ele>
        <time>2016-04-24T07:46:20Z</time>
      </trkpt>
      <trkpt lat="47.42446" lon="6.67191">
        <ele>342</ele>
        <time>2016-04-24T07:46:21Z</time>
      </trkpt>
      <trkpt lat="47.42444" lon="6.67196">
        <ele>341</ele>
        <time>2016-04-24T07:46:23Z</time>
      </trkpt>
      <trkpt lat="47.42444" lon="6.67199">
        <ele>341</ele>
        <time>2016-04-24T07:46:24Z</time>
      </trkpt>
      <trkpt lat="47.42444" lon="6.67202">
        <ele>341</ele>
        <time>2016-04-24T07:46:25Z</time>
      </trkpt>
      <trkpt lat="47.42443" lon="6.67206">
        <ele>341</ele>
        <time>2016-04-24T07:46:26Z</time>
      </trkpt>
      <trkpt lat="47.42443" lon="6.6721">
        <ele>341</ele>
        <time>2016-04-24T07:46:27Z</time>
      </trkpt>
      <trkpt lat="47.42442" lon="6.67213">
        <ele>341</ele>
        <time>2016-04-24T07:46:28Z</time>
      </trkpt>
      <trkpt lat="47.42441" lon="6.67217">
        <ele>340</ele>
        <time>2016-04-24T07:46:29Z</time>
      </trkpt>
      <trkpt lat="47.42441" lon="6.6722">
        <ele>340</ele>
        <time>2016-04-24T07:46:30Z</time>
      </trkpt>
      <trkpt lat="47.42439" lon="6.67224">
        <ele>340</ele>
        <time>2016-04-24T07:46:32Z</time>
      </trkpt>
      <trkpt lat="47.42438" lon="6.67226">
        <ele>340</ele>
        <time>2016-04-24T07:46:33Z</time>
      </trkpt>
      <trkpt lat="47.42435" lon="6.6723">
        <ele>340</ele>
        <time>2016-04-24T07:46:35Z</time>
      </trkpt>
      <trkpt lat="47.42434" lon="6.67232">
        <ele>341</ele>
        <time>2016-04-24T07:46:36Z</time>
      </trkpt>
      <trkpt lat="47.42433" lon="6.67235">
        <ele>341</ele>
        <time>2016-04-24T07:46:37Z</time>
      </trkpt>
      <trkpt lat="47.42433" lon="6.67239">
        <ele>341</ele>
        <time>2016-04-24T07:46:38Z</time>
      </trkpt>
      <trkpt lat="47.42433" lon="6.67242">
        <ele>341</ele>
        <time>2016-04-24T07:46:39Z</time>
      </trkpt>
      <trkpt lat="47.42433" lon="6.67247">
        <ele>341</ele>
        <time>2016-04-24T07:46:40Z</time>
      </trkpt>
      <trkpt lat="47.42432" lon="6.67251">
        <ele>338</ele>
        <time>2016-04-24T07:46:41Z</time>
      </trkpt>
      <trkpt lat="47.42431" lon="6.67256">
        <ele>338</ele>
        <time>2016-04-24T07:46:42Z</time>
      </trkpt>
      <trkpt lat="47.42431" lon="6.67261">
        <ele>338</ele>
        <time>2016-04-24T07:46:43Z</time>
      </trkpt>
      <trkpt lat="47.4243" lon="6.67265">
        <ele>338</ele>
        <time>2016-04-24T07:46:44Z</time>
      </trkpt>
      <trkpt lat="47.42429" lon="6.6727">
        <ele>337</ele>
        <time>2016-04-24T07:46:46Z</time>
      </trkpt>
      <trkpt lat="47.42429" lon="6.67273">
        <ele>337</ele>
        <time>2016-04-24T07:46:47Z</time>
      </trkpt>
      <trkpt lat="47.42426" lon="6.67278">
        <ele>337</ele>
        <time>2016-04-24T07:46:49Z</time>
      </trkpt>
      <trkpt lat="47.42425" lon="6.6728">
        <ele>337</ele>
        <time>2016-04-24T07:46:50Z</time>
      </trkpt>
      <trkpt lat="47.42424" lon="6.67283">
        <ele>337</ele>
        <time>2016-04-24T07:46:51Z</time>
      </trkpt>
      <trkpt lat="47.42421" lon="6.67285">
        <ele>337</ele>
        <time>2016-04-24T07:46:52Z</time>
      </trkpt>
      <trkpt lat="47.42419" lon="6.67288">
        <ele>336</ele>
        <time>2016-04-24T07:46:53Z</time>
      </trkpt>
      <trkpt lat="47.42416" lon="6.6729">
        <ele>347</ele>
        <time>2016-04-24T07:46:54Z</time>
      </trkpt>
      <trkpt lat="47.42414" lon="6.67293">
        <ele>347</ele>
        <time>2016-04-24T07:46:55Z</time>
      </trkpt>
      <trkpt lat="47.42414" lon="6.67296">
        <ele>347</ele>
        <time>2016-04-24T07:46:56Z</time>
      </trkpt>
      <trkpt lat="47.42413" lon="6.673">
        <ele>347</ele>
        <time>2016-04-24T07:46:57Z</time>
      </trkpt>
      <trkpt lat="47.42413" lon="6.67303">
        <ele>346</ele>
        <time>2016-04-24T07:46:58Z</time>
      </trkpt>
      <trkpt lat="47.42412" lon="6.67309">
        <ele>345</ele>
        <time>2016-04-24T07:47:01Z</time>
      </trkpt>
      <trkpt lat="47.42412" lon="6.67311">
        <ele>345</ele>
        <time>2016-04-24T07:47:02Z</time>
      </trkpt>
      <trkpt lat="47.42409" lon="6.67315">
        <ele>344</ele>
        <time>2016-04-24T07:47:05Z</time>
      </trkpt>
      <trkpt lat="47.42408" lon="6.67317">
        <ele>344</ele>
        <time>2016-04-24T07:47:06Z</time>
      </trkpt>
      <trkpt lat="47.42406" lon="6.67322">
        <ele>343</ele>
        <time>2016-04-24T07:47:10Z</time>
      </trkpt>
      <trkpt lat="47.42405" lon="6.67324">
        <ele>343</ele>
        <time>2016-04-24T07:47:11Z</time>
      </trkpt>
      <trkpt lat="47.42403" lon="6.67326">
        <ele>343</ele>
        <time>2016-04-24T07:47:12Z</time>
      </trkpt>
      <trkpt lat="47.42401" lon="6.67327">
        <ele>344</ele>
        <time>2016-04-24T07:47:13Z</time>
      </trkpt>
      <trkpt lat="47.42397" lon="6.67331">
        <ele>345</ele>
        <time>2016-04-24T07:47:15Z</time>
      </trkpt>
      <trkpt lat="47.42396" lon="6.67332">
        <ele>345</ele>
        <time>2016-04-24T07:47:16Z</time>
      </trkpt>
      <trkpt lat="47.42395" lon="6.67336">
        <ele>340</ele>
        <time>2016-04-24T07:47:18Z</time>
      </trkpt>
      <trkpt lat="47.42394" lon="6.67338">
        <ele>341</ele>
        <time>2016-04-24T07:47:19Z</time>
      </trkpt>
      <trkpt lat="47.42392" lon="6.67343">
        <ele>341</ele>
        <time>2016-04-24T07:47:21Z</time>
      </trkpt>
      <trkpt lat="47.42391" lon="6.67345">
        <ele>341</ele>
        <time>2016-04-24T07:47:22Z</time>
      </trkpt>
      <trkpt lat="47.42389" lon="6.6735">
        <ele>342</ele>
        <time>2016-04-24T07:47:25Z</time>
      </trkpt>
      <trkpt lat="47.42389" lon="6.67351">
        <ele>342</ele>
        <time>2016-04-24T07:47:26Z</time>
      </trkpt>
      <trkpt lat="47.42388" lon="6.67357">
        <ele>342</ele>
        <time>2016-04-24T07:47:34Z</time>
      </trkpt>
      <trkpt lat="47.42387" lon="6.67359">
        <ele>342</ele>
        <time>2016-04-24T07:47:35Z</time>
      </trkpt>
      <trkpt lat="47.42385" lon="6.67364">
        <ele>342</ele>
        <time>2016-04-24T07:47:38Z</time>
      </trkpt>
      <trkpt lat="47.42384" lon="6.67365">
        <ele>342</ele>
        <time>2016-04-24T07:47:39Z</time>
      </trkpt>
      <trkpt lat="47.42381" lon="6.67367">
        <ele>342</ele>
        <time>2016-04-24T07:47:41Z</time>
      </trkpt>
      <trkpt lat="47.42379" lon="6.67368">
        <ele>343</ele>
        <time>2016-04-24T07:47:42Z</time>
      </trkpt>
      <trkpt lat="47.42377" lon="6.67373">
        <ele>343</ele>
        <time>2016-04-24T07:47:48Z</time>
      </trkpt>
      <trkpt lat="47.42377" lon="6.67374">
        <ele>343</ele>
        <time>2016-04-24T07:47:49Z</time>
      </trkpt>
      <trkpt lat="47.42373" lon="6.67377">
        <ele>343</ele>
        <time>2016-04-24T07:47:52Z</time>
      </trkpt>
      <trkpt lat="47.42371" lon="6.67377">
        <ele>343</ele>
        <time>2016-04-24T07:47:53Z</time>
      </trkpt>
      <trkpt lat="47.42368" lon="6.6738">
        <ele>343</ele>
        <time>2016-04-24T07:47:57Z</time>
      </trkpt>
      <trkpt lat="47.42367" lon="6.67381">
        <ele>343</ele>
        <time>2016-04-24T07:47:58Z</time>
      </trkpt>
      <trkpt lat="47.42365" lon="6.67386">
        <ele>343</ele>
        <time>2016-04-24T07:48:01Z</time>
      </trkpt>
      <trkpt lat="47.42364" lon="6.67387">
        <ele>343</ele>
        <time>2016-04-24T07:48:02Z</time>
      </trkpt>
      <trkpt lat="47.4236" lon="6.67389">
        <ele>344</ele>
        <time>2016-04-24T07:48:04Z</time>
      </trkpt>
      <trkpt lat="47.42359" lon="6.6739">
        <ele>344</ele>
        <time>2016-04-24T07:48:05Z</time>
      </trkpt>
      <trkpt lat="47.42356" lon="6.67392">
        <ele>344</ele>
        <time>2016-04-24T07:48:07Z</time>
      </trkpt>
      <trkpt lat="47.42355" lon="6.67393">
        <ele>344</ele>
        <time>2016-04-24T07:48:08Z</time>
      </trkpt>
      <trkpt lat="47.42352" lon="6.67397">
        <ele>344</ele>
        <time>2016-04-24T07:48:10Z</time>
      </trkpt>
      <trkpt lat="47.42351" lon="6.67399">
        <ele>344</ele>
        <time>2016-04-24T07:48:11Z</time>
      </trkpt>
      <trkpt lat="47.42347" lon="6.67403">
        <ele>344</ele>
        <time>2016-04-24T07:48:13Z</time>
      </trkpt>
      <trkpt lat="47.42346" lon="6.67405">
        <ele>345</ele>
        <time>2016-04-24T07:48:14Z</time>
      </trkpt>
      <trkpt lat="47.42342" lon="6.67409">
        <ele>345</ele>
        <time>2016-04-24T07:48:16Z</time>
      </trkpt>
      <trkpt lat="47.42341" lon="6.6741">
        <ele>345</ele>
        <time>2016-04-24T07:48:17Z</time>
      </trkpt>
      <trkpt lat="47.42338" lon="6.67415">
        <ele>345</ele>
        <time>2016-04-24T07:48:21Z</time>
      </trkpt>
      <trkpt lat="47.42338" lon="6.67417">
        <ele>344</ele>
        <time>2016-04-24T07:48:22Z</time>
      </trkpt>
      <trkpt lat="47.42335" lon="6.67422">
        <ele>344</ele>
        <time>2016-04-24T07:48:25Z</time>
      </trkpt>
      <trkpt lat="47.42335" lon="6.67423">
        <ele>344</ele>
        <time>2016-04-24T07:48:26Z</time>
      </trkpt>
      <trkpt lat="47.42333" lon="6.67428">
        <ele>346</ele>
        <time>2016-04-24T07:48:31Z</time>
      </trkpt>
      <trkpt lat="47.42332" lon="6.67429">
        <ele>346</ele>
        <time>2016-04-24T07:48:32Z</time>
      </trkpt>
      <trkpt lat="47.42329" lon="6.67431">
        <ele>346</ele>
        <time>2016-04-24T07:48:34Z</time>
      </trkpt>
      <trkpt lat="47.42327" lon="6.67432">
        <ele>346</ele>
        <time>2016-04-24T07:48:35Z</time>
      </trkpt>
      <trkpt lat="47.42324" lon="6.67435">
        <ele>347</ele>
        <time>2016-04-24T07:48:37Z</time>
      </trkpt>
      <trkpt lat="47.4232" lon="6.67437">
        <ele>347</ele>
        <time>2016-04-24T07:48:38Z</time>
      </trkpt>
      <trkpt lat="47.42316" lon="6.6744">
        <ele>347</ele>
        <time>2016-04-24T07:48:41Z</time>
      </trkpt>
      <trkpt lat="47.42315" lon="6.67441">
        <ele>347</ele>
        <time>2016-04-24T07:48:42Z</time>
      </trkpt>
      <trkpt lat="47.42311" lon="6.67441">
        <ele>347</ele>
        <time>2016-04-24T07:48:44Z</time>
      </trkpt>
      <trkpt lat="47.42309" lon="6.67442">
        <ele>347</ele>
        <time>2016-04-24T07:48:45Z</time>
      </trkpt>
      <trkpt lat="47.42306" lon="6.67444">
        <ele>347</ele>
        <time>2016-04-24T07:48:47Z</time>
      </trkpt>
      <trkpt lat="47.42305" lon="6.67446">
        <ele>347</ele>
        <time>2016-04-24T07:48:48Z</time>
      </trkpt>
      <trkpt lat="47.42302" lon="6.67449">
        <ele>347</ele>
        <time>2016-04-24T07:48:50Z</time>
      </trkpt>
      <trkpt lat="47.42301" lon="6.67452">
        <ele>347</ele>
        <time>2016-04-24T07:48:51Z</time>
      </trkpt>
      <trkpt lat="47.42299" lon="6.67454">
        <ele>347</ele>
        <time>2016-04-24T07:48:52Z</time>
      </trkpt>
      <trkpt lat="47.42297" lon="6.67457">
        <ele>347</ele>
        <time>2016-04-24T07:48:53Z</time>
      </trkpt>
      <trkpt lat="47.42294" lon="6.6746">
        <ele>347</ele>
        <time>2016-04-24T07:48:54Z</time>
      </trkpt>
      <trkpt lat="47.4229" lon="6.67462">
        <ele>347</ele>
        <time>2016-04-24T07:48:55Z</time>
      </trkpt>
      <trkpt lat="47.42287" lon="6.67463">
        <ele>347</ele>
        <time>2016-04-24T07:48:56Z</time>
      </trkpt>
      <trkpt lat="47.42283" lon="6.67465">
        <ele>347</ele>
        <time>2016-04-24T07:48:57Z</time>
      </trkpt>
      <trkpt lat="47.4228" lon="6.67465">
        <ele>347</ele>
        <time>2016-04-24T07:48:58Z</time>
      </trkpt>
      <trkpt lat="47.42277" lon="6.67466">
        <ele>348</ele>
        <time>2016-04-24T07:48:59Z</time>
      </trkpt>
      <trkpt lat="47.42274" lon="6.67466">
        <ele>348</ele>
        <time>2016-04-24T07:49:00Z</time>
      </trkpt>
      <trkpt lat="47.42271" lon="6.67466">
        <ele>348</ele>
        <time>2016-04-24T07:49:01Z</time>
      </trkpt>
      <trkpt lat="47.42269" lon="6.67466">
        <ele>348</ele>
        <time>2016-04-24T07:49:02Z</time>
      </trkpt>
      <trkpt lat="47.42253" lon="6.67472">
        <ele>348</ele>
        <time>2016-04-24T07:49:03Z</time>
      </trkpt>
      <trkpt lat="47.42248" lon="6.67473">
        <ele>355</ele>
        <time>2016-04-24T07:49:04Z</time>
      </trkpt>
      <trkpt lat="47.42245" lon="6.67469">
        <ele>356</ele>
        <time>2016-04-24T07:49:09Z</time>
      </trkpt>
      <trkpt lat="47.42244" lon="6.67468">
        <ele>356</ele>
        <time>2016-04-24T07:49:10Z</time>
      </trkpt>
      <trkpt lat="47.42241" lon="6.67464">
        <ele>357</ele>
        <time>2016-04-24T07:49:13Z</time>
      </trkpt>
      <trkpt lat="47.4224" lon="6.67463">
        <ele>357</ele>
        <time>2016-04-24T07:49:14Z</time>
      </trkpt>
      <trkpt lat="47.42236" lon="6.6746">
        <ele>357</ele>
        <time>2016-04-24T07:49:18Z</time>
      </trkpt>
      <trkpt lat="47.42235" lon="6.67458">
        <ele>358</ele>
        <time>2016-04-24T07:49:19Z</time>
      </trkpt>
      <trkpt lat="47.42232" lon="6.67455">
        <ele>358</ele>
        <time>2016-04-24T07:49:22Z</time>
      </trkpt>
      <trkpt lat="47.42231" lon="6.67454">
        <ele>358</ele>
        <time>2016-04-24T07:49:23Z</time>
      </trkpt>
      <trkpt lat="47.42228" lon="6.6745">
        <ele>359</ele>
        <time>2016-04-24T07:49:26Z</time>
      </trkpt>
      <trkpt lat="47.42226" lon="6.67449">
        <ele>359</ele>
        <time>2016-04-24T07:49:27Z</time>
      </trkpt>
      <trkpt lat="47.42223" lon="6.67446">
        <ele>359</ele>
        <time>2016-04-24T07:49:30Z</time>
      </trkpt>
      <trkpt lat="47.42222" lon="6.67445">
        <ele>359</ele>
        <time>2016-04-24T07:49:31Z</time>
      </trkpt>
      <trkpt lat="47.42218" lon="6.67442">
        <ele>360</ele>
        <time>2016-04-24T07:49:34Z</time>
      </trkpt>
      <trkpt lat="47.42218" lon="6.6744">
        <ele>360</ele>
        <time>2016-04-24T07:49:35Z</time>
      </trkpt>
      <trkpt lat="47.42216" lon="6.67434">
        <ele>360</ele>
        <time>2016-04-24T07:49:38Z</time>
      </trkpt>
      <trkpt lat="47.42215" lon="6.67433">
        <ele>360</ele>
        <time>2016-04-24T07:49:39Z</time>
      </trkpt>
      <trkpt lat="47.42213" lon="6.6743">
        <ele>360</ele>
        <time>2016-04-24T07:49:41Z</time>
      </trkpt>
      <trkpt lat="47.42212" lon="6.67428">
        <ele>360</ele>
        <time>2016-04-24T07:49:42Z</time>
      </trkpt>
      <trkpt lat="47.42208" lon="6.67424">
        <ele>361</ele>
        <time>2016-04-24T07:49:46Z</time>
      </trkpt>
      <trkpt lat="47.42207" lon="6.67425">
        <ele>361</ele>
        <time>2016-04-24T07:49:47Z</time>
      </trkpt>
      <trkpt lat="47.42205" lon="6.67424">
        <ele>361</ele>
        <time>2016-04-24T07:49:48Z</time>
      </trkpt>
      <trkpt lat="47.42202" lon="6.67423">
        <ele>361</ele>
        <time>2016-04-24T07:49:49Z</time>
      </trkpt>
      <trkpt lat="47.42199" lon="6.67422">
        <ele>361</ele>
        <time>2016-04-24T07:49:50Z</time>
      </trkpt>
      <trkpt lat="47.42197" lon="6.6742">
        <ele>361</ele>
        <time>2016-04-24T07:49:51Z</time>
      </trkpt>
      <trkpt lat="47.42194" lon="6.67418">
        <ele>362</ele>
        <time>2016-04-24T07:49:52Z</time>
      </trkpt>
      <trkpt lat="47.42192" lon="6.67417">
        <ele>369</ele>
        <time>2016-04-24T07:49:53Z</time>
      </trkpt>
      <trkpt lat="47.4219" lon="6.67413">
        <ele>369</ele>
        <time>2016-04-24T07:49:54Z</time>
      </trkpt>
      <trkpt lat="47.42189" lon="6.67412">
        <ele>369</ele>
        <time>2016-04-24T07:49:55Z</time>
      </trkpt>
      <trkpt lat="47.42185" lon="6.6741">
        <ele>368</ele>
        <time>2016-04-24T07:49:57Z</time>
      </trkpt>
      <trkpt lat="47.42183" lon="6.67409">
        <ele>368</ele>
        <time>2016-04-24T07:49:58Z</time>
      </trkpt>
      <trkpt lat="47.42182" lon="6.67406">
        <ele>368</ele>
        <time>2016-04-24T07:49:59Z</time>
      </trkpt>
      <trkpt lat="47.42181" lon="6.67402">
        <ele>369</ele>
        <time>2016-04-24T07:50:00Z</time>
      </trkpt>
      <trkpt lat="47.42181" lon="6.67398">
        <ele>369</ele>
        <time>2016-04-24T07:50:01Z</time>
      </trkpt>
      <trkpt lat="47.4218" lon="6.67394">
        <ele>370</ele>
        <time>2016-04-24T07:50:02Z</time>
      </trkpt>
      <trkpt lat="47.42179" lon="6.6739">
        <ele>370</ele>
        <time>2016-04-24T07:50:03Z</time>
      </trkpt>
      <trkpt lat="47.42179" lon="6.67387">
        <ele>371</ele>
        <time>2016-04-24T07:50:04Z</time>
      </trkpt>
      <trkpt lat="47.42177" lon="6.67381">
        <ele>371</ele>
        <time>2016-04-24T07:50:06Z</time>
      </trkpt>
      <trkpt lat="47.42175" lon="6.67379">
        <ele>372</ele>
        <time>2016-04-24T07:50:07Z</time>
      </trkpt>
      <trkpt lat="47.42172" lon="6.67374">
        <ele>372</ele>
        <time>2016-04-24T07:50:09Z</time>
      </trkpt>
      <trkpt lat="47.42171" lon="6.67371">
        <ele>372</ele>
        <time>2016-04-24T07:50:10Z</time>
      </trkpt>
      <trkpt lat="47.42168" lon="6.67369">
        <ele>373</ele>
        <time>2016-04-24T07:50:11Z</time>
      </trkpt>
      <trkpt lat="47.42166" lon="6.67366">
        <ele>376</ele>
        <time>2016-04-24T07:50:12Z</time>
      </trkpt>
      <trkpt lat="47.42164" lon="6.67364">
        <ele>376</ele>
        <time>2016-04-24T07:50:13Z</time>
      </trkpt>
      <trkpt lat="47.42162" lon="6.67361">
        <ele>376</ele>
        <time>2016-04-24T07:50:14Z</time>
      </trkpt>
      <trkpt lat="47.42159" lon="6.67359">
        <ele>376</ele>
        <time>2016-04-24T07:50:15Z</time>
      </trkpt>
      <trkpt lat="47.42154" lon="6.67356">
        <ele>376</ele>
        <time>2016-04-24T07:50:16Z</time>
      </trkpt>
      <trkpt lat="47.4215" lon="6.67354">
        <ele>377</ele>
        <time>2016-04-24T07:50:17Z</time>
      </trkpt>
      <trkpt lat="47.42145" lon="6.67354">
        <ele>377</ele>
        <time>2016-04-24T07:50:18Z</time>
      </trkpt>
      <trkpt lat="47.4214" lon="6.67354">
        <ele>377</ele>
        <time>2016-04-24T07:50:19Z</time>
      </trkpt>
      <trkpt lat="47.42136" lon="6.67354">
        <ele>377</ele>
        <time>2016-04-24T07:50:20Z</time>
      </trkpt>
      <trkpt lat="47.42133" lon="6.67353">
        <ele>377</ele>
        <time>2016-04-24T07:50:21Z</time>
      </trkpt>
      <trkpt lat="47.42129" lon="6.67351">
        <ele>377</ele>
        <time>2016-04-24T07:50:22Z</time>
      </trkpt>
      <trkpt lat="47.42127" lon="6.67349">
        <ele>377</ele>
        <time>2016-04-24T07:50:23Z</time>
      </trkpt>
      <trkpt lat="47.42125" lon="6.67346">
        <ele>377</ele>
        <time>2016-04-24T07:50:24Z</time>
      </trkpt>
      <trkpt lat="47.42124" lon="6.67343">
        <ele>377</ele>
        <time>2016-04-24T07:50:25Z</time>
      </trkpt>
      <trkpt lat="47.42122" lon="6.6734">
        <ele>377</ele>
        <time>2016-04-24T07:50:26Z</time>
      </trkpt>
      <trkpt lat="47.4212" lon="6.67338">
        <ele>377</ele>
        <time>2016-04-24T07:50:27Z</time>
      </trkpt>
      <trkpt lat="47.42119" lon="6.67335">
        <ele>377</ele>
        <time>2016-04-24T07:50:28Z</time>
      </trkpt>
      <trkpt lat="47.42117" lon="6.67333">
        <ele>382</ele>
        <time>2016-04-24T07:50:29Z</time>
      </trkpt>
      <trkpt lat="47.42115" lon="6.67328">
        <ele>383</ele>
        <time>2016-04-24T07:50:31Z</time>
      </trkpt>
      <trkpt lat="47.42114" lon="6.67326">
        <ele>383</ele>
        <time>2016-04-24T07:50:32Z</time>
      </trkpt>
      <trkpt lat="47.42112" lon="6.67322">
        <ele>383</ele>
        <time>2016-04-24T07:50:34Z</time>
      </trkpt>
      <trkpt lat="47.42111" lon="6.6732">
        <ele>383</ele>
        <time>2016-04-24T07:50:35Z</time>
      </trkpt>
      <trkpt lat="47.42108" lon="6.67316">
        <ele>383</ele>
        <time>2016-04-24T07:50:37Z</time>
      </trkpt>
      <trkpt lat="47.42106" lon="6.67314">
        <ele>383</ele>
        <time>2016-04-24T07:50:38Z</time>
      </trkpt>
      <trkpt lat="47.42103" lon="6.6731">
        <ele>383</ele>
        <time>2016-04-24T07:50:40Z</time>
      </trkpt>
      <trkpt lat="47.42103" lon="6.67309">
        <ele>383</ele>
        <time>2016-04-24T07:50:41Z</time>
      </trkpt>
      <trkpt lat="47.421" lon="6.67303">
        <ele>384</ele>
        <time>2016-04-24T07:50:45Z</time>
      </trkpt>
      <trkpt lat="47.421" lon="6.67302">
        <ele>384</ele>
        <time>2016-04-24T07:50:46Z</time>
      </trkpt>
      <trkpt lat="47.42096" lon="6.67299">
        <ele>384</ele>
        <time>2016-04-24T07:50:49Z</time>
      </trkpt>
      <trkpt lat="47.42095" lon="6.67297">
        <ele>384</ele>
        <time>2016-04-24T07:50:50Z</time>
      </trkpt>
      <trkpt lat="47.42091" lon="6.67295">
        <ele>384</ele>
        <time>2016-04-24T07:50:53Z</time>
      </trkpt>
      <trkpt lat="47.42089" lon="6.67294">
        <ele>384</ele>
        <time>2016-04-24T07:50:54Z</time>
      </trkpt>
      <trkpt lat="47.42086" lon="6.67294">
        <ele>384</ele>
        <time>2016-04-24T07:50:55Z</time>
      </trkpt>
      <trkpt lat="47.42084" lon="6.67294">
        <ele>384</ele>
        <time>2016-04-24T07:50:56Z</time>
      </trkpt>
      <trkpt lat="47.4208" lon="6.67292">
        <ele>384</ele>
        <time>2016-04-24T07:50:58Z</time>
      </trkpt>
      <trkpt lat="47.42078" lon="6.6729">
        <ele>384</ele>
        <time>2016-04-24T07:50:59Z</time>
      </trkpt>
      <trkpt lat="47.42077" lon="6.67288">
        <ele>384</ele>
        <time>2016-04-24T07:51:00Z</time>
      </trkpt>
      <trkpt lat="47.42074" lon="6.67287">
        <ele>384</ele>
        <time>2016-04-24T07:51:01Z</time>
      </trkpt>
      <trkpt lat="47.42072" lon="6.67285">
        <ele>385</ele>
        <time>2016-04-24T07:51:02Z</time>
      </trkpt>
      <trkpt lat="47.42069" lon="6.67284">
        <ele>385</ele>
        <time>2016-04-24T07:51:03Z</time>
      </trkpt>
      <trkpt lat="47.42066" lon="6.67284">
        <ele>385</ele>
        <time>2016-04-24T07:51:04Z</time>
      </trkpt>
      <trkpt lat="47.42063" lon="6.67285">
        <ele>385</ele>
        <time>2016-04-24T07:51:05Z</time>
      </trkpt>
      <trkpt lat="47.42059" lon="6.67286">
        <ele>385</ele>
        <time>2016-04-24T07:51:06Z</time>
      </trkpt>
      <trkpt lat="47.42056" lon="6.67287">
        <ele>385</ele>
        <time>2016-04-24T07:51:07Z</time>
      </trkpt>
      <trkpt lat="47.42053" lon="6.67286">
        <ele>385</ele>
        <time>2016-04-24T07:51:08Z</time>
      </trkpt>
      <trkpt lat="47.4205" lon="6.67285">
        <ele>385</ele>
        <time>2016-04-24T07:51:09Z</time>
      </trkpt>
      <trkpt lat="47.42047" lon="6.67283">
        <ele>385</ele>
        <time>2016-04-24T07:51:10Z</time>
      </trkpt>
      <trkpt lat="47.42045" lon="6.67282">
        <ele>385</ele>
        <time>2016-04-24T07:51:11Z</time>
      </trkpt>
      <trkpt lat="47.42043" lon="6.67282">
        <ele>385</ele>
        <time>2016-04-24T07:51:12Z</time>
      </trkpt>
      <trkpt lat="47.4204" lon="6.67281">
        <ele>385</ele>
        <time>2016-04-24T07:51:13Z</time>
      </trkpt>
      <trkpt lat="47.42037" lon="6.67279">
        <ele>385</ele>
        <time>2016-04-24T07:51:14Z</time>
      </trkpt>
      <trkpt lat="47.42034" lon="6.67278">
        <ele>385</ele>
        <time>2016-04-24T07:51:15Z</time>
      </trkpt>
      <trkpt lat="47.42032" lon="6.67275">
        <ele>385</ele>
        <time>2016-04-24T07:51:16Z</time>
      </trkpt>
      <trkpt lat="47.4203" lon="6.67274">
        <ele>385</ele>
        <time>2016-04-24T07:51:17Z</time>
      </trkpt>
      <trkpt lat="47.42027" lon="6.67269">
        <ele>385</ele>
        <time>2016-04-24T07:51:19Z</time>
      </trkpt>
      <trkpt lat="47.42025" lon="6.67267">
        <ele>385</ele>
        <time>2016-04-24T07:51:20Z</time>
      </trkpt>
      <trkpt lat="47.42023" lon="6.67266">
        <ele>385</ele>
        <time>2016-04-24T07:51:21Z</time>
      </trkpt>
      <trkpt lat="47.42021" lon="6.67265">
        <ele>385</ele>
        <time>2016-04-24T07:51:22Z</time>
      </trkpt>
      <trkpt lat="47.42018" lon="6.67264">
        <ele>384</ele>
        <time>2016-04-24T07:51:23Z</time>
      </trkpt>
      <trkpt lat="47.42015" lon="6.67263">
        <ele>384</ele>
        <time>2016-04-24T07:51:24Z</time>
      </trkpt>
      <trkpt lat="47.42013" lon="6.67262">
        <ele>384</ele>
        <time>2016-04-24T07:51:25Z</time>
      </trkpt>
      <trkpt lat="47.42011" lon="6.67262">
        <ele>384</ele>
        <time>2016-04-24T07:51:26Z</time>
      </trkpt>
      <trkpt lat="47.42008" lon="6.67261">
        <ele>384</ele>
        <time>2016-04-24T07:51:27Z</time>
      </trkpt>
      <trkpt lat="47.42006" lon="6.6726">
        <ele>384</ele>
        <time>2016-04-24T07:51:28Z</time>
      </trkpt>
      <trkpt lat="47.42003" lon="6.6726">
        <ele>384</ele>
        <time>2016-04-24T07:51:29Z</time>
      </trkpt>
      <trkpt lat="47.42" lon="6.67259">
        <ele>384</ele>
        <time>2016-04-24T07:51:30Z</time>
      </trkpt>
      <trkpt lat="47.41998" lon="6.67259">
        <ele>385</ele>
        <time>2016-04-24T07:51:31Z</time>
      </trkpt>
      <trkpt lat="47.41995" lon="6.67258">
        <ele>385</ele>
        <time>2016-04-24T07:51:32Z</time>
      </trkpt>
      <trkpt lat="47.41992" lon="6.67258">
        <ele>385</ele>
        <time>2016-04-24T07:51:33Z</time>
      </trkpt>
      <trkpt lat="47.41989" lon="6.67257">
        <ele>385</ele>
        <time>2016-04-24T07:51:34Z</time>
      </trkpt>
      <trkpt lat="47.41986" lon="6.67256">
        <ele>385</ele>
        <time>2016-04-24T07:51:35Z</time>
      </trkpt>
      <trkpt lat="47.41983" lon="6.67255">
        <ele>386</ele>
        <time>2016-04-24T07:51:36Z</time>
      </trkpt>
      <trkpt lat="47.41979" lon="6.67253">
        <ele>386</ele>
        <time>2016-04-24T07:51:37Z</time>
      </trkpt>
      <trkpt lat="47.41975" lon="6.67252">
        <ele>386</ele>
        <time>2016-04-24T07:51:38Z</time>
      </trkpt>
      <trkpt lat="47.41971" lon="6.6725">
        <ele>386</ele>
        <time>2016-04-24T07:51:39Z</time>
      </trkpt>
      <trkpt lat="47.41967" lon="6.6725">
        <ele>388</ele>
        <time>2016-04-24T07:51:40Z</time>
      </trkpt>
      <trkpt lat="47.41964" lon="6.6725">
        <ele>388</ele>
        <time>2016-04-24T07:51:41Z</time>
      </trkpt>
      <trkpt lat="47.4196" lon="6.6725">
        <ele>387</ele>
        <time>2016-04-24T07:51:42Z</time>
      </trkpt>
      <trkpt lat="47.41957" lon="6.67251">
        <ele>387</ele>
        <time>2016-04-24T07:51:43Z</time>
      </trkpt>
      <trkpt lat="47.41954" lon="6.67252">
        <ele>387</ele>
        <time>2016-04-24T07:51:44Z</time>
      </trkpt>
      <trkpt lat="47.41951" lon="6.67253">
        <ele>387</ele>
        <time>2016-04-24T07:51:45Z</time>
      </trkpt>
      <trkpt lat="47.41948" lon="6.67254">
        <ele>387</ele>
        <time>2016-04-24T07:51:46Z</time>
      </trkpt>
      <trkpt lat="47.41945" lon="6.67256">
        <ele>387</ele>
        <time>2016-04-24T07:51:47Z</time>
      </trkpt>
      <trkpt lat="47.41942" lon="6.67257">
        <ele>387</ele>
        <time>2016-04-24T07:51:48Z</time>
      </trkpt>
      <trkpt lat="47.4194" lon="6.67258">
        <ele>387</ele>
        <time>2016-04-24T07:51:49Z</time>
      </trkpt>
      <trkpt lat="47.41937" lon="6.67259">
        <ele>387</ele>
        <time>2016-04-24T07:51:50Z</time>
      </trkpt>
      <trkpt lat="47.41934" lon="6.67259">
        <ele>387</ele>
        <time>2016-04-24T07:51:52Z</time>
      </trkpt>
      <trkpt lat="47.41933" lon="6.67259">
        <ele>387</ele>
        <time>2016-04-24T07:51:53Z</time>
      </trkpt>
      <trkpt lat="47.4193" lon="6.67257">
        <ele>387</ele>
        <time>2016-04-24T07:51:56Z</time>
      </trkpt>
      <trkpt lat="47.41928" lon="6.67256">
        <ele>387</ele>
        <time>2016-04-24T07:51:57Z</time>
      </trkpt>
      <trkpt lat="47.41925" lon="6.67254">
        <ele>386</ele>
        <time>2016-04-24T07:51:59Z</time>
      </trkpt>
      <trkpt lat="47.41923" lon="6.67253">
        <ele>386</ele>
        <time>2016-04-24T07:52:00Z</time>
      </trkpt>
      <trkpt lat="47.4192" lon="6.67252">
        <ele>386</ele>
        <time>2016-04-24T07:52:01Z</time>
      </trkpt>
      <trkpt lat="47.41917" lon="6.67251">
        <ele>385</ele>
        <time>2016-04-24T07:52:02Z</time>
      </trkpt>
      <trkpt lat="47.41915" lon="6.6725">
        <ele>385</ele>
        <time>2016-04-24T07:52:03Z</time>
      </trkpt>
      <trkpt lat="47.41913" lon="6.6725">
        <ele>386</ele>
        <time>2016-04-24T07:52:04Z</time>
      </trkpt>
      <trkpt lat="47.4191" lon="6.67249">
        <ele>387</ele>
        <time>2016-04-24T07:52:05Z</time>
      </trkpt>
      <trkpt lat="47.41908" lon="6.67248">
        <ele>387</ele>
        <time>2016-04-24T07:52:06Z</time>
      </trkpt>
      <trkpt lat="47.41905" lon="6.67247">
        <ele>388</ele>
        <time>2016-04-24T07:52:07Z</time>
      </trkpt>
      <trkpt lat="47.41903" lon="6.67246">
        <ele>388</ele>
        <time>2016-04-24T07:52:08Z</time>
      </trkpt>
      <trkpt lat="47.419" lon="6.67246">
        <ele>389</ele>
        <time>2016-04-24T07:52:09Z</time>
      </trkpt>
      <trkpt lat="47.41898" lon="6.67246">
        <ele>389</ele>
        <time>2016-04-24T07:52:10Z</time>
      </trkpt>
      <trkpt lat="47.41895" lon="6.67246">
        <ele>389</ele>
        <time>2016-04-24T07:52:11Z</time>
      </trkpt>
      <trkpt lat="47.41892" lon="6.67246">
        <ele>389</ele>
        <time>2016-04-24T07:52:12Z</time>
      </trkpt>
      <trkpt lat="47.4189" lon="6.67246">
        <ele>390</ele>
        <time>2016-04-24T07:52:13Z</time>
      </trkpt>
      <trkpt lat="47.41887" lon="6.67247">
        <ele>390</ele>
        <time>2016-04-24T07:52:14Z</time>
      </trkpt>
      <trkpt lat="47.41885" lon="6.67247">
        <ele>390</ele>
        <time>2016-04-24T07:52:15Z</time>
      </trkpt>
      <trkpt lat="47.41882" lon="6.67247">
        <ele>390</ele>
        <time>2016-04-24T07:52:16Z</time>
      </trkpt>
      <trkpt lat="47.4188" lon="6.67246">
        <ele>390</ele>
        <time>2016-04-24T07:52:17Z</time>
      </trkpt>
      <trkpt lat="47.41878" lon="6.67246">
        <ele>390</ele>
        <time>2016-04-24T07:52:18Z</time>
      </trkpt>
      <trkpt lat="47.41874" lon="6.67246">
        <ele>390</ele>
        <time>2016-04-24T07:52:20Z</time>
      </trkpt>
      <trkpt lat="47.4187" lon="6.67246">
        <ele>390</ele>
        <time>2016-04-24T07:52:21Z</time>
      </trkpt>
      <trkpt lat="47.41867" lon="6.6725">
        <ele>390</ele>
        <time>2016-04-24T07:52:23Z</time>
      </trkpt>
      <trkpt lat="47.41866" lon="6.67252">
        <ele>390</ele>
        <time>2016-04-24T07:52:24Z</time>
      </trkpt>
      <trkpt lat="47.41862" lon="6.67253">
        <ele>390</ele>
        <time>2016-04-24T07:52:27Z</time>
      </trkpt>
      <trkpt lat="47.41861" lon="6.67254">
        <ele>390</ele>
        <time>2016-04-24T07:52:28Z</time>
      </trkpt>
      <trkpt lat="47.41859" lon="6.67257">
        <ele>390</ele>
        <time>2016-04-24T07:52:30Z</time>
      </trkpt>
      <trkpt lat="47.41857" lon="6.67258">
        <ele>390</ele>
        <time>2016-04-24T07:52:31Z</time>
      </trkpt>
      <trkpt lat="47.41853" lon="6.6726">
        <ele>390</ele>
        <time>2016-04-24T07:52:33Z</time>
      </trkpt>
      <trkpt lat="47.4185" lon="6.67261">
        <ele>390</ele>
        <time>2016-04-24T07:52:34Z</time>
      </trkpt>
      <trkpt lat="47.41847" lon="6.67262">
        <ele>390</ele>
        <time>2016-04-24T07:52:35Z</time>
      </trkpt>
      <trkpt lat="47.41845" lon="6.67262">
        <ele>390</ele>
        <time>2016-04-24T07:52:36Z</time>
      </trkpt>
      <trkpt lat="47.41842" lon="6.67263">
        <ele>390</ele>
        <time>2016-04-24T07:52:37Z</time>
      </trkpt>
      <trkpt lat="47.41839" lon="6.67264">
        <ele>390</ele>
        <time>2016-04-24T07:52:38Z</time>
      </trkpt>
      <trkpt lat="47.41837" lon="6.67264">
        <ele>390</ele>
        <time>2016-04-24T07:52:39Z</time>
      </trkpt>
      <trkpt lat="47.41834" lon="6.67265">
        <ele>390</ele>
        <time>2016-04-24T07:52:40Z</time>
      </trkpt>
      <trkpt lat="47.41831" lon="6.67267">
        <ele>391</ele>
        <time>2016-04-24T07:52:41Z</time>
      </trkpt>
      <trkpt lat="47.41828" lon="6.67268">
        <ele>391</ele>
        <time>2016-04-24T07:52:42Z</time>
      </trkpt>
      <trkpt lat="47.41825" lon="6.6727">
        <ele>392</ele>
        <time>2016-04-24T07:52:43Z</time>
      </trkpt>
      <trkpt lat="47.41822" lon="6.67272">
        <ele>392</ele>
        <time>2016-04-24T07:52:44Z</time>
      </trkpt>
      <trkpt lat="47.41818" lon="6.67274">
        <ele>392</ele>
        <time>2016-04-24T07:52:45Z</time>
      </trkpt>
      <trkpt lat="47.41815" lon="6.67275">
        <ele>393</ele>
        <time>2016-04-24T07:52:46Z</time>
      </trkpt>
      <trkpt lat="47.41812" lon="6.67276">
        <ele>393</ele>
        <time>2016-04-24T07:52:47Z</time>
      </trkpt>
      <trkpt lat="47.41809" lon="6.67277">
        <ele>393</ele>
        <time>2016-04-24T07:52:48Z</time>
      </trkpt>
      <trkpt lat="47.41806" lon="6.67278">
        <ele>393</ele>
        <time>2016-04-24T07:52:49Z</time>
      </trkpt>
      <trkpt lat="47.41803" lon="6.67278">
        <ele>393</ele>
        <time>2016-04-24T07:52:50Z</time>
      </trkpt>
      <trkpt lat="47.418" lon="6.67279">
        <ele>393</ele>
        <time>2016-04-24T07:52:51Z</time>
      </trkpt>
      <trkpt lat="47.41798" lon="6.67279">
        <ele>393</ele>
        <time>2016-04-24T07:52:52Z</time>
      </trkpt>
      <trkpt lat="47.41795" lon="6.67279">
        <ele>393</ele>
        <time>2016-04-24T07:52:53Z</time>
      </trkpt>
      <trkpt lat="47.41793" lon="6.67279">
        <ele>393</ele>
        <time>2016-04-24T07:52:54Z</time>
      </trkpt>
      <trkpt lat="47.4179" lon="6.67278">
        <ele>393</ele>
        <time>2016-04-24T07:52:55Z</time>
      </trkpt>
      <trkpt lat="47.41787" lon="6.67278">
        <ele>393</ele>
        <time>2016-04-24T07:52:56Z</time>
      </trkpt>
      <trkpt lat="47.41785" lon="6.67278">
        <ele>393</ele>
        <time>2016-04-24T07:52:57Z</time>
      </trkpt>
      <trkpt lat="47.41783" lon="6.6728">
        <ele>393</ele>
        <time>2016-04-24T07:52:58Z</time>
      </trkpt>
      <trkpt lat="47.4178" lon="6.67281">
        <ele>394</ele>
        <time>2016-04-24T07:53:00Z</time>
      </trkpt>
      <trkpt lat="47.41778" lon="6.67281">
        <ele>394</ele>
        <time>2016-04-24T07:53:01Z</time>
      </trkpt>
      <trkpt lat="47.41774" lon="6.67281">
        <ele>393</ele>
        <time>2016-04-24T07:53:03Z</time>
      </trkpt>
      <trkpt lat="47.41772" lon="6.6728">
        <ele>393</ele>
        <time>2016-04-24T07:53:04Z</time>
      </trkpt>
      <trkpt lat="47.41769" lon="6.6728">
        <ele>393</ele>
        <time>2016-04-24T07:53:05Z</time>
      </trkpt>
      <trkpt lat="47.41766" lon="6.67281">
        <ele>393</ele>
        <time>2016-04-24T07:53:06Z</time>
      </trkpt>
      <trkpt lat="47.41764" lon="6.67281">
        <ele>393</ele>
        <time>2016-04-24T07:53:07Z</time>
      </trkpt>
      <trkpt lat="47.41761" lon="6.67281">
        <ele>393</ele>
        <time>2016-04-24T07:53:08Z</time>
      </trkpt>
      <trkpt lat="47.41756" lon="6.67282">
        <ele>394</ele>
        <time>2016-04-24T07:53:10Z</time>
      </trkpt>
      <trkpt lat="47.41754" lon="6.67283">
        <ele>394</ele>
        <time>2016-04-24T07:53:11Z</time>
      </trkpt>
      <trkpt lat="47.4175" lon="6.67284">
        <ele>395</ele>
        <time>2016-04-24T07:53:13Z</time>
      </trkpt>
      <trkpt lat="47.41748" lon="6.67285">
        <ele>395</ele>
        <time>2016-04-24T07:53:14Z</time>
      </trkpt>
      <trkpt lat="47.41744" lon="6.67286">
        <ele>396</ele>
        <time>2016-04-24T07:53:17Z</time>
      </trkpt>
      <trkpt lat="47.41742" lon="6.67287">
        <ele>396</ele>
        <time>2016-04-24T07:53:18Z</time>
      </trkpt>
      <trkpt lat="47.4174" lon="6.67289">
        <ele>396</ele>
        <time>2016-04-24T07:53:19Z</time>
      </trkpt>
      <trkpt lat="47.41738" lon="6.6729">
        <ele>396</ele>
        <time>2016-04-24T07:53:20Z</time>
      </trkpt>
      <trkpt lat="47.41734" lon="6.67291">
        <ele>396</ele>
        <time>2016-04-24T07:53:21Z</time>
      </trkpt>
      <trkpt lat="47.41731" lon="6.67293">
        <ele>396</ele>
        <time>2016-04-24T07:53:22Z</time>
      </trkpt>
      <trkpt lat="47.41728" lon="6.67294">
        <ele>396</ele>
        <time>2016-04-24T07:53:23Z</time>
      </trkpt>
      <trkpt lat="47.41725" lon="6.67295">
        <ele>396</ele>
        <time>2016-04-24T07:53:24Z</time>
      </trkpt>
      <trkpt lat="47.41722" lon="6.67296">
        <ele>397</ele>
        <time>2016-04-24T07:53:25Z</time>
      </trkpt>
      <trkpt lat="47.41719" lon="6.67296">
        <ele>397</ele>
        <time>2016-04-24T07:53:26Z</time>
      </trkpt>
      <trkpt lat="47.41717" lon="6.67296">
        <ele>397</ele>
        <time>2016-04-24T07:53:27Z</time>
      </trkpt>
      <trkpt lat="47.41714" lon="6.67297">
        <ele>397</ele>
        <time>2016-04-24T07:53:28Z</time>
      </trkpt>
      <trkpt lat="47.41712" lon="6.67297">
        <ele>397</ele>
        <time>2016-04-24T07:53:29Z</time>
      </trkpt>
      <trkpt lat="47.41709" lon="6.67297">
        <ele>397</ele>
        <time>2016-04-24T07:53:30Z</time>
      </trkpt>
      <trkpt lat="47.41705" lon="6.67299">
        <ele>397</ele>
        <time>2016-04-24T07:53:32Z</time>
      </trkpt>
      <trkpt lat="47.41703" lon="6.67299">
        <ele>397</ele>
        <time>2016-04-24T07:53:33Z</time>
      </trkpt>
      <trkpt lat="47.41699" lon="6.673">
        <ele>397</ele>
        <time>2016-04-24T07:53:35Z</time>
      </trkpt>
      <trkpt lat="47.41697" lon="6.67301">
        <ele>397</ele>
        <time>2016-04-24T07:53:36Z</time>
      </trkpt>
      <trkpt lat="47.41695" lon="6.67301">
        <ele>397</ele>
        <time>2016-04-24T07:53:37Z</time>
      </trkpt>
      <trkpt lat="47.41692" lon="6.67301">
        <ele>397</ele>
        <time>2016-04-24T07:53:38Z</time>
      </trkpt>
      <trkpt lat="47.41688" lon="6.67301">
        <ele>398</ele>
        <time>2016-04-24T07:53:40Z</time>
      </trkpt>
      <trkpt lat="47.41686" lon="6.67301">
        <ele>398</ele>
        <time>2016-04-24T07:53:41Z</time>
      </trkpt>
      <trkpt lat="47.41683" lon="6.67302">
        <ele>398</ele>
        <time>2016-04-24T07:53:43Z</time>
      </trkpt>
      <trkpt lat="47.41681" lon="6.67303">
        <ele>398</ele>
        <time>2016-04-24T07:53:44Z</time>
      </trkpt>
      <trkpt lat="47.41677" lon="6.67304">
        <ele>398</ele>
        <time>2016-04-24T07:53:46Z</time>
      </trkpt>
      <trkpt lat="47.41676" lon="6.67304">
        <ele>398</ele>
        <time>2016-04-24T07:53:47Z</time>
      </trkpt>
      <trkpt lat="47.41673" lon="6.67305">
        <ele>398</ele>
        <time>2016-04-24T07:53:49Z</time>
      </trkpt>
      <trkpt lat="47.4167" lon="6.67305">
        <ele>398</ele>
        <time>2016-04-24T07:53:50Z</time>
      </trkpt>
      <trkpt lat="47.41668" lon="6.67305">
        <ele>398</ele>
        <time>2016-04-24T07:53:51Z</time>
      </trkpt>
      <trkpt lat="47.41665" lon="6.67305">
        <ele>400</ele>
        <time>2016-04-24T07:53:52Z</time>
      </trkpt>
      <trkpt lat="47.41661" lon="6.67307">
        <ele>400</ele>
        <time>2016-04-24T07:53:54Z</time>
      </trkpt>
      <trkpt lat="47.41659" lon="6.67308">
        <ele>400</ele>
        <time>2016-04-24T07:53:55Z</time>
      </trkpt>
      <trkpt lat="47.41655" lon="6.67309">
        <ele>400</ele>
        <time>2016-04-24T07:53:57Z</time>
      </trkpt>
      <trkpt lat="47.41652" lon="6.67309">
        <ele>400</ele>
        <time>2016-04-24T07:53:58Z</time>
      </trkpt>
      <trkpt lat="47.4165" lon="6.6731">
        <ele>400</ele>
        <time>2016-04-24T07:53:59Z</time>
      </trkpt>
      <trkpt lat="47.41647" lon="6.6731">
        <ele>400</ele>
        <time>2016-04-24T07:54:00Z</time>
      </trkpt>
      <trkpt lat="47.41644" lon="6.6731">
        <ele>400</ele>
        <time>2016-04-24T07:54:01Z</time>
      </trkpt>
      <trkpt lat="47.41642" lon="6.67311">
        <ele>400</ele>
        <time>2016-04-24T07:54:02Z</time>
      </trkpt>
      <trkpt lat="47.41639" lon="6.67311">
        <ele>400</ele>
        <time>2016-04-24T07:54:03Z</time>
      </trkpt>
      <trkpt lat="47.41636" lon="6.67311">
        <ele>400</ele>
        <time>2016-04-24T07:54:04Z</time>
      </trkpt>
      <trkpt lat="47.41633" lon="6.67312">
        <ele>400</ele>
        <time>2016-04-24T07:54:05Z</time>
      </trkpt>
      <trkpt lat="47.4163" lon="6.67312">
        <ele>400</ele>
        <time>2016-04-24T07:54:06Z</time>
      </trkpt>
      <trkpt lat="47.41626" lon="6.67312">
        <ele>400</ele>
        <time>2016-04-24T07:54:08Z</time>
      </trkpt>
      <trkpt lat="47.41625" lon="6.67312">
        <ele>400</ele>
        <time>2016-04-24T07:54:09Z</time>
      </trkpt>
      <trkpt lat="47.4162" lon="6.67311">
        <ele>400</ele>
        <time>2016-04-24T07:54:11Z</time>
      </trkpt>
      <trkpt lat="47.41618" lon="6.6731">
        <ele>400</ele>
        <time>2016-04-24T07:54:12Z</time>
      </trkpt>
      <trkpt lat="47.41616" lon="6.6731">
        <ele>400</ele>
        <time>2016-04-24T07:54:13Z</time>
      </trkpt>
      <trkpt lat="47.41613" lon="6.6731">
        <ele>400</ele>
        <time>2016-04-24T07:54:14Z</time>
      </trkpt>
      <trkpt lat="47.41609" lon="6.67312">
        <ele>400</ele>
        <time>2016-04-24T07:54:16Z</time>
      </trkpt>
      <trkpt lat="47.41608" lon="6.67312">
        <ele>400</ele>
        <time>2016-04-24T07:54:17Z</time>
      </trkpt>
      <trkpt lat="47.41604" lon="6.67312">
        <ele>400</ele>
        <time>2016-04-24T07:54:20Z</time>
      </trkpt>
      <trkpt lat="47.41601" lon="6.67313">
        <ele>400</ele>
        <time>2016-04-24T07:54:21Z</time>
      </trkpt>
      <trkpt lat="47.41598" lon="6.67313">
        <ele>400</ele>
        <time>2016-04-24T07:54:22Z</time>
      </trkpt>
      <trkpt lat="47.41594" lon="6.67314">
        <ele>400</ele>
        <time>2016-04-24T07:54:23Z</time>
      </trkpt>
      <trkpt lat="47.41591" lon="6.67315">
        <ele>400</ele>
        <time>2016-04-24T07:54:24Z</time>
      </trkpt>
      <trkpt lat="47.41588" lon="6.67316">
        <ele>400</ele>
        <time>2016-04-24T07:54:25Z</time>
      </trkpt>
      <trkpt lat="47.41585" lon="6.67316">
        <ele>400</ele>
        <time>2016-04-24T07:54:26Z</time>
      </trkpt>
      <trkpt lat="47.41582" lon="6.67317">
        <ele>401</ele>
        <time>2016-04-24T07:54:27Z</time>
      </trkpt>
      <trkpt lat="47.41578" lon="6.67317">
        <ele>401</ele>
        <time>2016-04-24T07:54:29Z</time>
      </trkpt>
      <trkpt lat="47.41576" lon="6.67318">
        <ele>401</ele>
        <time>2016-04-24T07:54:30Z</time>
      </trkpt>
      <trkpt lat="47.41572" lon="6.67318">
        <ele>401</ele>
        <time>2016-04-24T07:54:32Z</time>
      </trkpt>
      <trkpt lat="47.4157" lon="6.67318">
        <ele>401</ele>
        <time>2016-04-24T07:54:33Z</time>
      </trkpt>
      <trkpt lat="47.41567" lon="6.67319">
        <ele>401</ele>
        <time>2016-04-24T07:54:34Z</time>
      </trkpt>
      <trkpt lat="47.41564" lon="6.6732">
        <ele>401</ele>
        <time>2016-04-24T07:54:35Z</time>
      </trkpt>
      <trkpt lat="47.4156" lon="6.6732">
        <ele>402</ele>
        <time>2016-04-24T07:54:41Z</time>
      </trkpt>
      <trkpt lat="47.41559" lon="6.6732">
        <ele>402</ele>
        <time>2016-04-24T07:54:42Z</time>
      </trkpt>
      <trkpt lat="47.41556" lon="6.67318">
        <ele>402</ele>
        <time>2016-04-24T07:54:46Z</time>
      </trkpt>
      <trkpt lat="47.41554" lon="6.67317">
        <ele>402</ele>
        <time>2016-04-24T07:54:47Z</time>
      </trkpt>
      <trkpt lat="47.41552" lon="6.67315">
        <ele>402</ele>
        <time>2016-04-24T07:54:49Z</time>
      </trkpt>
      <trkpt lat="47.41549" lon="6.67314">
        <ele>402</ele>
        <time>2016-04-24T07:54:50Z</time>
      </trkpt>
      <trkpt lat="47.41546" lon="6.67314">
        <ele>402</ele>
        <time>2016-04-24T07:54:51Z</time>
      </trkpt>
      <trkpt lat="47.41543" lon="6.67314">
        <ele>402</ele>
        <time>2016-04-24T07:54:52Z</time>
      </trkpt>
      <trkpt lat="47.4154" lon="6.67314">
        <ele>402</ele>
        <time>2016-04-24T07:54:53Z</time>
      </trkpt>
      <trkpt lat="47.41537" lon="6.67314">
        <ele>402</ele>
        <time>2016-04-24T07:54:54Z</time>
      </trkpt>
      <trkpt lat="47.41535" lon="6.67314">
        <ele>402</ele>
        <time>2016-04-24T07:54:55Z</time>
      </trkpt>
      <trkpt lat="47.41532" lon="6.67314">
        <ele>402</ele>
        <time>2016-04-24T07:54:56Z</time>
      </trkpt>
      <trkpt lat="47.41529" lon="6.67314">
        <ele>402</ele>
        <time>2016-04-24T07:54:57Z</time>
      </trkpt>
      <trkpt lat="47.41526" lon="6.67314">
        <ele>402</ele>
        <time>2016-04-24T07:54:58Z</time>
      </trkpt>
      <trkpt lat="47.41523" lon="6.67313">
        <ele>402</ele>
        <time>2016-04-24T07:54:59Z</time>
      </trkpt>
      <trkpt lat="47.41519" lon="6.67313">
        <ele>402</ele>
        <time>2016-04-24T07:55:00Z</time>
      </trkpt>
      <trkpt lat="47.41516" lon="6.67312">
        <ele>402</ele>
        <time>2016-04-24T07:55:01Z</time>
      </trkpt>
      <trkpt lat="47.41511" lon="6.67312">
        <ele>402</ele>
        <time>2016-04-24T07:55:02Z</time>
      </trkpt>
      <trkpt lat="47.41507" lon="6.67311">
        <ele>402</ele>
        <time>2016-04-24T07:55:03Z</time>
      </trkpt>
      <trkpt lat="47.41503" lon="6.67311">
        <ele>402</ele>
        <time>2016-04-24T07:55:04Z</time>
      </trkpt>
      <trkpt lat="47.41499" lon="6.6731">
        <ele>404</ele>
        <time>2016-04-24T07:55:05Z</time>
      </trkpt>
      <trkpt lat="47.41495" lon="6.6731">
        <ele>404</ele>
        <time>2016-04-24T07:55:06Z</time>
      </trkpt>
      <trkpt lat="47.41491" lon="6.67309">
        <ele>405</ele>
        <time>2016-04-24T07:55:07Z</time>
      </trkpt>
      <trkpt lat="47.41488" lon="6.67309">
        <ele>405</ele>
        <time>2016-04-24T07:55:08Z</time>
      </trkpt>
      <trkpt lat="47.41485" lon="6.67308">
        <ele>405</ele>
        <time>2016-04-24T07:55:09Z</time>
      </trkpt>
      <trkpt lat="47.41483" lon="6.67308">
        <ele>405</ele>
        <time>2016-04-24T07:55:10Z</time>
      </trkpt>
      <trkpt lat="47.4148" lon="6.67307">
        <ele>405</ele>
        <time>2016-04-24T07:55:11Z</time>
      </trkpt>
      <trkpt lat="47.41477" lon="6.67307">
        <ele>405</ele>
        <time>2016-04-24T07:55:12Z</time>
      </trkpt>
      <trkpt lat="47.41473" lon="6.67307">
        <ele>406</ele>
        <time>2016-04-24T07:55:13Z</time>
      </trkpt>
      <trkpt lat="47.41469" lon="6.67307">
        <ele>406</ele>
        <time>2016-04-24T07:55:14Z</time>
      </trkpt>
      <trkpt lat="47.41467" lon="6.67306">
        <ele>406</ele>
        <time>2016-04-24T07:55:15Z</time>
      </trkpt>
      <trkpt lat="47.41465" lon="6.67305">
        <ele>406</ele>
        <time>2016-04-24T07:55:16Z</time>
      </trkpt>
      <trkpt lat="47.41462" lon="6.67303">
        <ele>406</ele>
        <time>2016-04-24T07:55:18Z</time>
      </trkpt>
      <trkpt lat="47.4146" lon="6.67303">
        <ele>406</ele>
        <time>2016-04-24T07:55:19Z</time>
      </trkpt>
      <trkpt lat="47.41457" lon="6.67302">
        <ele>406</ele>
        <time>2016-04-24T07:55:21Z</time>
      </trkpt>
      <trkpt lat="47.41455" lon="6.67302">
        <ele>406</ele>
        <time>2016-04-24T07:55:22Z</time>
      </trkpt>
      <trkpt lat="47.4145" lon="6.67301">
        <ele>407</ele>
        <time>2016-04-24T07:55:24Z</time>
      </trkpt>
      <trkpt lat="47.41448" lon="6.673">
        <ele>407</ele>
        <time>2016-04-24T07:55:25Z</time>
      </trkpt>
      <trkpt lat="47.41446" lon="6.673">
        <ele>407</ele>
        <time>2016-04-24T07:55:26Z</time>
      </trkpt>
      <trkpt lat="47.41443" lon="6.673">
        <ele>407</ele>
        <time>2016-04-24T07:55:27Z</time>
      </trkpt>
      <trkpt lat="47.41436" lon="6.67301">
        <ele>407</ele>
        <time>2016-04-24T07:55:28Z</time>
      </trkpt>
      <trkpt lat="47.41432" lon="6.67301">
        <ele>407</ele>
        <time>2016-04-24T07:55:29Z</time>
      </trkpt>
      <trkpt lat="47.4143" lon="6.67301">
        <ele>407</ele>
        <time>2016-04-24T07:55:30Z</time>
      </trkpt>
      <trkpt lat="47.41426" lon="6.67301">
        <ele>407</ele>
        <time>2016-04-24T07:55:31Z</time>
      </trkpt>
      <trkpt lat="47.41424" lon="6.67301">
        <ele>407</ele>
        <time>2016-04-24T07:55:32Z</time>
      </trkpt>
      <trkpt lat="47.41421" lon="6.67301">
        <ele>407</ele>
        <time>2016-04-24T07:55:33Z</time>
      </trkpt>
      <trkpt lat="47.41419" lon="6.67301">
        <ele>407</ele>
        <time>2016-04-24T07:55:34Z</time>
      </trkpt>
      <trkpt lat="47.41415" lon="6.673">
        <ele>411</ele>
        <time>2016-04-24T07:55:38Z</time>
      </trkpt>
      <trkpt lat="47.41413" lon="6.673">
        <ele>411</ele>
        <time>2016-04-24T07:55:39Z</time>
      </trkpt>
      <trkpt lat="47.41411" lon="6.673">
        <ele>411</ele>
        <time>2016-04-24T07:55:40Z</time>
      </trkpt>
      <trkpt lat="47.41408" lon="6.673">
        <ele>411</ele>
        <time>2016-04-24T07:55:41Z</time>
      </trkpt>
      <trkpt lat="47.41406" lon="6.673">
        <ele>411</ele>
        <time>2016-04-24T07:55:42Z</time>
      </trkpt>
      <trkpt lat="47.41403" lon="6.673">
        <ele>411</ele>
        <time>2016-04-24T07:55:43Z</time>
      </trkpt>
      <trkpt lat="47.414" lon="6.67299">
        <ele>411</ele>
        <time>2016-04-24T07:55:44Z</time>
      </trkpt>
      <trkpt lat="47.41397" lon="6.67298">
        <ele>412</ele>
        <time>2016-04-24T07:55:45Z</time>
      </trkpt>
      <trkpt lat="47.41395" lon="6.67298">
        <ele>412</ele>
        <time>2016-04-24T07:55:46Z</time>
      </trkpt>
      <trkpt lat="47.41392" lon="6.67297">
        <ele>412</ele>
        <time>2016-04-24T07:55:47Z</time>
      </trkpt>
      <trkpt lat="47.41389" lon="6.67296">
        <ele>412</ele>
        <time>2016-04-24T07:55:48Z</time>
      </trkpt>
      <trkpt lat="47.41386" lon="6.67296">
        <ele>412</ele>
        <time>2016-04-24T07:55:49Z</time>
      </trkpt>
      <trkpt lat="47.41383" lon="6.67296">
        <ele>412</ele>
        <time>2016-04-24T07:55:50Z</time>
      </trkpt>
      <trkpt lat="47.41381" lon="6.67296">
        <ele>412</ele>
        <time>2016-04-24T07:55:51Z</time>
      </trkpt>
      <trkpt lat="47.41378" lon="6.67297">
        <ele>412</ele>
        <time>2016-04-24T07:55:52Z</time>
      </trkpt>
      <trkpt lat="47.41376" lon="6.67298">
        <ele>413</ele>
        <time>2016-04-24T07:55:53Z</time>
      </trkpt>
      <trkpt lat="47.41372" lon="6.67299">
        <ele>413</ele>
        <time>2016-04-24T07:55:55Z</time>
      </trkpt>
      <trkpt lat="47.41371" lon="6.67299">
        <ele>413</ele>
        <time>2016-04-24T07:55:56Z</time>
      </trkpt>
      <trkpt lat="47.41366" lon="6.67299">
        <ele>413</ele>
        <time>2016-04-24T07:55:59Z</time>
      </trkpt>
      <trkpt lat="47.41365" lon="6.67299">
        <ele>413</ele>
        <time>2016-04-24T07:56:00Z</time>
      </trkpt>
      <trkpt lat="47.41368" lon="6.673">
        <ele>413</ele>
        <time>2016-04-24T07:56:13Z</time>
      </trkpt>
      <trkpt lat="47.4137" lon="6.67301">
        <ele>413</ele>
        <time>2016-04-24T07:56:14Z</time>
      </trkpt>
      <trkpt lat="47.41373" lon="6.67305">
        <ele>413</ele>
        <time>2016-04-24T07:56:18Z</time>
      </trkpt>
      <trkpt lat="47.41374" lon="6.67306">
        <ele>413</ele>
        <time>2016-04-24T07:56:19Z</time>
      </trkpt>
      <trkpt lat="47.41377" lon="6.67309">
        <ele>413</ele>
        <time>2016-04-24T07:56:21Z</time>
      </trkpt>
      <trkpt lat="47.41379" lon="6.67311">
        <ele>412</ele>
        <time>2016-04-24T07:56:22Z</time>
      </trkpt>
      <trkpt lat="47.41381" lon="6.67315">
        <ele>412</ele>
        <time>2016-04-24T07:56:25Z</time>
      </trkpt>
      <trkpt lat="47.41383" lon="6.67317">
        <ele>412</ele>
        <time>2016-04-24T07:56:26Z</time>
      </trkpt>
      <trkpt lat="47.41386" lon="6.67319">
        <ele>412</ele>
        <time>2016-04-24T07:56:28Z</time>
      </trkpt>
      <trkpt lat="47.41387" lon="6.6732">
        <ele>412</ele>
        <time>2016-04-24T07:56:29Z</time>
      </trkpt>
      <trkpt lat="47.4139" lon="6.67322">
        <ele>412</ele>
        <time>2016-04-24T07:56:31Z</time>
      </trkpt>
      <trkpt lat="47.41391" lon="6.67324">
        <ele>412</ele>
        <time>2016-04-24T07:56:32Z</time>
      </trkpt>
      <trkpt lat="47.41389" lon="6.6733">
        <ele>412</ele>
        <time>2016-04-24T07:56:35Z</time>
      </trkpt>
      <trkpt lat="47.41389" lon="6.67332">
        <ele>412</ele>
        <time>2016-04-24T07:56:36Z</time>
      </trkpt>
      <trkpt lat="47.41392" lon="6.67335">
        <ele>414</ele>
        <time>2016-04-24T07:56:38Z</time>
      </trkpt>
      <trkpt lat="47.41393" lon="6.67337">
        <ele>414</ele>
        <time>2016-04-24T07:56:39Z</time>
      </trkpt>
      <trkpt lat="47.41396" lon="6.67339">
        <ele>414</ele>
        <time>2016-04-24T07:56:41Z</time>
      </trkpt>
      <trkpt lat="47.41398" lon="6.6734">
        <ele>414</ele>
        <time>2016-04-24T07:56:42Z</time>
      </trkpt>
      <trkpt lat="47.414" lon="6.67341">
        <ele>413</ele>
        <time>2016-04-24T07:56:43Z</time>
      </trkpt>
      <trkpt lat="47.41403" lon="6.67341">
        <ele>413</ele>
        <time>2016-04-24T07:56:44Z</time>
      </trkpt>
      <trkpt lat="47.41407" lon="6.67341">
        <ele>412</ele>
        <time>2016-04-24T07:56:46Z</time>
      </trkpt>
      <trkpt lat="47.41409" lon="6.67342">
        <ele>412</ele>
        <time>2016-04-24T07:56:47Z</time>
      </trkpt>
      <trkpt lat="47.41411" lon="6.67342">
        <ele>411</ele>
        <time>2016-04-24T07:56:48Z</time>
      </trkpt>
      <trkpt lat="47.41414" lon="6.67343">
        <ele>411</ele>
        <time>2016-04-24T07:56:49Z</time>
      </trkpt>
      <trkpt lat="47.41416" lon="6.67343">
        <ele>411</ele>
        <time>2016-04-24T07:56:50Z</time>
      </trkpt>
      <trkpt lat="47.41419" lon="6.67343">
        <ele>408</ele>
        <time>2016-04-24T07:56:51Z</time>
      </trkpt>
      <trkpt lat="47.41422" lon="6.67344">
        <ele>408</ele>
        <time>2016-04-24T07:56:52Z</time>
      </trkpt>
      <trkpt lat="47.41425" lon="6.67345">
        <ele>408</ele>
        <time>2016-04-24T07:56:53Z</time>
      </trkpt>
      <trkpt lat="47.41428" lon="6.67346">
        <ele>408</ele>
        <time>2016-04-24T07:56:54Z</time>
      </trkpt>
      <trkpt lat="47.4143" lon="6.67346">
        <ele>408</ele>
        <time>2016-04-24T07:56:55Z</time>
      </trkpt>
      <trkpt lat="47.41434" lon="6.67348">
        <ele>408</ele>
        <time>2016-04-24T07:56:57Z</time>
      </trkpt>
      <trkpt lat="47.41435" lon="6.67349">
        <ele>408</ele>
        <time>2016-04-24T07:56:58Z</time>
      </trkpt>
      <trkpt lat="47.41437" lon="6.67351">
        <ele>408</ele>
        <time>2016-04-24T07:56:59Z</time>
      </trkpt>
      <trkpt lat="47.41439" lon="6.67354">
        <ele>408</ele>
        <time>2016-04-24T07:57:00Z</time>
      </trkpt>
      <trkpt lat="47.4144" lon="6.67357">
        <ele>408</ele>
        <time>2016-04-24T07:57:01Z</time>
      </trkpt>
      <trkpt lat="47.41442" lon="6.6736">
        <ele>408</ele>
        <time>2016-04-24T07:57:02Z</time>
      </trkpt>
      <trkpt lat="47.41445" lon="6.67362">
        <ele>408</ele>
        <time>2016-04-24T07:57:03Z</time>
      </trkpt>
      <trkpt lat="47.41447" lon="6.67366">
        <ele>408</ele>
        <time>2016-04-24T07:57:04Z</time>
      </trkpt>
      <trkpt lat="47.4145" lon="6.67369">
        <ele>408</ele>
        <time>2016-04-24T07:57:05Z</time>
      </trkpt>
      <trkpt lat="47.41453" lon="6.67373">
        <ele>408</ele>
        <time>2016-04-24T07:57:06Z</time>
      </trkpt>
      <trkpt lat="47.41456" lon="6.67377">
        <ele>408</ele>
        <time>2016-04-24T07:57:07Z</time>
      </trkpt>
      <trkpt lat="47.41458" lon="6.6738">
        <ele>408</ele>
        <time>2016-04-24T07:57:08Z</time>
      </trkpt>
      <trkpt lat="47.41461" lon="6.67384">
        <ele>408</ele>
        <time>2016-04-24T07:57:09Z</time>
      </trkpt>
      <trkpt lat="47.41463" lon="6.67388">
        <ele>408</ele>
        <time>2016-04-24T07:57:10Z</time>
      </trkpt>
      <trkpt lat="47.41465" lon="6.67391">
        <ele>408</ele>
        <time>2016-04-24T07:57:11Z</time>
      </trkpt>
      <trkpt lat="47.41468" lon="6.67395">
        <ele>408</ele>
        <time>2016-04-24T07:57:12Z</time>
      </trkpt>
      <trkpt lat="47.41471" lon="6.67398">
        <ele>408</ele>
        <time>2016-04-24T07:57:13Z</time>
      </trkpt>
      <trkpt lat="47.41473" lon="6.67402">
        <ele>407</ele>
        <time>2016-04-24T07:57:14Z</time>
      </trkpt>
      <trkpt lat="47.41477" lon="6.67406">
        <ele>407</ele>
        <time>2016-04-24T07:57:15Z</time>
      </trkpt>
      <trkpt lat="47.41481" lon="6.67411">
        <ele>407</ele>
        <time>2016-04-24T07:57:16Z</time>
      </trkpt>
      <trkpt lat="47.41485" lon="6.67415">
        <ele>407</ele>
        <time>2016-04-24T07:57:17Z</time>
      </trkpt>
      <trkpt lat="47.41489" lon="6.67419">
        <ele>409</ele>
        <time>2016-04-24T07:57:18Z</time>
      </trkpt>
      <trkpt lat="47.41493" lon="6.67423">
        <ele>408</ele>
        <time>2016-04-24T07:57:19Z</time>
      </trkpt>
      <trkpt lat="47.41497" lon="6.67425">
        <ele>408</ele>
        <time>2016-04-24T07:57:20Z</time>
      </trkpt>
      <trkpt lat="47.41501" lon="6.67427">
        <ele>405</ele>
        <time>2016-04-24T07:57:21Z</time>
      </trkpt>
      <trkpt lat="47.41504" lon="6.67428">
        <ele>406</ele>
        <time>2016-04-24T07:57:22Z</time>
      </trkpt>
      <trkpt lat="47.41507" lon="6.67429">
        <ele>406</ele>
        <time>2016-04-24T07:57:23Z</time>
      </trkpt>
      <trkpt lat="47.41511" lon="6.6743">
        <ele>406</ele>
        <time>2016-04-24T07:57:24Z</time>
      </trkpt>
      <trkpt lat="47.41514" lon="6.67431">
        <ele>406</ele>
        <time>2016-04-24T07:57:25Z</time>
      </trkpt>
      <trkpt lat="47.41518" lon="6.67432">
        <ele>406</ele>
        <time>2016-04-24T07:57:26Z</time>
      </trkpt>
      <trkpt lat="47.41521" lon="6.67434">
        <ele>406</ele>
        <time>2016-04-24T07:57:27Z</time>
      </trkpt>
      <trkpt lat="47.41524" lon="6.67434">
        <ele>406</ele>
        <time>2016-04-24T07:57:28Z</time>
      </trkpt>
      <trkpt lat="47.41527" lon="6.67434">
        <ele>406</ele>
        <time>2016-04-24T07:57:29Z</time>
      </trkpt>
      <trkpt lat="47.4153" lon="6.67435">
        <ele>406</ele>
        <time>2016-04-24T07:57:30Z</time>
      </trkpt>
      <trkpt lat="47.41533" lon="6.67435">
        <ele>406</ele>
        <time>2016-04-24T07:57:31Z</time>
      </trkpt>
      <trkpt lat="47.41535" lon="6.67436">
        <ele>406</ele>
        <time>2016-04-24T07:57:32Z</time>
      </trkpt>
      <trkpt lat="47.41538" lon="6.67437">
        <ele>406</ele>
        <time>2016-04-24T07:57:33Z</time>
      </trkpt>
      <trkpt lat="47.41537" lon="6.67442">
        <ele>406</ele>
        <time>2016-04-24T07:57:36Z</time>
      </trkpt>
      <trkpt lat="47.41537" lon="6.67445">
        <ele>406</ele>
        <time>2016-04-24T07:57:37Z</time>
      </trkpt>
      <trkpt lat="47.4154" lon="6.6745">
        <ele>406</ele>
        <time>2016-04-24T07:57:39Z</time>
      </trkpt>
      <trkpt lat="47.41542" lon="6.67451">
        <ele>406</ele>
        <time>2016-04-24T07:57:40Z</time>
      </trkpt>
      <trkpt lat="47.41544" lon="6.67453">
        <ele>406</ele>
        <time>2016-04-24T07:57:41Z</time>
      </trkpt>
      <trkpt lat="47.41546" lon="6.67455">
        <ele>406</ele>
        <time>2016-04-24T07:57:42Z</time>
      </trkpt>
      <trkpt lat="47.41549" lon="6.67458">
        <ele>406</ele>
        <time>2016-04-24T07:57:43Z</time>
      </trkpt>
      <trkpt lat="47.41551" lon="6.67462">
        <ele>406</ele>
        <time>2016-04-24T07:57:44Z</time>
      </trkpt>
      <trkpt lat="47.41553" lon="6.67465">
        <ele>406</ele>
        <time>2016-04-24T07:57:45Z</time>
      </trkpt>
      <trkpt lat="47.41555" lon="6.67468">
        <ele>406</ele>
        <time>2016-04-24T07:57:46Z</time>
      </trkpt>
      <trkpt lat="47.41556" lon="6.67471">
        <ele>406</ele>
        <time>2016-04-24T07:57:47Z</time>
      </trkpt>
      <trkpt lat="47.41557" lon="6.67474">
        <ele>406</ele>
        <time>2016-04-24T07:57:48Z</time>
      </trkpt>
      <trkpt lat="47.41559" lon="6.67478">
        <ele>406</ele>
        <time>2016-04-24T07:57:49Z</time>
      </trkpt>
      <trkpt lat="47.4156" lon="6.67482">
        <ele>406</ele>
        <time>2016-04-24T07:57:50Z</time>
      </trkpt>
      <trkpt lat="47.41562" lon="6.67486">
        <ele>406</ele>
        <time>2016-04-24T07:57:51Z</time>
      </trkpt>
      <trkpt lat="47.41563" lon="6.6749">
        <ele>405</ele>
        <time>2016-04-24T07:57:52Z</time>
      </trkpt>
      <trkpt lat="47.41565" lon="6.67494">
        <ele>405</ele>
        <time>2016-04-24T07:57:53Z</time>
      </trkpt>
      <trkpt lat="47.41565" lon="6.67498">
        <ele>405</ele>
        <time>2016-04-24T07:57:54Z</time>
      </trkpt>
      <trkpt lat="47.41566" lon="6.67502">
        <ele>406</ele>
        <time>2016-04-24T07:57:55Z</time>
      </trkpt>
      <trkpt lat="47.41566" lon="6.67506">
        <ele>406</ele>
        <time>2016-04-24T07:57:56Z</time>
      </trkpt>
      <trkpt lat="47.41567" lon="6.67511">
        <ele>406</ele>
        <time>2016-04-24T07:57:57Z</time>
      </trkpt>
      <trkpt lat="47.41569" lon="6.67518">
        <ele>406</ele>
        <time>2016-04-24T07:57:58Z</time>
      </trkpt>
      <trkpt lat="47.4157" lon="6.67524">
        <ele>407</ele>
        <time>2016-04-24T07:57:59Z</time>
      </trkpt>
      <trkpt lat="47.41571" lon="6.6753">
        <ele>407</ele>
        <time>2016-04-24T07:58:00Z</time>
      </trkpt>
      <trkpt lat="47.41572" lon="6.67536">
        <ele>407</ele>
        <time>2016-04-24T07:58:01Z</time>
      </trkpt>
      <trkpt lat="47.41573" lon="6.67541">
        <ele>407</ele>
        <time>2016-04-24T07:58:02Z</time>
      </trkpt>
      <trkpt lat="47.41575" lon="6.67547">
        <ele>407</ele>
        <time>2016-04-24T07:58:03Z</time>
      </trkpt>
      <trkpt lat="47.41577" lon="6.67552">
        <ele>407</ele>
        <time>2016-04-24T07:58:04Z</time>
      </trkpt>
      <trkpt lat="47.41579" lon="6.67558">
        <ele>406</ele>
        <time>2016-04-24T07:58:05Z</time>
      </trkpt>
      <trkpt lat="47.41581" lon="6.67563">
        <ele>406</ele>
        <time>2016-04-24T07:58:06Z</time>
      </trkpt>
      <trkpt lat="47.41583" lon="6.67568">
        <ele>406</ele>
        <time>2016-04-24T07:58:07Z</time>
      </trkpt>
      <trkpt lat="47.41583" lon="6.67572">
        <ele>405</ele>
        <time>2016-04-24T07:58:08Z</time>
      </trkpt>
      <trkpt lat="47.41584" lon="6.67577">
        <ele>405</ele>
        <time>2016-04-24T07:58:09Z</time>
      </trkpt>
      <trkpt lat="47.41584" lon="6.67581">
        <ele>404</ele>
        <time>2016-04-24T07:58:10Z</time>
      </trkpt>
      <trkpt lat="47.41585" lon="6.67587">
        <ele>404</ele>
        <time>2016-04-24T07:58:11Z</time>
      </trkpt>
      <trkpt lat="47.41585" lon="6.67592">
        <ele>404</ele>
        <time>2016-04-24T07:58:12Z</time>
      </trkpt>
      <trkpt lat="47.41587" lon="6.67599">
        <ele>404</ele>
        <time>2016-04-24T07:58:13Z</time>
      </trkpt>
      <trkpt lat="47.41589" lon="6.67605">
        <ele>404</ele>
        <time>2016-04-24T07:58:14Z</time>
      </trkpt>
      <trkpt lat="47.41592" lon="6.67612">
        <ele>404</ele>
        <time>2016-04-24T07:58:15Z</time>
      </trkpt>
      <trkpt lat="47.41595" lon="6.67619">
        <ele>404</ele>
        <time>2016-04-24T07:58:16Z</time>
      </trkpt>
      <trkpt lat="47.41598" lon="6.67626">
        <ele>404</ele>
        <time>2016-04-24T07:58:17Z</time>
      </trkpt>
      <trkpt lat="47.41601" lon="6.67633">
        <ele>404</ele>
        <time>2016-04-24T07:58:18Z</time>
      </trkpt>
      <trkpt lat="47.41603" lon="6.67641">
        <ele>404</ele>
        <time>2016-04-24T07:58:19Z</time>
      </trkpt>
      <trkpt lat="47.41606" lon="6.67649">
        <ele>404</ele>
        <time>2016-04-24T07:58:20Z</time>
      </trkpt>
      <trkpt lat="47.41608" lon="6.67656">
        <ele>404</ele>
        <time>2016-04-24T07:58:21Z</time>
      </trkpt>
      <trkpt lat="47.4161" lon="6.67663">
        <ele>404</ele>
        <time>2016-04-24T07:58:22Z</time>
      </trkpt>
      <trkpt lat="47.41613" lon="6.6767">
        <ele>402</ele>
        <time>2016-04-24T07:58:23Z</time>
      </trkpt>
      <trkpt lat="47.41615" lon="6.67677">
        <ele>402</ele>
        <time>2016-04-24T07:58:24Z</time>
      </trkpt>
      <trkpt lat="47.41617" lon="6.67685">
        <ele>402</ele>
        <time>2016-04-24T07:58:25Z</time>
      </trkpt>
      <trkpt lat="47.4162" lon="6.67692">
        <ele>401</ele>
        <time>2016-04-24T07:58:26Z</time>
      </trkpt>
      <trkpt lat="47.41623" lon="6.677">
        <ele>401</ele>
        <time>2016-04-24T07:58:27Z</time>
      </trkpt>
      <trkpt lat="47.41626" lon="6.67709">
        <ele>401</ele>
        <time>2016-04-24T07:58:28Z</time>
      </trkpt>
      <trkpt lat="47.41629" lon="6.67717">
        <ele>401</ele>
        <time>2016-04-24T07:58:29Z</time>
      </trkpt>
      <trkpt lat="47.41631" lon="6.67726">
        <ele>400</ele>
        <time>2016-04-24T07:58:30Z</time>
      </trkpt>
      <trkpt lat="47.41633" lon="6.67733">
        <ele>400</ele>
        <time>2016-04-24T07:58:31Z</time>
      </trkpt>
      <trkpt lat="47.41635" lon="6.6774">
        <ele>400</ele>
        <time>2016-04-24T07:58:32Z</time>
      </trkpt>
      <trkpt lat="47.41638" lon="6.67749">
        <ele>399</ele>
        <time>2016-04-24T07:58:33Z</time>
      </trkpt>
      <trkpt lat="47.4164" lon="6.67758">
        <ele>398</ele>
        <time>2016-04-24T07:58:34Z</time>
      </trkpt>
      <trkpt lat="47.41643" lon="6.67768">
        <ele>398</ele>
        <time>2016-04-24T07:58:35Z</time>
      </trkpt>
      <trkpt lat="47.41647" lon="6.67778">
        <ele>398</ele>
        <time>2016-04-24T07:58:36Z</time>
      </trkpt>
      <trkpt lat="47.41663" lon="6.67811">
        <ele>397</ele>
        <time>2016-04-24T07:58:37Z</time>
      </trkpt>
      <trkpt lat="47.41673" lon="6.67826">
        <ele>394</ele>
        <time>2016-04-24T07:58:38Z</time>
      </trkpt>
      <trkpt lat="47.41679" lon="6.67836">
        <ele>392</ele>
        <time>2016-04-24T07:58:39Z</time>
      </trkpt>
      <trkpt lat="47.41682" lon="6.67844">
        <ele>392</ele>
        <time>2016-04-24T07:58:40Z</time>
      </trkpt>
      <trkpt lat="47.41686" lon="6.67849">
        <ele>392</ele>
        <time>2016-04-24T07:58:41Z</time>
      </trkpt>
      <trkpt lat="47.41693" lon="6.67857">
        <ele>392</ele>
        <time>2016-04-24T07:58:42Z</time>
      </trkpt>
      <trkpt lat="47.41699" lon="6.67861">
        <ele>392</ele>
        <time>2016-04-24T07:58:43Z</time>
      </trkpt>
      <trkpt lat="47.41702" lon="6.67861">
        <ele>392</ele>
        <time>2016-04-24T07:58:44Z</time>
      </trkpt>
      <trkpt lat="47.41708" lon="6.67863">
        <ele>392</ele>
        <time>2016-04-24T07:58:45Z</time>
      </trkpt>
      <trkpt lat="47.41713" lon="6.67864">
        <ele>391</ele>
        <time>2016-04-24T07:58:46Z</time>
      </trkpt>
      <trkpt lat="47.41717" lon="6.67867">
        <ele>391</ele>
        <time>2016-04-24T07:58:47Z</time>
      </trkpt>
      <trkpt lat="47.4172" lon="6.6787">
        <ele>391</ele>
        <time>2016-04-24T07:58:48Z</time>
      </trkpt>
      <trkpt lat="47.41723" lon="6.67873">
        <ele>391</ele>
        <time>2016-04-24T07:58:49Z</time>
      </trkpt>
      <trkpt lat="47.41726" lon="6.67878">
        <ele>391</ele>
        <time>2016-04-24T07:58:50Z</time>
      </trkpt>
      <trkpt lat="47.41728" lon="6.67883">
        <ele>390</ele>
        <time>2016-04-24T07:58:51Z</time>
      </trkpt>
      <trkpt lat="47.41729" lon="6.67891">
        <ele>390</ele>
        <time>2016-04-24T07:58:52Z</time>
      </trkpt>
      <trkpt lat="47.41729" lon="6.67913">
        <ele>389</ele>
        <time>2016-04-24T07:58:53Z</time>
      </trkpt>
      <trkpt lat="47.4173" lon="6.67924">
        <ele>384</ele>
        <time>2016-04-24T07:58:54Z</time>
      </trkpt>
      <trkpt lat="47.41729" lon="6.67937">
        <ele>383</ele>
        <time>2016-04-24T07:58:55Z</time>
      </trkpt>
      <trkpt lat="47.41731" lon="6.67953">
        <ele>381</ele>
        <time>2016-04-24T07:58:56Z</time>
      </trkpt>
      <trkpt lat="47.41732" lon="6.67962">
        <ele>380</ele>
        <time>2016-04-24T07:58:57Z</time>
      </trkpt>
      <trkpt lat="47.41732" lon="6.67967">
        <ele>379</ele>
        <time>2016-04-24T07:58:58Z</time>
      </trkpt>
      <trkpt lat="47.4173" lon="6.6797">
        <ele>379</ele>
        <time>2016-04-24T07:58:59Z</time>
      </trkpt>
      <trkpt lat="47.41726" lon="6.67973">
        <ele>379</ele>
        <time>2016-04-24T07:59:10Z</time>
      </trkpt>
      <trkpt lat="47.41726" lon="6.67973">
        <ele>379</ele>
        <time>2016-04-24T07:59:11Z</time>
      </trkpt>
      <trkpt lat="47.41729" lon="6.67977">
        <ele>378</ele>
        <time>2016-04-24T07:59:28Z</time>
      </trkpt>
      <trkpt lat="47.41729" lon="6.67978">
        <ele>378</ele>
        <time>2016-04-24T07:59:29Z</time>
      </trkpt>
      <trkpt lat="47.41731" lon="6.67982">
        <ele>377</ele>
        <time>2016-04-24T07:59:38Z</time>
      </trkpt>
      <trkpt lat="47.41733" lon="6.67983">
        <ele>376</ele>
        <time>2016-04-24T07:59:39Z</time>
      </trkpt>
      <trkpt lat="47.41735" lon="6.67989">
        <ele>375</ele>
        <time>2016-04-24T07:59:45Z</time>
      </trkpt>
      <trkpt lat="47.41735" lon="6.67989">
        <ele>375</ele>
        <time>2016-04-24T07:59:46Z</time>
      </trkpt>
      <trkpt lat="47.41737" lon="6.67994">
        <ele>373</ele>
        <time>2016-04-24T08:00:43Z</time>
      </trkpt>
      <trkpt lat="47.41738" lon="6.67994">
        <ele>373</ele>
        <time>2016-04-24T08:00:44Z</time>
      </trkpt>
      <trkpt lat="47.41741" lon="6.67999">
        <ele>372</ele>
        <time>2016-04-24T08:02:26Z</time>
      </trkpt>
      <trkpt lat="47.41741" lon="6.68">
        <ele>372</ele>
        <time>2016-04-24T08:02:27Z</time>
      </trkpt>
      <trkpt lat="47.4174" lon="6.67994">
        <ele>373</ele>
        <time>2016-04-24T08:03:17Z</time>
      </trkpt>
      <trkpt lat="47.4174" lon="6.67992">
        <ele>373</ele>
        <time>2016-04-24T08:03:18Z</time>
      </trkpt>
      <trkpt lat="47.41741" lon="6.67997">
        <ele>372</ele>
        <time>2016-04-24T08:06:50Z</time>
      </trkpt>
      <trkpt lat="47.41741" lon="6.68">
        <ele>372</ele>
        <time>2016-04-24T08:06:51Z</time>
      </trkpt>
      <trkpt lat="47.41741" lon="6.68003">
        <ele>368</ele>
        <time>2016-04-24T08:06:52Z</time>
      </trkpt>
      <trkpt lat="47.41741" lon="6.68006">
        <ele>368</ele>
        <time>2016-04-24T08:06:53Z</time>
      </trkpt>
      <trkpt lat="47.41743" lon="6.68012">
        <ele>368</ele>
        <time>2016-04-24T08:06:55Z</time>
      </trkpt>
      <trkpt lat="47.41744" lon="6.68014">
        <ele>368</ele>
        <time>2016-04-24T08:06:55.999Z</time>
      </trkpt>
      <trkpt lat="47.41744" lon="6.68017">
        <ele>367</ele>
        <time>2016-04-24T08:06:57Z</time>
      </trkpt>
      <trkpt lat="47.41745" lon="6.68022">
        <ele>367</ele>
        <time>2016-04-24T08:06:58Z</time>
      </trkpt>
      <trkpt lat="47.41745" lon="6.68025">
        <ele>367</ele>
        <time>2016-04-24T08:06:59Z</time>
      </trkpt>
      <trkpt lat="47.41745" lon="6.68031">
        <ele>367</ele>
        <time>2016-04-24T08:07:00.001Z</time>
      </trkpt>
      <trkpt lat="47.41745" lon="6.6804">
        <ele>367</ele>
        <time>2016-04-24T08:07:01Z</time>
      </trkpt>
      <trkpt lat="47.41744" lon="6.68052">
        <ele>366</ele>
        <time>2016-04-24T08:07:02Z</time>
      </trkpt>
      <trkpt lat="47.41745" lon="6.6806">
        <ele>365</ele>
        <time>2016-04-24T08:07:03Z</time>
      </trkpt>
      <trkpt lat="47.41746" lon="6.68068">
        <ele>364</ele>
        <time>2016-04-24T08:07:04Z</time>
      </trkpt>
      <trkpt lat="47.41747" lon="6.68076">
        <ele>362</ele>
        <time>2016-04-24T08:07:05Z</time>
      </trkpt>
      <trkpt lat="47.41747" lon="6.68082">
        <ele>361</ele>
        <time>2016-04-24T08:07:06Z</time>
      </trkpt>
      <trkpt lat="47.41748" lon="6.68087">
        <ele>361</ele>
        <time>2016-04-24T08:07:07Z</time>
      </trkpt>
      <trkpt lat="47.41749" lon="6.68092">
        <ele>361</ele>
        <time>2016-04-24T08:07:24Z</time>
      </trkpt>
      <trkpt lat="47.41749" lon="6.68095">
        <ele>362</ele>
        <time>2016-04-24T08:07:25Z</time>
      </trkpt>
      <trkpt lat="47.41749" lon="6.681">
        <ele>362</ele>
        <time>2016-04-24T08:07:27Z</time>
      </trkpt>
      <trkpt lat="47.41749" lon="6.68103">
        <ele>363</ele>
        <time>2016-04-24T08:07:28Z</time>
      </trkpt>
      <trkpt lat="47.41749" lon="6.68108">
        <ele>363</ele>
        <time>2016-04-24T08:07:30Z</time>
      </trkpt>
      <trkpt lat="47.41749" lon="6.68111">
        <ele>363</ele>
        <time>2016-04-24T08:07:31Z</time>
      </trkpt>
      <trkpt lat="47.41749" lon="6.68116">
        <ele>364</ele>
        <time>2016-04-24T08:07:33Z</time>
      </trkpt>
      <trkpt lat="47.4175" lon="6.68118">
        <ele>364</ele>
        <time>2016-04-24T08:07:34Z</time>
      </trkpt>
      <trkpt lat="47.41749" lon="6.68124">
        <ele>364</ele>
        <time>2016-04-24T08:07:36Z</time>
      </trkpt>
      <trkpt lat="47.41749" lon="6.68127">
        <ele>365</ele>
        <time>2016-04-24T08:07:37Z</time>
      </trkpt>
      <trkpt lat="47.41749" lon="6.68133">
        <ele>365</ele>
        <time>2016-04-24T08:07:39Z</time>
      </trkpt>
      <trkpt lat="47.4175" lon="6.68135">
        <ele>365</ele>
        <time>2016-04-24T08:07:40Z</time>
      </trkpt>
      <trkpt lat="47.4175" lon="6.68141">
        <ele>364</ele>
        <time>2016-04-24T08:07:42Z</time>
      </trkpt>
      <trkpt lat="47.4175" lon="6.68143">
        <ele>366</ele>
        <time>2016-04-24T08:07:43Z</time>
      </trkpt>
      <trkpt lat="47.4175" lon="6.68148">
        <ele>366</ele>
        <time>2016-04-24T08:07:45Z</time>
      </trkpt>
      <trkpt lat="47.4175" lon="6.6815">
        <ele>366</ele>
        <time>2016-04-24T08:07:46Z</time>
      </trkpt>
      <trkpt lat="47.4175" lon="6.68155">
        <ele>366</ele>
        <time>2016-04-24T08:07:48Z</time>
      </trkpt>
      <trkpt lat="47.4175" lon="6.68157">
        <ele>366</ele>
        <time>2016-04-24T08:07:49Z</time>
      </trkpt>
      <trkpt lat="47.4175" lon="6.68162">
        <ele>367</ele>
        <time>2016-04-24T08:07:51Z</time>
      </trkpt>
      <trkpt lat="47.4175" lon="6.68164">
        <ele>367</ele>
        <time>2016-04-24T08:07:52Z</time>
      </trkpt>
      <trkpt lat="47.41751" lon="6.68169">
        <ele>368</ele>
        <time>2016-04-24T08:07:54Z</time>
      </trkpt>
      <trkpt lat="47.41752" lon="6.68171">
        <ele>369</ele>
        <time>2016-04-24T08:07:55Z</time>
      </trkpt>
      <trkpt lat="47.4175" lon="6.68177">
        <ele>370</ele>
        <time>2016-04-24T08:07:58Z</time>
      </trkpt>
      <trkpt lat="47.41749" lon="6.68178">
        <ele>371</ele>
        <time>2016-04-24T08:07:59Z</time>
      </trkpt>
      <trkpt lat="47.41746" lon="6.68179">
        <ele>371</ele>
        <time>2016-04-24T08:08:04Z</time>
      </trkpt>
      <trkpt lat="47.41745" lon="6.68178">
        <ele>371</ele>
        <time>2016-04-24T08:08:05Z</time>
      </trkpt>
      <trkpt lat="47.4174" lon="6.68177">
        <ele>371</ele>
        <time>2016-04-24T08:08:08Z</time>
      </trkpt>
      <trkpt lat="47.41739" lon="6.68176">
        <ele>371</ele>
        <time>2016-04-24T08:08:09Z</time>
      </trkpt>
      <trkpt lat="47.41736" lon="6.68175">
        <ele>372</ele>
        <time>2016-04-24T08:08:11Z</time>
      </trkpt>
      <trkpt lat="47.41733" lon="6.68174">
        <ele>372</ele>
        <time>2016-04-24T08:08:12Z</time>
      </trkpt>
      <trkpt lat="47.41729" lon="6.68174">
        <ele>373</ele>
        <time>2016-04-24T08:08:13Z</time>
      </trkpt>
      <trkpt lat="47.41725" lon="6.68173">
        <ele>373</ele>
        <time>2016-04-24T08:08:14Z</time>
      </trkpt>
      <trkpt lat="47.41721" lon="6.68173">
        <ele>374</ele>
        <time>2016-04-24T08:08:15Z</time>
      </trkpt>
      <trkpt lat="47.41717" lon="6.68172">
        <ele>374</ele>
        <time>2016-04-24T08:08:16Z</time>
      </trkpt>
      <trkpt lat="47.41713" lon="6.68172">
        <ele>374</ele>
        <time>2016-04-24T08:08:17Z</time>
      </trkpt>
      <trkpt lat="47.41709" lon="6.68171">
        <ele>374</ele>
        <time>2016-04-24T08:08:18Z</time>
      </trkpt>
      <trkpt lat="47.41706" lon="6.6817">
        <ele>374</ele>
        <time>2016-04-24T08:08:19Z</time>
      </trkpt>
      <trkpt lat="47.41702" lon="6.68169">
        <ele>374</ele>
        <time>2016-04-24T08:08:20Z</time>
      </trkpt>
      <trkpt lat="47.41695" lon="6.68168">
        <ele>374</ele>
        <time>2016-04-24T08:08:21Z</time>
      </trkpt>
      <trkpt lat="47.41688" lon="6.68166">
        <ele>367</ele>
        <time>2016-04-24T08:08:22Z</time>
      </trkpt>
      <trkpt lat="47.41681" lon="6.68167">
        <ele>373</ele>
        <time>2016-04-24T08:08:23Z</time>
      </trkpt>
      <trkpt lat="47.41674" lon="6.68166">
        <ele>369</ele>
        <time>2016-04-24T08:08:24Z</time>
      </trkpt>
      <trkpt lat="47.41667" lon="6.68165">
        <ele>370</ele>
        <time>2016-04-24T08:08:25Z</time>
      </trkpt>
      <trkpt lat="47.41661" lon="6.68165">
        <ele>369</ele>
        <time>2016-04-24T08:08:26Z</time>
      </trkpt>
      <trkpt lat="47.41654" lon="6.68165">
        <ele>369</ele>
        <time>2016-04-24T08:08:27Z</time>
      </trkpt>
      <trkpt lat="47.41648" lon="6.68166">
        <ele>369</ele>
        <time>2016-04-24T08:08:28Z</time>
      </trkpt>
      <trkpt lat="47.41643" lon="6.68166">
        <ele>369</ele>
        <time>2016-04-24T08:08:29Z</time>
      </trkpt>
      <trkpt lat="47.41637" lon="6.68167">
        <ele>376</ele>
        <time>2016-04-24T08:08:30Z</time>
      </trkpt>
      <trkpt lat="47.41631" lon="6.68165">
        <ele>368</ele>
        <time>2016-04-24T08:08:31Z</time>
      </trkpt>
      <trkpt lat="47.41627" lon="6.68165">
        <ele>368</ele>
        <time>2016-04-24T08:08:32Z</time>
      </trkpt>
      <trkpt lat="47.41622" lon="6.68164">
        <ele>368</ele>
        <time>2016-04-24T08:08:33Z</time>
      </trkpt>
      <trkpt lat="47.41617" lon="6.68163">
        <ele>369</ele>
        <time>2016-04-24T08:08:34Z</time>
      </trkpt>
      <trkpt lat="47.41613" lon="6.68162">
        <ele>369</ele>
        <time>2016-04-24T08:08:35Z</time>
      </trkpt>
      <trkpt lat="47.41609" lon="6.68163">
        <ele>369</ele>
        <time>2016-04-24T08:08:36Z</time>
      </trkpt>
      <trkpt lat="47.41605" lon="6.68163">
        <ele>369</ele>
        <time>2016-04-24T08:08:37Z</time>
      </trkpt>
      <trkpt lat="47.41602" lon="6.68162">
        <ele>369</ele>
        <time>2016-04-24T08:08:38Z</time>
      </trkpt>
      <trkpt lat="47.41597" lon="6.68162">
        <ele>369</ele>
        <time>2016-04-24T08:08:39Z</time>
      </trkpt>
      <trkpt lat="47.41594" lon="6.68161">
        <ele>370</ele>
        <time>2016-04-24T08:08:40Z</time>
      </trkpt>
      <trkpt lat="47.41593" lon="6.6816">
        <ele>370</ele>
        <time>2016-04-24T08:08:41Z</time>
      </trkpt>
      <trkpt lat="47.41589" lon="6.68159">
        <ele>370</ele>
        <time>2016-04-24T08:08:42Z</time>
      </trkpt>
      <trkpt lat="47.41586" lon="6.68159">
        <ele>370</ele>
        <time>2016-04-24T08:08:43Z</time>
      </trkpt>
      <trkpt lat="47.41582" lon="6.68159">
        <ele>371</ele>
        <time>2016-04-24T08:08:44Z</time>
      </trkpt>
      <trkpt lat="47.41579" lon="6.68159">
        <ele>371</ele>
        <time>2016-04-24T08:08:45Z</time>
      </trkpt>
      <trkpt lat="47.41576" lon="6.68159">
        <ele>371</ele>
        <time>2016-04-24T08:08:46Z</time>
      </trkpt>
      <trkpt lat="47.41573" lon="6.68159">
        <ele>371</ele>
        <time>2016-04-24T08:08:47Z</time>
      </trkpt>
      <trkpt lat="47.4157" lon="6.68159">
        <ele>370</ele>
        <time>2016-04-24T08:08:48Z</time>
      </trkpt>
      <trkpt lat="47.41568" lon="6.6816">
        <ele>370</ele>
        <time>2016-04-24T08:08:49Z</time>
      </trkpt>
      <trkpt lat="47.41565" lon="6.6816">
        <ele>370</ele>
        <time>2016-04-24T08:08:50Z</time>
      </trkpt>
      <trkpt lat="47.41562" lon="6.68161">
        <ele>370</ele>
        <time>2016-04-24T08:08:51Z</time>
      </trkpt>
      <trkpt lat="47.41558" lon="6.68161">
        <ele>370</ele>
        <time>2016-04-24T08:08:52Z</time>
      </trkpt>
      <trkpt lat="47.41555" lon="6.68162">
        <ele>370</ele>
        <time>2016-04-24T08:08:53Z</time>
      </trkpt>
      <trkpt lat="47.41551" lon="6.68163">
        <ele>371</ele>
        <time>2016-04-24T08:08:54Z</time>
      </trkpt>
      <trkpt lat="47.41548" lon="6.68164">
        <ele>371</ele>
        <time>2016-04-24T08:08:55Z</time>
      </trkpt>
      <trkpt lat="47.41545" lon="6.68164">
        <ele>371</ele>
        <time>2016-04-24T08:08:56Z</time>
      </trkpt>
      <trkpt lat="47.41542" lon="6.68165">
        <ele>371</ele>
        <time>2016-04-24T08:08:57Z</time>
      </trkpt>
      <trkpt lat="47.4154" lon="6.68166">
        <ele>371</ele>
        <time>2016-04-24T08:08:58Z</time>
      </trkpt>
      <trkpt lat="47.41537" lon="6.68167">
        <ele>379</ele>
        <time>2016-04-24T08:08:59Z</time>
      </trkpt>
      <trkpt lat="47.41533" lon="6.68168">
        <ele>379</ele>
        <time>2016-04-24T08:09:00Z</time>
      </trkpt>
      <trkpt lat="47.4153" lon="6.68169">
        <ele>379</ele>
        <time>2016-04-24T08:09:01Z</time>
      </trkpt>
      <trkpt lat="47.41527" lon="6.6817">
        <ele>379</ele>
        <time>2016-04-24T08:09:02Z</time>
      </trkpt>
      <trkpt lat="47.41524" lon="6.68171">
        <ele>379</ele>
        <time>2016-04-24T08:09:03Z</time>
      </trkpt>
      <trkpt lat="47.41522" lon="6.68172">
        <ele>379</ele>
        <time>2016-04-24T08:09:04Z</time>
      </trkpt>
      <trkpt lat="47.41519" lon="6.68172">
        <ele>379</ele>
        <time>2016-04-24T08:09:05Z</time>
      </trkpt>
      <trkpt lat="47.41515" lon="6.68173">
        <ele>378</ele>
        <time>2016-04-24T08:09:07Z</time>
      </trkpt>
      <trkpt lat="47.41513" lon="6.68173">
        <ele>378</ele>
        <time>2016-04-24T08:09:08Z</time>
      </trkpt>
      <trkpt lat="47.41511" lon="6.68174">
        <ele>378</ele>
        <time>2016-04-24T08:09:09Z</time>
      </trkpt>
      <trkpt lat="47.41508" lon="6.68174">
        <ele>377</ele>
        <time>2016-04-24T08:09:10Z</time>
      </trkpt>
      <trkpt lat="47.41506" lon="6.68174">
        <ele>377</ele>
        <time>2016-04-24T08:09:11Z</time>
      </trkpt>
      <trkpt lat="47.41503" lon="6.68174">
        <ele>377</ele>
        <time>2016-04-24T08:09:12Z</time>
      </trkpt>
      <trkpt lat="47.41499" lon="6.68174">
        <ele>377</ele>
        <time>2016-04-24T08:09:14Z</time>
      </trkpt>
      <trkpt lat="47.41497" lon="6.68174">
        <ele>377</ele>
        <time>2016-04-24T08:09:15Z</time>
      </trkpt>
      <trkpt lat="47.41494" lon="6.68173">
        <ele>377</ele>
        <time>2016-04-24T08:09:16Z</time>
      </trkpt>
      <trkpt lat="47.41492" lon="6.68173">
        <ele>378</ele>
        <time>2016-04-24T08:09:17Z</time>
      </trkpt>
      <trkpt lat="47.41489" lon="6.68173">
        <ele>379</ele>
        <time>2016-04-24T08:09:18Z</time>
      </trkpt>
      <trkpt lat="47.41486" lon="6.68173">
        <ele>379</ele>
        <time>2016-04-24T08:09:19Z</time>
      </trkpt>
      <trkpt lat="47.41484" lon="6.68173">
        <ele>380</ele>
        <time>2016-04-24T08:09:20Z</time>
      </trkpt>
      <trkpt lat="47.41481" lon="6.68172">
        <ele>380</ele>
        <time>2016-04-24T08:09:21Z</time>
      </trkpt>
      <trkpt lat="47.41479" lon="6.68172">
        <ele>380</ele>
        <time>2016-04-24T08:09:22Z</time>
      </trkpt>
      <trkpt lat="47.41475" lon="6.68172">
        <ele>381</ele>
        <time>2016-04-24T08:09:23Z</time>
      </trkpt>
      <trkpt lat="47.41472" lon="6.68172">
        <ele>381</ele>
        <time>2016-04-24T08:09:24Z</time>
      </trkpt>
      <trkpt lat="47.41469" lon="6.68172">
        <ele>382</ele>
        <time>2016-04-24T08:09:25Z</time>
      </trkpt>
      <trkpt lat="47.41466" lon="6.68172">
        <ele>382</ele>
        <time>2016-04-24T08:09:26Z</time>
      </trkpt>
      <trkpt lat="47.41463" lon="6.68172">
        <ele>382</ele>
        <time>2016-04-24T08:09:27Z</time>
      </trkpt>
      <trkpt lat="47.4146" lon="6.68172">
        <ele>382</ele>
        <time>2016-04-24T08:09:28Z</time>
      </trkpt>
      <trkpt lat="47.41457" lon="6.68172">
        <ele>382</ele>
        <time>2016-04-24T08:09:29Z</time>
      </trkpt>
      <trkpt lat="47.4145" lon="6.68174">
        <ele>382</ele>
        <time>2016-04-24T08:09:30Z</time>
      </trkpt>
      <trkpt lat="47.41447" lon="6.68174">
        <ele>382</ele>
        <time>2016-04-24T08:09:31Z</time>
      </trkpt>
      <trkpt lat="47.41444" lon="6.68174">
        <ele>382</ele>
        <time>2016-04-24T08:09:32Z</time>
      </trkpt>
      <trkpt lat="47.41441" lon="6.68172">
        <ele>382</ele>
        <time>2016-04-24T08:09:33Z</time>
      </trkpt>
      <trkpt lat="47.41438" lon="6.68173">
        <ele>382</ele>
        <time>2016-04-24T08:09:34Z</time>
      </trkpt>
      <trkpt lat="47.41434" lon="6.68174">
        <ele>382</ele>
        <time>2016-04-24T08:09:36Z</time>
      </trkpt>
      <trkpt lat="47.41431" lon="6.68175">
        <ele>381</ele>
        <time>2016-04-24T08:09:37Z</time>
      </trkpt>
      <trkpt lat="47.41427" lon="6.68176">
        <ele>381</ele>
        <time>2016-04-24T08:09:39Z</time>
      </trkpt>
      <trkpt lat="47.41424" lon="6.68177">
        <ele>381</ele>
        <time>2016-04-24T08:09:40Z</time>
      </trkpt>
      <trkpt lat="47.4142" lon="6.6818">
        <ele>381</ele>
        <time>2016-04-24T08:09:42Z</time>
      </trkpt>
      <trkpt lat="47.41418" lon="6.68181">
        <ele>381</ele>
        <time>2016-04-24T08:09:43Z</time>
      </trkpt>
      <trkpt lat="47.41414" lon="6.68182">
        <ele>382</ele>
        <time>2016-04-24T08:09:45Z</time>
      </trkpt>
      <trkpt lat="47.41413" lon="6.68183">
        <ele>382</ele>
        <time>2016-04-24T08:09:46Z</time>
      </trkpt>
      <trkpt lat="47.41409" lon="6.68185">
        <ele>383</ele>
        <time>2016-04-24T08:09:48Z</time>
      </trkpt>
      <trkpt lat="47.41407" lon="6.68185">
        <ele>383</ele>
        <time>2016-04-24T08:09:49Z</time>
      </trkpt>
      <trkpt lat="47.41403" lon="6.68185">
        <ele>383</ele>
        <time>2016-04-24T08:09:51Z</time>
      </trkpt>
      <trkpt lat="47.41401" lon="6.68184">
        <ele>383</ele>
        <time>2016-04-24T08:09:52Z</time>
      </trkpt>
      <trkpt lat="47.41397" lon="6.68184">
        <ele>383</ele>
        <time>2016-04-24T08:09:54Z</time>
      </trkpt>
      <trkpt lat="47.41396" lon="6.68184">
        <ele>383</ele>
        <time>2016-04-24T08:09:55Z</time>
      </trkpt>
      <trkpt lat="47.41392" lon="6.68185">
        <ele>383</ele>
        <time>2016-04-24T08:09:57Z</time>
      </trkpt>
      <trkpt lat="47.4139" lon="6.68185">
        <ele>383</ele>
        <time>2016-04-24T08:09:58Z</time>
      </trkpt>
      <trkpt lat="47.41386" lon="6.68184">
        <ele>384</ele>
        <time>2016-04-24T08:10:00Z</time>
      </trkpt>
      <trkpt lat="47.41385" lon="6.68184">
        <ele>384</ele>
        <time>2016-04-24T08:10:01Z</time>
      </trkpt>
      <trkpt lat="47.41382" lon="6.68182">
        <ele>384</ele>
        <time>2016-04-24T08:10:05Z</time>
      </trkpt>
      <trkpt lat="47.4138" lon="6.68181">
        <ele>384</ele>
        <time>2016-04-24T08:10:06Z</time>
      </trkpt>
      <trkpt lat="47.41378" lon="6.68181">
        <ele>384</ele>
        <time>2016-04-24T08:10:07Z</time>
      </trkpt>
      <trkpt lat="47.41376" lon="6.68181">
        <ele>384</ele>
        <time>2016-04-24T08:10:08Z</time>
      </trkpt>
      <trkpt lat="47.41373" lon="6.68182">
        <ele>384</ele>
        <time>2016-04-24T08:10:09Z</time>
      </trkpt>
      <trkpt lat="47.4137" lon="6.68182">
        <ele>384</ele>
        <time>2016-04-24T08:10:10Z</time>
      </trkpt>
      <trkpt lat="47.41366" lon="6.68182">
        <ele>384</ele>
        <time>2016-04-24T08:10:11Z</time>
      </trkpt>
      <trkpt lat="47.41363" lon="6.68183">
        <ele>384</ele>
        <time>2016-04-24T08:10:12Z</time>
      </trkpt>
      <trkpt lat="47.4136" lon="6.68183">
        <ele>384</ele>
        <time>2016-04-24T08:10:13Z</time>
      </trkpt>
      <trkpt lat="47.41357" lon="6.68185">
        <ele>384</ele>
        <time>2016-04-24T08:10:14Z</time>
      </trkpt>
      <trkpt lat="47.41355" lon="6.68186">
        <ele>384</ele>
        <time>2016-04-24T08:10:15Z</time>
      </trkpt>
      <trkpt lat="47.41352" lon="6.68187">
        <ele>384</ele>
        <time>2016-04-24T08:10:16Z</time>
      </trkpt>
      <trkpt lat="47.4135" lon="6.68189">
        <ele>384</ele>
        <time>2016-04-24T08:10:17Z</time>
      </trkpt>
      <trkpt lat="47.41348" lon="6.6819">
        <ele>384</ele>
        <time>2016-04-24T08:10:18Z</time>
      </trkpt>
      <trkpt lat="47.41345" lon="6.68191">
        <ele>384</ele>
        <time>2016-04-24T08:10:19Z</time>
      </trkpt>
      <trkpt lat="47.41343" lon="6.68192">
        <ele>384</ele>
        <time>2016-04-24T08:10:20Z</time>
      </trkpt>
      <trkpt lat="47.4134" lon="6.68194">
        <ele>384</ele>
        <time>2016-04-24T08:10:21Z</time>
      </trkpt>
      <trkpt lat="47.41338" lon="6.68196">
        <ele>384</ele>
        <time>2016-04-24T08:10:22Z</time>
      </trkpt>
      <trkpt lat="47.41334" lon="6.68198">
        <ele>384</ele>
        <time>2016-04-24T08:10:24Z</time>
      </trkpt>
      <trkpt lat="47.41333" lon="6.682">
        <ele>385</ele>
        <time>2016-04-24T08:10:25Z</time>
      </trkpt>
      <trkpt lat="47.41329" lon="6.68202">
        <ele>385</ele>
        <time>2016-04-24T08:10:27Z</time>
      </trkpt>
      <trkpt lat="47.41327" lon="6.68204">
        <ele>385</ele>
        <time>2016-04-24T08:10:28Z</time>
      </trkpt>
      <trkpt lat="47.41325" lon="6.68206">
        <ele>385</ele>
        <time>2016-04-24T08:10:29Z</time>
      </trkpt>
      <trkpt lat="47.41323" lon="6.68207">
        <ele>386</ele>
        <time>2016-04-24T08:10:30Z</time>
      </trkpt>
      <trkpt lat="47.4132" lon="6.68211">
        <ele>386</ele>
        <time>2016-04-24T08:10:32Z</time>
      </trkpt>
      <trkpt lat="47.41319" lon="6.68214">
        <ele>386</ele>
        <time>2016-04-24T08:10:33Z</time>
      </trkpt>
      <trkpt lat="47.41316" lon="6.68219">
        <ele>387</ele>
        <time>2016-04-24T08:10:35Z</time>
      </trkpt>
      <trkpt lat="47.41315" lon="6.68221">
        <ele>387</ele>
        <time>2016-04-24T08:10:36Z</time>
      </trkpt>
      <trkpt lat="47.41312" lon="6.68224">
        <ele>387</ele>
        <time>2016-04-24T08:10:38Z</time>
      </trkpt>
      <trkpt lat="47.4131" lon="6.68226">
        <ele>387</ele>
        <time>2016-04-24T08:10:39Z</time>
      </trkpt>
      <trkpt lat="47.41308" lon="6.68229">
        <ele>387</ele>
        <time>2016-04-24T08:10:40Z</time>
      </trkpt>
      <trkpt lat="47.41306" lon="6.68231">
        <ele>387</ele>
        <time>2016-04-24T08:10:41Z</time>
      </trkpt>
      <trkpt lat="47.41305" lon="6.68234">
        <ele>387</ele>
        <time>2016-04-24T08:10:42Z</time>
      </trkpt>
      <trkpt lat="47.41302" lon="6.68236">
        <ele>387</ele>
        <time>2016-04-24T08:10:43Z</time>
      </trkpt>
      <trkpt lat="47.41299" lon="6.68238">
        <ele>387</ele>
        <time>2016-04-24T08:10:44Z</time>
      </trkpt>
      <trkpt lat="47.41297" lon="6.6824">
        <ele>387</ele>
        <time>2016-04-24T08:10:45Z</time>
      </trkpt>
      <trkpt lat="47.41294" lon="6.68241">
        <ele>387</ele>
        <time>2016-04-24T08:10:46Z</time>
      </trkpt>
      <trkpt lat="47.41292" lon="6.68243">
        <ele>387</ele>
        <time>2016-04-24T08:10:47Z</time>
      </trkpt>
      <trkpt lat="47.4129" lon="6.68245">
        <ele>387</ele>
        <time>2016-04-24T08:10:48Z</time>
      </trkpt>
      <trkpt lat="47.41288" lon="6.68248">
        <ele>387</ele>
        <time>2016-04-24T08:10:49Z</time>
      </trkpt>
      <trkpt lat="47.41286" lon="6.6825">
        <ele>394</ele>
        <time>2016-04-24T08:10:50Z</time>
      </trkpt>
      <trkpt lat="47.41283" lon="6.68254">
        <ele>394</ele>
        <time>2016-04-24T08:10:51Z</time>
      </trkpt>
      <trkpt lat="47.41281" lon="6.68257">
        <ele>393</ele>
        <time>2016-04-24T08:10:52Z</time>
      </trkpt>
      <trkpt lat="47.41278" lon="6.68259">
        <ele>393</ele>
        <time>2016-04-24T08:10:53Z</time>
      </trkpt>
      <trkpt lat="47.41276" lon="6.68262">
        <ele>393</ele>
        <time>2016-04-24T08:10:54Z</time>
      </trkpt>
      <trkpt lat="47.41273" lon="6.68264">
        <ele>393</ele>
        <time>2016-04-24T08:10:55Z</time>
      </trkpt>
      <trkpt lat="47.41271" lon="6.68267">
        <ele>393</ele>
        <time>2016-04-24T08:10:56Z</time>
      </trkpt>
      <trkpt lat="47.41268" lon="6.68269">
        <ele>393</ele>
        <time>2016-04-24T08:10:57Z</time>
      </trkpt>
      <trkpt lat="47.41266" lon="6.6827">
        <ele>393</ele>
        <time>2016-04-24T08:10:58Z</time>
      </trkpt>
      <trkpt lat="47.41264" lon="6.68272">
        <ele>393</ele>
        <time>2016-04-24T08:10:59Z</time>
      </trkpt>
      <trkpt lat="47.41262" lon="6.68274">
        <ele>393</ele>
        <time>2016-04-24T08:11:00Z</time>
      </trkpt>
      <trkpt lat="47.4126" lon="6.68277">
        <ele>394</ele>
        <time>2016-04-24T08:11:01Z</time>
      </trkpt>
      <trkpt lat="47.41258" lon="6.6828">
        <ele>394</ele>
        <time>2016-04-24T08:11:02Z</time>
      </trkpt>
      <trkpt lat="47.41256" lon="6.68283">
        <ele>394</ele>
        <time>2016-04-24T08:11:03Z</time>
      </trkpt>
      <trkpt lat="47.41254" lon="6.68285">
        <ele>394</ele>
        <time>2016-04-24T08:11:04Z</time>
      </trkpt>
      <trkpt lat="47.41252" lon="6.68288">
        <ele>394</ele>
        <time>2016-04-24T08:11:05Z</time>
      </trkpt>
      <trkpt lat="47.4125" lon="6.6829">
        <ele>392</ele>
        <time>2016-04-24T08:11:06Z</time>
      </trkpt>
      <trkpt lat="47.41248" lon="6.68292">
        <ele>392</ele>
        <time>2016-04-24T08:11:07Z</time>
      </trkpt>
      <trkpt lat="47.41245" lon="6.68295">
        <ele>392</ele>
        <time>2016-04-24T08:11:08Z</time>
      </trkpt>
      <trkpt lat="47.41243" lon="6.68298">
        <ele>392</ele>
        <time>2016-04-24T08:11:09Z</time>
      </trkpt>
      <trkpt lat="47.41241" lon="6.68301">
        <ele>393</ele>
        <time>2016-04-24T08:11:10Z</time>
      </trkpt>
      <trkpt lat="47.41238" lon="6.68303">
        <ele>393</ele>
        <time>2016-04-24T08:11:11Z</time>
      </trkpt>
      <trkpt lat="47.41236" lon="6.68306">
        <ele>393</ele>
        <time>2016-04-24T08:11:12Z</time>
      </trkpt>
      <trkpt lat="47.41233" lon="6.68308">
        <ele>393</ele>
        <time>2016-04-24T08:11:13Z</time>
      </trkpt>
      <trkpt lat="47.41229" lon="6.68311">
        <ele>393</ele>
        <time>2016-04-24T08:11:14Z</time>
      </trkpt>
      <trkpt lat="47.41226" lon="6.68313">
        <ele>393</ele>
        <time>2016-04-24T08:11:15Z</time>
      </trkpt>
      <trkpt lat="47.41223" lon="6.68316">
        <ele>393</ele>
        <time>2016-04-24T08:11:16Z</time>
      </trkpt>
      <trkpt lat="47.41219" lon="6.68318">
        <ele>393</ele>
        <time>2016-04-24T08:11:17Z</time>
      </trkpt>
      <trkpt lat="47.41216" lon="6.68321">
        <ele>393</ele>
        <time>2016-04-24T08:11:18Z</time>
      </trkpt>
      <trkpt lat="47.41214" lon="6.68324">
        <ele>393</ele>
        <time>2016-04-24T08:11:19Z</time>
      </trkpt>
      <trkpt lat="47.41211" lon="6.68326">
        <ele>393</ele>
        <time>2016-04-24T08:11:20Z</time>
      </trkpt>
      <trkpt lat="47.41209" lon="6.68327">
        <ele>393</ele>
        <time>2016-04-24T08:11:21Z</time>
      </trkpt>
      <trkpt lat="47.41206" lon="6.68329">
        <ele>392</ele>
        <time>2016-04-24T08:11:22Z</time>
      </trkpt>
      <trkpt lat="47.41204" lon="6.68332">
        <ele>392</ele>
        <time>2016-04-24T08:11:23Z</time>
      </trkpt>
      <trkpt lat="47.41202" lon="6.68334">
        <ele>398</ele>
        <time>2016-04-24T08:11:24Z</time>
      </trkpt>
      <trkpt lat="47.41201" lon="6.68337">
        <ele>397</ele>
        <time>2016-04-24T08:11:25Z</time>
      </trkpt>
      <trkpt lat="47.41199" lon="6.6834">
        <ele>397</ele>
        <time>2016-04-24T08:11:26Z</time>
      </trkpt>
      <trkpt lat="47.41197" lon="6.68342">
        <ele>397</ele>
        <time>2016-04-24T08:11:27Z</time>
      </trkpt>
      <trkpt lat="47.41195" lon="6.68345">
        <ele>397</ele>
        <time>2016-04-24T08:11:28Z</time>
      </trkpt>
      <trkpt lat="47.41193" lon="6.68347">
        <ele>397</ele>
        <time>2016-04-24T08:11:29Z</time>
      </trkpt>
      <trkpt lat="47.41191" lon="6.68348">
        <ele>397</ele>
        <time>2016-04-24T08:11:30Z</time>
      </trkpt>
      <trkpt lat="47.41188" lon="6.6835">
        <ele>397</ele>
        <time>2016-04-24T08:11:31Z</time>
      </trkpt>
      <trkpt lat="47.41184" lon="6.68352">
        <ele>397</ele>
        <time>2016-04-24T08:11:33Z</time>
      </trkpt>
      <trkpt lat="47.41182" lon="6.68353">
        <ele>397</ele>
        <time>2016-04-24T08:11:34Z</time>
      </trkpt>
      <trkpt lat="47.41178" lon="6.68353">
        <ele>397</ele>
        <time>2016-04-24T08:11:36Z</time>
      </trkpt>
      <trkpt lat="47.41177" lon="6.68354">
        <ele>397</ele>
        <time>2016-04-24T08:11:37Z</time>
      </trkpt>
      <trkpt lat="47.41174" lon="6.68355">
        <ele>397</ele>
        <time>2016-04-24T08:11:39Z</time>
      </trkpt>
      <trkpt lat="47.41172" lon="6.68356">
        <ele>397</ele>
        <time>2016-04-24T08:11:40Z</time>
      </trkpt>
      <trkpt lat="47.4117" lon="6.68356">
        <ele>397</ele>
        <time>2016-04-24T08:11:41Z</time>
      </trkpt>
      <trkpt lat="47.41168" lon="6.68356">
        <ele>397</ele>
        <time>2016-04-24T08:11:42Z</time>
      </trkpt>
      <trkpt lat="47.41165" lon="6.68356">
        <ele>394</ele>
        <time>2016-04-24T08:11:43Z</time>
      </trkpt>
      <trkpt lat="47.41163" lon="6.68356">
        <ele>394</ele>
        <time>2016-04-24T08:11:44Z</time>
      </trkpt>
      <trkpt lat="47.41159" lon="6.68358">
        <ele>395</ele>
        <time>2016-04-24T08:11:46Z</time>
      </trkpt>
      <trkpt lat="47.41158" lon="6.6836">
        <ele>395</ele>
        <time>2016-04-24T08:11:47Z</time>
      </trkpt>
      <trkpt lat="47.41154" lon="6.68362">
        <ele>395</ele>
        <time>2016-04-24T08:11:50Z</time>
      </trkpt>
      <trkpt lat="47.41153" lon="6.68363">
        <ele>395</ele>
        <time>2016-04-24T08:11:51Z</time>
      </trkpt>
      <trkpt lat="47.41149" lon="6.68366">
        <ele>395</ele>
        <time>2016-04-24T08:11:53Z</time>
      </trkpt>
      <trkpt lat="47.41147" lon="6.68369">
        <ele>396</ele>
        <time>2016-04-24T08:11:54Z</time>
      </trkpt>
      <trkpt lat="47.41146" lon="6.68371">
        <ele>396</ele>
        <time>2016-04-24T08:11:55Z</time>
      </trkpt>
      <trkpt lat="47.41144" lon="6.68373">
        <ele>396</ele>
        <time>2016-04-24T08:11:56Z</time>
      </trkpt>
      <trkpt lat="47.41141" lon="6.68377">
        <ele>396</ele>
        <time>2016-04-24T08:11:58Z</time>
      </trkpt>
      <trkpt lat="47.4114" lon="6.68379">
        <ele>396</ele>
        <time>2016-04-24T08:11:59Z</time>
      </trkpt>
      <trkpt lat="47.41137" lon="6.68383">
        <ele>396</ele>
        <time>2016-04-24T08:12:01Z</time>
      </trkpt>
      <trkpt lat="47.41135" lon="6.68385">
        <ele>396</ele>
        <time>2016-04-24T08:12:02Z</time>
      </trkpt>
      <trkpt lat="47.41133" lon="6.68386">
        <ele>396</ele>
        <time>2016-04-24T08:12:03Z</time>
      </trkpt>
      <trkpt lat="47.4113" lon="6.68387">
        <ele>396</ele>
        <time>2016-04-24T08:12:04Z</time>
      </trkpt>
      <trkpt lat="47.41127" lon="6.68386">
        <ele>396</ele>
        <time>2016-04-24T08:12:05Z</time>
      </trkpt>
      <trkpt lat="47.41123" lon="6.68384">
        <ele>396</ele>
        <time>2016-04-24T08:12:06Z</time>
      </trkpt>
      <trkpt lat="47.41118" lon="6.68382">
        <ele>396</ele>
        <time>2016-04-24T08:12:07Z</time>
      </trkpt>
      <trkpt lat="47.41114" lon="6.6838">
        <ele>396</ele>
        <time>2016-04-24T08:12:08Z</time>
      </trkpt>
      <trkpt lat="47.41109" lon="6.68379">
        <ele>396</ele>
        <time>2016-04-24T08:12:09Z</time>
      </trkpt>
      <trkpt lat="47.41105" lon="6.68378">
        <ele>396</ele>
        <time>2016-04-24T08:12:10Z</time>
      </trkpt>
      <trkpt lat="47.41101" lon="6.68379">
        <ele>396</ele>
        <time>2016-04-24T08:12:11Z</time>
      </trkpt>
      <trkpt lat="47.41098" lon="6.68379">
        <ele>396</ele>
        <time>2016-04-24T08:12:12Z</time>
      </trkpt>
      <trkpt lat="47.41095" lon="6.6838">
        <ele>396</ele>
        <time>2016-04-24T08:12:13Z</time>
      </trkpt>
      <trkpt lat="47.41092" lon="6.68381">
        <ele>396</ele>
        <time>2016-04-24T08:12:14Z</time>
      </trkpt>
      <trkpt lat="47.41089" lon="6.68381">
        <ele>396</ele>
        <time>2016-04-24T08:12:15Z</time>
      </trkpt>
      <trkpt lat="47.41085" lon="6.68382">
        <ele>396</ele>
        <time>2016-04-24T08:12:16Z</time>
      </trkpt>
      <trkpt lat="47.41081" lon="6.68382">
        <ele>396</ele>
        <time>2016-04-24T08:12:17Z</time>
      </trkpt>
      <trkpt lat="47.41077" lon="6.68383">
        <ele>396</ele>
        <time>2016-04-24T08:12:18Z</time>
      </trkpt>
      <trkpt lat="47.41073" lon="6.68384">
        <ele>396</ele>
        <time>2016-04-24T08:12:19Z</time>
      </trkpt>
      <trkpt lat="47.41069" lon="6.68384">
        <ele>396</ele>
        <time>2016-04-24T08:12:20Z</time>
      </trkpt>
      <trkpt lat="47.41066" lon="6.68386">
        <ele>396</ele>
        <time>2016-04-24T08:12:21Z</time>
      </trkpt>
      <trkpt lat="47.41064" lon="6.68387">
        <ele>396</ele>
        <time>2016-04-24T08:12:22Z</time>
      </trkpt>
      <trkpt lat="47.41061" lon="6.68388">
        <ele>396</ele>
        <time>2016-04-24T08:12:23Z</time>
      </trkpt>
      <trkpt lat="47.41058" lon="6.68389">
        <ele>396</ele>
        <time>2016-04-24T08:12:24Z</time>
      </trkpt>
      <trkpt lat="47.41056" lon="6.6839">
        <ele>397</ele>
        <time>2016-04-24T08:12:25Z</time>
      </trkpt>
      <trkpt lat="47.41053" lon="6.68391">
        <ele>397</ele>
        <time>2016-04-24T08:12:26Z</time>
      </trkpt>
      <trkpt lat="47.4105" lon="6.68391">
        <ele>397</ele>
        <time>2016-04-24T08:12:27Z</time>
      </trkpt>
      <trkpt lat="47.41048" lon="6.68392">
        <ele>397</ele>
        <time>2016-04-24T08:12:28Z</time>
      </trkpt>
      <trkpt lat="47.41045" lon="6.68393">
        <ele>397</ele>
        <time>2016-04-24T08:12:29Z</time>
      </trkpt>
      <trkpt lat="47.41042" lon="6.68393">
        <ele>397</ele>
        <time>2016-04-24T08:12:30Z</time>
      </trkpt>
      <trkpt lat="47.41039" lon="6.68394">
        <ele>397</ele>
        <time>2016-04-24T08:12:31Z</time>
      </trkpt>
      <trkpt lat="47.41036" lon="6.68394">
        <ele>397</ele>
        <time>2016-04-24T08:12:32Z</time>
      </trkpt>
      <trkpt lat="47.41033" lon="6.68394">
        <ele>397</ele>
        <time>2016-04-24T08:12:33Z</time>
      </trkpt>
      <trkpt lat="47.41031" lon="6.68394">
        <ele>397</ele>
        <time>2016-04-24T08:12:34Z</time>
      </trkpt>
      <trkpt lat="47.41028" lon="6.68394">
        <ele>397</ele>
        <time>2016-04-24T08:12:35Z</time>
      </trkpt>
      <trkpt lat="47.41025" lon="6.68394">
        <ele>397</ele>
        <time>2016-04-24T08:12:36Z</time>
      </trkpt>
      <trkpt lat="47.41023" lon="6.68394">
        <ele>397</ele>
        <time>2016-04-24T08:12:37Z</time>
      </trkpt>
      <trkpt lat="47.4102" lon="6.68394">
        <ele>397</ele>
        <time>2016-04-24T08:12:38Z</time>
      </trkpt>
      <trkpt lat="47.41017" lon="6.68393">
        <ele>398</ele>
        <time>2016-04-24T08:12:39Z</time>
      </trkpt>
      <trkpt lat="47.41015" lon="6.68392">
        <ele>398</ele>
        <time>2016-04-24T08:12:40Z</time>
      </trkpt>
      <trkpt lat="47.41013" lon="6.68392">
        <ele>398</ele>
        <time>2016-04-24T08:12:41Z</time>
      </trkpt>
      <trkpt lat="47.4101" lon="6.68391">
        <ele>398</ele>
        <time>2016-04-24T08:12:42Z</time>
      </trkpt>
      <trkpt lat="47.41007" lon="6.6839">
        <ele>398</ele>
        <time>2016-04-24T08:12:43Z</time>
      </trkpt>
      <trkpt lat="47.41005" lon="6.68389">
        <ele>398</ele>
        <time>2016-04-24T08:12:44Z</time>
      </trkpt>
      <trkpt lat="47.41002" lon="6.68387">
        <ele>398</ele>
        <time>2016-04-24T08:12:45Z</time>
      </trkpt>
      <trkpt lat="47.40998" lon="6.68384">
        <ele>401</ele>
        <time>2016-04-24T08:12:47Z</time>
      </trkpt>
      <trkpt lat="47.40997" lon="6.68383">
        <ele>401</ele>
        <time>2016-04-24T08:12:48Z</time>
      </trkpt>
      <trkpt lat="47.40994" lon="6.68383">
        <ele>402</ele>
        <time>2016-04-24T08:12:49Z</time>
      </trkpt>
      <trkpt lat="47.40992" lon="6.68383">
        <ele>402</ele>
        <time>2016-04-24T08:12:50Z</time>
      </trkpt>
      <trkpt lat="47.40988" lon="6.68383">
        <ele>402</ele>
        <time>2016-04-24T08:12:51Z</time>
      </trkpt>
      <trkpt lat="47.40985" lon="6.68382">
        <ele>402</ele>
        <time>2016-04-24T08:12:52Z</time>
      </trkpt>
      <trkpt lat="47.40982" lon="6.68382">
        <ele>402</ele>
        <time>2016-04-24T08:12:53Z</time>
      </trkpt>
      <trkpt lat="47.40979" lon="6.68382">
        <ele>402</ele>
        <time>2016-04-24T08:12:54Z</time>
      </trkpt>
      <trkpt lat="47.40976" lon="6.68381">
        <ele>402</ele>
        <time>2016-04-24T08:12:55Z</time>
      </trkpt>
      <trkpt lat="47.40974" lon="6.6838">
        <ele>402</ele>
        <time>2016-04-24T08:12:56Z</time>
      </trkpt>
      <trkpt lat="47.4097" lon="6.68377">
        <ele>402</ele>
        <time>2016-04-24T08:12:58Z</time>
      </trkpt>
      <trkpt lat="47.40969" lon="6.68376">
        <ele>403</ele>
        <time>2016-04-24T08:12:59Z</time>
      </trkpt>
      <trkpt lat="47.40965" lon="6.68373">
        <ele>403</ele>
        <time>2016-04-24T08:13:02Z</time>
      </trkpt>
      <trkpt lat="47.40963" lon="6.68373">
        <ele>403</ele>
        <time>2016-04-24T08:13:03Z</time>
      </trkpt>
      <trkpt lat="47.40959" lon="6.68373">
        <ele>403</ele>
        <time>2016-04-24T08:13:05Z</time>
      </trkpt>
      <trkpt lat="47.40957" lon="6.68374">
        <ele>403</ele>
        <time>2016-04-24T08:13:06Z</time>
      </trkpt>
      <trkpt lat="47.40953" lon="6.68375">
        <ele>403</ele>
        <time>2016-04-24T08:13:08Z</time>
      </trkpt>
      <trkpt lat="47.40951" lon="6.68375">
        <ele>403</ele>
        <time>2016-04-24T08:13:09Z</time>
      </trkpt>
      <trkpt lat="47.40949" lon="6.68376">
        <ele>403</ele>
        <time>2016-04-24T08:13:10Z</time>
      </trkpt>
      <trkpt lat="47.40946" lon="6.68376">
        <ele>404</ele>
        <time>2016-04-24T08:13:11Z</time>
      </trkpt>
      <trkpt lat="47.40942" lon="6.68377">
        <ele>404</ele>
        <time>2016-04-24T08:13:13Z</time>
      </trkpt>
      <trkpt lat="47.4094" lon="6.68377">
        <ele>404</ele>
        <time>2016-04-24T08:13:14Z</time>
      </trkpt>
      <trkpt lat="47.40937" lon="6.68378">
        <ele>404</ele>
        <time>2016-04-24T08:13:16Z</time>
      </trkpt>
      <trkpt lat="47.40935" lon="6.68379">
        <ele>404</ele>
        <time>2016-04-24T08:13:17Z</time>
      </trkpt>
      <trkpt lat="47.40932" lon="6.6838">
        <ele>404</ele>
        <time>2016-04-24T08:13:19Z</time>
      </trkpt>
      <trkpt lat="47.4093" lon="6.6838">
        <ele>404</ele>
        <time>2016-04-24T08:13:20Z</time>
      </trkpt>
      <trkpt lat="47.40926" lon="6.6838">
        <ele>404</ele>
        <time>2016-04-24T08:13:22Z</time>
      </trkpt>
      <trkpt lat="47.40924" lon="6.6838">
        <ele>404</ele>
        <time>2016-04-24T08:13:23Z</time>
      </trkpt>
      <trkpt lat="47.4092" lon="6.6838">
        <ele>405</ele>
        <time>2016-04-24T08:13:25Z</time>
      </trkpt>
      <trkpt lat="47.40918" lon="6.6838">
        <ele>405</ele>
        <time>2016-04-24T08:13:26Z</time>
      </trkpt>
      <trkpt lat="47.40915" lon="6.68379">
        <ele>409</ele>
        <time>2016-04-24T08:13:28Z</time>
      </trkpt>
      <trkpt lat="47.40913" lon="6.68379">
        <ele>409</ele>
        <time>2016-04-24T08:13:29Z</time>
      </trkpt>
      <trkpt lat="47.40909" lon="6.68378">
        <ele>409</ele>
        <time>2016-04-24T08:13:31Z</time>
      </trkpt>
      <trkpt lat="47.40907" lon="6.68377">
        <ele>409</ele>
        <time>2016-04-24T08:13:32Z</time>
      </trkpt>
      <trkpt lat="47.40905" lon="6.68377">
        <ele>409</ele>
        <time>2016-04-24T08:13:33Z</time>
      </trkpt>
      <trkpt lat="47.40902" lon="6.68376">
        <ele>409</ele>
        <time>2016-04-24T08:13:34Z</time>
      </trkpt>
      <trkpt lat="47.409" lon="6.68376">
        <ele>409</ele>
        <time>2016-04-24T08:13:35Z</time>
      </trkpt>
      <trkpt lat="47.40898" lon="6.68375">
        <ele>409</ele>
        <time>2016-04-24T08:13:36Z</time>
      </trkpt>
      <trkpt lat="47.40894" lon="6.68374">
        <ele>409</ele>
        <time>2016-04-24T08:13:38Z</time>
      </trkpt>
      <trkpt lat="47.40892" lon="6.68373">
        <ele>409</ele>
        <time>2016-04-24T08:13:39Z</time>
      </trkpt>
      <trkpt lat="47.4089" lon="6.68372">
        <ele>409</ele>
        <time>2016-04-24T08:13:40Z</time>
      </trkpt>
      <trkpt lat="47.40887" lon="6.68371">
        <ele>410</ele>
        <time>2016-04-24T08:13:41Z</time>
      </trkpt>
      <trkpt lat="47.40883" lon="6.6837">
        <ele>410</ele>
        <time>2016-04-24T08:13:43Z</time>
      </trkpt>
      <trkpt lat="47.40882" lon="6.68369">
        <ele>410</ele>
        <time>2016-04-24T08:13:44Z</time>
      </trkpt>
      <trkpt lat="47.40878" lon="6.68367">
        <ele>410</ele>
        <time>2016-04-24T08:13:47Z</time>
      </trkpt>
      <trkpt lat="47.40876" lon="6.68366">
        <ele>410</ele>
        <time>2016-04-24T08:13:48Z</time>
      </trkpt>
      <trkpt lat="47.40872" lon="6.68365">
        <ele>410</ele>
        <time>2016-04-24T08:13:51Z</time>
      </trkpt>
      <trkpt lat="47.4087" lon="6.68364">
        <ele>410</ele>
        <time>2016-04-24T08:13:52Z</time>
      </trkpt>
      <trkpt lat="47.40867" lon="6.68365">
        <ele>410</ele>
        <time>2016-04-24T08:13:58Z</time>
      </trkpt>
      <trkpt lat="47.40866" lon="6.68366">
        <ele>410</ele>
        <time>2016-04-24T08:13:59Z</time>
      </trkpt>
      <trkpt lat="47.40861" lon="6.68368">
        <ele>410</ele>
        <time>2016-04-24T08:14:02Z</time>
      </trkpt>
      <trkpt lat="47.4086" lon="6.68369">
        <ele>410</ele>
        <time>2016-04-24T08:14:03Z</time>
      </trkpt>
      <trkpt lat="47.40856" lon="6.6837">
        <ele>411</ele>
        <time>2016-04-24T08:14:05Z</time>
      </trkpt>
      <trkpt lat="47.40855" lon="6.6837">
        <ele>411</ele>
        <time>2016-04-24T08:14:06Z</time>
      </trkpt>
      <trkpt lat="47.40851" lon="6.6837">
        <ele>411</ele>
        <time>2016-04-24T08:14:09Z</time>
      </trkpt>
      <trkpt lat="47.4085" lon="6.6837">
        <ele>411</ele>
        <time>2016-04-24T08:14:10Z</time>
      </trkpt>
      <trkpt lat="47.40847" lon="6.68369">
        <ele>411</ele>
        <time>2016-04-24T08:14:12Z</time>
      </trkpt>
      <trkpt lat="47.40845" lon="6.68369">
        <ele>411</ele>
        <time>2016-04-24T08:14:13Z</time>
      </trkpt>
      <trkpt lat="47.40841" lon="6.6837">
        <ele>411</ele>
        <time>2016-04-24T08:14:15Z</time>
      </trkpt>
      <trkpt lat="47.40839" lon="6.6837">
        <ele>411</ele>
        <time>2016-04-24T08:14:16Z</time>
      </trkpt>
      <trkpt lat="47.40835" lon="6.6837">
        <ele>411</ele>
        <time>2016-04-24T08:14:18Z</time>
      </trkpt>
      <trkpt lat="47.40834" lon="6.68371">
        <ele>411</ele>
        <time>2016-04-24T08:14:19Z</time>
      </trkpt>
      <trkpt lat="47.4083" lon="6.68373">
        <ele>415</ele>
        <time>2016-04-24T08:14:23Z</time>
      </trkpt>
      <trkpt lat="47.40829" lon="6.68372">
        <ele>415</ele>
        <time>2016-04-24T08:14:24Z</time>
      </trkpt>
      <trkpt lat="47.40826" lon="6.68368">
        <ele>415</ele>
        <time>2016-04-24T08:14:26Z</time>
      </trkpt>
      <trkpt lat="47.40824" lon="6.68365">
        <ele>415</ele>
        <time>2016-04-24T08:14:27Z</time>
      </trkpt>
      <trkpt lat="47.40822" lon="6.68362">
        <ele>415</ele>
        <time>2016-04-24T08:14:28Z</time>
      </trkpt>
      <trkpt lat="47.4082" lon="6.6836">
        <ele>415</ele>
        <time>2016-04-24T08:14:29Z</time>
      </trkpt>
      <trkpt lat="47.40817" lon="6.68358">
        <ele>415</ele>
        <time>2016-04-24T08:14:30Z</time>
      </trkpt>
      <trkpt lat="47.40814" lon="6.68357">
        <ele>415</ele>
        <time>2016-04-24T08:14:31Z</time>
      </trkpt>
      <trkpt lat="47.40811" lon="6.68355">
        <ele>416</ele>
        <time>2016-04-24T08:14:32Z</time>
      </trkpt>
      <trkpt lat="47.40807" lon="6.68352">
        <ele>416</ele>
        <time>2016-04-24T08:14:33Z</time>
      </trkpt>
      <trkpt lat="47.40804" lon="6.6835">
        <ele>416</ele>
        <time>2016-04-24T08:14:34Z</time>
      </trkpt>
      <trkpt lat="47.40801" lon="6.68349">
        <ele>416</ele>
        <time>2016-04-24T08:14:35Z</time>
      </trkpt>
      <trkpt lat="47.40798" lon="6.68347">
        <ele>416</ele>
        <time>2016-04-24T08:14:36Z</time>
      </trkpt>
      <trkpt lat="47.40795" lon="6.68346">
        <ele>416</ele>
        <time>2016-04-24T08:14:37Z</time>
      </trkpt>
      <trkpt lat="47.40793" lon="6.68345">
        <ele>416</ele>
        <time>2016-04-24T08:14:38Z</time>
      </trkpt>
      <trkpt lat="47.4079" lon="6.68344">
        <ele>417</ele>
        <time>2016-04-24T08:14:39Z</time>
      </trkpt>
      <trkpt lat="47.40786" lon="6.68343">
        <ele>417</ele>
        <time>2016-04-24T08:14:41Z</time>
      </trkpt>
      <trkpt lat="47.40783" lon="6.68343">
        <ele>417</ele>
        <time>2016-04-24T08:14:42Z</time>
      </trkpt>
      <trkpt lat="47.4078" lon="6.68343">
        <ele>417</ele>
        <time>2016-04-24T08:14:43Z</time>
      </trkpt>
      <trkpt lat="47.40778" lon="6.68344">
        <ele>417</ele>
        <time>2016-04-24T08:14:44Z</time>
      </trkpt>
      <trkpt lat="47.40773" lon="6.68345">
        <ele>418</ele>
        <time>2016-04-24T08:14:46Z</time>
      </trkpt>
      <trkpt lat="47.40771" lon="6.68345">
        <ele>418</ele>
        <time>2016-04-24T08:14:47Z</time>
      </trkpt>
      <trkpt lat="47.40768" lon="6.68346">
        <ele>418</ele>
        <time>2016-04-24T08:14:49Z</time>
      </trkpt>
      <trkpt lat="47.40766" lon="6.68346">
        <ele>418</ele>
        <time>2016-04-24T08:14:50Z</time>
      </trkpt>
      <trkpt lat="47.40761" lon="6.68348">
        <ele>418</ele>
        <time>2016-04-24T08:14:52Z</time>
      </trkpt>
      <trkpt lat="47.40759" lon="6.68348">
        <ele>418</ele>
        <time>2016-04-24T08:14:53Z</time>
      </trkpt>
      <trkpt lat="47.40755" lon="6.68351">
        <ele>418</ele>
        <time>2016-04-24T08:14:55Z</time>
      </trkpt>
      <trkpt lat="47.40753" lon="6.68353">
        <ele>418</ele>
        <time>2016-04-24T08:14:56Z</time>
      </trkpt>
      <trkpt lat="47.40751" lon="6.68357">
        <ele>418</ele>
        <time>2016-04-24T08:14:58Z</time>
      </trkpt>
      <trkpt lat="47.4075" lon="6.68358">
        <ele>418</ele>
        <time>2016-04-24T08:14:59Z</time>
      </trkpt>
      <trkpt lat="47.40751" lon="6.68364">
        <ele>418</ele>
        <time>2016-04-24T08:15:04Z</time>
      </trkpt>
      <trkpt lat="47.4075" lon="6.68366">
        <ele>423</ele>
        <time>2016-04-24T08:15:05Z</time>
      </trkpt>
      <trkpt lat="47.40749" lon="6.68371">
        <ele>423</ele>
        <time>2016-04-24T08:15:07Z</time>
      </trkpt>
      <trkpt lat="47.4075" lon="6.68374">
        <ele>423</ele>
        <time>2016-04-24T08:15:08Z</time>
      </trkpt>
      <trkpt lat="47.40749" lon="6.6838">
        <ele>424</ele>
        <time>2016-04-24T08:15:10Z</time>
      </trkpt>
      <trkpt lat="47.40749" lon="6.68383">
        <ele>424</ele>
        <time>2016-04-24T08:15:11Z</time>
      </trkpt>
      <trkpt lat="47.40751" lon="6.68387">
        <ele>419</ele>
        <time>2016-04-24T08:15:14Z</time>
      </trkpt>
      <trkpt lat="47.40751" lon="6.68389">
        <ele>419</ele>
        <time>2016-04-24T08:15:15Z</time>
      </trkpt>
      <trkpt lat="47.40754" lon="6.68394">
        <ele>420</ele>
        <time>2016-04-24T08:15:17Z</time>
      </trkpt>
      <trkpt lat="47.40754" lon="6.68396">
        <ele>420</ele>
        <time>2016-04-24T08:15:18Z</time>
      </trkpt>
      <trkpt lat="47.40755" lon="6.68401">
        <ele>420</ele>
        <time>2016-04-24T08:15:22Z</time>
      </trkpt>
      <trkpt lat="47.40756" lon="6.68403">
        <ele>420</ele>
        <time>2016-04-24T08:15:23Z</time>
      </trkpt>
      <trkpt lat="47.40756" lon="6.68409">
        <ele>421</ele>
        <time>2016-04-24T08:15:25Z</time>
      </trkpt>
      <trkpt lat="47.40756" lon="6.68412">
        <ele>421</ele>
        <time>2016-04-24T08:15:26Z</time>
      </trkpt>
      <trkpt lat="47.40756" lon="6.68418">
        <ele>423</ele>
        <time>2016-04-24T08:15:28Z</time>
      </trkpt>
      <trkpt lat="47.40756" lon="6.68421">
        <ele>423</ele>
        <time>2016-04-24T08:15:29Z</time>
      </trkpt>
      <trkpt lat="47.40757" lon="6.68424">
        <ele>423</ele>
        <time>2016-04-24T08:15:30Z</time>
      </trkpt>
      <trkpt lat="47.40758" lon="6.68427">
        <ele>423</ele>
        <time>2016-04-24T08:15:31Z</time>
      </trkpt>
      <trkpt lat="47.40759" lon="6.68431">
        <ele>423</ele>
        <time>2016-04-24T08:15:33Z</time>
      </trkpt>
      <trkpt lat="47.40759" lon="6.68433">
        <ele>423</ele>
        <time>2016-04-24T08:15:34Z</time>
      </trkpt>
      <trkpt lat="47.40758" lon="6.68438">
        <ele>423</ele>
        <time>2016-04-24T08:15:36Z</time>
      </trkpt>
      <trkpt lat="47.40758" lon="6.68441">
        <ele>423</ele>
        <time>2016-04-24T08:15:37Z</time>
      </trkpt>
      <trkpt lat="47.40759" lon="6.68444">
        <ele>423</ele>
        <time>2016-04-24T08:15:38Z</time>
      </trkpt>
      <trkpt lat="47.40759" lon="6.68448">
        <ele>423</ele>
        <time>2016-04-24T08:15:39Z</time>
      </trkpt>
      <trkpt lat="47.4076" lon="6.68451">
        <ele>423</ele>
        <time>2016-04-24T08:15:40Z</time>
      </trkpt>
      <trkpt lat="47.40761" lon="6.68455">
        <ele>423</ele>
        <time>2016-04-24T08:15:41Z</time>
      </trkpt>
      <trkpt lat="47.40762" lon="6.68458">
        <ele>424</ele>
        <time>2016-04-24T08:15:42Z</time>
      </trkpt>
      <trkpt lat="47.40763" lon="6.68461">
        <ele>424</ele>
        <time>2016-04-24T08:15:43Z</time>
      </trkpt>
      <trkpt lat="47.40765" lon="6.68466">
        <ele>424</ele>
        <time>2016-04-24T08:15:45Z</time>
      </trkpt>
      <trkpt lat="47.40765" lon="6.68468">
        <ele>424</ele>
        <time>2016-04-24T08:15:46Z</time>
      </trkpt>
      <trkpt lat="47.40765" lon="6.68474">
        <ele>425</ele>
        <time>2016-04-24T08:15:50Z</time>
      </trkpt>
      <trkpt lat="47.40765" lon="6.68476">
        <ele>425</ele>
        <time>2016-04-24T08:15:51Z</time>
      </trkpt>
      <trkpt lat="47.40765" lon="6.68482">
        <ele>425</ele>
        <time>2016-04-24T08:15:54Z</time>
      </trkpt>
      <trkpt lat="47.40765" lon="6.68483">
        <ele>425</ele>
        <time>2016-04-24T08:15:55Z</time>
      </trkpt>
      <trkpt lat="47.40765" lon="6.68489">
        <ele>426</ele>
        <time>2016-04-24T08:15:58Z</time>
      </trkpt>
      <trkpt lat="47.40765" lon="6.68491">
        <ele>426</ele>
        <time>2016-04-24T08:15:59Z</time>
      </trkpt>
      <trkpt lat="47.40763" lon="6.68496">
        <ele>426</ele>
        <time>2016-04-24T08:16:01Z</time>
      </trkpt>
      <trkpt lat="47.40763" lon="6.68498">
        <ele>426</ele>
        <time>2016-04-24T08:16:02Z</time>
      </trkpt>
      <trkpt lat="47.40763" lon="6.68503">
        <ele>429</ele>
        <time>2016-04-24T08:16:04Z</time>
      </trkpt>
      <trkpt lat="47.40764" lon="6.68506">
        <ele>429</ele>
        <time>2016-04-24T08:16:05Z</time>
      </trkpt>
      <trkpt lat="47.40765" lon="6.68512">
        <ele>429</ele>
        <time>2016-04-24T08:16:07Z</time>
      </trkpt>
      <trkpt lat="47.40765" lon="6.68514">
        <ele>429</ele>
        <time>2016-04-24T08:16:08Z</time>
      </trkpt>
      <trkpt lat="47.40765" lon="6.68518">
        <ele>429</ele>
        <time>2016-04-24T08:16:10Z</time>
      </trkpt>
      <trkpt lat="47.40765" lon="6.68521">
        <ele>430</ele>
        <time>2016-04-24T08:16:11Z</time>
      </trkpt>
      <trkpt lat="47.40764" lon="6.68527">
        <ele>430</ele>
        <time>2016-04-24T08:16:13Z</time>
      </trkpt>
      <trkpt lat="47.40764" lon="6.68529">
        <ele>430</ele>
        <time>2016-04-24T08:16:14Z</time>
      </trkpt>
      <trkpt lat="47.40763" lon="6.68534">
        <ele>430</ele>
        <time>2016-04-24T08:16:17Z</time>
      </trkpt>
      <trkpt lat="47.40764" lon="6.68537">
        <ele>430</ele>
        <time>2016-04-24T08:16:18Z</time>
      </trkpt>
      <trkpt lat="47.40764" lon="6.68541">
        <ele>430</ele>
        <time>2016-04-24T08:16:20Z</time>
      </trkpt>
      <trkpt lat="47.40764" lon="6.68545">
        <ele>431</ele>
        <time>2016-04-24T08:16:21Z</time>
      </trkpt>
      <trkpt lat="47.40764" lon="6.6855">
        <ele>431</ele>
        <time>2016-04-24T08:16:23Z</time>
      </trkpt>
      <trkpt lat="47.40763" lon="6.68552">
        <ele>431</ele>
        <time>2016-04-24T08:16:24Z</time>
      </trkpt>
      <trkpt lat="47.40764" lon="6.68556">
        <ele>431</ele>
        <time>2016-04-24T08:16:26Z</time>
      </trkpt>
      <trkpt lat="47.40764" lon="6.68559">
        <ele>431</ele>
        <time>2016-04-24T08:16:27Z</time>
      </trkpt>
      <trkpt lat="47.40766" lon="6.68563">
        <ele>432</ele>
        <time>2016-04-24T08:16:29Z</time>
      </trkpt>
      <trkpt lat="47.40766" lon="6.68565">
        <ele>432</ele>
        <time>2016-04-24T08:16:30Z</time>
      </trkpt>
      <trkpt lat="47.40768" lon="6.68569">
        <ele>432</ele>
        <time>2016-04-24T08:16:32Z</time>
      </trkpt>
      <trkpt lat="47.40768" lon="6.68571">
        <ele>432</ele>
        <time>2016-04-24T08:16:33Z</time>
      </trkpt>
      <trkpt lat="47.4077" lon="6.68576">
        <ele>432</ele>
        <time>2016-04-24T08:16:35Z</time>
      </trkpt>
      <trkpt lat="47.4077" lon="6.68578">
        <ele>432</ele>
        <time>2016-04-24T08:16:36Z</time>
      </trkpt>
      <trkpt lat="47.40767" lon="6.68584">
        <ele>436</ele>
        <time>2016-04-24T08:16:39Z</time>
      </trkpt>
      <trkpt lat="47.40767" lon="6.68586">
        <ele>436</ele>
        <time>2016-04-24T08:16:40Z</time>
      </trkpt>
      <trkpt lat="47.40766" lon="6.68591">
        <ele>436</ele>
        <time>2016-04-24T08:16:42Z</time>
      </trkpt>
      <trkpt lat="47.40766" lon="6.68594">
        <ele>436</ele>
        <time>2016-04-24T08:16:43Z</time>
      </trkpt>
      <trkpt lat="47.40766" lon="6.68598">
        <ele>437</ele>
        <time>2016-04-24T08:16:45Z</time>
      </trkpt>
      <trkpt lat="47.40766" lon="6.68601">
        <ele>437</ele>
        <time>2016-04-24T08:16:46Z</time>
      </trkpt>
      <trkpt lat="47.40765" lon="6.68606">
        <ele>437</ele>
        <time>2016-04-24T08:16:49Z</time>
      </trkpt>
      <trkpt lat="47.40765" lon="6.68607">
        <ele>437</ele>
        <time>2016-04-24T08:16:50Z</time>
      </trkpt>
      <trkpt lat="47.40766" lon="6.68613">
        <ele>438</ele>
        <time>2016-04-24T08:16:53Z</time>
      </trkpt>
      <trkpt lat="47.40767" lon="6.68615">
        <ele>438</ele>
        <time>2016-04-24T08:16:54Z</time>
      </trkpt>
      <trkpt lat="47.40767" lon="6.6862">
        <ele>438</ele>
        <time>2016-04-24T08:16:57Z</time>
      </trkpt>
      <trkpt lat="47.40767" lon="6.68622">
        <ele>438</ele>
        <time>2016-04-24T08:16:58Z</time>
      </trkpt>
      <trkpt lat="47.40769" lon="6.68627">
        <ele>439</ele>
        <time>2016-04-24T08:17:00Z</time>
      </trkpt>
      <trkpt lat="47.40769" lon="6.6863">
        <ele>439</ele>
        <time>2016-04-24T08:17:01Z</time>
      </trkpt>
      <trkpt lat="47.40769" lon="6.68635">
        <ele>439</ele>
        <time>2016-04-24T08:17:03Z</time>
      </trkpt>
      <trkpt lat="47.40768" lon="6.68638">
        <ele>439</ele>
        <time>2016-04-24T08:17:04Z</time>
      </trkpt>
      <trkpt lat="47.40768" lon="6.68644">
        <ele>440</ele>
        <time>2016-04-24T08:17:07Z</time>
      </trkpt>
      <trkpt lat="47.40768" lon="6.68646">
        <ele>440</ele>
        <time>2016-04-24T08:17:08Z</time>
      </trkpt>
      <trkpt lat="47.40768" lon="6.68651">
        <ele>440</ele>
        <time>2016-04-24T08:17:10Z</time>
      </trkpt>
      <trkpt lat="47.40768" lon="6.68653">
        <ele>441</ele>
        <time>2016-04-24T08:17:11Z</time>
      </trkpt>
      <trkpt lat="47.40768" lon="6.68659">
        <ele>441</ele>
        <time>2016-04-24T08:17:14Z</time>
      </trkpt>
      <trkpt lat="47.40768" lon="6.68661">
        <ele>441</ele>
        <time>2016-04-24T08:17:15Z</time>
      </trkpt>
      <trkpt lat="47.40768" lon="6.68668">
        <ele>446</ele>
        <time>2016-04-24T08:17:19Z</time>
      </trkpt>
      <trkpt lat="47.40768" lon="6.68669">
        <ele>446</ele>
        <time>2016-04-24T08:17:20Z</time>
      </trkpt>
      <trkpt lat="47.40768" lon="6.68675">
        <ele>446</ele>
        <time>2016-04-24T08:17:24Z</time>
      </trkpt>
      <trkpt lat="47.40769" lon="6.68677">
        <ele>446</ele>
        <time>2016-04-24T08:17:25Z</time>
      </trkpt>
      <trkpt lat="47.4077" lon="6.68682">
        <ele>446</ele>
        <time>2016-04-24T08:17:27Z</time>
      </trkpt>
      <trkpt lat="47.40771" lon="6.68684">
        <ele>446</ele>
        <time>2016-04-24T08:17:28Z</time>
      </trkpt>
      <trkpt lat="47.40771" lon="6.68689">
        <ele>447</ele>
        <time>2016-04-24T08:17:32Z</time>
      </trkpt>
      <trkpt lat="47.40771" lon="6.68691">
        <ele>447</ele>
        <time>2016-04-24T08:17:33Z</time>
      </trkpt>
      <trkpt lat="47.40771" lon="6.68697">
        <ele>447</ele>
        <time>2016-04-24T08:17:37Z</time>
      </trkpt>
      <trkpt lat="47.40771" lon="6.68698">
        <ele>447</ele>
        <time>2016-04-24T08:17:38Z</time>
      </trkpt>
      <trkpt lat="47.4077" lon="6.68703">
        <ele>448</ele>
        <time>2016-04-24T08:17:43Z</time>
      </trkpt>
      <trkpt lat="47.4077" lon="6.68704">
        <ele>448</ele>
        <time>2016-04-24T08:17:44Z</time>
      </trkpt>
      <trkpt lat="47.40767" lon="6.6871">
        <ele>448</ele>
        <time>2016-04-24T08:17:54Z</time>
      </trkpt>
      <trkpt lat="47.40766" lon="6.6871">
        <ele>448</ele>
        <time>2016-04-24T08:17:55Z</time>
      </trkpt>
      <trkpt lat="47.40763" lon="6.68711">
        <ele>448</ele>
        <time>2016-04-24T08:17:58Z</time>
      </trkpt>
      <trkpt lat="47.40762" lon="6.68712">
        <ele>448</ele>
        <time>2016-04-24T08:17:59Z</time>
      </trkpt>
      <trkpt lat="47.40758" lon="6.68713">
        <ele>448</ele>
        <time>2016-04-24T08:18:02Z</time>
      </trkpt>
      <trkpt lat="47.40756" lon="6.68713">
        <ele>448</ele>
        <time>2016-04-24T08:18:03Z</time>
      </trkpt>
      <trkpt lat="47.40752" lon="6.68712">
        <ele>448</ele>
        <time>2016-04-24T08:18:17Z</time>
      </trkpt>
      <trkpt lat="47.40751" lon="6.68712">
        <ele>448</ele>
        <time>2016-04-24T08:18:18Z</time>
      </trkpt>
      <trkpt lat="47.40749" lon="6.68708">
        <ele>451</ele>
        <time>2016-04-24T08:18:27Z</time>
      </trkpt>
      <trkpt lat="47.40748" lon="6.68708">
        <ele>451</ele>
        <time>2016-04-24T08:18:28Z</time>
      </trkpt>
      <trkpt lat="47.40744" lon="6.68706">
        <ele>451</ele>
        <time>2016-04-24T08:18:32Z</time>
      </trkpt>
      <trkpt lat="47.40743" lon="6.68707">
        <ele>451</ele>
        <time>2016-04-24T08:18:33Z</time>
      </trkpt>
      <trkpt lat="47.40739" lon="6.68706">
        <ele>451</ele>
        <time>2016-04-24T08:18:40Z</time>
      </trkpt>
      <trkpt lat="47.40738" lon="6.68706">
        <ele>451</ele>
        <time>2016-04-24T08:18:41Z</time>
      </trkpt>
      <trkpt lat="47.40734" lon="6.68706">
        <ele>451</ele>
        <time>2016-04-24T08:18:45Z</time>
      </trkpt>
      <trkpt lat="47.40733" lon="6.68706">
        <ele>451</ele>
        <time>2016-04-24T08:18:46Z</time>
      </trkpt>
      <trkpt lat="47.40729" lon="6.68705">
        <ele>451</ele>
        <time>2016-04-24T08:18:51Z</time>
      </trkpt>
      <trkpt lat="47.40729" lon="6.68705">
        <ele>451</ele>
        <time>2016-04-24T08:18:52Z</time>
      </trkpt>
      <trkpt lat="47.40725" lon="6.68704">
        <ele>451</ele>
        <time>2016-04-24T08:18:54Z</time>
      </trkpt>
      <trkpt lat="47.40724" lon="6.68704">
        <ele>452</ele>
        <time>2016-04-24T08:18:55Z</time>
      </trkpt>
      <trkpt lat="47.40721" lon="6.68706">
        <ele>452</ele>
        <time>2016-04-24T08:19:00Z</time>
      </trkpt>
      <trkpt lat="47.4072" lon="6.68707">
        <ele>452</ele>
        <time>2016-04-24T08:19:01Z</time>
      </trkpt>
      <trkpt lat="47.40716" lon="6.68707">
        <ele>452</ele>
        <time>2016-04-24T08:19:03Z</time>
      </trkpt>
      <trkpt lat="47.40714" lon="6.68707">
        <ele>452</ele>
        <time>2016-04-24T08:19:04Z</time>
      </trkpt>
      <trkpt lat="47.4071" lon="6.68705">
        <ele>452</ele>
        <time>2016-04-24T08:19:07Z</time>
      </trkpt>
      <trkpt lat="47.40708" lon="6.68705">
        <ele>452</ele>
        <time>2016-04-24T08:19:08Z</time>
      </trkpt>
      <trkpt lat="47.40704" lon="6.68703">
        <ele>453</ele>
        <time>2016-04-24T08:19:11Z</time>
      </trkpt>
      <trkpt lat="47.40702" lon="6.68703">
        <ele>453</ele>
        <time>2016-04-24T08:19:12Z</time>
      </trkpt>
      <trkpt lat="47.40698" lon="6.68701">
        <ele>453</ele>
        <time>2016-04-24T08:19:15Z</time>
      </trkpt>
      <trkpt lat="47.40697" lon="6.68701">
        <ele>453</ele>
        <time>2016-04-24T08:19:16Z</time>
      </trkpt>
      <trkpt lat="47.40693" lon="6.68703">
        <ele>453</ele>
        <time>2016-04-24T08:19:21Z</time>
      </trkpt>
      <trkpt lat="47.40692" lon="6.68704">
        <ele>453</ele>
        <time>2016-04-24T08:19:22Z</time>
      </trkpt>
      <trkpt lat="47.40689" lon="6.68706">
        <ele>453</ele>
        <time>2016-04-24T08:19:25Z</time>
      </trkpt>
      <trkpt lat="47.40687" lon="6.68706">
        <ele>453</ele>
        <time>2016-04-24T08:19:26Z</time>
      </trkpt>
      <trkpt lat="47.40684" lon="6.6871">
        <ele>454</ele>
        <time>2016-04-24T08:19:29Z</time>
      </trkpt>
      <trkpt lat="47.40684" lon="6.68711">
        <ele>454</ele>
        <time>2016-04-24T08:19:30Z</time>
      </trkpt>
      <trkpt lat="47.40681" lon="6.68715">
        <ele>454</ele>
        <time>2016-04-24T08:19:33Z</time>
      </trkpt>
      <trkpt lat="47.4068" lon="6.68716">
        <ele>454</ele>
        <time>2016-04-24T08:19:34Z</time>
      </trkpt>
      <trkpt lat="47.40678" lon="6.6872">
        <ele>454</ele>
        <time>2016-04-24T08:19:37Z</time>
      </trkpt>
      <trkpt lat="47.40677" lon="6.68722">
        <ele>455</ele>
        <time>2016-04-24T08:19:38Z</time>
      </trkpt>
      <trkpt lat="47.40676" lon="6.68727">
        <ele>455</ele>
        <time>2016-04-24T08:19:41Z</time>
      </trkpt>
      <trkpt lat="47.40676" lon="6.68729">
        <ele>455</ele>
        <time>2016-04-24T08:19:42Z</time>
      </trkpt>
      <trkpt lat="47.40675" lon="6.68735">
        <ele>456</ele>
        <time>2016-04-24T08:19:45Z</time>
      </trkpt>
      <trkpt lat="47.40675" lon="6.68737">
        <ele>456</ele>
        <time>2016-04-24T08:19:46Z</time>
      </trkpt>
      <trkpt lat="47.40674" lon="6.68743">
        <ele>457</ele>
        <time>2016-04-24T08:19:50Z</time>
      </trkpt>
      <trkpt lat="47.40674" lon="6.68744">
        <ele>457</ele>
        <time>2016-04-24T08:19:51Z</time>
      </trkpt>
      <trkpt lat="47.40674" lon="6.6875">
        <ele>459</ele>
        <time>2016-04-24T08:19:55Z</time>
      </trkpt>
      <trkpt lat="47.40673" lon="6.68752">
        <ele>459</ele>
        <time>2016-04-24T08:19:56Z</time>
      </trkpt>
      <trkpt lat="47.40673" lon="6.68757">
        <ele>459</ele>
        <time>2016-04-24T08:19:59Z</time>
      </trkpt>
      <trkpt lat="47.40673" lon="6.68759">
        <ele>459</ele>
        <time>2016-04-24T08:20:00Z</time>
      </trkpt>
      <trkpt lat="47.40671" lon="6.68763">
        <ele>459</ele>
        <time>2016-04-24T08:20:03Z</time>
      </trkpt>
      <trkpt lat="47.4067" lon="6.68764">
        <ele>459</ele>
        <time>2016-04-24T08:20:04Z</time>
      </trkpt>
      <trkpt lat="47.40668" lon="6.6877">
        <ele>459</ele>
        <time>2016-04-24T08:20:07Z</time>
      </trkpt>
      <trkpt lat="47.40667" lon="6.68771">
        <ele>459</ele>
        <time>2016-04-24T08:20:08Z</time>
      </trkpt>
      <trkpt lat="47.40666" lon="6.68776">
        <ele>462</ele>
        <time>2016-04-24T08:20:11Z</time>
      </trkpt>
      <trkpt lat="47.40666" lon="6.68778">
        <ele>462</ele>
        <time>2016-04-24T08:20:12Z</time>
      </trkpt>
      <trkpt lat="47.40666" lon="6.68783">
        <ele>462</ele>
        <time>2016-04-24T08:20:16Z</time>
      </trkpt>
      <trkpt lat="47.40667" lon="6.68785">
        <ele>459</ele>
        <time>2016-04-24T08:20:17Z</time>
      </trkpt>
      <trkpt lat="47.40668" lon="6.68789">
        <ele>459</ele>
        <time>2016-04-24T08:20:20Z</time>
      </trkpt>
      <trkpt lat="47.40668" lon="6.68791">
        <ele>459</ele>
        <time>2016-04-24T08:20:21Z</time>
      </trkpt>
      <trkpt lat="47.40667" lon="6.68797">
        <ele>459</ele>
        <time>2016-04-24T08:20:24Z</time>
      </trkpt>
      <trkpt lat="47.40667" lon="6.688">
        <ele>460</ele>
        <time>2016-04-24T08:20:25Z</time>
      </trkpt>
      <trkpt lat="47.40667" lon="6.68806">
        <ele>460</ele>
        <time>2016-04-24T08:20:28Z</time>
      </trkpt>
      <trkpt lat="47.40667" lon="6.68809">
        <ele>460</ele>
        <time>2016-04-24T08:20:29Z</time>
      </trkpt>
      <trkpt lat="47.40667" lon="6.68813">
        <ele>463</ele>
        <time>2016-04-24T08:20:31Z</time>
      </trkpt>
      <trkpt lat="47.40666" lon="6.68816">
        <ele>463</ele>
        <time>2016-04-24T08:20:32Z</time>
      </trkpt>
      <trkpt lat="47.40667" lon="6.6882">
        <ele>461</ele>
        <time>2016-04-24T08:20:34Z</time>
      </trkpt>
      <trkpt lat="47.40671" lon="6.68825">
        <ele>461</ele>
        <time>2016-04-24T08:20:35Z</time>
      </trkpt>
      <trkpt lat="47.40673" lon="6.68829">
        <ele>461</ele>
        <time>2016-04-24T08:20:36Z</time>
      </trkpt>
      <trkpt lat="47.40676" lon="6.68833">
        <ele>461</ele>
        <time>2016-04-24T08:20:37Z</time>
      </trkpt>
      <trkpt lat="47.40677" lon="6.68836">
        <ele>462</ele>
        <time>2016-04-24T08:20:38Z</time>
      </trkpt>
      <trkpt lat="47.40679" lon="6.68839">
        <ele>462</ele>
        <time>2016-04-24T08:20:39Z</time>
      </trkpt>
      <trkpt lat="47.4068" lon="6.68845">
        <ele>462</ele>
        <time>2016-04-24T08:20:41Z</time>
      </trkpt>
      <trkpt lat="47.40679" lon="6.68847">
        <ele>462</ele>
        <time>2016-04-24T08:20:42Z</time>
      </trkpt>
      <trkpt lat="47.40677" lon="6.68852">
        <ele>462</ele>
        <time>2016-04-24T08:20:44Z</time>
      </trkpt>
      <trkpt lat="47.40676" lon="6.68855">
        <ele>462</ele>
        <time>2016-04-24T08:20:45Z</time>
      </trkpt>
      <trkpt lat="47.40673" lon="6.6886">
        <ele>462</ele>
        <time>2016-04-24T08:20:47Z</time>
      </trkpt>
      <trkpt lat="47.40673" lon="6.68861">
        <ele>462</ele>
        <time>2016-04-24T08:20:47.999Z</time>
      </trkpt>
      <trkpt lat="47.40672" lon="6.68865">
        <ele>462</ele>
        <time>2016-04-24T08:20:49Z</time>
      </trkpt>
      <trkpt lat="47.40672" lon="6.68868">
        <ele>462</ele>
        <time>2016-04-24T08:20:50Z</time>
      </trkpt>
      <trkpt lat="47.40672" lon="6.68872">
        <ele>462</ele>
        <time>2016-04-24T08:20:51Z</time>
      </trkpt>
      <trkpt lat="47.40671" lon="6.68875">
        <ele>462</ele>
        <time>2016-04-24T08:20:52Z</time>
      </trkpt>
      <trkpt lat="47.40671" lon="6.6888">
        <ele>462</ele>
        <time>2016-04-24T08:20:54Z</time>
      </trkpt>
      <trkpt lat="47.4067" lon="6.68886">
        <ele>462</ele>
        <time>2016-04-24T08:20:55Z</time>
      </trkpt>
      <trkpt lat="47.40669" lon="6.68889">
        <ele>462</ele>
        <time>2016-04-24T08:20:56Z</time>
      </trkpt>
      <trkpt lat="47.40669" lon="6.68892">
        <ele>462</ele>
        <time>2016-04-24T08:20:57Z</time>
      </trkpt>
      <trkpt lat="47.40667" lon="6.68898">
        <ele>463</ele>
        <time>2016-04-24T08:21:00Z</time>
      </trkpt>
      <trkpt lat="47.40666" lon="6.68902">
        <ele>464</ele>
        <time>2016-04-24T08:21:01Z</time>
      </trkpt>
      <trkpt lat="47.40665" lon="6.68904">
        <ele>464</ele>
        <time>2016-04-24T08:21:02Z</time>
      </trkpt>
      <trkpt lat="47.40664" lon="6.68909">
        <ele>464</ele>
        <time>2016-04-24T08:21:03Z</time>
      </trkpt>
      <trkpt lat="47.40664" lon="6.68912">
        <ele>464</ele>
        <time>2016-04-24T08:21:03.999Z</time>
      </trkpt>
      <trkpt lat="47.40663" lon="6.68918">
        <ele>464</ele>
        <time>2016-04-24T08:21:05Z</time>
      </trkpt>
      <trkpt lat="47.40662" lon="6.68921">
        <ele>464</ele>
        <time>2016-04-24T08:21:06Z</time>
      </trkpt>
      <trkpt lat="47.40661" lon="6.68924">
        <ele>465</ele>
        <time>2016-04-24T08:21:06.999Z</time>
      </trkpt>
      <trkpt lat="47.4066" lon="6.68928">
        <ele>465</ele>
        <time>2016-04-24T08:21:08Z</time>
      </trkpt>
      <trkpt lat="47.4066" lon="6.68931">
        <ele>466</ele>
        <time>2016-04-24T08:21:09.001Z</time>
      </trkpt>
      <trkpt lat="47.40659" lon="6.68935">
        <ele>466</ele>
        <time>2016-04-24T08:21:10Z</time>
      </trkpt>
      <trkpt lat="47.40658" lon="6.68938">
        <ele>466</ele>
        <time>2016-04-24T08:21:11Z</time>
      </trkpt>
      <trkpt lat="47.40658" lon="6.68942">
        <ele>466</ele>
        <time>2016-04-24T08:21:12Z</time>
      </trkpt>
      <trkpt lat="47.40658" lon="6.68945">
        <ele>467</ele>
        <time>2016-04-24T08:21:13Z</time>
      </trkpt>
      <trkpt lat="47.40657" lon="6.68952">
        <ele>467</ele>
        <time>2016-04-24T08:21:15Z</time>
      </trkpt>
      <trkpt lat="47.40656" lon="6.68955">
        <ele>467</ele>
        <time>2016-04-24T08:21:16Z</time>
      </trkpt>
      <trkpt lat="47.40655" lon="6.6896">
        <ele>467</ele>
        <time>2016-04-24T08:21:18Z</time>
      </trkpt>
      <trkpt lat="47.40655" lon="6.68963">
        <ele>467</ele>
        <time>2016-04-24T08:21:19Z</time>
      </trkpt>
      <trkpt lat="47.40655" lon="6.68968">
        <ele>467</ele>
        <time>2016-04-24T08:21:21Z</time>
      </trkpt>
      <trkpt lat="47.40655" lon="6.68971">
        <ele>467</ele>
        <time>2016-04-24T08:21:22Z</time>
      </trkpt>
      <trkpt lat="47.40655" lon="6.68977">
        <ele>467</ele>
        <time>2016-04-24T08:21:24Z</time>
      </trkpt>
      <trkpt lat="47.40654" lon="6.68979">
        <ele>467</ele>
        <time>2016-04-24T08:21:25Z</time>
      </trkpt>
      <trkpt lat="47.40654" lon="6.68984">
        <ele>467</ele>
        <time>2016-04-24T08:21:27Z</time>
      </trkpt>
      <trkpt lat="47.40654" lon="6.68987">
        <ele>467</ele>
        <time>2016-04-24T08:21:28Z</time>
      </trkpt>
      <trkpt lat="47.40653" lon="6.68992">
        <ele>467</ele>
        <time>2016-04-24T08:21:31Z</time>
      </trkpt>
      <trkpt lat="47.40653" lon="6.68994">
        <ele>467</ele>
        <time>2016-04-24T08:21:32Z</time>
      </trkpt>
      <trkpt lat="47.40652" lon="6.68999">
        <ele>467</ele>
        <time>2016-04-24T08:21:34Z</time>
      </trkpt>
      <trkpt lat="47.40652" lon="6.69001">
        <ele>467</ele>
        <time>2016-04-24T08:21:35Z</time>
      </trkpt>
      <trkpt lat="47.40651" lon="6.69006">
        <ele>467</ele>
        <time>2016-04-24T08:21:37Z</time>
      </trkpt>
      <trkpt lat="47.4065" lon="6.69008">
        <ele>467</ele>
        <time>2016-04-24T08:21:38Z</time>
      </trkpt>
      <trkpt lat="47.40648" lon="6.69013">
        <ele>468</ele>
        <time>2016-04-24T08:21:41Z</time>
      </trkpt>
      <trkpt lat="47.40647" lon="6.69014">
        <ele>468</ele>
        <time>2016-04-24T08:21:42Z</time>
      </trkpt>
      <trkpt lat="47.40646" lon="6.69018">
        <ele>468</ele>
        <time>2016-04-24T08:21:45Z</time>
      </trkpt>
      <trkpt lat="47.40646" lon="6.69021">
        <ele>468</ele>
        <time>2016-04-24T08:21:46Z</time>
      </trkpt>
      <trkpt lat="47.40646" lon="6.69027">
        <ele>468</ele>
        <time>2016-04-24T08:21:49Z</time>
      </trkpt>
      <trkpt lat="47.40645" lon="6.69028">
        <ele>468</ele>
        <time>2016-04-24T08:21:50Z</time>
      </trkpt>
      <trkpt lat="47.40642" lon="6.69033">
        <ele>468</ele>
        <time>2016-04-24T08:21:53Z</time>
      </trkpt>
      <trkpt lat="47.40641" lon="6.69035">
        <ele>469</ele>
        <time>2016-04-24T08:21:54Z</time>
      </trkpt>
      <trkpt lat="47.40639" lon="6.6904">
        <ele>469</ele>
        <time>2016-04-24T08:21:57Z</time>
      </trkpt>
      <trkpt lat="47.40638" lon="6.6904">
        <ele>469</ele>
        <time>2016-04-24T08:21:58Z</time>
      </trkpt>
      <trkpt lat="47.40638" lon="6.69046">
        <ele>469</ele>
        <time>2016-04-24T08:22:04Z</time>
      </trkpt>
      <trkpt lat="47.40639" lon="6.69048">
        <ele>469</ele>
        <time>2016-04-24T08:22:05Z</time>
      </trkpt>
      <trkpt lat="47.4064" lon="6.69053">
        <ele>468</ele>
        <time>2016-04-24T08:22:09Z</time>
      </trkpt>
      <trkpt lat="47.4064" lon="6.69055">
        <ele>469</ele>
        <time>2016-04-24T08:22:10Z</time>
      </trkpt>
      <trkpt lat="47.40637" lon="6.6906">
        <ele>469</ele>
        <time>2016-04-24T08:22:14Z</time>
      </trkpt>
      <trkpt lat="47.40636" lon="6.69061">
        <ele>469</ele>
        <time>2016-04-24T08:22:15Z</time>
      </trkpt>
      <trkpt lat="47.40633" lon="6.69056">
        <ele>469</ele>
        <time>2016-04-24T08:23:04Z</time>
      </trkpt>
      <trkpt lat="47.40633" lon="6.69056">
        <ele>469</ele>
        <time>2016-04-24T08:23:05Z</time>
      </trkpt>
      <trkpt lat="47.40634" lon="6.69061">
        <ele>469</ele>
        <time>2016-04-24T08:23:43Z</time>
      </trkpt>
      <trkpt lat="47.40635" lon="6.69063">
        <ele>469</ele>
        <time>2016-04-24T08:23:44Z</time>
      </trkpt>
      <trkpt lat="47.40636" lon="6.69066">
        <ele>469</ele>
        <time>2016-04-24T08:23:45Z</time>
      </trkpt>
      <trkpt lat="47.40637" lon="6.6907">
        <ele>468</ele>
        <time>2016-04-24T08:23:46Z</time>
      </trkpt>
      <trkpt lat="47.40639" lon="6.69074">
        <ele>468</ele>
        <time>2016-04-24T08:23:47Z</time>
      </trkpt>
      <trkpt lat="47.4064" lon="6.69078">
        <ele>468</ele>
        <time>2016-04-24T08:23:48Z</time>
      </trkpt>
      <trkpt lat="47.40642" lon="6.69083">
        <ele>468</ele>
        <time>2016-04-24T08:23:49Z</time>
      </trkpt>
      <trkpt lat="47.40646" lon="6.69094">
        <ele>468</ele>
        <time>2016-04-24T08:23:50Z</time>
      </trkpt>
      <trkpt lat="47.40649" lon="6.69099">
        <ele>468</ele>
        <time>2016-04-24T08:23:51Z</time>
      </trkpt>
      <trkpt lat="47.40652" lon="6.69105">
        <ele>468</ele>
        <time>2016-04-24T08:23:52Z</time>
      </trkpt>
      <trkpt lat="47.40655" lon="6.69111">
        <ele>468</ele>
        <time>2016-04-24T08:23:53Z</time>
      </trkpt>
      <trkpt lat="47.40659" lon="6.69117">
        <ele>469</ele>
        <time>2016-04-24T08:23:54Z</time>
      </trkpt>
      <trkpt lat="47.40663" lon="6.69123">
        <ele>469</ele>
        <time>2016-04-24T08:23:55Z</time>
      </trkpt>
      <trkpt lat="47.40668" lon="6.6913">
        <ele>462</ele>
        <time>2016-04-24T08:23:56Z</time>
      </trkpt>
      <trkpt lat="47.40674" lon="6.69134">
        <ele>462</ele>
        <time>2016-04-24T08:23:57Z</time>
      </trkpt>
      <trkpt lat="47.40681" lon="6.69137">
        <ele>461</ele>
        <time>2016-04-24T08:23:58Z</time>
      </trkpt>
      <trkpt lat="47.40687" lon="6.6914">
        <ele>461</ele>
        <time>2016-04-24T08:23:59Z</time>
      </trkpt>
      <trkpt lat="47.40694" lon="6.69141">
        <ele>461</ele>
        <time>2016-04-24T08:24:00Z</time>
      </trkpt>
      <trkpt lat="47.407" lon="6.69137">
        <ele>460</ele>
        <time>2016-04-24T08:24:01Z</time>
      </trkpt>
      <trkpt lat="47.40709" lon="6.69136">
        <ele>460</ele>
        <time>2016-04-24T08:24:02Z</time>
      </trkpt>
      <trkpt lat="47.40715" lon="6.69133">
        <ele>459</ele>
        <time>2016-04-24T08:24:03Z</time>
      </trkpt>
      <trkpt lat="47.40722" lon="6.6913">
        <ele>459</ele>
        <time>2016-04-24T08:24:04Z</time>
      </trkpt>
      <trkpt lat="47.40729" lon="6.69127">
        <ele>459</ele>
        <time>2016-04-24T08:24:05Z</time>
      </trkpt>
      <trkpt lat="47.40735" lon="6.69124">
        <ele>458</ele>
        <time>2016-04-24T08:24:06Z</time>
      </trkpt>
      <trkpt lat="47.4074" lon="6.69121">
        <ele>458</ele>
        <time>2016-04-24T08:24:07Z</time>
      </trkpt>
      <trkpt lat="47.40745" lon="6.69119">
        <ele>458</ele>
        <time>2016-04-24T08:24:08Z</time>
      </trkpt>
      <trkpt lat="47.40749" lon="6.69116">
        <ele>458</ele>
        <time>2016-04-24T08:24:09Z</time>
      </trkpt>
      <trkpt lat="47.40753" lon="6.69115">
        <ele>455</ele>
        <time>2016-04-24T08:24:10Z</time>
      </trkpt>
      <trkpt lat="47.40756" lon="6.69113">
        <ele>455</ele>
        <time>2016-04-24T08:24:11Z</time>
      </trkpt>
      <trkpt lat="47.40759" lon="6.69112">
        <ele>455</ele>
        <time>2016-04-24T08:24:12Z</time>
      </trkpt>
      <trkpt lat="47.40762" lon="6.69111">
        <ele>455</ele>
        <time>2016-04-24T08:24:13Z</time>
      </trkpt>
      <trkpt lat="47.40765" lon="6.69109">
        <ele>455</ele>
        <time>2016-04-24T08:24:14Z</time>
      </trkpt>
      <trkpt lat="47.40769" lon="6.69106">
        <ele>455</ele>
        <time>2016-04-24T08:24:15Z</time>
      </trkpt>
      <trkpt lat="47.40772" lon="6.69104">
        <ele>455</ele>
        <time>2016-04-24T08:24:16Z</time>
      </trkpt>
      <trkpt lat="47.40775" lon="6.69102">
        <ele>455</ele>
        <time>2016-04-24T08:24:17Z</time>
      </trkpt>
      <trkpt lat="47.40778" lon="6.691">
        <ele>455</ele>
        <time>2016-04-24T08:24:18Z</time>
      </trkpt>
      <trkpt lat="47.40782" lon="6.69098">
        <ele>455</ele>
        <time>2016-04-24T08:24:19Z</time>
      </trkpt>
      <trkpt lat="47.40785" lon="6.69096">
        <ele>455</ele>
        <time>2016-04-24T08:24:20Z</time>
      </trkpt>
      <trkpt lat="47.40788" lon="6.69094">
        <ele>455</ele>
        <time>2016-04-24T08:24:21Z</time>
      </trkpt>
      <trkpt lat="47.40792" lon="6.69092">
        <ele>455</ele>
        <time>2016-04-24T08:24:22Z</time>
      </trkpt>
      <trkpt lat="47.40796" lon="6.69089">
        <ele>455</ele>
        <time>2016-04-24T08:24:23Z</time>
      </trkpt>
      <trkpt lat="47.408" lon="6.69087">
        <ele>455</ele>
        <time>2016-04-24T08:24:24Z</time>
      </trkpt>
      <trkpt lat="47.40804" lon="6.69084">
        <ele>455</ele>
        <time>2016-04-24T08:24:25Z</time>
      </trkpt>
      <trkpt lat="47.40808" lon="6.69082">
        <ele>457</ele>
        <time>2016-04-24T08:24:26Z</time>
      </trkpt>
      <trkpt lat="47.40812" lon="6.69079">
        <ele>456</ele>
        <time>2016-04-24T08:24:27Z</time>
      </trkpt>
      <trkpt lat="47.40816" lon="6.69077">
        <ele>456</ele>
        <time>2016-04-24T08:24:28Z</time>
      </trkpt>
      <trkpt lat="47.4082" lon="6.69074">
        <ele>456</ele>
        <time>2016-04-24T08:24:29Z</time>
      </trkpt>
      <trkpt lat="47.40824" lon="6.69072">
        <ele>456</ele>
        <time>2016-04-24T08:24:30Z</time>
      </trkpt>
      <trkpt lat="47.40828" lon="6.6907">
        <ele>456</ele>
        <time>2016-04-24T08:24:31Z</time>
      </trkpt>
      <trkpt lat="47.40831" lon="6.69068">
        <ele>456</ele>
        <time>2016-04-24T08:24:32Z</time>
      </trkpt>
      <trkpt lat="47.40835" lon="6.69066">
        <ele>456</ele>
        <time>2016-04-24T08:24:33Z</time>
      </trkpt>
      <trkpt lat="47.40838" lon="6.69064">
        <ele>456</ele>
        <time>2016-04-24T08:24:33.999Z</time>
      </trkpt>
      <trkpt lat="47.40842" lon="6.69062">
        <ele>456</ele>
        <time>2016-04-24T08:24:35Z</time>
      </trkpt>
      <trkpt lat="47.40845" lon="6.6906">
        <ele>456</ele>
        <time>2016-04-24T08:24:36Z</time>
      </trkpt>
      <trkpt lat="47.40849" lon="6.69059">
        <ele>456</ele>
        <time>2016-04-24T08:24:37Z</time>
      </trkpt>
      <trkpt lat="47.40852" lon="6.69058">
        <ele>456</ele>
        <time>2016-04-24T08:24:38Z</time>
      </trkpt>
      <trkpt lat="47.40856" lon="6.69056">
        <ele>456</ele>
        <time>2016-04-24T08:24:39Z</time>
      </trkpt>
      <trkpt lat="47.40859" lon="6.69055">
        <ele>456</ele>
        <time>2016-04-24T08:24:39.998Z</time>
      </trkpt>
      <trkpt lat="47.40862" lon="6.69053">
        <ele>456</ele>
        <time>2016-04-24T08:24:41Z</time>
      </trkpt>
      <trkpt lat="47.40866" lon="6.69052">
        <ele>456</ele>
        <time>2016-04-24T08:24:42Z</time>
      </trkpt>
      <trkpt lat="47.40869" lon="6.6905">
        <ele>456</ele>
        <time>2016-04-24T08:24:43Z</time>
      </trkpt>
      <trkpt lat="47.40873" lon="6.69049">
        <ele>456</ele>
        <time>2016-04-24T08:24:44Z</time>
      </trkpt>
      <trkpt lat="47.40877" lon="6.69047">
        <ele>456</ele>
        <time>2016-04-24T08:24:45Z</time>
      </trkpt>
      <trkpt lat="47.40881" lon="6.69046">
        <ele>456</ele>
        <time>2016-04-24T08:24:46Z</time>
      </trkpt>
      <trkpt lat="47.40885" lon="6.69045">
        <ele>456</ele>
        <time>2016-04-24T08:24:47Z</time>
      </trkpt>
      <trkpt lat="47.40889" lon="6.69043">
        <ele>456</ele>
        <time>2016-04-24T08:24:48Z</time>
      </trkpt>
      <trkpt lat="47.40893" lon="6.69042">
        <ele>456</ele>
        <time>2016-04-24T08:24:49Z</time>
      </trkpt>
      <trkpt lat="47.40896" lon="6.69041">
        <ele>456</ele>
        <time>2016-04-24T08:24:50Z</time>
      </trkpt>
      <trkpt lat="47.40899" lon="6.69039">
        <ele>456</ele>
        <time>2016-04-24T08:24:51Z</time>
      </trkpt>
      <trkpt lat="47.40902" lon="6.69038">
        <ele>456</ele>
        <time>2016-04-24T08:24:52Z</time>
      </trkpt>
      <trkpt lat="47.40905" lon="6.69037">
        <ele>456</ele>
        <time>2016-04-24T08:24:53Z</time>
      </trkpt>
      <trkpt lat="47.40909" lon="6.69037">
        <ele>456</ele>
        <time>2016-04-24T08:24:54Z</time>
      </trkpt>
      <trkpt lat="47.40913" lon="6.69037">
        <ele>456</ele>
        <time>2016-04-24T08:24:55Z</time>
      </trkpt>
      <trkpt lat="47.4092" lon="6.69035">
        <ele>455</ele>
        <time>2016-04-24T08:24:56Z</time>
      </trkpt>
      <trkpt lat="47.40926" lon="6.69035">
        <ele>455</ele>
        <time>2016-04-24T08:24:57Z</time>
      </trkpt>
      <trkpt lat="47.40928" lon="6.69035">
        <ele>455</ele>
        <time>2016-04-24T08:24:58Z</time>
      </trkpt>
      <trkpt lat="47.40932" lon="6.69035">
        <ele>454</ele>
        <time>2016-04-24T08:24:59Z</time>
      </trkpt>
      <trkpt lat="47.4094" lon="6.6903">
        <ele>454</ele>
        <time>2016-04-24T08:25:00Z</time>
      </trkpt>
      <trkpt lat="47.40946" lon="6.69029">
        <ele>454</ele>
        <time>2016-04-24T08:25:01Z</time>
      </trkpt>
      <trkpt lat="47.40952" lon="6.69027">
        <ele>454</ele>
        <time>2016-04-24T08:25:02Z</time>
      </trkpt>
      <trkpt lat="47.40958" lon="6.69024">
        <ele>454</ele>
        <time>2016-04-24T08:25:03Z</time>
      </trkpt>
      <trkpt lat="47.40964" lon="6.6902">
        <ele>453</ele>
        <time>2016-04-24T08:25:04Z</time>
      </trkpt>
      <trkpt lat="47.40971" lon="6.69018">
        <ele>453</ele>
        <time>2016-04-24T08:25:05Z</time>
      </trkpt>
      <trkpt lat="47.40977" lon="6.69013">
        <ele>453</ele>
        <time>2016-04-24T08:25:06Z</time>
      </trkpt>
      <trkpt lat="47.40983" lon="6.69008">
        <ele>452</ele>
        <time>2016-04-24T08:25:07Z</time>
      </trkpt>
      <trkpt lat="47.4099" lon="6.69006">
        <ele>452</ele>
        <time>2016-04-24T08:25:08Z</time>
      </trkpt>
      <trkpt lat="47.40996" lon="6.69004">
        <ele>451</ele>
        <time>2016-04-24T08:25:09Z</time>
      </trkpt>
      <trkpt lat="47.41003" lon="6.69001">
        <ele>450</ele>
        <time>2016-04-24T08:25:10Z</time>
      </trkpt>
      <trkpt lat="47.4101" lon="6.68999">
        <ele>449</ele>
        <time>2016-04-24T08:25:11Z</time>
      </trkpt>
      <trkpt lat="47.41017" lon="6.68996">
        <ele>449</ele>
        <time>2016-04-24T08:25:12Z</time>
      </trkpt>
      <trkpt lat="47.41023" lon="6.68995">
        <ele>448</ele>
        <time>2016-04-24T08:25:13Z</time>
      </trkpt>
      <trkpt lat="47.41029" lon="6.68992">
        <ele>448</ele>
        <time>2016-04-24T08:25:14Z</time>
      </trkpt>
      <trkpt lat="47.41035" lon="6.68988">
        <ele>448</ele>
        <time>2016-04-24T08:25:15Z</time>
      </trkpt>
      <trkpt lat="47.41042" lon="6.68986">
        <ele>448</ele>
        <time>2016-04-24T08:25:16Z</time>
      </trkpt>
      <trkpt lat="47.41048" lon="6.68983">
        <ele>448</ele>
        <time>2016-04-24T08:25:17Z</time>
      </trkpt>
      <trkpt lat="47.41054" lon="6.68979">
        <ele>448</ele>
        <time>2016-04-24T08:25:18Z</time>
      </trkpt>
      <trkpt lat="47.4106" lon="6.68976">
        <ele>447</ele>
        <time>2016-04-24T08:25:19Z</time>
      </trkpt>
      <trkpt lat="47.41065" lon="6.68973">
        <ele>447</ele>
        <time>2016-04-24T08:25:20Z</time>
      </trkpt>
      <trkpt lat="47.4107" lon="6.68968">
        <ele>447</ele>
        <time>2016-04-24T08:25:21Z</time>
      </trkpt>
      <trkpt lat="47.41075" lon="6.68964">
        <ele>447</ele>
        <time>2016-04-24T08:25:22Z</time>
      </trkpt>
      <trkpt lat="47.4108" lon="6.68963">
        <ele>447</ele>
        <time>2016-04-24T08:25:23Z</time>
      </trkpt>
      <trkpt lat="47.41084" lon="6.68964">
        <ele>445</ele>
        <time>2016-04-24T08:25:24Z</time>
      </trkpt>
      <trkpt lat="47.41088" lon="6.68966">
        <ele>445</ele>
        <time>2016-04-24T08:25:25Z</time>
      </trkpt>
      <trkpt lat="47.4109" lon="6.68971">
        <ele>445</ele>
        <time>2016-04-24T08:25:26Z</time>
      </trkpt>
      <trkpt lat="47.41092" lon="6.68976">
        <ele>446</ele>
        <time>2016-04-24T08:25:27Z</time>
      </trkpt>
      <trkpt lat="47.41093" lon="6.68981">
        <ele>446</ele>
        <time>2016-04-24T08:25:28Z</time>
      </trkpt>
      <trkpt lat="47.41095" lon="6.68988">
        <ele>446</ele>
        <time>2016-04-24T08:25:29Z</time>
      </trkpt>
      <trkpt lat="47.41097" lon="6.68994">
        <ele>446</ele>
        <time>2016-04-24T08:25:30Z</time>
      </trkpt>
      <trkpt lat="47.411" lon="6.68998">
        <ele>446</ele>
        <time>2016-04-24T08:25:31Z</time>
      </trkpt>
      <trkpt lat="47.41102" lon="6.69005">
        <ele>448</ele>
        <time>2016-04-24T08:25:32Z</time>
      </trkpt>
      <trkpt lat="47.41106" lon="6.6901">
        <ele>448</ele>
        <time>2016-04-24T08:25:33Z</time>
      </trkpt>
      <trkpt lat="47.41108" lon="6.69014">
        <ele>448</ele>
        <time>2016-04-24T08:25:34Z</time>
      </trkpt>
      <trkpt lat="47.41109" lon="6.6902">
        <ele>448</ele>
        <time>2016-04-24T08:25:35Z</time>
      </trkpt>
      <trkpt lat="47.41111" lon="6.69026">
        <ele>448</ele>
        <time>2016-04-24T08:25:36Z</time>
      </trkpt>
      <trkpt lat="47.41113" lon="6.69032">
        <ele>448</ele>
        <time>2016-04-24T08:25:37Z</time>
      </trkpt>
      <trkpt lat="47.41116" lon="6.69036">
        <ele>448</ele>
        <time>2016-04-24T08:25:38Z</time>
      </trkpt>
      <trkpt lat="47.41119" lon="6.69041">
        <ele>448</ele>
        <time>2016-04-24T08:25:39Z</time>
      </trkpt>
      <trkpt lat="47.41121" lon="6.69045">
        <ele>448</ele>
        <time>2016-04-24T08:25:40Z</time>
      </trkpt>
      <trkpt lat="47.41123" lon="6.6905">
        <ele>448</ele>
        <time>2016-04-24T08:25:41Z</time>
      </trkpt>
      <trkpt lat="47.41125" lon="6.69055">
        <ele>448</ele>
        <time>2016-04-24T08:25:42Z</time>
      </trkpt>
      <trkpt lat="47.41127" lon="6.6906">
        <ele>448</ele>
        <time>2016-04-24T08:25:43Z</time>
      </trkpt>
      <trkpt lat="47.41129" lon="6.69065">
        <ele>448</ele>
        <time>2016-04-24T08:25:44Z</time>
      </trkpt>
      <trkpt lat="47.41131" lon="6.69071">
        <ele>448</ele>
        <time>2016-04-24T08:25:45Z</time>
      </trkpt>
      <trkpt lat="47.41133" lon="6.69076">
        <ele>448</ele>
        <time>2016-04-24T08:25:46Z</time>
      </trkpt>
      <trkpt lat="47.41135" lon="6.69081">
        <ele>448</ele>
        <time>2016-04-24T08:25:47Z</time>
      </trkpt>
      <trkpt lat="47.41137" lon="6.69086">
        <ele>449</ele>
        <time>2016-04-24T08:25:48Z</time>
      </trkpt>
      <trkpt lat="47.41139" lon="6.69092">
        <ele>449</ele>
        <time>2016-04-24T08:25:49Z</time>
      </trkpt>
      <trkpt lat="47.41142" lon="6.69097">
        <ele>449</ele>
        <time>2016-04-24T08:25:50Z</time>
      </trkpt>
      <trkpt lat="47.41144" lon="6.69103">
        <ele>449</ele>
        <time>2016-04-24T08:25:51Z</time>
      </trkpt>
      <trkpt lat="47.41146" lon="6.69108">
        <ele>449</ele>
        <time>2016-04-24T08:25:52Z</time>
      </trkpt>
      <trkpt lat="47.41148" lon="6.69113">
        <ele>449</ele>
        <time>2016-04-24T08:25:53Z</time>
      </trkpt>
      <trkpt lat="47.4115" lon="6.69118">
        <ele>449</ele>
        <time>2016-04-24T08:25:54Z</time>
      </trkpt>
      <trkpt lat="47.41152" lon="6.69123">
        <ele>449</ele>
        <time>2016-04-24T08:25:55Z</time>
      </trkpt>
      <trkpt lat="47.41153" lon="6.69128">
        <ele>449</ele>
        <time>2016-04-24T08:25:56Z</time>
      </trkpt>
      <trkpt lat="47.41155" lon="6.69133">
        <ele>449</ele>
        <time>2016-04-24T08:25:57Z</time>
      </trkpt>
      <trkpt lat="47.41157" lon="6.69138">
        <ele>449</ele>
        <time>2016-04-24T08:25:58Z</time>
      </trkpt>
      <trkpt lat="47.41159" lon="6.69143">
        <ele>449</ele>
        <time>2016-04-24T08:25:59Z</time>
      </trkpt>
      <trkpt lat="47.41161" lon="6.69148">
        <ele>449</ele>
        <time>2016-04-24T08:26:00Z</time>
      </trkpt>
      <trkpt lat="47.41163" lon="6.69153">
        <ele>449</ele>
        <time>2016-04-24T08:26:01Z</time>
      </trkpt>
      <trkpt lat="47.41165" lon="6.69158">
        <ele>449</ele>
        <time>2016-04-24T08:26:02Z</time>
      </trkpt>
      <trkpt lat="47.41167" lon="6.69163">
        <ele>449</ele>
        <time>2016-04-24T08:26:03Z</time>
      </trkpt>
      <trkpt lat="47.41169" lon="6.69168">
        <ele>449</ele>
        <time>2016-04-24T08:26:04Z</time>
      </trkpt>
      <trkpt lat="47.41171" lon="6.69173">
        <ele>449</ele>
        <time>2016-04-24T08:26:05Z</time>
      </trkpt>
      <trkpt lat="47.41173" lon="6.69179">
        <ele>449</ele>
        <time>2016-04-24T08:26:06Z</time>
      </trkpt>
      <trkpt lat="47.41175" lon="6.69184">
        <ele>449</ele>
        <time>2016-04-24T08:26:07Z</time>
      </trkpt>
      <trkpt lat="47.41177" lon="6.69189">
        <ele>449</ele>
        <time>2016-04-24T08:26:08Z</time>
      </trkpt>
      <trkpt lat="47.41179" lon="6.69194">
        <ele>449</ele>
        <time>2016-04-24T08:26:09Z</time>
      </trkpt>
      <trkpt lat="47.4118" lon="6.69199">
        <ele>449</ele>
        <time>2016-04-24T08:26:10Z</time>
      </trkpt>
      <trkpt lat="47.41183" lon="6.69204">
        <ele>449</ele>
        <time>2016-04-24T08:26:11Z</time>
      </trkpt>
      <trkpt lat="47.41185" lon="6.69209">
        <ele>449</ele>
        <time>2016-04-24T08:26:12Z</time>
      </trkpt>
      <trkpt lat="47.41187" lon="6.69215">
        <ele>449</ele>
        <time>2016-04-24T08:26:13Z</time>
      </trkpt>
      <trkpt lat="47.41189" lon="6.6922">
        <ele>449</ele>
        <time>2016-04-24T08:26:14Z</time>
      </trkpt>
      <trkpt lat="47.41191" lon="6.69225">
        <ele>449</ele>
        <time>2016-04-24T08:26:15Z</time>
      </trkpt>
      <trkpt lat="47.41193" lon="6.69231">
        <ele>449</ele>
        <time>2016-04-24T08:26:16Z</time>
      </trkpt>
      <trkpt lat="47.41196" lon="6.69237">
        <ele>449</ele>
        <time>2016-04-24T08:26:17Z</time>
      </trkpt>
      <trkpt lat="47.41198" lon="6.69243">
        <ele>449</ele>
        <time>2016-04-24T08:26:18Z</time>
      </trkpt>
      <trkpt lat="47.412" lon="6.69249">
        <ele>449</ele>
        <time>2016-04-24T08:26:19Z</time>
      </trkpt>
      <trkpt lat="47.41202" lon="6.69256">
        <ele>451</ele>
        <time>2016-04-24T08:26:20Z</time>
      </trkpt>
      <trkpt lat="47.41205" lon="6.69261">
        <ele>451</ele>
        <time>2016-04-24T08:26:21Z</time>
      </trkpt>
      <trkpt lat="47.41206" lon="6.69267">
        <ele>451</ele>
        <time>2016-04-24T08:26:22Z</time>
      </trkpt>
      <trkpt lat="47.41208" lon="6.69272">
        <ele>451</ele>
        <time>2016-04-24T08:26:23Z</time>
      </trkpt>
      <trkpt lat="47.4121" lon="6.69278">
        <ele>451</ele>
        <time>2016-04-24T08:26:24Z</time>
      </trkpt>
      <trkpt lat="47.41212" lon="6.69285">
        <ele>451</ele>
        <time>2016-04-24T08:26:25Z</time>
      </trkpt>
      <trkpt lat="47.41214" lon="6.69291">
        <ele>451</ele>
        <time>2016-04-24T08:26:26Z</time>
      </trkpt>
      <trkpt lat="47.41216" lon="6.69297">
        <ele>451</ele>
        <time>2016-04-24T08:26:27Z</time>
      </trkpt>
      <trkpt lat="47.41218" lon="6.69303">
        <ele>451</ele>
        <time>2016-04-24T08:26:28Z</time>
      </trkpt>
      <trkpt lat="47.4122" lon="6.69308">
        <ele>451</ele>
        <time>2016-04-24T08:26:29Z</time>
      </trkpt>
      <trkpt lat="47.41224" lon="6.69312">
        <ele>451</ele>
        <time>2016-04-24T08:26:30Z</time>
      </trkpt>
      <trkpt lat="47.41228" lon="6.69315">
        <ele>451</ele>
        <time>2016-04-24T08:26:31Z</time>
      </trkpt>
      <trkpt lat="47.41233" lon="6.69316">
        <ele>451</ele>
        <time>2016-04-24T08:26:32Z</time>
      </trkpt>
      <trkpt lat="47.41238" lon="6.69316">
        <ele>451</ele>
        <time>2016-04-24T08:26:33Z</time>
      </trkpt>
      <trkpt lat="47.41243" lon="6.69315">
        <ele>451</ele>
        <time>2016-04-24T08:26:34Z</time>
      </trkpt>
      <trkpt lat="47.41248" lon="6.69312">
        <ele>451</ele>
        <time>2016-04-24T08:26:35Z</time>
      </trkpt>
      <trkpt lat="47.41254" lon="6.6931">
        <ele>449</ele>
        <time>2016-04-24T08:26:36Z</time>
      </trkpt>
      <trkpt lat="47.4126" lon="6.69309">
        <ele>449</ele>
        <time>2016-04-24T08:26:37Z</time>
      </trkpt>
      <trkpt lat="47.41267" lon="6.69306">
        <ele>448</ele>
        <time>2016-04-24T08:26:38Z</time>
      </trkpt>
      <trkpt lat="47.41273" lon="6.69305">
        <ele>448</ele>
        <time>2016-04-24T08:26:39Z</time>
      </trkpt>
      <trkpt lat="47.41279" lon="6.69302">
        <ele>448</ele>
        <time>2016-04-24T08:26:40Z</time>
      </trkpt>
      <trkpt lat="47.41285" lon="6.69301">
        <ele>448</ele>
        <time>2016-04-24T08:26:41Z</time>
      </trkpt>
      <trkpt lat="47.41291" lon="6.693">
        <ele>447</ele>
        <time>2016-04-24T08:26:42Z</time>
      </trkpt>
      <trkpt lat="47.41297" lon="6.69297">
        <ele>447</ele>
        <time>2016-04-24T08:26:43Z</time>
      </trkpt>
      <trkpt lat="47.41303" lon="6.69296">
        <ele>447</ele>
        <time>2016-04-24T08:26:44Z</time>
      </trkpt>
      <trkpt lat="47.41308" lon="6.69294">
        <ele>447</ele>
        <time>2016-04-24T08:26:45Z</time>
      </trkpt>
      <trkpt lat="47.41313" lon="6.69292">
        <ele>447</ele>
        <time>2016-04-24T08:26:46Z</time>
      </trkpt>
      <trkpt lat="47.41319" lon="6.69291">
        <ele>447</ele>
        <time>2016-04-24T08:26:47Z</time>
      </trkpt>
      <trkpt lat="47.41325" lon="6.69291">
        <ele>446</ele>
        <time>2016-04-24T08:26:48Z</time>
      </trkpt>
      <trkpt lat="47.41331" lon="6.69289">
        <ele>446</ele>
        <time>2016-04-24T08:26:49Z</time>
      </trkpt>
      <trkpt lat="47.41337" lon="6.69287">
        <ele>444</ele>
        <time>2016-04-24T08:26:50Z</time>
      </trkpt>
      <trkpt lat="47.41343" lon="6.69285">
        <ele>444</ele>
        <time>2016-04-24T08:26:51Z</time>
      </trkpt>
      <trkpt lat="47.41349" lon="6.69285">
        <ele>444</ele>
        <time>2016-04-24T08:26:52Z</time>
      </trkpt>
      <trkpt lat="47.41355" lon="6.69283">
        <ele>444</ele>
        <time>2016-04-24T08:26:53Z</time>
      </trkpt>
      <trkpt lat="47.41362" lon="6.69282">
        <ele>444</ele>
        <time>2016-04-24T08:26:54Z</time>
      </trkpt>
      <trkpt lat="47.41368" lon="6.6928">
        <ele>443</ele>
        <time>2016-04-24T08:26:55Z</time>
      </trkpt>
      <trkpt lat="47.41374" lon="6.69278">
        <ele>443</ele>
        <time>2016-04-24T08:26:56Z</time>
      </trkpt>
      <trkpt lat="47.41382" lon="6.69274">
        <ele>443</ele>
        <time>2016-04-24T08:26:57Z</time>
      </trkpt>
      <trkpt lat="47.41389" lon="6.69272">
        <ele>443</ele>
        <time>2016-04-24T08:26:58Z</time>
      </trkpt>
      <trkpt lat="47.41396" lon="6.69271">
        <ele>443</ele>
        <time>2016-04-24T08:26:59Z</time>
      </trkpt>
      <trkpt lat="47.41404" lon="6.6927">
        <ele>443</ele>
        <time>2016-04-24T08:27:00Z</time>
      </trkpt>
      <trkpt lat="47.41412" lon="6.69269">
        <ele>442</ele>
        <time>2016-04-24T08:27:01Z</time>
      </trkpt>
      <trkpt lat="47.41419" lon="6.69268">
        <ele>442</ele>
        <time>2016-04-24T08:27:02Z</time>
      </trkpt>
      <trkpt lat="47.41426" lon="6.69266">
        <ele>442</ele>
        <time>2016-04-24T08:27:03Z</time>
      </trkpt>
      <trkpt lat="47.41433" lon="6.69265">
        <ele>442</ele>
        <time>2016-04-24T08:27:04Z</time>
      </trkpt>
      <trkpt lat="47.4144" lon="6.69264">
        <ele>442</ele>
        <time>2016-04-24T08:27:05Z</time>
      </trkpt>
      <trkpt lat="47.41447" lon="6.69263">
        <ele>442</ele>
        <time>2016-04-24T08:27:06Z</time>
      </trkpt>
      <trkpt lat="47.41455" lon="6.69262">
        <ele>442</ele>
        <time>2016-04-24T08:27:07Z</time>
      </trkpt>
      <trkpt lat="47.41462" lon="6.6926">
        <ele>442</ele>
        <time>2016-04-24T08:27:08Z</time>
      </trkpt>
      <trkpt lat="47.41469" lon="6.69257">
        <ele>442</ele>
        <time>2016-04-24T08:27:09Z</time>
      </trkpt>
      <trkpt lat="47.41475" lon="6.69255">
        <ele>442</ele>
        <time>2016-04-24T08:27:10Z</time>
      </trkpt>
      <trkpt lat="47.41482" lon="6.69254">
        <ele>441</ele>
        <time>2016-04-24T08:27:11Z</time>
      </trkpt>
      <trkpt lat="47.41489" lon="6.69251">
        <ele>441</ele>
        <time>2016-04-24T08:27:12Z</time>
      </trkpt>
      <trkpt lat="47.41495" lon="6.69249">
        <ele>441</ele>
        <time>2016-04-24T08:27:13Z</time>
      </trkpt>
      <trkpt lat="47.41501" lon="6.69247">
        <ele>441</ele>
        <time>2016-04-24T08:27:14Z</time>
      </trkpt>
      <trkpt lat="47.41506" lon="6.69246">
        <ele>440</ele>
        <time>2016-04-24T08:27:15Z</time>
      </trkpt>
      <trkpt lat="47.41512" lon="6.69246">
        <ele>440</ele>
        <time>2016-04-24T08:27:16Z</time>
      </trkpt>
      <trkpt lat="47.41517" lon="6.69247">
        <ele>440</ele>
        <time>2016-04-24T08:27:17Z</time>
      </trkpt>
      <trkpt lat="47.41522" lon="6.69247">
        <ele>440</ele>
        <time>2016-04-24T08:27:18Z</time>
      </trkpt>
      <trkpt lat="47.41528" lon="6.69249">
        <ele>440</ele>
        <time>2016-04-24T08:27:19Z</time>
      </trkpt>
      <trkpt lat="47.41532" lon="6.69249">
        <ele>439</ele>
        <time>2016-04-24T08:27:20Z</time>
      </trkpt>
      <trkpt lat="47.41537" lon="6.69249">
        <ele>439</ele>
        <time>2016-04-24T08:27:21Z</time>
      </trkpt>
      <trkpt lat="47.41541" lon="6.69249">
        <ele>439</ele>
        <time>2016-04-24T08:27:22Z</time>
      </trkpt>
      <trkpt lat="47.41546" lon="6.6925">
        <ele>439</ele>
        <time>2016-04-24T08:27:23Z</time>
      </trkpt>
      <trkpt lat="47.41551" lon="6.69252">
        <ele>441</ele>
        <time>2016-04-24T08:27:24Z</time>
      </trkpt>
      <trkpt lat="47.41556" lon="6.69253">
        <ele>441</ele>
        <time>2016-04-24T08:27:25Z</time>
      </trkpt>
      <trkpt lat="47.41561" lon="6.69253">
        <ele>441</ele>
        <time>2016-04-24T08:27:26Z</time>
      </trkpt>
      <trkpt lat="47.41566" lon="6.69254">
        <ele>441</ele>
        <time>2016-04-24T08:27:27Z</time>
      </trkpt>
      <trkpt lat="47.41571" lon="6.69255">
        <ele>441</ele>
        <time>2016-04-24T08:27:28Z</time>
      </trkpt>
      <trkpt lat="47.41576" lon="6.69257">
        <ele>441</ele>
        <time>2016-04-24T08:27:29Z</time>
      </trkpt>
      <trkpt lat="47.4158" lon="6.69257">
        <ele>441</ele>
        <time>2016-04-24T08:27:30Z</time>
      </trkpt>
      <trkpt lat="47.41584" lon="6.69259">
        <ele>440</ele>
        <time>2016-04-24T08:27:31Z</time>
      </trkpt>
      <trkpt lat="47.41589" lon="6.69263">
        <ele>440</ele>
        <time>2016-04-24T08:27:32Z</time>
      </trkpt>
      <trkpt lat="47.41593" lon="6.69265">
        <ele>440</ele>
        <time>2016-04-24T08:27:33Z</time>
      </trkpt>
      <trkpt lat="47.41597" lon="6.69268">
        <ele>440</ele>
        <time>2016-04-24T08:27:34Z</time>
      </trkpt>
      <trkpt lat="47.41602" lon="6.69271">
        <ele>440</ele>
        <time>2016-04-24T08:27:35Z</time>
      </trkpt>
      <trkpt lat="47.41606" lon="6.69273">
        <ele>440</ele>
        <time>2016-04-24T08:27:36Z</time>
      </trkpt>
      <trkpt lat="47.4161" lon="6.69277">
        <ele>440</ele>
        <time>2016-04-24T08:27:37Z</time>
      </trkpt>
      <trkpt lat="47.41614" lon="6.6928">
        <ele>440</ele>
        <time>2016-04-24T08:27:38Z</time>
      </trkpt>
      <trkpt lat="47.41618" lon="6.69283">
        <ele>440</ele>
        <time>2016-04-24T08:27:39Z</time>
      </trkpt>
      <trkpt lat="47.41623" lon="6.69286">
        <ele>440</ele>
        <time>2016-04-24T08:27:40Z</time>
      </trkpt>
      <trkpt lat="47.41627" lon="6.69289">
        <ele>440</ele>
        <time>2016-04-24T08:27:41Z</time>
      </trkpt>
      <trkpt lat="47.41632" lon="6.69292">
        <ele>440</ele>
        <time>2016-04-24T08:27:42Z</time>
      </trkpt>
      <trkpt lat="47.41636" lon="6.69294">
        <ele>440</ele>
        <time>2016-04-24T08:27:43Z</time>
      </trkpt>
      <trkpt lat="47.4164" lon="6.69297">
        <ele>440</ele>
        <time>2016-04-24T08:27:44Z</time>
      </trkpt>
      <trkpt lat="47.41645" lon="6.693">
        <ele>440</ele>
        <time>2016-04-24T08:27:45Z</time>
      </trkpt>
      <trkpt lat="47.4165" lon="6.69303">
        <ele>440</ele>
        <time>2016-04-24T08:27:46Z</time>
      </trkpt>
      <trkpt lat="47.41655" lon="6.69307">
        <ele>440</ele>
        <time>2016-04-24T08:27:47Z</time>
      </trkpt>
      <trkpt lat="47.41659" lon="6.6931">
        <ele>440</ele>
        <time>2016-04-24T08:27:48Z</time>
      </trkpt>
      <trkpt lat="47.41663" lon="6.69312">
        <ele>440</ele>
        <time>2016-04-24T08:27:49Z</time>
      </trkpt>
      <trkpt lat="47.41668" lon="6.69315">
        <ele>439</ele>
        <time>2016-04-24T08:27:50Z</time>
      </trkpt>
      <trkpt lat="47.41673" lon="6.69318">
        <ele>439</ele>
        <time>2016-04-24T08:27:51Z</time>
      </trkpt>
      <trkpt lat="47.41677" lon="6.6932">
        <ele>439</ele>
        <time>2016-04-24T08:27:52Z</time>
      </trkpt>
      <trkpt lat="47.41682" lon="6.69322">
        <ele>439</ele>
        <time>2016-04-24T08:27:53Z</time>
      </trkpt>
      <trkpt lat="47.41688" lon="6.69325">
        <ele>439</ele>
        <time>2016-04-24T08:27:54Z</time>
      </trkpt>
      <trkpt lat="47.41693" lon="6.69327">
        <ele>439</ele>
        <time>2016-04-24T08:27:55Z</time>
      </trkpt>
      <trkpt lat="47.41698" lon="6.69329">
        <ele>438</ele>
        <time>2016-04-24T08:27:56Z</time>
      </trkpt>
      <trkpt lat="47.41704" lon="6.69331">
        <ele>438</ele>
        <time>2016-04-24T08:27:57Z</time>
      </trkpt>
      <trkpt lat="47.41709" lon="6.69331">
        <ele>438</ele>
        <time>2016-04-24T08:27:58Z</time>
      </trkpt>
      <trkpt lat="47.41714" lon="6.69332">
        <ele>438</ele>
        <time>2016-04-24T08:27:59Z</time>
      </trkpt>
      <trkpt lat="47.41719" lon="6.69332">
        <ele>438</ele>
        <time>2016-04-24T08:28:00Z</time>
      </trkpt>
      <trkpt lat="47.41724" lon="6.69335">
        <ele>440</ele>
        <time>2016-04-24T08:28:01Z</time>
      </trkpt>
      <trkpt lat="47.4173" lon="6.69337">
        <ele>440</ele>
        <time>2016-04-24T08:28:02Z</time>
      </trkpt>
      <trkpt lat="47.41735" lon="6.69338">
        <ele>439</ele>
        <time>2016-04-24T08:28:03Z</time>
      </trkpt>
      <trkpt lat="47.4174" lon="6.6934">
        <ele>439</ele>
        <time>2016-04-24T08:28:04Z</time>
      </trkpt>
      <trkpt lat="47.41745" lon="6.69341">
        <ele>439</ele>
        <time>2016-04-24T08:28:05Z</time>
      </trkpt>
      <trkpt lat="47.41751" lon="6.69343">
        <ele>439</ele>
        <time>2016-04-24T08:28:06Z</time>
      </trkpt>
      <trkpt lat="47.41756" lon="6.69343">
        <ele>439</ele>
        <time>2016-04-24T08:28:07Z</time>
      </trkpt>
      <trkpt lat="47.4176" lon="6.69344">
        <ele>439</ele>
        <time>2016-04-24T08:28:08Z</time>
      </trkpt>
      <trkpt lat="47.41765" lon="6.69345">
        <ele>439</ele>
        <time>2016-04-24T08:28:09Z</time>
      </trkpt>
      <trkpt lat="47.41771" lon="6.69346">
        <ele>439</ele>
        <time>2016-04-24T08:28:10Z</time>
      </trkpt>
      <trkpt lat="47.41776" lon="6.69346">
        <ele>439</ele>
        <time>2016-04-24T08:28:11Z</time>
      </trkpt>
      <trkpt lat="47.41781" lon="6.69347">
        <ele>439</ele>
        <time>2016-04-24T08:28:12Z</time>
      </trkpt>
      <trkpt lat="47.41785" lon="6.69348">
        <ele>439</ele>
        <time>2016-04-24T08:28:13Z</time>
      </trkpt>
      <trkpt lat="47.4179" lon="6.69349">
        <ele>439</ele>
        <time>2016-04-24T08:28:14Z</time>
      </trkpt>
      <trkpt lat="47.41794" lon="6.6935">
        <ele>439</ele>
        <time>2016-04-24T08:28:15Z</time>
      </trkpt>
      <trkpt lat="47.41799" lon="6.69351">
        <ele>439</ele>
        <time>2016-04-24T08:28:16Z</time>
      </trkpt>
      <trkpt lat="47.41804" lon="6.69351">
        <ele>439</ele>
        <time>2016-04-24T08:28:17Z</time>
      </trkpt>
      <trkpt lat="47.41809" lon="6.69352">
        <ele>439</ele>
        <time>2016-04-24T08:28:18Z</time>
      </trkpt>
      <trkpt lat="47.41814" lon="6.69354">
        <ele>439</ele>
        <time>2016-04-24T08:28:19Z</time>
      </trkpt>
      <trkpt lat="47.41818" lon="6.69355">
        <ele>439</ele>
        <time>2016-04-24T08:28:20Z</time>
      </trkpt>
      <trkpt lat="47.41823" lon="6.69356">
        <ele>439</ele>
        <time>2016-04-24T08:28:21Z</time>
      </trkpt>
      <trkpt lat="47.41827" lon="6.69357">
        <ele>439</ele>
        <time>2016-04-24T08:28:22Z</time>
      </trkpt>
      <trkpt lat="47.41832" lon="6.69359">
        <ele>439</ele>
        <time>2016-04-24T08:28:23Z</time>
      </trkpt>
      <trkpt lat="47.41837" lon="6.6936">
        <ele>438</ele>
        <time>2016-04-24T08:28:24Z</time>
      </trkpt>
      <trkpt lat="47.41842" lon="6.6936">
        <ele>438</ele>
        <time>2016-04-24T08:28:25Z</time>
      </trkpt>
      <trkpt lat="47.41847" lon="6.69361">
        <ele>438</ele>
        <time>2016-04-24T08:28:26Z</time>
      </trkpt>
      <trkpt lat="47.41852" lon="6.69362">
        <ele>438</ele>
        <time>2016-04-24T08:28:27Z</time>
      </trkpt>
      <trkpt lat="47.41857" lon="6.69362">
        <ele>438</ele>
        <time>2016-04-24T08:28:28Z</time>
      </trkpt>
      <trkpt lat="47.41862" lon="6.69363">
        <ele>438</ele>
        <time>2016-04-24T08:28:29Z</time>
      </trkpt>
      <trkpt lat="47.41868" lon="6.69364">
        <ele>438</ele>
        <time>2016-04-24T08:28:30Z</time>
      </trkpt>
      <trkpt lat="47.41873" lon="6.69365">
        <ele>438</ele>
        <time>2016-04-24T08:28:31Z</time>
      </trkpt>
      <trkpt lat="47.41878" lon="6.69366">
        <ele>438</ele>
        <time>2016-04-24T08:28:32Z</time>
      </trkpt>
      <trkpt lat="47.41883" lon="6.69367">
        <ele>438</ele>
        <time>2016-04-24T08:28:33Z</time>
      </trkpt>
      <trkpt lat="47.41888" lon="6.69369">
        <ele>438</ele>
        <time>2016-04-24T08:28:34Z</time>
      </trkpt>
      <trkpt lat="47.41893" lon="6.69369">
        <ele>438</ele>
        <time>2016-04-24T08:28:35Z</time>
      </trkpt>
      <trkpt lat="47.41898" lon="6.69371">
        <ele>438</ele>
        <time>2016-04-24T08:28:36Z</time>
      </trkpt>
      <trkpt lat="47.41902" lon="6.6937">
        <ele>438</ele>
        <time>2016-04-24T08:28:37Z</time>
      </trkpt>
      <trkpt lat="47.41907" lon="6.69369">
        <ele>438</ele>
        <time>2016-04-24T08:28:38Z</time>
      </trkpt>
      <trkpt lat="47.41912" lon="6.69366">
        <ele>438</ele>
        <time>2016-04-24T08:28:39Z</time>
      </trkpt>
      <trkpt lat="47.41917" lon="6.69362">
        <ele>438</ele>
        <time>2016-04-24T08:28:40Z</time>
      </trkpt>
      <trkpt lat="47.41921" lon="6.69356">
        <ele>436</ele>
        <time>2016-04-24T08:28:41Z</time>
      </trkpt>
      <trkpt lat="47.41924" lon="6.6935">
        <ele>436</ele>
        <time>2016-04-24T08:28:42Z</time>
      </trkpt>
      <trkpt lat="47.41927" lon="6.69342">
        <ele>435</ele>
        <time>2016-04-24T08:28:43Z</time>
      </trkpt>
      <trkpt lat="47.4193" lon="6.69335">
        <ele>435</ele>
        <time>2016-04-24T08:28:44Z</time>
      </trkpt>
      <trkpt lat="47.41933" lon="6.69326">
        <ele>432</ele>
        <time>2016-04-24T08:28:45Z</time>
      </trkpt>
      <trkpt lat="47.41937" lon="6.69316">
        <ele>431</ele>
        <time>2016-04-24T08:28:46Z</time>
      </trkpt>
      <trkpt lat="47.4194" lon="6.69306">
        <ele>431</ele>
        <time>2016-04-24T08:28:47Z</time>
      </trkpt>
      <trkpt lat="47.41944" lon="6.69296">
        <ele>430</ele>
        <time>2016-04-24T08:28:48Z</time>
      </trkpt>
      <trkpt lat="47.41948" lon="6.69286">
        <ele>430</ele>
        <time>2016-04-24T08:28:49Z</time>
      </trkpt>
      <trkpt lat="47.41952" lon="6.69276">
        <ele>429</ele>
        <time>2016-04-24T08:28:50Z</time>
      </trkpt>
      <trkpt lat="47.41955" lon="6.69266">
        <ele>429</ele>
        <time>2016-04-24T08:28:51Z</time>
      </trkpt>
      <trkpt lat="47.41959" lon="6.69255">
        <ele>428</ele>
        <time>2016-04-24T08:28:52Z</time>
      </trkpt>
      <trkpt lat="47.41963" lon="6.69244">
        <ele>424</ele>
        <time>2016-04-24T08:28:53Z</time>
      </trkpt>
      <trkpt lat="47.41967" lon="6.69232">
        <ele>424</ele>
        <time>2016-04-24T08:28:54Z</time>
      </trkpt>
      <trkpt lat="47.41972" lon="6.69222">
        <ele>424</ele>
        <time>2016-04-24T08:28:55Z</time>
      </trkpt>
      <trkpt lat="47.41976" lon="6.6921">
        <ele>423</ele>
        <time>2016-04-24T08:28:56Z</time>
      </trkpt>
      <trkpt lat="47.4198" lon="6.69199">
        <ele>422</ele>
        <time>2016-04-24T08:28:57Z</time>
      </trkpt>
      <trkpt lat="47.41984" lon="6.69188">
        <ele>422</ele>
        <time>2016-04-24T08:28:58Z</time>
      </trkpt>
      <trkpt lat="47.41989" lon="6.69177">
        <ele>420</ele>
        <time>2016-04-24T08:28:59Z</time>
      </trkpt>
      <trkpt lat="47.41994" lon="6.69165">
        <ele>418</ele>
        <time>2016-04-24T08:29:00Z</time>
      </trkpt>
      <trkpt lat="47.42" lon="6.69154">
        <ele>417</ele>
        <time>2016-04-24T08:29:01Z</time>
      </trkpt>
      <trkpt lat="47.42005" lon="6.69143">
        <ele>415</ele>
        <time>2016-04-24T08:29:02Z</time>
      </trkpt>
      <trkpt lat="47.42012" lon="6.69132">
        <ele>414</ele>
        <time>2016-04-24T08:29:03Z</time>
      </trkpt>
      <trkpt lat="47.42017" lon="6.69123">
        <ele>414</ele>
        <time>2016-04-24T08:29:04Z</time>
      </trkpt>
      <trkpt lat="47.42022" lon="6.69114">
        <ele>413</ele>
        <time>2016-04-24T08:29:05Z</time>
      </trkpt>
      <trkpt lat="47.42027" lon="6.69106">
        <ele>413</ele>
        <time>2016-04-24T08:29:06Z</time>
      </trkpt>
      <trkpt lat="47.42032" lon="6.69098">
        <ele>413</ele>
        <time>2016-04-24T08:29:07Z</time>
      </trkpt>
      <trkpt lat="47.42037" lon="6.69091">
        <ele>413</ele>
        <time>2016-04-24T08:29:08Z</time>
      </trkpt>
      <trkpt lat="47.42041" lon="6.69082">
        <ele>410</ele>
        <time>2016-04-24T08:29:09Z</time>
      </trkpt>
      <trkpt lat="47.42045" lon="6.69074">
        <ele>410</ele>
        <time>2016-04-24T08:29:10Z</time>
      </trkpt>
      <trkpt lat="47.42048" lon="6.69066">
        <ele>410</ele>
        <time>2016-04-24T08:29:11Z</time>
      </trkpt>
      <trkpt lat="47.4205" lon="6.69058">
        <ele>410</ele>
        <time>2016-04-24T08:29:12Z</time>
      </trkpt>
      <trkpt lat="47.4205" lon="6.6905">
        <ele>410</ele>
        <time>2016-04-24T08:29:13Z</time>
      </trkpt>
      <trkpt lat="47.42049" lon="6.69044">
        <ele>410</ele>
        <time>2016-04-24T08:29:13.999Z</time>
      </trkpt>
      <trkpt lat="47.42048" lon="6.69039">
        <ele>410</ele>
        <time>2016-04-24T08:29:15Z</time>
      </trkpt>
      <trkpt lat="47.42047" lon="6.69036">
        <ele>410</ele>
        <time>2016-04-24T08:29:16Z</time>
      </trkpt>
      <trkpt lat="47.42047" lon="6.6903">
        <ele>409</ele>
        <time>2016-04-24T08:29:17Z</time>
      </trkpt>
      <trkpt lat="47.42048" lon="6.69024">
        <ele>409</ele>
        <time>2016-04-24T08:29:18Z</time>
      </trkpt>
      <trkpt lat="47.42048" lon="6.6902">
        <ele>409</ele>
        <time>2016-04-24T08:29:19.001Z</time>
      </trkpt>
      <trkpt lat="47.42054" lon="6.69015">
        <ele>409</ele>
        <time>2016-04-24T08:29:20.001Z</time>
      </trkpt>
      <trkpt lat="47.42058" lon="6.69008">
        <ele>409</ele>
        <time>2016-04-24T08:29:21Z</time>
      </trkpt>
      <trkpt lat="47.42063" lon="6.69002">
        <ele>409</ele>
        <time>2016-04-24T08:29:22Z</time>
      </trkpt>
      <trkpt lat="47.42066" lon="6.68995">
        <ele>405</ele>
        <time>2016-04-24T08:29:23Z</time>
      </trkpt>
      <trkpt lat="47.42069" lon="6.68988">
        <ele>405</ele>
        <time>2016-04-24T08:29:24Z</time>
      </trkpt>
      <trkpt lat="47.42073" lon="6.68985">
        <ele>405</ele>
        <time>2016-04-24T08:29:25Z</time>
      </trkpt>
      <trkpt lat="47.42074" lon="6.68982">
        <ele>405</ele>
        <time>2016-04-24T08:29:26Z</time>
      </trkpt>
      <trkpt lat="47.42077" lon="6.68978">
        <ele>405</ele>
        <time>2016-04-24T08:29:27Z</time>
      </trkpt>
      <trkpt lat="47.4208" lon="6.68975">
        <ele>404</ele>
        <time>2016-04-24T08:29:27.999Z</time>
      </trkpt>
      <trkpt lat="47.42084" lon="6.68969">
        <ele>401</ele>
        <time>2016-04-24T08:29:29Z</time>
      </trkpt>
      <trkpt lat="47.42088" lon="6.68966">
        <ele>401</ele>
        <time>2016-04-24T08:29:30Z</time>
      </trkpt>
      <trkpt lat="47.42092" lon="6.68962">
        <ele>400</ele>
        <time>2016-04-24T08:29:31Z</time>
      </trkpt>
      <trkpt lat="47.42095" lon="6.68959">
        <ele>400</ele>
        <time>2016-04-24T08:29:32Z</time>
      </trkpt>
      <trkpt lat="47.42101" lon="6.68956">
        <ele>399</ele>
        <time>2016-04-24T08:29:33Z</time>
      </trkpt>
      <trkpt lat="47.42106" lon="6.68951">
        <ele>399</ele>
        <time>2016-04-24T08:29:33.999Z</time>
      </trkpt>
      <trkpt lat="47.42112" lon="6.68945">
        <ele>398</ele>
        <time>2016-04-24T08:29:35Z</time>
      </trkpt>
      <trkpt lat="47.42114" lon="6.68945">
        <ele>398</ele>
        <time>2016-04-24T08:29:36Z</time>
      </trkpt>
      <trkpt lat="47.42117" lon="6.68944">
        <ele>398</ele>
        <time>2016-04-24T08:29:37Z</time>
      </trkpt>
      <trkpt lat="47.4212" lon="6.68941">
        <ele>398</ele>
        <time>2016-04-24T08:29:38Z</time>
      </trkpt>
      <trkpt lat="47.42129" lon="6.68933">
        <ele>397</ele>
        <time>2016-04-24T08:29:39Z</time>
      </trkpt>
      <trkpt lat="47.42134" lon="6.68928">
        <ele>397</ele>
        <time>2016-04-24T08:29:40Z</time>
      </trkpt>
      <trkpt lat="47.42141" lon="6.68916">
        <ele>389</ele>
        <time>2016-04-24T08:29:41Z</time>
      </trkpt>
      <trkpt lat="47.4215" lon="6.68912">
        <ele>389</ele>
        <time>2016-04-24T08:29:42Z</time>
      </trkpt>
      <trkpt lat="47.42161" lon="6.68907">
        <ele>389</ele>
        <time>2016-04-24T08:29:43Z</time>
      </trkpt>
      <trkpt lat="47.42173" lon="6.68905">
        <ele>386</ele>
        <time>2016-04-24T08:29:44Z</time>
      </trkpt>
      <trkpt lat="47.42184" lon="6.68901">
        <ele>383</ele>
        <time>2016-04-24T08:29:45Z</time>
      </trkpt>
      <trkpt lat="47.42193" lon="6.689">
        <ele>381</ele>
        <time>2016-04-24T08:29:46Z</time>
      </trkpt>
      <trkpt lat="47.42205" lon="6.68908">
        <ele>380</ele>
        <time>2016-04-24T08:29:47Z</time>
      </trkpt>
      <trkpt lat="47.42214" lon="6.68911">
        <ele>379</ele>
        <time>2016-04-24T08:29:48Z</time>
      </trkpt>
      <trkpt lat="47.42222" lon="6.68912">
        <ele>379</ele>
        <time>2016-04-24T08:29:49Z</time>
      </trkpt>
      <trkpt lat="47.42228" lon="6.68911">
        <ele>378</ele>
        <time>2016-04-24T08:29:50Z</time>
      </trkpt>
      <trkpt lat="47.42229" lon="6.68909">
        <ele>378</ele>
        <time>2016-04-24T08:29:51Z</time>
      </trkpt>
      <trkpt lat="47.42235" lon="6.68909">
        <ele>378</ele>
        <time>2016-04-24T08:29:52Z</time>
      </trkpt>
      <trkpt lat="47.42242" lon="6.68912">
        <ele>378</ele>
        <time>2016-04-24T08:29:53Z</time>
      </trkpt>
      <trkpt lat="47.4225" lon="6.68916">
        <ele>379</ele>
        <time>2016-04-24T08:29:54Z</time>
      </trkpt>
      <trkpt lat="47.42257" lon="6.68922">
        <ele>377</ele>
        <time>2016-04-24T08:29:55Z</time>
      </trkpt>
      <trkpt lat="47.42266" lon="6.6893">
        <ele>375</ele>
        <time>2016-04-24T08:29:56Z</time>
      </trkpt>
      <trkpt lat="47.42273" lon="6.68935">
        <ele>374</ele>
        <time>2016-04-24T08:29:57.002Z</time>
      </trkpt>
      <trkpt lat="47.4228" lon="6.68945">
        <ele>373</ele>
        <time>2016-04-24T08:29:58Z</time>
      </trkpt>
      <trkpt lat="47.42287" lon="6.68952">
        <ele>372</ele>
        <time>2016-04-24T08:29:59Z</time>
      </trkpt>
      <trkpt lat="47.42293" lon="6.68961">
        <ele>372</ele>
        <time>2016-04-24T08:30:00Z</time>
      </trkpt>
      <trkpt lat="47.42301" lon="6.68974">
        <ele>371</ele>
        <time>2016-04-24T08:30:01Z</time>
      </trkpt>
      <trkpt lat="47.4231" lon="6.68988">
        <ele>370</ele>
        <time>2016-04-24T08:30:02Z</time>
      </trkpt>
      <trkpt lat="47.42316" lon="6.68998">
        <ele>368</ele>
        <time>2016-04-24T08:30:03Z</time>
      </trkpt>
      <trkpt lat="47.42324" lon="6.69007">
        <ele>371</ele>
        <time>2016-04-24T08:30:04Z</time>
      </trkpt>
      <trkpt lat="47.42331" lon="6.69016">
        <ele>372</ele>
        <time>2016-04-24T08:30:05Z</time>
      </trkpt>
      <trkpt lat="47.42337" lon="6.69023">
        <ele>362</ele>
        <time>2016-04-24T08:30:06Z</time>
      </trkpt>
      <trkpt lat="47.42343" lon="6.69025">
        <ele>361</ele>
        <time>2016-04-24T08:30:07Z</time>
      </trkpt>
      <trkpt lat="47.4235" lon="6.69025">
        <ele>361</ele>
        <time>2016-04-24T08:30:08Z</time>
      </trkpt>
      <trkpt lat="47.42358" lon="6.69026">
        <ele>360</ele>
        <time>2016-04-24T08:30:09Z</time>
      </trkpt>
      <trkpt lat="47.4237" lon="6.69029">
        <ele>359</ele>
        <time>2016-04-24T08:30:10Z</time>
      </trkpt>
      <trkpt lat="47.42377" lon="6.69031">
        <ele>358</ele>
        <time>2016-04-24T08:30:11Z</time>
      </trkpt>
      <trkpt lat="47.42384" lon="6.69033">
        <ele>357</ele>
        <time>2016-04-24T08:30:12Z</time>
      </trkpt>
      <trkpt lat="47.42392" lon="6.69036">
        <ele>356</ele>
        <time>2016-04-24T08:30:13Z</time>
      </trkpt>
      <trkpt lat="47.42398" lon="6.69037">
        <ele>356</ele>
        <time>2016-04-24T08:30:14Z</time>
      </trkpt>
      <trkpt lat="47.42405" lon="6.69037">
        <ele>355</ele>
        <time>2016-04-24T08:30:15Z</time>
      </trkpt>
      <trkpt lat="47.42411" lon="6.69035">
        <ele>355</ele>
        <time>2016-04-24T08:30:16Z</time>
      </trkpt>
      <trkpt lat="47.42416" lon="6.69034">
        <ele>354</ele>
        <time>2016-04-24T08:30:17Z</time>
      </trkpt>
      <trkpt lat="47.42421" lon="6.69033">
        <ele>351</ele>
        <time>2016-04-24T08:30:18Z</time>
      </trkpt>
      <trkpt lat="47.42427" lon="6.69034">
        <ele>351</ele>
        <time>2016-04-24T08:30:19Z</time>
      </trkpt>
      <trkpt lat="47.42431" lon="6.69035">
        <ele>351</ele>
        <time>2016-04-24T08:30:20Z</time>
      </trkpt>
      <trkpt lat="47.42436" lon="6.69036">
        <ele>351</ele>
        <time>2016-04-24T08:30:21Z</time>
      </trkpt>
      <trkpt lat="47.42441" lon="6.69034">
        <ele>352</ele>
        <time>2016-04-24T08:30:22Z</time>
      </trkpt>
      <trkpt lat="47.42447" lon="6.69032">
        <ele>352</ele>
        <time>2016-04-24T08:30:23Z</time>
      </trkpt>
      <trkpt lat="47.42454" lon="6.69032">
        <ele>352</ele>
        <time>2016-04-24T08:30:24Z</time>
      </trkpt>
      <trkpt lat="47.42456" lon="6.69035">
        <ele>352</ele>
        <time>2016-04-24T08:30:25Z</time>
      </trkpt>
      <trkpt lat="47.42458" lon="6.69039">
        <ele>353</ele>
        <time>2016-04-24T08:30:26Z</time>
      </trkpt>
      <trkpt lat="47.4246" lon="6.69043">
        <ele>353</ele>
        <time>2016-04-24T08:30:27Z</time>
      </trkpt>
      <trkpt lat="47.42459" lon="6.69049">
        <ele>353</ele>
        <time>2016-04-24T08:30:28Z</time>
      </trkpt>
      <trkpt lat="47.42458" lon="6.69055">
        <ele>353</ele>
        <time>2016-04-24T08:30:29Z</time>
      </trkpt>
      <trkpt lat="47.42457" lon="6.6906">
        <ele>353</ele>
        <time>2016-04-24T08:30:30Z</time>
      </trkpt>
      <trkpt lat="47.42457" lon="6.69066">
        <ele>353</ele>
        <time>2016-04-24T08:30:31Z</time>
      </trkpt>
      <trkpt lat="47.42456" lon="6.69072">
        <ele>354</ele>
        <time>2016-04-24T08:30:32Z</time>
      </trkpt>
      <trkpt lat="47.42455" lon="6.69077">
        <ele>354</ele>
        <time>2016-04-24T08:30:33Z</time>
      </trkpt>
      <trkpt lat="47.42454" lon="6.69082">
        <ele>354</ele>
        <time>2016-04-24T08:30:34Z</time>
      </trkpt>
      <trkpt lat="47.42453" lon="6.69088">
        <ele>357</ele>
        <time>2016-04-24T08:30:35Z</time>
      </trkpt>
      <trkpt lat="47.42452" lon="6.69093">
        <ele>357</ele>
        <time>2016-04-24T08:30:36Z</time>
      </trkpt>
      <trkpt lat="47.42451" lon="6.69099">
        <ele>357</ele>
        <time>2016-04-24T08:30:37Z</time>
      </trkpt>
      <trkpt lat="47.4245" lon="6.69104">
        <ele>357</ele>
        <time>2016-04-24T08:30:38Z</time>
      </trkpt>
      <trkpt lat="47.42449" lon="6.69108">
        <ele>357</ele>
        <time>2016-04-24T08:30:39Z</time>
      </trkpt>
      <trkpt lat="47.42447" lon="6.69113">
        <ele>357</ele>
        <time>2016-04-24T08:30:40Z</time>
      </trkpt>
      <trkpt lat="47.42446" lon="6.69118">
        <ele>357</ele>
        <time>2016-04-24T08:30:41Z</time>
      </trkpt>
      <trkpt lat="47.42444" lon="6.69122">
        <ele>357</ele>
        <time>2016-04-24T08:30:42Z</time>
      </trkpt>
      <trkpt lat="47.42443" lon="6.69126">
        <ele>356</ele>
        <time>2016-04-24T08:30:43Z</time>
      </trkpt>
      <trkpt lat="47.42441" lon="6.6913">
        <ele>356</ele>
        <time>2016-04-24T08:30:44Z</time>
      </trkpt>
      <trkpt lat="47.42439" lon="6.69135">
        <ele>356</ele>
        <time>2016-04-24T08:30:46Z</time>
      </trkpt>
      <trkpt lat="47.42439" lon="6.69138">
        <ele>356</ele>
        <time>2016-04-24T08:30:47Z</time>
      </trkpt>
      <trkpt lat="47.42439" lon="6.69142">
        <ele>356</ele>
        <time>2016-04-24T08:30:48Z</time>
      </trkpt>
      <trkpt lat="47.42439" lon="6.69147">
        <ele>356</ele>
        <time>2016-04-24T08:30:49Z</time>
      </trkpt>
      <trkpt lat="47.42438" lon="6.69153">
        <ele>356</ele>
        <time>2016-04-24T08:30:50Z</time>
      </trkpt>
      <trkpt lat="47.42438" lon="6.69158">
        <ele>355</ele>
        <time>2016-04-24T08:30:51Z</time>
      </trkpt>
      <trkpt lat="47.42437" lon="6.69164">
        <ele>355</ele>
        <time>2016-04-24T08:30:52Z</time>
      </trkpt>
      <trkpt lat="47.42436" lon="6.69168">
        <ele>357</ele>
        <time>2016-04-24T08:30:53Z</time>
      </trkpt>
      <trkpt lat="47.42435" lon="6.69172">
        <ele>357</ele>
        <time>2016-04-24T08:30:54Z</time>
      </trkpt>
      <trkpt lat="47.42434" lon="6.69176">
        <ele>357</ele>
        <time>2016-04-24T08:30:55Z</time>
      </trkpt>
      <trkpt lat="47.42433" lon="6.69179">
        <ele>357</ele>
        <time>2016-04-24T08:30:56Z</time>
      </trkpt>
      <trkpt lat="47.42432" lon="6.69183">
        <ele>357</ele>
        <time>2016-04-24T08:30:57Z</time>
      </trkpt>
      <trkpt lat="47.42431" lon="6.69186">
        <ele>357</ele>
        <time>2016-04-24T08:30:58Z</time>
      </trkpt>
      <trkpt lat="47.4243" lon="6.6919">
        <ele>357</ele>
        <time>2016-04-24T08:30:59Z</time>
      </trkpt>
      <trkpt lat="47.42429" lon="6.69194">
        <ele>358</ele>
        <time>2016-04-24T08:31:00Z</time>
      </trkpt>
      <trkpt lat="47.42428" lon="6.69198">
        <ele>358</ele>
        <time>2016-04-24T08:31:01Z</time>
      </trkpt>
      <trkpt lat="47.42428" lon="6.69202">
        <ele>358</ele>
        <time>2016-04-24T08:31:02Z</time>
      </trkpt>
      <trkpt lat="47.42428" lon="6.69207">
        <ele>358</ele>
        <time>2016-04-24T08:31:03Z</time>
      </trkpt>
      <trkpt lat="47.42428" lon="6.69211">
        <ele>358</ele>
        <time>2016-04-24T08:31:04Z</time>
      </trkpt>
      <trkpt lat="47.42428" lon="6.69216">
        <ele>358</ele>
        <time>2016-04-24T08:31:05Z</time>
      </trkpt>
      <trkpt lat="47.42428" lon="6.69221">
        <ele>358</ele>
        <time>2016-04-24T08:31:06Z</time>
      </trkpt>
      <trkpt lat="47.42427" lon="6.69226">
        <ele>357</ele>
        <time>2016-04-24T08:31:06.999Z</time>
      </trkpt>
      <trkpt lat="47.42428" lon="6.69231">
        <ele>357</ele>
        <time>2016-04-24T08:31:08Z</time>
      </trkpt>
      <trkpt lat="47.42428" lon="6.69236">
        <ele>356</ele>
        <time>2016-04-24T08:31:09Z</time>
      </trkpt>
      <trkpt lat="47.42427" lon="6.69241">
        <ele>355</ele>
        <time>2016-04-24T08:31:10Z</time>
      </trkpt>
      <trkpt lat="47.42427" lon="6.69246">
        <ele>355</ele>
        <time>2016-04-24T08:31:11Z</time>
      </trkpt>
      <trkpt lat="47.42426" lon="6.69251">
        <ele>355</ele>
        <time>2016-04-24T08:31:12Z</time>
      </trkpt>
      <trkpt lat="47.42425" lon="6.69255">
        <ele>355</ele>
        <time>2016-04-24T08:31:13Z</time>
      </trkpt>
      <trkpt lat="47.42424" lon="6.6926">
        <ele>356</ele>
        <time>2016-04-24T08:31:14Z</time>
      </trkpt>
      <trkpt lat="47.42423" lon="6.69264">
        <ele>357</ele>
        <time>2016-04-24T08:31:15Z</time>
      </trkpt>
      <trkpt lat="47.42422" lon="6.69269">
        <ele>358</ele>
        <time>2016-04-24T08:31:16Z</time>
      </trkpt>
      <trkpt lat="47.42421" lon="6.69273">
        <ele>359</ele>
        <time>2016-04-24T08:31:17Z</time>
      </trkpt>
      <trkpt lat="47.4242" lon="6.69278">
        <ele>359</ele>
        <time>2016-04-24T08:31:18Z</time>
      </trkpt>
      <trkpt lat="47.42419" lon="6.69282">
        <ele>360</ele>
        <time>2016-04-24T08:31:19Z</time>
      </trkpt>
      <trkpt lat="47.42418" lon="6.69286">
        <ele>360</ele>
        <time>2016-04-24T08:31:20Z</time>
      </trkpt>
      <trkpt lat="47.42417" lon="6.69291">
        <ele>360</ele>
        <time>2016-04-24T08:31:21Z</time>
      </trkpt>
      <trkpt lat="47.42416" lon="6.69295">
        <ele>355</ele>
        <time>2016-04-24T08:31:22Z</time>
      </trkpt>
      <trkpt lat="47.42415" lon="6.693">
        <ele>355</ele>
        <time>2016-04-24T08:31:23Z</time>
      </trkpt>
      <trkpt lat="47.42414" lon="6.69305">
        <ele>355</ele>
        <time>2016-04-24T08:31:24Z</time>
      </trkpt>
      <trkpt lat="47.42413" lon="6.6931">
        <ele>355</ele>
        <time>2016-04-24T08:31:25Z</time>
      </trkpt>
      <trkpt lat="47.42412" lon="6.69315">
        <ele>355</ele>
        <time>2016-04-24T08:31:26Z</time>
      </trkpt>
      <trkpt lat="47.4241" lon="6.6932">
        <ele>355</ele>
        <time>2016-04-24T08:31:27Z</time>
      </trkpt>
      <trkpt lat="47.42409" lon="6.69325">
        <ele>354</ele>
        <time>2016-04-24T08:31:28Z</time>
      </trkpt>
      <trkpt lat="47.42408" lon="6.69329">
        <ele>354</ele>
        <time>2016-04-24T08:31:29Z</time>
      </trkpt>
      <trkpt lat="47.42407" lon="6.69334">
        <ele>355</ele>
        <time>2016-04-24T08:31:30Z</time>
      </trkpt>
      <trkpt lat="47.42405" lon="6.69339">
        <ele>355</ele>
        <time>2016-04-24T08:31:31Z</time>
      </trkpt>
      <trkpt lat="47.42404" lon="6.69344">
        <ele>355</ele>
        <time>2016-04-24T08:31:32Z</time>
      </trkpt>
      <trkpt lat="47.42403" lon="6.69349">
        <ele>355</ele>
        <time>2016-04-24T08:31:33Z</time>
      </trkpt>
      <trkpt lat="47.42402" lon="6.69355">
        <ele>355</ele>
        <time>2016-04-24T08:31:34Z</time>
      </trkpt>
      <trkpt lat="47.42401" lon="6.6936">
        <ele>355</ele>
        <time>2016-04-24T08:31:35Z</time>
      </trkpt>
      <trkpt lat="47.42399" lon="6.69365">
        <ele>356</ele>
        <time>2016-04-24T08:31:36Z</time>
      </trkpt>
      <trkpt lat="47.42398" lon="6.69371">
        <ele>356</ele>
        <time>2016-04-24T08:31:37Z</time>
      </trkpt>
      <trkpt lat="47.42397" lon="6.69376">
        <ele>356</ele>
        <time>2016-04-24T08:31:38Z</time>
      </trkpt>
      <trkpt lat="47.42396" lon="6.69382">
        <ele>356</ele>
        <time>2016-04-24T08:31:39Z</time>
      </trkpt>
      <trkpt lat="47.42395" lon="6.69387">
        <ele>356</ele>
        <time>2016-04-24T08:31:40Z</time>
      </trkpt>
      <trkpt lat="47.42394" lon="6.69392">
        <ele>357</ele>
        <time>2016-04-24T08:31:41Z</time>
      </trkpt>
      <trkpt lat="47.42392" lon="6.69398">
        <ele>357</ele>
        <time>2016-04-24T08:31:42Z</time>
      </trkpt>
      <trkpt lat="47.42391" lon="6.69403">
        <ele>357</ele>
        <time>2016-04-24T08:31:43Z</time>
      </trkpt>
      <trkpt lat="47.4239" lon="6.69409">
        <ele>357</ele>
        <time>2016-04-24T08:31:44Z</time>
      </trkpt>
      <trkpt lat="47.42389" lon="6.69414">
        <ele>357</ele>
        <time>2016-04-24T08:31:45Z</time>
      </trkpt>
      <trkpt lat="47.42388" lon="6.69419">
        <ele>359</ele>
        <time>2016-04-24T08:31:46Z</time>
      </trkpt>
      <trkpt lat="47.42386" lon="6.69424">
        <ele>359</ele>
        <time>2016-04-24T08:31:47Z</time>
      </trkpt>
      <trkpt lat="47.42385" lon="6.69429">
        <ele>359</ele>
        <time>2016-04-24T08:31:48Z</time>
      </trkpt>
      <trkpt lat="47.42384" lon="6.69434">
        <ele>358</ele>
        <time>2016-04-24T08:31:49Z</time>
      </trkpt>
      <trkpt lat="47.42383" lon="6.69439">
        <ele>358</ele>
        <time>2016-04-24T08:31:50Z</time>
      </trkpt>
      <trkpt lat="47.42382" lon="6.69444">
        <ele>358</ele>
        <time>2016-04-24T08:31:51Z</time>
      </trkpt>
      <trkpt lat="47.4238" lon="6.69449">
        <ele>358</ele>
        <time>2016-04-24T08:31:52Z</time>
      </trkpt>
      <trkpt lat="47.42379" lon="6.69454">
        <ele>358</ele>
        <time>2016-04-24T08:31:52.999Z</time>
      </trkpt>
      <trkpt lat="47.42378" lon="6.69458">
        <ele>358</ele>
        <time>2016-04-24T08:31:54Z</time>
      </trkpt>
      <trkpt lat="47.42377" lon="6.69462">
        <ele>358</ele>
        <time>2016-04-24T08:31:55Z</time>
      </trkpt>
      <trkpt lat="47.42376" lon="6.69466">
        <ele>358</ele>
        <time>2016-04-24T08:31:56Z</time>
      </trkpt>
      <trkpt lat="47.42375" lon="6.6947">
        <ele>358</ele>
        <time>2016-04-24T08:31:57Z</time>
      </trkpt>
      <trkpt lat="47.42373" lon="6.69473">
        <ele>358</ele>
        <time>2016-04-24T08:31:58Z</time>
      </trkpt>
      <trkpt lat="47.42372" lon="6.69477">
        <ele>358</ele>
        <time>2016-04-24T08:31:59Z</time>
      </trkpt>
      <trkpt lat="47.42371" lon="6.69483">
        <ele>358</ele>
        <time>2016-04-24T08:32:01Z</time>
      </trkpt>
      <trkpt lat="47.4237" lon="6.69486">
        <ele>358</ele>
        <time>2016-04-24T08:32:02Z</time>
      </trkpt>
      <trkpt lat="47.42369" lon="6.69492">
        <ele>358</ele>
        <time>2016-04-24T08:32:04Z</time>
      </trkpt>
      <trkpt lat="47.42368" lon="6.69496">
        <ele>358</ele>
        <time>2016-04-24T08:32:05Z</time>
      </trkpt>
      <trkpt lat="47.42367" lon="6.695">
        <ele>361</ele>
        <time>2016-04-24T08:32:06Z</time>
      </trkpt>
      <trkpt lat="47.42366" lon="6.69505">
        <ele>361</ele>
        <time>2016-04-24T08:32:07Z</time>
      </trkpt>
      <trkpt lat="47.42365" lon="6.69509">
        <ele>361</ele>
        <time>2016-04-24T08:32:08Z</time>
      </trkpt>
      <trkpt lat="47.42363" lon="6.69513">
        <ele>361</ele>
        <time>2016-04-24T08:32:09Z</time>
      </trkpt>
      <trkpt lat="47.42362" lon="6.69516">
        <ele>361</ele>
        <time>2016-04-24T08:32:10Z</time>
      </trkpt>
      <trkpt lat="47.42361" lon="6.6952">
        <ele>361</ele>
        <time>2016-04-24T08:32:11Z</time>
      </trkpt>
      <trkpt lat="47.4236" lon="6.69524">
        <ele>361</ele>
        <time>2016-04-24T08:32:12Z</time>
      </trkpt>
      <trkpt lat="47.42358" lon="6.69528">
        <ele>361</ele>
        <time>2016-04-24T08:32:13Z</time>
      </trkpt>
      <trkpt lat="47.42357" lon="6.69532">
        <ele>361</ele>
        <time>2016-04-24T08:32:14Z</time>
      </trkpt>
      <trkpt lat="47.42355" lon="6.69536">
        <ele>362</ele>
        <time>2016-04-24T08:32:15Z</time>
      </trkpt>
      <trkpt lat="47.42354" lon="6.6954">
        <ele>362</ele>
        <time>2016-04-24T08:32:16Z</time>
      </trkpt>
      <trkpt lat="47.42353" lon="6.69544">
        <ele>362</ele>
        <time>2016-04-24T08:32:17Z</time>
      </trkpt>
      <trkpt lat="47.4235" lon="6.69549">
        <ele>362</ele>
        <time>2016-04-24T08:32:19Z</time>
      </trkpt>
      <trkpt lat="47.42349" lon="6.6955">
        <ele>362</ele>
        <time>2016-04-24T08:32:20Z</time>
      </trkpt>
      <trkpt lat="47.42347" lon="6.69552">
        <ele>361</ele>
        <time>2016-04-24T08:32:21Z</time>
      </trkpt>
      <trkpt lat="47.42346" lon="6.69555">
        <ele>361</ele>
        <time>2016-04-24T08:32:22Z</time>
      </trkpt>
      <trkpt lat="47.42344" lon="6.69559">
        <ele>361</ele>
        <time>2016-04-24T08:32:23Z</time>
      </trkpt>
      <trkpt lat="47.42343" lon="6.69562">
        <ele>361</ele>
        <time>2016-04-24T08:32:24Z</time>
      </trkpt>
      <trkpt lat="47.42342" lon="6.69565">
        <ele>361</ele>
        <time>2016-04-24T08:32:25Z</time>
      </trkpt>
      <trkpt lat="47.42341" lon="6.69568">
        <ele>360</ele>
        <time>2016-04-24T08:32:26Z</time>
      </trkpt>
      <trkpt lat="47.4234" lon="6.69571">
        <ele>360</ele>
        <time>2016-04-24T08:32:27Z</time>
      </trkpt>
      <trkpt lat="47.42339" lon="6.69575">
        <ele>359</ele>
        <time>2016-04-24T08:32:28Z</time>
      </trkpt>
      <trkpt lat="47.42337" lon="6.69578">
        <ele>359</ele>
        <time>2016-04-24T08:32:29Z</time>
      </trkpt>
      <trkpt lat="47.42335" lon="6.69582">
        <ele>358</ele>
        <time>2016-04-24T08:32:30Z</time>
      </trkpt>
      <trkpt lat="47.42334" lon="6.69586">
        <ele>358</ele>
        <time>2016-04-24T08:32:31Z</time>
      </trkpt>
      <trkpt lat="47.42332" lon="6.69589">
        <ele>357</ele>
        <time>2016-04-24T08:32:32Z</time>
      </trkpt>
      <trkpt lat="47.4233" lon="6.69592">
        <ele>357</ele>
        <time>2016-04-24T08:32:33Z</time>
      </trkpt>
      <trkpt lat="47.42328" lon="6.69595">
        <ele>357</ele>
        <time>2016-04-24T08:32:34Z</time>
      </trkpt>
      <trkpt lat="47.42326" lon="6.69597">
        <ele>358</ele>
        <time>2016-04-24T08:32:35Z</time>
      </trkpt>
      <trkpt lat="47.42323" lon="6.69601">
        <ele>358</ele>
        <time>2016-04-24T08:32:36Z</time>
      </trkpt>
      <trkpt lat="47.42321" lon="6.69604">
        <ele>358</ele>
        <time>2016-04-24T08:32:37Z</time>
      </trkpt>
      <trkpt lat="47.42319" lon="6.69608">
        <ele>358</ele>
        <time>2016-04-24T08:32:38Z</time>
      </trkpt>
      <trkpt lat="47.42317" lon="6.69612">
        <ele>358</ele>
        <time>2016-04-24T08:32:39Z</time>
      </trkpt>
      <trkpt lat="47.42314" lon="6.69615">
        <ele>358</ele>
        <time>2016-04-24T08:32:40Z</time>
      </trkpt>
      <trkpt lat="47.42312" lon="6.69619">
        <ele>358</ele>
        <time>2016-04-24T08:32:41Z</time>
      </trkpt>
      <trkpt lat="47.42311" lon="6.69622">
        <ele>358</ele>
        <time>2016-04-24T08:32:42Z</time>
      </trkpt>
      <trkpt lat="47.42309" lon="6.69628">
        <ele>359</ele>
        <time>2016-04-24T08:32:44Z</time>
      </trkpt>
      <trkpt lat="47.42308" lon="6.69631">
        <ele>359</ele>
        <time>2016-04-24T08:32:45Z</time>
      </trkpt>
      <trkpt lat="47.42307" lon="6.69635">
        <ele>359</ele>
        <time>2016-04-24T08:32:46Z</time>
      </trkpt>
      <trkpt lat="47.42305" lon="6.69639">
        <ele>359</ele>
        <time>2016-04-24T08:32:47Z</time>
      </trkpt>
      <trkpt lat="47.42303" lon="6.69643">
        <ele>359</ele>
        <time>2016-04-24T08:32:48Z</time>
      </trkpt>
      <trkpt lat="47.42301" lon="6.69646">
        <ele>359</ele>
        <time>2016-04-24T08:32:49Z</time>
      </trkpt>
      <trkpt lat="47.42299" lon="6.6965">
        <ele>359</ele>
        <time>2016-04-24T08:32:50Z</time>
      </trkpt>
      <trkpt lat="47.42297" lon="6.69654">
        <ele>359</ele>
        <time>2016-04-24T08:32:51Z</time>
      </trkpt>
      <trkpt lat="47.42296" lon="6.69657">
        <ele>359</ele>
        <time>2016-04-24T08:32:52Z</time>
      </trkpt>
      <trkpt lat="47.42294" lon="6.69661">
        <ele>359</ele>
        <time>2016-04-24T08:32:53Z</time>
      </trkpt>
      <trkpt lat="47.42293" lon="6.69665">
        <ele>359</ele>
        <time>2016-04-24T08:32:54Z</time>
      </trkpt>
      <trkpt lat="47.42292" lon="6.69669">
        <ele>363</ele>
        <time>2016-04-24T08:32:55Z</time>
      </trkpt>
      <trkpt lat="47.42291" lon="6.69673">
        <ele>363</ele>
        <time>2016-04-24T08:32:56Z</time>
      </trkpt>
      <trkpt lat="47.42289" lon="6.69677">
        <ele>363</ele>
        <time>2016-04-24T08:32:57Z</time>
      </trkpt>
      <trkpt lat="47.42288" lon="6.6968">
        <ele>363</ele>
        <time>2016-04-24T08:32:58Z</time>
      </trkpt>
      <trkpt lat="47.42287" lon="6.69683">
        <ele>363</ele>
        <time>2016-04-24T08:32:59Z</time>
      </trkpt>
      <trkpt lat="47.42286" lon="6.69686">
        <ele>363</ele>
        <time>2016-04-24T08:33:00Z</time>
      </trkpt>
      <trkpt lat="47.42285" lon="6.6969">
        <ele>363</ele>
        <time>2016-04-24T08:33:01Z</time>
      </trkpt>
      <trkpt lat="47.42284" lon="6.69693">
        <ele>363</ele>
        <time>2016-04-24T08:33:02Z</time>
      </trkpt>
      <trkpt lat="47.42284" lon="6.69696">
        <ele>363</ele>
        <time>2016-04-24T08:33:03Z</time>
      </trkpt>
      <trkpt lat="47.42284" lon="6.697">
        <ele>363</ele>
        <time>2016-04-24T08:33:04Z</time>
      </trkpt>
      <trkpt lat="47.42284" lon="6.69703">
        <ele>363</ele>
        <time>2016-04-24T08:33:05Z</time>
      </trkpt>
      <trkpt lat="47.42284" lon="6.69707">
        <ele>363</ele>
        <time>2016-04-24T08:33:06Z</time>
      </trkpt>
      <trkpt lat="47.42285" lon="6.69711">
        <ele>363</ele>
        <time>2016-04-24T08:33:07Z</time>
      </trkpt>
      <trkpt lat="47.42286" lon="6.69715">
        <ele>364</ele>
        <time>2016-04-24T08:33:08Z</time>
      </trkpt>
      <trkpt lat="47.42287" lon="6.69719">
        <ele>364</ele>
        <time>2016-04-24T08:33:09Z</time>
      </trkpt>
      <trkpt lat="47.42288" lon="6.69723">
        <ele>364</ele>
        <time>2016-04-24T08:33:10Z</time>
      </trkpt>
      <trkpt lat="47.42289" lon="6.69727">
        <ele>364</ele>
        <time>2016-04-24T08:33:11.001Z</time>
      </trkpt>
      <trkpt lat="47.42289" lon="6.69731">
        <ele>364</ele>
        <time>2016-04-24T08:33:12Z</time>
      </trkpt>
      <trkpt lat="47.42289" lon="6.69735">
        <ele>364</ele>
        <time>2016-04-24T08:33:13Z</time>
      </trkpt>
      <trkpt lat="47.42289" lon="6.69738">
        <ele>364</ele>
        <time>2016-04-24T08:33:14.001Z</time>
      </trkpt>
      <trkpt lat="47.42289" lon="6.69742">
        <ele>364</ele>
        <time>2016-04-24T08:33:15Z</time>
      </trkpt>
      <trkpt lat="47.42289" lon="6.69746">
        <ele>364</ele>
        <time>2016-04-24T08:33:16Z</time>
      </trkpt>
      <trkpt lat="47.42289" lon="6.69749">
        <ele>364</ele>
        <time>2016-04-24T08:33:17Z</time>
      </trkpt>
      <trkpt lat="47.42288" lon="6.69755">
        <ele>367</ele>
        <time>2016-04-24T08:33:19Z</time>
      </trkpt>
      <trkpt lat="47.42287" lon="6.69758">
        <ele>367</ele>
        <time>2016-04-24T08:33:20Z</time>
      </trkpt>
      <trkpt lat="47.42286" lon="6.69764">
        <ele>367</ele>
        <time>2016-04-24T08:33:22Z</time>
      </trkpt>
      <trkpt lat="47.42286" lon="6.69768">
        <ele>367</ele>
        <time>2016-04-24T08:33:23Z</time>
      </trkpt>
      <trkpt lat="47.42286" lon="6.69771">
        <ele>367</ele>
        <time>2016-04-24T08:33:24Z</time>
      </trkpt>
      <trkpt lat="47.42286" lon="6.69775">
        <ele>367</ele>
        <time>2016-04-24T08:33:25Z</time>
      </trkpt>
      <trkpt lat="47.42286" lon="6.69778">
        <ele>368</ele>
        <time>2016-04-24T08:33:26Z</time>
      </trkpt>
      <trkpt lat="47.42286" lon="6.69782">
        <ele>368</ele>
        <time>2016-04-24T08:33:27Z</time>
      </trkpt>
      <trkpt lat="47.42286" lon="6.69785">
        <ele>368</ele>
        <time>2016-04-24T08:33:28Z</time>
      </trkpt>
      <trkpt lat="47.42286" lon="6.69789">
        <ele>368</ele>
        <time>2016-04-24T08:33:29Z</time>
      </trkpt>
      <trkpt lat="47.42287" lon="6.69792">
        <ele>368</ele>
        <time>2016-04-24T08:33:30Z</time>
      </trkpt>
      <trkpt lat="47.42287" lon="6.69796">
        <ele>368</ele>
        <time>2016-04-24T08:33:31Z</time>
      </trkpt>
      <trkpt lat="47.42288" lon="6.69799">
        <ele>368</ele>
        <time>2016-04-24T08:33:32Z</time>
      </trkpt>
      <trkpt lat="47.42288" lon="6.69802">
        <ele>368</ele>
        <time>2016-04-24T08:33:33Z</time>
      </trkpt>
      <trkpt lat="47.42287" lon="6.69808">
        <ele>368</ele>
        <time>2016-04-24T08:33:35Z</time>
      </trkpt>
      <trkpt lat="47.42287" lon="6.6981">
        <ele>368</ele>
        <time>2016-04-24T08:33:36Z</time>
      </trkpt>
      <trkpt lat="47.42284" lon="6.69815">
        <ele>368</ele>
        <time>2016-04-24T08:33:39Z</time>
      </trkpt>
      <trkpt lat="47.42282" lon="6.69816">
        <ele>368</ele>
        <time>2016-04-24T08:33:40Z</time>
      </trkpt>
      <trkpt lat="47.42279" lon="6.69818">
        <ele>368</ele>
        <time>2016-04-24T08:33:42Z</time>
      </trkpt>
      <trkpt lat="47.42278" lon="6.6982">
        <ele>368</ele>
        <time>2016-04-24T08:33:43Z</time>
      </trkpt>
      <trkpt lat="47.42276" lon="6.69824">
        <ele>368</ele>
        <time>2016-04-24T08:33:44.999Z</time>
      </trkpt>
      <trkpt lat="47.42276" lon="6.69827">
        <ele>368</ele>
        <time>2016-04-24T08:33:46Z</time>
      </trkpt>
      <trkpt lat="47.42275" lon="6.69832">
        <ele>368</ele>
        <time>2016-04-24T08:33:48Z</time>
      </trkpt>
      <trkpt lat="47.42275" lon="6.69835">
        <ele>369</ele>
        <time>2016-04-24T08:33:49Z</time>
      </trkpt>
      <trkpt lat="47.42274" lon="6.69841">
        <ele>369</ele>
        <time>2016-04-24T08:33:51Z</time>
      </trkpt>
      <trkpt lat="47.42273" lon="6.69844">
        <ele>369</ele>
        <time>2016-04-24T08:33:52Z</time>
      </trkpt>
      <trkpt lat="47.42273" lon="6.69849">
        <ele>369</ele>
        <time>2016-04-24T08:33:54Z</time>
      </trkpt>
      <trkpt lat="47.42273" lon="6.69851">
        <ele>369</ele>
        <time>2016-04-24T08:33:55Z</time>
      </trkpt>
      <trkpt lat="47.42272" lon="6.69856">
        <ele>369</ele>
        <time>2016-04-24T08:33:57Z</time>
      </trkpt>
      <trkpt lat="47.42271" lon="6.69858">
        <ele>369</ele>
        <time>2016-04-24T08:33:58Z</time>
      </trkpt>
      <trkpt lat="47.42271" lon="6.69864">
        <ele>369</ele>
        <time>2016-04-24T08:34:01Z</time>
      </trkpt>
      <trkpt lat="47.42272" lon="6.69866">
        <ele>369</ele>
        <time>2016-04-24T08:34:02Z</time>
      </trkpt>
      <trkpt lat="47.42274" lon="6.69868">
        <ele>370</ele>
        <time>2016-04-24T08:34:03Z</time>
      </trkpt>
      <trkpt lat="47.42277" lon="6.69869">
        <ele>370</ele>
        <time>2016-04-24T08:34:04Z</time>
      </trkpt>
      <trkpt lat="47.42279" lon="6.69871">
        <ele>370</ele>
        <time>2016-04-24T08:34:05Z</time>
      </trkpt>
      <trkpt lat="47.42282" lon="6.69872">
        <ele>370</ele>
        <time>2016-04-24T08:34:06Z</time>
      </trkpt>
      <trkpt lat="47.42284" lon="6.69872">
        <ele>370</ele>
        <time>2016-04-24T08:34:07Z</time>
      </trkpt>
      <trkpt lat="47.42287" lon="6.69873">
        <ele>370</ele>
        <time>2016-04-24T08:34:08Z</time>
      </trkpt>
      <trkpt lat="47.42289" lon="6.69874">
        <ele>370</ele>
        <time>2016-04-24T08:34:09Z</time>
      </trkpt>
      <trkpt lat="47.42292" lon="6.69874">
        <ele>370</ele>
        <time>2016-04-24T08:34:10Z</time>
      </trkpt>
      <trkpt lat="47.42295" lon="6.69875">
        <ele>370</ele>
        <time>2016-04-24T08:34:11Z</time>
      </trkpt>
      <trkpt lat="47.42297" lon="6.69876">
        <ele>370</ele>
        <time>2016-04-24T08:34:12Z</time>
      </trkpt>
      <trkpt lat="47.423" lon="6.69877">
        <ele>371</ele>
        <time>2016-04-24T08:34:13Z</time>
      </trkpt>
      <trkpt lat="47.42302" lon="6.69878">
        <ele>371</ele>
        <time>2016-04-24T08:34:14Z</time>
      </trkpt>
      <trkpt lat="47.42304" lon="6.69879">
        <ele>371</ele>
        <time>2016-04-24T08:34:15Z</time>
      </trkpt>
      <trkpt lat="47.42307" lon="6.69879">
        <ele>371</ele>
        <time>2016-04-24T08:34:16Z</time>
      </trkpt>
      <trkpt lat="47.42309" lon="6.6988">
        <ele>371</ele>
        <time>2016-04-24T08:34:17Z</time>
      </trkpt>
      <trkpt lat="47.42312" lon="6.69881">
        <ele>371</ele>
        <time>2016-04-24T08:34:18Z</time>
      </trkpt>
      <trkpt lat="47.42315" lon="6.69881">
        <ele>371</ele>
        <time>2016-04-24T08:34:19Z</time>
      </trkpt>
      <trkpt lat="47.42317" lon="6.69882">
        <ele>371</ele>
        <time>2016-04-24T08:34:20Z</time>
      </trkpt>
      <trkpt lat="47.4232" lon="6.69882">
        <ele>371</ele>
        <time>2016-04-24T08:34:21Z</time>
      </trkpt>
      <trkpt lat="47.42323" lon="6.69882">
        <ele>371</ele>
        <time>2016-04-24T08:34:22Z</time>
      </trkpt>
      <trkpt lat="47.42325" lon="6.69881">
        <ele>371</ele>
        <time>2016-04-24T08:34:23Z</time>
      </trkpt>
      <trkpt lat="47.42328" lon="6.6988">
        <ele>371</ele>
        <time>2016-04-24T08:34:24Z</time>
      </trkpt>
      <trkpt lat="47.4233" lon="6.69879">
        <ele>371</ele>
        <time>2016-04-24T08:34:25Z</time>
      </trkpt>
      <trkpt lat="47.42332" lon="6.69877">
        <ele>371</ele>
        <time>2016-04-24T08:34:26Z</time>
      </trkpt>
      <trkpt lat="47.42334" lon="6.69874">
        <ele>381</ele>
        <time>2016-04-24T08:34:27Z</time>
      </trkpt>
      <trkpt lat="47.42335" lon="6.69871">
        <ele>381</ele>
        <time>2016-04-24T08:34:28Z</time>
      </trkpt>
      <trkpt lat="47.42336" lon="6.69865">
        <ele>381</ele>
        <time>2016-04-24T08:34:30Z</time>
      </trkpt>
      <trkpt lat="47.42337" lon="6.69862">
        <ele>381</ele>
        <time>2016-04-24T08:34:31Z</time>
      </trkpt>
      <trkpt lat="47.42337" lon="6.69859">
        <ele>380</ele>
        <time>2016-04-24T08:34:32Z</time>
      </trkpt>
      <trkpt lat="47.42337" lon="6.69855">
        <ele>380</ele>
        <time>2016-04-24T08:34:33Z</time>
      </trkpt>
      <trkpt lat="47.42337" lon="6.69851">
        <ele>379</ele>
        <time>2016-04-24T08:34:34Z</time>
      </trkpt>
      <trkpt lat="47.42337" lon="6.69847">
        <ele>379</ele>
        <time>2016-04-24T08:34:35Z</time>
      </trkpt>
      <trkpt lat="47.42337" lon="6.69843">
        <ele>378</ele>
        <time>2016-04-24T08:34:36Z</time>
      </trkpt>
      <trkpt lat="47.42338" lon="6.69839">
        <ele>377</ele>
        <time>2016-04-24T08:34:37Z</time>
      </trkpt>
      <trkpt lat="47.42338" lon="6.69835">
        <ele>376</ele>
        <time>2016-04-24T08:34:38Z</time>
      </trkpt>
      <trkpt lat="47.42337" lon="6.69831">
        <ele>376</ele>
        <time>2016-04-24T08:34:39Z</time>
      </trkpt>
      <trkpt lat="47.42337" lon="6.69824">
        <ele>377</ele>
        <time>2016-04-24T08:34:41Z</time>
      </trkpt>
      <trkpt lat="47.42337" lon="6.69821">
        <ele>378</ele>
        <time>2016-04-24T08:34:42Z</time>
      </trkpt>
      <trkpt lat="47.42336" lon="6.69815">
        <ele>379</ele>
        <time>2016-04-24T08:34:44Z</time>
      </trkpt>
      <trkpt lat="47.42336" lon="6.69812">
        <ele>379</ele>
        <time>2016-04-24T08:34:45Z</time>
      </trkpt>
      <trkpt lat="47.42336" lon="6.69806">
        <ele>380</ele>
        <time>2016-04-24T08:34:47Z</time>
      </trkpt>
      <trkpt lat="47.42335" lon="6.69803">
        <ele>380</ele>
        <time>2016-04-24T08:34:48Z</time>
      </trkpt>
      <trkpt lat="47.42334" lon="6.69798">
        <ele>380</ele>
        <time>2016-04-24T08:34:50Z</time>
      </trkpt>
      <trkpt lat="47.42333" lon="6.69795">
        <ele>380</ele>
        <time>2016-04-24T08:34:51Z</time>
      </trkpt>
      <trkpt lat="47.42333" lon="6.69791">
        <ele>370</ele>
        <time>2016-04-24T08:34:52Z</time>
      </trkpt>
      <trkpt lat="47.42333" lon="6.69787">
        <ele>370</ele>
        <time>2016-04-24T08:34:53Z</time>
      </trkpt>
      <trkpt lat="47.42332" lon="6.69783">
        <ele>370</ele>
        <time>2016-04-24T08:34:53.999Z</time>
      </trkpt>
      <trkpt lat="47.42331" lon="6.69779">
        <ele>370</ele>
        <time>2016-04-24T08:34:55Z</time>
      </trkpt>
      <trkpt lat="47.42331" lon="6.69776">
        <ele>370</ele>
        <time>2016-04-24T08:34:56Z</time>
      </trkpt>
      <trkpt lat="47.42331" lon="6.69772">
        <ele>370</ele>
        <time>2016-04-24T08:34:57Z</time>
      </trkpt>
      <trkpt lat="47.42331" lon="6.69769">
        <ele>371</ele>
        <time>2016-04-24T08:34:58Z</time>
      </trkpt>
      <trkpt lat="47.42331" lon="6.69765">
        <ele>371</ele>
        <time>2016-04-24T08:34:59Z</time>
      </trkpt>
      <trkpt lat="47.42332" lon="6.69762">
        <ele>371</ele>
        <time>2016-04-24T08:35:00Z</time>
      </trkpt>
      <trkpt lat="47.42332" lon="6.69758">
        <ele>372</ele>
        <time>2016-04-24T08:35:01Z</time>
      </trkpt>
      <trkpt lat="47.42332" lon="6.69754">
        <ele>372</ele>
        <time>2016-04-24T08:35:02Z</time>
      </trkpt>
      <trkpt lat="47.42333" lon="6.69751">
        <ele>373</ele>
        <time>2016-04-24T08:35:03Z</time>
      </trkpt>
      <trkpt lat="47.42333" lon="6.69747">
        <ele>372</ele>
        <time>2016-04-24T08:35:04Z</time>
      </trkpt>
      <trkpt lat="47.42333" lon="6.69743">
        <ele>371</ele>
        <time>2016-04-24T08:35:05Z</time>
      </trkpt>
      <trkpt lat="47.42333" lon="6.6974">
        <ele>370</ele>
        <time>2016-04-24T08:35:06Z</time>
      </trkpt>
      <trkpt lat="47.42333" lon="6.69736">
        <ele>369</ele>
        <time>2016-04-24T08:35:07Z</time>
      </trkpt>
      <trkpt lat="47.42334" lon="6.69732">
        <ele>376</ele>
        <time>2016-04-24T08:35:08Z</time>
      </trkpt>
      <trkpt lat="47.42334" lon="6.69729">
        <ele>376</ele>
        <time>2016-04-24T08:35:09Z</time>
      </trkpt>
      <trkpt lat="47.42334" lon="6.69726">
        <ele>376</ele>
        <time>2016-04-24T08:35:10Z</time>
      </trkpt>
      <trkpt lat="47.42335" lon="6.69722">
        <ele>376</ele>
        <time>2016-04-24T08:35:11Z</time>
      </trkpt>
      <trkpt lat="47.42335" lon="6.69719">
        <ele>376</ele>
        <time>2016-04-24T08:35:12Z</time>
      </trkpt>
      <trkpt lat="47.42336" lon="6.69715">
        <ele>376</ele>
        <time>2016-04-24T08:35:13Z</time>
      </trkpt>
      <trkpt lat="47.42336" lon="6.69712">
        <ele>376</ele>
        <time>2016-04-24T08:35:14Z</time>
      </trkpt>
      <trkpt lat="47.42337" lon="6.69709">
        <ele>376</ele>
        <time>2016-04-24T08:35:15Z</time>
      </trkpt>
      <trkpt lat="47.42338" lon="6.69706">
        <ele>376</ele>
        <time>2016-04-24T08:35:16Z</time>
      </trkpt>
      <trkpt lat="47.42338" lon="6.69702">
        <ele>376</ele>
        <time>2016-04-24T08:35:17Z</time>
      </trkpt>
      <trkpt lat="47.4234" lon="6.69699">
        <ele>375</ele>
        <time>2016-04-24T08:35:18Z</time>
      </trkpt>
      <trkpt lat="47.42341" lon="6.69696">
        <ele>375</ele>
        <time>2016-04-24T08:35:19Z</time>
      </trkpt>
      <trkpt lat="47.42342" lon="6.69693">
        <ele>375</ele>
        <time>2016-04-24T08:35:20Z</time>
      </trkpt>
      <trkpt lat="47.42343" lon="6.6969">
        <ele>374</ele>
        <time>2016-04-24T08:35:21Z</time>
      </trkpt>
      <trkpt lat="47.42344" lon="6.69687">
        <ele>374</ele>
        <time>2016-04-24T08:35:22Z</time>
      </trkpt>
      <trkpt lat="47.42346" lon="6.69684">
        <ele>374</ele>
        <time>2016-04-24T08:35:23Z</time>
      </trkpt>
      <trkpt lat="47.42347" lon="6.69681">
        <ele>374</ele>
        <time>2016-04-24T08:35:24Z</time>
      </trkpt>
      <trkpt lat="47.42348" lon="6.69678">
        <ele>374</ele>
        <time>2016-04-24T08:35:25Z</time>
      </trkpt>
      <trkpt lat="47.4235" lon="6.69676">
        <ele>373</ele>
        <time>2016-04-24T08:35:26Z</time>
      </trkpt>
      <trkpt lat="47.42351" lon="6.69673">
        <ele>374</ele>
        <time>2016-04-24T08:35:27Z</time>
      </trkpt>
      <trkpt lat="47.42353" lon="6.6967">
        <ele>374</ele>
        <time>2016-04-24T08:35:28Z</time>
      </trkpt>
      <trkpt lat="47.42354" lon="6.69667">
        <ele>371</ele>
        <time>2016-04-24T08:35:28.999Z</time>
      </trkpt>
      <trkpt lat="47.42356" lon="6.69664">
        <ele>371</ele>
        <time>2016-04-24T08:35:30Z</time>
      </trkpt>
      <trkpt lat="47.42358" lon="6.69661">
        <ele>371</ele>
        <time>2016-04-24T08:35:31Z</time>
      </trkpt>
      <trkpt lat="47.42359" lon="6.69658">
        <ele>371</ele>
        <time>2016-04-24T08:35:32Z</time>
      </trkpt>
      <trkpt lat="47.42361" lon="6.69656">
        <ele>372</ele>
        <time>2016-04-24T08:35:33Z</time>
      </trkpt>
      <trkpt lat="47.42366" lon="6.69655">
        <ele>372</ele>
        <time>2016-04-24T08:35:35Z</time>
      </trkpt>
      <trkpt lat="47.42368" lon="6.69653">
        <ele>372</ele>
        <time>2016-04-24T08:35:36Z</time>
      </trkpt>
      <trkpt lat="47.4237" lon="6.69652">
        <ele>373</ele>
        <time>2016-04-24T08:35:37Z</time>
      </trkpt>
      <trkpt lat="47.42372" lon="6.69651">
        <ele>373</ele>
        <time>2016-04-24T08:35:38Z</time>
      </trkpt>
      <trkpt lat="47.42374" lon="6.69649">
        <ele>373</ele>
        <time>2016-04-24T08:35:39Z</time>
      </trkpt>
      <trkpt lat="47.42376" lon="6.69647">
        <ele>373</ele>
        <time>2016-04-24T08:35:40Z</time>
      </trkpt>
      <trkpt lat="47.4238" lon="6.69644">
        <ele>374</ele>
        <time>2016-04-24T08:35:42Z</time>
      </trkpt>
      <trkpt lat="47.42381" lon="6.69643">
        <ele>374</ele>
        <time>2016-04-24T08:35:43Z</time>
      </trkpt>
      <trkpt lat="47.42384" lon="6.69639">
        <ele>374</ele>
        <time>2016-04-24T08:35:45Z</time>
      </trkpt>
      <trkpt lat="47.42385" lon="6.69637">
        <ele>374</ele>
        <time>2016-04-24T08:35:46Z</time>
      </trkpt>
      <trkpt lat="47.42388" lon="6.69635">
        <ele>374</ele>
        <time>2016-04-24T08:35:47Z</time>
      </trkpt>
      <trkpt lat="47.4239" lon="6.69633">
        <ele>374</ele>
        <time>2016-04-24T08:35:48Z</time>
      </trkpt>
      <trkpt lat="47.42392" lon="6.6963">
        <ele>375</ele>
        <time>2016-04-24T08:35:49Z</time>
      </trkpt>
      <trkpt lat="47.42394" lon="6.69629">
        <ele>375</ele>
        <time>2016-04-24T08:35:50Z</time>
      </trkpt>
      <trkpt lat="47.42396" lon="6.69627">
        <ele>375</ele>
        <time>2016-04-24T08:35:51Z</time>
      </trkpt>
      <trkpt lat="47.42398" lon="6.69625">
        <ele>375</ele>
        <time>2016-04-24T08:35:52Z</time>
      </trkpt>
      <trkpt lat="47.424" lon="6.69623">
        <ele>375</ele>
        <time>2016-04-24T08:35:53Z</time>
      </trkpt>
      <trkpt lat="47.42402" lon="6.69621">
        <ele>375</ele>
        <time>2016-04-24T08:35:54Z</time>
      </trkpt>
      <trkpt lat="47.42405" lon="6.69617">
        <ele>375</ele>
        <time>2016-04-24T08:35:56Z</time>
      </trkpt>
      <trkpt lat="47.42407" lon="6.69615">
        <ele>375</ele>
        <time>2016-04-24T08:35:56.998Z</time>
      </trkpt>
      <trkpt lat="47.4241" lon="6.69611">
        <ele>375</ele>
        <time>2016-04-24T08:35:59Z</time>
      </trkpt>
      <trkpt lat="47.42412" lon="6.69609">
        <ele>376</ele>
        <time>2016-04-24T08:36:00Z</time>
      </trkpt>
      <trkpt lat="47.42414" lon="6.69607">
        <ele>376</ele>
        <time>2016-04-24T08:36:01Z</time>
      </trkpt>
      <trkpt lat="47.42416" lon="6.69604">
        <ele>376</ele>
        <time>2016-04-24T08:36:02Z</time>
      </trkpt>
      <trkpt lat="47.42418" lon="6.69602">
        <ele>384</ele>
        <time>2016-04-24T08:36:03Z</time>
      </trkpt>
      <trkpt lat="47.4242" lon="6.696">
        <ele>384</ele>
        <time>2016-04-24T08:36:04Z</time>
      </trkpt>
      <trkpt lat="47.42421" lon="6.69598">
        <ele>383</ele>
        <time>2016-04-24T08:36:05Z</time>
      </trkpt>
      <trkpt lat="47.42423" lon="6.69595">
        <ele>383</ele>
        <time>2016-04-24T08:36:06Z</time>
      </trkpt>
      <trkpt lat="47.42425" lon="6.69593">
        <ele>383</ele>
        <time>2016-04-24T08:36:07Z</time>
      </trkpt>
      <trkpt lat="47.42426" lon="6.6959">
        <ele>383</ele>
        <time>2016-04-24T08:36:08Z</time>
      </trkpt>
      <trkpt lat="47.42428" lon="6.69588">
        <ele>383</ele>
        <time>2016-04-24T08:36:08.999Z</time>
      </trkpt>
      <trkpt lat="47.4243" lon="6.69585">
        <ele>383</ele>
        <time>2016-04-24T08:36:10Z</time>
      </trkpt>
      <trkpt lat="47.42432" lon="6.69582">
        <ele>381</ele>
        <time>2016-04-24T08:36:11Z</time>
      </trkpt>
      <trkpt lat="47.42433" lon="6.6958">
        <ele>381</ele>
        <time>2016-04-24T08:36:12Z</time>
      </trkpt>
      <trkpt lat="47.42435" lon="6.69574">
        <ele>381</ele>
        <time>2016-04-24T08:36:14Z</time>
      </trkpt>
      <trkpt lat="47.42435" lon="6.69572">
        <ele>381</ele>
        <time>2016-04-24T08:36:15Z</time>
      </trkpt>
      <trkpt lat="47.42438" lon="6.69569">
        <ele>381</ele>
        <time>2016-04-24T08:36:19Z</time>
      </trkpt>
      <trkpt lat="47.4244" lon="6.69569">
        <ele>381</ele>
        <time>2016-04-24T08:36:20Z</time>
      </trkpt>
      <trkpt lat="47.42443" lon="6.69569">
        <ele>382</ele>
        <time>2016-04-24T08:36:21Z</time>
      </trkpt>
      <trkpt lat="47.42446" lon="6.69569">
        <ele>382</ele>
        <time>2016-04-24T08:36:22Z</time>
      </trkpt>
      <trkpt lat="47.42449" lon="6.6957">
        <ele>382</ele>
        <time>2016-04-24T08:36:23Z</time>
      </trkpt>
      <trkpt lat="47.42451" lon="6.6957">
        <ele>382</ele>
        <time>2016-04-24T08:36:24Z</time>
      </trkpt>
      <trkpt lat="47.42455" lon="6.69571">
        <ele>383</ele>
        <time>2016-04-24T08:36:26Z</time>
      </trkpt>
      <trkpt lat="47.42457" lon="6.6957">
        <ele>383</ele>
        <time>2016-04-24T08:36:27Z</time>
      </trkpt>
      <trkpt lat="47.42461" lon="6.69568">
        <ele>383</ele>
        <time>2016-04-24T08:36:29Z</time>
      </trkpt>
      <trkpt lat="47.42463" lon="6.69567">
        <ele>384</ele>
        <time>2016-04-24T08:36:29.999Z</time>
      </trkpt>
      <trkpt lat="47.42467" lon="6.69564">
        <ele>384</ele>
        <time>2016-04-24T08:36:32Z</time>
      </trkpt>
      <trkpt lat="47.42468" lon="6.69564">
        <ele>384</ele>
        <time>2016-04-24T08:36:32.999Z</time>
      </trkpt>
      <trkpt lat="47.42472" lon="6.69562">
        <ele>384</ele>
        <time>2016-04-24T08:36:35Z</time>
      </trkpt>
      <trkpt lat="47.42473" lon="6.6956">
        <ele>385</ele>
        <time>2016-04-24T08:36:36Z</time>
      </trkpt>
      <trkpt lat="47.42477" lon="6.69556">
        <ele>385</ele>
        <time>2016-04-24T08:36:38Z</time>
      </trkpt>
      <trkpt lat="47.42478" lon="6.69555">
        <ele>385</ele>
        <time>2016-04-24T08:36:39Z</time>
      </trkpt>
      <trkpt lat="47.42481" lon="6.69551">
        <ele>385</ele>
        <time>2016-04-24T08:36:42Z</time>
      </trkpt>
      <trkpt lat="47.42482" lon="6.6955">
        <ele>385</ele>
        <time>2016-04-24T08:36:43.001Z</time>
      </trkpt>
      <trkpt lat="47.42485" lon="6.69547">
        <ele>385</ele>
        <time>2016-04-24T08:36:45Z</time>
      </trkpt>
      <trkpt lat="47.42486" lon="6.69546">
        <ele>385</ele>
        <time>2016-04-24T08:36:46Z</time>
      </trkpt>
      <trkpt lat="47.42489" lon="6.69543">
        <ele>385</ele>
        <time>2016-04-24T08:36:48Z</time>
      </trkpt>
      <trkpt lat="47.4249" lon="6.69542">
        <ele>385</ele>
        <time>2016-04-24T08:36:49Z</time>
      </trkpt>
      <trkpt lat="47.42494" lon="6.69538">
        <ele>385</ele>
        <time>2016-04-24T08:36:51Z</time>
      </trkpt>
      <trkpt lat="47.42495" lon="6.69537">
        <ele>385</ele>
        <time>2016-04-24T08:36:52Z</time>
      </trkpt>
      <trkpt lat="47.42498" lon="6.69534">
        <ele>385</ele>
        <time>2016-04-24T08:36:54Z</time>
      </trkpt>
      <trkpt lat="47.425" lon="6.69533">
        <ele>385</ele>
        <time>2016-04-24T08:36:55Z</time>
      </trkpt>
      <trkpt lat="47.42503" lon="6.6953">
        <ele>395</ele>
        <time>2016-04-24T08:36:58Z</time>
      </trkpt>
      <trkpt lat="47.42504" lon="6.69529">
        <ele>395</ele>
        <time>2016-04-24T08:36:59Z</time>
      </trkpt>
      <trkpt lat="47.42508" lon="6.69526">
        <ele>395</ele>
        <time>2016-04-24T08:37:02Z</time>
      </trkpt>
      <trkpt lat="47.42509" lon="6.69525">
        <ele>395</ele>
        <time>2016-04-24T08:37:03Z</time>
      </trkpt>
      <trkpt lat="47.42513" lon="6.69523">
        <ele>395</ele>
        <time>2016-04-24T08:37:06Z</time>
      </trkpt>
      <trkpt lat="47.42515" lon="6.69522">
        <ele>396</ele>
        <time>2016-04-24T08:37:07Z</time>
      </trkpt>
      <trkpt lat="47.42518" lon="6.69522">
        <ele>396</ele>
        <time>2016-04-24T08:37:09Z</time>
      </trkpt>
      <trkpt lat="47.4252" lon="6.69521">
        <ele>396</ele>
        <time>2016-04-24T08:37:10Z</time>
      </trkpt>
      <trkpt lat="47.42524" lon="6.69522">
        <ele>397</ele>
        <time>2016-04-24T08:37:12.999Z</time>
      </trkpt>
      <trkpt lat="47.42525" lon="6.69524">
        <ele>397</ele>
        <time>2016-04-24T08:37:14Z</time>
      </trkpt>
      <trkpt lat="47.42527" lon="6.69527">
        <ele>397</ele>
        <time>2016-04-24T08:37:15.999Z</time>
      </trkpt>
      <trkpt lat="47.42527" lon="6.69529">
        <ele>398</ele>
        <time>2016-04-24T08:37:17Z</time>
      </trkpt>
      <trkpt lat="47.42528" lon="6.69534">
        <ele>398</ele>
        <time>2016-04-24T08:37:19Z</time>
      </trkpt>
      <trkpt lat="47.42528" lon="6.69536">
        <ele>398</ele>
        <time>2016-04-24T08:37:20Z</time>
      </trkpt>
      <trkpt lat="47.42528" lon="6.69541">
        <ele>398</ele>
        <time>2016-04-24T08:37:22Z</time>
      </trkpt>
      <trkpt lat="47.42528" lon="6.69543">
        <ele>398</ele>
        <time>2016-04-24T08:37:23Z</time>
      </trkpt>
      <trkpt lat="47.42529" lon="6.69548">
        <ele>398</ele>
        <time>2016-04-24T08:37:25Z</time>
      </trkpt>
      <trkpt lat="47.42529" lon="6.69551">
        <ele>399</ele>
        <time>2016-04-24T08:37:26Z</time>
      </trkpt>
      <trkpt lat="47.42529" lon="6.69556">
        <ele>399</ele>
        <time>2016-04-24T08:37:28Z</time>
      </trkpt>
      <trkpt lat="47.42529" lon="6.69558">
        <ele>399</ele>
        <time>2016-04-24T08:37:28.999Z</time>
      </trkpt>
      <trkpt lat="47.4253" lon="6.69563">
        <ele>399</ele>
        <time>2016-04-24T08:37:31Z</time>
      </trkpt>
      <trkpt lat="47.4253" lon="6.69566">
        <ele>399</ele>
        <time>2016-04-24T08:37:32Z</time>
      </trkpt>
      <trkpt lat="47.4253" lon="6.69571">
        <ele>399</ele>
        <time>2016-04-24T08:37:34Z</time>
      </trkpt>
      <trkpt lat="47.4253" lon="6.69574">
        <ele>399</ele>
        <time>2016-04-24T08:37:35Z</time>
      </trkpt>
      <trkpt lat="47.4253" lon="6.69579">
        <ele>399</ele>
        <time>2016-04-24T08:37:37Z</time>
      </trkpt>
      <trkpt lat="47.4253" lon="6.69582">
        <ele>399</ele>
        <time>2016-04-24T08:37:38Z</time>
      </trkpt>
      <trkpt lat="47.42531" lon="6.69587">
        <ele>401</ele>
        <time>2016-04-24T08:37:40Z</time>
      </trkpt>
      <trkpt lat="47.42531" lon="6.69589">
        <ele>401</ele>
        <time>2016-04-24T08:37:41Z</time>
      </trkpt>
      <trkpt lat="47.4253" lon="6.69595">
        <ele>402</ele>
        <time>2016-04-24T08:37:43Z</time>
      </trkpt>
      <trkpt lat="47.4253" lon="6.69597">
        <ele>402</ele>
        <time>2016-04-24T08:37:44Z</time>
      </trkpt>
      <trkpt lat="47.42531" lon="6.69602">
        <ele>402</ele>
        <time>2016-04-24T08:37:46Z</time>
      </trkpt>
      <trkpt lat="47.42531" lon="6.69605">
        <ele>402</ele>
        <time>2016-04-24T08:37:47Z</time>
      </trkpt>
      <trkpt lat="47.42532" lon="6.6961">
        <ele>403</ele>
        <time>2016-04-24T08:37:49Z</time>
      </trkpt>
      <trkpt lat="47.42532" lon="6.69613">
        <ele>403</ele>
        <time>2016-04-24T08:37:50Z</time>
      </trkpt>
      <trkpt lat="47.42533" lon="6.69617">
        <ele>403</ele>
        <time>2016-04-24T08:37:52Z</time>
      </trkpt>
      <trkpt lat="47.42533" lon="6.6962">
        <ele>403</ele>
        <time>2016-04-24T08:37:53Z</time>
      </trkpt>
      <trkpt lat="47.42533" lon="6.69626">
        <ele>403</ele>
        <time>2016-04-24T08:37:56Z</time>
      </trkpt>
      <trkpt lat="47.42533" lon="6.69628">
        <ele>403</ele>
        <time>2016-04-24T08:37:57Z</time>
      </trkpt>
      <trkpt lat="47.42533" lon="6.69632">
        <ele>403</ele>
        <time>2016-04-24T08:37:59Z</time>
      </trkpt>
      <trkpt lat="47.42532" lon="6.69634">
        <ele>403</ele>
        <time>2016-04-24T08:38:00Z</time>
      </trkpt>
      <trkpt lat="47.42531" lon="6.69639">
        <ele>403</ele>
        <time>2016-04-24T08:38:02Z</time>
      </trkpt>
      <trkpt lat="47.42531" lon="6.69641">
        <ele>403</ele>
        <time>2016-04-24T08:38:03Z</time>
      </trkpt>
      <trkpt lat="47.4253" lon="6.69646">
        <ele>403</ele>
        <time>2016-04-24T08:38:05Z</time>
      </trkpt>
      <trkpt lat="47.4253" lon="6.69648">
        <ele>403</ele>
        <time>2016-04-24T08:38:06Z</time>
      </trkpt>
      <trkpt lat="47.4253" lon="6.69652">
        <ele>403</ele>
        <time>2016-04-24T08:38:07.999Z</time>
      </trkpt>
      <trkpt lat="47.4253" lon="6.69655">
        <ele>403</ele>
        <time>2016-04-24T08:38:09Z</time>
      </trkpt>
      <trkpt lat="47.4253" lon="6.69661">
        <ele>403</ele>
        <time>2016-04-24T08:38:12Z</time>
      </trkpt>
      <trkpt lat="47.4253" lon="6.69663">
        <ele>403</ele>
        <time>2016-04-24T08:38:13Z</time>
      </trkpt>
      <trkpt lat="47.4253" lon="6.69669">
        <ele>406</ele>
        <time>2016-04-24T08:38:16Z</time>
      </trkpt>
      <trkpt lat="47.4253" lon="6.69671">
        <ele>406</ele>
        <time>2016-04-24T08:38:17Z</time>
      </trkpt>
      <trkpt lat="47.4253" lon="6.69676">
        <ele>406</ele>
        <time>2016-04-24T08:38:19Z</time>
      </trkpt>
      <trkpt lat="47.4253" lon="6.69678">
        <ele>407</ele>
        <time>2016-04-24T08:38:20Z</time>
      </trkpt>
      <trkpt lat="47.4253" lon="6.69684">
        <ele>407</ele>
        <time>2016-04-24T08:38:23Z</time>
      </trkpt>
      <trkpt lat="47.42529" lon="6.69686">
        <ele>407</ele>
        <time>2016-04-24T08:38:24Z</time>
      </trkpt>
      <trkpt lat="47.42529" lon="6.69691">
        <ele>407</ele>
        <time>2016-04-24T08:38:26Z</time>
      </trkpt>
      <trkpt lat="47.42529" lon="6.69693">
        <ele>407</ele>
        <time>2016-04-24T08:38:27Z</time>
      </trkpt>
      <trkpt lat="47.4253" lon="6.69698">
        <ele>408</ele>
        <time>2016-04-24T08:38:29Z</time>
      </trkpt>
      <trkpt lat="47.4253" lon="6.697">
        <ele>408</ele>
        <time>2016-04-24T08:38:30Z</time>
      </trkpt>
      <trkpt lat="47.42529" lon="6.69705">
        <ele>408</ele>
        <time>2016-04-24T08:38:32Z</time>
      </trkpt>
      <trkpt lat="47.42529" lon="6.69707">
        <ele>408</ele>
        <time>2016-04-24T08:38:33Z</time>
      </trkpt>
      <trkpt lat="47.42528" lon="6.69712">
        <ele>408</ele>
        <time>2016-04-24T08:38:35Z</time>
      </trkpt>
      <trkpt lat="47.42528" lon="6.69715">
        <ele>408</ele>
        <time>2016-04-24T08:38:36Z</time>
      </trkpt>
      <trkpt lat="47.42528" lon="6.69721">
        <ele>409</ele>
        <time>2016-04-24T08:38:39Z</time>
      </trkpt>
      <trkpt lat="47.42528" lon="6.69722">
        <ele>409</ele>
        <time>2016-04-24T08:38:40Z</time>
      </trkpt>
      <trkpt lat="47.42527" lon="6.69728">
        <ele>409</ele>
        <time>2016-04-24T08:38:43Z</time>
      </trkpt>
      <trkpt lat="47.42527" lon="6.6973">
        <ele>409</ele>
        <time>2016-04-24T08:38:44Z</time>
      </trkpt>
      <trkpt lat="47.42526" lon="6.69735">
        <ele>409</ele>
        <time>2016-04-24T08:38:46Z</time>
      </trkpt>
      <trkpt lat="47.42526" lon="6.69738">
        <ele>409</ele>
        <time>2016-04-24T08:38:47Z</time>
      </trkpt>
      <trkpt lat="47.42526" lon="6.69743">
        <ele>409</ele>
        <time>2016-04-24T08:38:49Z</time>
      </trkpt>
      <trkpt lat="47.42526" lon="6.69746">
        <ele>409</ele>
        <time>2016-04-24T08:38:50Z</time>
      </trkpt>
      <trkpt lat="47.42526" lon="6.69751">
        <ele>412</ele>
        <time>2016-04-24T08:38:52Z</time>
      </trkpt>
      <trkpt lat="47.42526" lon="6.69753">
        <ele>412</ele>
        <time>2016-04-24T08:38:53Z</time>
      </trkpt>
      <trkpt lat="47.42526" lon="6.69758">
        <ele>412</ele>
        <time>2016-04-24T08:38:55Z</time>
      </trkpt>
      <trkpt lat="47.42526" lon="6.6976">
        <ele>412</ele>
        <time>2016-04-24T08:38:56Z</time>
      </trkpt>
      <trkpt lat="47.42526" lon="6.69765">
        <ele>413</ele>
        <time>2016-04-24T08:38:58Z</time>
      </trkpt>
      <trkpt lat="47.42526" lon="6.69767">
        <ele>413</ele>
        <time>2016-04-24T08:38:59Z</time>
      </trkpt>
      <trkpt lat="47.42527" lon="6.69772">
        <ele>413</ele>
        <time>2016-04-24T08:39:01Z</time>
      </trkpt>
      <trkpt lat="47.42527" lon="6.69775">
        <ele>413</ele>
        <time>2016-04-24T08:39:02Z</time>
      </trkpt>
      <trkpt lat="47.42527" lon="6.69779">
        <ele>414</ele>
        <time>2016-04-24T08:39:04Z</time>
      </trkpt>
      <trkpt lat="47.42527" lon="6.69781">
        <ele>414</ele>
        <time>2016-04-24T08:39:05Z</time>
      </trkpt>
      <trkpt lat="47.42527" lon="6.69786">
        <ele>414</ele>
        <time>2016-04-24T08:39:07Z</time>
      </trkpt>
      <trkpt lat="47.42527" lon="6.69788">
        <ele>414</ele>
        <time>2016-04-24T08:39:08Z</time>
      </trkpt>
      <trkpt lat="47.42528" lon="6.69793">
        <ele>414</ele>
        <time>2016-04-24T08:39:10Z</time>
      </trkpt>
      <trkpt lat="47.42528" lon="6.69795">
        <ele>414</ele>
        <time>2016-04-24T08:39:11Z</time>
      </trkpt>
      <trkpt lat="47.42529" lon="6.69802">
        <ele>415</ele>
        <time>2016-04-24T08:39:14Z</time>
      </trkpt>
      <trkpt lat="47.42529" lon="6.69804">
        <ele>415</ele>
        <time>2016-04-24T08:39:15Z</time>
      </trkpt>
      <trkpt lat="47.4253" lon="6.69809">
        <ele>415</ele>
        <time>2016-04-24T08:39:17Z</time>
      </trkpt>
      <trkpt lat="47.42531" lon="6.69811">
        <ele>415</ele>
        <time>2016-04-24T08:39:18Z</time>
      </trkpt>
      <trkpt lat="47.42531" lon="6.69816">
        <ele>415</ele>
        <time>2016-04-24T08:39:20Z</time>
      </trkpt>
      <trkpt lat="47.42532" lon="6.69818">
        <ele>415</ele>
        <time>2016-04-24T08:39:21.001Z</time>
      </trkpt>
      <trkpt lat="47.42533" lon="6.69824">
        <ele>415</ele>
        <time>2016-04-24T08:39:24Z</time>
      </trkpt>
      <trkpt lat="47.42534" lon="6.69826">
        <ele>415</ele>
        <time>2016-04-24T08:39:25Z</time>
      </trkpt>
      <trkpt lat="47.42535" lon="6.69832">
        <ele>416</ele>
        <time>2016-04-24T08:39:28Z</time>
      </trkpt>
      <trkpt lat="47.42536" lon="6.69834">
        <ele>418</ele>
        <time>2016-04-24T08:39:29Z</time>
      </trkpt>
      <trkpt lat="47.42537" lon="6.6984">
        <ele>418</ele>
        <time>2016-04-24T08:39:32Z</time>
      </trkpt>
      <trkpt lat="47.42538" lon="6.69841">
        <ele>418</ele>
        <time>2016-04-24T08:39:33Z</time>
      </trkpt>
      <trkpt lat="47.4254" lon="6.69847">
        <ele>418</ele>
        <time>2016-04-24T08:39:37Z</time>
      </trkpt>
      <trkpt lat="47.4254" lon="6.69849">
        <ele>418</ele>
        <time>2016-04-24T08:39:38Z</time>
      </trkpt>
      <trkpt lat="47.42542" lon="6.69854">
        <ele>419</ele>
        <time>2016-04-24T08:39:41Z</time>
      </trkpt>
      <trkpt lat="47.42542" lon="6.69856">
        <ele>419</ele>
        <time>2016-04-24T08:39:42Z</time>
      </trkpt>
      <trkpt lat="47.42543" lon="6.69862">
        <ele>419</ele>
        <time>2016-04-24T08:39:45Z</time>
      </trkpt>
      <trkpt lat="47.42544" lon="6.69864">
        <ele>419</ele>
        <time>2016-04-24T08:39:46Z</time>
      </trkpt>
      <trkpt lat="47.42545" lon="6.6987">
        <ele>419</ele>
        <time>2016-04-24T08:39:49Z</time>
      </trkpt>
      <trkpt lat="47.42546" lon="6.69872">
        <ele>419</ele>
        <time>2016-04-24T08:39:50Z</time>
      </trkpt>
      <trkpt lat="47.42549" lon="6.69876">
        <ele>419</ele>
        <time>2016-04-24T08:39:52.999Z</time>
      </trkpt>
      <trkpt lat="47.42549" lon="6.69878">
        <ele>419</ele>
        <time>2016-04-24T08:39:54Z</time>
      </trkpt>
      <trkpt lat="47.4255" lon="6.69882">
        <ele>419</ele>
        <time>2016-04-24T08:39:56Z</time>
      </trkpt>
      <trkpt lat="47.42551" lon="6.69884">
        <ele>419</ele>
        <time>2016-04-24T08:39:57Z</time>
      </trkpt>
      <trkpt lat="47.42552" lon="6.6989">
        <ele>420</ele>
        <time>2016-04-24T08:40:00Z</time>
      </trkpt>
      <trkpt lat="47.42553" lon="6.69892">
        <ele>420</ele>
        <time>2016-04-24T08:40:01Z</time>
      </trkpt>
      <trkpt lat="47.42554" lon="6.69896">
        <ele>420</ele>
        <time>2016-04-24T08:40:03Z</time>
      </trkpt>
      <trkpt lat="47.42555" lon="6.69899">
        <ele>420</ele>
        <time>2016-04-24T08:40:04Z</time>
      </trkpt>
      <trkpt lat="47.42557" lon="6.69904">
        <ele>420</ele>
        <time>2016-04-24T08:40:07Z</time>
      </trkpt>
      <trkpt lat="47.42558" lon="6.69906">
        <ele>421</ele>
        <time>2016-04-24T08:40:08Z</time>
      </trkpt>
      <trkpt lat="47.4256" lon="6.69912">
        <ele>421</ele>
        <time>2016-04-24T08:40:11Z</time>
      </trkpt>
      <trkpt lat="47.4256" lon="6.69914">
        <ele>421</ele>
        <time>2016-04-24T08:40:12Z</time>
      </trkpt>
      <trkpt lat="47.42562" lon="6.69918">
        <ele>421</ele>
        <time>2016-04-24T08:40:14Z</time>
      </trkpt>
      <trkpt lat="47.42564" lon="6.6992">
        <ele>421</ele>
        <time>2016-04-24T08:40:15Z</time>
      </trkpt>
      <trkpt lat="47.42566" lon="6.69924">
        <ele>422</ele>
        <time>2016-04-24T08:40:17Z</time>
      </trkpt>
      <trkpt lat="47.42567" lon="6.69926">
        <ele>422</ele>
        <time>2016-04-24T08:40:18Z</time>
      </trkpt>
      <trkpt lat="47.42568" lon="6.69931">
        <ele>422</ele>
        <time>2016-04-24T08:40:20Z</time>
      </trkpt>
      <trkpt lat="47.4257" lon="6.69931">
        <ele>422</ele>
        <time>2016-04-24T08:40:21Z</time>
      </trkpt>
      <trkpt lat="47.42573" lon="6.69935">
        <ele>422</ele>
        <time>2016-04-24T08:40:23.999Z</time>
      </trkpt>
      <trkpt lat="47.42574" lon="6.69937">
        <ele>422</ele>
        <time>2016-04-24T08:40:25Z</time>
      </trkpt>
      <trkpt lat="47.42576" lon="6.69943">
        <ele>421</ele>
        <time>2016-04-24T08:40:28Z</time>
      </trkpt>
      <trkpt lat="47.42579" lon="6.69948">
        <ele>421</ele>
        <time>2016-04-24T08:40:29Z</time>
      </trkpt>
      <trkpt lat="47.42581" lon="6.69952">
        <ele>421</ele>
        <time>2016-04-24T08:40:31Z</time>
      </trkpt>
      <trkpt lat="47.42582" lon="6.69954">
        <ele>421</ele>
        <time>2016-04-24T08:40:32Z</time>
      </trkpt>
      <trkpt lat="47.42583" lon="6.69959">
        <ele>421</ele>
        <time>2016-04-24T08:40:35Z</time>
      </trkpt>
      <trkpt lat="47.42584" lon="6.6996">
        <ele>429</ele>
        <time>2016-04-24T08:40:36Z</time>
      </trkpt>
      <trkpt lat="47.42586" lon="6.69964">
        <ele>429</ele>
        <time>2016-04-24T08:40:38Z</time>
      </trkpt>
      <trkpt lat="47.42587" lon="6.69966">
        <ele>429</ele>
        <time>2016-04-24T08:40:39Z</time>
      </trkpt>
      <trkpt lat="47.42591" lon="6.69969">
        <ele>429</ele>
        <time>2016-04-24T08:40:42Z</time>
      </trkpt>
      <trkpt lat="47.42592" lon="6.6997">
        <ele>429</ele>
        <time>2016-04-24T08:40:43Z</time>
      </trkpt>
      <trkpt lat="47.42596" lon="6.69973">
        <ele>430</ele>
        <time>2016-04-24T08:40:46Z</time>
      </trkpt>
      <trkpt lat="47.42597" lon="6.69974">
        <ele>430</ele>
        <time>2016-04-24T08:40:47Z</time>
      </trkpt>
      <trkpt lat="47.42601" lon="6.69976">
        <ele>430</ele>
        <time>2016-04-24T08:40:49Z</time>
      </trkpt>
      <trkpt lat="47.42602" lon="6.69977">
        <ele>430</ele>
        <time>2016-04-24T08:40:50Z</time>
      </trkpt>
      <trkpt lat="47.42605" lon="6.6998">
        <ele>430</ele>
        <time>2016-04-24T08:40:53Z</time>
      </trkpt>
      <trkpt lat="47.42606" lon="6.69981">
        <ele>430</ele>
        <time>2016-04-24T08:40:54Z</time>
      </trkpt>
      <trkpt lat="47.42609" lon="6.69985">
        <ele>430</ele>
        <time>2016-04-24T08:40:56.999Z</time>
      </trkpt>
      <trkpt lat="47.4261" lon="6.69987">
        <ele>430</ele>
        <time>2016-04-24T08:40:58Z</time>
      </trkpt>
      <trkpt lat="47.42613" lon="6.6999">
        <ele>431</ele>
        <time>2016-04-24T08:41:00Z</time>
      </trkpt>
      <trkpt lat="47.42614" lon="6.69991">
        <ele>431</ele>
        <time>2016-04-24T08:41:01Z</time>
      </trkpt>
      <trkpt lat="47.42617" lon="6.69994">
        <ele>431</ele>
        <time>2016-04-24T08:41:03Z</time>
      </trkpt>
      <trkpt lat="47.42618" lon="6.69995">
        <ele>431</ele>
        <time>2016-04-24T08:41:04Z</time>
      </trkpt>
      <trkpt lat="47.42621" lon="6.69999">
        <ele>432</ele>
        <time>2016-04-24T08:41:07Z</time>
      </trkpt>
      <trkpt lat="47.42623" lon="6.7">
        <ele>430</ele>
        <time>2016-04-24T08:41:08Z</time>
      </trkpt>
      <trkpt lat="47.42625" lon="6.70003">
        <ele>430</ele>
        <time>2016-04-24T08:41:10Z</time>
      </trkpt>
      <trkpt lat="47.42626" lon="6.70004">
        <ele>431</ele>
        <time>2016-04-24T08:41:11Z</time>
      </trkpt>
      <trkpt lat="47.42629" lon="6.70008">
        <ele>431</ele>
        <time>2016-04-24T08:41:14Z</time>
      </trkpt>
      <trkpt lat="47.42631" lon="6.70009">
        <ele>431</ele>
        <time>2016-04-24T08:41:15Z</time>
      </trkpt>
      <trkpt lat="47.42633" lon="6.70012">
        <ele>431</ele>
        <time>2016-04-24T08:41:18Z</time>
      </trkpt>
      <trkpt lat="47.42634" lon="6.70013">
        <ele>431</ele>
        <time>2016-04-24T08:41:19Z</time>
      </trkpt>
      <trkpt lat="47.42636" lon="6.70016">
        <ele>432</ele>
        <time>2016-04-24T08:41:21Z</time>
      </trkpt>
      <trkpt lat="47.42638" lon="6.70018">
        <ele>432</ele>
        <time>2016-04-24T08:41:22Z</time>
      </trkpt>
      <trkpt lat="47.42641" lon="6.70021">
        <ele>432</ele>
        <time>2016-04-24T08:41:24Z</time>
      </trkpt>
      <trkpt lat="47.42643" lon="6.70023">
        <ele>432</ele>
        <time>2016-04-24T08:41:25Z</time>
      </trkpt>
      <trkpt lat="47.42645" lon="6.70027">
        <ele>432</ele>
        <time>2016-04-24T08:41:32Z</time>
      </trkpt>
      <trkpt lat="47.42647" lon="6.70027">
        <ele>432</ele>
        <time>2016-04-24T08:41:33Z</time>
      </trkpt>
      <trkpt lat="47.4265" lon="6.70031">
        <ele>432</ele>
        <time>2016-04-24T08:41:35Z</time>
      </trkpt>
      <trkpt lat="47.42652" lon="6.70033">
        <ele>432</ele>
        <time>2016-04-24T08:41:36Z</time>
      </trkpt>
      <trkpt lat="47.42654" lon="6.70035">
        <ele>432</ele>
        <time>2016-04-24T08:41:37Z</time>
      </trkpt>
      <trkpt lat="47.42657" lon="6.70037">
        <ele>432</ele>
        <time>2016-04-24T08:41:38Z</time>
      </trkpt>
      <trkpt lat="47.42659" lon="6.70039">
        <ele>432</ele>
        <time>2016-04-24T08:41:39Z</time>
      </trkpt>
      <trkpt lat="47.4266" lon="6.70041">
        <ele>432</ele>
        <time>2016-04-24T08:41:40Z</time>
      </trkpt>
      <trkpt lat="47.42661" lon="6.70044">
        <ele>432</ele>
        <time>2016-04-24T08:41:41Z</time>
      </trkpt>
      <trkpt lat="47.42662" lon="6.70047">
        <ele>432</ele>
        <time>2016-04-24T08:41:42Z</time>
      </trkpt>
      <trkpt lat="47.42664" lon="6.7005">
        <ele>432</ele>
        <time>2016-04-24T08:41:43Z</time>
      </trkpt>
      <trkpt lat="47.42665" lon="6.70053">
        <ele>432</ele>
        <time>2016-04-24T08:41:44Z</time>
      </trkpt>
      <trkpt lat="47.42667" lon="6.70055">
        <ele>439</ele>
        <time>2016-04-24T08:41:45Z</time>
      </trkpt>
      <trkpt lat="47.42671" lon="6.70058">
        <ele>439</ele>
        <time>2016-04-24T08:41:46Z</time>
      </trkpt>
      <trkpt lat="47.42674" lon="6.70061">
        <ele>439</ele>
        <time>2016-04-24T08:41:47Z</time>
      </trkpt>
      <trkpt lat="47.42678" lon="6.70064">
        <ele>439</ele>
        <time>2016-04-24T08:41:48Z</time>
      </trkpt>
      <trkpt lat="47.42682" lon="6.70068">
        <ele>439</ele>
        <time>2016-04-24T08:41:49Z</time>
      </trkpt>
      <trkpt lat="47.42686" lon="6.70072">
        <ele>439</ele>
        <time>2016-04-24T08:41:50Z</time>
      </trkpt>
      <trkpt lat="47.42689" lon="6.70076">
        <ele>439</ele>
        <time>2016-04-24T08:41:51Z</time>
      </trkpt>
      <trkpt lat="47.42692" lon="6.7008">
        <ele>439</ele>
        <time>2016-04-24T08:41:52Z</time>
      </trkpt>
      <trkpt lat="47.42694" lon="6.70085">
        <ele>436</ele>
        <time>2016-04-24T08:41:53Z</time>
      </trkpt>
      <trkpt lat="47.42697" lon="6.70089">
        <ele>436</ele>
        <time>2016-04-24T08:41:54Z</time>
      </trkpt>
      <trkpt lat="47.42699" lon="6.70094">
        <ele>436</ele>
        <time>2016-04-24T08:41:55Z</time>
      </trkpt>
      <trkpt lat="47.427" lon="6.70098">
        <ele>436</ele>
        <time>2016-04-24T08:41:56Z</time>
      </trkpt>
      <trkpt lat="47.42702" lon="6.70102">
        <ele>436</ele>
        <time>2016-04-24T08:41:57Z</time>
      </trkpt>
      <trkpt lat="47.42704" lon="6.70106">
        <ele>436</ele>
        <time>2016-04-24T08:41:58Z</time>
      </trkpt>
      <trkpt lat="47.42707" lon="6.70109">
        <ele>436</ele>
        <time>2016-04-24T08:41:59Z</time>
      </trkpt>
      <trkpt lat="47.42709" lon="6.70113">
        <ele>436</ele>
        <time>2016-04-24T08:42:00Z</time>
      </trkpt>
      <trkpt lat="47.42712" lon="6.70116">
        <ele>436</ele>
        <time>2016-04-24T08:42:01Z</time>
      </trkpt>
      <trkpt lat="47.42715" lon="6.70119">
        <ele>436</ele>
        <time>2016-04-24T08:42:02Z</time>
      </trkpt>
      <trkpt lat="47.42718" lon="6.70122">
        <ele>436</ele>
        <time>2016-04-24T08:42:03Z</time>
      </trkpt>
      <trkpt lat="47.42721" lon="6.70124">
        <ele>436</ele>
        <time>2016-04-24T08:42:04Z</time>
      </trkpt>
      <trkpt lat="47.42724" lon="6.70127">
        <ele>436</ele>
        <time>2016-04-24T08:42:05Z</time>
      </trkpt>
      <trkpt lat="47.42726" lon="6.70129">
        <ele>436</ele>
        <time>2016-04-24T08:42:06Z</time>
      </trkpt>
      <trkpt lat="47.42729" lon="6.70132">
        <ele>437</ele>
        <time>2016-04-24T08:42:07Z</time>
      </trkpt>
      <trkpt lat="47.4273" lon="6.70134">
        <ele>437</ele>
        <time>2016-04-24T08:42:08Z</time>
      </trkpt>
      <trkpt lat="47.42732" lon="6.70136">
        <ele>437</ele>
        <time>2016-04-24T08:42:09Z</time>
      </trkpt>
      <trkpt lat="47.42734" lon="6.70137">
        <ele>437</ele>
        <time>2016-04-24T08:42:10Z</time>
      </trkpt>
      <trkpt lat="47.42736" lon="6.70139">
        <ele>437</ele>
        <time>2016-04-24T08:42:11Z</time>
      </trkpt>
      <trkpt lat="47.42738" lon="6.70141">
        <ele>437</ele>
        <time>2016-04-24T08:42:12Z</time>
      </trkpt>
      <trkpt lat="47.42741" lon="6.70143">
        <ele>437</ele>
        <time>2016-04-24T08:42:13Z</time>
      </trkpt>
      <trkpt lat="47.42743" lon="6.70145">
        <ele>437</ele>
        <time>2016-04-24T08:42:14Z</time>
      </trkpt>
      <trkpt lat="47.42745" lon="6.70147">
        <ele>438</ele>
        <time>2016-04-24T08:42:15Z</time>
      </trkpt>
      <trkpt lat="47.42747" lon="6.70149">
        <ele>438</ele>
        <time>2016-04-24T08:42:17Z</time>
      </trkpt>
      <trkpt lat="47.42748" lon="6.7015">
        <ele>438</ele>
        <time>2016-04-24T08:42:18Z</time>
      </trkpt>
      <trkpt lat="47.42751" lon="6.70152">
        <ele>441</ele>
        <time>2016-04-24T08:42:20Z</time>
      </trkpt>
      <trkpt lat="47.42753" lon="6.70153">
        <ele>441</ele>
        <time>2016-04-24T08:42:21Z</time>
      </trkpt>
      <trkpt lat="47.42757" lon="6.70155">
        <ele>441</ele>
        <time>2016-04-24T08:42:23Z</time>
      </trkpt>
      <trkpt lat="47.42758" lon="6.70156">
        <ele>441</ele>
        <time>2016-04-24T08:42:24Z</time>
      </trkpt>
      <trkpt lat="47.42761" lon="6.70157">
        <ele>441</ele>
        <time>2016-04-24T08:42:25Z</time>
      </trkpt>
      <trkpt lat="47.42763" lon="6.70157">
        <ele>442</ele>
        <time>2016-04-24T08:42:26Z</time>
      </trkpt>
      <trkpt lat="47.42765" lon="6.70159">
        <ele>442</ele>
        <time>2016-04-24T08:42:27Z</time>
      </trkpt>
      <trkpt lat="47.42768" lon="6.7016">
        <ele>442</ele>
        <time>2016-04-24T08:42:28Z</time>
      </trkpt>
      <trkpt lat="47.4277" lon="6.70162">
        <ele>442</ele>
        <time>2016-04-24T08:42:29Z</time>
      </trkpt>
      <trkpt lat="47.42772" lon="6.70164">
        <ele>442</ele>
        <time>2016-04-24T08:42:30Z</time>
      </trkpt>
      <trkpt lat="47.42775" lon="6.70166">
        <ele>442</ele>
        <time>2016-04-24T08:42:31Z</time>
      </trkpt>
      <trkpt lat="47.42777" lon="6.70169">
        <ele>440</ele>
        <time>2016-04-24T08:42:32Z</time>
      </trkpt>
      <trkpt lat="47.4278" lon="6.70171">
        <ele>440</ele>
        <time>2016-04-24T08:42:33Z</time>
      </trkpt>
      <trkpt lat="47.42783" lon="6.70173">
        <ele>440</ele>
        <time>2016-04-24T08:42:34Z</time>
      </trkpt>
      <trkpt lat="47.42785" lon="6.70175">
        <ele>440</ele>
        <time>2016-04-24T08:42:35Z</time>
      </trkpt>
      <trkpt lat="47.42788" lon="6.70176">
        <ele>440</ele>
        <time>2016-04-24T08:42:36Z</time>
      </trkpt>
      <trkpt lat="47.4279" lon="6.70177">
        <ele>440</ele>
        <time>2016-04-24T08:42:37Z</time>
      </trkpt>
      <trkpt lat="47.42792" lon="6.70179">
        <ele>440</ele>
        <time>2016-04-24T08:42:38Z</time>
      </trkpt>
      <trkpt lat="47.42797" lon="6.70181">
        <ele>440</ele>
        <time>2016-04-24T08:42:40Z</time>
      </trkpt>
      <trkpt lat="47.42799" lon="6.70183">
        <ele>440</ele>
        <time>2016-04-24T08:42:41Z</time>
      </trkpt>
      <trkpt lat="47.42802" lon="6.70184">
        <ele>441</ele>
        <time>2016-04-24T08:42:42Z</time>
      </trkpt>
      <trkpt lat="47.42804" lon="6.70186">
        <ele>441</ele>
        <time>2016-04-24T08:42:43Z</time>
      </trkpt>
      <trkpt lat="47.42809" lon="6.70187">
        <ele>441</ele>
        <time>2016-04-24T08:42:49Z</time>
      </trkpt>
      <trkpt lat="47.42809" lon="6.70188">
        <ele>441</ele>
        <time>2016-04-24T08:42:50Z</time>
      </trkpt>
      <trkpt lat="47.42811" lon="6.7019">
        <ele>441</ele>
        <time>2016-04-24T08:42:51Z</time>
      </trkpt>
      <trkpt lat="47.42814" lon="6.70192">
        <ele>441</ele>
        <time>2016-04-24T08:42:52Z</time>
      </trkpt>
      <trkpt lat="47.42817" lon="6.70195">
        <ele>441</ele>
        <time>2016-04-24T08:42:53Z</time>
      </trkpt>
      <trkpt lat="47.42819" lon="6.70197">
        <ele>441</ele>
        <time>2016-04-24T08:42:54Z</time>
      </trkpt>
      <trkpt lat="47.42821" lon="6.70198">
        <ele>441</ele>
        <time>2016-04-24T08:42:55Z</time>
      </trkpt>
      <trkpt lat="47.42824" lon="6.702">
        <ele>441</ele>
        <time>2016-04-24T08:42:56Z</time>
      </trkpt>
      <trkpt lat="47.42826" lon="6.70203">
        <ele>441</ele>
        <time>2016-04-24T08:42:57Z</time>
      </trkpt>
      <trkpt lat="47.42828" lon="6.70206">
        <ele>441</ele>
        <time>2016-04-24T08:42:58Z</time>
      </trkpt>
      <trkpt lat="47.42831" lon="6.7021">
        <ele>441</ele>
        <time>2016-04-24T08:42:59Z</time>
      </trkpt>
      <trkpt lat="47.42834" lon="6.70213">
        <ele>445</ele>
        <time>2016-04-24T08:43:00Z</time>
      </trkpt>
      <trkpt lat="47.42836" lon="6.70216">
        <ele>445</ele>
        <time>2016-04-24T08:43:01Z</time>
      </trkpt>
      <trkpt lat="47.42837" lon="6.70218">
        <ele>445</ele>
        <time>2016-04-24T08:43:02Z</time>
      </trkpt>
      <trkpt lat="47.4284" lon="6.70222">
        <ele>445</ele>
        <time>2016-04-24T08:43:04Z</time>
      </trkpt>
      <trkpt lat="47.42841" lon="6.70225">
        <ele>445</ele>
        <time>2016-04-24T08:43:05Z</time>
      </trkpt>
      <trkpt lat="47.42841" lon="6.70226">
        <ele>445</ele>
        <time>2016-04-24T08:43:06Z</time>
      </trkpt>
      <trkpt lat="47.42844" lon="6.70231">
        <ele>445</ele>
        <time>2016-04-24T08:43:07Z</time>
      </trkpt>
      <trkpt lat="47.42847" lon="6.70234">
        <ele>445</ele>
        <time>2016-04-24T08:43:08Z</time>
      </trkpt>
      <trkpt lat="47.4285" lon="6.70237">
        <ele>445</ele>
        <time>2016-04-24T08:43:09Z</time>
      </trkpt>
      <trkpt lat="47.42853" lon="6.70241">
        <ele>445</ele>
        <time>2016-04-24T08:43:10Z</time>
      </trkpt>
      <trkpt lat="47.42856" lon="6.70244">
        <ele>445</ele>
        <time>2016-04-24T08:43:11Z</time>
      </trkpt>
      <trkpt lat="47.42858" lon="6.70247">
        <ele>445</ele>
        <time>2016-04-24T08:43:12Z</time>
      </trkpt>
      <trkpt lat="47.4286" lon="6.70249">
        <ele>446</ele>
        <time>2016-04-24T08:43:13Z</time>
      </trkpt>
      <trkpt lat="47.42862" lon="6.70253">
        <ele>445</ele>
        <time>2016-04-24T08:43:15Z</time>
      </trkpt>
      <trkpt lat="47.42863" lon="6.70256">
        <ele>445</ele>
        <time>2016-04-24T08:43:16Z</time>
      </trkpt>
      <trkpt lat="47.42864" lon="6.70259">
        <ele>445</ele>
        <time>2016-04-24T08:43:17Z</time>
      </trkpt>
      <trkpt lat="47.42865" lon="6.70262">
        <ele>445</ele>
        <time>2016-04-24T08:43:18Z</time>
      </trkpt>
      <trkpt lat="47.42867" lon="6.70267">
        <ele>445</ele>
        <time>2016-04-24T08:43:20Z</time>
      </trkpt>
      <trkpt lat="47.42869" lon="6.70269">
        <ele>445</ele>
        <time>2016-04-24T08:43:21Z</time>
      </trkpt>
      <trkpt lat="47.42871" lon="6.70273">
        <ele>445</ele>
        <time>2016-04-24T08:43:22Z</time>
      </trkpt>
      <trkpt lat="47.42874" lon="6.70277">
        <ele>445</ele>
        <time>2016-04-24T08:43:23Z</time>
      </trkpt>
      <trkpt lat="47.42877" lon="6.70282">
        <ele>445</ele>
        <time>2016-04-24T08:43:24Z</time>
      </trkpt>
      <trkpt lat="47.42881" lon="6.70287">
        <ele>445</ele>
        <time>2016-04-24T08:43:25Z</time>
      </trkpt>
      <trkpt lat="47.42885" lon="6.70293">
        <ele>445</ele>
        <time>2016-04-24T08:43:26Z</time>
      </trkpt>
      <trkpt lat="47.42889" lon="6.70298">
        <ele>445</ele>
        <time>2016-04-24T08:43:27Z</time>
      </trkpt>
      <trkpt lat="47.42892" lon="6.70302">
        <ele>445</ele>
        <time>2016-04-24T08:43:28Z</time>
      </trkpt>
      <trkpt lat="47.42895" lon="6.70305">
        <ele>445</ele>
        <time>2016-04-24T08:43:29Z</time>
      </trkpt>
      <trkpt lat="47.42897" lon="6.70308">
        <ele>445</ele>
        <time>2016-04-24T08:43:30Z</time>
      </trkpt>
      <trkpt lat="47.42899" lon="6.7031">
        <ele>446</ele>
        <time>2016-04-24T08:43:31Z</time>
      </trkpt>
      <trkpt lat="47.42902" lon="6.70313">
        <ele>446</ele>
        <time>2016-04-24T08:43:33Z</time>
      </trkpt>
      <trkpt lat="47.42905" lon="6.70316">
        <ele>446</ele>
        <time>2016-04-24T08:43:34Z</time>
      </trkpt>
      <trkpt lat="47.42908" lon="6.70318">
        <ele>447</ele>
        <time>2016-04-24T08:43:35Z</time>
      </trkpt>
      <trkpt lat="47.42911" lon="6.70321">
        <ele>447</ele>
        <time>2016-04-24T08:43:36Z</time>
      </trkpt>
      <trkpt lat="47.42914" lon="6.70323">
        <ele>447</ele>
        <time>2016-04-24T08:43:37Z</time>
      </trkpt>
      <trkpt lat="47.42916" lon="6.70326">
        <ele>448</ele>
        <time>2016-04-24T08:43:38Z</time>
      </trkpt>
      <trkpt lat="47.42919" lon="6.70329">
        <ele>448</ele>
        <time>2016-04-24T08:43:39Z</time>
      </trkpt>
      <trkpt lat="47.42922" lon="6.70331">
        <ele>448</ele>
        <time>2016-04-24T08:43:40Z</time>
      </trkpt>
      <trkpt lat="47.42924" lon="6.70333">
        <ele>448</ele>
        <time>2016-04-24T08:43:41Z</time>
      </trkpt>
      <trkpt lat="47.42927" lon="6.70336">
        <ele>448</ele>
        <time>2016-04-24T08:43:42Z</time>
      </trkpt>
      <trkpt lat="47.4293" lon="6.70338">
        <ele>448</ele>
        <time>2016-04-24T08:43:43Z</time>
      </trkpt>
      <trkpt lat="47.42932" lon="6.7034">
        <ele>447</ele>
        <time>2016-04-24T08:43:44Z</time>
      </trkpt>
      <trkpt lat="47.42936" lon="6.70344">
        <ele>447</ele>
        <time>2016-04-24T08:43:46Z</time>
      </trkpt>
      <trkpt lat="47.42937" lon="6.70345">
        <ele>447</ele>
        <time>2016-04-24T08:43:47Z</time>
      </trkpt>
      <trkpt lat="47.42941" lon="6.70348">
        <ele>447</ele>
        <time>2016-04-24T08:43:50Z</time>
      </trkpt>
      <trkpt lat="47.42942" lon="6.70348">
        <ele>447</ele>
        <time>2016-04-24T08:43:51Z</time>
      </trkpt>
      <trkpt lat="47.42944" lon="6.7035">
        <ele>447</ele>
        <time>2016-04-24T08:43:53Z</time>
      </trkpt>
      <trkpt lat="47.42946" lon="6.70352">
        <ele>447</ele>
        <time>2016-04-24T08:43:54Z</time>
      </trkpt>
      <trkpt lat="47.42948" lon="6.70354">
        <ele>447</ele>
        <time>2016-04-24T08:43:55Z</time>
      </trkpt>
      <trkpt lat="47.42949" lon="6.70357">
        <ele>447</ele>
        <time>2016-04-24T08:43:56Z</time>
      </trkpt>
      <trkpt lat="47.42951" lon="6.7036">
        <ele>446</ele>
        <time>2016-04-24T08:43:57Z</time>
      </trkpt>
      <trkpt lat="47.42953" lon="6.70363">
        <ele>446</ele>
        <time>2016-04-24T08:43:58Z</time>
      </trkpt>
      <trkpt lat="47.42955" lon="6.70365">
        <ele>446</ele>
        <time>2016-04-24T08:43:59Z</time>
      </trkpt>
      <trkpt lat="47.42957" lon="6.70368">
        <ele>446</ele>
        <time>2016-04-24T08:44:00Z</time>
      </trkpt>
      <trkpt lat="47.4296" lon="6.70371">
        <ele>446</ele>
        <time>2016-04-24T08:44:01Z</time>
      </trkpt>
      <trkpt lat="47.42964" lon="6.70373">
        <ele>446</ele>
        <time>2016-04-24T08:44:02Z</time>
      </trkpt>
      <trkpt lat="47.42966" lon="6.70374">
        <ele>446</ele>
        <time>2016-04-24T08:44:03.002Z</time>
      </trkpt>
      <trkpt lat="47.42973" lon="6.70376">
        <ele>446</ele>
        <time>2016-04-24T08:44:04Z</time>
      </trkpt>
      <trkpt lat="47.42977" lon="6.70377">
        <ele>446</ele>
        <time>2016-04-24T08:44:05Z</time>
      </trkpt>
      <trkpt lat="47.42982" lon="6.70377">
        <ele>446</ele>
        <time>2016-04-24T08:44:06Z</time>
      </trkpt>
      <trkpt lat="47.42987" lon="6.70376">
        <ele>446</ele>
        <time>2016-04-24T08:44:07Z</time>
      </trkpt>
      <trkpt lat="47.42992" lon="6.70375">
        <ele>446</ele>
        <time>2016-04-24T08:44:08Z</time>
      </trkpt>
      <trkpt lat="47.42997" lon="6.70375">
        <ele>446</ele>
        <time>2016-04-24T08:44:09Z</time>
      </trkpt>
      <trkpt lat="47.43003" lon="6.70375">
        <ele>442</ele>
        <time>2016-04-24T08:44:10Z</time>
      </trkpt>
      <trkpt lat="47.43009" lon="6.70375">
        <ele>442</ele>
        <time>2016-04-24T08:44:11Z</time>
      </trkpt>
      <trkpt lat="47.43015" lon="6.70375">
        <ele>442</ele>
        <time>2016-04-24T08:44:12Z</time>
      </trkpt>
      <trkpt lat="47.43019" lon="6.70373">
        <ele>442</ele>
        <time>2016-04-24T08:44:13Z</time>
      </trkpt>
      <trkpt lat="47.43024" lon="6.70371">
        <ele>442</ele>
        <time>2016-04-24T08:44:14Z</time>
      </trkpt>
      <trkpt lat="47.43027" lon="6.70367">
        <ele>441</ele>
        <time>2016-04-24T08:44:15Z</time>
      </trkpt>
      <trkpt lat="47.43031" lon="6.70364">
        <ele>441</ele>
        <time>2016-04-24T08:44:16Z</time>
      </trkpt>
      <trkpt lat="47.43034" lon="6.7036">
        <ele>441</ele>
        <time>2016-04-24T08:44:17Z</time>
      </trkpt>
      <trkpt lat="47.43037" lon="6.70357">
        <ele>441</ele>
        <time>2016-04-24T08:44:18Z</time>
      </trkpt>
      <trkpt lat="47.43039" lon="6.70355">
        <ele>441</ele>
        <time>2016-04-24T08:44:19Z</time>
      </trkpt>
      <trkpt lat="47.4304" lon="6.70353">
        <ele>440</ele>
        <time>2016-04-24T08:44:20Z</time>
      </trkpt>
      <trkpt lat="47.43043" lon="6.70351">
        <ele>440</ele>
        <time>2016-04-24T08:44:22Z</time>
      </trkpt>
      <trkpt lat="47.43045" lon="6.7035">
        <ele>440</ele>
        <time>2016-04-24T08:44:23Z</time>
      </trkpt>
      <trkpt lat="47.43048" lon="6.70351">
        <ele>440</ele>
        <time>2016-04-24T08:44:25Z</time>
      </trkpt>
      <trkpt lat="47.4305" lon="6.70352">
        <ele>440</ele>
        <time>2016-04-24T08:44:26Z</time>
      </trkpt>
      <trkpt lat="47.43046" lon="6.70355">
        <ele>440</ele>
        <time>2016-04-24T08:44:31Z</time>
      </trkpt>
      <trkpt lat="47.43045" lon="6.70359">
        <ele>440</ele>
        <time>2016-04-24T08:44:32Z</time>
      </trkpt>
      <trkpt lat="47.43044" lon="6.70359">
        <ele>440</ele>
        <time>2016-04-24T08:44:33Z</time>
      </trkpt>
      <trkpt lat="47.43046" lon="6.70366">
        <ele>440</ele>
        <time>2016-04-24T08:44:34Z</time>
      </trkpt>
      <trkpt lat="47.43046" lon="6.70368">
        <ele>440</ele>
        <time>2016-04-24T08:44:34.999Z</time>
      </trkpt>
      <trkpt lat="47.43047" lon="6.70374">
        <ele>440</ele>
        <time>2016-04-24T08:44:36Z</time>
      </trkpt>
      <trkpt lat="47.43048" lon="6.70377">
        <ele>440</ele>
        <time>2016-04-24T08:44:37Z</time>
      </trkpt>
      <trkpt lat="47.4305" lon="6.7038">
        <ele>440</ele>
        <time>2016-04-24T08:44:38Z</time>
      </trkpt>
      <trkpt lat="47.43051" lon="6.70383">
        <ele>440</ele>
        <time>2016-04-24T08:44:39Z</time>
      </trkpt>
      <trkpt lat="47.43053" lon="6.70386">
        <ele>440</ele>
        <time>2016-04-24T08:44:40Z</time>
      </trkpt>
      <trkpt lat="47.43054" lon="6.7039">
        <ele>440</ele>
        <time>2016-04-24T08:44:41Z</time>
      </trkpt>
      <trkpt lat="47.43056" lon="6.70393">
        <ele>440</ele>
        <time>2016-04-24T08:44:42Z</time>
      </trkpt>
      <trkpt lat="47.43057" lon="6.70397">
        <ele>440</ele>
        <time>2016-04-24T08:44:43Z</time>
      </trkpt>
      <trkpt lat="47.43058" lon="6.70401">
        <ele>440</ele>
        <time>2016-04-24T08:44:44Z</time>
      </trkpt>
      <trkpt lat="47.43059" lon="6.70408">
        <ele>440</ele>
        <time>2016-04-24T08:44:46Z</time>
      </trkpt>
      <trkpt lat="47.43059" lon="6.70411">
        <ele>440</ele>
        <time>2016-04-24T08:44:47Z</time>
      </trkpt>
      <trkpt lat="47.43059" lon="6.70412">
        <ele>440</ele>
        <time>2016-04-24T08:44:47.998Z</time>
      </trkpt>
      <trkpt lat="47.43062" lon="6.70418">
        <ele>441</ele>
        <time>2016-04-24T08:44:49Z</time>
      </trkpt>
      <trkpt lat="47.43062" lon="6.7042">
        <ele>441</ele>
        <time>2016-04-24T08:44:50.001Z</time>
      </trkpt>
      <trkpt lat="47.43066" lon="6.70428">
        <ele>440</ele>
        <time>2016-04-24T08:44:51Z</time>
      </trkpt>
      <trkpt lat="47.43068" lon="6.70432">
        <ele>440</ele>
        <time>2016-04-24T08:44:52Z</time>
      </trkpt>
      <trkpt lat="47.43069" lon="6.70434">
        <ele>441</ele>
        <time>2016-04-24T08:44:53.001Z</time>
      </trkpt>
      <trkpt lat="47.43072" lon="6.70438">
        <ele>441</ele>
        <time>2016-04-24T08:44:54Z</time>
      </trkpt>
      <trkpt lat="47.43073" lon="6.70441">
        <ele>441</ele>
        <time>2016-04-24T08:44:55Z</time>
      </trkpt>
      <trkpt lat="47.43075" lon="6.70444">
        <ele>441</ele>
        <time>2016-04-24T08:44:56Z</time>
      </trkpt>
      <trkpt lat="47.43076" lon="6.70448">
        <ele>441</ele>
        <time>2016-04-24T08:44:57Z</time>
      </trkpt>
      <trkpt lat="47.43078" lon="6.70451">
        <ele>441</ele>
        <time>2016-04-24T08:44:58Z</time>
      </trkpt>
      <trkpt lat="47.4308" lon="6.70455">
        <ele>441</ele>
        <time>2016-04-24T08:44:59Z</time>
      </trkpt>
      <trkpt lat="47.43082" lon="6.70459">
        <ele>441</ele>
        <time>2016-04-24T08:45:00Z</time>
      </trkpt>
      <trkpt lat="47.43084" lon="6.70464">
        <ele>436</ele>
        <time>2016-04-24T08:45:01Z</time>
      </trkpt>
      <trkpt lat="47.43086" lon="6.70469">
        <ele>436</ele>
        <time>2016-04-24T08:45:02Z</time>
      </trkpt>
      <trkpt lat="47.43088" lon="6.70474">
        <ele>436</ele>
        <time>2016-04-24T08:45:03Z</time>
      </trkpt>
      <trkpt lat="47.43091" lon="6.70479">
        <ele>437</ele>
        <time>2016-04-24T08:45:04Z</time>
      </trkpt>
      <trkpt lat="47.43093" lon="6.70483">
        <ele>437</ele>
        <time>2016-04-24T08:45:05Z</time>
      </trkpt>
      <trkpt lat="47.43095" lon="6.70488">
        <ele>437</ele>
        <time>2016-04-24T08:45:06Z</time>
      </trkpt>
      <trkpt lat="47.43097" lon="6.70492">
        <ele>437</ele>
        <time>2016-04-24T08:45:07Z</time>
      </trkpt>
      <trkpt lat="47.43099" lon="6.70497">
        <ele>437</ele>
        <time>2016-04-24T08:45:08Z</time>
      </trkpt>
      <trkpt lat="47.431" lon="6.70501">
        <ele>438</ele>
        <time>2016-04-24T08:45:09Z</time>
      </trkpt>
      <trkpt lat="47.43103" lon="6.70506">
        <ele>438</ele>
        <time>2016-04-24T08:45:10Z</time>
      </trkpt>
      <trkpt lat="47.43105" lon="6.7051">
        <ele>438</ele>
        <time>2016-04-24T08:45:11Z</time>
      </trkpt>
      <trkpt lat="47.43107" lon="6.70514">
        <ele>438</ele>
        <time>2016-04-24T08:45:12Z</time>
      </trkpt>
      <trkpt lat="47.43109" lon="6.70519">
        <ele>437</ele>
        <time>2016-04-24T08:45:13Z</time>
      </trkpt>
      <trkpt lat="47.43112" lon="6.70523">
        <ele>437</ele>
        <time>2016-04-24T08:45:14Z</time>
      </trkpt>
      <trkpt lat="47.43114" lon="6.70527">
        <ele>437</ele>
        <time>2016-04-24T08:45:15Z</time>
      </trkpt>
      <trkpt lat="47.43116" lon="6.70531">
        <ele>437</ele>
        <time>2016-04-24T08:45:16Z</time>
      </trkpt>
      <trkpt lat="47.43117" lon="6.70534">
        <ele>437</ele>
        <time>2016-04-24T08:45:17Z</time>
      </trkpt>
      <trkpt lat="47.43119" lon="6.70538">
        <ele>437</ele>
        <time>2016-04-24T08:45:18Z</time>
      </trkpt>
      <trkpt lat="47.43121" lon="6.70542">
        <ele>437</ele>
        <time>2016-04-24T08:45:19Z</time>
      </trkpt>
      <trkpt lat="47.43123" lon="6.70546">
        <ele>437</ele>
        <time>2016-04-24T08:45:20Z</time>
      </trkpt>
      <trkpt lat="47.43124" lon="6.70549">
        <ele>437</ele>
        <time>2016-04-24T08:45:21Z</time>
      </trkpt>
      <trkpt lat="47.43126" lon="6.70553">
        <ele>437</ele>
        <time>2016-04-24T08:45:22Z</time>
      </trkpt>
      <trkpt lat="47.43128" lon="6.70555">
        <ele>437</ele>
        <time>2016-04-24T08:45:23Z</time>
      </trkpt>
      <trkpt lat="47.4313" lon="6.7056">
        <ele>437</ele>
        <time>2016-04-24T08:45:25Z</time>
      </trkpt>
      <trkpt lat="47.43132" lon="6.70563">
        <ele>437</ele>
        <time>2016-04-24T08:45:26Z</time>
      </trkpt>
      <trkpt lat="47.43134" lon="6.70566">
        <ele>437</ele>
        <time>2016-04-24T08:45:27Z</time>
      </trkpt>
      <trkpt lat="47.43135" lon="6.70569">
        <ele>437</ele>
        <time>2016-04-24T08:45:28Z</time>
      </trkpt>
      <trkpt lat="47.43135" lon="6.70575">
        <ele>437</ele>
        <time>2016-04-24T08:45:30Z</time>
      </trkpt>
      <trkpt lat="47.43134" lon="6.70577">
        <ele>437</ele>
        <time>2016-04-24T08:45:31Z</time>
      </trkpt>
      <trkpt lat="47.43132" lon="6.7058">
        <ele>437</ele>
        <time>2016-04-24T08:45:34Z</time>
      </trkpt>
      <trkpt lat="47.43131" lon="6.70582">
        <ele>437</ele>
        <time>2016-04-24T08:45:35Z</time>
      </trkpt>
      <trkpt lat="47.43129" lon="6.70587">
        <ele>438</ele>
        <time>2016-04-24T08:45:38Z</time>
      </trkpt>
      <trkpt lat="47.43128" lon="6.70588">
        <ele>438</ele>
        <time>2016-04-24T08:45:39Z</time>
      </trkpt>
      <trkpt lat="47.43126" lon="6.70592">
        <ele>439</ele>
        <time>2016-04-24T08:45:41Z</time>
      </trkpt>
      <trkpt lat="47.43126" lon="6.70595">
        <ele>439</ele>
        <time>2016-04-24T08:45:42Z</time>
      </trkpt>
      <trkpt lat="47.43127" lon="6.70601">
        <ele>439</ele>
        <time>2016-04-24T08:45:44Z</time>
      </trkpt>
      <trkpt lat="47.43128" lon="6.70604">
        <ele>439</ele>
        <time>2016-04-24T08:45:45Z</time>
      </trkpt>
      <trkpt lat="47.4313" lon="6.70607">
        <ele>439</ele>
        <time>2016-04-24T08:45:46Z</time>
      </trkpt>
      <trkpt lat="47.43131" lon="6.70609">
        <ele>439</ele>
        <time>2016-04-24T08:45:47Z</time>
      </trkpt>
      <trkpt lat="47.43132" lon="6.70616">
        <ele>439</ele>
        <time>2016-04-24T08:45:49Z</time>
      </trkpt>
      <trkpt lat="47.43132" lon="6.70619">
        <ele>439</ele>
        <time>2016-04-24T08:45:50Z</time>
      </trkpt>
      <trkpt lat="47.43133" lon="6.70624">
        <ele>439</ele>
        <time>2016-04-24T08:45:52Z</time>
      </trkpt>
      <trkpt lat="47.43132" lon="6.70627">
        <ele>439</ele>
        <time>2016-04-24T08:45:53Z</time>
      </trkpt>
      <trkpt lat="47.43131" lon="6.70633">
        <ele>439</ele>
        <time>2016-04-24T08:45:55Z</time>
      </trkpt>
      <trkpt lat="47.43131" lon="6.70635">
        <ele>439</ele>
        <time>2016-04-24T08:45:56Z</time>
      </trkpt>
      <trkpt lat="47.4313" lon="6.7064">
        <ele>439</ele>
        <time>2016-04-24T08:45:58Z</time>
      </trkpt>
      <trkpt lat="47.4313" lon="6.70642">
        <ele>439</ele>
        <time>2016-04-24T08:45:59Z</time>
      </trkpt>
      <trkpt lat="47.43131" lon="6.70647">
        <ele>439</ele>
        <time>2016-04-24T08:46:02Z</time>
      </trkpt>
      <trkpt lat="47.43131" lon="6.70649">
        <ele>439</ele>
        <time>2016-04-24T08:46:03Z</time>
      </trkpt>
      <trkpt lat="47.43133" lon="6.70653">
        <ele>439</ele>
        <time>2016-04-24T08:46:06Z</time>
      </trkpt>
      <trkpt lat="47.43135" lon="6.70656">
        <ele>439</ele>
        <time>2016-04-24T08:46:07Z</time>
      </trkpt>
      <trkpt lat="47.43137" lon="6.70659">
        <ele>439</ele>
        <time>2016-04-24T08:46:08Z</time>
      </trkpt>
      <trkpt lat="47.43139" lon="6.70661">
        <ele>439</ele>
        <time>2016-04-24T08:46:09Z</time>
      </trkpt>
      <trkpt lat="47.4314" lon="6.70664">
        <ele>439</ele>
        <time>2016-04-24T08:46:10Z</time>
      </trkpt>
      <trkpt lat="47.43142" lon="6.70667">
        <ele>439</ele>
        <time>2016-04-24T08:46:11Z</time>
      </trkpt>
      <trkpt lat="47.43144" lon="6.70671">
        <ele>440</ele>
        <time>2016-04-24T08:46:13Z</time>
      </trkpt>
      <trkpt lat="47.43145" lon="6.70674">
        <ele>440</ele>
        <time>2016-04-24T08:46:14Z</time>
      </trkpt>
      <trkpt lat="47.43147" lon="6.70678">
        <ele>440</ele>
        <time>2016-04-24T08:46:16Z</time>
      </trkpt>
      <trkpt lat="47.43148" lon="6.70681">
        <ele>440</ele>
        <time>2016-04-24T08:46:17Z</time>
      </trkpt>
      <trkpt lat="47.43149" lon="6.70686">
        <ele>440</ele>
        <time>2016-04-24T08:46:19Z</time>
      </trkpt>
      <trkpt lat="47.4315" lon="6.70688">
        <ele>440</ele>
        <time>2016-04-24T08:46:20Z</time>
      </trkpt>
      <trkpt lat="47.43152" lon="6.70693">
        <ele>440</ele>
        <time>2016-04-24T08:46:22Z</time>
      </trkpt>
      <trkpt lat="47.43153" lon="6.70696">
        <ele>440</ele>
        <time>2016-04-24T08:46:23Z</time>
      </trkpt>
      <trkpt lat="47.43154" lon="6.70701">
        <ele>441</ele>
        <time>2016-04-24T08:46:25Z</time>
      </trkpt>
      <trkpt lat="47.43155" lon="6.70703">
        <ele>441</ele>
        <time>2016-04-24T08:46:26Z</time>
      </trkpt>
      <trkpt lat="47.43157" lon="6.70708">
        <ele>441</ele>
        <time>2016-04-24T08:46:28Z</time>
      </trkpt>
      <trkpt lat="47.43158" lon="6.7071">
        <ele>441</ele>
        <time>2016-04-24T08:46:29Z</time>
      </trkpt>
      <trkpt lat="47.43162" lon="6.70713">
        <ele>441</ele>
        <time>2016-04-24T08:46:32Z</time>
      </trkpt>
      <trkpt lat="47.43162" lon="6.70714">
        <ele>441</ele>
        <time>2016-04-24T08:46:33Z</time>
      </trkpt>
      <trkpt lat="47.43164" lon="6.70719">
        <ele>441</ele>
        <time>2016-04-24T08:46:37Z</time>
      </trkpt>
      <trkpt lat="47.43165" lon="6.70721">
        <ele>441</ele>
        <time>2016-04-24T08:46:38Z</time>
      </trkpt>
      <trkpt lat="47.43167" lon="6.70723">
        <ele>441</ele>
        <time>2016-04-24T08:46:39Z</time>
      </trkpt>
      <trkpt lat="47.43168" lon="6.70726">
        <ele>438</ele>
        <time>2016-04-24T08:46:40Z</time>
      </trkpt>
      <trkpt lat="47.4317" lon="6.7073">
        <ele>439</ele>
        <time>2016-04-24T08:46:41Z</time>
      </trkpt>
      <trkpt lat="47.4317" lon="6.70732">
        <ele>439</ele>
        <time>2016-04-24T08:46:42Z</time>
      </trkpt>
      <trkpt lat="47.43173" lon="6.70737">
        <ele>439</ele>
        <time>2016-04-24T08:46:46Z</time>
      </trkpt>
      <trkpt lat="47.43175" lon="6.7074">
        <ele>440</ele>
        <time>2016-04-24T08:46:47Z</time>
      </trkpt>
      <trkpt lat="47.43177" lon="6.70744">
        <ele>440</ele>
        <time>2016-04-24T08:46:48Z</time>
      </trkpt>
      <trkpt lat="47.43179" lon="6.70748">
        <ele>440</ele>
        <time>2016-04-24T08:46:49Z</time>
      </trkpt>
      <trkpt lat="47.43181" lon="6.70752">
        <ele>441</ele>
        <time>2016-04-24T08:46:50Z</time>
      </trkpt>
      <trkpt lat="47.43182" lon="6.70756">
        <ele>441</ele>
        <time>2016-04-24T08:46:51Z</time>
      </trkpt>
      <trkpt lat="47.43184" lon="6.70759">
        <ele>441</ele>
        <time>2016-04-24T08:46:52Z</time>
      </trkpt>
      <trkpt lat="47.43185" lon="6.70763">
        <ele>441</ele>
        <time>2016-04-24T08:46:53Z</time>
      </trkpt>
      <trkpt lat="47.43187" lon="6.70766">
        <ele>441</ele>
        <time>2016-04-24T08:46:54Z</time>
      </trkpt>
      <trkpt lat="47.43189" lon="6.70769">
        <ele>441</ele>
        <time>2016-04-24T08:46:55Z</time>
      </trkpt>
      <trkpt lat="47.43191" lon="6.70774">
        <ele>441</ele>
        <time>2016-04-24T08:46:57Z</time>
      </trkpt>
      <trkpt lat="47.43192" lon="6.70776">
        <ele>441</ele>
        <time>2016-04-24T08:46:58Z</time>
      </trkpt>
      <trkpt lat="47.43194" lon="6.70779">
        <ele>441</ele>
        <time>2016-04-24T08:47:00Z</time>
      </trkpt>
      <trkpt lat="47.43195" lon="6.70781">
        <ele>441</ele>
        <time>2016-04-24T08:47:01Z</time>
      </trkpt>
      <trkpt lat="47.43198" lon="6.70785">
        <ele>441</ele>
        <time>2016-04-24T08:47:03Z</time>
      </trkpt>
      <trkpt lat="47.432" lon="6.70788">
        <ele>441</ele>
        <time>2016-04-24T08:47:04Z</time>
      </trkpt>
      <trkpt lat="47.43202" lon="6.7079">
        <ele>441</ele>
        <time>2016-04-24T08:47:05Z</time>
      </trkpt>
      <trkpt lat="47.43205" lon="6.70794">
        <ele>441</ele>
        <time>2016-04-24T08:47:06Z</time>
      </trkpt>
      <trkpt lat="47.43207" lon="6.70798">
        <ele>441</ele>
        <time>2016-04-24T08:47:07Z</time>
      </trkpt>
      <trkpt lat="47.43209" lon="6.70801">
        <ele>441</ele>
        <time>2016-04-24T08:47:08Z</time>
      </trkpt>
      <trkpt lat="47.43213" lon="6.70807">
        <ele>441</ele>
        <time>2016-04-24T08:47:09Z</time>
      </trkpt>
      <trkpt lat="47.43215" lon="6.70811">
        <ele>441</ele>
        <time>2016-04-24T08:47:10Z</time>
      </trkpt>
      <trkpt lat="47.43216" lon="6.70815">
        <ele>441</ele>
        <time>2016-04-24T08:47:11Z</time>
      </trkpt>
      <trkpt lat="47.43218" lon="6.70819">
        <ele>441</ele>
        <time>2016-04-24T08:47:12Z</time>
      </trkpt>
      <trkpt lat="47.4322" lon="6.70822">
        <ele>441</ele>
        <time>2016-04-24T08:47:13Z</time>
      </trkpt>
      <trkpt lat="47.43222" lon="6.70825">
        <ele>441</ele>
        <time>2016-04-24T08:47:14Z</time>
      </trkpt>
      <trkpt lat="47.43224" lon="6.70828">
        <ele>441</ele>
        <time>2016-04-24T08:47:15Z</time>
      </trkpt>
      <trkpt lat="47.43226" lon="6.70832">
        <ele>441</ele>
        <time>2016-04-24T08:47:16Z</time>
      </trkpt>
      <trkpt lat="47.43228" lon="6.70836">
        <ele>441</ele>
        <time>2016-04-24T08:47:17Z</time>
      </trkpt>
      <trkpt lat="47.43229" lon="6.70842">
        <ele>441</ele>
        <time>2016-04-24T08:47:18Z</time>
      </trkpt>
      <trkpt lat="47.4323" lon="6.70849">
        <ele>441</ele>
        <time>2016-04-24T08:47:19Z</time>
      </trkpt>
      <trkpt lat="47.43226" lon="6.70869">
        <ele>441</ele>
        <time>2016-04-24T08:47:20Z</time>
      </trkpt>
      <trkpt lat="47.43226" lon="6.70878">
        <ele>441</ele>
        <time>2016-04-24T08:47:21Z</time>
      </trkpt>
      <trkpt lat="47.43222" lon="6.70879">
        <ele>441</ele>
        <time>2016-04-24T08:47:22Z</time>
      </trkpt>
      <trkpt lat="47.43218" lon="6.70885">
        <ele>441</ele>
        <time>2016-04-24T08:47:23Z</time>
      </trkpt>
      <trkpt lat="47.43214" lon="6.7089">
        <ele>441</ele>
        <time>2016-04-24T08:47:24Z</time>
      </trkpt>
      <trkpt lat="47.43211" lon="6.70897">
        <ele>441</ele>
        <time>2016-04-24T08:47:25Z</time>
      </trkpt>
      <trkpt lat="47.43209" lon="6.70901">
        <ele>441</ele>
        <time>2016-04-24T08:47:26Z</time>
      </trkpt>
      <trkpt lat="47.43204" lon="6.70903">
        <ele>442</ele>
        <time>2016-04-24T08:47:27Z</time>
      </trkpt>
      <trkpt lat="47.43203" lon="6.70906">
        <ele>442</ele>
        <time>2016-04-24T08:47:28Z</time>
      </trkpt>
      <trkpt lat="47.43201" lon="6.70909">
        <ele>442</ele>
        <time>2016-04-24T08:47:29Z</time>
      </trkpt>
      <trkpt lat="47.43199" lon="6.70913">
        <ele>442</ele>
        <time>2016-04-24T08:47:30Z</time>
      </trkpt>
      <trkpt lat="47.43195" lon="6.70917">
        <ele>442</ele>
        <time>2016-04-24T08:47:31Z</time>
      </trkpt>
      <trkpt lat="47.43193" lon="6.70918">
        <ele>442</ele>
        <time>2016-04-24T08:47:32Z</time>
      </trkpt>
      <trkpt lat="47.43191" lon="6.7092">
        <ele>442</ele>
        <time>2016-04-24T08:47:33Z</time>
      </trkpt>
      <trkpt lat="47.43188" lon="6.70922">
        <ele>442</ele>
        <time>2016-04-24T08:47:34Z</time>
      </trkpt>
      <trkpt lat="47.43186" lon="6.70924">
        <ele>442</ele>
        <time>2016-04-24T08:47:35Z</time>
      </trkpt>
      <trkpt lat="47.43184" lon="6.70926">
        <ele>442</ele>
        <time>2016-04-24T08:47:36Z</time>
      </trkpt>
      <trkpt lat="47.43182" lon="6.70928">
        <ele>442</ele>
        <time>2016-04-24T08:47:37Z</time>
      </trkpt>
      <trkpt lat="47.4318" lon="6.7093">
        <ele>442</ele>
        <time>2016-04-24T08:47:38Z</time>
      </trkpt>
      <trkpt lat="47.43178" lon="6.70932">
        <ele>442</ele>
        <time>2016-04-24T08:47:39Z</time>
      </trkpt>
      <trkpt lat="47.43176" lon="6.70934">
        <ele>442</ele>
        <time>2016-04-24T08:47:40Z</time>
      </trkpt>
      <trkpt lat="47.43174" lon="6.70935">
        <ele>442</ele>
        <time>2016-04-24T08:47:41Z</time>
      </trkpt>
      <trkpt lat="47.43171" lon="6.70936">
        <ele>442</ele>
        <time>2016-04-24T08:47:42Z</time>
      </trkpt>
      <trkpt lat="47.43169" lon="6.70938">
        <ele>442</ele>
        <time>2016-04-24T08:47:43Z</time>
      </trkpt>
      <trkpt lat="47.43166" lon="6.70939">
        <ele>444</ele>
        <time>2016-04-24T08:47:44Z</time>
      </trkpt>
      <trkpt lat="47.43162" lon="6.7094">
        <ele>444</ele>
        <time>2016-04-24T08:47:45Z</time>
      </trkpt>
      <trkpt lat="47.43159" lon="6.70941">
        <ele>444</ele>
        <time>2016-04-24T08:47:46Z</time>
      </trkpt>
      <trkpt lat="47.43157" lon="6.70942">
        <ele>444</ele>
        <time>2016-04-24T08:47:47Z</time>
      </trkpt>
      <trkpt lat="47.43154" lon="6.70943">
        <ele>444</ele>
        <time>2016-04-24T08:47:48Z</time>
      </trkpt>
      <trkpt lat="47.43151" lon="6.70944">
        <ele>444</ele>
        <time>2016-04-24T08:47:49Z</time>
      </trkpt>
      <trkpt lat="47.43148" lon="6.70945">
        <ele>444</ele>
        <time>2016-04-24T08:47:50Z</time>
      </trkpt>
      <trkpt lat="47.43144" lon="6.70947">
        <ele>444</ele>
        <time>2016-04-24T08:47:51Z</time>
      </trkpt>
      <trkpt lat="47.43141" lon="6.70949">
        <ele>444</ele>
        <time>2016-04-24T08:47:52Z</time>
      </trkpt>
      <trkpt lat="47.43137" lon="6.70952">
        <ele>444</ele>
        <time>2016-04-24T08:47:53Z</time>
      </trkpt>
      <trkpt lat="47.43134" lon="6.70955">
        <ele>444</ele>
        <time>2016-04-24T08:47:54Z</time>
      </trkpt>
      <trkpt lat="47.43131" lon="6.70958">
        <ele>444</ele>
        <time>2016-04-24T08:47:55Z</time>
      </trkpt>
      <trkpt lat="47.43127" lon="6.7096">
        <ele>443</ele>
        <time>2016-04-24T08:47:56Z</time>
      </trkpt>
      <trkpt lat="47.43124" lon="6.70962">
        <ele>443</ele>
        <time>2016-04-24T08:47:57Z</time>
      </trkpt>
      <trkpt lat="47.43121" lon="6.70964">
        <ele>443</ele>
        <time>2016-04-24T08:47:58Z</time>
      </trkpt>
      <trkpt lat="47.43119" lon="6.70964">
        <ele>443</ele>
        <time>2016-04-24T08:47:59Z</time>
      </trkpt>
      <trkpt lat="47.43116" lon="6.70965">
        <ele>443</ele>
        <time>2016-04-24T08:48:00Z</time>
      </trkpt>
      <trkpt lat="47.43114" lon="6.70966">
        <ele>443</ele>
        <time>2016-04-24T08:48:01Z</time>
      </trkpt>
      <trkpt lat="47.43111" lon="6.70967">
        <ele>443</ele>
        <time>2016-04-24T08:48:02Z</time>
      </trkpt>
      <trkpt lat="47.43109" lon="6.70968">
        <ele>443</ele>
        <time>2016-04-24T08:48:03Z</time>
      </trkpt>
      <trkpt lat="47.43109" lon="6.70975">
        <ele>443</ele>
        <time>2016-04-24T08:48:11Z</time>
      </trkpt>
      <trkpt lat="47.43109" lon="6.70976">
        <ele>443</ele>
        <time>2016-04-24T08:48:12Z</time>
      </trkpt>
      <trkpt lat="47.4311" lon="6.70981">
        <ele>443</ele>
        <time>2016-04-24T08:48:14Z</time>
      </trkpt>
      <trkpt lat="47.4311" lon="6.70985">
        <ele>443</ele>
        <time>2016-04-24T08:48:15Z</time>
      </trkpt>
      <trkpt lat="47.43112" lon="6.7099">
        <ele>443</ele>
        <time>2016-04-24T08:48:16Z</time>
      </trkpt>
      <trkpt lat="47.43114" lon="6.70995">
        <ele>443</ele>
        <time>2016-04-24T08:48:17Z</time>
      </trkpt>
      <trkpt lat="47.43115" lon="6.70999">
        <ele>443</ele>
        <time>2016-04-24T08:48:18Z</time>
      </trkpt>
      <trkpt lat="47.43118" lon="6.71004">
        <ele>443</ele>
        <time>2016-04-24T08:48:19Z</time>
      </trkpt>
      <trkpt lat="47.43118" lon="6.7101">
        <ele>443</ele>
        <time>2016-04-24T08:48:24Z</time>
      </trkpt>
      <trkpt lat="47.43117" lon="6.71011">
        <ele>443</ele>
        <time>2016-04-24T08:48:25Z</time>
      </trkpt>
      <trkpt lat="47.43121" lon="6.71013">
        <ele>443</ele>
        <time>2016-04-24T08:51:21Z</time>
      </trkpt>
      <trkpt lat="47.43123" lon="6.71011">
        <ele>443</ele>
        <time>2016-04-24T08:51:22Z</time>
      </trkpt>
      <trkpt lat="47.43126" lon="6.71008">
        <ele>443</ele>
        <time>2016-04-24T08:51:24Z</time>
      </trkpt>
      <trkpt lat="47.43128" lon="6.71006">
        <ele>443</ele>
        <time>2016-04-24T08:51:25Z</time>
      </trkpt>
      <trkpt lat="47.4313" lon="6.71005">
        <ele>443</ele>
        <time>2016-04-24T08:51:26Z</time>
      </trkpt>
      <trkpt lat="47.43133" lon="6.71003">
        <ele>443</ele>
        <time>2016-04-24T08:51:27Z</time>
      </trkpt>
      <trkpt lat="47.43136" lon="6.71001">
        <ele>443</ele>
        <time>2016-04-24T08:51:28Z</time>
      </trkpt>
      <trkpt lat="47.43139" lon="6.71">
        <ele>443</ele>
        <time>2016-04-24T08:51:29Z</time>
      </trkpt>
      <trkpt lat="47.43143" lon="6.70997">
        <ele>443</ele>
        <time>2016-04-24T08:51:30Z</time>
      </trkpt>
      <trkpt lat="47.43153" lon="6.70991">
        <ele>443</ele>
        <time>2016-04-24T08:51:31Z</time>
      </trkpt>
      <trkpt lat="47.43159" lon="6.70989">
        <ele>443</ele>
        <time>2016-04-24T08:51:32Z</time>
      </trkpt>
      <trkpt lat="47.43162" lon="6.70989">
        <ele>443</ele>
        <time>2016-04-24T08:51:33Z</time>
      </trkpt>
      <trkpt lat="47.43169" lon="6.70991">
        <ele>442</ele>
        <time>2016-04-24T08:51:34Z</time>
      </trkpt>
      <trkpt lat="47.43173" lon="6.70989">
        <ele>442</ele>
        <time>2016-04-24T08:51:35Z</time>
      </trkpt>
      <trkpt lat="47.43176" lon="6.70988">
        <ele>442</ele>
        <time>2016-04-24T08:51:36Z</time>
      </trkpt>
      <trkpt lat="47.43181" lon="6.70988">
        <ele>442</ele>
        <time>2016-04-24T08:51:37Z</time>
      </trkpt>
      <trkpt lat="47.43185" lon="6.70988">
        <ele>442</ele>
        <time>2016-04-24T08:51:38Z</time>
      </trkpt>
      <trkpt lat="47.43188" lon="6.7099">
        <ele>442</ele>
        <time>2016-04-24T08:51:39Z</time>
      </trkpt>
      <trkpt lat="47.43195" lon="6.70993">
        <ele>441</ele>
        <time>2016-04-24T08:51:40Z</time>
      </trkpt>
      <trkpt lat="47.43199" lon="6.70993">
        <ele>441</ele>
        <time>2016-04-24T08:51:41Z</time>
      </trkpt>
      <trkpt lat="47.43204" lon="6.70994">
        <ele>441</ele>
        <time>2016-04-24T08:51:42Z</time>
      </trkpt>
      <trkpt lat="47.43212" lon="6.70991">
        <ele>441</ele>
        <time>2016-04-24T08:51:43Z</time>
      </trkpt>
      <trkpt lat="47.43216" lon="6.70991">
        <ele>440</ele>
        <time>2016-04-24T08:51:43.999Z</time>
      </trkpt>
      <trkpt lat="47.43219" lon="6.70985">
        <ele>440</ele>
        <time>2016-04-24T08:51:46Z</time>
      </trkpt>
      <trkpt lat="47.43222" lon="6.70983">
        <ele>440</ele>
        <time>2016-04-24T08:51:47Z</time>
      </trkpt>
      <trkpt lat="47.43227" lon="6.7098">
        <ele>440</ele>
        <time>2016-04-24T08:51:48Z</time>
      </trkpt>
      <trkpt lat="47.43231" lon="6.70976">
        <ele>440</ele>
        <time>2016-04-24T08:51:49Z</time>
      </trkpt>
      <trkpt lat="47.43234" lon="6.70973">
        <ele>440</ele>
        <time>2016-04-24T08:51:50Z</time>
      </trkpt>
      <trkpt lat="47.43236" lon="6.70969">
        <ele>440</ele>
        <time>2016-04-24T08:51:51Z</time>
      </trkpt>
      <trkpt lat="47.43238" lon="6.70965">
        <ele>440</ele>
        <time>2016-04-24T08:51:52Z</time>
      </trkpt>
      <trkpt lat="47.43238" lon="6.70958">
        <ele>440</ele>
        <time>2016-04-24T08:51:53Z</time>
      </trkpt>
      <trkpt lat="47.43239" lon="6.70953">
        <ele>440</ele>
        <time>2016-04-24T08:51:54Z</time>
      </trkpt>
      <trkpt lat="47.4324" lon="6.7095">
        <ele>440</ele>
        <time>2016-04-24T08:51:55Z</time>
      </trkpt>
      <trkpt lat="47.43241" lon="6.70945">
        <ele>440</ele>
        <time>2016-04-24T08:51:55.999Z</time>
      </trkpt>
      <trkpt lat="47.43242" lon="6.70942">
        <ele>440</ele>
        <time>2016-04-24T08:51:57Z</time>
      </trkpt>
      <trkpt lat="47.43244" lon="6.7094">
        <ele>440</ele>
        <time>2016-04-24T08:51:59Z</time>
      </trkpt>
      <trkpt lat="47.43246" lon="6.70938">
        <ele>439</ele>
        <time>2016-04-24T08:52:00Z</time>
      </trkpt>
      <trkpt lat="47.43246" lon="6.70938">
        <ele>439</ele>
        <time>2016-04-24T08:52:01Z</time>
      </trkpt>
      <trkpt lat="47.43251" lon="6.70935">
        <ele>438</ele>
        <time>2016-04-24T08:52:02Z</time>
      </trkpt>
      <trkpt lat="47.43253" lon="6.70934">
        <ele>438</ele>
        <time>2016-04-24T08:52:03Z</time>
      </trkpt>
      <trkpt lat="47.43255" lon="6.70933">
        <ele>438</ele>
        <time>2016-04-24T08:52:04Z</time>
      </trkpt>
      <trkpt lat="47.43259" lon="6.70933">
        <ele>438</ele>
        <time>2016-04-24T08:52:06Z</time>
      </trkpt>
      <trkpt lat="47.43261" lon="6.70934">
        <ele>438</ele>
        <time>2016-04-24T08:52:07Z</time>
      </trkpt>
      <trkpt lat="47.43265" lon="6.70935">
        <ele>438</ele>
        <time>2016-04-24T08:52:10Z</time>
      </trkpt>
      <trkpt lat="47.43267" lon="6.70935">
        <ele>438</ele>
        <time>2016-04-24T08:52:11Z</time>
      </trkpt>
      <trkpt lat="47.43269" lon="6.70934">
        <ele>438</ele>
        <time>2016-04-24T08:52:12Z</time>
      </trkpt>
      <trkpt lat="47.43272" lon="6.70932">
        <ele>438</ele>
        <time>2016-04-24T08:52:13Z</time>
      </trkpt>
      <trkpt lat="47.43275" lon="6.70929">
        <ele>438</ele>
        <time>2016-04-24T08:52:14Z</time>
      </trkpt>
      <trkpt lat="47.43278" lon="6.70925">
        <ele>438</ele>
        <time>2016-04-24T08:52:15Z</time>
      </trkpt>
      <trkpt lat="47.43281" lon="6.70921">
        <ele>438</ele>
        <time>2016-04-24T08:52:16Z</time>
      </trkpt>
      <trkpt lat="47.43283" lon="6.70916">
        <ele>438</ele>
        <time>2016-04-24T08:52:17Z</time>
      </trkpt>
      <trkpt lat="47.43287" lon="6.70912">
        <ele>438</ele>
        <time>2016-04-24T08:52:18Z</time>
      </trkpt>
      <trkpt lat="47.4329" lon="6.70908">
        <ele>438</ele>
        <time>2016-04-24T08:52:19Z</time>
      </trkpt>
      <trkpt lat="47.43293" lon="6.70905">
        <ele>438</ele>
        <time>2016-04-24T08:52:20Z</time>
      </trkpt>
      <trkpt lat="47.43296" lon="6.70903">
        <ele>438</ele>
        <time>2016-04-24T08:52:21Z</time>
      </trkpt>
      <trkpt lat="47.43299" lon="6.70901">
        <ele>438</ele>
        <time>2016-04-24T08:52:22Z</time>
      </trkpt>
      <trkpt lat="47.43302" lon="6.70899">
        <ele>438</ele>
        <time>2016-04-24T08:52:23Z</time>
      </trkpt>
      <trkpt lat="47.43306" lon="6.70897">
        <ele>438</ele>
        <time>2016-04-24T08:52:24Z</time>
      </trkpt>
      <trkpt lat="47.43309" lon="6.70895">
        <ele>438</ele>
        <time>2016-04-24T08:52:25Z</time>
      </trkpt>
      <trkpt lat="47.43313" lon="6.70894">
        <ele>437</ele>
        <time>2016-04-24T08:52:26Z</time>
      </trkpt>
      <trkpt lat="47.43318" lon="6.70892">
        <ele>437</ele>
        <time>2016-04-24T08:52:27Z</time>
      </trkpt>
      <trkpt lat="47.43323" lon="6.7089">
        <ele>437</ele>
        <time>2016-04-24T08:52:28Z</time>
      </trkpt>
      <trkpt lat="47.43328" lon="6.70888">
        <ele>437</ele>
        <time>2016-04-24T08:52:29Z</time>
      </trkpt>
      <trkpt lat="47.43333" lon="6.70884">
        <ele>437</ele>
        <time>2016-04-24T08:52:30Z</time>
      </trkpt>
      <trkpt lat="47.43337" lon="6.7088">
        <ele>435</ele>
        <time>2016-04-24T08:52:31Z</time>
      </trkpt>
      <trkpt lat="47.4334" lon="6.70875">
        <ele>435</ele>
        <time>2016-04-24T08:52:32Z</time>
      </trkpt>
      <trkpt lat="47.43342" lon="6.70871">
        <ele>435</ele>
        <time>2016-04-24T08:52:33Z</time>
      </trkpt>
      <trkpt lat="47.43344" lon="6.70866">
        <ele>434</ele>
        <time>2016-04-24T08:52:34Z</time>
      </trkpt>
      <trkpt lat="47.43346" lon="6.70862">
        <ele>434</ele>
        <time>2016-04-24T08:52:35Z</time>
      </trkpt>
      <trkpt lat="47.43347" lon="6.70857">
        <ele>434</ele>
        <time>2016-04-24T08:52:36Z</time>
      </trkpt>
      <trkpt lat="47.43348" lon="6.70853">
        <ele>434</ele>
        <time>2016-04-24T08:52:37Z</time>
      </trkpt>
      <trkpt lat="47.43349" lon="6.70849">
        <ele>434</ele>
        <time>2016-04-24T08:52:38Z</time>
      </trkpt>
      <trkpt lat="47.4335" lon="6.70846">
        <ele>434</ele>
        <time>2016-04-24T08:52:39Z</time>
      </trkpt>
      <trkpt lat="47.43352" lon="6.70842">
        <ele>434</ele>
        <time>2016-04-24T08:52:40Z</time>
      </trkpt>
      <trkpt lat="47.43353" lon="6.70839">
        <ele>434</ele>
        <time>2016-04-24T08:52:41Z</time>
      </trkpt>
      <trkpt lat="47.43355" lon="6.70836">
        <ele>434</ele>
        <time>2016-04-24T08:52:42Z</time>
      </trkpt>
      <trkpt lat="47.43357" lon="6.70833">
        <ele>434</ele>
        <time>2016-04-24T08:52:43Z</time>
      </trkpt>
      <trkpt lat="47.43361" lon="6.70829">
        <ele>431</ele>
        <time>2016-04-24T08:52:45Z</time>
      </trkpt>
      <trkpt lat="47.43362" lon="6.70828">
        <ele>431</ele>
        <time>2016-04-24T08:52:46Z</time>
      </trkpt>
      <trkpt lat="47.43365" lon="6.70825">
        <ele>431</ele>
        <time>2016-04-24T08:52:48Z</time>
      </trkpt>
      <trkpt lat="47.43367" lon="6.70822">
        <ele>430</ele>
        <time>2016-04-24T08:52:49Z</time>
      </trkpt>
      <trkpt lat="47.43369" lon="6.70819">
        <ele>430</ele>
        <time>2016-04-24T08:52:50Z</time>
      </trkpt>
      <trkpt lat="47.43371" lon="6.70816">
        <ele>430</ele>
        <time>2016-04-24T08:52:51Z</time>
      </trkpt>
      <trkpt lat="47.43375" lon="6.70813">
        <ele>430</ele>
        <time>2016-04-24T08:52:52Z</time>
      </trkpt>
      <trkpt lat="47.43379" lon="6.7081">
        <ele>430</ele>
        <time>2016-04-24T08:52:53Z</time>
      </trkpt>
      <trkpt lat="47.43383" lon="6.70807">
        <ele>429</ele>
        <time>2016-04-24T08:52:54Z</time>
      </trkpt>
      <trkpt lat="47.43387" lon="6.70805">
        <ele>429</ele>
        <time>2016-04-24T08:52:55Z</time>
      </trkpt>
      <trkpt lat="47.43391" lon="6.70802">
        <ele>429</ele>
        <time>2016-04-24T08:52:56Z</time>
      </trkpt>
      <trkpt lat="47.43393" lon="6.70801">
        <ele>429</ele>
        <time>2016-04-24T08:52:57.001Z</time>
      </trkpt>
      <trkpt lat="47.43398" lon="6.70799">
        <ele>429</ele>
        <time>2016-04-24T08:52:58Z</time>
      </trkpt>
      <trkpt lat="47.43401" lon="6.70797">
        <ele>429</ele>
        <time>2016-04-24T08:52:59Z</time>
      </trkpt>
      <trkpt lat="47.43403" lon="6.70795">
        <ele>429</ele>
        <time>2016-04-24T08:53:00Z</time>
      </trkpt>
      <trkpt lat="47.43405" lon="6.70791">
        <ele>429</ele>
        <time>2016-04-24T08:53:02Z</time>
      </trkpt>
      <trkpt lat="47.43405" lon="6.70788">
        <ele>428</ele>
        <time>2016-04-24T08:53:03Z</time>
      </trkpt>
      <trkpt lat="47.43406" lon="6.70783">
        <ele>428</ele>
        <time>2016-04-24T08:53:05Z</time>
      </trkpt>
      <trkpt lat="47.43406" lon="6.7078">
        <ele>428</ele>
        <time>2016-04-24T08:53:06Z</time>
      </trkpt>
      <trkpt lat="47.43408" lon="6.70777">
        <ele>428</ele>
        <time>2016-04-24T08:53:07Z</time>
      </trkpt>
      <trkpt lat="47.4341" lon="6.70773">
        <ele>428</ele>
        <time>2016-04-24T08:53:08Z</time>
      </trkpt>
      <trkpt lat="47.43427" lon="6.70767">
        <ele>425</ele>
        <time>2016-04-24T08:53:09Z</time>
      </trkpt>
      <trkpt lat="47.43434" lon="6.70763">
        <ele>425</ele>
        <time>2016-04-24T08:53:10Z</time>
      </trkpt>
      <trkpt lat="47.4344" lon="6.7076">
        <ele>425</ele>
        <time>2016-04-24T08:53:11Z</time>
      </trkpt>
      <trkpt lat="47.43444" lon="6.70753">
        <ele>425</ele>
        <time>2016-04-24T08:53:12Z</time>
      </trkpt>
      <trkpt lat="47.43448" lon="6.70749">
        <ele>424</ele>
        <time>2016-04-24T08:53:13Z</time>
      </trkpt>
      <trkpt lat="47.4345" lon="6.70747">
        <ele>424</ele>
        <time>2016-04-24T08:53:14Z</time>
      </trkpt>
      <trkpt lat="47.43453" lon="6.7074">
        <ele>423</ele>
        <time>2016-04-24T08:53:15Z</time>
      </trkpt>
      <trkpt lat="47.43456" lon="6.70734">
        <ele>423</ele>
        <time>2016-04-24T08:53:16Z</time>
      </trkpt>
      <trkpt lat="47.43458" lon="6.70728">
        <ele>423</ele>
        <time>2016-04-24T08:53:17Z</time>
      </trkpt>
      <trkpt lat="47.43461" lon="6.70723">
        <ele>423</ele>
        <time>2016-04-24T08:53:18Z</time>
      </trkpt>
      <trkpt lat="47.43463" lon="6.70717">
        <ele>423</ele>
        <time>2016-04-24T08:53:19Z</time>
      </trkpt>
      <trkpt lat="47.43465" lon="6.70713">
        <ele>423</ele>
        <time>2016-04-24T08:53:20Z</time>
      </trkpt>
      <trkpt lat="47.43466" lon="6.70708">
        <ele>423</ele>
        <time>2016-04-24T08:53:21Z</time>
      </trkpt>
      <trkpt lat="47.43468" lon="6.70703">
        <ele>423</ele>
        <time>2016-04-24T08:53:22Z</time>
      </trkpt>
      <trkpt lat="47.43469" lon="6.70697">
        <ele>423</ele>
        <time>2016-04-24T08:53:23Z</time>
      </trkpt>
      <trkpt lat="47.4347" lon="6.70691">
        <ele>423</ele>
        <time>2016-04-24T08:53:24Z</time>
      </trkpt>
      <trkpt lat="47.43471" lon="6.70686">
        <ele>422</ele>
        <time>2016-04-24T08:53:25Z</time>
      </trkpt>
      <trkpt lat="47.43472" lon="6.70679">
        <ele>422</ele>
        <time>2016-04-24T08:53:26Z</time>
      </trkpt>
      <trkpt lat="47.43472" lon="6.70673">
        <ele>422</ele>
        <time>2016-04-24T08:53:27Z</time>
      </trkpt>
      <trkpt lat="47.43473" lon="6.70668">
        <ele>422</ele>
        <time>2016-04-24T08:53:28Z</time>
      </trkpt>
      <trkpt lat="47.43475" lon="6.70663">
        <ele>420</ele>
        <time>2016-04-24T08:53:29Z</time>
      </trkpt>
      <trkpt lat="47.43478" lon="6.70653">
        <ele>420</ele>
        <time>2016-04-24T08:53:30Z</time>
      </trkpt>
      <trkpt lat="47.43479" lon="6.70645">
        <ele>420</ele>
        <time>2016-04-24T08:53:31Z</time>
      </trkpt>
      <trkpt lat="47.43478" lon="6.70636">
        <ele>420</ele>
        <time>2016-04-24T08:53:32Z</time>
      </trkpt>
      <trkpt lat="47.43476" lon="6.70628">
        <ele>420</ele>
        <time>2016-04-24T08:53:33Z</time>
      </trkpt>
      <trkpt lat="47.43471" lon="6.70618">
        <ele>420</ele>
        <time>2016-04-24T08:53:34Z</time>
      </trkpt>
      <trkpt lat="47.43465" lon="6.7061">
        <ele>420</ele>
        <time>2016-04-24T08:53:35Z</time>
      </trkpt>
      <trkpt lat="47.4346" lon="6.70603">
        <ele>419</ele>
        <time>2016-04-24T08:53:36Z</time>
      </trkpt>
      <trkpt lat="47.43457" lon="6.70598">
        <ele>419</ele>
        <time>2016-04-24T08:53:37Z</time>
      </trkpt>
      <trkpt lat="47.43457" lon="6.70587">
        <ele>419</ele>
        <time>2016-04-24T08:53:38Z</time>
      </trkpt>
      <trkpt lat="47.43455" lon="6.70581">
        <ele>417</ele>
        <time>2016-04-24T08:53:39Z</time>
      </trkpt>
      <trkpt lat="47.43451" lon="6.70574">
        <ele>417</ele>
        <time>2016-04-24T08:53:40Z</time>
      </trkpt>
      <trkpt lat="47.43449" lon="6.70566">
        <ele>417</ele>
        <time>2016-04-24T08:53:41Z</time>
      </trkpt>
      <trkpt lat="47.43447" lon="6.70558">
        <ele>417</ele>
        <time>2016-04-24T08:53:42Z</time>
      </trkpt>
      <trkpt lat="47.43448" lon="6.70545">
        <ele>417</ele>
        <time>2016-04-24T08:53:43Z</time>
      </trkpt>
      <trkpt lat="47.43446" lon="6.70535">
        <ele>416</ele>
        <time>2016-04-24T08:53:44Z</time>
      </trkpt>
      <trkpt lat="47.43444" lon="6.70525">
        <ele>416</ele>
        <time>2016-04-24T08:53:45Z</time>
      </trkpt>
      <trkpt lat="47.43442" lon="6.70518">
        <ele>416</ele>
        <time>2016-04-24T08:53:46Z</time>
      </trkpt>
      <trkpt lat="47.43442" lon="6.7051">
        <ele>416</ele>
        <time>2016-04-24T08:53:47Z</time>
      </trkpt>
      <trkpt lat="47.4344" lon="6.70503">
        <ele>415</ele>
        <time>2016-04-24T08:53:48Z</time>
      </trkpt>
      <trkpt lat="47.4344" lon="6.70496">
        <ele>414</ele>
        <time>2016-04-24T08:53:49Z</time>
      </trkpt>
      <trkpt lat="47.43437" lon="6.70487">
        <ele>414</ele>
        <time>2016-04-24T08:53:50Z</time>
      </trkpt>
      <trkpt lat="47.43437" lon="6.70481">
        <ele>414</ele>
        <time>2016-04-24T08:53:51Z</time>
      </trkpt>
      <trkpt lat="47.43438" lon="6.70474">
        <ele>414</ele>
        <time>2016-04-24T08:53:52Z</time>
      </trkpt>
      <trkpt lat="47.43438" lon="6.70466">
        <ele>414</ele>
        <time>2016-04-24T08:53:53Z</time>
      </trkpt>
      <trkpt lat="47.43438" lon="6.70459">
        <ele>414</ele>
        <time>2016-04-24T08:53:54Z</time>
      </trkpt>
      <trkpt lat="47.43438" lon="6.70451">
        <ele>414</ele>
        <time>2016-04-24T08:53:55Z</time>
      </trkpt>
      <trkpt lat="47.43436" lon="6.70443">
        <ele>413</ele>
        <time>2016-04-24T08:53:56Z</time>
      </trkpt>
      <trkpt lat="47.43436" lon="6.70435">
        <ele>413</ele>
        <time>2016-04-24T08:53:57Z</time>
      </trkpt>
      <trkpt lat="47.43434" lon="6.70426">
        <ele>412</ele>
        <time>2016-04-24T08:53:58Z</time>
      </trkpt>
      <trkpt lat="47.43431" lon="6.70418">
        <ele>411</ele>
        <time>2016-04-24T08:53:59Z</time>
      </trkpt>
      <trkpt lat="47.43429" lon="6.70411">
        <ele>412</ele>
        <time>2016-04-24T08:54:00Z</time>
      </trkpt>
      <trkpt lat="47.43426" lon="6.70404">
        <ele>412</ele>
        <time>2016-04-24T08:54:01Z</time>
      </trkpt>
      <trkpt lat="47.43423" lon="6.70398">
        <ele>413</ele>
        <time>2016-04-24T08:54:02Z</time>
      </trkpt>
      <trkpt lat="47.4342" lon="6.70391">
        <ele>414</ele>
        <time>2016-04-24T08:54:03Z</time>
      </trkpt>
      <trkpt lat="47.43418" lon="6.70387">
        <ele>414</ele>
        <time>2016-04-24T08:54:04Z</time>
      </trkpt>
      <trkpt lat="47.43415" lon="6.70382">
        <ele>408</ele>
        <time>2016-04-24T08:54:05Z</time>
      </trkpt>
      <trkpt lat="47.43413" lon="6.70378">
        <ele>408</ele>
        <time>2016-04-24T08:54:06Z</time>
      </trkpt>
      <trkpt lat="47.4341" lon="6.70373">
        <ele>408</ele>
        <time>2016-04-24T08:54:07Z</time>
      </trkpt>
      <trkpt lat="47.43408" lon="6.70368">
        <ele>408</ele>
        <time>2016-04-24T08:54:08Z</time>
      </trkpt>
      <trkpt lat="47.43405" lon="6.70363">
        <ele>408</ele>
        <time>2016-04-24T08:54:09Z</time>
      </trkpt>
      <trkpt lat="47.43402" lon="6.70358">
        <ele>408</ele>
        <time>2016-04-24T08:54:10Z</time>
      </trkpt>
      <trkpt lat="47.43399" lon="6.70353">
        <ele>408</ele>
        <time>2016-04-24T08:54:11Z</time>
      </trkpt>
      <trkpt lat="47.43395" lon="6.70347">
        <ele>408</ele>
        <time>2016-04-24T08:54:12Z</time>
      </trkpt>
      <trkpt lat="47.43393" lon="6.70341">
        <ele>408</ele>
        <time>2016-04-24T08:54:13Z</time>
      </trkpt>
      <trkpt lat="47.4339" lon="6.70336">
        <ele>408</ele>
        <time>2016-04-24T08:54:14Z</time>
      </trkpt>
      <trkpt lat="47.43388" lon="6.70333">
        <ele>407</ele>
        <time>2016-04-24T08:54:15Z</time>
      </trkpt>
      <trkpt lat="47.43385" lon="6.70328">
        <ele>407</ele>
        <time>2016-04-24T08:54:16Z</time>
      </trkpt>
      <trkpt lat="47.43382" lon="6.70323">
        <ele>407</ele>
        <time>2016-04-24T08:54:17Z</time>
      </trkpt>
      <trkpt lat="47.43378" lon="6.70318">
        <ele>407</ele>
        <time>2016-04-24T08:54:18Z</time>
      </trkpt>
      <trkpt lat="47.43375" lon="6.70313">
        <ele>406</ele>
        <time>2016-04-24T08:54:19Z</time>
      </trkpt>
      <trkpt lat="47.43373" lon="6.70309">
        <ele>406</ele>
        <time>2016-04-24T08:54:20Z</time>
      </trkpt>
      <trkpt lat="47.4337" lon="6.70303">
        <ele>406</ele>
        <time>2016-04-24T08:54:21Z</time>
      </trkpt>
      <trkpt lat="47.43368" lon="6.70297">
        <ele>406</ele>
        <time>2016-04-24T08:54:22Z</time>
      </trkpt>
      <trkpt lat="47.43366" lon="6.70292">
        <ele>406</ele>
        <time>2016-04-24T08:54:23Z</time>
      </trkpt>
      <trkpt lat="47.43363" lon="6.70288">
        <ele>406</ele>
        <time>2016-04-24T08:54:24Z</time>
      </trkpt>
      <trkpt lat="47.43361" lon="6.70283">
        <ele>405</ele>
        <time>2016-04-24T08:54:25Z</time>
      </trkpt>
      <trkpt lat="47.43359" lon="6.70279">
        <ele>405</ele>
        <time>2016-04-24T08:54:26Z</time>
      </trkpt>
      <trkpt lat="47.43355" lon="6.70273">
        <ele>405</ele>
        <time>2016-04-24T08:54:27Z</time>
      </trkpt>
      <trkpt lat="47.43352" lon="6.70268">
        <ele>404</ele>
        <time>2016-04-24T08:54:28Z</time>
      </trkpt>
      <trkpt lat="47.43349" lon="6.70263">
        <ele>403</ele>
        <time>2016-04-24T08:54:28.999Z</time>
      </trkpt>
      <trkpt lat="47.43344" lon="6.70257">
        <ele>402</ele>
        <time>2016-04-24T08:54:30Z</time>
      </trkpt>
      <trkpt lat="47.4334" lon="6.7025">
        <ele>400</ele>
        <time>2016-04-24T08:54:31Z</time>
      </trkpt>
      <trkpt lat="47.43336" lon="6.70245">
        <ele>401</ele>
        <time>2016-04-24T08:54:32Z</time>
      </trkpt>
      <trkpt lat="47.43332" lon="6.70238">
        <ele>398</ele>
        <time>2016-04-24T08:54:33Z</time>
      </trkpt>
      <trkpt lat="47.43327" lon="6.70233">
        <ele>398</ele>
        <time>2016-04-24T08:54:34Z</time>
      </trkpt>
      <trkpt lat="47.43323" lon="6.70228">
        <ele>398</ele>
        <time>2016-04-24T08:54:35Z</time>
      </trkpt>
      <trkpt lat="47.43319" lon="6.70223">
        <ele>398</ele>
        <time>2016-04-24T08:54:36Z</time>
      </trkpt>
      <trkpt lat="47.43314" lon="6.70218">
        <ele>398</ele>
        <time>2016-04-24T08:54:37Z</time>
      </trkpt>
      <trkpt lat="47.43311" lon="6.70214">
        <ele>398</ele>
        <time>2016-04-24T08:54:38Z</time>
      </trkpt>
      <trkpt lat="47.43307" lon="6.70209">
        <ele>398</ele>
        <time>2016-04-24T08:54:39Z</time>
      </trkpt>
      <trkpt lat="47.43303" lon="6.70203">
        <ele>398</ele>
        <time>2016-04-24T08:54:40Z</time>
      </trkpt>
      <trkpt lat="47.43299" lon="6.70197">
        <ele>397</ele>
        <time>2016-04-24T08:54:41Z</time>
      </trkpt>
      <trkpt lat="47.43296" lon="6.70192">
        <ele>397</ele>
        <time>2016-04-24T08:54:42Z</time>
      </trkpt>
      <trkpt lat="47.43293" lon="6.70188">
        <ele>397</ele>
        <time>2016-04-24T08:54:43Z</time>
      </trkpt>
      <trkpt lat="47.43289" lon="6.70182">
        <ele>397</ele>
        <time>2016-04-24T08:54:44Z</time>
      </trkpt>
      <trkpt lat="47.43285" lon="6.70178">
        <ele>396</ele>
        <time>2016-04-24T08:54:45Z</time>
      </trkpt>
      <trkpt lat="47.43282" lon="6.70173">
        <ele>396</ele>
        <time>2016-04-24T08:54:45.999Z</time>
      </trkpt>
      <trkpt lat="47.43279" lon="6.70169">
        <ele>395</ele>
        <time>2016-04-24T08:54:47Z</time>
      </trkpt>
      <trkpt lat="47.43276" lon="6.70166">
        <ele>398</ele>
        <time>2016-04-24T08:54:48Z</time>
      </trkpt>
      <trkpt lat="47.43273" lon="6.70161">
        <ele>397</ele>
        <time>2016-04-24T08:54:49Z</time>
      </trkpt>
      <trkpt lat="47.43271" lon="6.70155">
        <ele>397</ele>
        <time>2016-04-24T08:54:50Z</time>
      </trkpt>
      <trkpt lat="47.43268" lon="6.7015">
        <ele>397</ele>
        <time>2016-04-24T08:54:51Z</time>
      </trkpt>
      <trkpt lat="47.43264" lon="6.70145">
        <ele>398</ele>
        <time>2016-04-24T08:54:52Z</time>
      </trkpt>
      <trkpt lat="47.43262" lon="6.7014">
        <ele>398</ele>
        <time>2016-04-24T08:54:53Z</time>
      </trkpt>
      <trkpt lat="47.43259" lon="6.70136">
        <ele>398</ele>
        <time>2016-04-24T08:54:54Z</time>
      </trkpt>
      <trkpt lat="47.43256" lon="6.70131">
        <ele>398</ele>
        <time>2016-04-24T08:54:55Z</time>
      </trkpt>
      <trkpt lat="47.43253" lon="6.70127">
        <ele>399</ele>
        <time>2016-04-24T08:54:56Z</time>
      </trkpt>
      <trkpt lat="47.4325" lon="6.70122">
        <ele>399</ele>
        <time>2016-04-24T08:54:57Z</time>
      </trkpt>
      <trkpt lat="47.43248" lon="6.70117">
        <ele>392</ele>
        <time>2016-04-24T08:54:58Z</time>
      </trkpt>
      <trkpt lat="47.43245" lon="6.70113">
        <ele>392</ele>
        <time>2016-04-24T08:54:59Z</time>
      </trkpt>
      <trkpt lat="47.43242" lon="6.70109">
        <ele>393</ele>
        <time>2016-04-24T08:55:00Z</time>
      </trkpt>
      <trkpt lat="47.43239" lon="6.70105">
        <ele>393</ele>
        <time>2016-04-24T08:55:01Z</time>
      </trkpt>
      <trkpt lat="47.43236" lon="6.701">
        <ele>393</ele>
        <time>2016-04-24T08:55:02Z</time>
      </trkpt>
      <trkpt lat="47.43233" lon="6.70096">
        <ele>393</ele>
        <time>2016-04-24T08:55:03Z</time>
      </trkpt>
      <trkpt lat="47.43229" lon="6.70091">
        <ele>393</ele>
        <time>2016-04-24T08:55:04Z</time>
      </trkpt>
      <trkpt lat="47.43226" lon="6.70085">
        <ele>393</ele>
        <time>2016-04-24T08:55:05Z</time>
      </trkpt>
      <trkpt lat="47.43224" lon="6.70081">
        <ele>394</ele>
        <time>2016-04-24T08:55:06Z</time>
      </trkpt>
      <trkpt lat="47.43221" lon="6.70077">
        <ele>394</ele>
        <time>2016-04-24T08:55:07Z</time>
      </trkpt>
      <trkpt lat="47.43219" lon="6.70073">
        <ele>394</ele>
        <time>2016-04-24T08:55:08Z</time>
      </trkpt>
      <trkpt lat="47.43217" lon="6.70069">
        <ele>394</ele>
        <time>2016-04-24T08:55:09Z</time>
      </trkpt>
      <trkpt lat="47.43214" lon="6.70066">
        <ele>394</ele>
        <time>2016-04-24T08:55:10Z</time>
      </trkpt>
      <trkpt lat="47.43211" lon="6.70061">
        <ele>393</ele>
        <time>2016-04-24T08:55:11Z</time>
      </trkpt>
      <trkpt lat="47.43208" lon="6.70057">
        <ele>393</ele>
        <time>2016-04-24T08:55:12Z</time>
      </trkpt>
      <trkpt lat="47.43205" lon="6.70053">
        <ele>393</ele>
        <time>2016-04-24T08:55:13Z</time>
      </trkpt>
      <trkpt lat="47.43201" lon="6.7005">
        <ele>393</ele>
        <time>2016-04-24T08:55:14Z</time>
      </trkpt>
      <trkpt lat="47.43195" lon="6.70051">
        <ele>392</ele>
        <time>2016-04-24T08:55:15Z</time>
      </trkpt>
      <trkpt lat="47.43189" lon="6.70052">
        <ele>392</ele>
        <time>2016-04-24T08:55:16Z</time>
      </trkpt>
      <trkpt lat="47.43183" lon="6.70052">
        <ele>391</ele>
        <time>2016-04-24T08:55:17Z</time>
      </trkpt>
      <trkpt lat="47.43177" lon="6.70055">
        <ele>391</ele>
        <time>2016-04-24T08:55:18Z</time>
      </trkpt>
      <trkpt lat="47.43173" lon="6.70056">
        <ele>390</ele>
        <time>2016-04-24T08:55:19Z</time>
      </trkpt>
      <trkpt lat="47.43167" lon="6.70055">
        <ele>390</ele>
        <time>2016-04-24T08:55:20Z</time>
      </trkpt>
      <trkpt lat="47.43163" lon="6.70053">
        <ele>387</ele>
        <time>2016-04-24T08:55:21Z</time>
      </trkpt>
      <trkpt lat="47.43159" lon="6.7005">
        <ele>387</ele>
        <time>2016-04-24T08:55:22Z</time>
      </trkpt>
      <trkpt lat="47.43155" lon="6.70046">
        <ele>387</ele>
        <time>2016-04-24T08:55:23Z</time>
      </trkpt>
      <trkpt lat="47.43151" lon="6.70041">
        <ele>388</ele>
        <time>2016-04-24T08:55:24Z</time>
      </trkpt>
      <trkpt lat="47.43147" lon="6.70036">
        <ele>388</ele>
        <time>2016-04-24T08:55:25Z</time>
      </trkpt>
      <trkpt lat="47.43144" lon="6.70032">
        <ele>388</ele>
        <time>2016-04-24T08:55:26Z</time>
      </trkpt>
      <trkpt lat="47.4314" lon="6.70027">
        <ele>388</ele>
        <time>2016-04-24T08:55:27Z</time>
      </trkpt>
      <trkpt lat="47.43135" lon="6.70023">
        <ele>388</ele>
        <time>2016-04-24T08:55:28Z</time>
      </trkpt>
      <trkpt lat="47.43131" lon="6.70018">
        <ele>388</ele>
        <time>2016-04-24T08:55:29Z</time>
      </trkpt>
      <trkpt lat="47.43128" lon="6.70014">
        <ele>388</ele>
        <time>2016-04-24T08:55:30Z</time>
      </trkpt>
      <trkpt lat="47.43124" lon="6.70008">
        <ele>387</ele>
        <time>2016-04-24T08:55:31Z</time>
      </trkpt>
      <trkpt lat="47.4312" lon="6.70003">
        <ele>387</ele>
        <time>2016-04-24T08:55:32Z</time>
      </trkpt>
      <trkpt lat="47.43116" lon="6.69997">
        <ele>389</ele>
        <time>2016-04-24T08:55:33Z</time>
      </trkpt>
      <trkpt lat="47.43112" lon="6.69993">
        <ele>388</ele>
        <time>2016-04-24T08:55:34Z</time>
      </trkpt>
      <trkpt lat="47.43108" lon="6.69987">
        <ele>388</ele>
        <time>2016-04-24T08:55:35Z</time>
      </trkpt>
      <trkpt lat="47.43105" lon="6.69983">
        <ele>388</ele>
        <time>2016-04-24T08:55:36Z</time>
      </trkpt>
      <trkpt lat="47.43102" lon="6.69977">
        <ele>388</ele>
        <time>2016-04-24T08:55:37Z</time>
      </trkpt>
      <trkpt lat="47.43098" lon="6.69972">
        <ele>389</ele>
        <time>2016-04-24T08:55:38Z</time>
      </trkpt>
      <trkpt lat="47.43095" lon="6.69967">
        <ele>389</ele>
        <time>2016-04-24T08:55:39Z</time>
      </trkpt>
      <trkpt lat="47.43092" lon="6.69961">
        <ele>389</ele>
        <time>2016-04-24T08:55:40Z</time>
      </trkpt>
      <trkpt lat="47.43089" lon="6.69956">
        <ele>389</ele>
        <time>2016-04-24T08:55:41Z</time>
      </trkpt>
      <trkpt lat="47.43086" lon="6.6995">
        <ele>389</ele>
        <time>2016-04-24T08:55:42Z</time>
      </trkpt>
      <trkpt lat="47.43084" lon="6.69945">
        <ele>389</ele>
        <time>2016-04-24T08:55:43Z</time>
      </trkpt>
      <trkpt lat="47.43081" lon="6.69939">
        <ele>388</ele>
        <time>2016-04-24T08:55:44Z</time>
      </trkpt>
      <trkpt lat="47.43078" lon="6.69933">
        <ele>388</ele>
        <time>2016-04-24T08:55:45Z</time>
      </trkpt>
      <trkpt lat="47.43077" lon="6.69928">
        <ele>388</ele>
        <time>2016-04-24T08:55:46Z</time>
      </trkpt>
      <trkpt lat="47.43074" lon="6.69922">
        <ele>389</ele>
        <time>2016-04-24T08:55:47Z</time>
      </trkpt>
      <trkpt lat="47.43072" lon="6.69917">
        <ele>389</ele>
        <time>2016-04-24T08:55:48Z</time>
      </trkpt>
      <trkpt lat="47.4307" lon="6.69913">
        <ele>389</ele>
        <time>2016-04-24T08:55:49Z</time>
      </trkpt>
      <trkpt lat="47.43067" lon="6.69907">
        <ele>389</ele>
        <time>2016-04-24T08:55:50Z</time>
      </trkpt>
      <trkpt lat="47.43065" lon="6.69901">
        <ele>390</ele>
        <time>2016-04-24T08:55:51Z</time>
      </trkpt>
      <trkpt lat="47.43062" lon="6.69894">
        <ele>390</ele>
        <time>2016-04-24T08:55:52Z</time>
      </trkpt>
      <trkpt lat="47.4306" lon="6.69889">
        <ele>390</ele>
        <time>2016-04-24T08:55:53Z</time>
      </trkpt>
      <trkpt lat="47.43058" lon="6.69883">
        <ele>390</ele>
        <time>2016-04-24T08:55:53.999Z</time>
      </trkpt>
      <trkpt lat="47.43056" lon="6.69876">
        <ele>390</ele>
        <time>2016-04-24T08:55:55Z</time>
      </trkpt>
      <trkpt lat="47.43053" lon="6.6987">
        <ele>390</ele>
        <time>2016-04-24T08:55:56Z</time>
      </trkpt>
      <trkpt lat="47.43052" lon="6.69866">
        <ele>390</ele>
        <time>2016-04-24T08:55:57Z</time>
      </trkpt>
      <trkpt lat="47.4305" lon="6.69861">
        <ele>390</ele>
        <time>2016-04-24T08:55:58Z</time>
      </trkpt>
      <trkpt lat="47.43048" lon="6.69856">
        <ele>390</ele>
        <time>2016-04-24T08:55:59Z</time>
      </trkpt>
      <trkpt lat="47.43047" lon="6.69852">
        <ele>391</ele>
        <time>2016-04-24T08:56:00Z</time>
      </trkpt>
      <trkpt lat="47.43046" lon="6.69848">
        <ele>391</ele>
        <time>2016-04-24T08:56:01Z</time>
      </trkpt>
      <trkpt lat="47.43045" lon="6.69844">
        <ele>391</ele>
        <time>2016-04-24T08:56:02Z</time>
      </trkpt>
      <trkpt lat="47.43044" lon="6.6984">
        <ele>391</ele>
        <time>2016-04-24T08:56:03Z</time>
      </trkpt>
      <trkpt lat="47.43042" lon="6.69836">
        <ele>391</ele>
        <time>2016-04-24T08:56:04Z</time>
      </trkpt>
      <trkpt lat="47.43041" lon="6.69832">
        <ele>393</ele>
        <time>2016-04-24T08:56:05Z</time>
      </trkpt>
      <trkpt lat="47.4304" lon="6.69828">
        <ele>393</ele>
        <time>2016-04-24T08:56:06Z</time>
      </trkpt>
      <trkpt lat="47.43039" lon="6.69824">
        <ele>393</ele>
        <time>2016-04-24T08:56:07Z</time>
      </trkpt>
      <trkpt lat="47.43038" lon="6.6982">
        <ele>393</ele>
        <time>2016-04-24T08:56:08Z</time>
      </trkpt>
      <trkpt lat="47.43037" lon="6.69816">
        <ele>393</ele>
        <time>2016-04-24T08:56:09Z</time>
      </trkpt>
      <trkpt lat="47.43036" lon="6.69811">
        <ele>393</ele>
        <time>2016-04-24T08:56:10Z</time>
      </trkpt>
      <trkpt lat="47.43036" lon="6.69806">
        <ele>393</ele>
        <time>2016-04-24T08:56:11Z</time>
      </trkpt>
      <trkpt lat="47.43035" lon="6.69801">
        <ele>393</ele>
        <time>2016-04-24T08:56:12Z</time>
      </trkpt>
      <trkpt lat="47.43034" lon="6.69795">
        <ele>393</ele>
        <time>2016-04-24T08:56:13Z</time>
      </trkpt>
      <trkpt lat="47.43033" lon="6.6979">
        <ele>393</ele>
        <time>2016-04-24T08:56:14Z</time>
      </trkpt>
      <trkpt lat="47.43032" lon="6.69784">
        <ele>393</ele>
        <time>2016-04-24T08:56:15Z</time>
      </trkpt>
      <trkpt lat="47.43031" lon="6.69779">
        <ele>394</ele>
        <time>2016-04-24T08:56:16Z</time>
      </trkpt>
      <trkpt lat="47.4303" lon="6.69773">
        <ele>394</ele>
        <time>2016-04-24T08:56:17Z</time>
      </trkpt>
      <trkpt lat="47.43029" lon="6.69767">
        <ele>394</ele>
        <time>2016-04-24T08:56:18Z</time>
      </trkpt>
      <trkpt lat="47.43028" lon="6.69756">
        <ele>394</ele>
        <time>2016-04-24T08:56:19Z</time>
      </trkpt>
      <trkpt lat="47.43026" lon="6.69746">
        <ele>395</ele>
        <time>2016-04-24T08:56:20Z</time>
      </trkpt>
      <trkpt lat="47.43025" lon="6.69738">
        <ele>395</ele>
        <time>2016-04-24T08:56:21Z</time>
      </trkpt>
      <trkpt lat="47.43024" lon="6.69731">
        <ele>395</ele>
        <time>2016-04-24T08:56:22Z</time>
      </trkpt>
      <trkpt lat="47.43024" lon="6.69725">
        <ele>395</ele>
        <time>2016-04-24T08:56:23Z</time>
      </trkpt>
      <trkpt lat="47.43025" lon="6.69717">
        <ele>394</ele>
        <time>2016-04-24T08:56:24Z</time>
      </trkpt>
      <trkpt lat="47.43026" lon="6.69709">
        <ele>394</ele>
        <time>2016-04-24T08:56:25Z</time>
      </trkpt>
      <trkpt lat="47.43026" lon="6.697">
        <ele>394</ele>
        <time>2016-04-24T08:56:26Z</time>
      </trkpt>
      <trkpt lat="47.43027" lon="6.69691">
        <ele>394</ele>
        <time>2016-04-24T08:56:27Z</time>
      </trkpt>
      <trkpt lat="47.43029" lon="6.69684">
        <ele>394</ele>
        <time>2016-04-24T08:56:28Z</time>
      </trkpt>
      <trkpt lat="47.4303" lon="6.69677">
        <ele>394</ele>
        <time>2016-04-24T08:56:29Z</time>
      </trkpt>
      <trkpt lat="47.43032" lon="6.6967">
        <ele>394</ele>
        <time>2016-04-24T08:56:30Z</time>
      </trkpt>
      <trkpt lat="47.43032" lon="6.69663">
        <ele>395</ele>
        <time>2016-04-24T08:56:31Z</time>
      </trkpt>
      <trkpt lat="47.43033" lon="6.69656">
        <ele>395</ele>
        <time>2016-04-24T08:56:32Z</time>
      </trkpt>
      <trkpt lat="47.43034" lon="6.69651">
        <ele>395</ele>
        <time>2016-04-24T08:56:33Z</time>
      </trkpt>
      <trkpt lat="47.43037" lon="6.69644">
        <ele>394</ele>
        <time>2016-04-24T08:56:34Z</time>
      </trkpt>
      <trkpt lat="47.43038" lon="6.69637">
        <ele>394</ele>
        <time>2016-04-24T08:56:35Z</time>
      </trkpt>
      <trkpt lat="47.43041" lon="6.69631">
        <ele>394</ele>
        <time>2016-04-24T08:56:36Z</time>
      </trkpt>
      <trkpt lat="47.43043" lon="6.69624">
        <ele>394</ele>
        <time>2016-04-24T08:56:37Z</time>
      </trkpt>
      <trkpt lat="47.43045" lon="6.69617">
        <ele>394</ele>
        <time>2016-04-24T08:56:38Z</time>
      </trkpt>
      <trkpt lat="47.43048" lon="6.6961">
        <ele>393</ele>
        <time>2016-04-24T08:56:39Z</time>
      </trkpt>
      <trkpt lat="47.43051" lon="6.69603">
        <ele>393</ele>
        <time>2016-04-24T08:56:40Z</time>
      </trkpt>
      <trkpt lat="47.43054" lon="6.69598">
        <ele>393</ele>
        <time>2016-04-24T08:56:41Z</time>
      </trkpt>
      <trkpt lat="47.43057" lon="6.69593">
        <ele>392</ele>
        <time>2016-04-24T08:56:42Z</time>
      </trkpt>
      <trkpt lat="47.43056" lon="6.69588">
        <ele>392</ele>
        <time>2016-04-24T08:56:43Z</time>
      </trkpt>
      <trkpt lat="47.43058" lon="6.69584">
        <ele>392</ele>
        <time>2016-04-24T08:56:44Z</time>
      </trkpt>
      <trkpt lat="47.43059" lon="6.69578">
        <ele>392</ele>
        <time>2016-04-24T08:56:45Z</time>
      </trkpt>
      <trkpt lat="47.4306" lon="6.69574">
        <ele>392</ele>
        <time>2016-04-24T08:56:46Z</time>
      </trkpt>
      <trkpt lat="47.43098" lon="6.69517">
        <ele>387</ele>
        <time>2016-04-24T08:56:56Z</time>
      </trkpt>
      <trkpt lat="47.43105" lon="6.69508">
        <ele>387</ele>
        <time>2016-04-24T08:56:57Z</time>
      </trkpt>
      <trkpt lat="47.43109" lon="6.695">
        <ele>383</ele>
        <time>2016-04-24T08:56:58Z</time>
      </trkpt>
      <trkpt lat="47.43114" lon="6.69492">
        <ele>383</ele>
        <time>2016-04-24T08:56:59Z</time>
      </trkpt>
      <trkpt lat="47.43119" lon="6.69487">
        <ele>383</ele>
        <time>2016-04-24T08:57:00Z</time>
      </trkpt>
      <trkpt lat="47.43124" lon="6.69481">
        <ele>383</ele>
        <time>2016-04-24T08:57:01Z</time>
      </trkpt>
      <trkpt lat="47.43127" lon="6.69475">
        <ele>383</ele>
        <time>2016-04-24T08:57:02Z</time>
      </trkpt>
      <trkpt lat="47.43131" lon="6.69468">
        <ele>383</ele>
        <time>2016-04-24T08:57:03Z</time>
      </trkpt>
      <trkpt lat="47.43134" lon="6.69464">
        <ele>383</ele>
        <time>2016-04-24T08:57:04Z</time>
      </trkpt>
      <trkpt lat="47.43138" lon="6.69455">
        <ele>382</ele>
        <time>2016-04-24T08:57:05Z</time>
      </trkpt>
      <trkpt lat="47.4314" lon="6.69449">
        <ele>382</ele>
        <time>2016-04-24T08:57:06Z</time>
      </trkpt>
      <trkpt lat="47.43142" lon="6.69441">
        <ele>381</ele>
        <time>2016-04-24T08:57:07Z</time>
      </trkpt>
      <trkpt lat="47.43144" lon="6.69436">
        <ele>381</ele>
        <time>2016-04-24T08:57:08Z</time>
      </trkpt>
      <trkpt lat="47.43145" lon="6.69431">
        <ele>381</ele>
        <time>2016-04-24T08:57:09Z</time>
      </trkpt>
      <trkpt lat="47.43147" lon="6.69425">
        <ele>380</ele>
        <time>2016-04-24T08:57:10Z</time>
      </trkpt>
      <trkpt lat="47.43149" lon="6.69419">
        <ele>380</ele>
        <time>2016-04-24T08:57:11Z</time>
      </trkpt>
      <trkpt lat="47.43151" lon="6.69412">
        <ele>377</ele>
        <time>2016-04-24T08:57:12Z</time>
      </trkpt>
      <trkpt lat="47.43153" lon="6.69406">
        <ele>376</ele>
        <time>2016-04-24T08:57:13Z</time>
      </trkpt>
      <trkpt lat="47.43154" lon="6.694">
        <ele>376</ele>
        <time>2016-04-24T08:57:14Z</time>
      </trkpt>
      <trkpt lat="47.43156" lon="6.69391">
        <ele>376</ele>
        <time>2016-04-24T08:57:15Z</time>
      </trkpt>
      <trkpt lat="47.43156" lon="6.69382">
        <ele>375</ele>
        <time>2016-04-24T08:57:16Z</time>
      </trkpt>
      <trkpt lat="47.43156" lon="6.69375">
        <ele>375</ele>
        <time>2016-04-24T08:57:17Z</time>
      </trkpt>
      <trkpt lat="47.43158" lon="6.69369">
        <ele>375</ele>
        <time>2016-04-24T08:57:18Z</time>
      </trkpt>
      <trkpt lat="47.43163" lon="6.69369">
        <ele>375</ele>
        <time>2016-04-24T08:57:19Z</time>
      </trkpt>
      <trkpt lat="47.43166" lon="6.69366">
        <ele>375</ele>
        <time>2016-04-24T08:57:20Z</time>
      </trkpt>
      <trkpt lat="47.4317" lon="6.69365">
        <ele>381</ele>
        <time>2016-04-24T08:57:21Z</time>
      </trkpt>
      <trkpt lat="47.43173" lon="6.69364">
        <ele>381</ele>
        <time>2016-04-24T08:57:22Z</time>
      </trkpt>
      <trkpt lat="47.43177" lon="6.69365">
        <ele>381</ele>
        <time>2016-04-24T08:57:23Z</time>
      </trkpt>
      <trkpt lat="47.4318" lon="6.69364">
        <ele>381</ele>
        <time>2016-04-24T08:57:24Z</time>
      </trkpt>
      <trkpt lat="47.43183" lon="6.69364">
        <ele>381</ele>
        <time>2016-04-24T08:57:25Z</time>
      </trkpt>
      <trkpt lat="47.43186" lon="6.69364">
        <ele>382</ele>
        <time>2016-04-24T08:57:26Z</time>
      </trkpt>
      <trkpt lat="47.43189" lon="6.69365">
        <ele>382</ele>
        <time>2016-04-24T08:57:27Z</time>
      </trkpt>
      <trkpt lat="47.43192" lon="6.69365">
        <ele>382</ele>
        <time>2016-04-24T08:57:28Z</time>
      </trkpt>
      <trkpt lat="47.43195" lon="6.69365">
        <ele>382</ele>
        <time>2016-04-24T08:57:29Z</time>
      </trkpt>
      <trkpt lat="47.43197" lon="6.69364">
        <ele>382</ele>
        <time>2016-04-24T08:57:30Z</time>
      </trkpt>
      <trkpt lat="47.432" lon="6.69364">
        <ele>383</ele>
        <time>2016-04-24T08:57:31Z</time>
      </trkpt>
      <trkpt lat="47.43203" lon="6.69363">
        <ele>383</ele>
        <time>2016-04-24T08:57:32Z</time>
      </trkpt>
      <trkpt lat="47.43206" lon="6.69362">
        <ele>383</ele>
        <time>2016-04-24T08:57:33Z</time>
      </trkpt>
      <trkpt lat="47.43209" lon="6.69362">
        <ele>383</ele>
        <time>2016-04-24T08:57:34Z</time>
      </trkpt>
      <trkpt lat="47.43212" lon="6.69361">
        <ele>384</ele>
        <time>2016-04-24T08:57:35Z</time>
      </trkpt>
      <trkpt lat="47.43214" lon="6.6936">
        <ele>384</ele>
        <time>2016-04-24T08:57:36Z</time>
      </trkpt>
      <trkpt lat="47.43216" lon="6.69359">
        <ele>384</ele>
        <time>2016-04-24T08:57:37Z</time>
      </trkpt>
      <trkpt lat="47.43219" lon="6.69357">
        <ele>384</ele>
        <time>2016-04-24T08:57:39Z</time>
      </trkpt>
      <trkpt lat="47.43221" lon="6.69357">
        <ele>384</ele>
        <time>2016-04-24T08:57:40Z</time>
      </trkpt>
      <trkpt lat="47.43225" lon="6.69355">
        <ele>385</ele>
        <time>2016-04-24T08:57:42Z</time>
      </trkpt>
      <trkpt lat="47.43227" lon="6.69354">
        <ele>385</ele>
        <time>2016-04-24T08:57:43Z</time>
      </trkpt>
      <trkpt lat="47.4323" lon="6.69353">
        <ele>385</ele>
        <time>2016-04-24T08:57:44Z</time>
      </trkpt>
      <trkpt lat="47.43232" lon="6.69352">
        <ele>385</ele>
        <time>2016-04-24T08:57:45Z</time>
      </trkpt>
      <trkpt lat="47.43234" lon="6.69351">
        <ele>386</ele>
        <time>2016-04-24T08:57:46Z</time>
      </trkpt>
      <trkpt lat="47.43236" lon="6.6935">
        <ele>386</ele>
        <time>2016-04-24T08:57:47Z</time>
      </trkpt>
      <trkpt lat="47.4324" lon="6.69348">
        <ele>386</ele>
        <time>2016-04-24T08:57:49Z</time>
      </trkpt>
      <trkpt lat="47.43242" lon="6.69348">
        <ele>386</ele>
        <time>2016-04-24T08:57:50Z</time>
      </trkpt>
      <trkpt lat="47.43247" lon="6.69348">
        <ele>386</ele>
        <time>2016-04-24T08:57:52Z</time>
      </trkpt>
      <trkpt lat="47.43249" lon="6.69348">
        <ele>386</ele>
        <time>2016-04-24T08:57:53Z</time>
      </trkpt>
      <trkpt lat="47.43253" lon="6.69346">
        <ele>391</ele>
        <time>2016-04-24T08:57:55Z</time>
      </trkpt>
      <trkpt lat="47.43255" lon="6.69344">
        <ele>391</ele>
        <time>2016-04-24T08:57:56Z</time>
      </trkpt>
      <trkpt lat="47.43257" lon="6.69342">
        <ele>390</ele>
        <time>2016-04-24T08:57:57Z</time>
      </trkpt>
      <trkpt lat="47.43258" lon="6.69339">
        <ele>390</ele>
        <time>2016-04-24T08:57:58Z</time>
      </trkpt>
      <trkpt lat="47.43262" lon="6.69337">
        <ele>391</ele>
        <time>2016-04-24T08:58:00Z</time>
      </trkpt>
      <trkpt lat="47.43264" lon="6.69336">
        <ele>391</ele>
        <time>2016-04-24T08:58:01Z</time>
      </trkpt>
      <trkpt lat="47.43268" lon="6.69336">
        <ele>392</ele>
        <time>2016-04-24T08:58:04Z</time>
      </trkpt>
      <trkpt lat="47.43269" lon="6.69336">
        <ele>392</ele>
        <time>2016-04-24T08:58:05Z</time>
      </trkpt>
      <trkpt lat="47.43273" lon="6.69336">
        <ele>392</ele>
        <time>2016-04-24T08:58:08Z</time>
      </trkpt>
      <trkpt lat="47.43274" lon="6.69336">
        <ele>392</ele>
        <time>2016-04-24T08:58:09Z</time>
      </trkpt>
      <trkpt lat="47.43277" lon="6.69336">
        <ele>393</ele>
        <time>2016-04-24T08:58:11Z</time>
      </trkpt>
      <trkpt lat="47.4328" lon="6.69336">
        <ele>393</ele>
        <time>2016-04-24T08:58:12Z</time>
      </trkpt>
      <trkpt lat="47.43283" lon="6.69338">
        <ele>393</ele>
        <time>2016-04-24T08:58:14Z</time>
      </trkpt>
      <trkpt lat="47.43285" lon="6.69339">
        <ele>393</ele>
        <time>2016-04-24T08:58:15Z</time>
      </trkpt>
      <trkpt lat="47.43288" lon="6.69341">
        <ele>394</ele>
        <time>2016-04-24T08:58:17Z</time>
      </trkpt>
      <trkpt lat="47.43289" lon="6.6934">
        <ele>394</ele>
        <time>2016-04-24T08:58:18Z</time>
      </trkpt>
      <trkpt lat="47.43292" lon="6.6934">
        <ele>394</ele>
        <time>2016-04-24T08:58:20Z</time>
      </trkpt>
      <trkpt lat="47.43295" lon="6.6934">
        <ele>394</ele>
        <time>2016-04-24T08:58:21Z</time>
      </trkpt>
      <trkpt lat="47.43298" lon="6.6934">
        <ele>394</ele>
        <time>2016-04-24T08:58:23Z</time>
      </trkpt>
      <trkpt lat="47.433" lon="6.6934">
        <ele>394</ele>
        <time>2016-04-24T08:58:24Z</time>
      </trkpt>
      <trkpt lat="47.43303" lon="6.6934">
        <ele>395</ele>
        <time>2016-04-24T08:58:26Z</time>
      </trkpt>
      <trkpt lat="47.43304" lon="6.6934">
        <ele>395</ele>
        <time>2016-04-24T08:58:27Z</time>
      </trkpt>
      <trkpt lat="47.43308" lon="6.69342">
        <ele>395</ele>
        <time>2016-04-24T08:58:30Z</time>
      </trkpt>
      <trkpt lat="47.43309" lon="6.69343">
        <ele>395</ele>
        <time>2016-04-24T08:58:31Z</time>
      </trkpt>
      <trkpt lat="47.43313" lon="6.69344">
        <ele>395</ele>
        <time>2016-04-24T08:58:33Z</time>
      </trkpt>
      <trkpt lat="47.43314" lon="6.69344">
        <ele>395</ele>
        <time>2016-04-24T08:58:34Z</time>
      </trkpt>
      <trkpt lat="47.43318" lon="6.69345">
        <ele>395</ele>
        <time>2016-04-24T08:58:36Z</time>
      </trkpt>
      <trkpt lat="47.4332" lon="6.69346">
        <ele>395</ele>
        <time>2016-04-24T08:58:37Z</time>
      </trkpt>
      <trkpt lat="47.43322" lon="6.69347">
        <ele>396</ele>
        <time>2016-04-24T08:58:38Z</time>
      </trkpt>
      <trkpt lat="47.43325" lon="6.69348">
        <ele>396</ele>
        <time>2016-04-24T08:58:39Z</time>
      </trkpt>
      <trkpt lat="47.43329" lon="6.6935">
        <ele>396</ele>
        <time>2016-04-24T08:58:41Z</time>
      </trkpt>
      <trkpt lat="47.4333" lon="6.69351">
        <ele>396</ele>
        <time>2016-04-24T08:58:42Z</time>
      </trkpt>
      <trkpt lat="47.43334" lon="6.69353">
        <ele>398</ele>
        <time>2016-04-24T08:58:44Z</time>
      </trkpt>
      <trkpt lat="47.43336" lon="6.69354">
        <ele>398</ele>
        <time>2016-04-24T08:58:45Z</time>
      </trkpt>
      <trkpt lat="47.43339" lon="6.69354">
        <ele>398</ele>
        <time>2016-04-24T08:58:47Z</time>
      </trkpt>
      <trkpt lat="47.4334" lon="6.69355">
        <ele>398</ele>
        <time>2016-04-24T08:58:48Z</time>
      </trkpt>
      <trkpt lat="47.43344" lon="6.69357">
        <ele>399</ele>
        <time>2016-04-24T08:58:51Z</time>
      </trkpt>
      <trkpt lat="47.43345" lon="6.69357">
        <ele>399</ele>
        <time>2016-04-24T08:58:52Z</time>
      </trkpt>
      <trkpt lat="47.43347" lon="6.6936">
        <ele>399</ele>
        <time>2016-04-24T08:58:54Z</time>
      </trkpt>
      <trkpt lat="47.43349" lon="6.69361">
        <ele>399</ele>
        <time>2016-04-24T08:58:55Z</time>
      </trkpt>
      <trkpt lat="47.43352" lon="6.69363">
        <ele>399</ele>
        <time>2016-04-24T08:58:57Z</time>
      </trkpt>
      <trkpt lat="47.43354" lon="6.69365">
        <ele>399</ele>
        <time>2016-04-24T08:58:58Z</time>
      </trkpt>
      <trkpt lat="47.43356" lon="6.69366">
        <ele>399</ele>
        <time>2016-04-24T08:58:59Z</time>
      </trkpt>
      <trkpt lat="47.43358" lon="6.69367">
        <ele>399</ele>
        <time>2016-04-24T08:59:00Z</time>
      </trkpt>
      <trkpt lat="47.43361" lon="6.69367">
        <ele>399</ele>
        <time>2016-04-24T08:59:01Z</time>
      </trkpt>
      <trkpt lat="47.43363" lon="6.69368">
        <ele>399</ele>
        <time>2016-04-24T08:59:02Z</time>
      </trkpt>
      <trkpt lat="47.43366" lon="6.69369">
        <ele>399</ele>
        <time>2016-04-24T08:59:03Z</time>
      </trkpt>
      <trkpt lat="47.43368" lon="6.6937">
        <ele>400</ele>
        <time>2016-04-24T08:59:04Z</time>
      </trkpt>
      <trkpt lat="47.43371" lon="6.69369">
        <ele>400</ele>
        <time>2016-04-24T08:59:05Z</time>
      </trkpt>
      <trkpt lat="47.43373" lon="6.69369">
        <ele>400</ele>
        <time>2016-04-24T08:59:06Z</time>
      </trkpt>
      <trkpt lat="47.43377" lon="6.6937">
        <ele>400</ele>
        <time>2016-04-24T08:59:08Z</time>
      </trkpt>
      <trkpt lat="47.43379" lon="6.6937">
        <ele>400</ele>
        <time>2016-04-24T08:59:09Z</time>
      </trkpt>
      <trkpt lat="47.43382" lon="6.6937">
        <ele>400</ele>
        <time>2016-04-24T08:59:11Z</time>
      </trkpt>
      <trkpt lat="47.43384" lon="6.69369">
        <ele>400</ele>
        <time>2016-04-24T08:59:12Z</time>
      </trkpt>
      <trkpt lat="47.43387" lon="6.69368">
        <ele>400</ele>
        <time>2016-04-24T08:59:14Z</time>
      </trkpt>
      <trkpt lat="47.43389" lon="6.69367">
        <ele>400</ele>
        <time>2016-04-24T08:59:15Z</time>
      </trkpt>
      <trkpt lat="47.43392" lon="6.69365">
        <ele>400</ele>
        <time>2016-04-24T08:59:17Z</time>
      </trkpt>
      <trkpt lat="47.43394" lon="6.69364">
        <ele>400</ele>
        <time>2016-04-24T08:59:18Z</time>
      </trkpt>
      <trkpt lat="47.43398" lon="6.69363">
        <ele>400</ele>
        <time>2016-04-24T08:59:19Z</time>
      </trkpt>
      <trkpt lat="47.43401" lon="6.69362">
        <ele>400</ele>
        <time>2016-04-24T08:59:20Z</time>
      </trkpt>
      <trkpt lat="47.43405" lon="6.6936">
        <ele>400</ele>
        <time>2016-04-24T08:59:21Z</time>
      </trkpt>
      <trkpt lat="47.43408" lon="6.69359">
        <ele>400</ele>
        <time>2016-04-24T08:59:22Z</time>
      </trkpt>
      <trkpt lat="47.43411" lon="6.69357">
        <ele>400</ele>
        <time>2016-04-24T08:59:23Z</time>
      </trkpt>
      <trkpt lat="47.43414" lon="6.69357">
        <ele>400</ele>
        <time>2016-04-24T08:59:24Z</time>
      </trkpt>
      <trkpt lat="47.43417" lon="6.69357">
        <ele>400</ele>
        <time>2016-04-24T08:59:25Z</time>
      </trkpt>
      <trkpt lat="47.43419" lon="6.69358">
        <ele>401</ele>
        <time>2016-04-24T08:59:26Z</time>
      </trkpt>
      <trkpt lat="47.43423" lon="6.69361">
        <ele>402</ele>
        <time>2016-04-24T08:59:28Z</time>
      </trkpt>
      <trkpt lat="47.43425" lon="6.69363">
        <ele>402</ele>
        <time>2016-04-24T08:59:29Z</time>
      </trkpt>
      <trkpt lat="47.43428" lon="6.69366">
        <ele>402</ele>
        <time>2016-04-24T08:59:30Z</time>
      </trkpt>
      <trkpt lat="47.43431" lon="6.69369">
        <ele>402</ele>
        <time>2016-04-24T08:59:31Z</time>
      </trkpt>
      <trkpt lat="47.43433" lon="6.69371">
        <ele>402</ele>
        <time>2016-04-24T08:59:32Z</time>
      </trkpt>
      <trkpt lat="47.43436" lon="6.69373">
        <ele>402</ele>
        <time>2016-04-24T08:59:33Z</time>
      </trkpt>
      <trkpt lat="47.43438" lon="6.69377">
        <ele>402</ele>
        <time>2016-04-24T08:59:35Z</time>
      </trkpt>
      <trkpt lat="47.4344" lon="6.69378">
        <ele>403</ele>
        <time>2016-04-24T08:59:36Z</time>
      </trkpt>
      <trkpt lat="47.43443" lon="6.69382">
        <ele>403</ele>
        <time>2016-04-24T08:59:38Z</time>
      </trkpt>
      <trkpt lat="47.43445" lon="6.69384">
        <ele>403</ele>
        <time>2016-04-24T08:59:39Z</time>
      </trkpt>
      <trkpt lat="47.43447" lon="6.69386">
        <ele>403</ele>
        <time>2016-04-24T08:59:40Z</time>
      </trkpt>
      <trkpt lat="47.43449" lon="6.69388">
        <ele>403</ele>
        <time>2016-04-24T08:59:41Z</time>
      </trkpt>
      <trkpt lat="47.43453" lon="6.69391">
        <ele>403</ele>
        <time>2016-04-24T08:59:45Z</time>
      </trkpt>
      <trkpt lat="47.43454" lon="6.69392">
        <ele>403</ele>
        <time>2016-04-24T08:59:46Z</time>
      </trkpt>
      <trkpt lat="47.43457" lon="6.69395">
        <ele>403</ele>
        <time>2016-04-24T08:59:49Z</time>
      </trkpt>
      <trkpt lat="47.43458" lon="6.69396">
        <ele>403</ele>
        <time>2016-04-24T08:59:50Z</time>
      </trkpt>
      <trkpt lat="47.43461" lon="6.69401">
        <ele>403</ele>
        <time>2016-04-24T08:59:53Z</time>
      </trkpt>
      <trkpt lat="47.43462" lon="6.69402">
        <ele>403</ele>
        <time>2016-04-24T08:59:54Z</time>
      </trkpt>
      <trkpt lat="47.43465" lon="6.69407">
        <ele>404</ele>
        <time>2016-04-24T08:59:57Z</time>
      </trkpt>
      <trkpt lat="47.43466" lon="6.69408">
        <ele>404</ele>
        <time>2016-04-24T08:59:58Z</time>
      </trkpt>
      <trkpt lat="47.43469" lon="6.69411">
        <ele>404</ele>
        <time>2016-04-24T09:00:00Z</time>
      </trkpt>
      <trkpt lat="47.4347" lon="6.69412">
        <ele>404</ele>
        <time>2016-04-24T09:00:01Z</time>
      </trkpt>
      <trkpt lat="47.43474" lon="6.69414">
        <ele>404</ele>
        <time>2016-04-24T09:00:04Z</time>
      </trkpt>
      <trkpt lat="47.43475" lon="6.69415">
        <ele>404</ele>
        <time>2016-04-24T09:00:05Z</time>
      </trkpt>
      <trkpt lat="47.43479" lon="6.69416">
        <ele>404</ele>
        <time>2016-04-24T09:00:09Z</time>
      </trkpt>
      <trkpt lat="47.4348" lon="6.69417">
        <ele>404</ele>
        <time>2016-04-24T09:00:10Z</time>
      </trkpt>
      <trkpt lat="47.43484" lon="6.69417">
        <ele>408</ele>
        <time>2016-04-24T09:00:13Z</time>
      </trkpt>
      <trkpt lat="47.43485" lon="6.69417">
        <ele>408</ele>
        <time>2016-04-24T09:00:14Z</time>
      </trkpt>
      <trkpt lat="47.43489" lon="6.69419">
        <ele>408</ele>
        <time>2016-04-24T09:00:18Z</time>
      </trkpt>
      <trkpt lat="47.43491" lon="6.69419">
        <ele>408</ele>
        <time>2016-04-24T09:00:19Z</time>
      </trkpt>
      <trkpt lat="47.43495" lon="6.69418">
        <ele>407</ele>
        <time>2016-04-24T09:00:29Z</time>
      </trkpt>
      <trkpt lat="47.43496" lon="6.69418">
        <ele>407</ele>
        <time>2016-04-24T09:00:30Z</time>
      </trkpt>
      <trkpt lat="47.43499" lon="6.69419">
        <ele>407</ele>
        <time>2016-04-24T09:00:32Z</time>
      </trkpt>
      <trkpt lat="47.435" lon="6.6942">
        <ele>407</ele>
        <time>2016-04-24T09:00:33Z</time>
      </trkpt>
      <trkpt lat="47.43503" lon="6.69423">
        <ele>408</ele>
        <time>2016-04-24T09:00:35Z</time>
      </trkpt>
      <trkpt lat="47.43506" lon="6.69426">
        <ele>409</ele>
        <time>2016-04-24T09:00:37Z</time>
      </trkpt>
      <trkpt lat="47.43509" lon="6.69428">
        <ele>410</ele>
        <time>2016-04-24T09:00:39Z</time>
      </trkpt>
      <trkpt lat="47.43511" lon="6.6943">
        <ele>410</ele>
        <time>2016-04-24T09:00:40Z</time>
      </trkpt>
      <trkpt lat="47.43513" lon="6.69432">
        <ele>411</ele>
        <time>2016-04-24T09:00:42Z</time>
      </trkpt>
      <trkpt lat="47.43515" lon="6.69433">
        <ele>411</ele>
        <time>2016-04-24T09:00:43Z</time>
      </trkpt>
      <trkpt lat="47.43518" lon="6.69435">
        <ele>411</ele>
        <time>2016-04-24T09:00:46Z</time>
      </trkpt>
      <trkpt lat="47.43519" lon="6.69435">
        <ele>412</ele>
        <time>2016-04-24T09:00:47Z</time>
      </trkpt>
      <trkpt lat="47.43523" lon="6.69435">
        <ele>412</ele>
        <time>2016-04-24T09:00:50Z</time>
      </trkpt>
      <trkpt lat="47.43524" lon="6.69436">
        <ele>412</ele>
        <time>2016-04-24T09:00:51Z</time>
      </trkpt>
      <trkpt lat="47.43527" lon="6.69436">
        <ele>412</ele>
        <time>2016-04-24T09:00:53Z</time>
      </trkpt>
      <trkpt lat="47.43528" lon="6.69437">
        <ele>412</ele>
        <time>2016-04-24T09:00:54Z</time>
      </trkpt>
      <trkpt lat="47.43532" lon="6.69439">
        <ele>413</ele>
        <time>2016-04-24T09:00:56Z</time>
      </trkpt>
      <trkpt lat="47.43534" lon="6.6944">
        <ele>413</ele>
        <time>2016-04-24T09:00:57Z</time>
      </trkpt>
      <trkpt lat="47.43538" lon="6.69441">
        <ele>413</ele>
        <time>2016-04-24T09:01:00Z</time>
      </trkpt>
      <trkpt lat="47.43539" lon="6.69441">
        <ele>413</ele>
        <time>2016-04-24T09:01:01Z</time>
      </trkpt>
      <trkpt lat="47.43543" lon="6.69442">
        <ele>413</ele>
        <time>2016-04-24T09:01:04Z</time>
      </trkpt>
      <trkpt lat="47.43544" lon="6.69441">
        <ele>413</ele>
        <time>2016-04-24T09:01:05Z</time>
      </trkpt>
      <trkpt lat="47.43548" lon="6.69442">
        <ele>413</ele>
        <time>2016-04-24T09:01:09Z</time>
      </trkpt>
      <trkpt lat="47.43549" lon="6.69442">
        <ele>413</ele>
        <time>2016-04-24T09:01:10Z</time>
      </trkpt>
      <trkpt lat="47.43553" lon="6.69443">
        <ele>413</ele>
        <time>2016-04-24T09:01:12Z</time>
      </trkpt>
      <trkpt lat="47.43554" lon="6.69443">
        <ele>413</ele>
        <time>2016-04-24T09:01:13Z</time>
      </trkpt>
      <trkpt lat="47.43558" lon="6.69444">
        <ele>413</ele>
        <time>2016-04-24T09:01:15Z</time>
      </trkpt>
      <trkpt lat="47.4356" lon="6.69444">
        <ele>413</ele>
        <time>2016-04-24T09:01:16Z</time>
      </trkpt>
      <trkpt lat="47.43562" lon="6.69445">
        <ele>414</ele>
        <time>2016-04-24T09:01:17Z</time>
      </trkpt>
      <trkpt lat="47.43564" lon="6.69445">
        <ele>414</ele>
        <time>2016-04-24T09:01:18Z</time>
      </trkpt>
      <trkpt lat="47.43568" lon="6.69444">
        <ele>413</ele>
        <time>2016-04-24T09:01:23Z</time>
      </trkpt>
      <trkpt lat="47.43569" lon="6.69444">
        <ele>413</ele>
        <time>2016-04-24T09:01:24Z</time>
      </trkpt>
      <trkpt lat="47.43572" lon="6.69443">
        <ele>413</ele>
        <time>2016-04-24T09:01:26Z</time>
      </trkpt>
      <trkpt lat="47.43574" lon="6.69441">
        <ele>413</ele>
        <time>2016-04-24T09:01:27Z</time>
      </trkpt>
      <trkpt lat="47.43576" lon="6.69439">
        <ele>413</ele>
        <time>2016-04-24T09:01:28Z</time>
      </trkpt>
      <trkpt lat="47.43578" lon="6.69437">
        <ele>413</ele>
        <time>2016-04-24T09:01:29Z</time>
      </trkpt>
      <trkpt lat="47.43582" lon="6.69436">
        <ele>413</ele>
        <time>2016-04-24T09:01:31Z</time>
      </trkpt>
      <trkpt lat="47.43584" lon="6.69437">
        <ele>414</ele>
        <time>2016-04-24T09:01:32Z</time>
      </trkpt>
      <trkpt lat="47.43587" lon="6.6944">
        <ele>415</ele>
        <time>2016-04-24T09:01:33Z</time>
      </trkpt>
      <trkpt lat="47.43589" lon="6.69442">
        <ele>415</ele>
        <time>2016-04-24T09:01:34Z</time>
      </trkpt>
      <trkpt lat="47.43592" lon="6.69445">
        <ele>415</ele>
        <time>2016-04-24T09:01:35Z</time>
      </trkpt>
      <trkpt lat="47.43594" lon="6.69447">
        <ele>416</ele>
        <time>2016-04-24T09:01:36Z</time>
      </trkpt>
      <trkpt lat="47.43596" lon="6.69449">
        <ele>416</ele>
        <time>2016-04-24T09:01:37Z</time>
      </trkpt>
      <trkpt lat="47.43599" lon="6.6945">
        <ele>416</ele>
        <time>2016-04-24T09:01:38Z</time>
      </trkpt>
      <trkpt lat="47.43602" lon="6.69453">
        <ele>416</ele>
        <time>2016-04-24T09:01:39Z</time>
      </trkpt>
      <trkpt lat="47.43604" lon="6.69454">
        <ele>416</ele>
        <time>2016-04-24T09:01:40Z</time>
      </trkpt>
      <trkpt lat="47.43607" lon="6.69457">
        <ele>417</ele>
        <time>2016-04-24T09:01:42Z</time>
      </trkpt>
      <trkpt lat="47.43609" lon="6.69458">
        <ele>417</ele>
        <time>2016-04-24T09:01:43Z</time>
      </trkpt>
      <trkpt lat="47.43612" lon="6.69459">
        <ele>417</ele>
        <time>2016-04-24T09:01:45Z</time>
      </trkpt>
      <trkpt lat="47.43614" lon="6.6946">
        <ele>417</ele>
        <time>2016-04-24T09:01:46Z</time>
      </trkpt>
      <trkpt lat="47.43618" lon="6.69463">
        <ele>417</ele>
        <time>2016-04-24T09:01:48Z</time>
      </trkpt>
      <trkpt lat="47.4362" lon="6.69464">
        <ele>417</ele>
        <time>2016-04-24T09:01:49Z</time>
      </trkpt>
      <trkpt lat="47.43624" lon="6.69464">
        <ele>417</ele>
        <time>2016-04-24T09:01:51Z</time>
      </trkpt>
      <trkpt lat="47.43627" lon="6.69465">
        <ele>417</ele>
        <time>2016-04-24T09:01:52Z</time>
      </trkpt>
      <trkpt lat="47.43628" lon="6.69464">
        <ele>417</ele>
        <time>2016-04-24T09:01:53Z</time>
      </trkpt>
      <trkpt lat="47.43631" lon="6.69464">
        <ele>417</ele>
        <time>2016-04-24T09:01:54Z</time>
      </trkpt>
      <trkpt lat="47.43635" lon="6.69464">
        <ele>417</ele>
        <time>2016-04-24T09:01:56Z</time>
      </trkpt>
      <trkpt lat="47.43637" lon="6.69464">
        <ele>417</ele>
        <time>2016-04-24T09:01:57Z</time>
      </trkpt>
      <trkpt lat="47.4364" lon="6.69465">
        <ele>418</ele>
        <time>2016-04-24T09:01:58Z</time>
      </trkpt>
      <trkpt lat="47.43642" lon="6.69466">
        <ele>418</ele>
        <time>2016-04-24T09:01:59Z</time>
      </trkpt>
      <trkpt lat="47.43645" lon="6.69469">
        <ele>418</ele>
        <time>2016-04-24T09:02:01Z</time>
      </trkpt>
      <trkpt lat="47.43647" lon="6.6947">
        <ele>418</ele>
        <time>2016-04-24T09:02:02Z</time>
      </trkpt>
      <trkpt lat="47.43651" lon="6.69471">
        <ele>418</ele>
        <time>2016-04-24T09:02:05Z</time>
      </trkpt>
      <trkpt lat="47.43653" lon="6.69472">
        <ele>418</ele>
        <time>2016-04-24T09:02:06Z</time>
      </trkpt>
      <trkpt lat="47.43655" lon="6.69473">
        <ele>418</ele>
        <time>2016-04-24T09:02:08Z</time>
      </trkpt>
      <trkpt lat="47.43657" lon="6.69473">
        <ele>418</ele>
        <time>2016-04-24T09:02:09Z</time>
      </trkpt>
      <trkpt lat="47.43659" lon="6.69473">
        <ele>418</ele>
        <time>2016-04-24T09:02:10Z</time>
      </trkpt>
      <trkpt lat="47.43662" lon="6.69472">
        <ele>418</ele>
        <time>2016-04-24T09:02:11Z</time>
      </trkpt>
      <trkpt lat="47.43665" lon="6.69471">
        <ele>418</ele>
        <time>2016-04-24T09:02:21.999Z</time>
      </trkpt>
      <trkpt lat="47.43667" lon="6.6947">
        <ele>420</ele>
        <time>2016-04-24T09:02:23Z</time>
      </trkpt>
      <trkpt lat="47.43671" lon="6.69471">
        <ele>420</ele>
        <time>2016-04-24T09:02:30Z</time>
      </trkpt>
      <trkpt lat="47.43672" lon="6.69471">
        <ele>420</ele>
        <time>2016-04-24T09:02:31Z</time>
      </trkpt>
      <trkpt lat="47.43676" lon="6.69473">
        <ele>420</ele>
        <time>2016-04-24T09:02:34Z</time>
      </trkpt>
      <trkpt lat="47.43676" lon="6.69473">
        <ele>420</ele>
        <time>2016-04-24T09:02:35Z</time>
      </trkpt>
      <trkpt lat="47.4368" lon="6.69473">
        <ele>420</ele>
        <time>2016-04-24T09:02:41Z</time>
      </trkpt>
      <trkpt lat="47.43681" lon="6.69473">
        <ele>420</ele>
        <time>2016-04-24T09:02:42Z</time>
      </trkpt>
      <trkpt lat="47.43685" lon="6.69474">
        <ele>420</ele>
        <time>2016-04-24T09:02:46Z</time>
      </trkpt>
      <trkpt lat="47.43686" lon="6.69475">
        <ele>420</ele>
        <time>2016-04-24T09:02:47Z</time>
      </trkpt>
      <trkpt lat="47.43691" lon="6.69477">
        <ele>420</ele>
        <time>2016-04-24T09:02:56Z</time>
      </trkpt>
      <trkpt lat="47.43692" lon="6.69476">
        <ele>420</ele>
        <time>2016-04-24T09:02:57Z</time>
      </trkpt>
      <trkpt lat="47.43695" lon="6.69479">
        <ele>420</ele>
        <time>2016-04-24T09:03:05Z</time>
      </trkpt>
      <trkpt lat="47.43696" lon="6.6948">
        <ele>420</ele>
        <time>2016-04-24T09:03:06Z</time>
      </trkpt>
      <trkpt lat="47.43699" lon="6.69484">
        <ele>421</ele>
        <time>2016-04-24T09:03:10.001Z</time>
      </trkpt>
      <trkpt lat="47.437" lon="6.69486">
        <ele>421</ele>
        <time>2016-04-24T09:03:11Z</time>
      </trkpt>
      <trkpt lat="47.43703" lon="6.69488">
        <ele>421</ele>
        <time>2016-04-24T09:03:16.999Z</time>
      </trkpt>
      <trkpt lat="47.43704" lon="6.69489">
        <ele>421</ele>
        <time>2016-04-24T09:03:18Z</time>
      </trkpt>
      <trkpt lat="47.43708" lon="6.69492">
        <ele>421</ele>
        <time>2016-04-24T09:03:30Z</time>
      </trkpt>
      <trkpt lat="47.43708" lon="6.69492">
        <ele>421</ele>
        <time>2016-04-24T09:03:31Z</time>
      </trkpt>
      <trkpt lat="47.43711" lon="6.69497">
        <ele>421</ele>
        <time>2016-04-24T09:03:36.999Z</time>
      </trkpt>
      <trkpt lat="47.43713" lon="6.69498">
        <ele>421</ele>
        <time>2016-04-24T09:03:38Z</time>
      </trkpt>
      <trkpt lat="47.43716" lon="6.69501">
        <ele>424</ele>
        <time>2016-04-24T09:03:43.999Z</time>
      </trkpt>
      <trkpt lat="47.43717" lon="6.69502">
        <ele>424</ele>
        <time>2016-04-24T09:03:45Z</time>
      </trkpt>
      <trkpt lat="47.4372" lon="6.69499">
        <ele>421</ele>
        <time>2016-04-24T09:03:52Z</time>
      </trkpt>
      <trkpt lat="47.43722" lon="6.69499">
        <ele>421</ele>
        <time>2016-04-24T09:03:53Z</time>
      </trkpt>
      <trkpt lat="47.43726" lon="6.69501">
        <ele>424</ele>
        <time>2016-04-24T09:03:57.999Z</time>
      </trkpt>
      <trkpt lat="47.43727" lon="6.69502">
        <ele>424</ele>
        <time>2016-04-24T09:03:59Z</time>
      </trkpt>
      <trkpt lat="47.43731" lon="6.69504">
        <ele>424</ele>
        <time>2016-04-24T09:04:03Z</time>
      </trkpt>
      <trkpt lat="47.43732" lon="6.69505">
        <ele>424</ele>
        <time>2016-04-24T09:04:04Z</time>
      </trkpt>
      <trkpt lat="47.43735" lon="6.69507">
        <ele>424</ele>
        <time>2016-04-24T09:04:14Z</time>
      </trkpt>
      <trkpt lat="47.43737" lon="6.69507">
        <ele>424</ele>
        <time>2016-04-24T09:04:15Z</time>
      </trkpt>
      <trkpt lat="47.4374" lon="6.6951">
        <ele>424</ele>
        <time>2016-04-24T09:04:19Z</time>
      </trkpt>
      <trkpt lat="47.43741" lon="6.69512">
        <ele>424</ele>
        <time>2016-04-24T09:04:20Z</time>
      </trkpt>
      <trkpt lat="47.4374" lon="6.69518">
        <ele>425</ele>
        <time>2016-04-24T09:04:26Z</time>
      </trkpt>
      <trkpt lat="47.4374" lon="6.69518">
        <ele>425</ele>
        <time>2016-04-24T09:04:27Z</time>
      </trkpt>
      <trkpt lat="47.43741" lon="6.69524">
        <ele>425</ele>
        <time>2016-04-24T09:04:31Z</time>
      </trkpt>
      <trkpt lat="47.43742" lon="6.69525">
        <ele>425</ele>
        <time>2016-04-24T09:04:32Z</time>
      </trkpt>
      <trkpt lat="47.43744" lon="6.6953">
        <ele>425</ele>
        <time>2016-04-24T09:04:36Z</time>
      </trkpt>
      <trkpt lat="47.43745" lon="6.69531">
        <ele>425</ele>
        <time>2016-04-24T09:04:37Z</time>
      </trkpt>
      <trkpt lat="47.43748" lon="6.69535">
        <ele>426</ele>
        <time>2016-04-24T09:04:43Z</time>
      </trkpt>
      <trkpt lat="47.43748" lon="6.69535">
        <ele>426</ele>
        <time>2016-04-24T09:04:44Z</time>
      </trkpt>
      <trkpt lat="47.43751" lon="6.69536">
        <ele>428</ele>
        <time>2016-04-24T09:04:48Z</time>
      </trkpt>
      <trkpt lat="47.43753" lon="6.69535">
        <ele>428</ele>
        <time>2016-04-24T09:04:49Z</time>
      </trkpt>
      <trkpt lat="47.43755" lon="6.69535">
        <ele>428</ele>
        <time>2016-04-24T09:04:50Z</time>
      </trkpt>
      <trkpt lat="47.43757" lon="6.69536">
        <ele>428</ele>
        <time>2016-04-24T09:04:51Z</time>
      </trkpt>
      <trkpt lat="47.43761" lon="6.69538">
        <ele>429</ele>
        <time>2016-04-24T09:04:54Z</time>
      </trkpt>
      <trkpt lat="47.43762" lon="6.69539">
        <ele>429</ele>
        <time>2016-04-24T09:04:55Z</time>
      </trkpt>
      <trkpt lat="47.43763" lon="6.69542">
        <ele>429</ele>
        <time>2016-04-24T09:04:57.999Z</time>
      </trkpt>
      <trkpt lat="47.43765" lon="6.69545">
        <ele>429</ele>
        <time>2016-04-24T09:04:59Z</time>
      </trkpt>
      <trkpt lat="47.43767" lon="6.6955">
        <ele>429</ele>
        <time>2016-04-24T09:05:01Z</time>
      </trkpt>
      <trkpt lat="47.43767" lon="6.69552">
        <ele>430</ele>
        <time>2016-04-24T09:05:02Z</time>
      </trkpt>
      <trkpt lat="47.4377" lon="6.69556">
        <ele>430</ele>
        <time>2016-04-24T09:05:07.999Z</time>
      </trkpt>
      <trkpt lat="47.43772" lon="6.69556">
        <ele>430</ele>
        <time>2016-04-24T09:05:09Z</time>
      </trkpt>
      <trkpt lat="47.43774" lon="6.69559">
        <ele>430</ele>
        <time>2016-04-24T09:05:19Z</time>
      </trkpt>
      <trkpt lat="47.43775" lon="6.69562">
        <ele>430</ele>
        <time>2016-04-24T09:05:20Z</time>
      </trkpt>
      <trkpt lat="47.43778" lon="6.69565">
        <ele>430</ele>
        <time>2016-04-24T09:05:21Z</time>
      </trkpt>
      <trkpt lat="47.43783" lon="6.69571">
        <ele>430</ele>
        <time>2016-04-24T09:05:22Z</time>
      </trkpt>
      <trkpt lat="47.43785" lon="6.69573">
        <ele>431</ele>
        <time>2016-04-24T09:05:23Z</time>
      </trkpt>
      <trkpt lat="47.43787" lon="6.69576">
        <ele>431</ele>
        <time>2016-04-24T09:05:24Z</time>
      </trkpt>
      <trkpt lat="47.4379" lon="6.69581">
        <ele>431</ele>
        <time>2016-04-24T09:05:27Z</time>
      </trkpt>
      <trkpt lat="47.4379" lon="6.69582">
        <ele>431</ele>
        <time>2016-04-24T09:05:28Z</time>
      </trkpt>
      <trkpt lat="47.43792" lon="6.69587">
        <ele>435</ele>
        <time>2016-04-24T09:05:32Z</time>
      </trkpt>
      <trkpt lat="47.43793" lon="6.69588">
        <ele>435</ele>
        <time>2016-04-24T09:05:33Z</time>
      </trkpt>
      <trkpt lat="47.43796" lon="6.69592">
        <ele>435</ele>
        <time>2016-04-24T09:05:36Z</time>
      </trkpt>
      <trkpt lat="47.43796" lon="6.69593">
        <ele>435</ele>
        <time>2016-04-24T09:05:37Z</time>
      </trkpt>
      <trkpt lat="47.43797" lon="6.69598">
        <ele>435</ele>
        <time>2016-04-24T09:05:40Z</time>
      </trkpt>
      <trkpt lat="47.43797" lon="6.69599">
        <ele>435</ele>
        <time>2016-04-24T09:05:41Z</time>
      </trkpt>
      <trkpt lat="47.438" lon="6.69605">
        <ele>436</ele>
        <time>2016-04-24T09:05:46Z</time>
      </trkpt>
      <trkpt lat="47.43801" lon="6.69606">
        <ele>436</ele>
        <time>2016-04-24T09:05:47Z</time>
      </trkpt>
      <trkpt lat="47.43804" lon="6.69609">
        <ele>436</ele>
        <time>2016-04-24T09:05:50Z</time>
      </trkpt>
      <trkpt lat="47.43805" lon="6.6961">
        <ele>436</ele>
        <time>2016-04-24T09:05:51Z</time>
      </trkpt>
      <trkpt lat="47.43809" lon="6.69613">
        <ele>436</ele>
        <time>2016-04-24T09:05:53Z</time>
      </trkpt>
      <trkpt lat="47.4381" lon="6.69614">
        <ele>436</ele>
        <time>2016-04-24T09:05:54Z</time>
      </trkpt>
      <trkpt lat="47.43814" lon="6.69615">
        <ele>436</ele>
        <time>2016-04-24T09:05:56Z</time>
      </trkpt>
      <trkpt lat="47.43815" lon="6.69615">
        <ele>436</ele>
        <time>2016-04-24T09:05:57Z</time>
      </trkpt>
      <trkpt lat="47.43819" lon="6.69614">
        <ele>436</ele>
        <time>2016-04-24T09:06:00Z</time>
      </trkpt>
      <trkpt lat="47.43821" lon="6.69614">
        <ele>436</ele>
        <time>2016-04-24T09:06:01Z</time>
      </trkpt>
      <trkpt lat="47.43824" lon="6.69614">
        <ele>436</ele>
        <time>2016-04-24T09:06:04Z</time>
      </trkpt>
      <trkpt lat="47.43826" lon="6.69615">
        <ele>436</ele>
        <time>2016-04-24T09:06:05Z</time>
      </trkpt>
      <trkpt lat="47.43829" lon="6.69615">
        <ele>436</ele>
        <time>2016-04-24T09:06:07Z</time>
      </trkpt>
      <trkpt lat="47.43831" lon="6.69616">
        <ele>436</ele>
        <time>2016-04-24T09:06:08Z</time>
      </trkpt>
      <trkpt lat="47.43834" lon="6.69617">
        <ele>440</ele>
        <time>2016-04-24T09:06:10Z</time>
      </trkpt>
      <trkpt lat="47.43836" lon="6.69619">
        <ele>440</ele>
        <time>2016-04-24T09:06:11Z</time>
      </trkpt>
      <trkpt lat="47.43839" lon="6.6962">
        <ele>440</ele>
        <time>2016-04-24T09:06:13Z</time>
      </trkpt>
      <trkpt lat="47.43841" lon="6.69621">
        <ele>440</ele>
        <time>2016-04-24T09:06:14Z</time>
      </trkpt>
      <trkpt lat="47.43845" lon="6.69623">
        <ele>441</ele>
        <time>2016-04-24T09:06:17Z</time>
      </trkpt>
      <trkpt lat="47.43846" lon="6.69624">
        <ele>441</ele>
        <time>2016-04-24T09:06:18Z</time>
      </trkpt>
      <trkpt lat="47.4385" lon="6.69627">
        <ele>441</ele>
        <time>2016-04-24T09:06:21Z</time>
      </trkpt>
      <trkpt lat="47.43851" lon="6.69628">
        <ele>441</ele>
        <time>2016-04-24T09:06:22Z</time>
      </trkpt>
      <trkpt lat="47.43854" lon="6.69633">
        <ele>441</ele>
        <time>2016-04-24T09:06:25Z</time>
      </trkpt>
      <trkpt lat="47.43855" lon="6.69634">
        <ele>441</ele>
        <time>2016-04-24T09:06:26Z</time>
      </trkpt>
      <trkpt lat="47.43857" lon="6.69637">
        <ele>442</ele>
        <time>2016-04-24T09:06:28Z</time>
      </trkpt>
      <trkpt lat="47.43858" lon="6.69638">
        <ele>442</ele>
        <time>2016-04-24T09:06:29Z</time>
      </trkpt>
      <trkpt lat="47.43861" lon="6.69644">
        <ele>442</ele>
        <time>2016-04-24T09:06:33Z</time>
      </trkpt>
      <trkpt lat="47.43861" lon="6.69645">
        <ele>442</ele>
        <time>2016-04-24T09:06:34Z</time>
      </trkpt>
      <trkpt lat="47.43861" lon="6.69651">
        <ele>442</ele>
        <time>2016-04-24T09:06:38Z</time>
      </trkpt>
      <trkpt lat="47.43861" lon="6.69653">
        <ele>442</ele>
        <time>2016-04-24T09:06:39Z</time>
      </trkpt>
      <trkpt lat="47.43862" lon="6.69658">
        <ele>442</ele>
        <time>2016-04-24T09:06:42Z</time>
      </trkpt>
      <trkpt lat="47.43862" lon="6.6966">
        <ele>442</ele>
        <time>2016-04-24T09:06:43Z</time>
      </trkpt>
      <trkpt lat="47.43861" lon="6.69665">
        <ele>442</ele>
        <time>2016-04-24T09:06:45Z</time>
      </trkpt>
      <trkpt lat="47.43861" lon="6.69667">
        <ele>446</ele>
        <time>2016-04-24T09:06:46Z</time>
      </trkpt>
      <trkpt lat="47.43861" lon="6.69672">
        <ele>446</ele>
        <time>2016-04-24T09:06:48Z</time>
      </trkpt>
      <trkpt lat="47.43862" lon="6.69674">
        <ele>446</ele>
        <time>2016-04-24T09:06:49Z</time>
      </trkpt>
      <trkpt lat="47.43863" lon="6.6968">
        <ele>447</ele>
        <time>2016-04-24T09:06:52Z</time>
      </trkpt>
      <trkpt lat="47.43863" lon="6.69681">
        <ele>447</ele>
        <time>2016-04-24T09:06:53Z</time>
      </trkpt>
      <trkpt lat="47.43864" lon="6.69687">
        <ele>447</ele>
        <time>2016-04-24T09:06:56Z</time>
      </trkpt>
      <trkpt lat="47.43865" lon="6.69689">
        <ele>447</ele>
        <time>2016-04-24T09:06:57Z</time>
      </trkpt>
      <trkpt lat="47.43866" lon="6.69694">
        <ele>447</ele>
        <time>2016-04-24T09:06:59Z</time>
      </trkpt>
      <trkpt lat="47.43866" lon="6.69695">
        <ele>447</ele>
        <time>2016-04-24T09:07:00Z</time>
      </trkpt>
      <trkpt lat="47.43866" lon="6.697">
        <ele>448</ele>
        <time>2016-04-24T09:07:02Z</time>
      </trkpt>
      <trkpt lat="47.43865" lon="6.69702">
        <ele>448</ele>
        <time>2016-04-24T09:07:03Z</time>
      </trkpt>
      <trkpt lat="47.43862" lon="6.69707">
        <ele>448</ele>
        <time>2016-04-24T09:07:05Z</time>
      </trkpt>
      <trkpt lat="47.43861" lon="6.69709">
        <ele>448</ele>
        <time>2016-04-24T09:07:06Z</time>
      </trkpt>
      <trkpt lat="47.4386" lon="6.69715">
        <ele>448</ele>
        <time>2016-04-24T09:07:08Z</time>
      </trkpt>
      <trkpt lat="47.4386" lon="6.69717">
        <ele>449</ele>
        <time>2016-04-24T09:07:09Z</time>
      </trkpt>
      <trkpt lat="47.43859" lon="6.69723">
        <ele>449</ele>
        <time>2016-04-24T09:07:11Z</time>
      </trkpt>
      <trkpt lat="47.43858" lon="6.69725">
        <ele>449</ele>
        <time>2016-04-24T09:07:12Z</time>
      </trkpt>
      <trkpt lat="47.43857" lon="6.69731">
        <ele>449</ele>
        <time>2016-04-24T09:07:14Z</time>
      </trkpt>
      <trkpt lat="47.43856" lon="6.69734">
        <ele>449</ele>
        <time>2016-04-24T09:07:15Z</time>
      </trkpt>
      <trkpt lat="47.43857" lon="6.69738">
        <ele>450</ele>
        <time>2016-04-24T09:07:17Z</time>
      </trkpt>
      <trkpt lat="47.43857" lon="6.69741">
        <ele>450</ele>
        <time>2016-04-24T09:07:18.001Z</time>
      </trkpt>
      <trkpt lat="47.43858" lon="6.69746">
        <ele>450</ele>
        <time>2016-04-24T09:07:20Z</time>
      </trkpt>
      <trkpt lat="47.43859" lon="6.69749">
        <ele>450</ele>
        <time>2016-04-24T09:07:21Z</time>
      </trkpt>
      <trkpt lat="47.43859" lon="6.69754">
        <ele>453</ele>
        <time>2016-04-24T09:07:23Z</time>
      </trkpt>
      <trkpt lat="47.43859" lon="6.69756">
        <ele>453</ele>
        <time>2016-04-24T09:07:24Z</time>
      </trkpt>
      <trkpt lat="47.43861" lon="6.69761">
        <ele>453</ele>
        <time>2016-04-24T09:07:27Z</time>
      </trkpt>
      <trkpt lat="47.43861" lon="6.69764">
        <ele>453</ele>
        <time>2016-04-24T09:07:28Z</time>
      </trkpt>
      <trkpt lat="47.43862" lon="6.69767">
        <ele>454</ele>
        <time>2016-04-24T09:07:29Z</time>
      </trkpt>
      <trkpt lat="47.43862" lon="6.69771">
        <ele>454</ele>
        <time>2016-04-24T09:07:30Z</time>
      </trkpt>
      <trkpt lat="47.43863" lon="6.69775">
        <ele>454</ele>
        <time>2016-04-24T09:07:31Z</time>
      </trkpt>
      <trkpt lat="47.43864" lon="6.69778">
        <ele>454</ele>
        <time>2016-04-24T09:07:32Z</time>
      </trkpt>
      <trkpt lat="47.43866" lon="6.69784">
        <ele>454</ele>
        <time>2016-04-24T09:07:34Z</time>
      </trkpt>
      <trkpt lat="47.43867" lon="6.69786">
        <ele>454</ele>
        <time>2016-04-24T09:07:35Z</time>
      </trkpt>
      <trkpt lat="47.4387" lon="6.69789">
        <ele>454</ele>
        <time>2016-04-24T09:07:38Z</time>
      </trkpt>
      <trkpt lat="47.43872" lon="6.6979">
        <ele>454</ele>
        <time>2016-04-24T09:07:39Z</time>
      </trkpt>
      <trkpt lat="47.43875" lon="6.69792">
        <ele>454</ele>
        <time>2016-04-24T09:07:42Z</time>
      </trkpt>
      <trkpt lat="47.43876" lon="6.69793">
        <ele>454</ele>
        <time>2016-04-24T09:07:43Z</time>
      </trkpt>
      <trkpt lat="47.43879" lon="6.69795">
        <ele>454</ele>
        <time>2016-04-24T09:07:46Z</time>
      </trkpt>
      <trkpt lat="47.4388" lon="6.69796">
        <ele>454</ele>
        <time>2016-04-24T09:07:47Z</time>
      </trkpt>
      <trkpt lat="47.43884" lon="6.69799">
        <ele>454</ele>
        <time>2016-04-24T09:07:50Z</time>
      </trkpt>
      <trkpt lat="47.43885" lon="6.69801">
        <ele>455</ele>
        <time>2016-04-24T09:07:51Z</time>
      </trkpt>
      <trkpt lat="47.43888" lon="6.69804">
        <ele>455</ele>
        <time>2016-04-24T09:07:53.999Z</time>
      </trkpt>
      <trkpt lat="47.43889" lon="6.69805">
        <ele>455</ele>
        <time>2016-04-24T09:07:55Z</time>
      </trkpt>
      <trkpt lat="47.43892" lon="6.69808">
        <ele>455</ele>
        <time>2016-04-24T09:07:58Z</time>
      </trkpt>
      <trkpt lat="47.43893" lon="6.69808">
        <ele>455</ele>
        <time>2016-04-24T09:07:59Z</time>
      </trkpt>
      <trkpt lat="47.43896" lon="6.69812">
        <ele>455</ele>
        <time>2016-04-24T09:08:02Z</time>
      </trkpt>
      <trkpt lat="47.43897" lon="6.69813">
        <ele>455</ele>
        <time>2016-04-24T09:08:03Z</time>
      </trkpt>
      <trkpt lat="47.43901" lon="6.69816">
        <ele>455</ele>
        <time>2016-04-24T09:08:06Z</time>
      </trkpt>
      <trkpt lat="47.43902" lon="6.69817">
        <ele>455</ele>
        <time>2016-04-24T09:08:07Z</time>
      </trkpt>
      <trkpt lat="47.43906" lon="6.69819">
        <ele>456</ele>
        <time>2016-04-24T09:08:10Z</time>
      </trkpt>
      <trkpt lat="47.43907" lon="6.6982">
        <ele>456</ele>
        <time>2016-04-24T09:08:11Z</time>
      </trkpt>
      <trkpt lat="47.43909" lon="6.69823">
        <ele>456</ele>
        <time>2016-04-24T09:08:14Z</time>
      </trkpt>
      <trkpt lat="47.4391" lon="6.69824">
        <ele>456</ele>
        <time>2016-04-24T09:08:15Z</time>
      </trkpt>
      <trkpt lat="47.43913" lon="6.69827">
        <ele>456</ele>
        <time>2016-04-24T09:08:18Z</time>
      </trkpt>
      <trkpt lat="47.43914" lon="6.69828">
        <ele>456</ele>
        <time>2016-04-24T09:08:19Z</time>
      </trkpt>
      <trkpt lat="47.43918" lon="6.69831">
        <ele>457</ele>
        <time>2016-04-24T09:08:22Z</time>
      </trkpt>
      <trkpt lat="47.43919" lon="6.69833">
        <ele>457</ele>
        <time>2016-04-24T09:08:23Z</time>
      </trkpt>
      <trkpt lat="47.43922" lon="6.69835">
        <ele>457</ele>
        <time>2016-04-24T09:08:25Z</time>
      </trkpt>
      <trkpt lat="47.43923" lon="6.69836">
        <ele>457</ele>
        <time>2016-04-24T09:08:26Z</time>
      </trkpt>
      <trkpt lat="47.43927" lon="6.69839">
        <ele>458</ele>
        <time>2016-04-24T09:08:29Z</time>
      </trkpt>
      <trkpt lat="47.43928" lon="6.69839">
        <ele>458</ele>
        <time>2016-04-24T09:08:30Z</time>
      </trkpt>
      <trkpt lat="47.43931" lon="6.69841">
        <ele>458</ele>
        <time>2016-04-24T09:08:33Z</time>
      </trkpt>
      <trkpt lat="47.43932" lon="6.69842">
        <ele>458</ele>
        <time>2016-04-24T09:08:34Z</time>
      </trkpt>
      <trkpt lat="47.43936" lon="6.69845">
        <ele>458</ele>
        <time>2016-04-24T09:08:38Z</time>
      </trkpt>
      <trkpt lat="47.43936" lon="6.69846">
        <ele>458</ele>
        <time>2016-04-24T09:08:39Z</time>
      </trkpt>
      <trkpt lat="47.4394" lon="6.69849">
        <ele>458</ele>
        <time>2016-04-24T09:08:41Z</time>
      </trkpt>
      <trkpt lat="47.43941" lon="6.6985">
        <ele>458</ele>
        <time>2016-04-24T09:08:42Z</time>
      </trkpt>
      <trkpt lat="47.43945" lon="6.69853">
        <ele>458</ele>
        <time>2016-04-24T09:08:44Z</time>
      </trkpt>
      <trkpt lat="47.43946" lon="6.69854">
        <ele>458</ele>
        <time>2016-04-24T09:08:45Z</time>
      </trkpt>
      <trkpt lat="47.4395" lon="6.69856">
        <ele>458</ele>
        <time>2016-04-24T09:08:47Z</time>
      </trkpt>
      <trkpt lat="47.43952" lon="6.69857">
        <ele>458</ele>
        <time>2016-04-24T09:08:48Z</time>
      </trkpt>
      <trkpt lat="47.43956" lon="6.69857">
        <ele>458</ele>
        <time>2016-04-24T09:08:50Z</time>
      </trkpt>
      <trkpt lat="47.43958" lon="6.69857">
        <ele>458</ele>
        <time>2016-04-24T09:08:51Z</time>
      </trkpt>
      <trkpt lat="47.43962" lon="6.69858">
        <ele>458</ele>
        <time>2016-04-24T09:08:53.001Z</time>
      </trkpt>
      <trkpt lat="47.43963" lon="6.69861">
        <ele>458</ele>
        <time>2016-04-24T09:08:54Z</time>
      </trkpt>
      <trkpt lat="47.43966" lon="6.69864">
        <ele>458</ele>
        <time>2016-04-24T09:08:56Z</time>
      </trkpt>
      <trkpt lat="47.43969" lon="6.69867">
        <ele>458</ele>
        <time>2016-04-24T09:08:57Z</time>
      </trkpt>
      <trkpt lat="47.43971" lon="6.69868">
        <ele>458</ele>
        <time>2016-04-24T09:08:58Z</time>
      </trkpt>
      <trkpt lat="47.43973" lon="6.69869">
        <ele>458</ele>
        <time>2016-04-24T09:08:59Z</time>
      </trkpt>
      <trkpt lat="47.43977" lon="6.69871">
        <ele>458</ele>
        <time>2016-04-24T09:09:01Z</time>
      </trkpt>
      <trkpt lat="47.43979" lon="6.69872">
        <ele>458</ele>
        <time>2016-04-24T09:09:02Z</time>
      </trkpt>
      <trkpt lat="47.43981" lon="6.69873">
        <ele>458</ele>
        <time>2016-04-24T09:09:03Z</time>
      </trkpt>
      <trkpt lat="47.43983" lon="6.69875">
        <ele>459</ele>
        <time>2016-04-24T09:09:04Z</time>
      </trkpt>
      <trkpt lat="47.43986" lon="6.69876">
        <ele>459</ele>
        <time>2016-04-24T09:09:05Z</time>
      </trkpt>
      <trkpt lat="47.43988" lon="6.69878">
        <ele>459</ele>
        <time>2016-04-24T09:09:06Z</time>
      </trkpt>
      <trkpt lat="47.43991" lon="6.6988">
        <ele>459</ele>
        <time>2016-04-24T09:09:08Z</time>
      </trkpt>
      <trkpt lat="47.43993" lon="6.69881">
        <ele>459</ele>
        <time>2016-04-24T09:09:09Z</time>
      </trkpt>
      <trkpt lat="47.43996" lon="6.69883">
        <ele>459</ele>
        <time>2016-04-24T09:09:12Z</time>
      </trkpt>
      <trkpt lat="47.43997" lon="6.69883">
        <ele>459</ele>
        <time>2016-04-24T09:09:13Z</time>
      </trkpt>
      <trkpt lat="47.44001" lon="6.69886">
        <ele>457</ele>
        <time>2016-04-24T09:09:47Z</time>
      </trkpt>
      <trkpt lat="47.44002" lon="6.69886">
        <ele>457</ele>
        <time>2016-04-24T09:09:48Z</time>
      </trkpt>
      <trkpt lat="47.44005" lon="6.69888">
        <ele>457</ele>
        <time>2016-04-24T09:09:50Z</time>
      </trkpt>
      <trkpt lat="47.44007" lon="6.69889">
        <ele>457</ele>
        <time>2016-04-24T09:09:51Z</time>
      </trkpt>
      <trkpt lat="47.44011" lon="6.69891">
        <ele>457</ele>
        <time>2016-04-24T09:09:53Z</time>
      </trkpt>
      <trkpt lat="47.44013" lon="6.69893">
        <ele>457</ele>
        <time>2016-04-24T09:09:54Z</time>
      </trkpt>
      <trkpt lat="47.44015" lon="6.69894">
        <ele>457</ele>
        <time>2016-04-24T09:09:55Z</time>
      </trkpt>
      <trkpt lat="47.44018" lon="6.69896">
        <ele>457</ele>
        <time>2016-04-24T09:09:56Z</time>
      </trkpt>
      <trkpt lat="47.44021" lon="6.69898">
        <ele>457</ele>
        <time>2016-04-24T09:09:57Z</time>
      </trkpt>
      <trkpt lat="47.44024" lon="6.699">
        <ele>457</ele>
        <time>2016-04-24T09:09:58Z</time>
      </trkpt>
      <trkpt lat="47.44028" lon="6.69903">
        <ele>457</ele>
        <time>2016-04-24T09:09:59Z</time>
      </trkpt>
      <trkpt lat="47.44031" lon="6.69906">
        <ele>457</ele>
        <time>2016-04-24T09:10:00Z</time>
      </trkpt>
      <trkpt lat="47.44035" lon="6.69909">
        <ele>456</ele>
        <time>2016-04-24T09:10:01Z</time>
      </trkpt>
      <trkpt lat="47.44039" lon="6.69913">
        <ele>456</ele>
        <time>2016-04-24T09:10:02Z</time>
      </trkpt>
      <trkpt lat="47.44047" lon="6.69922">
        <ele>458</ele>
        <time>2016-04-24T09:10:03Z</time>
      </trkpt>
      <trkpt lat="47.44052" lon="6.69925">
        <ele>458</ele>
        <time>2016-04-24T09:10:04Z</time>
      </trkpt>
      <trkpt lat="47.44057" lon="6.69929">
        <ele>457</ele>
        <time>2016-04-24T09:10:05Z</time>
      </trkpt>
      <trkpt lat="47.44063" lon="6.69934">
        <ele>457</ele>
        <time>2016-04-24T09:10:06Z</time>
      </trkpt>
      <trkpt lat="47.44071" lon="6.69928">
        <ele>456</ele>
        <time>2016-04-24T09:10:07Z</time>
      </trkpt>
      <trkpt lat="47.44078" lon="6.69923">
        <ele>455</ele>
        <time>2016-04-24T09:10:08Z</time>
      </trkpt>
      <trkpt lat="47.44084" lon="6.6992">
        <ele>453</ele>
        <time>2016-04-24T09:10:09Z</time>
      </trkpt>
      <trkpt lat="47.44092" lon="6.69917">
        <ele>453</ele>
        <time>2016-04-24T09:10:09.999Z</time>
      </trkpt>
      <trkpt lat="47.44098" lon="6.69915">
        <ele>453</ele>
        <time>2016-04-24T09:10:11Z</time>
      </trkpt>
      <trkpt lat="47.44103" lon="6.69912">
        <ele>453</ele>
        <time>2016-04-24T09:10:12Z</time>
      </trkpt>
      <trkpt lat="47.44108" lon="6.69912">
        <ele>453</ele>
        <time>2016-04-24T09:10:13Z</time>
      </trkpt>
      <trkpt lat="47.44113" lon="6.6991">
        <ele>453</ele>
        <time>2016-04-24T09:10:14Z</time>
      </trkpt>
      <trkpt lat="47.44121" lon="6.69906">
        <ele>453</ele>
        <time>2016-04-24T09:10:15Z</time>
      </trkpt>
      <trkpt lat="47.44127" lon="6.69903">
        <ele>453</ele>
        <time>2016-04-24T09:10:16Z</time>
      </trkpt>
      <trkpt lat="47.44132" lon="6.69902">
        <ele>453</ele>
        <time>2016-04-24T09:10:16.999Z</time>
      </trkpt>
      <trkpt lat="47.44132" lon="6.69899">
        <ele>453</ele>
        <time>2016-04-24T09:10:18Z</time>
      </trkpt>
      <trkpt lat="47.44136" lon="6.69898">
        <ele>453</ele>
        <time>2016-04-24T09:10:19Z</time>
      </trkpt>
      <trkpt lat="47.44139" lon="6.69898">
        <ele>453</ele>
        <time>2016-04-24T09:10:20Z</time>
      </trkpt>
      <trkpt lat="47.44142" lon="6.69899">
        <ele>453</ele>
        <time>2016-04-24T09:10:21Z</time>
      </trkpt>
      <trkpt lat="47.44144" lon="6.69898">
        <ele>453</ele>
        <time>2016-04-24T09:10:22Z</time>
      </trkpt>
      <trkpt lat="47.44148" lon="6.69896">
        <ele>453</ele>
        <time>2016-04-24T09:10:23Z</time>
      </trkpt>
      <trkpt lat="47.44151" lon="6.69895">
        <ele>453</ele>
        <time>2016-04-24T09:10:24Z</time>
      </trkpt>
      <trkpt lat="47.44152" lon="6.69893">
        <ele>453</ele>
        <time>2016-04-24T09:10:25Z</time>
      </trkpt>
      <trkpt lat="47.44156" lon="6.69891">
        <ele>453</ele>
        <time>2016-04-24T09:10:27Z</time>
      </trkpt>
      <trkpt lat="47.44159" lon="6.69891">
        <ele>453</ele>
        <time>2016-04-24T09:10:28Z</time>
      </trkpt>
      <trkpt lat="47.44162" lon="6.6989">
        <ele>453</ele>
        <time>2016-04-24T09:10:29Z</time>
      </trkpt>
      <trkpt lat="47.44164" lon="6.6989">
        <ele>453</ele>
        <time>2016-04-24T09:10:30Z</time>
      </trkpt>
      <trkpt lat="47.44168" lon="6.69891">
        <ele>453</ele>
        <time>2016-04-24T09:10:31Z</time>
      </trkpt>
      <trkpt lat="47.4417" lon="6.69892">
        <ele>453</ele>
        <time>2016-04-24T09:10:32Z</time>
      </trkpt>
      <trkpt lat="47.44173" lon="6.69894">
        <ele>453</ele>
        <time>2016-04-24T09:10:34Z</time>
      </trkpt>
      <trkpt lat="47.44175" lon="6.69895">
        <ele>453</ele>
        <time>2016-04-24T09:10:35Z</time>
      </trkpt>
      <trkpt lat="47.44178" lon="6.69895">
        <ele>453</ele>
        <time>2016-04-24T09:10:36Z</time>
      </trkpt>
      <trkpt lat="47.44181" lon="6.69895">
        <ele>453</ele>
        <time>2016-04-24T09:10:37Z</time>
      </trkpt>
      <trkpt lat="47.44184" lon="6.69896">
        <ele>453</ele>
        <time>2016-04-24T09:10:38Z</time>
      </trkpt>
      <trkpt lat="47.44187" lon="6.69897">
        <ele>453</ele>
        <time>2016-04-24T09:10:39Z</time>
      </trkpt>
      <trkpt lat="47.44191" lon="6.69898">
        <ele>453</ele>
        <time>2016-04-24T09:10:41.001Z</time>
      </trkpt>
      <trkpt lat="47.44194" lon="6.69898">
        <ele>453</ele>
        <time>2016-04-24T09:10:42Z</time>
      </trkpt>
      <trkpt lat="47.44198" lon="6.699">
        <ele>453</ele>
        <time>2016-04-24T09:10:44Z</time>
      </trkpt>
      <trkpt lat="47.442" lon="6.69901">
        <ele>453</ele>
        <time>2016-04-24T09:10:45Z</time>
      </trkpt>
      <trkpt lat="47.44202" lon="6.69903">
        <ele>453</ele>
        <time>2016-04-24T09:10:46Z</time>
      </trkpt>
      <trkpt lat="47.44204" lon="6.69905">
        <ele>453</ele>
        <time>2016-04-24T09:10:47Z</time>
      </trkpt>
      <trkpt lat="47.44206" lon="6.69908">
        <ele>453</ele>
        <time>2016-04-24T09:10:48Z</time>
      </trkpt>
      <trkpt lat="47.44211" lon="6.6991">
        <ele>453</ele>
        <time>2016-04-24T09:10:49Z</time>
      </trkpt>
      <trkpt lat="47.44215" lon="6.69913">
        <ele>453</ele>
        <time>2016-04-24T09:10:50Z</time>
      </trkpt>
      <trkpt lat="47.44217" lon="6.69915">
        <ele>453</ele>
        <time>2016-04-24T09:10:50.999Z</time>
      </trkpt>
      <trkpt lat="47.44224" lon="6.69918">
        <ele>452</ele>
        <time>2016-04-24T09:10:52Z</time>
      </trkpt>
      <trkpt lat="47.44228" lon="6.6992">
        <ele>452</ele>
        <time>2016-04-24T09:10:53Z</time>
      </trkpt>
      <trkpt lat="47.44231" lon="6.69921">
        <ele>452</ele>
        <time>2016-04-24T09:10:54Z</time>
      </trkpt>
      <trkpt lat="47.44238" lon="6.69924">
        <ele>452</ele>
        <time>2016-04-24T09:10:55Z</time>
      </trkpt>
      <trkpt lat="47.44242" lon="6.69926">
        <ele>452</ele>
        <time>2016-04-24T09:10:56Z</time>
      </trkpt>
      <trkpt lat="47.44246" lon="6.69929">
        <ele>452</ele>
        <time>2016-04-24T09:10:57Z</time>
      </trkpt>
      <trkpt lat="47.4425" lon="6.69931">
        <ele>452</ele>
        <time>2016-04-24T09:10:58Z</time>
      </trkpt>
      <trkpt lat="47.44256" lon="6.69934">
        <ele>451</ele>
        <time>2016-04-24T09:10:59Z</time>
      </trkpt>
      <trkpt lat="47.4426" lon="6.69937">
        <ele>451</ele>
        <time>2016-04-24T09:11:00Z</time>
      </trkpt>
      <trkpt lat="47.44265" lon="6.6994">
        <ele>451</ele>
        <time>2016-04-24T09:11:01Z</time>
      </trkpt>
      <trkpt lat="47.44269" lon="6.69944">
        <ele>451</ele>
        <time>2016-04-24T09:11:02Z</time>
      </trkpt>
      <trkpt lat="47.44273" lon="6.69947">
        <ele>451</ele>
        <time>2016-04-24T09:11:03Z</time>
      </trkpt>
      <trkpt lat="47.44277" lon="6.6995">
        <ele>450</ele>
        <time>2016-04-24T09:11:04Z</time>
      </trkpt>
      <trkpt lat="47.44281" lon="6.69954">
        <ele>450</ele>
        <time>2016-04-24T09:11:05Z</time>
      </trkpt>
      <trkpt lat="47.44286" lon="6.69958">
        <ele>450</ele>
        <time>2016-04-24T09:11:06Z</time>
      </trkpt>
      <trkpt lat="47.4429" lon="6.69962">
        <ele>450</ele>
        <time>2016-04-24T09:11:07Z</time>
      </trkpt>
      <trkpt lat="47.44293" lon="6.69966">
        <ele>450</ele>
        <time>2016-04-24T09:11:08Z</time>
      </trkpt>
      <trkpt lat="47.44297" lon="6.69969">
        <ele>450</ele>
        <time>2016-04-24T09:11:09Z</time>
      </trkpt>
      <trkpt lat="47.443" lon="6.69972">
        <ele>450</ele>
        <time>2016-04-24T09:11:10Z</time>
      </trkpt>
      <trkpt lat="47.44304" lon="6.69974">
        <ele>450</ele>
        <time>2016-04-24T09:11:11Z</time>
      </trkpt>
      <trkpt lat="47.4431" lon="6.69975">
        <ele>450</ele>
        <time>2016-04-24T09:11:12Z</time>
      </trkpt>
      <trkpt lat="47.44315" lon="6.69977">
        <ele>450</ele>
        <time>2016-04-24T09:11:13Z</time>
      </trkpt>
      <trkpt lat="47.44321" lon="6.69977">
        <ele>449</ele>
        <time>2016-04-24T09:11:14Z</time>
      </trkpt>
      <trkpt lat="47.44326" lon="6.69977">
        <ele>449</ele>
        <time>2016-04-24T09:11:15Z</time>
      </trkpt>
      <trkpt lat="47.44332" lon="6.69978">
        <ele>449</ele>
        <time>2016-04-24T09:11:16Z</time>
      </trkpt>
      <trkpt lat="47.44338" lon="6.69978">
        <ele>447</ele>
        <time>2016-04-24T09:11:17Z</time>
      </trkpt>
      <trkpt lat="47.4435" lon="6.69978">
        <ele>447</ele>
        <time>2016-04-24T09:11:18Z</time>
      </trkpt>
      <trkpt lat="47.44357" lon="6.6998">
        <ele>446</ele>
        <time>2016-04-24T09:11:19Z</time>
      </trkpt>
      <trkpt lat="47.44364" lon="6.69981">
        <ele>446</ele>
        <time>2016-04-24T09:11:20Z</time>
      </trkpt>
      <trkpt lat="47.44371" lon="6.69978">
        <ele>446</ele>
        <time>2016-04-24T09:11:21Z</time>
      </trkpt>
      <trkpt lat="47.44377" lon="6.69972">
        <ele>446</ele>
        <time>2016-04-24T09:11:22Z</time>
      </trkpt>
      <trkpt lat="47.44386" lon="6.69969">
        <ele>445</ele>
        <time>2016-04-24T09:11:23Z</time>
      </trkpt>
      <trkpt lat="47.44396" lon="6.69967">
        <ele>445</ele>
        <time>2016-04-24T09:11:24Z</time>
      </trkpt>
      <trkpt lat="47.44406" lon="6.69963">
        <ele>445</ele>
        <time>2016-04-24T09:11:25Z</time>
      </trkpt>
      <trkpt lat="47.44413" lon="6.6996">
        <ele>445</ele>
        <time>2016-04-24T09:11:26Z</time>
      </trkpt>
      <trkpt lat="47.44421" lon="6.69958">
        <ele>442</ele>
        <time>2016-04-24T09:11:27Z</time>
      </trkpt>
      <trkpt lat="47.44426" lon="6.69957">
        <ele>442</ele>
        <time>2016-04-24T09:11:28Z</time>
      </trkpt>
      <trkpt lat="47.44431" lon="6.69956">
        <ele>442</ele>
        <time>2016-04-24T09:11:29Z</time>
      </trkpt>
      <trkpt lat="47.4444" lon="6.69956">
        <ele>442</ele>
        <time>2016-04-24T09:11:30Z</time>
      </trkpt>
      <trkpt lat="47.44445" lon="6.69956">
        <ele>441</ele>
        <time>2016-04-24T09:11:31Z</time>
      </trkpt>
      <trkpt lat="47.44453" lon="6.6995">
        <ele>441</ele>
        <time>2016-04-24T09:11:32Z</time>
      </trkpt>
      <trkpt lat="47.44458" lon="6.69946">
        <ele>441</ele>
        <time>2016-04-24T09:11:33Z</time>
      </trkpt>
      <trkpt lat="47.44462" lon="6.69945">
        <ele>441</ele>
        <time>2016-04-24T09:11:34Z</time>
      </trkpt>
      <trkpt lat="47.44466" lon="6.6994">
        <ele>441</ele>
        <time>2016-04-24T09:11:35Z</time>
      </trkpt>
      <trkpt lat="47.44473" lon="6.69938">
        <ele>441</ele>
        <time>2016-04-24T09:11:36Z</time>
      </trkpt>
      <trkpt lat="47.4448" lon="6.69937">
        <ele>441</ele>
        <time>2016-04-24T09:11:37Z</time>
      </trkpt>
      <trkpt lat="47.44486" lon="6.69933">
        <ele>440</ele>
        <time>2016-04-24T09:11:38Z</time>
      </trkpt>
      <trkpt lat="47.44492" lon="6.69929">
        <ele>440</ele>
        <time>2016-04-24T09:11:39Z</time>
      </trkpt>
      <trkpt lat="47.44499" lon="6.69926">
        <ele>440</ele>
        <time>2016-04-24T09:11:40Z</time>
      </trkpt>
      <trkpt lat="47.44507" lon="6.69921">
        <ele>439</ele>
        <time>2016-04-24T09:11:41Z</time>
      </trkpt>
      <trkpt lat="47.44514" lon="6.69918">
        <ele>439</ele>
        <time>2016-04-24T09:11:42Z</time>
      </trkpt>
      <trkpt lat="47.44524" lon="6.69919">
        <ele>439</ele>
        <time>2016-04-24T09:11:43Z</time>
      </trkpt>
      <trkpt lat="47.4453" lon="6.69917">
        <ele>439</ele>
        <time>2016-04-24T09:11:44Z</time>
      </trkpt>
      <trkpt lat="47.44537" lon="6.69917">
        <ele>439</ele>
        <time>2016-04-24T09:11:45Z</time>
      </trkpt>
      <trkpt lat="47.44545" lon="6.69918">
        <ele>439</ele>
        <time>2016-04-24T09:11:46Z</time>
      </trkpt>
      <trkpt lat="47.44549" lon="6.69916">
        <ele>437</ele>
        <time>2016-04-24T09:11:47Z</time>
      </trkpt>
      <trkpt lat="47.44555" lon="6.69912">
        <ele>437</ele>
        <time>2016-04-24T09:11:48Z</time>
      </trkpt>
      <trkpt lat="47.44558" lon="6.69909">
        <ele>437</ele>
        <time>2016-04-24T09:11:49Z</time>
      </trkpt>
      <trkpt lat="47.44566" lon="6.69906">
        <ele>437</ele>
        <time>2016-04-24T09:11:50Z</time>
      </trkpt>
      <trkpt lat="47.44573" lon="6.69901">
        <ele>437</ele>
        <time>2016-04-24T09:11:51Z</time>
      </trkpt>
      <trkpt lat="47.44578" lon="6.69896">
        <ele>437</ele>
        <time>2016-04-24T09:11:52Z</time>
      </trkpt>
      <trkpt lat="47.44584" lon="6.69891">
        <ele>436</ele>
        <time>2016-04-24T09:11:53Z</time>
      </trkpt>
      <trkpt lat="47.44588" lon="6.69886">
        <ele>436</ele>
        <time>2016-04-24T09:11:54Z</time>
      </trkpt>
      <trkpt lat="47.44594" lon="6.69884">
        <ele>435</ele>
        <time>2016-04-24T09:11:55Z</time>
      </trkpt>
      <trkpt lat="47.44602" lon="6.69881">
        <ele>435</ele>
        <time>2016-04-24T09:11:56Z</time>
      </trkpt>
      <trkpt lat="47.44608" lon="6.69876">
        <ele>435</ele>
        <time>2016-04-24T09:11:57Z</time>
      </trkpt>
      <trkpt lat="47.44615" lon="6.69871">
        <ele>435</ele>
        <time>2016-04-24T09:11:58Z</time>
      </trkpt>
      <trkpt lat="47.44621" lon="6.69866">
        <ele>435</ele>
        <time>2016-04-24T09:11:59Z</time>
      </trkpt>
      <trkpt lat="47.44626" lon="6.6986">
        <ele>435</ele>
        <time>2016-04-24T09:12:00Z</time>
      </trkpt>
      <trkpt lat="47.44635" lon="6.69861">
        <ele>435</ele>
        <time>2016-04-24T09:12:01Z</time>
      </trkpt>
      <trkpt lat="47.44641" lon="6.69857">
        <ele>435</ele>
        <time>2016-04-24T09:12:02Z</time>
      </trkpt>
      <trkpt lat="47.44645" lon="6.69848">
        <ele>435</ele>
        <time>2016-04-24T09:12:03Z</time>
      </trkpt>
      <trkpt lat="47.44651" lon="6.69842">
        <ele>435</ele>
        <time>2016-04-24T09:12:03.998Z</time>
      </trkpt>
      <trkpt lat="47.44649" lon="6.6983">
        <ele>434</ele>
        <time>2016-04-24T09:12:05Z</time>
      </trkpt>
      <trkpt lat="47.44648" lon="6.69822">
        <ele>434</ele>
        <time>2016-04-24T09:12:06Z</time>
      </trkpt>
      <trkpt lat="47.44649" lon="6.6981">
        <ele>433</ele>
        <time>2016-04-24T09:12:07Z</time>
      </trkpt>
      <trkpt lat="47.44648" lon="6.69801">
        <ele>433</ele>
        <time>2016-04-24T09:12:08Z</time>
      </trkpt>
      <trkpt lat="47.44641" lon="6.69795">
        <ele>433</ele>
        <time>2016-04-24T09:12:09Z</time>
      </trkpt>
      <trkpt lat="47.44635" lon="6.69787">
        <ele>433</ele>
        <time>2016-04-24T09:12:10Z</time>
      </trkpt>
      <trkpt lat="47.4463" lon="6.69779">
        <ele>433</ele>
        <time>2016-04-24T09:12:10.999Z</time>
      </trkpt>
      <trkpt lat="47.44631" lon="6.69766">
        <ele>433</ele>
        <time>2016-04-24T09:12:12Z</time>
      </trkpt>
      <trkpt lat="47.44626" lon="6.69757">
        <ele>433</ele>
        <time>2016-04-24T09:12:13Z</time>
      </trkpt>
      <trkpt lat="47.44622" lon="6.69747">
        <ele>431</ele>
        <time>2016-04-24T09:12:14Z</time>
      </trkpt>
      <trkpt lat="47.44618" lon="6.69735">
        <ele>431</ele>
        <time>2016-04-24T09:12:15Z</time>
      </trkpt>
      <trkpt lat="47.44615" lon="6.69725">
        <ele>431</ele>
        <time>2016-04-24T09:12:16Z</time>
      </trkpt>
      <trkpt lat="47.4461" lon="6.69715">
        <ele>431</ele>
        <time>2016-04-24T09:12:17Z</time>
      </trkpt>
      <trkpt lat="47.44607" lon="6.69703">
        <ele>431</ele>
        <time>2016-04-24T09:12:18Z</time>
      </trkpt>
      <trkpt lat="47.44601" lon="6.69693">
        <ele>431</ele>
        <time>2016-04-24T09:12:19Z</time>
      </trkpt>
      <trkpt lat="47.44599" lon="6.69681">
        <ele>431</ele>
        <time>2016-04-24T09:12:20Z</time>
      </trkpt>
      <trkpt lat="47.44594" lon="6.69671">
        <ele>430</ele>
        <time>2016-04-24T09:12:21Z</time>
      </trkpt>
      <trkpt lat="47.44591" lon="6.69657">
        <ele>429</ele>
        <time>2016-04-24T09:12:22Z</time>
      </trkpt>
      <trkpt lat="47.44587" lon="6.6965">
        <ele>429</ele>
        <time>2016-04-24T09:12:23Z</time>
      </trkpt>
      <trkpt lat="47.44583" lon="6.6964">
        <ele>429</ele>
        <time>2016-04-24T09:12:24Z</time>
      </trkpt>
      <trkpt lat="47.44579" lon="6.69625">
        <ele>429</ele>
        <time>2016-04-24T09:12:25Z</time>
      </trkpt>
      <trkpt lat="47.44576" lon="6.69614">
        <ele>429</ele>
        <time>2016-04-24T09:12:26Z</time>
      </trkpt>
      <trkpt lat="47.44574" lon="6.69604">
        <ele>428</ele>
        <time>2016-04-24T09:12:27Z</time>
      </trkpt>
      <trkpt lat="47.4457" lon="6.69592">
        <ele>428</ele>
        <time>2016-04-24T09:12:28Z</time>
      </trkpt>
      <trkpt lat="47.44565" lon="6.69586">
        <ele>428</ele>
        <time>2016-04-24T09:12:29Z</time>
      </trkpt>
      <trkpt lat="47.44561" lon="6.69578">
        <ele>427</ele>
        <time>2016-04-24T09:12:30Z</time>
      </trkpt>
      <trkpt lat="47.44561" lon="6.69571">
        <ele>427</ele>
        <time>2016-04-24T09:12:31Z</time>
      </trkpt>
      <trkpt lat="47.44559" lon="6.69566">
        <ele>427</ele>
        <time>2016-04-24T09:12:32Z</time>
      </trkpt>
      <trkpt lat="47.44566" lon="6.69567">
        <ele>427</ele>
        <time>2016-04-24T09:12:33Z</time>
      </trkpt>
      <trkpt lat="47.44569" lon="6.69568">
        <ele>427</ele>
        <time>2016-04-24T09:12:34Z</time>
      </trkpt>
      <trkpt lat="47.44573" lon="6.69572">
        <ele>427</ele>
        <time>2016-04-24T09:12:35Z</time>
      </trkpt>
      <trkpt lat="47.44576" lon="6.69573">
        <ele>427</ele>
        <time>2016-04-24T09:12:37Z</time>
      </trkpt>
      <trkpt lat="47.44578" lon="6.69576">
        <ele>427</ele>
        <time>2016-04-24T09:12:38Z</time>
      </trkpt>
      <trkpt lat="47.44581" lon="6.6958">
        <ele>427</ele>
        <time>2016-04-24T09:12:40Z</time>
      </trkpt>
      <trkpt lat="47.44584" lon="6.69583">
        <ele>427</ele>
        <time>2016-04-24T09:12:41Z</time>
      </trkpt>
      <trkpt lat="47.44587" lon="6.69587">
        <ele>427</ele>
        <time>2016-04-24T09:12:42Z</time>
      </trkpt>
      <trkpt lat="47.44591" lon="6.6959">
        <ele>427</ele>
        <time>2016-04-24T09:12:43Z</time>
      </trkpt>
      <trkpt lat="47.44602" lon="6.69593">
        <ele>427</ele>
        <time>2016-04-24T09:12:44Z</time>
      </trkpt>
      <trkpt lat="47.44606" lon="6.69592">
        <ele>427</ele>
        <time>2016-04-24T09:12:44.999Z</time>
      </trkpt>
      <trkpt lat="47.44617" lon="6.69596">
        <ele>427</ele>
        <time>2016-04-24T09:12:46.001Z</time>
      </trkpt>
      <trkpt lat="47.44626" lon="6.69596">
        <ele>427</ele>
        <time>2016-04-24T09:12:47Z</time>
      </trkpt>
      <trkpt lat="47.44633" lon="6.69593">
        <ele>427</ele>
        <time>2016-04-24T09:12:48Z</time>
      </trkpt>
      <trkpt lat="47.44641" lon="6.6959">
        <ele>427</ele>
        <time>2016-04-24T09:12:49Z</time>
      </trkpt>
      <trkpt lat="47.4465" lon="6.69591">
        <ele>426</ele>
        <time>2016-04-24T09:12:50Z</time>
      </trkpt>
      <trkpt lat="47.4466" lon="6.69595">
        <ele>426</ele>
        <time>2016-04-24T09:12:51Z</time>
      </trkpt>
      <trkpt lat="47.44672" lon="6.69602">
        <ele>425</ele>
        <time>2016-04-24T09:12:52Z</time>
      </trkpt>
      <trkpt lat="47.44682" lon="6.69606">
        <ele>425</ele>
        <time>2016-04-24T09:12:53Z</time>
      </trkpt>
      <trkpt lat="47.44692" lon="6.69608">
        <ele>425</ele>
        <time>2016-04-24T09:12:54Z</time>
      </trkpt>
      <trkpt lat="47.44699" lon="6.69606">
        <ele>425</ele>
        <time>2016-04-24T09:12:55Z</time>
      </trkpt>
      <trkpt lat="47.44706" lon="6.69608">
        <ele>424</ele>
        <time>2016-04-24T09:12:56Z</time>
      </trkpt>
      <trkpt lat="47.44715" lon="6.69608">
        <ele>424</ele>
        <time>2016-04-24T09:12:57Z</time>
      </trkpt>
      <trkpt lat="47.44723" lon="6.69608">
        <ele>424</ele>
        <time>2016-04-24T09:12:58Z</time>
      </trkpt>
      <trkpt lat="47.4473" lon="6.69606">
        <ele>423</ele>
        <time>2016-04-24T09:12:59Z</time>
      </trkpt>
      <trkpt lat="47.44737" lon="6.69608">
        <ele>423</ele>
        <time>2016-04-24T09:13:00Z</time>
      </trkpt>
      <trkpt lat="47.44745" lon="6.69609">
        <ele>423</ele>
        <time>2016-04-24T09:13:01Z</time>
      </trkpt>
      <trkpt lat="47.44753" lon="6.69607">
        <ele>418</ele>
        <time>2016-04-24T09:13:02Z</time>
      </trkpt>
      <trkpt lat="47.4476" lon="6.69608">
        <ele>418</ele>
        <time>2016-04-24T09:13:03Z</time>
      </trkpt>
      <trkpt lat="47.44769" lon="6.69613">
        <ele>417</ele>
        <time>2016-04-24T09:13:04Z</time>
      </trkpt>
      <trkpt lat="47.44777" lon="6.69615">
        <ele>417</ele>
        <time>2016-04-24T09:13:05Z</time>
      </trkpt>
      <trkpt lat="47.44786" lon="6.69615">
        <ele>416</ele>
        <time>2016-04-24T09:13:06Z</time>
      </trkpt>
      <trkpt lat="47.44794" lon="6.69621">
        <ele>416</ele>
        <time>2016-04-24T09:13:07Z</time>
      </trkpt>
      <trkpt lat="47.44804" lon="6.69624">
        <ele>415</ele>
        <time>2016-04-24T09:13:08Z</time>
      </trkpt>
      <trkpt lat="47.44816" lon="6.69631">
        <ele>415</ele>
        <time>2016-04-24T09:13:09Z</time>
      </trkpt>
      <trkpt lat="47.44824" lon="6.69636">
        <ele>414</ele>
        <time>2016-04-24T09:13:10Z</time>
      </trkpt>
      <trkpt lat="47.44834" lon="6.69641">
        <ele>410</ele>
        <time>2016-04-24T09:13:11Z</time>
      </trkpt>
      <trkpt lat="47.44844" lon="6.69644">
        <ele>411</ele>
        <time>2016-04-24T09:13:12Z</time>
      </trkpt>
      <trkpt lat="47.44852" lon="6.69647">
        <ele>411</ele>
        <time>2016-04-24T09:13:13Z</time>
      </trkpt>
      <trkpt lat="47.44859" lon="6.6965">
        <ele>411</ele>
        <time>2016-04-24T09:13:14Z</time>
      </trkpt>
      <trkpt lat="47.44867" lon="6.69649">
        <ele>410</ele>
        <time>2016-04-24T09:13:15Z</time>
      </trkpt>
      <trkpt lat="47.44876" lon="6.69649">
        <ele>410</ele>
        <time>2016-04-24T09:13:16Z</time>
      </trkpt>
      <trkpt lat="47.44885" lon="6.69645">
        <ele>410</ele>
        <time>2016-04-24T09:13:17Z</time>
      </trkpt>
      <trkpt lat="47.44887" lon="6.69634">
        <ele>410</ele>
        <time>2016-04-24T09:13:18Z</time>
      </trkpt>
      <trkpt lat="47.44891" lon="6.69626">
        <ele>410</ele>
        <time>2016-04-24T09:13:19Z</time>
      </trkpt>
      <trkpt lat="47.44896" lon="6.69625">
        <ele>410</ele>
        <time>2016-04-24T09:13:20Z</time>
      </trkpt>
      <trkpt lat="47.44901" lon="6.69624">
        <ele>410</ele>
        <time>2016-04-24T09:13:21Z</time>
      </trkpt>
      <trkpt lat="47.44905" lon="6.69623">
        <ele>410</ele>
        <time>2016-04-24T09:13:22Z</time>
      </trkpt>
      <trkpt lat="47.44909" lon="6.69623">
        <ele>410</ele>
        <time>2016-04-24T09:13:23Z</time>
      </trkpt>
      <trkpt lat="47.44912" lon="6.6962">
        <ele>409</ele>
        <time>2016-04-24T09:13:26Z</time>
      </trkpt>
      <trkpt lat="47.44913" lon="6.69621">
        <ele>409</ele>
        <time>2016-04-24T09:13:27Z</time>
      </trkpt>
      <trkpt lat="47.44917" lon="6.69621">
        <ele>410</ele>
        <time>2016-04-24T09:13:30Z</time>
      </trkpt>
      <trkpt lat="47.44919" lon="6.69619">
        <ele>410</ele>
        <time>2016-04-24T09:13:31Z</time>
      </trkpt>
      <trkpt lat="47.44922" lon="6.69617">
        <ele>410</ele>
        <time>2016-04-24T09:13:33Z</time>
      </trkpt>
      <trkpt lat="47.44922" lon="6.69614">
        <ele>410</ele>
        <time>2016-04-24T09:13:34Z</time>
      </trkpt>
      <trkpt lat="47.44925" lon="6.69609">
        <ele>410</ele>
        <time>2016-04-24T09:13:38Z</time>
      </trkpt>
      <trkpt lat="47.44924" lon="6.69607">
        <ele>409</ele>
        <time>2016-04-24T09:13:39Z</time>
      </trkpt>
      <trkpt lat="47.44921" lon="6.69602">
        <ele>409</ele>
        <time>2016-04-24T09:13:41Z</time>
      </trkpt>
      <trkpt lat="47.44919" lon="6.69599">
        <ele>409</ele>
        <time>2016-04-24T09:13:42Z</time>
      </trkpt>
      <trkpt lat="47.44916" lon="6.69597">
        <ele>408</ele>
        <time>2016-04-24T09:13:43Z</time>
      </trkpt>
      <trkpt lat="47.44914" lon="6.69594">
        <ele>408</ele>
        <time>2016-04-24T09:13:44Z</time>
      </trkpt>
      <trkpt lat="47.44912" lon="6.69591">
        <ele>408</ele>
        <time>2016-04-24T09:13:45Z</time>
      </trkpt>
      <trkpt lat="47.44911" lon="6.69589">
        <ele>408</ele>
        <time>2016-04-24T09:13:46Z</time>
      </trkpt>
      <trkpt lat="47.44908" lon="6.69584">
        <ele>408</ele>
        <time>2016-04-24T09:13:48Z</time>
      </trkpt>
      <trkpt lat="47.44908" lon="6.69581">
        <ele>406</ele>
        <time>2016-04-24T09:13:49Z</time>
      </trkpt>
      <trkpt lat="47.44909" lon="6.69577">
        <ele>406</ele>
        <time>2016-04-24T09:13:50Z</time>
      </trkpt>
      <trkpt lat="47.4491" lon="6.69572">
        <ele>406</ele>
        <time>2016-04-24T09:13:51Z</time>
      </trkpt>
      <trkpt lat="47.44911" lon="6.69568">
        <ele>406</ele>
        <time>2016-04-24T09:13:52Z</time>
      </trkpt>
      <trkpt lat="47.44913" lon="6.69564">
        <ele>406</ele>
        <time>2016-04-24T09:13:53Z</time>
      </trkpt>
      <trkpt lat="47.44915" lon="6.69559">
        <ele>405</ele>
        <time>2016-04-24T09:13:54Z</time>
      </trkpt>
      <trkpt lat="47.44917" lon="6.69555">
        <ele>405</ele>
        <time>2016-04-24T09:13:55Z</time>
      </trkpt>
      <trkpt lat="47.44919" lon="6.69551">
        <ele>405</ele>
        <time>2016-04-24T09:13:56Z</time>
      </trkpt>
      <trkpt lat="47.4492" lon="6.69548">
        <ele>404</ele>
        <time>2016-04-24T09:13:57Z</time>
      </trkpt>
      <trkpt lat="47.44921" lon="6.69544">
        <ele>404</ele>
        <time>2016-04-24T09:13:58Z</time>
      </trkpt>
      <trkpt lat="47.44921" lon="6.69538">
        <ele>404</ele>
        <time>2016-04-24T09:13:59Z</time>
      </trkpt>
      <trkpt lat="47.44922" lon="6.69532">
        <ele>404</ele>
        <time>2016-04-24T09:14:00Z</time>
      </trkpt>
      <trkpt lat="47.44923" lon="6.69525">
        <ele>403</ele>
        <time>2016-04-24T09:14:01Z</time>
      </trkpt>
      <trkpt lat="47.44924" lon="6.69519">
        <ele>403</ele>
        <time>2016-04-24T09:14:02Z</time>
      </trkpt>
      <trkpt lat="47.44926" lon="6.69514">
        <ele>403</ele>
        <time>2016-04-24T09:14:03Z</time>
      </trkpt>
      <trkpt lat="47.4493" lon="6.6951">
        <ele>403</ele>
        <time>2016-04-24T09:14:04Z</time>
      </trkpt>
      <trkpt lat="47.44935" lon="6.69502">
        <ele>403</ele>
        <time>2016-04-24T09:14:05Z</time>
      </trkpt>
      <trkpt lat="47.44936" lon="6.69496">
        <ele>399</ele>
        <time>2016-04-24T09:14:06Z</time>
      </trkpt>
      <trkpt lat="47.44937" lon="6.69491">
        <ele>398</ele>
        <time>2016-04-24T09:14:07Z</time>
      </trkpt>
      <trkpt lat="47.44939" lon="6.69486">
        <ele>398</ele>
        <time>2016-04-24T09:14:08Z</time>
      </trkpt>
      <trkpt lat="47.44942" lon="6.69479">
        <ele>397</ele>
        <time>2016-04-24T09:14:09Z</time>
      </trkpt>
      <trkpt lat="47.44945" lon="6.69474">
        <ele>397</ele>
        <time>2016-04-24T09:14:10Z</time>
      </trkpt>
      <trkpt lat="47.44949" lon="6.69466">
        <ele>396</ele>
        <time>2016-04-24T09:14:11Z</time>
      </trkpt>
      <trkpt lat="47.44953" lon="6.69458">
        <ele>396</ele>
        <time>2016-04-24T09:14:12Z</time>
      </trkpt>
      <trkpt lat="47.44955" lon="6.69452">
        <ele>395</ele>
        <time>2016-04-24T09:14:13Z</time>
      </trkpt>
      <trkpt lat="47.44958" lon="6.69449">
        <ele>395</ele>
        <time>2016-04-24T09:14:14Z</time>
      </trkpt>
      <trkpt lat="47.4496" lon="6.69445">
        <ele>395</ele>
        <time>2016-04-24T09:14:15Z</time>
      </trkpt>
      <trkpt lat="47.44964" lon="6.6944">
        <ele>395</ele>
        <time>2016-04-24T09:14:16Z</time>
      </trkpt>
      <trkpt lat="47.44967" lon="6.69436">
        <ele>394</ele>
        <time>2016-04-24T09:14:17Z</time>
      </trkpt>
      <trkpt lat="47.44971" lon="6.69431">
        <ele>394</ele>
        <time>2016-04-24T09:14:18Z</time>
      </trkpt>
      <trkpt lat="47.44974" lon="6.69427">
        <ele>393</ele>
        <time>2016-04-24T09:14:19Z</time>
      </trkpt>
      <trkpt lat="47.44978" lon="6.69422">
        <ele>393</ele>
        <time>2016-04-24T09:14:20Z</time>
      </trkpt>
      <trkpt lat="47.44982" lon="6.69418">
        <ele>392</ele>
        <time>2016-04-24T09:14:21Z</time>
      </trkpt>
      <trkpt lat="47.44986" lon="6.69413">
        <ele>389</ele>
        <time>2016-04-24T09:14:22Z</time>
      </trkpt>
      <trkpt lat="47.44994" lon="6.69398">
        <ele>388</ele>
        <time>2016-04-24T09:14:23Z</time>
      </trkpt>
      <trkpt lat="47.44998" lon="6.69392">
        <ele>388</ele>
        <time>2016-04-24T09:14:24Z</time>
      </trkpt>
      <trkpt lat="47.45001" lon="6.69386">
        <ele>375</ele>
        <time>2016-04-24T09:14:25Z</time>
      </trkpt>
      <trkpt lat="47.45003" lon="6.69384">
        <ele>375</ele>
        <time>2016-04-24T09:14:26Z</time>
      </trkpt>
      <trkpt lat="47.45005" lon="6.69381">
        <ele>374</ele>
        <time>2016-04-24T09:14:27Z</time>
      </trkpt>
      <trkpt lat="47.45002" lon="6.69378">
        <ele>374</ele>
        <time>2016-04-24T09:14:28Z</time>
      </trkpt>
      <trkpt lat="47.45003" lon="6.69371">
        <ele>373</ele>
        <time>2016-04-24T09:14:29Z</time>
      </trkpt>
      <trkpt lat="47.45003" lon="6.69365">
        <ele>374</ele>
        <time>2016-04-24T09:14:30Z</time>
      </trkpt>
      <trkpt lat="47.45003" lon="6.69358">
        <ele>374</ele>
        <time>2016-04-24T09:14:31Z</time>
      </trkpt>
      <trkpt lat="47.45006" lon="6.69351">
        <ele>375</ele>
        <time>2016-04-24T09:14:32Z</time>
      </trkpt>
      <trkpt lat="47.45008" lon="6.69343">
        <ele>376</ele>
        <time>2016-04-24T09:14:33Z</time>
      </trkpt>
      <trkpt lat="47.4501" lon="6.69333">
        <ele>374</ele>
        <time>2016-04-24T09:14:34Z</time>
      </trkpt>
      <trkpt lat="47.4501" lon="6.69325">
        <ele>372</ele>
        <time>2016-04-24T09:14:35Z</time>
      </trkpt>
      <trkpt lat="47.45015" lon="6.69315">
        <ele>367</ele>
        <time>2016-04-24T09:14:36Z</time>
      </trkpt>
      <trkpt lat="47.45019" lon="6.69307">
        <ele>365</ele>
        <time>2016-04-24T09:14:37Z</time>
      </trkpt>
      <trkpt lat="47.45008" lon="6.69292">
        <ele>365</ele>
        <time>2016-04-24T09:14:38Z</time>
      </trkpt>
      <trkpt lat="47.4501" lon="6.69279">
        <ele>364</ele>
        <time>2016-04-24T09:14:39Z</time>
      </trkpt>
      <trkpt lat="47.45012" lon="6.69271">
        <ele>364</ele>
        <time>2016-04-24T09:14:40Z</time>
      </trkpt>
      <trkpt lat="47.45015" lon="6.69262">
        <ele>365</ele>
        <time>2016-04-24T09:14:41Z</time>
      </trkpt>
      <trkpt lat="47.45018" lon="6.69254">
        <ele>364</ele>
        <time>2016-04-24T09:14:42Z</time>
      </trkpt>
      <trkpt lat="47.45017" lon="6.69248">
        <ele>361</ele>
        <time>2016-04-24T09:14:43Z</time>
      </trkpt>
      <trkpt lat="47.45018" lon="6.6924">
        <ele>359</ele>
        <time>2016-04-24T09:14:44Z</time>
      </trkpt>
      <trkpt lat="47.45018" lon="6.69235">
        <ele>357</ele>
        <time>2016-04-24T09:14:45Z</time>
      </trkpt>
      <trkpt lat="47.45018" lon="6.69226">
        <ele>356</ele>
        <time>2016-04-24T09:14:46Z</time>
      </trkpt>
      <trkpt lat="47.45018" lon="6.69218">
        <ele>354</ele>
        <time>2016-04-24T09:14:47Z</time>
      </trkpt>
      <trkpt lat="47.45016" lon="6.69212">
        <ele>354</ele>
        <time>2016-04-24T09:14:48Z</time>
      </trkpt>
      <trkpt lat="47.45016" lon="6.69204">
        <ele>354</ele>
        <time>2016-04-24T09:14:49Z</time>
      </trkpt>
      <trkpt lat="47.45016" lon="6.692">
        <ele>353</ele>
        <time>2016-04-24T09:14:50Z</time>
      </trkpt>
      <trkpt lat="47.45014" lon="6.69192">
        <ele>354</ele>
        <time>2016-04-24T09:14:51Z</time>
      </trkpt>
      <trkpt lat="47.45004" lon="6.69185">
        <ele>357</ele>
        <time>2016-04-24T09:14:52Z</time>
      </trkpt>
      <trkpt lat="47.44998" lon="6.69178">
        <ele>368</ele>
        <time>2016-04-24T09:14:53Z</time>
      </trkpt>
      <trkpt lat="47.44993" lon="6.69173">
        <ele>367</ele>
        <time>2016-04-24T09:14:54Z</time>
      </trkpt>
      <trkpt lat="47.44989" lon="6.69164">
        <ele>364</ele>
        <time>2016-04-24T09:14:55Z</time>
      </trkpt>
      <trkpt lat="47.44991" lon="6.69158">
        <ele>364</ele>
        <time>2016-04-24T09:14:56Z</time>
      </trkpt>
      <trkpt lat="47.44991" lon="6.69152">
        <ele>364</ele>
        <time>2016-04-24T09:14:57Z</time>
      </trkpt>
      <trkpt lat="47.44992" lon="6.69149">
        <ele>364</ele>
        <time>2016-04-24T09:14:58Z</time>
      </trkpt>
      <trkpt lat="47.44999" lon="6.69135">
        <ele>362</ele>
        <time>2016-04-24T09:14:59Z</time>
      </trkpt>
      <trkpt lat="47.45" lon="6.69126">
        <ele>345</ele>
        <time>2016-04-24T09:15:00Z</time>
      </trkpt>
      <trkpt lat="47.45001" lon="6.69114">
        <ele>344</ele>
        <time>2016-04-24T09:15:01Z</time>
      </trkpt>
      <trkpt lat="47.45001" lon="6.69107">
        <ele>344</ele>
        <time>2016-04-24T09:15:01.999Z</time>
      </trkpt>
      <trkpt lat="47.45003" lon="6.69095">
        <ele>345</ele>
        <time>2016-04-24T09:15:03Z</time>
      </trkpt>
      <trkpt lat="47.45004" lon="6.69089">
        <ele>346</ele>
        <time>2016-04-24T09:15:04Z</time>
      </trkpt>
      <trkpt lat="47.45003" lon="6.69085">
        <ele>348</ele>
        <time>2016-04-24T09:15:05Z</time>
      </trkpt>
      <trkpt lat="47.45003" lon="6.69079">
        <ele>344</ele>
        <time>2016-04-24T09:15:07Z</time>
      </trkpt>
      <trkpt lat="47.45" lon="6.69075">
        <ele>348</ele>
        <time>2016-04-24T09:15:08Z</time>
      </trkpt>
      <trkpt lat="47.44997" lon="6.6907">
        <ele>347</ele>
        <time>2016-04-24T09:15:09Z</time>
      </trkpt>
      <trkpt lat="47.44994" lon="6.69065">
        <ele>347</ele>
        <time>2016-04-24T09:15:10Z</time>
      </trkpt>
      <trkpt lat="47.44991" lon="6.69059">
        <ele>346</ele>
        <time>2016-04-24T09:15:11Z</time>
      </trkpt>
      <trkpt lat="47.44989" lon="6.69052">
        <ele>345</ele>
        <time>2016-04-24T09:15:12Z</time>
      </trkpt>
      <trkpt lat="47.44982" lon="6.69041">
        <ele>343</ele>
        <time>2016-04-24T09:15:13Z</time>
      </trkpt>
      <trkpt lat="47.44978" lon="6.69035">
        <ele>343</ele>
        <time>2016-04-24T09:15:14Z</time>
      </trkpt>
      <trkpt lat="47.44974" lon="6.69028">
        <ele>342</ele>
        <time>2016-04-24T09:15:15Z</time>
      </trkpt>
      <trkpt lat="47.44976" lon="6.69023">
        <ele>341</ele>
        <time>2016-04-24T09:15:17Z</time>
      </trkpt>
      <trkpt lat="47.44975" lon="6.69021">
        <ele>340</ele>
        <time>2016-04-24T09:15:18Z</time>
      </trkpt>
      <trkpt lat="47.44974" lon="6.69017">
        <ele>340</ele>
        <time>2016-04-24T09:15:19Z</time>
      </trkpt>
      <trkpt lat="47.44967" lon="6.69011">
        <ele>340</ele>
        <time>2016-04-24T09:15:20Z</time>
      </trkpt>
      <trkpt lat="47.44961" lon="6.69007">
        <ele>341</ele>
        <time>2016-04-24T09:15:21Z</time>
      </trkpt>
      <trkpt lat="47.44953" lon="6.68999">
        <ele>329</ele>
        <time>2016-04-24T09:15:22Z</time>
      </trkpt>
      <trkpt lat="47.44945" lon="6.68992">
        <ele>330</ele>
        <time>2016-04-24T09:15:23Z</time>
      </trkpt>
      <trkpt lat="47.44939" lon="6.68981">
        <ele>329</ele>
        <time>2016-04-24T09:15:24Z</time>
      </trkpt>
      <trkpt lat="47.44933" lon="6.68967">
        <ele>327</ele>
        <time>2016-04-24T09:15:25Z</time>
      </trkpt>
      <trkpt lat="47.44926" lon="6.68951">
        <ele>325</ele>
        <time>2016-04-24T09:15:26Z</time>
      </trkpt>
      <trkpt lat="47.44916" lon="6.68937">
        <ele>329</ele>
        <time>2016-04-24T09:15:27Z</time>
      </trkpt>
      <trkpt lat="47.4491" lon="6.68922">
        <ele>325</ele>
        <time>2016-04-24T09:15:28Z</time>
      </trkpt>
      <trkpt lat="47.44905" lon="6.6891">
        <ele>321</ele>
        <time>2016-04-24T09:15:29Z</time>
      </trkpt>
      <trkpt lat="47.44899" lon="6.68901">
        <ele>321</ele>
        <time>2016-04-24T09:15:30Z</time>
      </trkpt>
      <trkpt lat="47.4489" lon="6.68891">
        <ele>322</ele>
        <time>2016-04-24T09:15:31Z</time>
      </trkpt>
      <trkpt lat="47.44884" lon="6.68881">
        <ele>322</ele>
        <time>2016-04-24T09:15:32Z</time>
      </trkpt>
      <trkpt lat="47.44876" lon="6.68872">
        <ele>322</ele>
        <time>2016-04-24T09:15:33Z</time>
      </trkpt>
      <trkpt lat="47.44872" lon="6.68862">
        <ele>322</ele>
        <time>2016-04-24T09:15:34Z</time>
      </trkpt>
      <trkpt lat="47.44869" lon="6.68854">
        <ele>322</ele>
        <time>2016-04-24T09:15:35Z</time>
      </trkpt>
      <trkpt lat="47.44867" lon="6.68845">
        <ele>322</ele>
        <time>2016-04-24T09:15:36Z</time>
      </trkpt>
      <trkpt lat="47.44863" lon="6.68839">
        <ele>322</ele>
        <time>2016-04-24T09:15:37Z</time>
      </trkpt>
      <trkpt lat="47.44858" lon="6.68832">
        <ele>317</ele>
        <time>2016-04-24T09:15:38Z</time>
      </trkpt>
      <trkpt lat="47.44855" lon="6.68827">
        <ele>318</ele>
        <time>2016-04-24T09:15:39Z</time>
      </trkpt>
      <trkpt lat="47.44856" lon="6.68823">
        <ele>317</ele>
        <time>2016-04-24T09:15:40Z</time>
      </trkpt>
      <trkpt lat="47.44855" lon="6.68821">
        <ele>317</ele>
        <time>2016-04-24T09:15:41Z</time>
      </trkpt>
      <trkpt lat="47.44858" lon="6.68816">
        <ele>316</ele>
        <time>2016-04-24T09:15:43Z</time>
      </trkpt>
      <trkpt lat="47.4486" lon="6.68817">
        <ele>316</ele>
        <time>2016-04-24T09:15:44Z</time>
      </trkpt>
      <trkpt lat="47.44864" lon="6.68818">
        <ele>316</ele>
        <time>2016-04-24T09:15:44.999Z</time>
      </trkpt>
      <trkpt lat="47.44867" lon="6.68819">
        <ele>315</ele>
        <time>2016-04-24T09:15:46Z</time>
      </trkpt>
      <trkpt lat="47.44871" lon="6.68821">
        <ele>315</ele>
        <time>2016-04-24T09:15:47Z</time>
      </trkpt>
      <trkpt lat="47.44875" lon="6.68827">
        <ele>314</ele>
        <time>2016-04-24T09:15:48Z</time>
      </trkpt>
      <trkpt lat="47.44879" lon="6.68831">
        <ele>314</ele>
        <time>2016-04-24T09:15:49Z</time>
      </trkpt>
      <trkpt lat="47.44882" lon="6.68836">
        <ele>319</ele>
        <time>2016-04-24T09:15:50Z</time>
      </trkpt>
      <trkpt lat="47.44885" lon="6.6884">
        <ele>319</ele>
        <time>2016-04-24T09:15:51Z</time>
      </trkpt>
      <trkpt lat="47.44889" lon="6.68842">
        <ele>318</ele>
        <time>2016-04-24T09:15:52Z</time>
      </trkpt>
      <trkpt lat="47.44892" lon="6.68845">
        <ele>318</ele>
        <time>2016-04-24T09:15:53Z</time>
      </trkpt>
      <trkpt lat="47.44895" lon="6.68849">
        <ele>318</ele>
        <time>2016-04-24T09:15:54Z</time>
      </trkpt>
      <trkpt lat="47.44899" lon="6.68853">
        <ele>318</ele>
        <time>2016-04-24T09:15:55Z</time>
      </trkpt>
      <trkpt lat="47.44903" lon="6.68857">
        <ele>318</ele>
        <time>2016-04-24T09:15:56Z</time>
      </trkpt>
      <trkpt lat="47.44906" lon="6.68862">
        <ele>318</ele>
        <time>2016-04-24T09:15:57Z</time>
      </trkpt>
      <trkpt lat="47.4491" lon="6.68865">
        <ele>318</ele>
        <time>2016-04-24T09:15:58Z</time>
      </trkpt>
      <trkpt lat="47.44912" lon="6.68869">
        <ele>319</ele>
        <time>2016-04-24T09:15:59Z</time>
      </trkpt>
      <trkpt lat="47.44916" lon="6.68873">
        <ele>319</ele>
        <time>2016-04-24T09:16:00Z</time>
      </trkpt>
      <trkpt lat="47.44919" lon="6.68874">
        <ele>311</ele>
        <time>2016-04-24T09:16:01Z</time>
      </trkpt>
      <trkpt lat="47.44923" lon="6.68878">
        <ele>312</ele>
        <time>2016-04-24T09:16:02Z</time>
      </trkpt>
      <trkpt lat="47.44927" lon="6.68882">
        <ele>312</ele>
        <time>2016-04-24T09:16:03Z</time>
      </trkpt>
      <trkpt lat="47.44931" lon="6.68886">
        <ele>312</ele>
        <time>2016-04-24T09:16:04Z</time>
      </trkpt>
      <trkpt lat="47.44934" lon="6.68888">
        <ele>312</ele>
        <time>2016-04-24T09:16:05Z</time>
      </trkpt>
      <trkpt lat="47.44937" lon="6.68891">
        <ele>312</ele>
        <time>2016-04-24T09:16:06Z</time>
      </trkpt>
      <trkpt lat="47.44939" lon="6.68894">
        <ele>312</ele>
        <time>2016-04-24T09:16:07Z</time>
      </trkpt>
      <trkpt lat="47.44941" lon="6.68897">
        <ele>312</ele>
        <time>2016-04-24T09:16:08Z</time>
      </trkpt>
      <trkpt lat="47.44943" lon="6.68901">
        <ele>312</ele>
        <time>2016-04-24T09:16:09Z</time>
      </trkpt>
      <trkpt lat="47.44945" lon="6.68903">
        <ele>312</ele>
        <time>2016-04-24T09:16:10Z</time>
      </trkpt>
      <trkpt lat="47.44947" lon="6.68906">
        <ele>312</ele>
        <time>2016-04-24T09:16:11Z</time>
      </trkpt>
      <trkpt lat="47.44949" lon="6.68909">
        <ele>312</ele>
        <time>2016-04-24T09:16:12Z</time>
      </trkpt>
      <trkpt lat="47.44952" lon="6.68912">
        <ele>312</ele>
        <time>2016-04-24T09:16:13Z</time>
      </trkpt>
      <trkpt lat="47.44955" lon="6.68914">
        <ele>311</ele>
        <time>2016-04-24T09:16:14Z</time>
      </trkpt>
      <trkpt lat="47.44958" lon="6.68917">
        <ele>320</ele>
        <time>2016-04-24T09:16:15Z</time>
      </trkpt>
      <trkpt lat="47.44961" lon="6.6892">
        <ele>320</ele>
        <time>2016-04-24T09:16:16Z</time>
      </trkpt>
      <trkpt lat="47.44965" lon="6.68923">
        <ele>319</ele>
        <time>2016-04-24T09:16:17Z</time>
      </trkpt>
      <trkpt lat="47.44968" lon="6.68926">
        <ele>319</ele>
        <time>2016-04-24T09:16:18Z</time>
      </trkpt>
      <trkpt lat="47.44971" lon="6.68928">
        <ele>319</ele>
        <time>2016-04-24T09:16:19Z</time>
      </trkpt>
      <trkpt lat="47.44973" lon="6.68931">
        <ele>319</ele>
        <time>2016-04-24T09:16:20Z</time>
      </trkpt>
      <trkpt lat="47.44976" lon="6.68933">
        <ele>318</ele>
        <time>2016-04-24T09:16:21Z</time>
      </trkpt>
      <trkpt lat="47.44978" lon="6.68935">
        <ele>318</ele>
        <time>2016-04-24T09:16:22Z</time>
      </trkpt>
      <trkpt lat="47.4498" lon="6.68937">
        <ele>318</ele>
        <time>2016-04-24T09:16:23Z</time>
      </trkpt>
      <trkpt lat="47.44984" lon="6.68939">
        <ele>318</ele>
        <time>2016-04-24T09:16:40Z</time>
      </trkpt>
      <trkpt lat="47.44986" lon="6.68939">
        <ele>318</ele>
        <time>2016-04-24T09:16:40.999Z</time>
      </trkpt>
      <trkpt lat="47.44988" lon="6.68941">
        <ele>318</ele>
        <time>2016-04-24T09:16:43Z</time>
      </trkpt>
      <trkpt lat="47.4499" lon="6.68942">
        <ele>318</ele>
        <time>2016-04-24T09:16:44Z</time>
      </trkpt>
      <trkpt lat="47.4499" lon="6.68948">
        <ele>319</ele>
        <time>2016-04-24T09:18:27Z</time>
      </trkpt>
      <trkpt lat="47.44992" lon="6.68949">
        <ele>319</ele>
        <time>2016-04-24T09:18:28Z</time>
      </trkpt>
      <trkpt lat="47.44995" lon="6.68952">
        <ele>320</ele>
        <time>2016-04-24T09:18:30Z</time>
      </trkpt>
      <trkpt lat="47.44996" lon="6.68953">
        <ele>320</ele>
        <time>2016-04-24T09:18:31Z</time>
      </trkpt>
      <trkpt lat="47.45" lon="6.68957">
        <ele>321</ele>
        <time>2016-04-24T09:18:33Z</time>
      </trkpt>
      <trkpt lat="47.45002" lon="6.68959">
        <ele>312</ele>
        <time>2016-04-24T09:18:34Z</time>
      </trkpt>
      <trkpt lat="47.45004" lon="6.68961">
        <ele>313</ele>
        <time>2016-04-24T09:18:35Z</time>
      </trkpt>
      <trkpt lat="47.45007" lon="6.68963">
        <ele>313</ele>
        <time>2016-04-24T09:18:36Z</time>
      </trkpt>
      <trkpt lat="47.4501" lon="6.68965">
        <ele>313</ele>
        <time>2016-04-24T09:18:37Z</time>
      </trkpt>
      <trkpt lat="47.45014" lon="6.68968">
        <ele>313</ele>
        <time>2016-04-24T09:18:38Z</time>
      </trkpt>
      <trkpt lat="47.45018" lon="6.68971">
        <ele>313</ele>
        <time>2016-04-24T09:18:39Z</time>
      </trkpt>
      <trkpt lat="47.45022" lon="6.68973">
        <ele>313</ele>
        <time>2016-04-24T09:18:40Z</time>
      </trkpt>
      <trkpt lat="47.45026" lon="6.68976">
        <ele>313</ele>
        <time>2016-04-24T09:18:41Z</time>
      </trkpt>
      <trkpt lat="47.45034" lon="6.68981">
        <ele>312</ele>
        <time>2016-04-24T09:18:42Z</time>
      </trkpt>
      <trkpt lat="47.4504" lon="6.68984">
        <ele>312</ele>
        <time>2016-04-24T09:18:43Z</time>
      </trkpt>
      <trkpt lat="47.45044" lon="6.68987">
        <ele>311</ele>
        <time>2016-04-24T09:18:44Z</time>
      </trkpt>
      <trkpt lat="47.45048" lon="6.68991">
        <ele>311</ele>
        <time>2016-04-24T09:18:45Z</time>
      </trkpt>
      <trkpt lat="47.45053" lon="6.68995">
        <ele>310</ele>
        <time>2016-04-24T09:18:46Z</time>
      </trkpt>
      <trkpt lat="47.45057" lon="6.68999">
        <ele>310</ele>
        <time>2016-04-24T09:18:47Z</time>
      </trkpt>
      <trkpt lat="47.45062" lon="6.69003">
        <ele>316</ele>
        <time>2016-04-24T09:18:48Z</time>
      </trkpt>
      <trkpt lat="47.45067" lon="6.69008">
        <ele>315</ele>
        <time>2016-04-24T09:18:49Z</time>
      </trkpt>
      <trkpt lat="47.45071" lon="6.69013">
        <ele>315</ele>
        <time>2016-04-24T09:18:50Z</time>
      </trkpt>
      <trkpt lat="47.45076" lon="6.69019">
        <ele>315</ele>
        <time>2016-04-24T09:18:51Z</time>
      </trkpt>
      <trkpt lat="47.45081" lon="6.69024">
        <ele>316</ele>
        <time>2016-04-24T09:18:52Z</time>
      </trkpt>
      <trkpt lat="47.45086" lon="6.6903">
        <ele>307</ele>
        <time>2016-04-24T09:18:53Z</time>
      </trkpt>
      <trkpt lat="47.4509" lon="6.69035">
        <ele>308</ele>
        <time>2016-04-24T09:18:54Z</time>
      </trkpt>
      <trkpt lat="47.45094" lon="6.69041">
        <ele>308</ele>
        <time>2016-04-24T09:18:55Z</time>
      </trkpt>
      <trkpt lat="47.45097" lon="6.69045">
        <ele>308</ele>
        <time>2016-04-24T09:18:56Z</time>
      </trkpt>
      <trkpt lat="47.451" lon="6.6905">
        <ele>308</ele>
        <time>2016-04-24T09:18:57Z</time>
      </trkpt>
      <trkpt lat="47.45105" lon="6.69057">
        <ele>308</ele>
        <time>2016-04-24T09:18:58Z</time>
      </trkpt>
      <trkpt lat="47.45109" lon="6.69063">
        <ele>308</ele>
        <time>2016-04-24T09:18:59Z</time>
      </trkpt>
      <trkpt lat="47.45114" lon="6.69068">
        <ele>308</ele>
        <time>2016-04-24T09:19:00Z</time>
      </trkpt>
      <trkpt lat="47.45118" lon="6.69073">
        <ele>308</ele>
        <time>2016-04-24T09:19:01Z</time>
      </trkpt>
      <trkpt lat="47.45121" lon="6.69079">
        <ele>308</ele>
        <time>2016-04-24T09:19:02Z</time>
      </trkpt>
      <trkpt lat="47.45124" lon="6.69087">
        <ele>311</ele>
        <time>2016-04-24T09:19:03Z</time>
      </trkpt>
      <trkpt lat="47.45127" lon="6.69093">
        <ele>311</ele>
        <time>2016-04-24T09:19:04Z</time>
      </trkpt>
      <trkpt lat="47.45132" lon="6.691">
        <ele>311</ele>
        <time>2016-04-24T09:19:05Z</time>
      </trkpt>
      <trkpt lat="47.45135" lon="6.69105">
        <ele>311</ele>
        <time>2016-04-24T09:19:06Z</time>
      </trkpt>
      <trkpt lat="47.4514" lon="6.69111">
        <ele>311</ele>
        <time>2016-04-24T09:19:07Z</time>
      </trkpt>
      <trkpt lat="47.45145" lon="6.69111">
        <ele>310</ele>
        <time>2016-04-24T09:19:08Z</time>
      </trkpt>
      <trkpt lat="47.4515" lon="6.69113">
        <ele>310</ele>
        <time>2016-04-24T09:19:09Z</time>
      </trkpt>
      <trkpt lat="47.45155" lon="6.69115">
        <ele>310</ele>
        <time>2016-04-24T09:19:10Z</time>
      </trkpt>
      <trkpt lat="47.45161" lon="6.69112">
        <ele>310</ele>
        <time>2016-04-24T09:19:11Z</time>
      </trkpt>
      <trkpt lat="47.45168" lon="6.69117">
        <ele>306</ele>
        <time>2016-04-24T09:19:12Z</time>
      </trkpt>
      <trkpt lat="47.45172" lon="6.69119">
        <ele>306</ele>
        <time>2016-04-24T09:19:13Z</time>
      </trkpt>
      <trkpt lat="47.45179" lon="6.69123">
        <ele>306</ele>
        <time>2016-04-24T09:19:14Z</time>
      </trkpt>
      <trkpt lat="47.45184" lon="6.69123">
        <ele>306</ele>
        <time>2016-04-24T09:19:15Z</time>
      </trkpt>
      <trkpt lat="47.45188" lon="6.69122">
        <ele>306</ele>
        <time>2016-04-24T09:19:16Z</time>
      </trkpt>
      <trkpt lat="47.45195" lon="6.69123">
        <ele>306</ele>
        <time>2016-04-24T09:19:17Z</time>
      </trkpt>
      <trkpt lat="47.45198" lon="6.69119">
        <ele>306</ele>
        <time>2016-04-24T09:19:18Z</time>
      </trkpt>
      <trkpt lat="47.45202" lon="6.69114">
        <ele>305</ele>
        <time>2016-04-24T09:19:19Z</time>
      </trkpt>
      <trkpt lat="47.45206" lon="6.6911">
        <ele>305</ele>
        <time>2016-04-24T09:19:20Z</time>
      </trkpt>
      <trkpt lat="47.45211" lon="6.69105">
        <ele>305</ele>
        <time>2016-04-24T09:19:21Z</time>
      </trkpt>
      <trkpt lat="47.45216" lon="6.69101">
        <ele>305</ele>
        <time>2016-04-24T09:19:22Z</time>
      </trkpt>
      <trkpt lat="47.4522" lon="6.69097">
        <ele>305</ele>
        <time>2016-04-24T09:19:23Z</time>
      </trkpt>
      <trkpt lat="47.45224" lon="6.69092">
        <ele>305</ele>
        <time>2016-04-24T09:19:24Z</time>
      </trkpt>
      <trkpt lat="47.45229" lon="6.69088">
        <ele>305</ele>
        <time>2016-04-24T09:19:25Z</time>
      </trkpt>
      <trkpt lat="47.45233" lon="6.69084">
        <ele>305</ele>
        <time>2016-04-24T09:19:26Z</time>
      </trkpt>
      <trkpt lat="47.45237" lon="6.6908">
        <ele>304</ele>
        <time>2016-04-24T09:19:27Z</time>
      </trkpt>
      <trkpt lat="47.45241" lon="6.69075">
        <ele>304</ele>
        <time>2016-04-24T09:19:28Z</time>
      </trkpt>
      <trkpt lat="47.45246" lon="6.6907">
        <ele>304</ele>
        <time>2016-04-24T09:19:29Z</time>
      </trkpt>
      <trkpt lat="47.4525" lon="6.69065">
        <ele>304</ele>
        <time>2016-04-24T09:19:30Z</time>
      </trkpt>
      <trkpt lat="47.45255" lon="6.69062">
        <ele>304</ele>
        <time>2016-04-24T09:19:31Z</time>
      </trkpt>
      <trkpt lat="47.4526" lon="6.69058">
        <ele>304</ele>
        <time>2016-04-24T09:19:31.998Z</time>
      </trkpt>
      <trkpt lat="47.45263" lon="6.69054">
        <ele>304</ele>
        <time>2016-04-24T09:19:33Z</time>
      </trkpt>
      <trkpt lat="47.45267" lon="6.6905">
        <ele>304</ele>
        <time>2016-04-24T09:19:34Z</time>
      </trkpt>
      <trkpt lat="47.45272" lon="6.69047">
        <ele>304</ele>
        <time>2016-04-24T09:19:35Z</time>
      </trkpt>
      <trkpt lat="47.45277" lon="6.69045">
        <ele>304</ele>
        <time>2016-04-24T09:19:36Z</time>
      </trkpt>
      <trkpt lat="47.45282" lon="6.69043">
        <ele>304</ele>
        <time>2016-04-24T09:19:37Z</time>
      </trkpt>
      <trkpt lat="47.45287" lon="6.69041">
        <ele>304</ele>
        <time>2016-04-24T09:19:38Z</time>
      </trkpt>
      <trkpt lat="47.45292" lon="6.69038">
        <ele>304</ele>
        <time>2016-04-24T09:19:38.999Z</time>
      </trkpt>
      <trkpt lat="47.45298" lon="6.69036">
        <ele>304</ele>
        <time>2016-04-24T09:19:40Z</time>
      </trkpt>
      <trkpt lat="47.45302" lon="6.69033">
        <ele>304</ele>
        <time>2016-04-24T09:19:41Z</time>
      </trkpt>
      <trkpt lat="47.45305" lon="6.69033">
        <ele>304</ele>
        <time>2016-04-24T09:19:42Z</time>
      </trkpt>
      <trkpt lat="47.45312" lon="6.69029">
        <ele>304</ele>
        <time>2016-04-24T09:19:43Z</time>
      </trkpt>
      <trkpt lat="47.45317" lon="6.69026">
        <ele>304</ele>
        <time>2016-04-24T09:19:43.999Z</time>
      </trkpt>
      <trkpt lat="47.45321" lon="6.69026">
        <ele>304</ele>
        <time>2016-04-24T09:19:45Z</time>
      </trkpt>
      <trkpt lat="47.45323" lon="6.69024">
        <ele>304</ele>
        <time>2016-04-24T09:19:46Z</time>
      </trkpt>
      <trkpt lat="47.45327" lon="6.69022">
        <ele>304</ele>
        <time>2016-04-24T09:19:46.999Z</time>
      </trkpt>
      <trkpt lat="47.45334" lon="6.69019">
        <ele>304</ele>
        <time>2016-04-24T09:19:48Z</time>
      </trkpt>
      <trkpt lat="47.45339" lon="6.69017">
        <ele>304</ele>
        <time>2016-04-24T09:19:49Z</time>
      </trkpt>
      <trkpt lat="47.45343" lon="6.69015">
        <ele>304</ele>
        <time>2016-04-24T09:19:50Z</time>
      </trkpt>
      <trkpt lat="47.45349" lon="6.69013">
        <ele>304</ele>
        <time>2016-04-24T09:19:51Z</time>
      </trkpt>
      <trkpt lat="47.45355" lon="6.69012">
        <ele>304</ele>
        <time>2016-04-24T09:19:52Z</time>
      </trkpt>
      <trkpt lat="47.4536" lon="6.69009">
        <ele>304</ele>
        <time>2016-04-24T09:19:53Z</time>
      </trkpt>
      <trkpt lat="47.45365" lon="6.69007">
        <ele>304</ele>
        <time>2016-04-24T09:19:54Z</time>
      </trkpt>
      <trkpt lat="47.45369" lon="6.69002">
        <ele>304</ele>
        <time>2016-04-24T09:19:55Z</time>
      </trkpt>
      <trkpt lat="47.45372" lon="6.68998">
        <ele>304</ele>
        <time>2016-04-24T09:19:56Z</time>
      </trkpt>
      <trkpt lat="47.45376" lon="6.68994">
        <ele>304</ele>
        <time>2016-04-24T09:19:57Z</time>
      </trkpt>
      <trkpt lat="47.45381" lon="6.68989">
        <ele>304</ele>
        <time>2016-04-24T09:19:58Z</time>
      </trkpt>
      <trkpt lat="47.45385" lon="6.68986">
        <ele>303</ele>
        <time>2016-04-24T09:19:59Z</time>
      </trkpt>
      <trkpt lat="47.45387" lon="6.68982">
        <ele>303</ele>
        <time>2016-04-24T09:20:00Z</time>
      </trkpt>
      <trkpt lat="47.45391" lon="6.68979">
        <ele>303</ele>
        <time>2016-04-24T09:20:01Z</time>
      </trkpt>
      <trkpt lat="47.45394" lon="6.68975">
        <ele>303</ele>
        <time>2016-04-24T09:20:02Z</time>
      </trkpt>
      <trkpt lat="47.45399" lon="6.68971">
        <ele>303</ele>
        <time>2016-04-24T09:20:03Z</time>
      </trkpt>
      <trkpt lat="47.45402" lon="6.68968">
        <ele>303</ele>
        <time>2016-04-24T09:20:04Z</time>
      </trkpt>
      <trkpt lat="47.45407" lon="6.68965">
        <ele>303</ele>
        <time>2016-04-24T09:20:05Z</time>
      </trkpt>
      <trkpt lat="47.45411" lon="6.6896">
        <ele>303</ele>
        <time>2016-04-24T09:20:06Z</time>
      </trkpt>
      <trkpt lat="47.45415" lon="6.68957">
        <ele>303</ele>
        <time>2016-04-24T09:20:07Z</time>
      </trkpt>
      <trkpt lat="47.45418" lon="6.68954">
        <ele>303</ele>
        <time>2016-04-24T09:20:08Z</time>
      </trkpt>
      <trkpt lat="47.45421" lon="6.68951">
        <ele>303</ele>
        <time>2016-04-24T09:20:09Z</time>
      </trkpt>
      <trkpt lat="47.45425" lon="6.68948">
        <ele>303</ele>
        <time>2016-04-24T09:20:10Z</time>
      </trkpt>
      <trkpt lat="47.45429" lon="6.68945">
        <ele>303</ele>
        <time>2016-04-24T09:20:11Z</time>
      </trkpt>
      <trkpt lat="47.45433" lon="6.68941">
        <ele>303</ele>
        <time>2016-04-24T09:20:12.001Z</time>
      </trkpt>
      <trkpt lat="47.45438" lon="6.68936">
        <ele>303</ele>
        <time>2016-04-24T09:20:13Z</time>
      </trkpt>
      <trkpt lat="47.45443" lon="6.68932">
        <ele>303</ele>
        <time>2016-04-24T09:20:14Z</time>
      </trkpt>
      <trkpt lat="47.45448" lon="6.68928">
        <ele>303</ele>
        <time>2016-04-24T09:20:15Z</time>
      </trkpt>
      <trkpt lat="47.45452" lon="6.68924">
        <ele>303</ele>
        <time>2016-04-24T09:20:16Z</time>
      </trkpt>
      <trkpt lat="47.45457" lon="6.6892">
        <ele>303</ele>
        <time>2016-04-24T09:20:17Z</time>
      </trkpt>
      <trkpt lat="47.45462" lon="6.68916">
        <ele>303</ele>
        <time>2016-04-24T09:20:18Z</time>
      </trkpt>
      <trkpt lat="47.45465" lon="6.68914">
        <ele>303</ele>
        <time>2016-04-24T09:20:19Z</time>
      </trkpt>
      <trkpt lat="47.4547" lon="6.6891">
        <ele>303</ele>
        <time>2016-04-24T09:20:20Z</time>
      </trkpt>
      <trkpt lat="47.45474" lon="6.68909">
        <ele>303</ele>
        <time>2016-04-24T09:20:21Z</time>
      </trkpt>
      <trkpt lat="47.45479" lon="6.68904">
        <ele>303</ele>
        <time>2016-04-24T09:20:22Z</time>
      </trkpt>
      <trkpt lat="47.45483" lon="6.68902">
        <ele>303</ele>
        <time>2016-04-24T09:20:23Z</time>
      </trkpt>
      <trkpt lat="47.45487" lon="6.689">
        <ele>303</ele>
        <time>2016-04-24T09:20:24Z</time>
      </trkpt>
      <trkpt lat="47.4549" lon="6.68897">
        <ele>303</ele>
        <time>2016-04-24T09:20:25Z</time>
      </trkpt>
      <trkpt lat="47.45496" lon="6.68896">
        <ele>303</ele>
        <time>2016-04-24T09:20:26Z</time>
      </trkpt>
      <trkpt lat="47.45499" lon="6.68892">
        <ele>303</ele>
        <time>2016-04-24T09:20:27Z</time>
      </trkpt>
      <trkpt lat="47.45502" lon="6.68886">
        <ele>303</ele>
        <time>2016-04-24T09:20:28Z</time>
      </trkpt>
      <trkpt lat="47.45506" lon="6.68882">
        <ele>303</ele>
        <time>2016-04-24T09:20:29Z</time>
      </trkpt>
      <trkpt lat="47.4551" lon="6.68877">
        <ele>303</ele>
        <time>2016-04-24T09:20:30Z</time>
      </trkpt>
      <trkpt lat="47.45514" lon="6.68874">
        <ele>303</ele>
        <time>2016-04-24T09:20:31Z</time>
      </trkpt>
      <trkpt lat="47.45516" lon="6.6887">
        <ele>303</ele>
        <time>2016-04-24T09:20:32Z</time>
      </trkpt>
      <trkpt lat="47.45517" lon="6.68865">
        <ele>303</ele>
        <time>2016-04-24T09:20:33Z</time>
      </trkpt>
      <trkpt lat="47.4552" lon="6.68861">
        <ele>303</ele>
        <time>2016-04-24T09:20:34Z</time>
      </trkpt>
      <trkpt lat="47.45523" lon="6.6886">
        <ele>303</ele>
        <time>2016-04-24T09:20:35Z</time>
      </trkpt>
      <trkpt lat="47.45527" lon="6.68859">
        <ele>303</ele>
        <time>2016-04-24T09:20:37Z</time>
      </trkpt>
      <trkpt lat="47.45528" lon="6.6886">
        <ele>303</ele>
        <time>2016-04-24T09:20:38Z</time>
      </trkpt>
      <trkpt lat="47.4553" lon="6.68863">
        <ele>303</ele>
        <time>2016-04-24T09:20:39Z</time>
      </trkpt>
      <trkpt lat="47.45532" lon="6.68866">
        <ele>303</ele>
        <time>2016-04-24T09:20:40Z</time>
      </trkpt>
      <trkpt lat="47.45535" lon="6.68869">
        <ele>303</ele>
        <time>2016-04-24T09:20:41Z</time>
      </trkpt>
      <trkpt lat="47.45537" lon="6.68873">
        <ele>303</ele>
        <time>2016-04-24T09:20:42Z</time>
      </trkpt>
      <trkpt lat="47.45542" lon="6.68878">
        <ele>303</ele>
        <time>2016-04-24T09:20:43Z</time>
      </trkpt>
      <trkpt lat="47.45546" lon="6.68881">
        <ele>303</ele>
        <time>2016-04-24T09:20:44Z</time>
      </trkpt>
      <trkpt lat="47.45549" lon="6.68885">
        <ele>303</ele>
        <time>2016-04-24T09:20:45Z</time>
      </trkpt>
      <trkpt lat="47.45553" lon="6.68889">
        <ele>303</ele>
        <time>2016-04-24T09:20:46Z</time>
      </trkpt>
      <trkpt lat="47.45557" lon="6.68892">
        <ele>303</ele>
        <time>2016-04-24T09:20:47Z</time>
      </trkpt>
      <trkpt lat="47.4556" lon="6.68896">
        <ele>303</ele>
        <time>2016-04-24T09:20:48Z</time>
      </trkpt>
      <trkpt lat="47.45564" lon="6.68899">
        <ele>303</ele>
        <time>2016-04-24T09:20:49Z</time>
      </trkpt>
      <trkpt lat="47.45567" lon="6.68902">
        <ele>303</ele>
        <time>2016-04-24T09:20:50Z</time>
      </trkpt>
      <trkpt lat="47.45572" lon="6.68908">
        <ele>303</ele>
        <time>2016-04-24T09:20:51Z</time>
      </trkpt>
      <trkpt lat="47.45576" lon="6.68913">
        <ele>302</ele>
        <time>2016-04-24T09:20:52Z</time>
      </trkpt>
      <trkpt lat="47.45579" lon="6.68916">
        <ele>302</ele>
        <time>2016-04-24T09:20:53Z</time>
      </trkpt>
      <trkpt lat="47.45583" lon="6.68921">
        <ele>302</ele>
        <time>2016-04-24T09:20:54Z</time>
      </trkpt>
      <trkpt lat="47.45585" lon="6.68925">
        <ele>302</ele>
        <time>2016-04-24T09:20:55Z</time>
      </trkpt>
      <trkpt lat="47.45588" lon="6.68928">
        <ele>302</ele>
        <time>2016-04-24T09:20:56Z</time>
      </trkpt>
      <trkpt lat="47.45591" lon="6.68933">
        <ele>302</ele>
        <time>2016-04-24T09:20:57Z</time>
      </trkpt>
      <trkpt lat="47.45595" lon="6.68936">
        <ele>302</ele>
        <time>2016-04-24T09:20:58Z</time>
      </trkpt>
      <trkpt lat="47.45599" lon="6.6894">
        <ele>302</ele>
        <time>2016-04-24T09:20:59Z</time>
      </trkpt>
      <trkpt lat="47.45602" lon="6.68943">
        <ele>302</ele>
        <time>2016-04-24T09:21:00Z</time>
      </trkpt>
      <trkpt lat="47.45606" lon="6.68947">
        <ele>302</ele>
        <time>2016-04-24T09:21:01Z</time>
      </trkpt>
      <trkpt lat="47.45609" lon="6.6895">
        <ele>302</ele>
        <time>2016-04-24T09:21:02Z</time>
      </trkpt>
      <trkpt lat="47.45613" lon="6.68954">
        <ele>302</ele>
        <time>2016-04-24T09:21:03Z</time>
      </trkpt>
      <trkpt lat="47.45617" lon="6.68958">
        <ele>302</ele>
        <time>2016-04-24T09:21:04Z</time>
      </trkpt>
      <trkpt lat="47.4562" lon="6.68963">
        <ele>302</ele>
        <time>2016-04-24T09:21:05Z</time>
      </trkpt>
      <trkpt lat="47.45622" lon="6.68966">
        <ele>302</ele>
        <time>2016-04-24T09:21:06Z</time>
      </trkpt>
      <trkpt lat="47.45626" lon="6.6897">
        <ele>303</ele>
        <time>2016-04-24T09:21:07Z</time>
      </trkpt>
      <trkpt lat="47.45629" lon="6.68974">
        <ele>303</ele>
        <time>2016-04-24T09:21:08Z</time>
      </trkpt>
      <trkpt lat="47.45632" lon="6.68977">
        <ele>303</ele>
        <time>2016-04-24T09:21:09Z</time>
      </trkpt>
      <trkpt lat="47.45636" lon="6.68981">
        <ele>303</ele>
        <time>2016-04-24T09:21:10Z</time>
      </trkpt>
      <trkpt lat="47.45639" lon="6.68984">
        <ele>303</ele>
        <time>2016-04-24T09:21:11Z</time>
      </trkpt>
      <trkpt lat="47.45643" lon="6.68987">
        <ele>303</ele>
        <time>2016-04-24T09:21:12Z</time>
      </trkpt>
      <trkpt lat="47.45646" lon="6.6899">
        <ele>303</ele>
        <time>2016-04-24T09:21:13Z</time>
      </trkpt>
      <trkpt lat="47.4565" lon="6.68993">
        <ele>303</ele>
        <time>2016-04-24T09:21:14Z</time>
      </trkpt>
      <trkpt lat="47.45653" lon="6.68996">
        <ele>303</ele>
        <time>2016-04-24T09:21:15Z</time>
      </trkpt>
      <trkpt lat="47.45657" lon="6.68999">
        <ele>303</ele>
        <time>2016-04-24T09:21:16Z</time>
      </trkpt>
      <trkpt lat="47.4566" lon="6.69003">
        <ele>303</ele>
        <time>2016-04-24T09:21:17Z</time>
      </trkpt>
      <trkpt lat="47.45663" lon="6.69006">
        <ele>303</ele>
        <time>2016-04-24T09:21:18Z</time>
      </trkpt>
      <trkpt lat="47.45666" lon="6.6901">
        <ele>303</ele>
        <time>2016-04-24T09:21:19Z</time>
      </trkpt>
      <trkpt lat="47.45669" lon="6.69014">
        <ele>303</ele>
        <time>2016-04-24T09:21:20Z</time>
      </trkpt>
      <trkpt lat="47.45672" lon="6.69018">
        <ele>303</ele>
        <time>2016-04-24T09:21:21Z</time>
      </trkpt>
      <trkpt lat="47.45675" lon="6.69022">
        <ele>303</ele>
        <time>2016-04-24T09:21:22Z</time>
      </trkpt>
      <trkpt lat="47.45678" lon="6.69025">
        <ele>303</ele>
        <time>2016-04-24T09:21:23Z</time>
      </trkpt>
      <trkpt lat="47.45681" lon="6.69029">
        <ele>303</ele>
        <time>2016-04-24T09:21:24Z</time>
      </trkpt>
      <trkpt lat="47.45684" lon="6.69032">
        <ele>303</ele>
        <time>2016-04-24T09:21:25Z</time>
      </trkpt>
      <trkpt lat="47.45687" lon="6.69036">
        <ele>303</ele>
        <time>2016-04-24T09:21:26Z</time>
      </trkpt>
      <trkpt lat="47.4569" lon="6.6904">
        <ele>303</ele>
        <time>2016-04-24T09:21:27Z</time>
      </trkpt>
      <trkpt lat="47.45694" lon="6.69044">
        <ele>303</ele>
        <time>2016-04-24T09:21:28Z</time>
      </trkpt>
      <trkpt lat="47.45697" lon="6.69048">
        <ele>303</ele>
        <time>2016-04-24T09:21:29Z</time>
      </trkpt>
      <trkpt lat="47.45701" lon="6.69052">
        <ele>303</ele>
        <time>2016-04-24T09:21:30Z</time>
      </trkpt>
      <trkpt lat="47.45706" lon="6.69057">
        <ele>303</ele>
        <time>2016-04-24T09:21:31Z</time>
      </trkpt>
      <trkpt lat="47.4571" lon="6.69061">
        <ele>303</ele>
        <time>2016-04-24T09:21:32Z</time>
      </trkpt>
      <trkpt lat="47.45713" lon="6.69065">
        <ele>303</ele>
        <time>2016-04-24T09:21:33Z</time>
      </trkpt>
      <trkpt lat="47.45717" lon="6.69068">
        <ele>303</ele>
        <time>2016-04-24T09:21:34Z</time>
      </trkpt>
      <trkpt lat="47.45721" lon="6.69072">
        <ele>303</ele>
        <time>2016-04-24T09:21:35Z</time>
      </trkpt>
      <trkpt lat="47.45724" lon="6.69076">
        <ele>303</ele>
        <time>2016-04-24T09:21:36Z</time>
      </trkpt>
      <trkpt lat="47.45729" lon="6.69081">
        <ele>303</ele>
        <time>2016-04-24T09:21:37Z</time>
      </trkpt>
      <trkpt lat="47.45732" lon="6.69085">
        <ele>303</ele>
        <time>2016-04-24T09:21:38Z</time>
      </trkpt>
      <trkpt lat="47.45735" lon="6.69089">
        <ele>303</ele>
        <time>2016-04-24T09:21:39Z</time>
      </trkpt>
      <trkpt lat="47.45739" lon="6.69093">
        <ele>303</ele>
        <time>2016-04-24T09:21:40Z</time>
      </trkpt>
      <trkpt lat="47.45743" lon="6.69097">
        <ele>303</ele>
        <time>2016-04-24T09:21:41Z</time>
      </trkpt>
      <trkpt lat="47.45746" lon="6.69101">
        <ele>303</ele>
        <time>2016-04-24T09:21:42Z</time>
      </trkpt>
      <trkpt lat="47.4575" lon="6.69105">
        <ele>303</ele>
        <time>2016-04-24T09:21:43Z</time>
      </trkpt>
      <trkpt lat="47.45753" lon="6.69109">
        <ele>303</ele>
        <time>2016-04-24T09:21:44Z</time>
      </trkpt>
      <trkpt lat="47.45757" lon="6.69113">
        <ele>303</ele>
        <time>2016-04-24T09:21:45Z</time>
      </trkpt>
      <trkpt lat="47.45761" lon="6.69118">
        <ele>303</ele>
        <time>2016-04-24T09:21:46Z</time>
      </trkpt>
      <trkpt lat="47.45764" lon="6.69121">
        <ele>303</ele>
        <time>2016-04-24T09:21:47Z</time>
      </trkpt>
      <trkpt lat="47.45768" lon="6.69125">
        <ele>303</ele>
        <time>2016-04-24T09:21:48Z</time>
      </trkpt>
      <trkpt lat="47.45771" lon="6.69129">
        <ele>303</ele>
        <time>2016-04-24T09:21:49Z</time>
      </trkpt>
      <trkpt lat="47.45775" lon="6.69134">
        <ele>303</ele>
        <time>2016-04-24T09:21:50Z</time>
      </trkpt>
      <trkpt lat="47.45778" lon="6.69138">
        <ele>303</ele>
        <time>2016-04-24T09:21:51Z</time>
      </trkpt>
      <trkpt lat="47.45782" lon="6.69142">
        <ele>303</ele>
        <time>2016-04-24T09:21:52Z</time>
      </trkpt>
      <trkpt lat="47.45785" lon="6.69146">
        <ele>303</ele>
        <time>2016-04-24T09:21:53Z</time>
      </trkpt>
      <trkpt lat="47.45788" lon="6.6915">
        <ele>303</ele>
        <time>2016-04-24T09:21:54Z</time>
      </trkpt>
      <trkpt lat="47.45792" lon="6.69153">
        <ele>302</ele>
        <time>2016-04-24T09:21:55Z</time>
      </trkpt>
      <trkpt lat="47.45796" lon="6.69157">
        <ele>302</ele>
        <time>2016-04-24T09:21:56Z</time>
      </trkpt>
      <trkpt lat="47.458" lon="6.69161">
        <ele>302</ele>
        <time>2016-04-24T09:21:57Z</time>
      </trkpt>
      <trkpt lat="47.45803" lon="6.69165">
        <ele>302</ele>
        <time>2016-04-24T09:21:58Z</time>
      </trkpt>
      <trkpt lat="47.45807" lon="6.69168">
        <ele>303</ele>
        <time>2016-04-24T09:21:59Z</time>
      </trkpt>
      <trkpt lat="47.45811" lon="6.69172">
        <ele>302</ele>
        <time>2016-04-24T09:22:00Z</time>
      </trkpt>
      <trkpt lat="47.45814" lon="6.69176">
        <ele>302</ele>
        <time>2016-04-24T09:22:01Z</time>
      </trkpt>
      <trkpt lat="47.45817" lon="6.6918">
        <ele>302</ele>
        <time>2016-04-24T09:22:02Z</time>
      </trkpt>
      <trkpt lat="47.45821" lon="6.69184">
        <ele>302</ele>
        <time>2016-04-24T09:22:03Z</time>
      </trkpt>
      <trkpt lat="47.45824" lon="6.69188">
        <ele>302</ele>
        <time>2016-04-24T09:22:04Z</time>
      </trkpt>
      <trkpt lat="47.45827" lon="6.69191">
        <ele>303</ele>
        <time>2016-04-24T09:22:05Z</time>
      </trkpt>
      <trkpt lat="47.4583" lon="6.69194">
        <ele>303</ele>
        <time>2016-04-24T09:22:06Z</time>
      </trkpt>
      <trkpt lat="47.45832" lon="6.69198">
        <ele>303</ele>
        <time>2016-04-24T09:22:07Z</time>
      </trkpt>
      <trkpt lat="47.45836" lon="6.69201">
        <ele>302</ele>
        <time>2016-04-24T09:22:08Z</time>
      </trkpt>
      <trkpt lat="47.45838" lon="6.69203">
        <ele>302</ele>
        <time>2016-04-24T09:22:09Z</time>
      </trkpt>
      <trkpt lat="47.45841" lon="6.69206">
        <ele>302</ele>
        <time>2016-04-24T09:22:10Z</time>
      </trkpt>
      <trkpt lat="47.45843" lon="6.69209">
        <ele>302</ele>
        <time>2016-04-24T09:22:11Z</time>
      </trkpt>
      <trkpt lat="47.45846" lon="6.69212">
        <ele>302</ele>
        <time>2016-04-24T09:22:12Z</time>
      </trkpt>
      <trkpt lat="47.45848" lon="6.69215">
        <ele>302</ele>
        <time>2016-04-24T09:22:13Z</time>
      </trkpt>
      <trkpt lat="47.45851" lon="6.69218">
        <ele>302</ele>
        <time>2016-04-24T09:22:14Z</time>
      </trkpt>
      <trkpt lat="47.45853" lon="6.69221">
        <ele>302</ele>
        <time>2016-04-24T09:22:15Z</time>
      </trkpt>
      <trkpt lat="47.45856" lon="6.69224">
        <ele>302</ele>
        <time>2016-04-24T09:22:16Z</time>
      </trkpt>
      <trkpt lat="47.45859" lon="6.69227">
        <ele>302</ele>
        <time>2016-04-24T09:22:17Z</time>
      </trkpt>
      <trkpt lat="47.45861" lon="6.6923">
        <ele>302</ele>
        <time>2016-04-24T09:22:18Z</time>
      </trkpt>
      <trkpt lat="47.45864" lon="6.69233">
        <ele>302</ele>
        <time>2016-04-24T09:22:19Z</time>
      </trkpt>
      <trkpt lat="47.45867" lon="6.69236">
        <ele>302</ele>
        <time>2016-04-24T09:22:20Z</time>
      </trkpt>
      <trkpt lat="47.4587" lon="6.69239">
        <ele>302</ele>
        <time>2016-04-24T09:22:21Z</time>
      </trkpt>
      <trkpt lat="47.45874" lon="6.69243">
        <ele>302</ele>
        <time>2016-04-24T09:22:22Z</time>
      </trkpt>
      <trkpt lat="47.45877" lon="6.69246">
        <ele>302</ele>
        <time>2016-04-24T09:22:23Z</time>
      </trkpt>
      <trkpt lat="47.4588" lon="6.6925">
        <ele>302</ele>
        <time>2016-04-24T09:22:24Z</time>
      </trkpt>
      <trkpt lat="47.45883" lon="6.69255">
        <ele>302</ele>
        <time>2016-04-24T09:22:25Z</time>
      </trkpt>
      <trkpt lat="47.45886" lon="6.69258">
        <ele>302</ele>
        <time>2016-04-24T09:22:26Z</time>
      </trkpt>
      <trkpt lat="47.4589" lon="6.69262">
        <ele>302</ele>
        <time>2016-04-24T09:22:27Z</time>
      </trkpt>
      <trkpt lat="47.45894" lon="6.69266">
        <ele>302</ele>
        <time>2016-04-24T09:22:28Z</time>
      </trkpt>
      <trkpt lat="47.45898" lon="6.6927">
        <ele>302</ele>
        <time>2016-04-24T09:22:29Z</time>
      </trkpt>
      <trkpt lat="47.45902" lon="6.69274">
        <ele>302</ele>
        <time>2016-04-24T09:22:30Z</time>
      </trkpt>
      <trkpt lat="47.45906" lon="6.69278">
        <ele>302</ele>
        <time>2016-04-24T09:22:31Z</time>
      </trkpt>
      <trkpt lat="47.4591" lon="6.69282">
        <ele>302</ele>
        <time>2016-04-24T09:22:32Z</time>
      </trkpt>
      <trkpt lat="47.45915" lon="6.69286">
        <ele>302</ele>
        <time>2016-04-24T09:22:33Z</time>
      </trkpt>
      <trkpt lat="47.45919" lon="6.69291">
        <ele>301</ele>
        <time>2016-04-24T09:22:34Z</time>
      </trkpt>
      <trkpt lat="47.45923" lon="6.69295">
        <ele>301</ele>
        <time>2016-04-24T09:22:35Z</time>
      </trkpt>
      <trkpt lat="47.45926" lon="6.69298">
        <ele>301</ele>
        <time>2016-04-24T09:22:36Z</time>
      </trkpt>
      <trkpt lat="47.45928" lon="6.69303">
        <ele>301</ele>
        <time>2016-04-24T09:22:37Z</time>
      </trkpt>
      <trkpt lat="47.45932" lon="6.69307">
        <ele>301</ele>
        <time>2016-04-24T09:22:38Z</time>
      </trkpt>
      <trkpt lat="47.45935" lon="6.69311">
        <ele>301</ele>
        <time>2016-04-24T09:22:39Z</time>
      </trkpt>
      <trkpt lat="47.45939" lon="6.69316">
        <ele>301</ele>
        <time>2016-04-24T09:22:40Z</time>
      </trkpt>
      <trkpt lat="47.45943" lon="6.6932">
        <ele>301</ele>
        <time>2016-04-24T09:22:41Z</time>
      </trkpt>
      <trkpt lat="47.45947" lon="6.69324">
        <ele>301</ele>
        <time>2016-04-24T09:22:42Z</time>
      </trkpt>
      <trkpt lat="47.45951" lon="6.69328">
        <ele>301</ele>
        <time>2016-04-24T09:22:43Z</time>
      </trkpt>
      <trkpt lat="47.45954" lon="6.69332">
        <ele>301</ele>
        <time>2016-04-24T09:22:44Z</time>
      </trkpt>
      <trkpt lat="47.45958" lon="6.69337">
        <ele>302</ele>
        <time>2016-04-24T09:22:45Z</time>
      </trkpt>
      <trkpt lat="47.45961" lon="6.69342">
        <ele>302</ele>
        <time>2016-04-24T09:22:46Z</time>
      </trkpt>
      <trkpt lat="47.45964" lon="6.69345">
        <ele>302</ele>
        <time>2016-04-24T09:22:47Z</time>
      </trkpt>
      <trkpt lat="47.45968" lon="6.6935">
        <ele>302</ele>
        <time>2016-04-24T09:22:48Z</time>
      </trkpt>
      <trkpt lat="47.45972" lon="6.69354">
        <ele>302</ele>
        <time>2016-04-24T09:22:49Z</time>
      </trkpt>
      <trkpt lat="47.45976" lon="6.69358">
        <ele>302</ele>
        <time>2016-04-24T09:22:50Z</time>
      </trkpt>
      <trkpt lat="47.45979" lon="6.69362">
        <ele>302</ele>
        <time>2016-04-24T09:22:51Z</time>
      </trkpt>
      <trkpt lat="47.45982" lon="6.69367">
        <ele>302</ele>
        <time>2016-04-24T09:22:52Z</time>
      </trkpt>
      <trkpt lat="47.45986" lon="6.6937">
        <ele>302</ele>
        <time>2016-04-24T09:22:53Z</time>
      </trkpt>
      <trkpt lat="47.45988" lon="6.69374">
        <ele>302</ele>
        <time>2016-04-24T09:22:54Z</time>
      </trkpt>
      <trkpt lat="47.45992" lon="6.69377">
        <ele>302</ele>
        <time>2016-04-24T09:22:55Z</time>
      </trkpt>
      <trkpt lat="47.45995" lon="6.69381">
        <ele>302</ele>
        <time>2016-04-24T09:22:56Z</time>
      </trkpt>
      <trkpt lat="47.45999" lon="6.69385">
        <ele>302</ele>
        <time>2016-04-24T09:22:57Z</time>
      </trkpt>
      <trkpt lat="47.46002" lon="6.69388">
        <ele>302</ele>
        <time>2016-04-24T09:22:58Z</time>
      </trkpt>
      <trkpt lat="47.46006" lon="6.69392">
        <ele>302</ele>
        <time>2016-04-24T09:22:59Z</time>
      </trkpt>
      <trkpt lat="47.46009" lon="6.69396">
        <ele>302</ele>
        <time>2016-04-24T09:23:00Z</time>
      </trkpt>
      <trkpt lat="47.46013" lon="6.69399">
        <ele>302</ele>
        <time>2016-04-24T09:23:01Z</time>
      </trkpt>
      <trkpt lat="47.46017" lon="6.69403">
        <ele>302</ele>
        <time>2016-04-24T09:23:02Z</time>
      </trkpt>
      <trkpt lat="47.4602" lon="6.69406">
        <ele>302</ele>
        <time>2016-04-24T09:23:03Z</time>
      </trkpt>
      <trkpt lat="47.46023" lon="6.6941">
        <ele>302</ele>
        <time>2016-04-24T09:23:04Z</time>
      </trkpt>
      <trkpt lat="47.46027" lon="6.69413">
        <ele>302</ele>
        <time>2016-04-24T09:23:05Z</time>
      </trkpt>
      <trkpt lat="47.4603" lon="6.69417">
        <ele>303</ele>
        <time>2016-04-24T09:23:06Z</time>
      </trkpt>
      <trkpt lat="47.46033" lon="6.69421">
        <ele>303</ele>
        <time>2016-04-24T09:23:07Z</time>
      </trkpt>
      <trkpt lat="47.46036" lon="6.69424">
        <ele>303</ele>
        <time>2016-04-24T09:23:08Z</time>
      </trkpt>
      <trkpt lat="47.46039" lon="6.69428">
        <ele>303</ele>
        <time>2016-04-24T09:23:09Z</time>
      </trkpt>
      <trkpt lat="47.46042" lon="6.69431">
        <ele>303</ele>
        <time>2016-04-24T09:23:10Z</time>
      </trkpt>
      <trkpt lat="47.46044" lon="6.69434">
        <ele>303</ele>
        <time>2016-04-24T09:23:11Z</time>
      </trkpt>
      <trkpt lat="47.46047" lon="6.69438">
        <ele>303</ele>
        <time>2016-04-24T09:23:12Z</time>
      </trkpt>
      <trkpt lat="47.4605" lon="6.69442">
        <ele>303</ele>
        <time>2016-04-24T09:23:13Z</time>
      </trkpt>
      <trkpt lat="47.46053" lon="6.69445">
        <ele>303</ele>
        <time>2016-04-24T09:23:14Z</time>
      </trkpt>
      <trkpt lat="47.46057" lon="6.69448">
        <ele>303</ele>
        <time>2016-04-24T09:23:15Z</time>
      </trkpt>
      <trkpt lat="47.4606" lon="6.69452">
        <ele>303</ele>
        <time>2016-04-24T09:23:16Z</time>
      </trkpt>
      <trkpt lat="47.46063" lon="6.69455">
        <ele>303</ele>
        <time>2016-04-24T09:23:17Z</time>
      </trkpt>
      <trkpt lat="47.46066" lon="6.69458">
        <ele>303</ele>
        <time>2016-04-24T09:23:18Z</time>
      </trkpt>
      <trkpt lat="47.4607" lon="6.69461">
        <ele>303</ele>
        <time>2016-04-24T09:23:19Z</time>
      </trkpt>
      <trkpt lat="47.46073" lon="6.69465">
        <ele>303</ele>
        <time>2016-04-24T09:23:20Z</time>
      </trkpt>
      <trkpt lat="47.46076" lon="6.69468">
        <ele>303</ele>
        <time>2016-04-24T09:23:21Z</time>
      </trkpt>
      <trkpt lat="47.46079" lon="6.69471">
        <ele>303</ele>
        <time>2016-04-24T09:23:22Z</time>
      </trkpt>
      <trkpt lat="47.46083" lon="6.69475">
        <ele>304</ele>
        <time>2016-04-24T09:23:23Z</time>
      </trkpt>
      <trkpt lat="47.46086" lon="6.69478">
        <ele>303</ele>
        <time>2016-04-24T09:23:24Z</time>
      </trkpt>
      <trkpt lat="47.46088" lon="6.69482">
        <ele>303</ele>
        <time>2016-04-24T09:23:25Z</time>
      </trkpt>
      <trkpt lat="47.46091" lon="6.69485">
        <ele>304</ele>
        <time>2016-04-24T09:23:26Z</time>
      </trkpt>
      <trkpt lat="47.46094" lon="6.69488">
        <ele>304</ele>
        <time>2016-04-24T09:23:27Z</time>
      </trkpt>
      <trkpt lat="47.46097" lon="6.69491">
        <ele>304</ele>
        <time>2016-04-24T09:23:28Z</time>
      </trkpt>
      <trkpt lat="47.461" lon="6.69495">
        <ele>304</ele>
        <time>2016-04-24T09:23:29Z</time>
      </trkpt>
      <trkpt lat="47.46103" lon="6.69498">
        <ele>303</ele>
        <time>2016-04-24T09:23:30Z</time>
      </trkpt>
      <trkpt lat="47.46106" lon="6.69501">
        <ele>305</ele>
        <time>2016-04-24T09:23:31Z</time>
      </trkpt>
      <trkpt lat="47.46109" lon="6.69505">
        <ele>305</ele>
        <time>2016-04-24T09:23:32Z</time>
      </trkpt>
      <trkpt lat="47.46112" lon="6.69508">
        <ele>305</ele>
        <time>2016-04-24T09:23:33Z</time>
      </trkpt>
      <trkpt lat="47.46115" lon="6.69511">
        <ele>305</ele>
        <time>2016-04-24T09:23:34Z</time>
      </trkpt>
      <trkpt lat="47.46118" lon="6.69515">
        <ele>305</ele>
        <time>2016-04-24T09:23:35Z</time>
      </trkpt>
      <trkpt lat="47.46121" lon="6.69518">
        <ele>305</ele>
        <time>2016-04-24T09:23:36Z</time>
      </trkpt>
      <trkpt lat="47.46124" lon="6.69521">
        <ele>305</ele>
        <time>2016-04-24T09:23:37Z</time>
      </trkpt>
      <trkpt lat="47.46127" lon="6.69524">
        <ele>305</ele>
        <time>2016-04-24T09:23:38Z</time>
      </trkpt>
      <trkpt lat="47.46131" lon="6.69528">
        <ele>305</ele>
        <time>2016-04-24T09:23:39Z</time>
      </trkpt>
      <trkpt lat="47.46134" lon="6.69532">
        <ele>305</ele>
        <time>2016-04-24T09:23:40Z</time>
      </trkpt>
      <trkpt lat="47.46137" lon="6.69536">
        <ele>305</ele>
        <time>2016-04-24T09:23:41Z</time>
      </trkpt>
      <trkpt lat="47.4614" lon="6.6954">
        <ele>305</ele>
        <time>2016-04-24T09:23:42Z</time>
      </trkpt>
      <trkpt lat="47.46143" lon="6.69544">
        <ele>305</ele>
        <time>2016-04-24T09:23:43Z</time>
      </trkpt>
      <trkpt lat="47.46147" lon="6.69549">
        <ele>305</ele>
        <time>2016-04-24T09:23:44Z</time>
      </trkpt>
      <trkpt lat="47.4615" lon="6.69553">
        <ele>305</ele>
        <time>2016-04-24T09:23:45Z</time>
      </trkpt>
      <trkpt lat="47.46153" lon="6.69557">
        <ele>305</ele>
        <time>2016-04-24T09:23:46Z</time>
      </trkpt>
      <trkpt lat="47.46156" lon="6.69561">
        <ele>305</ele>
        <time>2016-04-24T09:23:47Z</time>
      </trkpt>
      <trkpt lat="47.4616" lon="6.69566">
        <ele>305</ele>
        <time>2016-04-24T09:23:48Z</time>
      </trkpt>
      <trkpt lat="47.46162" lon="6.6957">
        <ele>305</ele>
        <time>2016-04-24T09:23:49Z</time>
      </trkpt>
      <trkpt lat="47.46164" lon="6.69574">
        <ele>305</ele>
        <time>2016-04-24T09:23:50Z</time>
      </trkpt>
      <trkpt lat="47.46166" lon="6.69579">
        <ele>305</ele>
        <time>2016-04-24T09:23:51Z</time>
      </trkpt>
      <trkpt lat="47.46168" lon="6.69583">
        <ele>305</ele>
        <time>2016-04-24T09:23:52Z</time>
      </trkpt>
      <trkpt lat="47.4617" lon="6.69588">
        <ele>305</ele>
        <time>2016-04-24T09:23:53Z</time>
      </trkpt>
      <trkpt lat="47.46172" lon="6.69592">
        <ele>305</ele>
        <time>2016-04-24T09:23:54Z</time>
      </trkpt>
      <trkpt lat="47.46174" lon="6.69596">
        <ele>306</ele>
        <time>2016-04-24T09:23:55Z</time>
      </trkpt>
      <trkpt lat="47.46176" lon="6.69601">
        <ele>306</ele>
        <time>2016-04-24T09:23:56Z</time>
      </trkpt>
      <trkpt lat="47.46177" lon="6.69605">
        <ele>306</ele>
        <time>2016-04-24T09:23:57Z</time>
      </trkpt>
      <trkpt lat="47.46179" lon="6.6961">
        <ele>306</ele>
        <time>2016-04-24T09:23:58Z</time>
      </trkpt>
      <trkpt lat="47.46181" lon="6.69614">
        <ele>306</ele>
        <time>2016-04-24T09:23:59Z</time>
      </trkpt>
      <trkpt lat="47.46182" lon="6.69618">
        <ele>306</ele>
        <time>2016-04-24T09:24:00Z</time>
      </trkpt>
      <trkpt lat="47.46184" lon="6.69621">
        <ele>306</ele>
        <time>2016-04-24T09:24:01Z</time>
      </trkpt>
      <trkpt lat="47.46185" lon="6.69624">
        <ele>306</ele>
        <time>2016-04-24T09:24:02Z</time>
      </trkpt>
      <trkpt lat="47.46186" lon="6.69627">
        <ele>306</ele>
        <time>2016-04-24T09:24:03Z</time>
      </trkpt>
      <trkpt lat="47.46188" lon="6.69632">
        <ele>307</ele>
        <time>2016-04-24T09:24:05Z</time>
      </trkpt>
      <trkpt lat="47.4619" lon="6.69634">
        <ele>307</ele>
        <time>2016-04-24T09:24:06Z</time>
      </trkpt>
      <trkpt lat="47.46193" lon="6.69634">
        <ele>306</ele>
        <time>2016-04-24T09:24:08Z</time>
      </trkpt>
      <trkpt lat="47.46194" lon="6.69632">
        <ele>306</ele>
        <time>2016-04-24T09:24:09Z</time>
      </trkpt>
      <trkpt lat="47.46195" lon="6.69629">
        <ele>306</ele>
        <time>2016-04-24T09:24:10Z</time>
      </trkpt>
      <trkpt lat="47.46195" lon="6.69624">
        <ele>306</ele>
        <time>2016-04-24T09:24:11Z</time>
      </trkpt>
      <trkpt lat="47.46195" lon="6.69619">
        <ele>306</ele>
        <time>2016-04-24T09:24:12Z</time>
      </trkpt>
      <trkpt lat="47.46193" lon="6.69614">
        <ele>306</ele>
        <time>2016-04-24T09:24:13Z</time>
      </trkpt>
      <trkpt lat="47.46192" lon="6.69609">
        <ele>306</ele>
        <time>2016-04-24T09:24:14Z</time>
      </trkpt>
      <trkpt lat="47.4619" lon="6.69604">
        <ele>306</ele>
        <time>2016-04-24T09:24:15Z</time>
      </trkpt>
      <trkpt lat="47.46189" lon="6.69599">
        <ele>306</ele>
        <time>2016-04-24T09:24:16Z</time>
      </trkpt>
      <trkpt lat="47.46187" lon="6.69594">
        <ele>306</ele>
        <time>2016-04-24T09:24:17Z</time>
      </trkpt>
      <trkpt lat="47.46186" lon="6.6959">
        <ele>305</ele>
        <time>2016-04-24T09:24:18Z</time>
      </trkpt>
      <trkpt lat="47.46185" lon="6.69585">
        <ele>305</ele>
        <time>2016-04-24T09:24:19Z</time>
      </trkpt>
      <trkpt lat="47.46184" lon="6.69581">
        <ele>305</ele>
        <time>2016-04-24T09:24:20Z</time>
      </trkpt>
      <trkpt lat="47.46183" lon="6.69576">
        <ele>305</ele>
        <time>2016-04-24T09:24:21Z</time>
      </trkpt>
      <trkpt lat="47.46181" lon="6.69572">
        <ele>305</ele>
        <time>2016-04-24T09:24:22Z</time>
      </trkpt>
      <trkpt lat="47.4618" lon="6.69567">
        <ele>305</ele>
        <time>2016-04-24T09:24:23Z</time>
      </trkpt>
      <trkpt lat="47.46179" lon="6.69562">
        <ele>305</ele>
        <time>2016-04-24T09:24:24Z</time>
      </trkpt>
      <trkpt lat="47.46179" lon="6.69557">
        <ele>305</ele>
        <time>2016-04-24T09:24:25Z</time>
      </trkpt>
      <trkpt lat="47.4618" lon="6.69555">
        <ele>304</ele>
        <time>2016-04-24T09:24:26Z</time>
      </trkpt>
      <trkpt lat="47.46183" lon="6.69553">
        <ele>304</ele>
        <time>2016-04-24T09:24:27Z</time>
      </trkpt>
      <trkpt lat="47.46188" lon="6.69553">
        <ele>304</ele>
        <time>2016-04-24T09:24:28Z</time>
      </trkpt>
      <trkpt lat="47.46198" lon="6.69565">
        <ele>305</ele>
        <time>2016-04-24T09:24:29Z</time>
      </trkpt>
      <trkpt lat="47.46203" lon="6.69571">
        <ele>305</ele>
        <time>2016-04-24T09:24:30Z</time>
      </trkpt>
      <trkpt lat="47.46208" lon="6.69577">
        <ele>305</ele>
        <time>2016-04-24T09:24:31Z</time>
      </trkpt>
      <trkpt lat="47.46213" lon="6.69584">
        <ele>305</ele>
        <time>2016-04-24T09:24:32Z</time>
      </trkpt>
      <trkpt lat="47.46218" lon="6.69591">
        <ele>305</ele>
        <time>2016-04-24T09:24:32.999Z</time>
      </trkpt>
      <trkpt lat="47.4622" lon="6.69599">
        <ele>305</ele>
        <time>2016-04-24T09:24:34Z</time>
      </trkpt>
      <trkpt lat="47.46224" lon="6.69605">
        <ele>305</ele>
        <time>2016-04-24T09:24:35Z</time>
      </trkpt>
      <trkpt lat="47.46228" lon="6.69612">
        <ele>305</ele>
        <time>2016-04-24T09:24:36Z</time>
      </trkpt>
      <trkpt lat="47.46232" lon="6.69619">
        <ele>305</ele>
        <time>2016-04-24T09:24:37Z</time>
      </trkpt>
      <trkpt lat="47.46236" lon="6.69626">
        <ele>305</ele>
        <time>2016-04-24T09:24:38Z</time>
      </trkpt>
      <trkpt lat="47.46241" lon="6.69631">
        <ele>305</ele>
        <time>2016-04-24T09:24:39Z</time>
      </trkpt>
      <trkpt lat="47.46245" lon="6.69638">
        <ele>305</ele>
        <time>2016-04-24T09:24:40Z</time>
      </trkpt>
      <trkpt lat="47.46249" lon="6.69645">
        <ele>305</ele>
        <time>2016-04-24T09:24:40.999Z</time>
      </trkpt>
      <trkpt lat="47.46252" lon="6.69651">
        <ele>303</ele>
        <time>2016-04-24T09:24:42Z</time>
      </trkpt>
      <trkpt lat="47.46256" lon="6.69659">
        <ele>303</ele>
        <time>2016-04-24T09:24:43Z</time>
      </trkpt>
      <trkpt lat="47.4626" lon="6.69665">
        <ele>303</ele>
        <time>2016-04-24T09:24:44Z</time>
      </trkpt>
      <trkpt lat="47.46264" lon="6.69672">
        <ele>303</ele>
        <time>2016-04-24T09:24:45Z</time>
      </trkpt>
      <trkpt lat="47.46269" lon="6.69678">
        <ele>303</ele>
        <time>2016-04-24T09:24:46Z</time>
      </trkpt>
      <trkpt lat="47.46273" lon="6.69685">
        <ele>303</ele>
        <time>2016-04-24T09:24:47Z</time>
      </trkpt>
      <trkpt lat="47.46277" lon="6.69692">
        <ele>303</ele>
        <time>2016-04-24T09:24:48Z</time>
      </trkpt>
      <trkpt lat="47.46281" lon="6.697">
        <ele>303</ele>
        <time>2016-04-24T09:24:49.001Z</time>
      </trkpt>
      <trkpt lat="47.46285" lon="6.69707">
        <ele>303</ele>
        <time>2016-04-24T09:24:50Z</time>
      </trkpt>
      <trkpt lat="47.46289" lon="6.69713">
        <ele>303</ele>
        <time>2016-04-24T09:24:51Z</time>
      </trkpt>
      <trkpt lat="47.46293" lon="6.6972">
        <ele>303</ele>
        <time>2016-04-24T09:24:52Z</time>
      </trkpt>
      <trkpt lat="47.46297" lon="6.69728">
        <ele>303</ele>
        <time>2016-04-24T09:24:53Z</time>
      </trkpt>
      <trkpt lat="47.46302" lon="6.69734">
        <ele>303</ele>
        <time>2016-04-24T09:24:54Z</time>
      </trkpt>
      <trkpt lat="47.46307" lon="6.69741">
        <ele>303</ele>
        <time>2016-04-24T09:24:55Z</time>
      </trkpt>
      <trkpt lat="47.4631" lon="6.69747">
        <ele>303</ele>
        <time>2016-04-24T09:24:56Z</time>
      </trkpt>
      <trkpt lat="47.46315" lon="6.69753">
        <ele>303</ele>
        <time>2016-04-24T09:24:57Z</time>
      </trkpt>
      <trkpt lat="47.46319" lon="6.69759">
        <ele>303</ele>
        <time>2016-04-24T09:24:58Z</time>
      </trkpt>
      <trkpt lat="47.46324" lon="6.69763">
        <ele>303</ele>
        <time>2016-04-24T09:24:59Z</time>
      </trkpt>
      <trkpt lat="47.46329" lon="6.69769">
        <ele>303</ele>
        <time>2016-04-24T09:25:00Z</time>
      </trkpt>
      <trkpt lat="47.46334" lon="6.69775">
        <ele>303</ele>
        <time>2016-04-24T09:25:01Z</time>
      </trkpt>
      <trkpt lat="47.46341" lon="6.6978">
        <ele>303</ele>
        <time>2016-04-24T09:25:02Z</time>
      </trkpt>
      <trkpt lat="47.46345" lon="6.69784">
        <ele>303</ele>
        <time>2016-04-24T09:25:03Z</time>
      </trkpt>
      <trkpt lat="47.46349" lon="6.69788">
        <ele>303</ele>
        <time>2016-04-24T09:25:04Z</time>
      </trkpt>
      <trkpt lat="47.46355" lon="6.69795">
        <ele>303</ele>
        <time>2016-04-24T09:25:05Z</time>
      </trkpt>
      <trkpt lat="47.4636" lon="6.698">
        <ele>303</ele>
        <time>2016-04-24T09:25:06Z</time>
      </trkpt>
      <trkpt lat="47.46366" lon="6.69805">
        <ele>303</ele>
        <time>2016-04-24T09:25:07Z</time>
      </trkpt>
      <trkpt lat="47.46372" lon="6.69807">
        <ele>303</ele>
        <time>2016-04-24T09:25:08Z</time>
      </trkpt>
      <trkpt lat="47.46377" lon="6.69809">
        <ele>303</ele>
        <time>2016-04-24T09:25:09Z</time>
      </trkpt>
      <trkpt lat="47.46383" lon="6.69813">
        <ele>303</ele>
        <time>2016-04-24T09:25:10Z</time>
      </trkpt>
      <trkpt lat="47.46389" lon="6.69813">
        <ele>303</ele>
        <time>2016-04-24T09:25:11Z</time>
      </trkpt>
      <trkpt lat="47.46396" lon="6.69818">
        <ele>303</ele>
        <time>2016-04-24T09:25:12Z</time>
      </trkpt>
      <trkpt lat="47.46402" lon="6.69822">
        <ele>303</ele>
        <time>2016-04-24T09:25:13Z</time>
      </trkpt>
      <trkpt lat="47.46405" lon="6.69827">
        <ele>303</ele>
        <time>2016-04-24T09:25:14Z</time>
      </trkpt>
      <trkpt lat="47.4641" lon="6.69832">
        <ele>303</ele>
        <time>2016-04-24T09:25:15Z</time>
      </trkpt>
      <trkpt lat="47.46414" lon="6.69836">
        <ele>303</ele>
        <time>2016-04-24T09:25:16Z</time>
      </trkpt>
      <trkpt lat="47.46418" lon="6.6984">
        <ele>303</ele>
        <time>2016-04-24T09:25:17Z</time>
      </trkpt>
      <trkpt lat="47.46423" lon="6.69844">
        <ele>303</ele>
        <time>2016-04-24T09:25:17.999Z</time>
      </trkpt>
      <trkpt lat="47.46425" lon="6.69848">
        <ele>303</ele>
        <time>2016-04-24T09:25:19Z</time>
      </trkpt>
      <trkpt lat="47.46429" lon="6.69852">
        <ele>303</ele>
        <time>2016-04-24T09:25:20Z</time>
      </trkpt>
      <trkpt lat="47.46435" lon="6.69855">
        <ele>303</ele>
        <time>2016-04-24T09:25:21Z</time>
      </trkpt>
      <trkpt lat="47.4644" lon="6.69858">
        <ele>303</ele>
        <time>2016-04-24T09:25:22Z</time>
      </trkpt>
      <trkpt lat="47.46446" lon="6.69859">
        <ele>303</ele>
        <time>2016-04-24T09:25:23Z</time>
      </trkpt>
      <trkpt lat="47.46452" lon="6.6986">
        <ele>303</ele>
        <time>2016-04-24T09:25:24Z</time>
      </trkpt>
      <trkpt lat="47.46456" lon="6.69864">
        <ele>303</ele>
        <time>2016-04-24T09:25:25Z</time>
      </trkpt>
      <trkpt lat="47.4646" lon="6.69868">
        <ele>303</ele>
        <time>2016-04-24T09:25:26Z</time>
      </trkpt>
      <trkpt lat="47.46464" lon="6.69871">
        <ele>303</ele>
        <time>2016-04-24T09:25:27Z</time>
      </trkpt>
      <trkpt lat="47.46469" lon="6.69872">
        <ele>303</ele>
        <time>2016-04-24T09:25:28Z</time>
      </trkpt>
      <trkpt lat="47.46472" lon="6.69871">
        <ele>303</ele>
        <time>2016-04-24T09:25:29Z</time>
      </trkpt>
      <trkpt lat="47.46475" lon="6.6987">
        <ele>303</ele>
        <time>2016-04-24T09:25:30Z</time>
      </trkpt>
      <trkpt lat="47.46478" lon="6.69866">
        <ele>303</ele>
        <time>2016-04-24T09:25:32Z</time>
      </trkpt>
      <trkpt lat="47.46479" lon="6.69865">
        <ele>303</ele>
        <time>2016-04-24T09:25:33Z</time>
      </trkpt>
      <trkpt lat="47.4648" lon="6.6986">
        <ele>303</ele>
        <time>2016-04-24T09:25:55Z</time>
      </trkpt>
      <trkpt lat="47.46481" lon="6.69859">
        <ele>303</ele>
        <time>2016-04-24T09:25:56Z</time>
      </trkpt>
      <trkpt lat="47.46484" lon="6.69856">
        <ele>303</ele>
        <time>2016-04-24T09:25:58Z</time>
      </trkpt>
      <trkpt lat="47.46487" lon="6.69854">
        <ele>303</ele>
        <time>2016-04-24T09:25:59Z</time>
      </trkpt>
      <trkpt lat="47.46489" lon="6.69852">
        <ele>303</ele>
        <time>2016-04-24T09:26:00Z</time>
      </trkpt>
      <trkpt lat="47.46492" lon="6.69849">
        <ele>303</ele>
        <time>2016-04-24T09:26:01Z</time>
      </trkpt>
      <trkpt lat="47.46495" lon="6.69846">
        <ele>303</ele>
        <time>2016-04-24T09:26:02Z</time>
      </trkpt>
      <trkpt lat="47.46498" lon="6.69843">
        <ele>303</ele>
        <time>2016-04-24T09:26:03Z</time>
      </trkpt>
      <trkpt lat="47.46502" lon="6.69841">
        <ele>304</ele>
        <time>2016-04-24T09:26:04Z</time>
      </trkpt>
      <trkpt lat="47.46505" lon="6.69838">
        <ele>303</ele>
        <time>2016-04-24T09:26:05Z</time>
      </trkpt>
      <trkpt lat="47.46508" lon="6.69834">
        <ele>304</ele>
        <time>2016-04-24T09:26:06Z</time>
      </trkpt>
      <trkpt lat="47.46511" lon="6.69831">
        <ele>304</ele>
        <time>2016-04-24T09:26:07Z</time>
      </trkpt>
      <trkpt lat="47.46514" lon="6.69828">
        <ele>304</ele>
        <time>2016-04-24T09:26:08Z</time>
      </trkpt>
      <trkpt lat="47.46518" lon="6.69825">
        <ele>304</ele>
        <time>2016-04-24T09:26:09Z</time>
      </trkpt>
      <trkpt lat="47.46521" lon="6.69821">
        <ele>305</ele>
        <time>2016-04-24T09:26:10Z</time>
      </trkpt>
      <trkpt lat="47.46524" lon="6.69818">
        <ele>305</ele>
        <time>2016-04-24T09:26:11Z</time>
      </trkpt>
      <trkpt lat="47.46527" lon="6.69814">
        <ele>305</ele>
        <time>2016-04-24T09:26:12Z</time>
      </trkpt>
      <trkpt lat="47.4653" lon="6.69811">
        <ele>305</ele>
        <time>2016-04-24T09:26:13Z</time>
      </trkpt>
      <trkpt lat="47.46533" lon="6.69807">
        <ele>305</ele>
        <time>2016-04-24T09:26:14Z</time>
      </trkpt>
      <trkpt lat="47.46537" lon="6.69804">
        <ele>305</ele>
        <time>2016-04-24T09:26:15Z</time>
      </trkpt>
      <trkpt lat="47.4654" lon="6.698">
        <ele>305</ele>
        <time>2016-04-24T09:26:16Z</time>
      </trkpt>
      <trkpt lat="47.46544" lon="6.69796">
        <ele>305</ele>
        <time>2016-04-24T09:26:17Z</time>
      </trkpt>
      <trkpt lat="47.46547" lon="6.69793">
        <ele>306</ele>
        <time>2016-04-24T09:26:18Z</time>
      </trkpt>
      <trkpt lat="47.4655" lon="6.69789">
        <ele>306</ele>
        <time>2016-04-24T09:26:19Z</time>
      </trkpt>
      <trkpt lat="47.46554" lon="6.69785">
        <ele>306</ele>
        <time>2016-04-24T09:26:20Z</time>
      </trkpt>
      <trkpt lat="47.46557" lon="6.69781">
        <ele>306</ele>
        <time>2016-04-24T09:26:21Z</time>
      </trkpt>
      <trkpt lat="47.4656" lon="6.69777">
        <ele>306</ele>
        <time>2016-04-24T09:26:22Z</time>
      </trkpt>
      <trkpt lat="47.46563" lon="6.69774">
        <ele>306</ele>
        <time>2016-04-24T09:26:23Z</time>
      </trkpt>
      <trkpt lat="47.46567" lon="6.6977">
        <ele>306</ele>
        <time>2016-04-24T09:26:24Z</time>
      </trkpt>
      <trkpt lat="47.4657" lon="6.69766">
        <ele>306</ele>
        <time>2016-04-24T09:26:25Z</time>
      </trkpt>
      <trkpt lat="47.46573" lon="6.69763">
        <ele>306</ele>
        <time>2016-04-24T09:26:26Z</time>
      </trkpt>
      <trkpt lat="47.46576" lon="6.69759">
        <ele>306</ele>
        <time>2016-04-24T09:26:27Z</time>
      </trkpt>
      <trkpt lat="47.46578" lon="6.69756">
        <ele>306</ele>
        <time>2016-04-24T09:26:28Z</time>
      </trkpt>
      <trkpt lat="47.4658" lon="6.69753">
        <ele>306</ele>
        <time>2016-04-24T09:26:29Z</time>
      </trkpt>
      <trkpt lat="47.46583" lon="6.69751">
        <ele>306</ele>
        <time>2016-04-24T09:26:30Z</time>
      </trkpt>
      <trkpt lat="47.46585" lon="6.6975">
        <ele>306</ele>
        <time>2016-04-24T09:26:31Z</time>
      </trkpt>
      <trkpt lat="47.46588" lon="6.69749">
        <ele>306</ele>
        <time>2016-04-24T09:26:32Z</time>
      </trkpt>
      <trkpt lat="47.46592" lon="6.6975">
        <ele>306</ele>
        <time>2016-04-24T09:26:33Z</time>
      </trkpt>
      <trkpt lat="47.46596" lon="6.6975">
        <ele>306</ele>
        <time>2016-04-24T09:26:34Z</time>
      </trkpt>
      <trkpt lat="47.46601" lon="6.69751">
        <ele>305</ele>
        <time>2016-04-24T09:26:35Z</time>
      </trkpt>
      <trkpt lat="47.46606" lon="6.69751">
        <ele>305</ele>
        <time>2016-04-24T09:26:36Z</time>
      </trkpt>
      <trkpt lat="47.46612" lon="6.69751">
        <ele>305</ele>
        <time>2016-04-24T09:26:37Z</time>
      </trkpt>
      <trkpt lat="47.46617" lon="6.69751">
        <ele>305</ele>
        <time>2016-04-24T09:26:38Z</time>
      </trkpt>
      <trkpt lat="47.46621" lon="6.69751">
        <ele>305</ele>
        <time>2016-04-24T09:26:39Z</time>
      </trkpt>
      <trkpt lat="47.46625" lon="6.69752">
        <ele>305</ele>
        <time>2016-04-24T09:26:40Z</time>
      </trkpt>
      <trkpt lat="47.46629" lon="6.69752">
        <ele>305</ele>
        <time>2016-04-24T09:26:41Z</time>
      </trkpt>
      <trkpt lat="47.46633" lon="6.69752">
        <ele>305</ele>
        <time>2016-04-24T09:26:42Z</time>
      </trkpt>
      <trkpt lat="47.46637" lon="6.69752">
        <ele>305</ele>
        <time>2016-04-24T09:26:44Z</time>
      </trkpt>
      <trkpt lat="47.46637" lon="6.69752">
        <ele>305</ele>
        <time>2016-04-24T09:26:45Z</time>
      </trkpt>
      <trkpt lat="47.46641" lon="6.69753">
        <ele>305</ele>
        <time>2016-04-24T09:26:53Z</time>
      </trkpt>
      <trkpt lat="47.46642" lon="6.69753">
        <ele>305</ele>
        <time>2016-04-24T09:26:54Z</time>
      </trkpt>
      <trkpt lat="47.46645" lon="6.69751">
        <ele>304</ele>
        <time>2016-04-24T09:26:57Z</time>
      </trkpt>
      <trkpt lat="47.46647" lon="6.6975">
        <ele>305</ele>
        <time>2016-04-24T09:26:58Z</time>
      </trkpt>
      <trkpt lat="47.4665" lon="6.69748">
        <ele>305</ele>
        <time>2016-04-24T09:26:59Z</time>
      </trkpt>
      <trkpt lat="47.46654" lon="6.69745">
        <ele>305</ele>
        <time>2016-04-24T09:27:00Z</time>
      </trkpt>
      <trkpt lat="47.46659" lon="6.69743">
        <ele>305</ele>
        <time>2016-04-24T09:27:01Z</time>
      </trkpt>
      <trkpt lat="47.46663" lon="6.6974">
        <ele>305</ele>
        <time>2016-04-24T09:27:02Z</time>
      </trkpt>
      <trkpt lat="47.46667" lon="6.69737">
        <ele>306</ele>
        <time>2016-04-24T09:27:03Z</time>
      </trkpt>
      <trkpt lat="47.46671" lon="6.69734">
        <ele>306</ele>
        <time>2016-04-24T09:27:04Z</time>
      </trkpt>
      <trkpt lat="47.46675" lon="6.69732">
        <ele>306</ele>
        <time>2016-04-24T09:27:05Z</time>
      </trkpt>
      <trkpt lat="47.46678" lon="6.69732">
        <ele>307</ele>
        <time>2016-04-24T09:27:06Z</time>
      </trkpt>
      <trkpt lat="47.46681" lon="6.69731">
        <ele>307</ele>
        <time>2016-04-24T09:27:07Z</time>
      </trkpt>
      <trkpt lat="47.46684" lon="6.69732">
        <ele>307</ele>
        <time>2016-04-24T09:27:08Z</time>
      </trkpt>
      <trkpt lat="47.46687" lon="6.69733">
        <ele>307</ele>
        <time>2016-04-24T09:27:09Z</time>
      </trkpt>
      <trkpt lat="47.4669" lon="6.69734">
        <ele>307</ele>
        <time>2016-04-24T09:27:10Z</time>
      </trkpt>
      <trkpt lat="47.46692" lon="6.69734">
        <ele>307</ele>
        <time>2016-04-24T09:27:11Z</time>
      </trkpt>
      <trkpt lat="47.46695" lon="6.69735">
        <ele>307</ele>
        <time>2016-04-24T09:27:12Z</time>
      </trkpt>
      <trkpt lat="47.46697" lon="6.69736">
        <ele>308</ele>
        <time>2016-04-24T09:27:13Z</time>
      </trkpt>
      <trkpt lat="47.467" lon="6.69736">
        <ele>308</ele>
        <time>2016-04-24T09:27:14Z</time>
      </trkpt>
      <trkpt lat="47.46702" lon="6.69736">
        <ele>308</ele>
        <time>2016-04-24T09:27:15Z</time>
      </trkpt>
      <trkpt lat="47.46704" lon="6.69736">
        <ele>308</ele>
        <time>2016-04-24T09:27:16Z</time>
      </trkpt>
      <trkpt lat="47.46707" lon="6.69735">
        <ele>308</ele>
        <time>2016-04-24T09:27:17Z</time>
      </trkpt>
      <trkpt lat="47.46709" lon="6.69735">
        <ele>308</ele>
        <time>2016-04-24T09:27:18Z</time>
      </trkpt>
      <trkpt lat="47.46712" lon="6.69734">
        <ele>308</ele>
        <time>2016-04-24T09:27:19Z</time>
      </trkpt>
      <trkpt lat="47.46715" lon="6.69734">
        <ele>308</ele>
        <time>2016-04-24T09:27:20Z</time>
      </trkpt>
      <trkpt lat="47.46717" lon="6.69734">
        <ele>308</ele>
        <time>2016-04-24T09:27:21Z</time>
      </trkpt>
      <trkpt lat="47.46721" lon="6.69733">
        <ele>309</ele>
        <time>2016-04-24T09:27:23Z</time>
      </trkpt>
      <trkpt lat="47.46723" lon="6.69733">
        <ele>309</ele>
        <time>2016-04-24T09:27:24Z</time>
      </trkpt>
      <trkpt lat="47.46725" lon="6.69732">
        <ele>309</ele>
        <time>2016-04-24T09:27:25Z</time>
      </trkpt>
      <trkpt lat="47.46728" lon="6.69732">
        <ele>309</ele>
        <time>2016-04-24T09:27:26Z</time>
      </trkpt>
      <trkpt lat="47.4673" lon="6.69732">
        <ele>309</ele>
        <time>2016-04-24T09:27:27Z</time>
      </trkpt>
      <trkpt lat="47.46733" lon="6.69731">
        <ele>309</ele>
        <time>2016-04-24T09:27:28Z</time>
      </trkpt>
      <trkpt lat="47.46736" lon="6.69731">
        <ele>309</ele>
        <time>2016-04-24T09:27:29Z</time>
      </trkpt>
      <trkpt lat="47.46738" lon="6.6973">
        <ele>309</ele>
        <time>2016-04-24T09:27:30Z</time>
      </trkpt>
      <trkpt lat="47.46741" lon="6.6973">
        <ele>309</ele>
        <time>2016-04-24T09:27:31Z</time>
      </trkpt>
      <trkpt lat="47.46743" lon="6.69729">
        <ele>309</ele>
        <time>2016-04-24T09:27:32Z</time>
      </trkpt>
      <trkpt lat="47.46746" lon="6.69728">
        <ele>309</ele>
        <time>2016-04-24T09:27:33Z</time>
      </trkpt>
      <trkpt lat="47.46749" lon="6.69726">
        <ele>309</ele>
        <time>2016-04-24T09:27:34Z</time>
      </trkpt>
      <trkpt lat="47.46752" lon="6.69724">
        <ele>311</ele>
        <time>2016-04-24T09:27:35Z</time>
      </trkpt>
      <trkpt lat="47.46755" lon="6.69721">
        <ele>311</ele>
        <time>2016-04-24T09:27:36Z</time>
      </trkpt>
      <trkpt lat="47.46758" lon="6.69719">
        <ele>311</ele>
        <time>2016-04-24T09:27:37Z</time>
      </trkpt>
      <trkpt lat="47.46761" lon="6.69716">
        <ele>312</ele>
        <time>2016-04-24T09:27:38Z</time>
      </trkpt>
      <trkpt lat="47.46764" lon="6.69713">
        <ele>312</ele>
        <time>2016-04-24T09:27:39Z</time>
      </trkpt>
      <trkpt lat="47.46767" lon="6.69711">
        <ele>312</ele>
        <time>2016-04-24T09:27:40Z</time>
      </trkpt>
      <trkpt lat="47.46769" lon="6.69708">
        <ele>312</ele>
        <time>2016-04-24T09:27:41Z</time>
      </trkpt>
      <trkpt lat="47.46772" lon="6.69705">
        <ele>312</ele>
        <time>2016-04-24T09:27:42Z</time>
      </trkpt>
      <trkpt lat="47.46775" lon="6.69702">
        <ele>312</ele>
        <time>2016-04-24T09:27:43Z</time>
      </trkpt>
      <trkpt lat="47.46778" lon="6.69699">
        <ele>312</ele>
        <time>2016-04-24T09:27:44Z</time>
      </trkpt>
      <trkpt lat="47.46781" lon="6.69696">
        <ele>312</ele>
        <time>2016-04-24T09:27:45Z</time>
      </trkpt>
      <trkpt lat="47.46785" lon="6.69693">
        <ele>312</ele>
        <time>2016-04-24T09:27:46Z</time>
      </trkpt>
      <trkpt lat="47.46788" lon="6.69691">
        <ele>312</ele>
        <time>2016-04-24T09:27:47Z</time>
      </trkpt>
      <trkpt lat="47.46792" lon="6.69688">
        <ele>312</ele>
        <time>2016-04-24T09:27:48Z</time>
      </trkpt>
      <trkpt lat="47.46796" lon="6.69686">
        <ele>312</ele>
        <time>2016-04-24T09:27:49Z</time>
      </trkpt>
      <trkpt lat="47.46799" lon="6.69683">
        <ele>312</ele>
        <time>2016-04-24T09:27:50Z</time>
      </trkpt>
      <trkpt lat="47.46803" lon="6.6968">
        <ele>312</ele>
        <time>2016-04-24T09:27:51Z</time>
      </trkpt>
      <trkpt lat="47.46806" lon="6.69677">
        <ele>312</ele>
        <time>2016-04-24T09:27:52Z</time>
      </trkpt>
      <trkpt lat="47.46809" lon="6.69674">
        <ele>312</ele>
        <time>2016-04-24T09:27:53Z</time>
      </trkpt>
      <trkpt lat="47.46812" lon="6.69671">
        <ele>312</ele>
        <time>2016-04-24T09:27:54Z</time>
      </trkpt>
      <trkpt lat="47.46816" lon="6.69668">
        <ele>312</ele>
        <time>2016-04-24T09:27:55Z</time>
      </trkpt>
      <trkpt lat="47.46819" lon="6.69665">
        <ele>312</ele>
        <time>2016-04-24T09:27:56Z</time>
      </trkpt>
      <trkpt lat="47.46823" lon="6.69662">
        <ele>312</ele>
        <time>2016-04-24T09:27:57Z</time>
      </trkpt>
      <trkpt lat="47.46826" lon="6.69659">
        <ele>312</ele>
        <time>2016-04-24T09:27:58Z</time>
      </trkpt>
      <trkpt lat="47.4683" lon="6.69656">
        <ele>312</ele>
        <time>2016-04-24T09:27:59Z</time>
      </trkpt>
      <trkpt lat="47.46834" lon="6.69651">
        <ele>312</ele>
        <time>2016-04-24T09:28:00Z</time>
      </trkpt>
      <trkpt lat="47.46839" lon="6.69649">
        <ele>312</ele>
        <time>2016-04-24T09:28:01Z</time>
      </trkpt>
      <trkpt lat="47.46842" lon="6.69646">
        <ele>312</ele>
        <time>2016-04-24T09:28:02Z</time>
      </trkpt>
      <trkpt lat="47.46845" lon="6.69643">
        <ele>312</ele>
        <time>2016-04-24T09:28:03Z</time>
      </trkpt>
      <trkpt lat="47.46849" lon="6.6964">
        <ele>312</ele>
        <time>2016-04-24T09:28:04Z</time>
      </trkpt>
      <trkpt lat="47.46853" lon="6.69637">
        <ele>312</ele>
        <time>2016-04-24T09:28:05Z</time>
      </trkpt>
      <trkpt lat="47.46856" lon="6.69634">
        <ele>312</ele>
        <time>2016-04-24T09:28:06Z</time>
      </trkpt>
      <trkpt lat="47.46859" lon="6.69631">
        <ele>312</ele>
        <time>2016-04-24T09:28:07Z</time>
      </trkpt>
      <trkpt lat="47.46862" lon="6.69629">
        <ele>312</ele>
        <time>2016-04-24T09:28:08Z</time>
      </trkpt>
      <trkpt lat="47.46865" lon="6.69626">
        <ele>312</ele>
        <time>2016-04-24T09:28:09Z</time>
      </trkpt>
      <trkpt lat="47.46868" lon="6.69623">
        <ele>312</ele>
        <time>2016-04-24T09:28:10Z</time>
      </trkpt>
      <trkpt lat="47.46871" lon="6.6962">
        <ele>312</ele>
        <time>2016-04-24T09:28:11Z</time>
      </trkpt>
      <trkpt lat="47.46874" lon="6.69617">
        <ele>312</ele>
        <time>2016-04-24T09:28:12Z</time>
      </trkpt>
      <trkpt lat="47.46877" lon="6.69614">
        <ele>312</ele>
        <time>2016-04-24T09:28:13Z</time>
      </trkpt>
      <trkpt lat="47.4688" lon="6.69611">
        <ele>312</ele>
        <time>2016-04-24T09:28:14Z</time>
      </trkpt>
      <trkpt lat="47.46883" lon="6.69608">
        <ele>312</ele>
        <time>2016-04-24T09:28:15Z</time>
      </trkpt>
      <trkpt lat="47.46885" lon="6.69605">
        <ele>312</ele>
        <time>2016-04-24T09:28:16Z</time>
      </trkpt>
      <trkpt lat="47.46888" lon="6.69601">
        <ele>313</ele>
        <time>2016-04-24T09:28:17Z</time>
      </trkpt>
      <trkpt lat="47.46891" lon="6.69597">
        <ele>313</ele>
        <time>2016-04-24T09:28:18Z</time>
      </trkpt>
      <trkpt lat="47.46893" lon="6.69592">
        <ele>313</ele>
        <time>2016-04-24T09:28:19Z</time>
      </trkpt>
      <trkpt lat="47.46896" lon="6.69587">
        <ele>313</ele>
        <time>2016-04-24T09:28:20Z</time>
      </trkpt>
      <trkpt lat="47.46898" lon="6.69581">
        <ele>312</ele>
        <time>2016-04-24T09:28:21Z</time>
      </trkpt>
      <trkpt lat="47.46901" lon="6.69575">
        <ele>312</ele>
        <time>2016-04-24T09:28:22Z</time>
      </trkpt>
      <trkpt lat="47.46903" lon="6.6957">
        <ele>312</ele>
        <time>2016-04-24T09:28:23Z</time>
      </trkpt>
      <trkpt lat="47.46905" lon="6.69564">
        <ele>312</ele>
        <time>2016-04-24T09:28:24Z</time>
      </trkpt>
      <trkpt lat="47.46908" lon="6.69555">
        <ele>312</ele>
        <time>2016-04-24T09:28:25Z</time>
      </trkpt>
      <trkpt lat="47.46911" lon="6.6955">
        <ele>312</ele>
        <time>2016-04-24T09:28:26Z</time>
      </trkpt>
      <trkpt lat="47.46914" lon="6.69544">
        <ele>311</ele>
        <time>2016-04-24T09:28:27Z</time>
      </trkpt>
      <trkpt lat="47.46916" lon="6.69539">
        <ele>311</ele>
        <time>2016-04-24T09:28:28Z</time>
      </trkpt>
      <trkpt lat="47.46919" lon="6.69533">
        <ele>312</ele>
        <time>2016-04-24T09:28:29Z</time>
      </trkpt>
      <trkpt lat="47.46922" lon="6.69527">
        <ele>311</ele>
        <time>2016-04-24T09:28:30Z</time>
      </trkpt>
      <trkpt lat="47.46924" lon="6.6952">
        <ele>311</ele>
        <time>2016-04-24T09:28:31Z</time>
      </trkpt>
      <trkpt lat="47.46927" lon="6.69514">
        <ele>311</ele>
        <time>2016-04-24T09:28:32Z</time>
      </trkpt>
      <trkpt lat="47.4693" lon="6.69507">
        <ele>311</ele>
        <time>2016-04-24T09:28:33Z</time>
      </trkpt>
      <trkpt lat="47.46933" lon="6.69502">
        <ele>311</ele>
        <time>2016-04-24T09:28:34Z</time>
      </trkpt>
      <trkpt lat="47.46936" lon="6.69495">
        <ele>310</ele>
        <time>2016-04-24T09:28:35Z</time>
      </trkpt>
      <trkpt lat="47.46938" lon="6.69489">
        <ele>310</ele>
        <time>2016-04-24T09:28:36Z</time>
      </trkpt>
      <trkpt lat="47.4694" lon="6.69483">
        <ele>310</ele>
        <time>2016-04-24T09:28:37Z</time>
      </trkpt>
      <trkpt lat="47.46942" lon="6.69476">
        <ele>310</ele>
        <time>2016-04-24T09:28:38Z</time>
      </trkpt>
      <trkpt lat="47.46945" lon="6.6947">
        <ele>310</ele>
        <time>2016-04-24T09:28:39Z</time>
      </trkpt>
      <trkpt lat="47.46948" lon="6.69464">
        <ele>309</ele>
        <time>2016-04-24T09:28:40Z</time>
      </trkpt>
      <trkpt lat="47.46952" lon="6.69457">
        <ele>309</ele>
        <time>2016-04-24T09:28:41Z</time>
      </trkpt>
      <trkpt lat="47.46954" lon="6.69451">
        <ele>309</ele>
        <time>2016-04-24T09:28:42Z</time>
      </trkpt>
      <trkpt lat="47.46957" lon="6.69445">
        <ele>309</ele>
        <time>2016-04-24T09:28:43Z</time>
      </trkpt>
      <trkpt lat="47.4696" lon="6.69438">
        <ele>309</ele>
        <time>2016-04-24T09:28:44Z</time>
      </trkpt>
      <trkpt lat="47.46963" lon="6.69432">
        <ele>309</ele>
        <time>2016-04-24T09:28:45Z</time>
      </trkpt>
      <trkpt lat="47.46965" lon="6.69426">
        <ele>309</ele>
        <time>2016-04-24T09:28:46Z</time>
      </trkpt>
      <trkpt lat="47.46969" lon="6.69419">
        <ele>309</ele>
        <time>2016-04-24T09:28:47Z</time>
      </trkpt>
      <trkpt lat="47.46972" lon="6.69413">
        <ele>308</ele>
        <time>2016-04-24T09:28:48Z</time>
      </trkpt>
      <trkpt lat="47.46975" lon="6.69406">
        <ele>308</ele>
        <time>2016-04-24T09:28:49Z</time>
      </trkpt>
      <trkpt lat="47.46977" lon="6.69401">
        <ele>308</ele>
        <time>2016-04-24T09:28:50Z</time>
      </trkpt>
      <trkpt lat="47.4698" lon="6.69395">
        <ele>308</ele>
        <time>2016-04-24T09:28:51Z</time>
      </trkpt>
      <trkpt lat="47.46983" lon="6.6939">
        <ele>308</ele>
        <time>2016-04-24T09:28:52Z</time>
      </trkpt>
      <trkpt lat="47.46986" lon="6.69385">
        <ele>308</ele>
        <time>2016-04-24T09:28:53Z</time>
      </trkpt>
      <trkpt lat="47.46988" lon="6.6938">
        <ele>308</ele>
        <time>2016-04-24T09:28:54Z</time>
      </trkpt>
      <trkpt lat="47.46991" lon="6.69374">
        <ele>308</ele>
        <time>2016-04-24T09:28:55Z</time>
      </trkpt>
      <trkpt lat="47.46994" lon="6.69368">
        <ele>308</ele>
        <time>2016-04-24T09:28:56Z</time>
      </trkpt>
      <trkpt lat="47.46996" lon="6.69363">
        <ele>308</ele>
        <time>2016-04-24T09:28:57Z</time>
      </trkpt>
      <trkpt lat="47.46999" lon="6.69358">
        <ele>309</ele>
        <time>2016-04-24T09:28:58Z</time>
      </trkpt>
      <trkpt lat="47.47001" lon="6.69353">
        <ele>308</ele>
        <time>2016-04-24T09:28:59Z</time>
      </trkpt>
      <trkpt lat="47.47004" lon="6.69349">
        <ele>309</ele>
        <time>2016-04-24T09:29:00Z</time>
      </trkpt>
      <trkpt lat="47.47006" lon="6.69343">
        <ele>309</ele>
        <time>2016-04-24T09:29:01Z</time>
      </trkpt>
      <trkpt lat="47.47009" lon="6.69338">
        <ele>309</ele>
        <time>2016-04-24T09:29:02Z</time>
      </trkpt>
      <trkpt lat="47.47011" lon="6.69332">
        <ele>308</ele>
        <time>2016-04-24T09:29:03Z</time>
      </trkpt>
      <trkpt lat="47.47014" lon="6.69325">
        <ele>308</ele>
        <time>2016-04-24T09:29:04Z</time>
      </trkpt>
      <trkpt lat="47.47017" lon="6.69318">
        <ele>308</ele>
        <time>2016-04-24T09:29:05Z</time>
      </trkpt>
      <trkpt lat="47.47019" lon="6.69313">
        <ele>308</ele>
        <time>2016-04-24T09:29:06Z</time>
      </trkpt>
      <trkpt lat="47.47021" lon="6.69307">
        <ele>308</ele>
        <time>2016-04-24T09:29:07Z</time>
      </trkpt>
      <trkpt lat="47.47023" lon="6.69301">
        <ele>308</ele>
        <time>2016-04-24T09:29:08Z</time>
      </trkpt>
      <trkpt lat="47.47026" lon="6.69296">
        <ele>308</ele>
        <time>2016-04-24T09:29:09Z</time>
      </trkpt>
      <trkpt lat="47.47029" lon="6.69291">
        <ele>308</ele>
        <time>2016-04-24T09:29:10Z</time>
      </trkpt>
      <trkpt lat="47.47031" lon="6.69286">
        <ele>308</ele>
        <time>2016-04-24T09:29:11Z</time>
      </trkpt>
      <trkpt lat="47.47033" lon="6.6928">
        <ele>308</ele>
        <time>2016-04-24T09:29:12Z</time>
      </trkpt>
      <trkpt lat="47.47036" lon="6.69274">
        <ele>307</ele>
        <time>2016-04-24T09:29:13Z</time>
      </trkpt>
      <trkpt lat="47.47039" lon="6.69268">
        <ele>307</ele>
        <time>2016-04-24T09:29:14Z</time>
      </trkpt>
      <trkpt lat="47.47041" lon="6.69263">
        <ele>307</ele>
        <time>2016-04-24T09:29:15Z</time>
      </trkpt>
      <trkpt lat="47.47044" lon="6.69258">
        <ele>307</ele>
        <time>2016-04-24T09:29:16Z</time>
      </trkpt>
      <trkpt lat="47.47047" lon="6.69252">
        <ele>307</ele>
        <time>2016-04-24T09:29:17Z</time>
      </trkpt>
      <trkpt lat="47.47049" lon="6.69247">
        <ele>307</ele>
        <time>2016-04-24T09:29:18Z</time>
      </trkpt>
      <trkpt lat="47.47053" lon="6.69242">
        <ele>307</ele>
        <time>2016-04-24T09:29:19Z</time>
      </trkpt>
      <trkpt lat="47.47055" lon="6.69235">
        <ele>307</ele>
        <time>2016-04-24T09:29:20Z</time>
      </trkpt>
      <trkpt lat="47.47057" lon="6.69231">
        <ele>307</ele>
        <time>2016-04-24T09:29:21Z</time>
      </trkpt>
      <trkpt lat="47.47059" lon="6.69226">
        <ele>307</ele>
        <time>2016-04-24T09:29:22Z</time>
      </trkpt>
      <trkpt lat="47.47061" lon="6.69221">
        <ele>307</ele>
        <time>2016-04-24T09:29:23Z</time>
      </trkpt>
      <trkpt lat="47.47063" lon="6.69217">
        <ele>307</ele>
        <time>2016-04-24T09:29:24Z</time>
      </trkpt>
      <trkpt lat="47.47065" lon="6.69213">
        <ele>307</ele>
        <time>2016-04-24T09:29:25Z</time>
      </trkpt>
      <trkpt lat="47.47067" lon="6.69212">
        <ele>307</ele>
        <time>2016-04-24T09:29:26Z</time>
      </trkpt>
      <trkpt lat="47.4707" lon="6.69214">
        <ele>307</ele>
        <time>2016-04-24T09:29:27Z</time>
      </trkpt>
      <trkpt lat="47.47074" lon="6.69227">
        <ele>307</ele>
        <time>2016-04-24T09:29:28Z</time>
      </trkpt>
      <trkpt lat="47.47078" lon="6.69232">
        <ele>307</ele>
        <time>2016-04-24T09:29:29Z</time>
      </trkpt>
      <trkpt lat="47.47081" lon="6.69236">
        <ele>306</ele>
        <time>2016-04-24T09:29:30Z</time>
      </trkpt>
      <trkpt lat="47.47084" lon="6.69241">
        <ele>306</ele>
        <time>2016-04-24T09:29:31Z</time>
      </trkpt>
      <trkpt lat="47.47088" lon="6.69246">
        <ele>306</ele>
        <time>2016-04-24T09:29:32Z</time>
      </trkpt>
      <trkpt lat="47.47093" lon="6.69256">
        <ele>306</ele>
        <time>2016-04-24T09:29:33Z</time>
      </trkpt>
      <trkpt lat="47.47096" lon="6.69263">
        <ele>306</ele>
        <time>2016-04-24T09:29:34Z</time>
      </trkpt>
      <trkpt lat="47.47099" lon="6.69272">
        <ele>306</ele>
        <time>2016-04-24T09:29:35Z</time>
      </trkpt>
      <trkpt lat="47.47104" lon="6.6928">
        <ele>306</ele>
        <time>2016-04-24T09:29:36Z</time>
      </trkpt>
      <trkpt lat="47.47108" lon="6.69287">
        <ele>306</ele>
        <time>2016-04-24T09:29:37Z</time>
      </trkpt>
      <trkpt lat="47.47109" lon="6.69295">
        <ele>307</ele>
        <time>2016-04-24T09:29:38Z</time>
      </trkpt>
      <trkpt lat="47.47113" lon="6.69302">
        <ele>307</ele>
        <time>2016-04-24T09:29:39Z</time>
      </trkpt>
      <trkpt lat="47.47116" lon="6.69312">
        <ele>307</ele>
        <time>2016-04-24T09:29:40Z</time>
      </trkpt>
      <trkpt lat="47.47117" lon="6.69321">
        <ele>307</ele>
        <time>2016-04-24T09:29:41Z</time>
      </trkpt>
      <trkpt lat="47.4712" lon="6.69329">
        <ele>307</ele>
        <time>2016-04-24T09:29:42Z</time>
      </trkpt>
      <trkpt lat="47.47122" lon="6.69338">
        <ele>307</ele>
        <time>2016-04-24T09:29:43Z</time>
      </trkpt>
      <trkpt lat="47.47124" lon="6.69348">
        <ele>307</ele>
        <time>2016-04-24T09:29:44Z</time>
      </trkpt>
      <trkpt lat="47.47127" lon="6.69355">
        <ele>307</ele>
        <time>2016-04-24T09:29:45Z</time>
      </trkpt>
      <trkpt lat="47.47128" lon="6.69364">
        <ele>307</ele>
        <time>2016-04-24T09:29:46Z</time>
      </trkpt>
      <trkpt lat="47.4713" lon="6.69373">
        <ele>307</ele>
        <time>2016-04-24T09:29:47Z</time>
      </trkpt>
      <trkpt lat="47.47133" lon="6.69382">
        <ele>307</ele>
        <time>2016-04-24T09:29:48Z</time>
      </trkpt>
      <trkpt lat="47.47137" lon="6.69391">
        <ele>307</ele>
        <time>2016-04-24T09:29:49Z</time>
      </trkpt>
      <trkpt lat="47.47136" lon="6.69401">
        <ele>307</ele>
        <time>2016-04-24T09:29:50Z</time>
      </trkpt>
      <trkpt lat="47.47138" lon="6.69407">
        <ele>307</ele>
        <time>2016-04-24T09:29:51Z</time>
      </trkpt>
      <trkpt lat="47.47139" lon="6.69414">
        <ele>307</ele>
        <time>2016-04-24T09:29:52Z</time>
      </trkpt>
      <trkpt lat="47.47138" lon="6.69421">
        <ele>308</ele>
        <time>2016-04-24T09:29:53Z</time>
      </trkpt>
      <trkpt lat="47.47139" lon="6.69428">
        <ele>308</ele>
        <time>2016-04-24T09:29:54Z</time>
      </trkpt>
      <trkpt lat="47.47138" lon="6.69435">
        <ele>308</ele>
        <time>2016-04-24T09:29:55Z</time>
      </trkpt>
      <trkpt lat="47.47137" lon="6.69441">
        <ele>308</ele>
        <time>2016-04-24T09:29:56Z</time>
      </trkpt>
      <trkpt lat="47.47135" lon="6.69448">
        <ele>308</ele>
        <time>2016-04-24T09:29:57Z</time>
      </trkpt>
      <trkpt lat="47.47136" lon="6.69455">
        <ele>308</ele>
        <time>2016-04-24T09:29:58Z</time>
      </trkpt>
      <trkpt lat="47.47141" lon="6.69458">
        <ele>308</ele>
        <time>2016-04-24T09:29:59Z</time>
      </trkpt>
      <trkpt lat="47.47146" lon="6.69461">
        <ele>308</ele>
        <time>2016-04-24T09:30:00Z</time>
      </trkpt>
      <trkpt lat="47.47151" lon="6.69462">
        <ele>308</ele>
        <time>2016-04-24T09:30:01Z</time>
      </trkpt>
      <trkpt lat="47.47156" lon="6.69463">
        <ele>308</ele>
        <time>2016-04-24T09:30:02Z</time>
      </trkpt>
      <trkpt lat="47.47162" lon="6.69464">
        <ele>308</ele>
        <time>2016-04-24T09:30:03Z</time>
      </trkpt>
      <trkpt lat="47.47167" lon="6.69465">
        <ele>309</ele>
        <time>2016-04-24T09:30:04Z</time>
      </trkpt>
      <trkpt lat="47.47172" lon="6.69466">
        <ele>309</ele>
        <time>2016-04-24T09:30:05Z</time>
      </trkpt>
      <trkpt lat="47.47177" lon="6.69469">
        <ele>309</ele>
        <time>2016-04-24T09:30:06Z</time>
      </trkpt>
      <trkpt lat="47.47183" lon="6.69471">
        <ele>309</ele>
        <time>2016-04-24T09:30:07Z</time>
      </trkpt>
      <trkpt lat="47.47185" lon="6.69473">
        <ele>309</ele>
        <time>2016-04-24T09:30:08Z</time>
      </trkpt>
      <trkpt lat="47.47189" lon="6.69475">
        <ele>309</ele>
        <time>2016-04-24T09:30:09Z</time>
      </trkpt>
      <trkpt lat="47.47192" lon="6.69477">
        <ele>309</ele>
        <time>2016-04-24T09:30:10Z</time>
      </trkpt>
      <trkpt lat="47.47196" lon="6.69479">
        <ele>309</ele>
        <time>2016-04-24T09:30:11Z</time>
      </trkpt>
      <trkpt lat="47.47199" lon="6.6948">
        <ele>309</ele>
        <time>2016-04-24T09:30:12Z</time>
      </trkpt>
      <trkpt lat="47.47203" lon="6.69481">
        <ele>310</ele>
        <time>2016-04-24T09:30:13Z</time>
      </trkpt>
      <trkpt lat="47.47206" lon="6.69481">
        <ele>310</ele>
        <time>2016-04-24T09:30:14Z</time>
      </trkpt>
      <trkpt lat="47.4721" lon="6.69482">
        <ele>310</ele>
        <time>2016-04-24T09:30:15Z</time>
      </trkpt>
      <trkpt lat="47.47214" lon="6.69482">
        <ele>310</ele>
        <time>2016-04-24T09:30:16Z</time>
      </trkpt>
      <trkpt lat="47.47218" lon="6.69482">
        <ele>310</ele>
        <time>2016-04-24T09:30:17Z</time>
      </trkpt>
      <trkpt lat="47.47221" lon="6.69483">
        <ele>310</ele>
        <time>2016-04-24T09:30:18Z</time>
      </trkpt>
      <trkpt lat="47.47225" lon="6.69483">
        <ele>310</ele>
        <time>2016-04-24T09:30:19Z</time>
      </trkpt>
      <trkpt lat="47.47229" lon="6.69482">
        <ele>310</ele>
        <time>2016-04-24T09:30:20Z</time>
      </trkpt>
      <trkpt lat="47.47233" lon="6.69481">
        <ele>311</ele>
        <time>2016-04-24T09:30:21Z</time>
      </trkpt>
      <trkpt lat="47.47237" lon="6.69481">
        <ele>311</ele>
        <time>2016-04-24T09:30:22Z</time>
      </trkpt>
      <trkpt lat="47.47241" lon="6.69481">
        <ele>311</ele>
        <time>2016-04-24T09:30:23Z</time>
      </trkpt>
      <trkpt lat="47.47245" lon="6.69482">
        <ele>311</ele>
        <time>2016-04-24T09:30:24Z</time>
      </trkpt>
      <trkpt lat="47.47249" lon="6.69484">
        <ele>311</ele>
        <time>2016-04-24T09:30:25Z</time>
      </trkpt>
      <trkpt lat="47.47253" lon="6.69486">
        <ele>312</ele>
        <time>2016-04-24T09:30:26Z</time>
      </trkpt>
      <trkpt lat="47.47256" lon="6.69488">
        <ele>312</ele>
        <time>2016-04-24T09:30:27Z</time>
      </trkpt>
      <trkpt lat="47.47259" lon="6.69491">
        <ele>312</ele>
        <time>2016-04-24T09:30:28Z</time>
      </trkpt>
      <trkpt lat="47.47262" lon="6.69493">
        <ele>312</ele>
        <time>2016-04-24T09:30:29Z</time>
      </trkpt>
      <trkpt lat="47.47265" lon="6.69494">
        <ele>312</ele>
        <time>2016-04-24T09:30:30Z</time>
      </trkpt>
      <trkpt lat="47.47269" lon="6.69495">
        <ele>312</ele>
        <time>2016-04-24T09:30:31Z</time>
      </trkpt>
      <trkpt lat="47.47272" lon="6.69496">
        <ele>312</ele>
        <time>2016-04-24T09:30:32Z</time>
      </trkpt>
      <trkpt lat="47.47276" lon="6.69497">
        <ele>312</ele>
        <time>2016-04-24T09:30:33Z</time>
      </trkpt>
      <trkpt lat="47.47279" lon="6.69497">
        <ele>312</ele>
        <time>2016-04-24T09:30:34Z</time>
      </trkpt>
      <trkpt lat="47.47282" lon="6.69497">
        <ele>312</ele>
        <time>2016-04-24T09:30:35Z</time>
      </trkpt>
      <trkpt lat="47.47285" lon="6.69496">
        <ele>312</ele>
        <time>2016-04-24T09:30:36Z</time>
      </trkpt>
      <trkpt lat="47.47289" lon="6.69494">
        <ele>312</ele>
        <time>2016-04-24T09:30:38Z</time>
      </trkpt>
      <trkpt lat="47.4729" lon="6.69492">
        <ele>312</ele>
        <time>2016-04-24T09:30:39Z</time>
      </trkpt>
      <trkpt lat="47.47292" lon="6.69488">
        <ele>312</ele>
        <time>2016-04-24T09:30:40Z</time>
      </trkpt>
      <trkpt lat="47.47293" lon="6.69484">
        <ele>312</ele>
        <time>2016-04-24T09:30:41Z</time>
      </trkpt>
      <trkpt lat="47.47295" lon="6.6948">
        <ele>312</ele>
        <time>2016-04-24T09:30:42Z</time>
      </trkpt>
      <trkpt lat="47.47301" lon="6.69477">
        <ele>312</ele>
        <time>2016-04-24T09:30:43Z</time>
      </trkpt>
      <trkpt lat="47.47306" lon="6.69473">
        <ele>312</ele>
        <time>2016-04-24T09:30:44Z</time>
      </trkpt>
      <trkpt lat="47.47312" lon="6.69471">
        <ele>312</ele>
        <time>2016-04-24T09:30:45Z</time>
      </trkpt>
      <trkpt lat="47.47317" lon="6.6947">
        <ele>312</ele>
        <time>2016-04-24T09:30:46Z</time>
      </trkpt>
      <trkpt lat="47.47323" lon="6.69466">
        <ele>312</ele>
        <time>2016-04-24T09:30:47Z</time>
      </trkpt>
      <trkpt lat="47.47329" lon="6.69465">
        <ele>312</ele>
        <time>2016-04-24T09:30:48Z</time>
      </trkpt>
      <trkpt lat="47.47333" lon="6.69465">
        <ele>312</ele>
        <time>2016-04-24T09:30:49Z</time>
      </trkpt>
      <trkpt lat="47.47338" lon="6.69464">
        <ele>312</ele>
        <time>2016-04-24T09:30:49.999Z</time>
      </trkpt>
      <trkpt lat="47.47343" lon="6.69463">
        <ele>312</ele>
        <time>2016-04-24T09:30:51Z</time>
      </trkpt>
      <trkpt lat="47.47349" lon="6.69463">
        <ele>312</ele>
        <time>2016-04-24T09:30:52Z</time>
      </trkpt>
      <trkpt lat="47.47355" lon="6.69463">
        <ele>312</ele>
        <time>2016-04-24T09:30:53Z</time>
      </trkpt>
      <trkpt lat="47.47362" lon="6.69464">
        <ele>312</ele>
        <time>2016-04-24T09:30:54Z</time>
      </trkpt>
      <trkpt lat="47.47367" lon="6.69463">
        <ele>312</ele>
        <time>2016-04-24T09:30:55Z</time>
      </trkpt>
      <trkpt lat="47.47372" lon="6.69463">
        <ele>312</ele>
        <time>2016-04-24T09:30:56Z</time>
      </trkpt>
      <trkpt lat="47.47378" lon="6.69464">
        <ele>312</ele>
        <time>2016-04-24T09:30:57Z</time>
      </trkpt>
      <trkpt lat="47.47383" lon="6.69462">
        <ele>312</ele>
        <time>2016-04-24T09:30:58Z</time>
      </trkpt>
      <trkpt lat="47.47385" lon="6.69459">
        <ele>312</ele>
        <time>2016-04-24T09:30:59Z</time>
      </trkpt>
      <trkpt lat="47.47389" lon="6.69457">
        <ele>312</ele>
        <time>2016-04-24T09:30:59.999Z</time>
      </trkpt>
      <trkpt lat="47.4739" lon="6.69449">
        <ele>312</ele>
        <time>2016-04-24T09:31:01Z</time>
      </trkpt>
      <trkpt lat="47.47392" lon="6.69442">
        <ele>311</ele>
        <time>2016-04-24T09:31:02Z</time>
      </trkpt>
      <trkpt lat="47.47393" lon="6.69436">
        <ele>311</ele>
        <time>2016-04-24T09:31:03Z</time>
      </trkpt>
      <trkpt lat="47.47395" lon="6.6943">
        <ele>311</ele>
        <time>2016-04-24T09:31:04Z</time>
      </trkpt>
      <trkpt lat="47.47395" lon="6.69422">
        <ele>311</ele>
        <time>2016-04-24T09:31:05Z</time>
      </trkpt>
      <trkpt lat="47.47394" lon="6.69413">
        <ele>309</ele>
        <time>2016-04-24T09:31:06Z</time>
      </trkpt>
      <trkpt lat="47.47395" lon="6.69406">
        <ele>309</ele>
        <time>2016-04-24T09:31:07Z</time>
      </trkpt>
      <trkpt lat="47.47395" lon="6.69402">
        <ele>309</ele>
        <time>2016-04-24T09:31:08Z</time>
      </trkpt>
      <trkpt lat="47.47394" lon="6.69398">
        <ele>309</ele>
        <time>2016-04-24T09:31:09Z</time>
      </trkpt>
      <trkpt lat="47.47395" lon="6.69393">
        <ele>309</ele>
        <time>2016-04-24T09:31:10Z</time>
      </trkpt>
      <trkpt lat="47.47399" lon="6.69382">
        <ele>309</ele>
        <time>2016-04-24T09:31:11Z</time>
      </trkpt>
      <trkpt lat="47.47401" lon="6.69374">
        <ele>309</ele>
        <time>2016-04-24T09:31:12Z</time>
      </trkpt>
      <trkpt lat="47.47401" lon="6.69368">
        <ele>309</ele>
        <time>2016-04-24T09:31:13Z</time>
      </trkpt>
      <trkpt lat="47.47401" lon="6.69362">
        <ele>309</ele>
        <time>2016-04-24T09:31:14Z</time>
      </trkpt>
      <trkpt lat="47.47401" lon="6.69355">
        <ele>309</ele>
        <time>2016-04-24T09:31:15Z</time>
      </trkpt>
      <trkpt lat="47.47401" lon="6.69348">
        <ele>308</ele>
        <time>2016-04-24T09:31:16Z</time>
      </trkpt>
      <trkpt lat="47.474" lon="6.69342">
        <ele>308</ele>
        <time>2016-04-24T09:31:17Z</time>
      </trkpt>
      <trkpt lat="47.47398" lon="6.69334">
        <ele>308</ele>
        <time>2016-04-24T09:31:18Z</time>
      </trkpt>
      <trkpt lat="47.47397" lon="6.69327">
        <ele>308</ele>
        <time>2016-04-24T09:31:19Z</time>
      </trkpt>
      <trkpt lat="47.47394" lon="6.69322">
        <ele>308</ele>
        <time>2016-04-24T09:31:20Z</time>
      </trkpt>
      <trkpt lat="47.47391" lon="6.69315">
        <ele>308</ele>
        <time>2016-04-24T09:31:21Z</time>
      </trkpt>
      <trkpt lat="47.47389" lon="6.6931">
        <ele>308</ele>
        <time>2016-04-24T09:31:22Z</time>
      </trkpt>
      <trkpt lat="47.47384" lon="6.69304">
        <ele>308</ele>
        <time>2016-04-24T09:31:23Z</time>
      </trkpt>
      <trkpt lat="47.47382" lon="6.69299">
        <ele>308</ele>
        <time>2016-04-24T09:31:24Z</time>
      </trkpt>
      <trkpt lat="47.4738" lon="6.69294">
        <ele>308</ele>
        <time>2016-04-24T09:31:25Z</time>
      </trkpt>
      <trkpt lat="47.47377" lon="6.69289">
        <ele>308</ele>
        <time>2016-04-24T09:31:26Z</time>
      </trkpt>
      <trkpt lat="47.47374" lon="6.69284">
        <ele>308</ele>
        <time>2016-04-24T09:31:27Z</time>
      </trkpt>
      <trkpt lat="47.47372" lon="6.69279">
        <ele>308</ele>
        <time>2016-04-24T09:31:28Z</time>
      </trkpt>
      <trkpt lat="47.4737" lon="6.69275">
        <ele>308</ele>
        <time>2016-04-24T09:31:29Z</time>
      </trkpt>
      <trkpt lat="47.47367" lon="6.69271">
        <ele>308</ele>
        <time>2016-04-24T09:31:30Z</time>
      </trkpt>
      <trkpt lat="47.47365" lon="6.69265">
        <ele>308</ele>
        <time>2016-04-24T09:31:31Z</time>
      </trkpt>
      <trkpt lat="47.47365" lon="6.69261">
        <ele>308</ele>
        <time>2016-04-24T09:31:32Z</time>
      </trkpt>
      <trkpt lat="47.47361" lon="6.69258">
        <ele>308</ele>
        <time>2016-04-24T09:31:33Z</time>
      </trkpt>
      <trkpt lat="47.4736" lon="6.69255">
        <ele>308</ele>
        <time>2016-04-24T09:31:34Z</time>
      </trkpt>
      <trkpt lat="47.47359" lon="6.69251">
        <ele>308</ele>
        <time>2016-04-24T09:31:35Z</time>
      </trkpt>
      <trkpt lat="47.47358" lon="6.69246">
        <ele>309</ele>
        <time>2016-04-24T09:31:37Z</time>
      </trkpt>
      <trkpt lat="47.47357" lon="6.69245">
        <ele>309</ele>
        <time>2016-04-24T09:31:38Z</time>
      </trkpt>
      <trkpt lat="47.47355" lon="6.69242">
        <ele>309</ele>
        <time>2016-04-24T09:31:40Z</time>
      </trkpt>
      <trkpt lat="47.47353" lon="6.6924">
        <ele>309</ele>
        <time>2016-04-24T09:31:41Z</time>
      </trkpt>
      <trkpt lat="47.47352" lon="6.69237">
        <ele>309</ele>
        <time>2016-04-24T09:31:42Z</time>
      </trkpt>
      <trkpt lat="47.4735" lon="6.69233">
        <ele>309</ele>
        <time>2016-04-24T09:31:43Z</time>
      </trkpt>
      <trkpt lat="47.47348" lon="6.69229">
        <ele>309</ele>
        <time>2016-04-24T09:31:44Z</time>
      </trkpt>
      <trkpt lat="47.47346" lon="6.69225">
        <ele>309</ele>
        <time>2016-04-24T09:31:45Z</time>
      </trkpt>
      <trkpt lat="47.47344" lon="6.6922">
        <ele>309</ele>
        <time>2016-04-24T09:31:46Z</time>
      </trkpt>
      <trkpt lat="47.47341" lon="6.69216">
        <ele>309</ele>
        <time>2016-04-24T09:31:47Z</time>
      </trkpt>
      <trkpt lat="47.47338" lon="6.69211">
        <ele>309</ele>
        <time>2016-04-24T09:31:48Z</time>
      </trkpt>
      <trkpt lat="47.47335" lon="6.69207">
        <ele>309</ele>
        <time>2016-04-24T09:31:49Z</time>
      </trkpt>
      <trkpt lat="47.47333" lon="6.69202">
        <ele>308</ele>
        <time>2016-04-24T09:31:50Z</time>
      </trkpt>
      <trkpt lat="47.47331" lon="6.69198">
        <ele>308</ele>
        <time>2016-04-24T09:31:51Z</time>
      </trkpt>
      <trkpt lat="47.47328" lon="6.69193">
        <ele>308</ele>
        <time>2016-04-24T09:31:52Z</time>
      </trkpt>
      <trkpt lat="47.47327" lon="6.69188">
        <ele>309</ele>
        <time>2016-04-24T09:31:53Z</time>
      </trkpt>
      <trkpt lat="47.47325" lon="6.69183">
        <ele>309</ele>
        <time>2016-04-24T09:31:54Z</time>
      </trkpt>
      <trkpt lat="47.47324" lon="6.69178">
        <ele>309</ele>
        <time>2016-04-24T09:31:55Z</time>
      </trkpt>
      <trkpt lat="47.47323" lon="6.69173">
        <ele>309</ele>
        <time>2016-04-24T09:31:56Z</time>
      </trkpt>
      <trkpt lat="47.47321" lon="6.69167">
        <ele>309</ele>
        <time>2016-04-24T09:31:57Z</time>
      </trkpt>
      <trkpt lat="47.4732" lon="6.69162">
        <ele>309</ele>
        <time>2016-04-24T09:31:58Z</time>
      </trkpt>
      <trkpt lat="47.47318" lon="6.69158">
        <ele>309</ele>
        <time>2016-04-24T09:31:59Z</time>
      </trkpt>
      <trkpt lat="47.47316" lon="6.69154">
        <ele>309</ele>
        <time>2016-04-24T09:32:00Z</time>
      </trkpt>
      <trkpt lat="47.47315" lon="6.69151">
        <ele>309</ele>
        <time>2016-04-24T09:32:01Z</time>
      </trkpt>
      <trkpt lat="47.47317" lon="6.69146">
        <ele>309</ele>
        <time>2016-04-24T09:32:30Z</time>
      </trkpt>
      <trkpt lat="47.47318" lon="6.69145">
        <ele>309</ele>
        <time>2016-04-24T09:32:31Z</time>
      </trkpt>
      <trkpt lat="47.47321" lon="6.69142">
        <ele>309</ele>
        <time>2016-04-24T09:32:33Z</time>
      </trkpt>
      <trkpt lat="47.47323" lon="6.69141">
        <ele>309</ele>
        <time>2016-04-24T09:32:34Z</time>
      </trkpt>
      <trkpt lat="47.47327" lon="6.69141">
        <ele>309</ele>
        <time>2016-04-24T09:32:36Z</time>
      </trkpt>
      <trkpt lat="47.47328" lon="6.69141">
        <ele>309</ele>
        <time>2016-04-24T09:32:37Z</time>
      </trkpt>
      <trkpt lat="47.47331" lon="6.69144">
        <ele>309</ele>
        <time>2016-04-24T09:32:41Z</time>
      </trkpt>
      <trkpt lat="47.47332" lon="6.69144">
        <ele>309</ele>
        <time>2016-04-24T09:32:42Z</time>
      </trkpt>
      <trkpt lat="47.47336" lon="6.69144">
        <ele>310</ele>
        <time>2016-04-24T09:34:50Z</time>
      </trkpt>
      <trkpt lat="47.47337" lon="6.69145">
        <ele>310</ele>
        <time>2016-04-24T09:34:51Z</time>
      </trkpt>
      <trkpt lat="47.47339" lon="6.69148">
        <ele>310</ele>
        <time>2016-04-24T09:35:10Z</time>
      </trkpt>
      <trkpt lat="47.47341" lon="6.6915">
        <ele>310</ele>
        <time>2016-04-24T09:35:11Z</time>
      </trkpt>
      <trkpt lat="47.47344" lon="6.69153">
        <ele>310</ele>
        <time>2016-04-24T09:35:12Z</time>
      </trkpt>
      <trkpt lat="47.47347" lon="6.69156">
        <ele>310</ele>
        <time>2016-04-24T09:35:13Z</time>
      </trkpt>
      <trkpt lat="47.47349" lon="6.6916">
        <ele>310</ele>
        <time>2016-04-24T09:35:14Z</time>
      </trkpt>
      <trkpt lat="47.47351" lon="6.69163">
        <ele>310</ele>
        <time>2016-04-24T09:35:15Z</time>
      </trkpt>
      <trkpt lat="47.47352" lon="6.69167">
        <ele>309</ele>
        <time>2016-04-24T09:35:17Z</time>
      </trkpt>
      <trkpt lat="47.47353" lon="6.69169">
        <ele>309</ele>
        <time>2016-04-24T09:35:18Z</time>
      </trkpt>
      <trkpt lat="47.47357" lon="6.69166">
        <ele>310</ele>
        <time>2016-04-24T09:35:27Z</time>
      </trkpt>
      <trkpt lat="47.47357" lon="6.69167">
        <ele>309</ele>
        <time>2016-04-24T09:35:28Z</time>
      </trkpt>
      <trkpt lat="47.47359" lon="6.69172">
        <ele>309</ele>
        <time>2016-04-24T09:35:50Z</time>
      </trkpt>
      <trkpt lat="47.47359" lon="6.69173">
        <ele>309</ele>
        <time>2016-04-24T09:35:51Z</time>
      </trkpt>
      <trkpt lat="47.47363" lon="6.69176">
        <ele>309</ele>
        <time>2016-04-24T09:36:01Z</time>
      </trkpt>
      <trkpt lat="47.47363" lon="6.69176">
        <ele>309</ele>
        <time>2016-04-24T09:36:02Z</time>
      </trkpt>
      <trkpt lat="47.47361" lon="6.69182">
        <ele>309</ele>
        <time>2016-04-24T09:36:17Z</time>
      </trkpt>
      <trkpt lat="47.47359" lon="6.69182">
        <ele>309</ele>
        <time>2016-04-24T09:36:18Z</time>
      </trkpt>
      <trkpt lat="47.47355" lon="6.69184">
        <ele>309</ele>
        <time>2016-04-24T09:36:20Z</time>
      </trkpt>
      <trkpt lat="47.47353" lon="6.69184">
        <ele>309</ele>
        <time>2016-04-24T09:36:21Z</time>
      </trkpt>
      <trkpt lat="47.47357" lon="6.69181">
        <ele>309</ele>
        <time>2016-04-24T09:36:33Z</time>
      </trkpt>
      <trkpt lat="47.47359" lon="6.69181">
        <ele>309</ele>
        <time>2016-04-24T09:36:34Z</time>
      </trkpt>
      <trkpt lat="47.47362" lon="6.69181">
        <ele>309</ele>
        <time>2016-04-24T09:36:36Z</time>
      </trkpt>
      <trkpt lat="47.47364" lon="6.69181">
        <ele>309</ele>
        <time>2016-04-24T09:36:37Z</time>
      </trkpt>
      <trkpt lat="47.47362" lon="6.69187">
        <ele>309</ele>
        <time>2016-04-24T09:37:02Z</time>
      </trkpt>
      <trkpt lat="47.47362" lon="6.69187">
        <ele>309</ele>
        <time>2016-04-24T09:37:03Z</time>
      </trkpt>
      <trkpt lat="47.47365" lon="6.69183">
        <ele>309</ele>
        <time>2016-04-24T09:39:06Z</time>
      </trkpt>
      <trkpt lat="47.47365" lon="6.69183">
        <ele>309</ele>
        <time>2016-04-24T09:39:07Z</time>
      </trkpt>
      <trkpt lat="47.47364" lon="6.69189">
        <ele>309</ele>
        <time>2016-04-24T09:41:32Z</time>
      </trkpt>
      <trkpt lat="47.47364" lon="6.6919">
        <ele>309</ele>
        <time>2016-04-24T09:41:33Z</time>
      </trkpt>
      <trkpt lat="47.47361" lon="6.69187">
        <ele>309</ele>
        <time>2016-04-24T09:41:42Z</time>
      </trkpt>
      <trkpt lat="47.47359" lon="6.69184">
        <ele>309</ele>
        <time>2016-04-24T09:41:43Z</time>
      </trkpt>
      <trkpt lat="47.47358" lon="6.69181">
        <ele>309</ele>
        <time>2016-04-24T09:41:44Z</time>
      </trkpt>
      <trkpt lat="47.47357" lon="6.69178">
        <ele>309</ele>
        <time>2016-04-24T09:41:45Z</time>
      </trkpt>
      <trkpt lat="47.47355" lon="6.69172">
        <ele>309</ele>
        <time>2016-04-24T09:41:48Z</time>
      </trkpt>
      <trkpt lat="47.47355" lon="6.6917">
        <ele>309</ele>
        <time>2016-04-24T09:41:49Z</time>
      </trkpt>
      <trkpt lat="47.47353" lon="6.69163">
        <ele>310</ele>
        <time>2016-04-24T09:41:51Z</time>
      </trkpt>
      <trkpt lat="47.47352" lon="6.6916">
        <ele>310</ele>
        <time>2016-04-24T09:41:52Z</time>
      </trkpt>
      <trkpt lat="47.47351" lon="6.69157">
        <ele>310</ele>
        <time>2016-04-24T09:41:53Z</time>
      </trkpt>
      <trkpt lat="47.47349" lon="6.69154">
        <ele>310</ele>
        <time>2016-04-24T09:41:54Z</time>
      </trkpt>
      <trkpt lat="47.47347" lon="6.69151">
        <ele>310</ele>
        <time>2016-04-24T09:41:55Z</time>
      </trkpt>
      <trkpt lat="47.47345" lon="6.69149">
        <ele>310</ele>
        <time>2016-04-24T09:41:56Z</time>
      </trkpt>
      <trkpt lat="47.47343" lon="6.69147">
        <ele>310</ele>
        <time>2016-04-24T09:41:57Z</time>
      </trkpt>
      <trkpt lat="47.47342" lon="6.69145">
        <ele>310</ele>
        <time>2016-04-24T09:41:58Z</time>
      </trkpt>
      <trkpt lat="47.47339" lon="6.69141">
        <ele>310</ele>
        <time>2016-04-24T09:42:00Z</time>
      </trkpt>
      <trkpt lat="47.47337" lon="6.6914">
        <ele>310</ele>
        <time>2016-04-24T09:42:01Z</time>
      </trkpt>
      <trkpt lat="47.47334" lon="6.69136">
        <ele>310</ele>
        <time>2016-04-24T09:42:03Z</time>
      </trkpt>
      <trkpt lat="47.47333" lon="6.69134">
        <ele>309</ele>
        <time>2016-04-24T09:42:04Z</time>
      </trkpt>
      <trkpt lat="47.4733" lon="6.6913">
        <ele>309</ele>
        <time>2016-04-24T09:42:06Z</time>
      </trkpt>
      <trkpt lat="47.47329" lon="6.69128">
        <ele>309</ele>
        <time>2016-04-24T09:42:07Z</time>
      </trkpt>
      <trkpt lat="47.47327" lon="6.69122">
        <ele>309</ele>
        <time>2016-04-24T09:42:09Z</time>
      </trkpt>
    </trkseg>
  </trk>
</gpx>